<?xml version='1.0' encoding='UTF-8'?><gpx version="1.1" creator="JPX - https://github.com/jenetics/jpx" xmlns="http://www.topografix.com/GPX/1/1"><trk><trkseg><trkpt lat="44.87816586967" lon="9.840903525207601"><ele>129.0</ele><time>2026-03-28T07:03:39.005Z</time></trkpt><trkpt lat="44.87814875442017" lon="9.840812787986637"><ele>129.0</ele><time>2026-03-28T07:05:46Z</time></trkpt><trkpt lat="44.8780887148074" lon="9.840743885447644"><ele>129.0</ele><time>2026-03-28T07:05:49Z</time></trkpt><trkpt lat="44.87800165651564" lon="9.840731914362287"><ele>129.0</ele><time>2026-03-28T07:05:52Z</time></trkpt><trkpt lat="44.877914282109984" lon="9.840726646226974"><ele>129.0</ele><time>2026-03-28T07:05:55Z</time></trkpt><trkpt lat="44.87782934969967" lon="9.840707449427947"><ele>129.0</ele><time>2026-03-28T07:05:58Z</time></trkpt><trkpt lat="44.87776871923198" lon="9.840633350220402"><ele>129.0</ele><time>2026-03-28T07:06:00Z</time></trkpt><trkpt lat="44.87770403620325" lon="9.840596936496016"><ele>129.0</ele><time>2026-03-28T07:06:02Z</time></trkpt><trkpt lat="44.877640754801114" lon="9.840557730234531"><ele>129.0</ele><time>2026-03-28T07:06:04Z</time></trkpt><trkpt lat="44.877596202414466" lon="9.840490376968631"><ele>129.0</ele><time>2026-03-28T07:06:06Z</time></trkpt><trkpt lat="44.87758619539043" lon="9.8403987326792"><ele>129.0</ele><time>2026-03-28T07:06:08Z</time></trkpt><trkpt lat="44.87759730466048" lon="9.840274904275963"><ele>129.0</ele><time>2026-03-28T07:06:10.999Z</time></trkpt><trkpt lat="44.87758093769728" lon="9.840143831781914"><ele>128.66666666666666</ele><time>2026-03-28T07:06:13.999Z</time></trkpt><trkpt lat="44.87756951870851" lon="9.840047248599006"><ele>128.33333333333334</ele><time>2026-03-28T07:06:15.999Z</time></trkpt><trkpt lat="44.87752549821378" lon="9.839955868235434"><ele>128.0</ele><time>2026-03-28T07:06:17.999Z</time></trkpt><trkpt lat="44.877478575544956" lon="9.839881281775389"><ele>127.66666666666667</ele><time>2026-03-28T07:06:19.999Z</time></trkpt><trkpt lat="44.87741633731173" lon="9.839814830388992"><ele>127.33333333333334</ele><time>2026-03-28T07:06:21.999Z</time></trkpt><trkpt lat="44.87734550448063" lon="9.83974345781458"><ele>127.0</ele><time>2026-03-28T07:06:23.999Z</time></trkpt><trkpt lat="44.877268378131625" lon="9.839666462442613"><ele>127.0</ele><time>2026-03-28T07:06:25.999Z</time></trkpt><trkpt lat="44.8771914810288" lon="9.839584567427334"><ele>126.99999999999999</ele><time>2026-03-28T07:06:27.999Z</time></trkpt><trkpt lat="44.87711893791159" lon="9.839501778301234"><ele>126.99999999999999</ele><time>2026-03-28T07:06:29.999Z</time></trkpt><trkpt lat="44.877037239763006" lon="9.83941165775659"><ele>127.0</ele><time>2026-03-28T07:06:31.999Z</time></trkpt><trkpt lat="44.87695846602094" lon="9.839312193135806"><ele>127.0</ele><time>2026-03-28T07:06:33.999Z</time></trkpt><trkpt lat="44.876882998664314" lon="9.839195223787906"><ele>126.75</ele><time>2026-03-28T07:06:35.999Z</time></trkpt><trkpt lat="44.87680553779125" lon="9.839080133402053"><ele>126.5</ele><time>2026-03-28T07:06:37.999Z</time></trkpt><trkpt lat="44.876717914252026" lon="9.83897671709751"><ele>126.25</ele><time>2026-03-28T07:06:39.999Z</time></trkpt><trkpt lat="44.87661328567091" lon="9.838904571308891"><ele>126.0</ele><time>2026-03-28T07:06:41.999Z</time></trkpt><trkpt lat="44.87650531262413" lon="9.838856207743397"><ele>126.0</ele><time>2026-03-28T07:06:43.999Z</time></trkpt><trkpt lat="44.876394567953085" lon="9.838805667508263"><ele>126.0</ele><time>2026-03-28T07:06:45.999Z</time></trkpt><trkpt lat="44.87628397186399" lon="9.838760987666818"><ele>126.0</ele><time>2026-03-28T07:06:47.999Z</time></trkpt><trkpt lat="44.87618525687986" lon="9.83870422710988"><ele>126.0</ele><time>2026-03-28T07:06:49.999Z</time></trkpt><trkpt lat="44.87608217845537" lon="9.838659697488174"><ele>126.0</ele><time>2026-03-28T07:06:51.999Z</time></trkpt><trkpt lat="44.87598063241042" lon="9.838618357799662"><ele>126.19999999999999</ele><time>2026-03-28T07:06:53.999Z</time></trkpt><trkpt lat="44.87589030364001" lon="9.838572271792351"><ele>126.39999999999999</ele><time>2026-03-28T07:06:55.999Z</time></trkpt><trkpt lat="44.87580518060029" lon="9.838540835271044"><ele>126.6</ele><time>2026-03-28T07:06:57.999Z</time></trkpt><trkpt lat="44.87571823454135" lon="9.838507334696436"><ele>126.8</ele><time>2026-03-28T07:06:59.999Z</time></trkpt><trkpt lat="44.87562604774563" lon="9.838478826460584"><ele>127.0</ele><time>2026-03-28T07:07:01.999Z</time></trkpt><trkpt lat="44.8755452589388" lon="9.838459923153268"><ele>127.6</ele><time>2026-03-28T07:07:03.998Z</time></trkpt><trkpt lat="44.875457146946495" lon="9.83842333714396"><ele>128.2</ele><time>2026-03-28T07:07:05.998Z</time></trkpt><trkpt lat="44.875369526520906" lon="9.838400410888921"><ele>128.8</ele><time>2026-03-28T07:07:07.998Z</time></trkpt><trkpt lat="44.87529028672291" lon="9.838367228114109"><ele>129.4</ele><time>2026-03-28T07:07:09.998Z</time></trkpt><trkpt lat="44.87516250934088" lon="9.838327186179669"><ele>130.0</ele><time>2026-03-28T07:07:12.998Z</time></trkpt><trkpt lat="44.875038565907595" lon="9.838291061408267"><ele>130.0</ele><time>2026-03-28T07:07:15.998Z</time></trkpt><trkpt lat="44.87495056052871" lon="9.838267108714328"><ele>130.0</ele><time>2026-03-28T07:07:17.998Z</time></trkpt><trkpt lat="44.87486415196759" lon="9.838252855085905"><ele>130.0</ele><time>2026-03-28T07:07:19.998Z</time></trkpt><trkpt lat="44.87477686437341" lon="9.838252725460285"><ele>130.0</ele><time>2026-03-28T07:07:21.998Z</time></trkpt><trkpt lat="44.874667250469976" lon="9.838279768541204"><ele>130.0</ele><time>2026-03-28T07:07:24.998Z</time></trkpt><trkpt lat="44.87457129856753" lon="9.838309132946636"><ele>130.0</ele><time>2026-03-28T07:07:26.998Z</time></trkpt><trkpt lat="44.87448529367432" lon="9.838331365383082"><ele>130.0</ele><time>2026-03-28T07:07:28.998Z</time></trkpt><trkpt lat="44.87439870536383" lon="9.838351772220264"><ele>130.0</ele><time>2026-03-28T07:07:30.998Z</time></trkpt><trkpt lat="44.87430499430542" lon="9.838365298798077"><ele>130.0</ele><time>2026-03-28T07:07:32.998Z</time></trkpt><trkpt lat="44.87421147527525" lon="9.838352430563459"><ele>130.0</ele><time>2026-03-28T07:07:35Z</time></trkpt><trkpt lat="44.874124894386775" lon="9.83832373386114"><ele>130.5</ele><time>2026-03-28T07:07:37Z</time></trkpt><trkpt lat="44.87404417744802" lon="9.838287419301764"><ele>131.0</ele><time>2026-03-28T07:07:39Z</time></trkpt><trkpt lat="44.87396308889284" lon="9.838250731069934"><ele>131.5</ele><time>2026-03-28T07:07:41Z</time></trkpt><trkpt lat="44.87387757862187" lon="9.838219419435099"><ele>132.0</ele><time>2026-03-28T07:07:43Z</time></trkpt><trkpt lat="44.87379391062972" lon="9.83817888425273"><ele>132.5</ele><time>2026-03-28T07:07:45Z</time></trkpt><trkpt lat="44.87370871207631" lon="9.838139106288901"><ele>133.0</ele><time>2026-03-28T07:07:47Z</time></trkpt><trkpt lat="44.87363425440465" lon="9.838090320678885"><ele>133.0</ele><time>2026-03-28T07:07:49Z</time></trkpt><trkpt lat="44.87355431663607" lon="9.838013623828505"><ele>133.0</ele><time>2026-03-28T07:07:52Z</time></trkpt><trkpt lat="44.8734677310539" lon="9.837968571292622"><ele>133.0</ele><time>2026-03-28T07:07:54Z</time></trkpt><trkpt lat="44.873378014172424" lon="9.837924035660665"><ele>133.0</ele><time>2026-03-28T07:07:56Z</time></trkpt><trkpt lat="44.87330762651645" lon="9.837877815483244"><ele>133.0</ele><time>2026-03-28T07:07:58Z</time></trkpt><trkpt lat="44.87323214339118" lon="9.83782300550082"><ele>133.0</ele><time>2026-03-28T07:08:00Z</time></trkpt><trkpt lat="44.87315983243293" lon="9.837766616597696"><ele>133.4</ele><time>2026-03-28T07:08:02Z</time></trkpt><trkpt lat="44.87308768479721" lon="9.837707004695151"><ele>133.8</ele><time>2026-03-28T07:08:04Z</time></trkpt><trkpt lat="44.87300843869266" lon="9.837643502370986"><ele>134.2</ele><time>2026-03-28T07:08:06Z</time></trkpt><trkpt lat="44.87292452763406" lon="9.837585411387662"><ele>134.6</ele><time>2026-03-28T07:08:08Z</time></trkpt><trkpt lat="44.8728355632172" lon="9.837520512262772"><ele>135.0</ele><time>2026-03-28T07:08:10Z</time></trkpt><trkpt lat="44.8727280748727" lon="9.837462998822849"><ele>135.2</ele><time>2026-03-28T07:08:12Z</time></trkpt><trkpt lat="44.87263133816056" lon="9.837401775355824"><ele>135.4</ele><time>2026-03-28T07:08:14Z</time></trkpt><trkpt lat="44.87252720993127" lon="9.837359716651262"><ele>135.6</ele><time>2026-03-28T07:08:16Z</time></trkpt><trkpt lat="44.872411997502475" lon="9.837319598901189"><ele>135.8</ele><time>2026-03-28T07:08:17.999Z</time></trkpt><trkpt lat="44.872304641983206" lon="9.83727148647592"><ele>136.0</ele><time>2026-03-28T07:08:19.999Z</time></trkpt><trkpt lat="44.872193895611915" lon="9.837241074839197"><ele>135.6</ele><time>2026-03-28T07:08:21.999Z</time></trkpt><trkpt lat="44.8720837093679" lon="9.83721339081532"><ele>135.2</ele><time>2026-03-28T07:08:23.999Z</time></trkpt><trkpt lat="44.87198140169692" lon="9.83718699175629"><ele>134.8</ele><time>2026-03-28T07:08:25.999Z</time></trkpt><trkpt lat="44.87187576518666" lon="9.837159570874425"><ele>134.4</ele><time>2026-03-28T07:08:27.999Z</time></trkpt><trkpt lat="44.87177763918735" lon="9.837131067794832"><ele>134.0</ele><time>2026-03-28T07:08:29.999Z</time></trkpt><trkpt lat="44.87167445151008" lon="9.837105822853326"><ele>134.0</ele><time>2026-03-28T07:08:31.999Z</time></trkpt><trkpt lat="44.87156823517763" lon="9.837080297616943"><ele>134.0</ele><time>2026-03-28T07:08:33.999Z</time></trkpt><trkpt lat="44.871462824242045" lon="9.837052279020384"><ele>134.0</ele><time>2026-03-28T07:08:35.999Z</time></trkpt><trkpt lat="44.87134656933796" lon="9.837020600938972"><ele>134.0</ele><time>2026-03-28T07:08:37.999Z</time></trkpt><trkpt lat="44.87123383764552" lon="9.836990029658136"><ele>134.0</ele><time>2026-03-28T07:08:39.999Z</time></trkpt><trkpt lat="44.87112220442143" lon="9.836959694444612"><ele>134.0</ele><time>2026-03-28T07:08:41.999Z</time></trkpt><trkpt lat="44.87101276060193" lon="9.836926410711447"><ele>134.0</ele><time>2026-03-28T07:08:43.999Z</time></trkpt><trkpt lat="44.870893934875554" lon="9.836908136674595"><ele>134.0</ele><time>2026-03-28T07:08:45.999Z</time></trkpt><trkpt lat="44.87076923574231" lon="9.836870687530729"><ele>134.0</ele><time>2026-03-28T07:08:47.999Z</time></trkpt><trkpt lat="44.870648268121826" lon="9.836840677880629"><ele>134.0</ele><time>2026-03-28T07:08:49.999Z</time></trkpt><trkpt lat="44.87052928841927" lon="9.83680774167559"><ele>134.0</ele><time>2026-03-28T07:08:51.999Z</time></trkpt><trkpt lat="44.870409184110805" lon="9.83677638009646"><ele>134.0</ele><time>2026-03-28T07:08:53.999Z</time></trkpt><trkpt lat="44.870291508296944" lon="9.83674556596945"><ele>134.0</ele><time>2026-03-28T07:08:55.999Z</time></trkpt><trkpt lat="44.87017824841236" lon="9.836718063179474"><ele>134.5</ele><time>2026-03-28T07:08:57.999Z</time></trkpt><trkpt lat="44.87006554855" lon="9.83668856215377"><ele>135.0</ele><time>2026-03-28T07:08:59.999Z</time></trkpt><trkpt lat="44.86995444789011" lon="9.836665958165932"><ele>135.5</ele><time>2026-03-28T07:09:01.999Z</time></trkpt><trkpt lat="44.86983944832869" lon="9.836641441482566"><ele>136.0</ele><time>2026-03-28T07:09:03.999Z</time></trkpt><trkpt lat="44.86972423024696" lon="9.836627109335977"><ele>136.0</ele><time>2026-03-28T07:09:05.999Z</time></trkpt><trkpt lat="44.869610572762" lon="9.836613819146667"><ele>136.0</ele><time>2026-03-28T07:09:07.999Z</time></trkpt><trkpt lat="44.86949690955355" lon="9.836599174526151"><ele>136.0</ele><time>2026-03-28T07:09:09.998Z</time></trkpt><trkpt lat="44.869380331383645" lon="9.83658960807382"><ele>136.0</ele><time>2026-03-28T07:09:11.998Z</time></trkpt><trkpt lat="44.869265456573025" lon="9.836575789185975"><ele>135.5</ele><time>2026-03-28T07:09:13.998Z</time></trkpt><trkpt lat="44.86915074277975" lon="9.836563119850602"><ele>135.0</ele><time>2026-03-28T07:09:15.998Z</time></trkpt><trkpt lat="44.869037165571626" lon="9.836543370365934"><ele>134.5</ele><time>2026-03-28T07:09:17.998Z</time></trkpt><trkpt lat="44.86892277890489" lon="9.836528021164048"><ele>134.0</ele><time>2026-03-28T07:09:19.998Z</time></trkpt><trkpt lat="44.868807371382076" lon="9.83651240386887"><ele>134.0</ele><time>2026-03-28T07:09:21.998Z</time></trkpt><trkpt lat="44.86869230827733" lon="9.836490570657771"><ele>134.0</ele><time>2026-03-28T07:09:23.998Z</time></trkpt><trkpt lat="44.86857761396391" lon="9.8364614449608"><ele>134.0</ele><time>2026-03-28T07:09:25.998Z</time></trkpt><trkpt lat="44.86846408829798" lon="9.836420487358788"><ele>134.0</ele><time>2026-03-28T07:09:27.998Z</time></trkpt><trkpt lat="44.868350937694714" lon="9.836379285441149"><ele>134.5</ele><time>2026-03-28T07:09:29.998Z</time></trkpt><trkpt lat="44.86823801600194" lon="9.836334119740103"><ele>135.0</ele><time>2026-03-28T07:09:31.998Z</time></trkpt><trkpt lat="44.86812314662641" lon="9.83628547703124"><ele>135.5</ele><time>2026-03-28T07:09:33.998Z</time></trkpt><trkpt lat="44.8680083721535" lon="9.836235142017976"><ele>136.0</ele><time>2026-03-28T07:09:35.998Z</time></trkpt><trkpt lat="44.86789347569716" lon="9.836192114913233"><ele>136.0</ele><time>2026-03-28T07:09:37.998Z</time></trkpt><trkpt lat="44.86778035182312" lon="9.836145357206227"><ele>136.0</ele><time>2026-03-28T07:09:40Z</time></trkpt><trkpt lat="44.86766741416409" lon="9.836103352471785"><ele>136.0</ele><time>2026-03-28T07:09:42Z</time></trkpt><trkpt lat="44.867553501460094" lon="9.836057843277604"><ele>136.0</ele><time>2026-03-28T07:09:44Z</time></trkpt><trkpt lat="44.86743727079769" lon="9.83601366259944"><ele>136.25</ele><time>2026-03-28T07:09:46Z</time></trkpt><trkpt lat="44.867322894179914" lon="9.835968429176708"><ele>136.5</ele><time>2026-03-28T07:09:48Z</time></trkpt><trkpt lat="44.86720896309301" lon="9.835922988261986"><ele>136.75</ele><time>2026-03-28T07:09:50Z</time></trkpt><trkpt lat="44.867094224602596" lon="9.835879117714862"><ele>137.0</ele><time>2026-03-28T07:09:52Z</time></trkpt><trkpt lat="44.86697870370538" lon="9.835835013523567"><ele>137.0</ele><time>2026-03-28T07:09:54Z</time></trkpt><trkpt lat="44.8668655632374" lon="9.835787250190132"><ele>137.0</ele><time>2026-03-28T07:09:56Z</time></trkpt><trkpt lat="44.866751461162906" lon="9.835742202504667"><ele>137.0</ele><time>2026-03-28T07:09:58Z</time></trkpt><trkpt lat="44.86663630229167" lon="9.835696668333895"><ele>137.0</ele><time>2026-03-28T07:10:00Z</time></trkpt><trkpt lat="44.86652244996119" lon="9.835650068331356"><ele>137.0</ele><time>2026-03-28T07:10:02Z</time></trkpt><trkpt lat="44.86640686449534" lon="9.83560390900965"><ele>137.0</ele><time>2026-03-28T07:10:04Z</time></trkpt><trkpt lat="44.866295296916064" lon="9.835570493805257"><ele>137.0</ele><time>2026-03-28T07:10:06Z</time></trkpt><trkpt lat="44.866181971740374" lon="9.835514544294906"><ele>137.0</ele><time>2026-03-28T07:10:08Z</time></trkpt><trkpt lat="44.86606643353828" lon="9.835472074516698"><ele>137.0</ele><time>2026-03-28T07:10:10Z</time></trkpt><trkpt lat="44.865954352846714" lon="9.835422518354697"><ele>137.0</ele><time>2026-03-28T07:10:12Z</time></trkpt><trkpt lat="44.86584071837117" lon="9.835374664524474"><ele>137.0</ele><time>2026-03-28T07:10:14Z</time></trkpt><trkpt lat="44.86572797716354" lon="9.83532932933579"><ele>137.0</ele><time>2026-03-28T07:10:16Z</time></trkpt><trkpt lat="44.865617513936385" lon="9.835286663037202"><ele>136.75</ele><time>2026-03-28T07:10:18Z</time></trkpt><trkpt lat="44.8655057287769" lon="9.835240467709646"><ele>136.5</ele><time>2026-03-28T07:10:20Z</time></trkpt><trkpt lat="44.865395513515644" lon="9.83519368666604"><ele>136.25</ele><time>2026-03-28T07:10:22Z</time></trkpt><trkpt lat="44.86528468794379" lon="9.835151114030621"><ele>136.0</ele><time>2026-03-28T07:10:23.999Z</time></trkpt><trkpt lat="44.865174191053285" lon="9.83510914057532"><ele>136.25</ele><time>2026-03-28T07:10:25.999Z</time></trkpt><trkpt lat="44.865064846571315" lon="9.835061830806765"><ele>136.5</ele><time>2026-03-28T07:10:27.999Z</time></trkpt><trkpt lat="44.86495263035202" lon="9.835017924534725"><ele>136.75</ele><time>2026-03-28T07:10:29.999Z</time></trkpt><trkpt lat="44.86484016317628" lon="9.834975315715923"><ele>137.0</ele><time>2026-03-28T07:10:31.999Z</time></trkpt><trkpt lat="44.864729692996434" lon="9.834930440758972"><ele>137.0</ele><time>2026-03-28T07:10:33.999Z</time></trkpt><trkpt lat="44.86461809803705" lon="9.834886688537244"><ele>137.0</ele><time>2026-03-28T07:10:35.999Z</time></trkpt><trkpt lat="44.86450753683911" lon="9.834841249606118"><ele>137.0</ele><time>2026-03-28T07:10:37.999Z</time></trkpt><trkpt lat="44.86439934099133" lon="9.834795507188504"><ele>137.0</ele><time>2026-03-28T07:10:39.999Z</time></trkpt><trkpt lat="44.86429351895944" lon="9.834739337679142"><ele>137.25</ele><time>2026-03-28T07:10:41.999Z</time></trkpt><trkpt lat="44.86418511311358" lon="9.834679815665606"><ele>137.5</ele><time>2026-03-28T07:10:43.999Z</time></trkpt><trkpt lat="44.86407573999994" lon="9.834620585894621"><ele>137.75</ele><time>2026-03-28T07:10:45.999Z</time></trkpt><trkpt lat="44.863966169267485" lon="9.834558665944334"><ele>138.0</ele><time>2026-03-28T07:10:47.999Z</time></trkpt><trkpt lat="44.8638567223127" lon="9.834493511200368"><ele>138.0</ele><time>2026-03-28T07:10:49.999Z</time></trkpt><trkpt lat="44.86374633241129" lon="9.834431640158064"><ele>138.0</ele><time>2026-03-28T07:10:51.999Z</time></trkpt><trkpt lat="44.86363681147627" lon="9.834366514410084"><ele>138.0</ele><time>2026-03-28T07:10:53.999Z</time></trkpt><trkpt lat="44.8635297739823" lon="9.834301584601212"><ele>138.0</ele><time>2026-03-28T07:10:55.999Z</time></trkpt><trkpt lat="44.86342412135769" lon="9.83423593382196"><ele>138.25</ele><time>2026-03-28T07:10:57.999Z</time></trkpt><trkpt lat="44.86331792521906" lon="9.834172162510681"><ele>138.5</ele><time>2026-03-28T07:10:59.999Z</time></trkpt><trkpt lat="44.863211812521854" lon="9.834108727078487"><ele>138.75</ele><time>2026-03-28T07:11:01.999Z</time></trkpt><trkpt lat="44.863106762674605" lon="9.834038690735278"><ele>139.0</ele><time>2026-03-28T07:11:03.999Z</time></trkpt><trkpt lat="44.8630026113031" lon="9.833970438428132"><ele>139.0</ele><time>2026-03-28T07:11:05.999Z</time></trkpt><trkpt lat="44.86290024195841" lon="9.833895358182566"><ele>139.0</ele><time>2026-03-28T07:11:07.999Z</time></trkpt><trkpt lat="44.86280073880169" lon="9.833822907759254"><ele>139.0</ele><time>2026-03-28T07:11:09.999Z</time></trkpt><trkpt lat="44.86270317492786" lon="9.83374755569"><ele>139.0</ele><time>2026-03-28T07:11:11.999Z</time></trkpt><trkpt lat="44.86260660068321" lon="9.833672811930116"><ele>139.0</ele><time>2026-03-28T07:11:13.999Z</time></trkpt><trkpt lat="44.86250886113816" lon="9.833594342569357"><ele>139.5</ele><time>2026-03-28T07:11:15.998Z</time></trkpt><trkpt lat="44.86241425518732" lon="9.833508282011485"><ele>140.0</ele><time>2026-03-28T07:11:17.998Z</time></trkpt><trkpt lat="44.86232403606738" lon="9.833408487621373"><ele>140.5</ele><time>2026-03-28T07:11:19.998Z</time></trkpt><trkpt lat="44.862234840042774" lon="9.833309403466124"><ele>141.0</ele><time>2026-03-28T07:11:21.998Z</time></trkpt><trkpt lat="44.8621431528948" lon="9.83320116869516"><ele>141.5</ele><time>2026-03-28T07:11:23.998Z</time></trkpt><trkpt lat="44.86204820538784" lon="9.833099710027042"><ele>142.0</ele><time>2026-03-28T07:11:25.998Z</time></trkpt><trkpt lat="44.86195199965989" lon="9.8330042746647"><ele>142.5</ele><time>2026-03-28T07:11:27.998Z</time></trkpt><trkpt lat="44.861853226356814" lon="9.83290796888009"><ele>143.0</ele><time>2026-03-28T07:11:29.998Z</time></trkpt><trkpt lat="44.86175473727317" lon="9.832809309550356"><ele>143.25</ele><time>2026-03-28T07:11:31.998Z</time></trkpt><trkpt lat="44.861656718583454" lon="9.832715643373023"><ele>143.5</ele><time>2026-03-28T07:11:33.998Z</time></trkpt><trkpt lat="44.8615493132765" lon="9.832630026214266"><ele>143.75</ele><time>2026-03-28T07:11:35.998Z</time></trkpt><trkpt lat="44.86144930600012" lon="9.832536122533599"><ele>144.0</ele><time>2026-03-28T07:11:37.998Z</time></trkpt><trkpt lat="44.861346882935564" lon="9.83245074133875"><ele>144.0</ele><time>2026-03-28T07:11:39.998Z</time></trkpt><trkpt lat="44.86124473188411" lon="9.83236304977751"><ele>144.0</ele><time>2026-03-28T07:11:41.998Z</time></trkpt><trkpt lat="44.86114096126268" lon="9.832274645274234"><ele>144.0</ele><time>2026-03-28T07:11:43.998Z</time></trkpt><trkpt lat="44.861036967003145" lon="9.832188792426107"><ele>144.0</ele><time>2026-03-28T07:11:46Z</time></trkpt><trkpt lat="44.86093443519964" lon="9.832101629641901"><ele>144.25</ele><time>2026-03-28T07:11:48Z</time></trkpt><trkpt lat="44.860830193461574" lon="9.832017314414795"><ele>144.5</ele><time>2026-03-28T07:11:50Z</time></trkpt><trkpt lat="44.86073066965348" lon="9.83193185563574"><ele>144.75</ele><time>2026-03-28T07:11:52Z</time></trkpt><trkpt lat="44.860632276727365" lon="9.831840697239453"><ele>145.0</ele><time>2026-03-28T07:11:54Z</time></trkpt><trkpt lat="44.86053130848815" lon="9.83175678348511"><ele>144.8</ele><time>2026-03-28T07:11:56Z</time></trkpt><trkpt lat="44.86043308785523" lon="9.83167072097215"><ele>144.6</ele><time>2026-03-28T07:11:58Z</time></trkpt><trkpt lat="44.860366375931264" lon="9.831632745894929"><ele>144.4</ele><time>2026-03-28T07:11:59Z</time></trkpt><trkpt lat="44.86028132933575" lon="9.831537082433622"><ele>144.2</ele><time>2026-03-28T07:12:01Z</time></trkpt><trkpt lat="44.86018666704878" lon="9.831435384629472"><ele>144.0</ele><time>2026-03-28T07:12:03Z</time></trkpt><trkpt lat="44.86009333072714" lon="9.831332227372773"><ele>144.0</ele><time>2026-03-28T07:12:05Z</time></trkpt><trkpt lat="44.86000051542184" lon="9.831228195333551"><ele>144.0</ele><time>2026-03-28T07:12:07Z</time></trkpt><trkpt lat="44.8599075581531" lon="9.831129838549844"><ele>144.0</ele><time>2026-03-28T07:12:09Z</time></trkpt><trkpt lat="44.8598157824944" lon="9.831025723671905"><ele>144.0</ele><time>2026-03-28T07:12:11Z</time></trkpt><trkpt lat="44.85973429305273" lon="9.830905186870934"><ele>144.5</ele><time>2026-03-28T07:12:13Z</time></trkpt><trkpt lat="44.85964072945676" lon="9.830800079176583"><ele>145.0</ele><time>2026-03-28T07:12:15Z</time></trkpt><trkpt lat="44.85957300891645" lon="9.830660444058692"><ele>145.5</ele><time>2026-03-28T07:12:17Z</time></trkpt><trkpt lat="44.85951227101517" lon="9.830518472760351"><ele>146.0</ele><time>2026-03-28T07:12:19Z</time></trkpt><trkpt lat="44.859458731055874" lon="9.830373043506809"><ele>146.0</ele><time>2026-03-28T07:12:21Z</time></trkpt><trkpt lat="44.859405917754856" lon="9.830229406160493"><ele>146.0</ele><time>2026-03-28T07:12:23Z</time></trkpt><trkpt lat="44.859356206919436" lon="9.830086255456589"><ele>146.0</ele><time>2026-03-28T07:12:25Z</time></trkpt><trkpt lat="44.859303741050056" lon="9.829943209435319"><ele>146.0</ele><time>2026-03-28T07:12:27Z</time></trkpt><trkpt lat="44.85925729068851" lon="9.829798428045017"><ele>146.75</ele><time>2026-03-28T07:12:28.999Z</time></trkpt><trkpt lat="44.85920924808381" lon="9.829653474083543"><ele>147.5</ele><time>2026-03-28T07:12:30.999Z</time></trkpt><trkpt lat="44.85915565720776" lon="9.82951292345964"><ele>148.25</ele><time>2026-03-28T07:12:32.999Z</time></trkpt><trkpt lat="44.85910503010581" lon="9.829371905230762"><ele>149.0</ele><time>2026-03-28T07:12:34.999Z</time></trkpt><trkpt lat="44.85904630420083" lon="9.829238756365172"><ele>149.0</ele><time>2026-03-28T07:12:36.999Z</time></trkpt><trkpt lat="44.85897765698228" lon="9.829119459881838"><ele>149.0</ele><time>2026-03-28T07:12:38.999Z</time></trkpt><trkpt lat="44.858894302473125" lon="9.829017167449365"><ele>149.0</ele><time>2026-03-28T07:12:40.999Z</time></trkpt><trkpt lat="44.858801002368914" lon="9.828924550519552"><ele>149.0</ele><time>2026-03-28T07:12:42.999Z</time></trkpt><trkpt lat="44.85870639532527" lon="9.828834594629514"><ele>149.0</ele><time>2026-03-28T07:12:44.999Z</time></trkpt><trkpt lat="44.85861170212706" lon="9.828750188222411"><ele>149.0</ele><time>2026-03-28T07:12:46.999Z</time></trkpt><trkpt lat="44.85851853512774" lon="9.828664158902582"><ele>149.0</ele><time>2026-03-28T07:12:48.999Z</time></trkpt><trkpt lat="44.85842244325184" lon="9.82857719910144"><ele>149.0</ele><time>2026-03-28T07:12:50.999Z</time></trkpt><trkpt lat="44.85832663914284" lon="9.828489446680582"><ele>149.0</ele><time>2026-03-28T07:12:52.999Z</time></trkpt><trkpt lat="44.858228338562164" lon="9.828402443642101"><ele>149.75</ele><time>2026-03-28T07:12:54.999Z</time></trkpt><trkpt lat="44.858129117374006" lon="9.828309251056536"><ele>150.5</ele><time>2026-03-28T07:12:56.999Z</time></trkpt><trkpt lat="44.85802979333869" lon="9.828215963403808"><ele>151.25</ele><time>2026-03-28T07:12:58.999Z</time></trkpt><trkpt lat="44.85793097228655" lon="9.828116809831915"><ele>152.0</ele><time>2026-03-28T07:13:00.999Z</time></trkpt><trkpt lat="44.85783535199133" lon="9.828007801963377"><ele>152.0</ele><time>2026-03-28T07:13:02.999Z</time></trkpt><trkpt lat="44.85775387026338" lon="9.827878647235458"><ele>152.0</ele><time>2026-03-28T07:13:04.999Z</time></trkpt><trkpt lat="44.85768842870744" lon="9.827735176423335"><ele>152.0</ele><time>2026-03-28T07:13:06.999Z</time></trkpt><trkpt lat="44.85766150856118" lon="9.827654097013028"><ele>152.0</ele><time>2026-03-28T07:13:07.999Z</time></trkpt><trkpt lat="44.85761427663225" lon="9.827500413792531"><ele>152.0</ele><time>2026-03-28T07:13:09.999Z</time></trkpt><trkpt lat="44.8575674811642" lon="9.827345025173114"><ele>152.0</ele><time>2026-03-28T07:13:11.999Z</time></trkpt><trkpt lat="44.8575108765417" lon="9.827196331911104"><ele>152.0</ele><time>2026-03-28T07:13:13.999Z</time></trkpt><trkpt lat="44.85744625989961" lon="9.827057032832336"><ele>152.0</ele><time>2026-03-28T07:13:15.999Z</time></trkpt><trkpt lat="44.85737081857999" lon="9.826924500913321"><ele>152.0</ele><time>2026-03-28T07:13:17.999Z</time></trkpt><trkpt lat="44.85729261083973" lon="9.826800378340055"><ele>152.25</ele><time>2026-03-28T07:13:19.999Z</time></trkpt><trkpt lat="44.85721172763758" lon="9.826675391340784"><ele>152.5</ele><time>2026-03-28T07:13:21.998Z</time></trkpt><trkpt lat="44.85712907612028" lon="9.826556001143379"><ele>152.75</ele><time>2026-03-28T07:13:23.998Z</time></trkpt><trkpt lat="44.85704727976575" lon="9.826433412349806"><ele>153.0</ele><time>2026-03-28T07:13:25.998Z</time></trkpt><trkpt lat="44.85696581125905" lon="9.826311845314029"><ele>153.0</ele><time>2026-03-28T07:13:27.998Z</time></trkpt><trkpt lat="44.85688466240071" lon="9.826194255620903"><ele>153.0</ele><time>2026-03-28T07:13:29.998Z</time></trkpt><trkpt lat="44.85679958819731" lon="9.826082492744481"><ele>153.0</ele><time>2026-03-28T07:13:31.998Z</time></trkpt><trkpt lat="44.85671800233987" lon="9.825964509013204"><ele>153.0</ele><time>2026-03-28T07:13:33.998Z</time></trkpt><trkpt lat="44.85663772173651" lon="9.825848367249842"><ele>153.75</ele><time>2026-03-28T07:13:35.998Z</time></trkpt><trkpt lat="44.856556333739924" lon="9.825733068288839"><ele>154.5</ele><time>2026-03-28T07:13:37.998Z</time></trkpt><trkpt lat="44.85647754106861" lon="9.825617761788425"><ele>155.25</ele><time>2026-03-28T07:13:39.998Z</time></trkpt><trkpt lat="44.856397294192064" lon="9.82549766874879"><ele>156.0</ele><time>2026-03-28T07:13:41.998Z</time></trkpt><trkpt lat="44.85631661597553" lon="9.825378431658537"><ele>156.0</ele><time>2026-03-28T07:13:43.998Z</time></trkpt><trkpt lat="44.85622786731121" lon="9.825270126777413"><ele>156.0</ele><time>2026-03-28T07:13:45.998Z</time></trkpt><trkpt lat="44.856120034758234" lon="9.825201054213164"><ele>156.0</ele><time>2026-03-28T07:13:47.998Z</time></trkpt><trkpt lat="44.85599740401853" lon="9.825223268263786"><ele>156.0</ele><time>2026-03-28T07:13:49.998Z</time></trkpt><trkpt lat="44.85593913507579" lon="9.825258368217222"><ele>156.0</ele><time>2026-03-28T07:13:50.998Z</time></trkpt><trkpt lat="44.8558874464302" lon="9.825310558524318"><ele>156.14285714285714</ele><time>2026-03-28T07:13:52Z</time></trkpt><trkpt lat="44.85583577818577" lon="9.825364133107131"><ele>156.28571428571428</ele><time>2026-03-28T07:13:53Z</time></trkpt><trkpt lat="44.855784432797485" lon="9.825420171393098"><ele>156.42857142857142</ele><time>2026-03-28T07:13:54Z</time></trkpt><trkpt lat="44.85573309902963" lon="9.825474900542474"><ele>156.57142857142856</ele><time>2026-03-28T07:13:55Z</time></trkpt><trkpt lat="44.85567987905856" lon="9.825530294008887"><ele>156.71428571428572</ele><time>2026-03-28T07:13:56Z</time></trkpt><trkpt lat="44.85562717102281" lon="9.82558588556976"><ele>156.85714285714283</ele><time>2026-03-28T07:13:57Z</time></trkpt><trkpt lat="44.85557385918363" lon="9.82564187058198"><ele>157.0</ele><time>2026-03-28T07:13:58Z</time></trkpt><trkpt lat="44.85552147471671" lon="9.825697676426648"><ele>157.0</ele><time>2026-03-28T07:13:59Z</time></trkpt><trkpt lat="44.85546763982317" lon="9.825751976034134"><ele>157.0</ele><time>2026-03-28T07:14:00Z</time></trkpt><trkpt lat="44.85541177045418" lon="9.82580269896136"><ele>157.0</ele><time>2026-03-28T07:14:01Z</time></trkpt><trkpt lat="44.85535980230609" lon="9.825855376987791"><ele>157.0</ele><time>2026-03-28T07:14:02Z</time></trkpt><trkpt lat="44.85526446746888" lon="9.825965297448194"><ele>157.0</ele><time>2026-03-28T07:14:04Z</time></trkpt><trkpt lat="44.85517691879463" lon="9.826077281026343"><ele>157.0</ele><time>2026-03-28T07:14:06Z</time></trkpt><trkpt lat="44.85508273397787" lon="9.826195112157663"><ele>156.7142857142857</ele><time>2026-03-28T07:14:08Z</time></trkpt><trkpt lat="44.855034150586505" lon="9.826261610448675"><ele>156.42857142857142</ele><time>2026-03-28T07:14:09Z</time></trkpt><trkpt lat="44.854985393420364" lon="9.82633584414599"><ele>156.14285714285714</ele><time>2026-03-28T07:14:10Z</time></trkpt><trkpt lat="44.854933329442154" lon="9.826407416547475"><ele>155.85714285714283</ele><time>2026-03-28T07:14:11Z</time></trkpt><trkpt lat="44.854879200988684" lon="9.826478394904438"><ele>155.57142857142856</ele><time>2026-03-28T07:14:12Z</time></trkpt><trkpt lat="44.8548270687237" lon="9.82654751722661"><ele>155.28571428571428</ele><time>2026-03-28T07:14:13Z</time></trkpt><trkpt lat="44.85477848220757" lon="9.82661305060097"><ele>155.0</ele><time>2026-03-28T07:14:14Z</time></trkpt><trkpt lat="44.85472825666584" lon="9.826673277667625"><ele>155.0</ele><time>2026-03-28T07:14:15Z</time></trkpt><trkpt lat="44.854677692240564" lon="9.826732415793716"><ele>155.0</ele><time>2026-03-28T07:14:16Z</time></trkpt><trkpt lat="44.854629133769066" lon="9.826791566565657"><ele>155.0</ele><time>2026-03-28T07:14:17Z</time></trkpt><trkpt lat="44.854535559366155" lon="9.826898928310472"><ele>155.0</ele><time>2026-03-28T07:14:19Z</time></trkpt><trkpt lat="44.85444514514608" lon="9.827003702234931"><ele>155.0</ele><time>2026-03-28T07:14:21Z</time></trkpt><trkpt lat="44.85436219861843" lon="9.827103158793298"><ele>156.0</ele><time>2026-03-28T07:14:23Z</time></trkpt><trkpt lat="44.85428376689253" lon="9.827193662027979"><ele>157.0</ele><time>2026-03-28T07:14:25Z</time></trkpt><trkpt lat="44.85420519437187" lon="9.827287586937294"><ele>158.0</ele><time>2026-03-28T07:14:27Z</time></trkpt><trkpt lat="44.85412923931349" lon="9.827370539187001"><ele>159.0</ele><time>2026-03-28T07:14:29Z</time></trkpt><trkpt lat="44.8540547009769" lon="9.82745360963267"><ele>160.0</ele><time>2026-03-28T07:14:31Z</time></trkpt><trkpt lat="44.853980239665404" lon="9.827536617024029"><ele>160.0</ele><time>2026-03-28T07:14:32.999Z</time></trkpt><trkpt lat="44.853902777556826" lon="9.827614827790347"><ele>160.0</ele><time>2026-03-28T07:14:34.999Z</time></trkpt><trkpt lat="44.85382458485676" lon="9.827687622062"><ele>160.0</ele><time>2026-03-28T07:14:36.999Z</time></trkpt><trkpt lat="44.85373944094764" lon="9.827741940855404"><ele>160.0</ele><time>2026-03-28T07:14:38.999Z</time></trkpt><trkpt lat="44.8536450545158" lon="9.827772024134571"><ele>160.0</ele><time>2026-03-28T07:14:40.999Z</time></trkpt><trkpt lat="44.853544870295394" lon="9.827761659870832"><ele>161.5</ele><time>2026-03-28T07:14:42.999Z</time></trkpt><trkpt lat="44.8534335224814" lon="9.827753944711972"><ele>163.0</ele><time>2026-03-28T07:14:44.999Z</time></trkpt><trkpt lat="44.853317331029" lon="9.827756513054796"><ele>164.5</ele><time>2026-03-28T07:14:46.999Z</time></trkpt><trkpt lat="44.85319881042679" lon="9.827768305922454"><ele>166.0</ele><time>2026-03-28T07:14:48.999Z</time></trkpt><trkpt lat="44.85307983383247" lon="9.827780809609742"><ele>166.0</ele><time>2026-03-28T07:14:50.999Z</time></trkpt><trkpt lat="44.85295957312111" lon="9.827783682782284"><ele>166.0</ele><time>2026-03-28T07:14:52.999Z</time></trkpt><trkpt lat="44.85283775253472" lon="9.827769330738251"><ele>166.0</ele><time>2026-03-28T07:14:54.999Z</time></trkpt><trkpt lat="44.85277608526658" lon="9.82774375887573"><ele>166.0</ele><time>2026-03-28T07:14:55.999Z</time></trkpt><trkpt lat="44.85271804419445" lon="9.827709031526897"><ele>166.0</ele><time>2026-03-28T07:14:56.999Z</time></trkpt><trkpt lat="44.85265877056031" lon="9.82766956687242"><ele>166.0</ele><time>2026-03-28T07:14:57.999Z</time></trkpt><trkpt lat="44.85260311994062" lon="9.82762300568155"><ele>165.66666666666669</ele><time>2026-03-28T07:14:58.999Z</time></trkpt><trkpt lat="44.85254677919703" lon="9.827576103850761"><ele>165.33333333333334</ele><time>2026-03-28T07:14:59.999Z</time></trkpt><trkpt lat="44.85249265636765" lon="9.82752206325748"><ele>165.0</ele><time>2026-03-28T07:15:00.999Z</time></trkpt><trkpt lat="44.85243971710539" lon="9.827467925677757"><ele>164.66666666666666</ele><time>2026-03-28T07:15:01.999Z</time></trkpt><trkpt lat="44.852384993215104" lon="9.82741771017403"><ele>164.33333333333331</ele><time>2026-03-28T07:15:02.999Z</time></trkpt><trkpt lat="44.85233318721297" lon="9.827364403888927"><ele>164.0</ele><time>2026-03-28T07:15:03.999Z</time></trkpt><trkpt lat="44.85223337921244" lon="9.827257165344154"><ele>164.0</ele><time>2026-03-28T07:15:05.999Z</time></trkpt><trkpt lat="44.85218389991754" lon="9.827198910703743"><ele>164.0</ele><time>2026-03-28T07:15:06.999Z</time></trkpt><trkpt lat="44.85208919401106" lon="9.827084992169233"><ele>164.0</ele><time>2026-03-28T07:15:08.999Z</time></trkpt><trkpt lat="44.851997112402934" lon="9.826970244913207"><ele>164.0</ele><time>2026-03-28T07:15:10.999Z</time></trkpt><trkpt lat="44.851905706086534" lon="9.826858212256477"><ele>164.0</ele><time>2026-03-28T07:15:12.999Z</time></trkpt><trkpt lat="44.85181128932985" lon="9.826753523476752"><ele>163.25</ele><time>2026-03-28T07:15:14.999Z</time></trkpt><trkpt lat="44.85170690183829" lon="9.826669597385964"><ele>162.5</ele><time>2026-03-28T07:15:16.999Z</time></trkpt><trkpt lat="44.85159323056682" lon="9.826614274567735"><ele>161.75</ele><time>2026-03-28T07:15:18.999Z</time></trkpt><trkpt lat="44.851474499886244" lon="9.826597103967718"><ele>161.0</ele><time>2026-03-28T07:15:20.999Z</time></trkpt><trkpt lat="44.85135314634015" lon="9.826605527162629"><ele>161.0</ele><time>2026-03-28T07:15:22.999Z</time></trkpt><trkpt lat="44.85123097547523" lon="9.826607478841474"><ele>161.0</ele><time>2026-03-28T07:15:24.999Z</time></trkpt><trkpt lat="44.85110723139948" lon="9.826605215313757"><ele>161.0</ele><time>2026-03-28T07:15:26.998Z</time></trkpt><trkpt lat="44.85098500130697" lon="9.826583672666812"><ele>161.0</ele><time>2026-03-28T07:15:28.998Z</time></trkpt><trkpt lat="44.85086651943321" lon="9.826544643736572"><ele>162.5</ele><time>2026-03-28T07:15:30.998Z</time></trkpt><trkpt lat="44.85075355247123" lon="9.82647463546768"><ele>164.0</ele><time>2026-03-28T07:15:32.998Z</time></trkpt><trkpt lat="44.850652715667906" lon="9.826377562782977"><ele>165.5</ele><time>2026-03-28T07:15:34.998Z</time></trkpt><trkpt lat="44.85055924252471" lon="9.826282020562303"><ele>167.0</ele><time>2026-03-28T07:15:36.998Z</time></trkpt><trkpt lat="44.85046776173029" lon="9.826188793397854"><ele>167.0</ele><time>2026-03-28T07:15:38.998Z</time></trkpt><trkpt lat="44.850376067810565" lon="9.826091605036693"><ele>167.0</ele><time>2026-03-28T07:15:40.998Z</time></trkpt><trkpt lat="44.850260121161256" lon="9.826072389772982"><ele>167.0</ele><time>2026-03-28T07:15:42.998Z</time></trkpt><trkpt lat="44.850148222739946" lon="9.826074447781814"><ele>167.0</ele><time>2026-03-28T07:15:44.998Z</time></trkpt><trkpt lat="44.850035161961664" lon="9.82608776785333"><ele>167.0</ele><time>2026-03-28T07:15:46.998Z</time></trkpt><trkpt lat="44.84992492373492" lon="9.826094258478433"><ele>167.0</ele><time>2026-03-28T07:15:48.998Z</time></trkpt><trkpt lat="44.84981364676575" lon="9.826086955872327"><ele>167.0</ele><time>2026-03-28T07:15:50.998Z</time></trkpt><trkpt lat="44.84970892757753" lon="9.826055507849752"><ele>167.0</ele><time>2026-03-28T07:15:52.998Z</time></trkpt><trkpt lat="44.84960776759982" lon="9.82600602654746"><ele>167.0</ele><time>2026-03-28T07:15:54.998Z</time></trkpt><trkpt lat="44.84951242569458" lon="9.825945962267014"><ele>167.0</ele><time>2026-03-28T07:15:56.998Z</time></trkpt><trkpt lat="44.84942011491644" lon="9.825871658904742"><ele>167.0</ele><time>2026-03-28T07:15:59Z</time></trkpt><trkpt lat="44.84933220796359" lon="9.825804236292464"><ele>167.0</ele><time>2026-03-28T07:16:01Z</time></trkpt><trkpt lat="44.849245047319556" lon="9.825734751374924"><ele>167.0</ele><time>2026-03-28T07:16:03Z</time></trkpt><trkpt lat="44.84916946629743" lon="9.825661813315179"><ele>167.0</ele><time>2026-03-28T07:16:05Z</time></trkpt><trkpt lat="44.8490897665994" lon="9.82558554420704"><ele>166.6</ele><time>2026-03-28T07:16:07Z</time></trkpt><trkpt lat="44.849018419532776" lon="9.825506201761069"><ele>166.2</ele><time>2026-03-28T07:16:09Z</time></trkpt><trkpt lat="44.8489463506573" lon="9.825424427235987"><ele>165.8</ele><time>2026-03-28T07:16:11Z</time></trkpt><trkpt lat="44.848881643282404" lon="9.825318421200011"><ele>165.4</ele><time>2026-03-28T07:16:13Z</time></trkpt><trkpt lat="44.84881638737117" lon="9.82521034816437"><ele>165.0</ele><time>2026-03-28T07:16:15Z</time></trkpt><trkpt lat="44.84875219203557" lon="9.825097183794256"><ele>165.0</ele><time>2026-03-28T07:16:17Z</time></trkpt><trkpt lat="44.84868731116411" lon="9.824985400364406"><ele>165.0</ele><time>2026-03-28T07:16:19Z</time></trkpt><trkpt lat="44.84862042708669" lon="9.824877210770325"><ele>165.0</ele><time>2026-03-28T07:16:21Z</time></trkpt><trkpt lat="44.84854978441714" lon="9.824770656450955"><ele>165.0</ele><time>2026-03-28T07:16:23Z</time></trkpt><trkpt lat="44.8484691071973" lon="9.824658047888459"><ele>165.0</ele><time>2026-03-28T07:16:25Z</time></trkpt><trkpt lat="44.848381825551144" lon="9.824535266588175"><ele>165.42857142857144</ele><time>2026-03-28T07:16:27Z</time></trkpt><trkpt lat="44.84833162524237" lon="9.824474029235569"><ele>165.85714285714286</ele><time>2026-03-28T07:16:28Z</time></trkpt><trkpt lat="44.848281470783874" lon="9.824409474012654"><ele>166.28571428571428</ele><time>2026-03-28T07:16:29Z</time></trkpt><trkpt lat="44.848234935319134" lon="9.824335289827388"><ele>166.71428571428572</ele><time>2026-03-28T07:16:30Z</time></trkpt><trkpt lat="44.84818776814094" lon="9.824270579358965"><ele>167.14285714285714</ele><time>2026-03-28T07:16:31Z</time></trkpt><trkpt lat="44.84814143507292" lon="9.82420122897169"><ele>167.57142857142858</ele><time>2026-03-28T07:16:32Z</time></trkpt><trkpt lat="44.84809401313309" lon="9.824132867337894"><ele>168.0</ele><time>2026-03-28T07:16:33Z</time></trkpt><trkpt lat="44.8480468872161" lon="9.82406665797365"><ele>168.0</ele><time>2026-03-28T07:16:34Z</time></trkpt><trkpt lat="44.84799838767625" lon="9.82400110018445"><ele>168.0</ele><time>2026-03-28T07:16:35Z</time></trkpt><trkpt lat="44.84794930913757" lon="9.823938686850024"><ele>168.0</ele><time>2026-03-28T07:16:35.999Z</time></trkpt><trkpt lat="44.84789576196522" lon="9.823886528780855"><ele>168.0</ele><time>2026-03-28T07:16:36.999Z</time></trkpt><trkpt lat="44.84778555372171" lon="9.823801761568536"><ele>168.0</ele><time>2026-03-28T07:16:38.999Z</time></trkpt><trkpt lat="44.84772359035288" lon="9.82377436397152"><ele>168.0</ele><time>2026-03-28T07:16:39.999Z</time></trkpt><trkpt lat="44.84766045231006" lon="9.823764301084339"><ele>169.0</ele><time>2026-03-28T07:16:40.999Z</time></trkpt><trkpt lat="44.847597314538724" lon="9.823754015309769"><ele>170.0</ele><time>2026-03-28T07:16:41.999Z</time></trkpt><trkpt lat="44.84748367283294" lon="9.823744605822064"><ele>171.0</ele><time>2026-03-28T07:16:43.999Z</time></trkpt><trkpt lat="44.847373760652005" lon="9.823738546942334"><ele>172.0</ele><time>2026-03-28T07:16:45.999Z</time></trkpt><trkpt lat="44.84726988110722" lon="9.823726638986665"><ele>173.0</ele><time>2026-03-28T07:16:47.999Z</time></trkpt><trkpt lat="44.847171637168486" lon="9.823719520757937"><ele>173.0</ele><time>2026-03-28T07:16:49.999Z</time></trkpt><trkpt lat="44.847075320536554" lon="9.823712857025264"><ele>173.0</ele><time>2026-03-28T07:16:51.999Z</time></trkpt><trkpt lat="44.84698530762266" lon="9.823707372919003"><ele>173.0</ele><time>2026-03-28T07:16:53.999Z</time></trkpt><trkpt lat="44.8468965232167" lon="9.823700222817136"><ele>173.0</ele><time>2026-03-28T07:16:55.999Z</time></trkpt><trkpt lat="44.846808355439805" lon="9.823685301945954"><ele>173.0</ele><time>2026-03-28T07:16:57.999Z</time></trkpt><trkpt lat="44.846720349638595" lon="9.823664459025888"><ele>173.8</ele><time>2026-03-28T07:16:59.999Z</time></trkpt><trkpt lat="44.84663420718234" lon="9.823626459505544"><ele>174.60000000000002</ele><time>2026-03-28T07:17:01.999Z</time></trkpt><trkpt lat="44.84654873799852" lon="9.823575459404845"><ele>175.39999999999998</ele><time>2026-03-28T07:17:03.999Z</time></trkpt><trkpt lat="44.84646200065162" lon="9.823530082353287"><ele>176.2</ele><time>2026-03-28T07:17:05.999Z</time></trkpt><trkpt lat="44.84637631541946" lon="9.823471202711673"><ele>177.0</ele><time>2026-03-28T07:17:07.999Z</time></trkpt><trkpt lat="44.846295488313174" lon="9.823413104823176"><ele>177.0</ele><time>2026-03-28T07:17:09.999Z</time></trkpt><trkpt lat="44.846214856097305" lon="9.82335269741503"><ele>177.0</ele><time>2026-03-28T07:17:11.999Z</time></trkpt><trkpt lat="44.84613425677363" lon="9.823284433097676"><ele>177.0</ele><time>2026-03-28T07:17:13.999Z</time></trkpt><trkpt lat="44.8460544548557" lon="9.823215813058393"><ele>177.0</ele><time>2026-03-28T07:17:15.999Z</time></trkpt><trkpt lat="44.84597569215032" lon="9.823139826108399"><ele>177.0</ele><time>2026-03-28T07:17:17.999Z</time></trkpt><trkpt lat="44.845898972107136" lon="9.823059056402036"><ele>177.39999999999998</ele><time>2026-03-28T07:17:19.999Z</time></trkpt><trkpt lat="44.845817228127295" lon="9.822978371628398"><ele>177.79999999999998</ele><time>2026-03-28T07:17:21.999Z</time></trkpt><trkpt lat="44.84573990563223" lon="9.822887231194802"><ele>178.2</ele><time>2026-03-28T07:17:23.999Z</time></trkpt><trkpt lat="44.84566451137625" lon="9.82278682314783"><ele>178.6</ele><time>2026-03-28T07:17:25.999Z</time></trkpt><trkpt lat="44.84559392005049" lon="9.822682244889798"><ele>179.0</ele><time>2026-03-28T07:17:27.999Z</time></trkpt><trkpt lat="44.845525699911455" lon="9.822572016117562"><ele>179.0</ele><time>2026-03-28T07:17:29.998Z</time></trkpt><trkpt lat="44.84546649309413" lon="9.822455705139765"><ele>179.0</ele><time>2026-03-28T07:17:31.998Z</time></trkpt><trkpt lat="44.845411218239825" lon="9.822337835225312"><ele>179.0</ele><time>2026-03-28T07:17:33.998Z</time></trkpt><trkpt lat="44.845356809118684" lon="9.822217071782461"><ele>179.0</ele><time>2026-03-28T07:17:35.998Z</time></trkpt><trkpt lat="44.84530381762811" lon="9.822099642047487"><ele>179.0</ele><time>2026-03-28T07:17:37.998Z</time></trkpt><trkpt lat="44.84525320212574" lon="9.821981171988224"><ele>179.0</ele><time>2026-03-28T07:17:39.998Z</time></trkpt><trkpt lat="44.845199884208434" lon="9.821857948766146"><ele>179.0</ele><time>2026-03-28T07:17:41.998Z</time></trkpt><trkpt lat="44.84514422346166" lon="9.82173596590653"><ele>179.0</ele><time>2026-03-28T07:17:43.998Z</time></trkpt><trkpt lat="44.84509092969648" lon="9.821605710822553"><ele>179.0</ele><time>2026-03-28T07:17:45.998Z</time></trkpt><trkpt lat="44.8450321393779" lon="9.821478917537004"><ele>179.0</ele><time>2026-03-28T07:17:47.998Z</time></trkpt><trkpt lat="44.844971120962285" lon="9.821344658170391"><ele>179.5</ele><time>2026-03-28T07:17:49.998Z</time></trkpt><trkpt lat="44.84490848050843" lon="9.821205742412383"><ele>180.0</ele><time>2026-03-28T07:17:51.998Z</time></trkpt><trkpt lat="44.84483905835326" lon="9.821068507910892"><ele>180.5</ele><time>2026-03-28T07:17:53.998Z</time></trkpt><trkpt lat="44.844799779440464" lon="9.820997986093323"><ele>181.0</ele><time>2026-03-28T07:17:54.998Z</time></trkpt><trkpt lat="44.844760451149284" lon="9.820927249122397"><ele>181.5</ele><time>2026-03-28T07:17:55.998Z</time></trkpt><trkpt lat="44.84471980692878" lon="9.820854213359322"><ele>182.0</ele><time>2026-03-28T07:17:56.998Z</time></trkpt><trkpt lat="44.844675851989535" lon="9.820787488832803"><ele>182.0</ele><time>2026-03-28T07:17:57.998Z</time></trkpt><trkpt lat="44.84463301282893" lon="9.820720912718578"><ele>182.0</ele><time>2026-03-28T07:17:58.998Z</time></trkpt><trkpt lat="44.844589833754114" lon="9.820655950123625"><ele>182.0</ele><time>2026-03-28T07:17:59.998Z</time></trkpt><trkpt lat="44.8445120124483" lon="9.820527406853977"><ele>182.0</ele><time>2026-03-28T07:18:01.998Z</time></trkpt><trkpt lat="44.84444006799835" lon="9.82040318342078"><ele>182.0</ele><time>2026-03-28T07:18:04Z</time></trkpt><trkpt lat="44.84437081534578" lon="9.82028055705578"><ele>182.5</ele><time>2026-03-28T07:18:06Z</time></trkpt><trkpt lat="44.84431650558376" lon="9.820136472852091"><ele>183.0</ele><time>2026-03-28T07:18:08Z</time></trkpt><trkpt lat="44.844256111885" lon="9.8199787410105"><ele>183.5</ele><time>2026-03-28T07:18:10Z</time></trkpt><trkpt lat="44.844220978572984" lon="9.81990016351019"><ele>184.0</ele><time>2026-03-28T07:18:11Z</time></trkpt><trkpt lat="44.844183615273536" lon="9.819820943425196"><ele>184.5</ele><time>2026-03-28T07:18:12Z</time></trkpt><trkpt lat="44.844138789253144" lon="9.819746890803712"><ele>185.0</ele><time>2026-03-28T07:18:13Z</time></trkpt><trkpt lat="44.84408901252216" lon="9.819680877875378"><ele>184.99999999999997</ele><time>2026-03-28T07:18:14Z</time></trkpt><trkpt lat="44.84403945061542" lon="9.819616281113358"><ele>185.0</ele><time>2026-03-28T07:18:15Z</time></trkpt><trkpt lat="44.843988639645644" lon="9.81954885564133"><ele>185.0</ele><time>2026-03-28T07:18:16Z</time></trkpt><trkpt lat="44.843936858647226" lon="9.81948693289236"><ele>185.0</ele><time>2026-03-28T07:18:17Z</time></trkpt><trkpt lat="44.84388936396042" lon="9.81942063897481"><ele>185.0</ele><time>2026-03-28T07:18:18Z</time></trkpt><trkpt lat="44.84384499141099" lon="9.819355694982848"><ele>184.99999999999997</ele><time>2026-03-28T07:18:19Z</time></trkpt><trkpt lat="44.843796377103246" lon="9.81929525932535"><ele>185.0</ele><time>2026-03-28T07:18:20Z</time></trkpt><trkpt lat="44.84370608800617" lon="9.819176057979542"><ele>185.2</ele><time>2026-03-28T07:18:22Z</time></trkpt><trkpt lat="44.84360904381982" lon="9.81907496888125"><ele>185.4</ele><time>2026-03-28T07:18:24Z</time></trkpt><trkpt lat="44.84355567266114" lon="9.819025161382255"><ele>185.60000000000002</ele><time>2026-03-28T07:18:25Z</time></trkpt><trkpt lat="44.84345453393899" lon="9.818930124509055"><ele>185.8</ele><time>2026-03-28T07:18:27Z</time></trkpt><trkpt lat="44.84335393032625" lon="9.81882887443538"><ele>186.0</ele><time>2026-03-28T07:18:29Z</time></trkpt><trkpt lat="44.843246047800605" lon="9.81874619851223"><ele>186.00000000000003</ele><time>2026-03-28T07:18:31Z</time></trkpt><trkpt lat="44.84318978774685" lon="9.818704986315758"><ele>186.0</ele><time>2026-03-28T07:18:32Z</time></trkpt><trkpt lat="44.84312985926811" lon="9.818665440526535"><ele>186.0</ele><time>2026-03-28T07:18:33Z</time></trkpt><trkpt lat="44.84306790458394" lon="9.818625619874783"><ele>186.0</ele><time>2026-03-28T07:18:34Z</time></trkpt><trkpt lat="44.84300617083586" lon="9.818583308865731"><ele>186.0</ele><time>2026-03-28T07:18:35Z</time></trkpt><trkpt lat="44.84294859638681" lon="9.81853815015671"><ele>186.00000000000003</ele><time>2026-03-28T07:18:36Z</time></trkpt><trkpt lat="44.84288279823824" lon="9.818485764389761"><ele>186.0</ele><time>2026-03-28T07:18:37Z</time></trkpt><trkpt lat="44.842821576210795" lon="9.818422959146316"><ele>185.57142857142858</ele><time>2026-03-28T07:18:38Z</time></trkpt><trkpt lat="44.84276109128574" lon="9.818364730630753"><ele>185.14285714285714</ele><time>2026-03-28T07:18:39Z</time></trkpt><trkpt lat="44.84270565436271" lon="9.818295240647489"><ele>184.71428571428572</ele><time>2026-03-28T07:18:40Z</time></trkpt><trkpt lat="44.84264851086779" lon="9.818216021746549"><ele>184.28571428571428</ele><time>2026-03-28T07:18:40.999Z</time></trkpt><trkpt lat="44.84259857279984" lon="9.818142205446046"><ele>183.85714285714286</ele><time>2026-03-28T07:18:41.999Z</time></trkpt><trkpt lat="44.84254910849892" lon="9.8180652602587"><ele>183.42857142857144</ele><time>2026-03-28T07:18:42.999Z</time></trkpt><trkpt lat="44.8425032361616" lon="9.81798514419506"><ele>183.0</ele><time>2026-03-28T07:18:43.999Z</time></trkpt><trkpt lat="44.84246094792401" lon="9.817908093487997"><ele>183.0</ele><time>2026-03-28T07:18:44.999Z</time></trkpt><trkpt lat="44.842419706894944" lon="9.81782771189886"><ele>183.0</ele><time>2026-03-28T07:18:45.999Z</time></trkpt><trkpt lat="44.8423778874013" lon="9.817750169388766"><ele>183.0</ele><time>2026-03-28T07:18:46.999Z</time></trkpt><trkpt lat="44.84233658347229" lon="9.817676727841173"><ele>183.0</ele><time>2026-03-28T07:18:47.999Z</time></trkpt><trkpt lat="44.842297188741426" lon="9.817601564440741"><ele>183.0</ele><time>2026-03-28T07:18:48.999Z</time></trkpt><trkpt lat="44.84226164648682" lon="9.817525822064601"><ele>183.0</ele><time>2026-03-28T07:18:49.999Z</time></trkpt><trkpt lat="44.84222816409435" lon="9.817448316058071"><ele>183.0</ele><time>2026-03-28T07:18:50.999Z</time></trkpt><trkpt lat="44.84219505787391" lon="9.817367779587691"><ele>182.16666666666666</ele><time>2026-03-28T07:18:51.999Z</time></trkpt><trkpt lat="44.84216596256629" lon="9.817288715161148"><ele>181.33333333333334</ele><time>2026-03-28T07:18:52.999Z</time></trkpt><trkpt lat="44.84213300221502" lon="9.817210795483764"><ele>180.5</ele><time>2026-03-28T07:18:53.999Z</time></trkpt><trkpt lat="44.84207864067398" lon="9.817053196927812"><ele>179.66666666666669</ele><time>2026-03-28T07:18:55.999Z</time></trkpt><trkpt lat="44.84205373524861" lon="9.816969289912624"><ele>178.83333333333334</ele><time>2026-03-28T07:18:56.999Z</time></trkpt><trkpt lat="44.842008843703276" lon="9.816806438977483"><ele>178.0</ele><time>2026-03-28T07:18:58.999Z</time></trkpt><trkpt lat="44.84199821200192" lon="9.816713129007375"><ele>177.83333333333334</ele><time>2026-03-28T07:18:59.999Z</time></trkpt><trkpt lat="44.84195571087996" lon="9.816643687819388"><ele>177.66666666666669</ele><time>2026-03-28T07:19:00.999Z</time></trkpt><trkpt lat="44.841920216630605" lon="9.816567185195574"><ele>177.5</ele><time>2026-03-28T07:19:01.999Z</time></trkpt><trkpt lat="44.841881335910806" lon="9.81649523592791"><ele>177.33333333333334</ele><time>2026-03-28T07:19:02.999Z</time></trkpt><trkpt lat="44.84179309750232" lon="9.816372237947899"><ele>177.16666666666666</ele><time>2026-03-28T07:19:04.999Z</time></trkpt><trkpt lat="44.84170802386465" lon="9.816244011511996"><ele>177.0</ele><time>2026-03-28T07:19:06.999Z</time></trkpt><trkpt lat="44.8416233002954" lon="9.816124571299252"><ele>178.0</ele><time>2026-03-28T07:19:08.999Z</time></trkpt><trkpt lat="44.841542998174134" lon="9.81600040625103"><ele>179.0</ele><time>2026-03-28T07:19:10.999Z</time></trkpt><trkpt lat="44.84147100870004" lon="9.815867279952446"><ele>180.0</ele><time>2026-03-28T07:19:12.999Z</time></trkpt><trkpt lat="44.84141254317707" lon="9.815723353814978"><ele>181.0</ele><time>2026-03-28T07:19:14.999Z</time></trkpt><trkpt lat="44.84136367784633" lon="9.815564932820706"><ele>181.0</ele><time>2026-03-28T07:19:16.999Z</time></trkpt><trkpt lat="44.8413129083723" lon="9.815399830055824"><ele>181.0</ele><time>2026-03-28T07:19:18.999Z</time></trkpt><trkpt lat="44.84128928878393" lon="9.815316273828723"><ele>181.0</ele><time>2026-03-28T07:19:19.999Z</time></trkpt><trkpt lat="44.84127004037106" lon="9.815228349205979"><ele>181.0</ele><time>2026-03-28T07:19:20.999Z</time></trkpt><trkpt lat="44.841247020842054" lon="9.815144810627558"><ele>181.0</ele><time>2026-03-28T07:19:21.999Z</time></trkpt><trkpt lat="44.84118273005592" lon="9.814994936852715"><ele>181.0</ele><time>2026-03-28T07:19:23.999Z</time></trkpt><trkpt lat="44.84109559973559" lon="9.814863091298205"><ele>180.4</ele><time>2026-03-28T07:19:25.999Z</time></trkpt><trkpt lat="44.841041668246206" lon="9.814809593538875"><ele>179.8</ele><time>2026-03-28T07:19:26.999Z</time></trkpt><trkpt lat="44.840926367406276" lon="9.814738030924637"><ele>179.20000000000002</ele><time>2026-03-28T07:19:28.999Z</time></trkpt><trkpt lat="44.84080880364107" lon="9.814682614087848"><ele>178.60000000000002</ele><time>2026-03-28T07:19:30.999Z</time></trkpt><trkpt lat="44.840690979236356" lon="9.814637852278455"><ele>178.0</ele><time>2026-03-28T07:19:32.999Z</time></trkpt><trkpt lat="44.8405776102716" lon="9.814592289538812"><ele>179.2</ele><time>2026-03-28T07:19:34.998Z</time></trkpt><trkpt lat="44.84046984282627" lon="9.814539062014312"><ele>180.4</ele><time>2026-03-28T07:19:36.998Z</time></trkpt><trkpt lat="44.84036845992229" lon="9.814462271030346"><ele>181.6</ele><time>2026-03-28T07:19:38.998Z</time></trkpt><trkpt lat="44.84028136789082" lon="9.814367090223021"><ele>182.79999999999998</ele><time>2026-03-28T07:19:40.998Z</time></trkpt><trkpt lat="44.840210631758325" lon="9.814253392860651"><ele>184.0</ele><time>2026-03-28T07:19:42.998Z</time></trkpt><trkpt lat="44.84015653092626" lon="9.814119646448349"><ele>185.0</ele><time>2026-03-28T07:19:44.998Z</time></trkpt><trkpt lat="44.840113857849374" lon="9.813983110202255"><ele>186.0</ele><time>2026-03-28T07:19:46.998Z</time></trkpt><trkpt lat="44.84007521552882" lon="9.813847354886374"><ele>187.0</ele><time>2026-03-28T07:19:48.998Z</time></trkpt><trkpt lat="44.84003984659514" lon="9.8137091712741"><ele>188.0</ele><time>2026-03-28T07:19:50.998Z</time></trkpt><trkpt lat="44.84000618385482" lon="9.813570363872602"><ele>189.0</ele><time>2026-03-28T07:19:52.998Z</time></trkpt><trkpt lat="44.83996066843944" lon="9.81343613536603"><ele>189.0</ele><time>2026-03-28T07:19:54.998Z</time></trkpt><trkpt lat="44.83989614610333" lon="9.81331811979635"><ele>189.0</ele><time>2026-03-28T07:19:56.998Z</time></trkpt><trkpt lat="44.83981112281225" lon="9.813223776790784"><ele>189.0</ele><time>2026-03-28T07:19:58.998Z</time></trkpt><trkpt lat="44.839716796502024" lon="9.81315638149859"><ele>189.0</ele><time>2026-03-28T07:20:00.998Z</time></trkpt><trkpt lat="44.839620540126575" lon="9.813098408184795"><ele>189.0</ele><time>2026-03-28T07:20:02.998Z</time></trkpt><trkpt lat="44.83952293943262" lon="9.813050493775334"><ele>189.0</ele><time>2026-03-28T07:20:04.998Z</time></trkpt><trkpt lat="44.839423206616374" lon="9.813002055096005"><ele>189.0</ele><time>2026-03-28T07:20:06.998Z</time></trkpt><trkpt lat="44.83932063811087" lon="9.812946817365606"><ele>189.0</ele><time>2026-03-28T07:20:09Z</time></trkpt><trkpt lat="44.83921832484529" lon="9.812899411720096"><ele>189.0</ele><time>2026-03-28T07:20:11Z</time></trkpt><trkpt lat="44.839115981679015" lon="9.812847593293307"><ele>189.0</ele><time>2026-03-28T07:20:13Z</time></trkpt><trkpt lat="44.83901435084346" lon="9.81279838824501"><ele>188.5</ele><time>2026-03-28T07:20:15Z</time></trkpt><trkpt lat="44.83890991570655" lon="9.812748940276142"><ele>188.0</ele><time>2026-03-28T07:20:17Z</time></trkpt><trkpt lat="44.83880237532908" lon="9.812707631148308"><ele>187.5</ele><time>2026-03-28T07:20:19Z</time></trkpt><trkpt lat="44.838691119965105" lon="9.812674078476643"><ele>187.0</ele><time>2026-03-28T07:20:21Z</time></trkpt><trkpt lat="44.83857640302551" lon="9.812641193050995"><ele>188.0</ele><time>2026-03-28T07:20:23Z</time></trkpt><trkpt lat="44.83846230298613" lon="9.812594780629949"><ele>189.0</ele><time>2026-03-28T07:20:25Z</time></trkpt><trkpt lat="44.8383610901826" lon="9.812497714803182"><ele>190.0</ele><time>2026-03-28T07:20:27Z</time></trkpt><trkpt lat="44.8383254920183" lon="9.812424301572154"><ele>191.0</ele><time>2026-03-28T07:20:28Z</time></trkpt><trkpt lat="44.838278005672166" lon="9.812271659850056"><ele>192.0</ele><time>2026-03-28T07:20:30Z</time></trkpt><trkpt lat="44.83823185764862" lon="9.812121126119996"><ele>192.0</ele><time>2026-03-28T07:20:32Z</time></trkpt><trkpt lat="44.838168481153026" lon="9.81199017049588"><ele>192.0</ele><time>2026-03-28T07:20:34Z</time></trkpt><trkpt lat="44.838079876957295" lon="9.811890111430179"><ele>192.0</ele><time>2026-03-28T07:20:36Z</time></trkpt><trkpt lat="44.83797956324916" lon="9.811823090300749"><ele>192.0</ele><time>2026-03-28T07:20:38Z</time></trkpt><trkpt lat="44.8378703299998" lon="9.811776402687359"><ele>191.75</ele><time>2026-03-28T07:20:40Z</time></trkpt><trkpt lat="44.83775648204409" lon="9.811748269661758"><ele>191.5</ele><time>2026-03-28T07:20:42Z</time></trkpt><trkpt lat="44.837645675557944" lon="9.811732041207232"><ele>191.25</ele><time>2026-03-28T07:20:44Z</time></trkpt><trkpt lat="44.83753148427015" lon="9.81172089642178"><ele>191.0</ele><time>2026-03-28T07:20:45.999Z</time></trkpt><trkpt lat="44.837416893150106" lon="9.8117069195033"><ele>191.0</ele><time>2026-03-28T07:20:47.999Z</time></trkpt><trkpt lat="44.83730408630598" lon="9.81169576601521"><ele>191.0</ele><time>2026-03-28T07:20:49.999Z</time></trkpt><trkpt lat="44.837189118498685" lon="9.81168355850931"><ele>191.0</ele><time>2026-03-28T07:20:51.999Z</time></trkpt><trkpt lat="44.83707416566047" lon="9.81168490165378"><ele>191.0</ele><time>2026-03-28T07:20:53.999Z</time></trkpt><trkpt lat="44.836959286566476" lon="9.811688408173948"><ele>191.0</ele><time>2026-03-28T07:20:55.999Z</time></trkpt><trkpt lat="44.83684286651791" lon="9.811698159042631"><ele>191.0</ele><time>2026-03-28T07:20:57.999Z</time></trkpt><trkpt lat="44.83672801942175" lon="9.81171662447101"><ele>191.0</ele><time>2026-03-28T07:20:59.999Z</time></trkpt><trkpt lat="44.83660957817598" lon="9.811736582729097"><ele>191.0</ele><time>2026-03-28T07:21:01.999Z</time></trkpt><trkpt lat="44.836489525927206" lon="9.811750991415288"><ele>191.25</ele><time>2026-03-28T07:21:03.999Z</time></trkpt><trkpt lat="44.83636705500352" lon="9.811759334836893"><ele>191.5</ele><time>2026-03-28T07:21:05.999Z</time></trkpt><trkpt lat="44.836242834532385" lon="9.811752774420167"><ele>191.75</ele><time>2026-03-28T07:21:07.999Z</time></trkpt><trkpt lat="44.83611984487787" lon="9.81173594053452"><ele>192.0</ele><time>2026-03-28T07:21:09.999Z</time></trkpt><trkpt lat="44.83600094322996" lon="9.811702883235165"><ele>193.25</ele><time>2026-03-28T07:21:11.999Z</time></trkpt><trkpt lat="44.83588365541113" lon="9.811675449499145"><ele>194.5</ele><time>2026-03-28T07:21:13.999Z</time></trkpt><trkpt lat="44.83576553456243" lon="9.811645851208718"><ele>195.75</ele><time>2026-03-28T07:21:15.999Z</time></trkpt><trkpt lat="44.835647043128844" lon="9.811619964455987"><ele>197.0</ele><time>2026-03-28T07:21:17.999Z</time></trkpt><trkpt lat="44.8355242420838" lon="9.811593059593756"><ele>197.0</ele><time>2026-03-28T07:21:19.999Z</time></trkpt><trkpt lat="44.835399661539206" lon="9.811564613913127"><ele>197.0</ele><time>2026-03-28T07:21:21.999Z</time></trkpt><trkpt lat="44.835336120952576" lon="9.81155265112899"><ele>197.0</ele><time>2026-03-28T07:21:22.999Z</time></trkpt><trkpt lat="44.83527241221339" lon="9.811543201524435"><ele>197.0</ele><time>2026-03-28T07:21:23.999Z</time></trkpt><trkpt lat="44.83514643605151" lon="9.811531111678429"><ele>197.0</ele><time>2026-03-28T07:21:25.999Z</time></trkpt><trkpt lat="44.835023338081555" lon="9.811513868816064"><ele>197.25</ele><time>2026-03-28T07:21:27.999Z</time></trkpt><trkpt lat="44.83490304341906" lon="9.811499102877056"><ele>197.5</ele><time>2026-03-28T07:21:29.999Z</time></trkpt><trkpt lat="44.83478323408841" lon="9.811484742913645"><ele>197.75</ele><time>2026-03-28T07:21:31.999Z</time></trkpt><trkpt lat="44.83467157009137" lon="9.811473215727128"><ele>198.0</ele><time>2026-03-28T07:21:33.999Z</time></trkpt><trkpt lat="44.834557267085636" lon="9.811461445146477"><ele>198.0</ele><time>2026-03-28T07:21:35.999Z</time></trkpt><trkpt lat="44.83444499773588" lon="9.811449434659057"><ele>198.0</ele><time>2026-03-28T07:21:37.998Z</time></trkpt><trkpt lat="44.83433513648262" lon="9.81143643202329"><ele>198.0</ele><time>2026-03-28T07:21:39.998Z</time></trkpt><trkpt lat="44.834227318468535" lon="9.81142072177601"><ele>198.0</ele><time>2026-03-28T07:21:41.998Z</time></trkpt><trkpt lat="44.83411975345638" lon="9.81141189760669"><ele>198.0</ele><time>2026-03-28T07:21:43.998Z</time></trkpt><trkpt lat="44.83401189024623" lon="9.8113992042676"><ele>199.0</ele><time>2026-03-28T07:21:45.998Z</time></trkpt><trkpt lat="44.833901752657" lon="9.811389394681335"><ele>200.0</ele><time>2026-03-28T07:21:47.998Z</time></trkpt><trkpt lat="44.83378539518069" lon="9.811389039994557"><ele>201.0</ele><time>2026-03-28T07:21:49.998Z</time></trkpt><trkpt lat="44.83366821414138" lon="9.811412233378022"><ele>202.0</ele><time>2026-03-28T07:21:51.998Z</time></trkpt><trkpt lat="44.83355297237582" lon="9.811462914895348"><ele>201.75</ele><time>2026-03-28T07:21:53.998Z</time></trkpt><trkpt lat="44.83344235021847" lon="9.811530748158814"><ele>201.5</ele><time>2026-03-28T07:21:55.998Z</time></trkpt><trkpt lat="44.83333040910422" lon="9.811602923736322"><ele>201.25</ele><time>2026-03-28T07:21:57.998Z</time></trkpt><trkpt lat="44.8332187784429" lon="9.811679322106395"><ele>201.0</ele><time>2026-03-28T07:21:59.998Z</time></trkpt><trkpt lat="44.833104361193676" lon="9.811752286543776"><ele>201.0</ele><time>2026-03-28T07:22:01.998Z</time></trkpt><trkpt lat="44.83304609814994" lon="9.8117891320171"><ele>201.0</ele><time>2026-03-28T07:22:02.998Z</time></trkpt><trkpt lat="44.83293319337973" lon="9.811863839808305"><ele>201.0</ele><time>2026-03-28T07:22:04.998Z</time></trkpt><trkpt lat="44.832818424198614" lon="9.81193388522077"><ele>201.0</ele><time>2026-03-28T07:22:06.998Z</time></trkpt><trkpt lat="44.83270659611429" lon="9.812008081610577"><ele>201.0</ele><time>2026-03-28T07:22:08.998Z</time></trkpt><trkpt lat="44.83259428169769" lon="9.812081591800792"><ele>201.60000000000002</ele><time>2026-03-28T07:22:10.998Z</time></trkpt><trkpt lat="44.83248455803297" lon="9.812156012063516"><ele>202.2</ele><time>2026-03-28T07:22:12.998Z</time></trkpt><trkpt lat="44.83242680382579" lon="9.812195675150535"><ele>202.8</ele><time>2026-03-28T07:22:13.998Z</time></trkpt><trkpt lat="44.83231516169917" lon="9.812272227273082"><ele>203.39999999999998</ele><time>2026-03-28T07:22:16Z</time></trkpt><trkpt lat="44.83220209880856" lon="9.812346336406877"><ele>204.0</ele><time>2026-03-28T07:22:18Z</time></trkpt><trkpt lat="44.83208583841779" lon="9.812421156310002"><ele>204.0</ele><time>2026-03-28T07:22:20Z</time></trkpt><trkpt lat="44.83202796707686" lon="9.812458090416728"><ele>204.0</ele><time>2026-03-28T07:22:21Z</time></trkpt><trkpt lat="44.831970675073016" lon="9.812496089130104"><ele>204.0</ele><time>2026-03-28T07:22:22Z</time></trkpt><trkpt lat="44.831910797236574" lon="9.812528083481652"><ele>204.0</ele><time>2026-03-28T07:22:23Z</time></trkpt><trkpt lat="44.8317977597691" lon="9.812600441028788"><ele>204.0</ele><time>2026-03-28T07:22:25Z</time></trkpt><trkpt lat="44.83168628562086" lon="9.812673537794794"><ele>204.0</ele><time>2026-03-28T07:22:27Z</time></trkpt><trkpt lat="44.83157374303896" lon="9.812747055127039"><ele>206.0</ele><time>2026-03-28T07:22:29Z</time></trkpt><trkpt lat="44.83146020810603" lon="9.812819465042736"><ele>208.0</ele><time>2026-03-28T07:22:31Z</time></trkpt><trkpt lat="44.83134829045341" lon="9.812897263467597"><ele>210.0</ele><time>2026-03-28T07:22:33Z</time></trkpt><trkpt lat="44.83123262135661" lon="9.812966923151174"><ele>212.0</ele><time>2026-03-28T07:22:35Z</time></trkpt><trkpt lat="44.83111622670257" lon="9.813025505595778"><ele>212.0</ele><time>2026-03-28T07:22:37Z</time></trkpt><trkpt lat="44.830997991820944" lon="9.813078334612593"><ele>212.0</ele><time>2026-03-28T07:22:39Z</time></trkpt><trkpt lat="44.830881051526" lon="9.813123746827664"><ele>212.0</ele><time>2026-03-28T07:22:41Z</time></trkpt><trkpt lat="44.83076566836561" lon="9.813171128887637"><ele>212.0</ele><time>2026-03-28T07:22:43Z</time></trkpt><trkpt lat="44.83064714233268" lon="9.81320147449582"><ele>210.5</ele><time>2026-03-28T07:22:45Z</time></trkpt><trkpt lat="44.830534788608226" lon="9.81323750628798"><ele>209.0</ele><time>2026-03-28T07:22:47Z</time></trkpt><trkpt lat="44.830423979132725" lon="9.813274402940346"><ele>207.5</ele><time>2026-03-28T07:22:48.999Z</time></trkpt><trkpt lat="44.83031055806432" lon="9.813309632484746"><ele>206.0</ele><time>2026-03-28T07:22:50.999Z</time></trkpt><trkpt lat="44.83020045596984" lon="9.813344205914944"><ele>205.60000000000002</ele><time>2026-03-28T07:22:52.999Z</time></trkpt><trkpt lat="44.830093606310314" lon="9.813377067660115"><ele>205.2</ele><time>2026-03-28T07:22:54.999Z</time></trkpt><trkpt lat="44.82998475813285" lon="9.813414077079774"><ele>204.8</ele><time>2026-03-28T07:22:56.999Z</time></trkpt><trkpt lat="44.829879590277315" lon="9.813454882777544"><ele>204.39999999999998</ele><time>2026-03-28T07:22:58.999Z</time></trkpt><trkpt lat="44.82977327036583" lon="9.813488266793918"><ele>204.0</ele><time>2026-03-28T07:23:00.999Z</time></trkpt><trkpt lat="44.82966780399666" lon="9.813516279746231"><ele>205.2</ele><time>2026-03-28T07:23:02.999Z</time></trkpt><trkpt lat="44.82956015263697" lon="9.813533708752942"><ele>206.39999999999998</ele><time>2026-03-28T07:23:04.999Z</time></trkpt><trkpt lat="44.829452741626" lon="9.813533837960877"><ele>207.6</ele><time>2026-03-28T07:23:06.999Z</time></trkpt><trkpt lat="44.82934128406865" lon="9.813509139267026"><ele>208.8</ele><time>2026-03-28T07:23:08.999Z</time></trkpt><trkpt lat="44.82923736091311" lon="9.813470733030186"><ele>210.0</ele><time>2026-03-28T07:23:10.999Z</time></trkpt><trkpt lat="44.82913243532723" lon="9.813435817837385"><ele>210.0</ele><time>2026-03-28T07:23:12.999Z</time></trkpt><trkpt lat="44.8290274128699" lon="9.813415205184425"><ele>210.0</ele><time>2026-03-28T07:23:14.999Z</time></trkpt><trkpt lat="44.82891885747497" lon="9.813407115754462"><ele>210.0</ele><time>2026-03-28T07:23:16.999Z</time></trkpt><trkpt lat="44.82880784130899" lon="9.813414934228907"><ele>210.0</ele><time>2026-03-28T07:23:18.999Z</time></trkpt><trkpt lat="44.828698501287334" lon="9.813443794211855"><ele>210.0</ele><time>2026-03-28T07:23:20.999Z</time></trkpt><trkpt lat="44.828590897692806" lon="9.813457590688191"><ele>210.0</ele><time>2026-03-28T07:23:22.999Z</time></trkpt><trkpt lat="44.828484079214924" lon="9.813474049808182"><ele>210.0</ele><time>2026-03-28T07:23:24.999Z</time></trkpt><trkpt lat="44.828376873512966" lon="9.813496175725552"><ele>210.0</ele><time>2026-03-28T07:23:26.999Z</time></trkpt><trkpt lat="44.82826980859648" lon="9.813516093934982"><ele>210.0</ele><time>2026-03-28T07:23:28.999Z</time></trkpt><trkpt lat="44.82816511959967" lon="9.81353501007586"><ele>210.0</ele><time>2026-03-28T07:23:30.999Z</time></trkpt><trkpt lat="44.828057643417715" lon="9.813557268630579"><ele>212.2</ele><time>2026-03-28T07:23:32.999Z</time></trkpt><trkpt lat="44.82795250125101" lon="9.813578543233488"><ele>214.4</ele><time>2026-03-28T07:23:34.999Z</time></trkpt><trkpt lat="44.82784496721846" lon="9.813597479511028"><ele>216.60000000000002</ele><time>2026-03-28T07:23:36.999Z</time></trkpt><trkpt lat="44.82773856913093" lon="9.813621922557072"><ele>218.8</ele><time>2026-03-28T07:23:38.999Z</time></trkpt><trkpt lat="44.82762919806499" lon="9.813643488773456"><ele>221.0</ele><time>2026-03-28T07:23:40.999Z</time></trkpt><trkpt lat="44.82752436545991" lon="9.813664112365947"><ele>221.0</ele><time>2026-03-28T07:23:42.998Z</time></trkpt><trkpt lat="44.82741703192588" lon="9.813680420474565"><ele>221.00000000000003</ele><time>2026-03-28T07:23:44.998Z</time></trkpt><trkpt lat="44.82730787647798" lon="9.813689710483667"><ele>221.00000000000003</ele><time>2026-03-28T07:23:46.998Z</time></trkpt><trkpt lat="44.82719894345904" lon="9.813685269586689"><ele>221.0</ele><time>2026-03-28T07:23:48.998Z</time></trkpt><trkpt lat="44.82708978996483" lon="9.813650024606705"><ele>221.0</ele><time>2026-03-28T07:23:50.998Z</time></trkpt><trkpt lat="44.8269823352042" lon="9.813617791495892"><ele>221.0</ele><time>2026-03-28T07:23:52.998Z</time></trkpt><trkpt lat="44.82686938034548" lon="9.813597505705886"><ele>221.00000000000003</ele><time>2026-03-28T07:23:54.998Z</time></trkpt><trkpt lat="44.826755787406654" lon="9.813594464751954"><ele>221.00000000000003</ele><time>2026-03-28T07:23:56.998Z</time></trkpt><trkpt lat="44.82664568131865" lon="9.813598750926813"><ele>221.0</ele><time>2026-03-28T07:23:58.998Z</time></trkpt><trkpt lat="44.82653715055199" lon="9.813602759243144"><ele>221.0</ele><time>2026-03-28T07:24:00.998Z</time></trkpt><trkpt lat="44.82643204045842" lon="9.813616912003104"><ele>221.0</ele><time>2026-03-28T07:24:02.998Z</time></trkpt><trkpt lat="44.82632831163229" lon="9.813631494816063"><ele>221.00000000000003</ele><time>2026-03-28T07:24:04.998Z</time></trkpt><trkpt lat="44.82622870020065" lon="9.813661808300267"><ele>221.00000000000003</ele><time>2026-03-28T07:24:06.998Z</time></trkpt><trkpt lat="44.8261313330443" lon="9.813694358632246"><ele>221.0</ele><time>2026-03-28T07:24:08.998Z</time></trkpt><trkpt lat="44.82603473091711" lon="9.813733760702245"><ele>221.0</ele><time>2026-03-28T07:24:10.998Z</time></trkpt><trkpt lat="44.825940495882385" lon="9.813779732552346"><ele>221.60000000000002</ele><time>2026-03-28T07:24:12.998Z</time></trkpt><trkpt lat="44.82584665127466" lon="9.813824628183145"><ele>222.20000000000002</ele><time>2026-03-28T07:24:14.998Z</time></trkpt><trkpt lat="44.82575034676739" lon="9.813873667057608"><ele>222.79999999999998</ele><time>2026-03-28T07:24:16.998Z</time></trkpt><trkpt lat="44.82565864764685" lon="9.813930098000888"><ele>223.39999999999998</ele><time>2026-03-28T07:24:18.998Z</time></trkpt><trkpt lat="44.825564556901305" lon="9.81398665706429"><ele>224.0</ele><time>2026-03-28T07:24:21Z</time></trkpt><trkpt lat="44.82547456816719" lon="9.814041532341657"><ele>224.0</ele><time>2026-03-28T07:24:23Z</time></trkpt><trkpt lat="44.82538766003111" lon="9.814108872769804"><ele>223.99999999999997</ele><time>2026-03-28T07:24:25Z</time></trkpt><trkpt lat="44.825300876545015" lon="9.814176369157439"><ele>223.99999999999997</ele><time>2026-03-28T07:24:27Z</time></trkpt><trkpt lat="44.825215152993565" lon="9.814244416969384"><ele>224.0</ele><time>2026-03-28T07:24:29Z</time></trkpt><trkpt lat="44.82513106050789" lon="9.814321410258831"><ele>224.0</ele><time>2026-03-28T07:24:31Z</time></trkpt><trkpt lat="44.82504480493313" lon="9.814393075697744"><ele>225.0</ele><time>2026-03-28T07:24:33Z</time></trkpt><trkpt lat="44.82495515238148" lon="9.81445724731989"><ele>225.99999999999997</ele><time>2026-03-28T07:24:35Z</time></trkpt><trkpt lat="44.82486605714505" lon="9.814511357587484"><ele>226.99999999999997</ele><time>2026-03-28T07:24:37Z</time></trkpt><trkpt lat="44.82476772626877" lon="9.814527290280294"><ele>228.0</ele><time>2026-03-28T07:24:39Z</time></trkpt><trkpt lat="44.82467081762961" lon="9.814509007834303"><ele>229.0</ele><time>2026-03-28T07:24:41Z</time></trkpt><trkpt lat="44.824577350312865" lon="9.81445758898825"><ele>229.0</ele><time>2026-03-28T07:24:43Z</time></trkpt><trkpt lat="44.8244874192845" lon="9.814401801859203"><ele>228.99999999999997</ele><time>2026-03-28T07:24:45Z</time></trkpt><trkpt lat="44.824394086962585" lon="9.814359196243748"><ele>228.99999999999997</ele><time>2026-03-28T07:24:47Z</time></trkpt><trkpt lat="44.824296193955" lon="9.814336496899971"><ele>229.0</ele><time>2026-03-28T07:24:49Z</time></trkpt><trkpt lat="44.82419638242806" lon="9.814344739653851"><ele>229.0</ele><time>2026-03-28T07:24:51Z</time></trkpt><trkpt lat="44.824097877209944" lon="9.814385626756534"><ele>229.39999999999998</ele><time>2026-03-28T07:24:52.999Z</time></trkpt><trkpt lat="44.824005065006745" lon="9.814454924274662"><ele>229.79999999999998</ele><time>2026-03-28T07:24:54.999Z</time></trkpt><trkpt lat="44.82391689378819" lon="9.814543323814402"><ele>230.20000000000002</ele><time>2026-03-28T07:24:56.999Z</time></trkpt><trkpt lat="44.82382974997858" lon="9.814640983145164"><ele>230.60000000000002</ele><time>2026-03-28T07:24:58.999Z</time></trkpt><trkpt lat="44.82373301347454" lon="9.814743625896096"><ele>231.0</ele><time>2026-03-28T07:25:00.999Z</time></trkpt><trkpt lat="44.82363167360186" lon="9.81483269208835"><ele>231.0</ele><time>2026-03-28T07:25:02.999Z</time></trkpt><trkpt lat="44.82352167590316" lon="9.814898932256325"><ele>231.0</ele><time>2026-03-28T07:25:04.999Z</time></trkpt><trkpt lat="44.823409363906215" lon="9.814951068991324"><ele>231.0</ele><time>2026-03-28T07:25:06.999Z</time></trkpt><trkpt lat="44.82329533986913" lon="9.814996760025847"><ele>231.0</ele><time>2026-03-28T07:25:08.999Z</time></trkpt><trkpt lat="44.82317912977802" lon="9.815040451247725"><ele>230.0</ele><time>2026-03-28T07:25:10.999Z</time></trkpt><trkpt lat="44.82306274642783" lon="9.81508579921286"><ele>229.0</ele><time>2026-03-28T07:25:12.999Z</time></trkpt><trkpt lat="44.822947790045916" lon="9.815132824096374"><ele>228.0</ele><time>2026-03-28T07:25:14.999Z</time></trkpt><trkpt lat="44.82283525084911" lon="9.815180556656477"><ele>227.0</ele><time>2026-03-28T07:25:16.999Z</time></trkpt><trkpt lat="44.82272292546134" lon="9.815232358614898"><ele>229.0</ele><time>2026-03-28T07:25:18.999Z</time></trkpt><trkpt lat="44.82261229940264" lon="9.81529968712313"><ele>231.0</ele><time>2026-03-28T07:25:20.999Z</time></trkpt><trkpt lat="44.82251015570982" lon="9.815386467039074"><ele>233.0</ele><time>2026-03-28T07:25:22.999Z</time></trkpt><trkpt lat="44.822410623671495" lon="9.815474698467467"><ele>235.0</ele><time>2026-03-28T07:25:24.999Z</time></trkpt><trkpt lat="44.82231261796857" lon="9.815565710609196"><ele>235.0</ele><time>2026-03-28T07:25:26.999Z</time></trkpt><trkpt lat="44.822219588932185" lon="9.815656532627758"><ele>235.0</ele><time>2026-03-28T07:25:28.999Z</time></trkpt><trkpt lat="44.822127333031055" lon="9.81574456579591"><ele>235.0</ele><time>2026-03-28T07:25:30.999Z</time></trkpt><trkpt lat="44.82203602845235" lon="9.815831707006005"><ele>235.0</ele><time>2026-03-28T07:25:32.999Z</time></trkpt><trkpt lat="44.82194607125534" lon="9.815920272345226"><ele>235.0</ele><time>2026-03-28T07:25:34.999Z</time></trkpt><trkpt lat="44.82184842598069" lon="9.81599272286045"><ele>236.4</ele><time>2026-03-28T07:25:36.999Z</time></trkpt><trkpt lat="44.82174915373697" lon="9.816057104979595"><ele>237.8</ele><time>2026-03-28T07:25:38.999Z</time></trkpt><trkpt lat="44.8216437917178" lon="9.816111536458331"><ele>239.2</ele><time>2026-03-28T07:25:40.999Z</time></trkpt><trkpt lat="44.8215315796492" lon="9.816144561874877"><ele>240.6</ele><time>2026-03-28T07:25:42.999Z</time></trkpt><trkpt lat="44.821424309580564" lon="9.816183304047714"><ele>242.0</ele><time>2026-03-28T07:25:44.999Z</time></trkpt><trkpt lat="44.821317508544034" lon="9.816228012797515"><ele>242.0</ele><time>2026-03-28T07:25:46.998Z</time></trkpt><trkpt lat="44.821206655739" lon="9.816267320506148"><ele>242.0</ele><time>2026-03-28T07:25:48.998Z</time></trkpt><trkpt lat="44.82108918083966" lon="9.816298671711884"><ele>242.0</ele><time>2026-03-28T07:25:50.998Z</time></trkpt><trkpt lat="44.82097731865181" lon="9.816336012124703"><ele>242.0</ele><time>2026-03-28T07:25:52.998Z</time></trkpt><trkpt lat="44.82086193554195" lon="9.816357098483108"><ele>240.25</ele><time>2026-03-28T07:25:54.998Z</time></trkpt><trkpt lat="44.820748450012175" lon="9.816385465612706"><ele>238.5</ele><time>2026-03-28T07:25:56.998Z</time></trkpt><trkpt lat="44.82063600071252" lon="9.816409130068225"><ele>236.75</ele><time>2026-03-28T07:25:58.998Z</time></trkpt><trkpt lat="44.82052501810517" lon="9.816439044732173"><ele>235.0</ele><time>2026-03-28T07:26:00.998Z</time></trkpt><trkpt lat="44.8204132993863" lon="9.816469727003128"><ele>235.0</ele><time>2026-03-28T07:26:02.998Z</time></trkpt><trkpt lat="44.82030330989663" lon="9.81650410049439"><ele>235.0</ele><time>2026-03-28T07:26:04.998Z</time></trkpt><trkpt lat="44.82019730198901" lon="9.816540331898796"><ele>235.0</ele><time>2026-03-28T07:26:06.998Z</time></trkpt><trkpt lat="44.820092329714306" lon="9.81657553321503"><ele>235.0</ele><time>2026-03-28T07:26:08.998Z</time></trkpt><trkpt lat="44.819987633643684" lon="9.816613151772241"><ele>235.0</ele><time>2026-03-28T07:26:10.998Z</time></trkpt><trkpt lat="44.819883921113274" lon="9.816647199328662"><ele>235.5</ele><time>2026-03-28T07:26:12.998Z</time></trkpt><trkpt lat="44.81977804708202" lon="9.81669146479556"><ele>236.0</ele><time>2026-03-28T07:26:14.998Z</time></trkpt><trkpt lat="44.81966431352913" lon="9.816713936460136"><ele>236.5</ele><time>2026-03-28T07:26:16.998Z</time></trkpt><trkpt lat="44.81955888722038" lon="9.816733105585051"><ele>237.0</ele><time>2026-03-28T07:26:18.998Z</time></trkpt><trkpt lat="44.821206655739" lon="9.816267320506148"><ele>236.5</ele><time>2026-03-28T07:25:48.998Z</time></trkpt><trkpt lat="44.82108918083966" lon="9.816298671711884"><ele>236.0</ele><time>2026-03-28T07:25:50.998Z</time></trkpt><trkpt lat="44.82097731865181" lon="9.816336012124703"><ele>235.5</ele><time>2026-03-28T07:25:52.998Z</time></trkpt><trkpt lat="44.82086193554195" lon="9.816357098483108"><ele>235.0</ele><time>2026-03-28T07:25:54.998Z</time></trkpt><trkpt lat="44.820748450012175" lon="9.816385465612706"><ele>235.0</ele><time>2026-03-28T07:25:56.998Z</time></trkpt><trkpt lat="44.82063600071252" lon="9.816409130068225"><ele>235.0</ele><time>2026-03-28T07:25:58.998Z</time></trkpt><trkpt lat="44.82052501810517" lon="9.816439044732173"><ele>235.0</ele><time>2026-03-28T07:26:00.998Z</time></trkpt><trkpt lat="44.8204132993863" lon="9.816469727003128"><ele>235.0</ele><time>2026-03-28T07:26:02.998Z</time></trkpt><trkpt lat="44.82030330989663" lon="9.81650410049439"><ele>235.0</ele><time>2026-03-28T07:26:04.998Z</time></trkpt><trkpt lat="44.82019730198901" lon="9.816540331898796"><ele>235.0</ele><time>2026-03-28T07:26:06.998Z</time></trkpt><trkpt lat="44.820092329714306" lon="9.81657553321503"><ele>235.0</ele><time>2026-03-28T07:26:08.998Z</time></trkpt><trkpt lat="44.819987633643684" lon="9.816613151772241"><ele>235.0</ele><time>2026-03-28T07:26:10.998Z</time></trkpt><trkpt lat="44.819883921113274" lon="9.816647199328662"><ele>235.0</ele><time>2026-03-28T07:26:12.998Z</time></trkpt><trkpt lat="44.81977804708202" lon="9.81669146479556"><ele>235.0</ele><time>2026-03-28T07:26:14.998Z</time></trkpt><trkpt lat="44.81966431352913" lon="9.816713936460136"><ele>235.0</ele><time>2026-03-28T07:26:16.998Z</time></trkpt><trkpt lat="44.81955888722038" lon="9.816733105585051"><ele>235.0</ele><time>2026-03-28T07:26:18.998Z</time></trkpt><trkpt lat="44.81944504288833" lon="9.816720197195966"><ele>235.0</ele><time>2026-03-28T07:26:20.998Z</time></trkpt><trkpt lat="44.819336643075005" lon="9.81670713046392"><ele>235.0</ele><time>2026-03-28T07:26:22.998Z</time></trkpt><trkpt lat="44.81922557230728" lon="9.816696575660128"><ele>235.0</ele><time>2026-03-28T07:26:24.998Z</time></trkpt><trkpt lat="44.81911808527326" lon="9.816679809220288"><ele>235.0</ele><time>2026-03-28T07:26:27Z</time></trkpt><trkpt lat="44.81900759777169" lon="9.81667075419088"><ele>235.0</ele><time>2026-03-28T07:26:29Z</time></trkpt><trkpt lat="44.81889903732182" lon="9.81665904503682"><ele>235.0</ele><time>2026-03-28T07:26:31Z</time></trkpt><trkpt lat="44.81879000207241" lon="9.816643435015816"><ele>235.0</ele><time>2026-03-28T07:26:33Z</time></trkpt><trkpt lat="44.8186808987074" lon="9.816631161277172"><ele>235.0</ele><time>2026-03-28T07:26:35Z</time></trkpt><trkpt lat="44.81857190252829" lon="9.816623106308096"><ele>235.0</ele><time>2026-03-28T07:26:37Z</time></trkpt><trkpt lat="44.818462333318266" lon="9.816618266115038"><ele>235.0</ele><time>2026-03-28T07:26:39Z</time></trkpt><trkpt lat="44.818350679906644" lon="9.816614995838352"><ele>235.0</ele><time>2026-03-28T07:26:41Z</time></trkpt><trkpt lat="44.818240416725814" lon="9.816612169215785"><ele>235.0</ele><time>2026-03-28T07:26:43Z</time></trkpt><trkpt lat="44.818121111674365" lon="9.816607240036786"><ele>235.2</ele><time>2026-03-28T07:26:45Z</time></trkpt><trkpt lat="44.81801357607698" lon="9.816609723084005"><ele>235.4</ele><time>2026-03-28T07:26:47Z</time></trkpt><trkpt lat="44.81789875285362" lon="9.816608599301297"><ele>235.60000000000002</ele><time>2026-03-28T07:26:49Z</time></trkpt><trkpt lat="44.817787480263114" lon="9.81661194227842"><ele>235.8</ele><time>2026-03-28T07:26:51Z</time></trkpt><trkpt lat="44.81767830514721" lon="9.816609710550864"><ele>236.0</ele><time>2026-03-28T07:26:53Z</time></trkpt><trkpt lat="44.817573093639616" lon="9.81661174111755"><ele>236.4</ele><time>2026-03-28T07:26:55Z</time></trkpt><trkpt lat="44.81747193402725" lon="9.816609947688749"><ele>236.8</ele><time>2026-03-28T07:26:57Z</time></trkpt><trkpt lat="44.81737709710271" lon="9.816604230100307"><ele>237.20000000000002</ele><time>2026-03-28T07:26:58.999Z</time></trkpt><trkpt lat="44.817280648068426" lon="9.816601172068276"><ele>237.60000000000002</ele><time>2026-03-28T07:27:00.999Z</time></trkpt><trkpt lat="44.81718827109696" lon="9.816602438442775"><ele>238.0</ele><time>2026-03-28T07:27:02.999Z</time></trkpt><trkpt lat="44.817096573233535" lon="9.816615815345658"><ele>237.99999999999997</ele><time>2026-03-28T07:27:04.999Z</time></trkpt><trkpt lat="44.817007887867575" lon="9.81661930846836"><ele>238.0</ele><time>2026-03-28T07:27:06.999Z</time></trkpt><trkpt lat="44.81691850126222" lon="9.816620439241687"><ele>238.0</ele><time>2026-03-28T07:27:08.999Z</time></trkpt><trkpt lat="44.81683229146918" lon="9.816631687134848"><ele>238.0</ele><time>2026-03-28T07:27:10.999Z</time></trkpt><trkpt lat="44.81673855821299" lon="9.816624706089547"><ele>237.99999999999997</ele><time>2026-03-28T07:27:12.999Z</time></trkpt><trkpt lat="44.816653548569164" lon="9.816610055546867"><ele>238.0</ele><time>2026-03-28T07:27:14.999Z</time></trkpt><trkpt lat="44.816564211098125" lon="9.816591683392716"><ele>238.83333333333331</ele><time>2026-03-28T07:27:16.999Z</time></trkpt><trkpt lat="44.8164770529407" lon="9.816573683934871"><ele>239.66666666666666</ele><time>2026-03-28T07:27:18.999Z</time></trkpt><trkpt lat="44.81638879117826" lon="9.816555924889116"><ele>240.5</ele><time>2026-03-28T07:27:20.999Z</time></trkpt><trkpt lat="44.81629842024149" lon="9.81654459773177"><ele>241.33333333333331</ele><time>2026-03-28T07:27:22.999Z</time></trkpt><trkpt lat="44.81620936353268" lon="9.816532561152735"><ele>242.16666666666666</ele><time>2026-03-28T07:27:24.999Z</time></trkpt><trkpt lat="44.81612249081728" lon="9.816523370886909"><ele>243.0</ele><time>2026-03-28T07:27:26.999Z</time></trkpt><trkpt lat="44.816039351527614" lon="9.816517237571741"><ele>244.5</ele><time>2026-03-28T07:27:28.999Z</time></trkpt><trkpt lat="44.815951876280806" lon="9.816515530043832"><ele>246.0</ele><time>2026-03-28T07:27:30.999Z</time></trkpt><trkpt lat="44.815863762956255" lon="9.816514958196217"><ele>247.5</ele><time>2026-03-28T07:27:32.999Z</time></trkpt><trkpt lat="44.81577574788518" lon="9.816510802129477"><ele>249.0</ele><time>2026-03-28T07:27:34.999Z</time></trkpt><trkpt lat="44.8156893068944" lon="9.81651057133612"><ele>250.5</ele><time>2026-03-28T07:27:36.999Z</time></trkpt><trkpt lat="44.815601330179454" lon="9.816498036995371"><ele>252.0</ele><time>2026-03-28T07:27:38.999Z</time></trkpt><trkpt lat="44.81551451239438" lon="9.816494539115315"><ele>252.0</ele><time>2026-03-28T07:27:40.999Z</time></trkpt><trkpt lat="44.81543214218162" lon="9.816489440670328"><ele>252.0</ele><time>2026-03-28T07:27:42.999Z</time></trkpt><trkpt lat="44.81534685313199" lon="9.816483749082108"><ele>252.0</ele><time>2026-03-28T07:27:44.999Z</time></trkpt><trkpt lat="44.815265699442676" lon="9.816476588868627"><ele>252.0</ele><time>2026-03-28T07:27:46.999Z</time></trkpt><trkpt lat="44.815183549919155" lon="9.81647992883497"><ele>252.0</ele><time>2026-03-28T07:27:48.999Z</time></trkpt><trkpt lat="44.815101968659704" lon="9.816495828527016"><ele>252.0</ele><time>2026-03-28T07:27:50.999Z</time></trkpt><trkpt lat="44.815021806259026" lon="9.81651288807871"><ele>252.33333333333334</ele><time>2026-03-28T07:27:52.998Z</time></trkpt><trkpt lat="44.81494075554615" lon="9.816530476862136"><ele>252.66666666666669</ele><time>2026-03-28T07:27:54.998Z</time></trkpt><trkpt lat="44.81486163198845" lon="9.816540512455212"><ele>253.0</ele><time>2026-03-28T07:27:56.998Z</time></trkpt><trkpt lat="44.81478142225931" lon="9.816536694160996"><ele>253.33333333333334</ele><time>2026-03-28T07:27:58.998Z</time></trkpt><trkpt lat="44.814703572396105" lon="9.816512754486833"><ele>253.66666666666669</ele><time>2026-03-28T07:28:00.998Z</time></trkpt><trkpt lat="44.81462299775807" lon="9.81648199189805"><ele>254.0</ele><time>2026-03-28T07:28:02.998Z</time></trkpt><trkpt lat="44.814548698960344" lon="9.81643768938775"><ele>254.0</ele><time>2026-03-28T07:28:04.998Z</time></trkpt><trkpt lat="44.814476924094514" lon="9.816396189618265"><ele>254.0</ele><time>2026-03-28T07:28:06.998Z</time></trkpt><trkpt lat="44.814401832353234" lon="9.816370611224261"><ele>254.0</ele><time>2026-03-28T07:28:08.998Z</time></trkpt><trkpt lat="44.81432833811329" lon="9.816395907526553"><ele>254.0</ele><time>2026-03-28T07:28:10.998Z</time></trkpt><trkpt lat="44.814273526527806" lon="9.816459516633255"><ele>254.0</ele><time>2026-03-28T07:28:12.998Z</time></trkpt><trkpt lat="44.81425045590381" lon="9.81654835249358"><ele>254.0</ele><time>2026-03-28T07:28:14.998Z</time></trkpt><trkpt lat="44.8142683910342" lon="9.81664054492648"><ele>254.0</ele><time>2026-03-28T07:28:16.998Z</time></trkpt><trkpt lat="44.81430621848587" lon="9.81671789107285"><ele>254.0</ele><time>2026-03-28T07:28:18.998Z</time></trkpt><trkpt lat="44.814375777437505" lon="9.816801687110425"><ele>254.0</ele><time>2026-03-28T07:28:21.998Z</time></trkpt><trkpt lat="44.81442487017756" lon="9.816859124454158"><ele>254.0</ele><time>2026-03-28T07:28:23.998Z</time></trkpt><trkpt lat="44.81447039769112" lon="9.81693125148229"><ele>254.0</ele><time>2026-03-28T07:28:25.998Z</time></trkpt><trkpt lat="44.81449595459601" lon="9.817023881393398"><ele>254.0</ele><time>2026-03-28T07:28:27.998Z</time></trkpt><trkpt lat="44.814495350892265" lon="9.817129520346489"><ele>254.0</ele><time>2026-03-28T07:28:29.998Z</time></trkpt><trkpt lat="44.814478605288414" lon="9.81722779813775"><ele>254.0</ele><time>2026-03-28T07:28:31.998Z</time></trkpt><trkpt lat="44.81446045057585" lon="9.817324276827774"><ele>254.00000000000003</ele><time>2026-03-28T07:28:34Z</time></trkpt><trkpt lat="44.814430379211224" lon="9.817424102045072"><ele>254.0</ele><time>2026-03-28T07:28:36Z</time></trkpt><trkpt lat="44.81440455647439" lon="9.817535722119182"><ele>254.0</ele><time>2026-03-28T07:28:38Z</time></trkpt><trkpt lat="44.81438112776293" lon="9.817651603676646"><ele>254.0</ele><time>2026-03-28T07:28:40Z</time></trkpt><trkpt lat="44.81435551050492" lon="9.817788272885064"><ele>254.00000000000003</ele><time>2026-03-28T07:28:42Z</time></trkpt><trkpt lat="44.81432759898598" lon="9.817905133662638"><ele>254.0</ele><time>2026-03-28T07:28:44Z</time></trkpt><trkpt lat="44.814263642211884" lon="9.817989345060894"><ele>254.66666666666669</ele><time>2026-03-28T07:28:46Z</time></trkpt><trkpt lat="44.81418589498061" lon="9.818010950877126"><ele>255.33333333333334</ele><time>2026-03-28T07:28:48Z</time></trkpt><trkpt lat="44.81411201910402" lon="9.818004017697662"><ele>256.0</ele><time>2026-03-28T07:28:50Z</time></trkpt><trkpt lat="44.81404805403516" lon="9.818003848395483"><ele>256.6666666666667</ele><time>2026-03-28T07:28:52Z</time></trkpt><trkpt lat="44.813984806255306" lon="9.817983492469995"><ele>257.3333333333333</ele><time>2026-03-28T07:28:54Z</time></trkpt><trkpt lat="44.81389438688491" lon="9.817959362548107"><ele>258.0</ele><time>2026-03-28T07:28:57Z</time></trkpt><trkpt lat="44.81381708932737" lon="9.817926647640222"><ele>258.0</ele><time>2026-03-28T07:29:00Z</time></trkpt><trkpt lat="44.813740106785254" lon="9.817891649764402"><ele>258.0</ele><time>2026-03-28T07:29:02.999Z</time></trkpt><trkpt lat="44.81367097073267" lon="9.817844155288473"><ele>258.0</ele><time>2026-03-28T07:29:05.999Z</time></trkpt><trkpt lat="44.81359744940571" lon="9.817805112837034"><ele>258.0</ele><time>2026-03-28T07:29:08.999Z</time></trkpt><trkpt lat="44.81352501970014" lon="9.817756618943799"><ele>258.0</ele><time>2026-03-28T07:29:11.999Z</time></trkpt><trkpt lat="44.813449269740545" lon="9.817717457867332"><ele>258.0</ele><time>2026-03-28T07:29:14.999Z</time></trkpt><trkpt lat="44.81337093574581" lon="9.81768728044676"><ele>258.3333333333333</ele><time>2026-03-28T07:29:17.999Z</time></trkpt><trkpt lat="44.81329079530646" lon="9.817671673010224"><ele>258.6666666666667</ele><time>2026-03-28T07:29:20.999Z</time></trkpt><trkpt lat="44.813213104133844" lon="9.817666581439433"><ele>259.0</ele><time>2026-03-28T07:29:23.999Z</time></trkpt><trkpt lat="44.81313694846672" lon="9.817664736234917"><ele>259.33333333333337</ele><time>2026-03-28T07:29:26.999Z</time></trkpt><trkpt lat="44.813059743281805" lon="9.817658906541377"><ele>259.6666666666667</ele><time>2026-03-28T07:29:29.999Z</time></trkpt><trkpt lat="44.8129770983708" lon="9.81765350562606"><ele>260.0</ele><time>2026-03-28T07:29:32.999Z</time></trkpt><trkpt lat="44.812894151959654" lon="9.81763721242229"><ele>261.33333333333337</ele><time>2026-03-28T07:29:35.999Z</time></trkpt><trkpt lat="44.81281171580483" lon="9.817621838947447"><ele>262.6666666666667</ele><time>2026-03-28T07:29:38.999Z</time></trkpt><trkpt lat="44.81272741704145" lon="9.81759440368329"><ele>264.0</ele><time>2026-03-28T07:29:41.999Z</time></trkpt><trkpt lat="44.8126434781963" lon="9.817570284915384"><ele>265.3333333333333</ele><time>2026-03-28T07:29:44.999Z</time></trkpt><trkpt lat="44.8125649598249" lon="9.817540389689983"><ele>266.66666666666663</ele><time>2026-03-28T07:29:47.999Z</time></trkpt><trkpt lat="44.81248516509409" lon="9.81750446646976"><ele>268.0</ele><time>2026-03-28T07:29:50.999Z</time></trkpt><trkpt lat="44.812410542565296" lon="9.817451646221542"><ele>268.8333333333333</ele><time>2026-03-28T07:29:53.998Z</time></trkpt><trkpt lat="44.81234267134316" lon="9.81737956381549"><ele>269.66666666666663</ele><time>2026-03-28T07:29:56.998Z</time></trkpt><trkpt lat="44.8122796629794" lon="9.817290255608834"><ele>270.5</ele><time>2026-03-28T07:29:59.998Z</time></trkpt><trkpt lat="44.812216802061585" lon="9.817202212378126"><ele>271.3333333333333</ele><time>2026-03-28T07:30:02.998Z</time></trkpt><trkpt lat="44.812156507374254" lon="9.817114682995461"><ele>272.1666666666667</ele><time>2026-03-28T07:30:05.998Z</time></trkpt><trkpt lat="44.812095731873654" lon="9.817029280442972"><ele>273.0</ele><time>2026-03-28T07:30:08.998Z</time></trkpt><trkpt lat="44.812032468225524" lon="9.816942396904542"><ele>273.0</ele><time>2026-03-28T07:30:11.998Z</time></trkpt><trkpt lat="44.81196647794863" lon="9.816865682144154"><ele>273.0</ele><time>2026-03-28T07:30:14.998Z</time></trkpt><trkpt lat="44.811906428246836" lon="9.816784268246543"><ele>273.0</ele><time>2026-03-28T07:30:17.998Z</time></trkpt><trkpt lat="44.81184168366833" lon="9.816708938527144"><ele>273.0</ele><time>2026-03-28T07:30:20.998Z</time></trkpt><trkpt lat="44.811778623929925" lon="9.8166331397774"><ele>273.0</ele><time>2026-03-28T07:30:23.998Z</time></trkpt><trkpt lat="44.81171114164881" lon="9.816564885197387"><ele>273.0</ele><time>2026-03-28T07:30:26.998Z</time></trkpt><trkpt lat="44.81164803262277" lon="9.816491758501039"><ele>274.3333333333333</ele><time>2026-03-28T07:30:29.998Z</time></trkpt><trkpt lat="44.811585199566146" lon="9.816417407673452"><ele>275.6666666666667</ele><time>2026-03-28T07:30:32.998Z</time></trkpt><trkpt lat="44.8115245786819" lon="9.816338899985388"><ele>277.0</ele><time>2026-03-28T07:30:35.998Z</time></trkpt><trkpt lat="44.81146589612204" lon="9.816253471155202"><ele>278.33333333333337</ele><time>2026-03-28T07:30:39Z</time></trkpt><trkpt lat="44.81141139716005" lon="9.816164732518464"><ele>279.6666666666667</ele><time>2026-03-28T07:30:42Z</time></trkpt><trkpt lat="44.81135330466963" lon="9.816082278239673"><ele>281.0</ele><time>2026-03-28T07:30:45Z</time></trkpt><trkpt lat="44.81129621655691" lon="9.815998178852027"><ele>281.5</ele><time>2026-03-28T07:30:48Z</time></trkpt><trkpt lat="44.81124129632385" lon="9.815918505673654"><ele>282.0</ele><time>2026-03-28T07:30:51Z</time></trkpt><trkpt lat="44.81118824839953" lon="9.815835733098176"><ele>282.5</ele><time>2026-03-28T07:30:54Z</time></trkpt><trkpt lat="44.811135378915544" lon="9.815755585526054"><ele>283.0</ele><time>2026-03-28T07:30:57Z</time></trkpt><trkpt lat="44.81108070143884" lon="9.815677633013896"><ele>283.5</ele><time>2026-03-28T07:31:00Z</time></trkpt><trkpt lat="44.811022002064675" lon="9.815593259246572"><ele>284.0</ele><time>2026-03-28T07:31:03Z</time></trkpt><trkpt lat="44.810959497020974" lon="9.815517100861388"><ele>284.0</ele><time>2026-03-28T07:31:05.999Z</time></trkpt><trkpt lat="44.81089788619454" lon="9.815445005660683"><ele>284.0</ele><time>2026-03-28T07:31:08.999Z</time></trkpt><trkpt lat="44.81083369559263" lon="9.8153764642053"><ele>284.0</ele><time>2026-03-28T07:31:11.999Z</time></trkpt><trkpt lat="44.81076763375813" lon="9.815309565000016"><ele>284.0</ele><time>2026-03-28T07:31:14.999Z</time></trkpt><trkpt lat="44.810697560046144" lon="9.81524661359614"><ele>284.0</ele><time>2026-03-28T07:31:17.999Z</time></trkpt><trkpt lat="44.81062306043654" lon="9.81519316807212"><ele>284.0</ele><time>2026-03-28T07:31:20.999Z</time></trkpt><trkpt lat="44.81054731675477" lon="9.815138431661525"><ele>286.0</ele><time>2026-03-28T07:31:23.999Z</time></trkpt><trkpt lat="44.810472852417355" lon="9.815081605768215"><ele>288.0</ele><time>2026-03-28T07:31:26.999Z</time></trkpt><trkpt lat="44.81039078404408" lon="9.81503318313333"><ele>290.0</ele><time>2026-03-28T07:31:29.999Z</time></trkpt><trkpt lat="44.81030972385528" lon="9.814985366279474"><ele>292.0</ele><time>2026-03-28T07:31:32.999Z</time></trkpt><trkpt lat="44.8102241376521" lon="9.814947935412818"><ele>294.0</ele><time>2026-03-28T07:31:35.999Z</time></trkpt><trkpt lat="44.810141423724126" lon="9.814907931083841"><ele>296.0</ele><time>2026-03-28T07:31:38.999Z</time></trkpt><trkpt lat="44.81006180420458" lon="9.814863499343613"><ele>296.0</ele><time>2026-03-28T07:31:41.999Z</time></trkpt><trkpt lat="44.80997823859213" lon="9.814816316905322"><ele>296.0</ele><time>2026-03-28T07:31:44.999Z</time></trkpt><trkpt lat="44.809904480027" lon="9.814764809961577"><ele>296.0</ele><time>2026-03-28T07:31:47.999Z</time></trkpt><trkpt lat="44.80982585462661" lon="9.814711630666725"><ele>296.0</ele><time>2026-03-28T07:31:50.999Z</time></trkpt><trkpt lat="44.80974591108329" lon="9.814654590867304"><ele>296.0</ele><time>2026-03-28T07:31:53.999Z</time></trkpt><trkpt lat="44.80966737664888" lon="9.814600902101144"><ele>296.0</ele><time>2026-03-28T07:31:56.999Z</time></trkpt><trkpt lat="44.80960826667385" lon="9.8145638779038"><ele>296.0</ele><time>2026-03-28T07:31:58.999Z</time></trkpt><trkpt lat="44.80952347515318" lon="9.814519521019974"><ele>296.0</ele><time>2026-03-28T07:32:01.998Z</time></trkpt><trkpt lat="44.80944278064376" lon="9.81446774670045"><ele>296.0</ele><time>2026-03-28T07:32:04.998Z</time></trkpt><trkpt lat="44.80935917505543" lon="9.814417109693983"><ele>296.0</ele><time>2026-03-28T07:32:07.998Z</time></trkpt><trkpt lat="44.809280499590294" lon="9.814361362659618"><ele>296.0</ele><time>2026-03-28T07:32:10.998Z</time></trkpt><trkpt lat="44.80920062644033" lon="9.814296765786649"><ele>296.5</ele><time>2026-03-28T07:32:13.998Z</time></trkpt><trkpt lat="44.809131419776044" lon="9.814215112529855"><ele>297.0</ele><time>2026-03-28T07:32:16.998Z</time></trkpt><trkpt lat="44.80907067945916" lon="9.814121349366484"><ele>297.5</ele><time>2026-03-28T07:32:19.998Z</time></trkpt><trkpt lat="44.80901424791381" lon="9.814020030071731"><ele>298.0</ele><time>2026-03-28T07:32:22.998Z</time></trkpt><trkpt lat="44.80897574128388" lon="9.813949370218847"><ele>298.5</ele><time>2026-03-28T07:32:24.998Z</time></trkpt><trkpt lat="44.808921265232655" lon="9.813842501661917"><ele>299.0</ele><time>2026-03-28T07:32:27.998Z</time></trkpt><trkpt lat="44.80886223239962" lon="9.813737182199725"><ele>299.0</ele><time>2026-03-28T07:32:30.998Z</time></trkpt><trkpt lat="44.808797980372525" lon="9.81364152711126"><ele>299.0</ele><time>2026-03-28T07:32:33.998Z</time></trkpt><trkpt lat="44.80873103135025" lon="9.813555476654102"><ele>299.0</ele><time>2026-03-28T07:32:36.998Z</time></trkpt><trkpt lat="44.808658047585844" lon="9.813490021649939"><ele>299.0</ele><time>2026-03-28T07:32:39.998Z</time></trkpt><trkpt lat="44.808583178042234" lon="9.813435683185748"><ele>299.0</ele><time>2026-03-28T07:32:42.998Z</time></trkpt><trkpt lat="44.80850502640355" lon="9.813394459589091"><ele>299.0</ele><time>2026-03-28T07:32:46Z</time></trkpt><trkpt lat="44.80842432219566" lon="9.81336413895213"><ele>302.2</ele><time>2026-03-28T07:32:49Z</time></trkpt><trkpt lat="44.80833956813559" lon="9.813337381064041"><ele>305.4</ele><time>2026-03-28T07:32:52Z</time></trkpt><trkpt lat="44.8082515520233" lon="9.813311119786967"><ele>308.6</ele><time>2026-03-28T07:32:55Z</time></trkpt><trkpt lat="44.808164528616196" lon="9.813281537100298"><ele>311.8</ele><time>2026-03-28T07:32:58Z</time></trkpt><trkpt lat="44.80807522874274" lon="9.81325959526563"><ele>315.0</ele><time>2026-03-28T07:33:01Z</time></trkpt><trkpt lat="44.80798332516097" lon="9.813238060634289"><ele>315.0</ele><time>2026-03-28T07:33:04Z</time></trkpt><trkpt lat="44.80789353615554" lon="9.813225080245545"><ele>315.0</ele><time>2026-03-28T07:33:07Z</time></trkpt><trkpt lat="44.80782995848319" lon="9.813220367864838"><ele>315.0</ele><time>2026-03-28T07:33:09Z</time></trkpt><trkpt lat="44.807741654404985" lon="9.813223265375589"><ele>315.0</ele><time>2026-03-28T07:33:11.999Z</time></trkpt><trkpt lat="44.807651262623914" lon="9.813232161132628"><ele>315.0</ele><time>2026-03-28T07:33:14.999Z</time></trkpt><trkpt lat="44.80758781308522" lon="9.813244634912923"><ele>315.0</ele><time>2026-03-28T07:33:16.999Z</time></trkpt><trkpt lat="44.807493428963795" lon="9.813239912086035"><ele>315.6666666666667</ele><time>2026-03-28T07:33:19.999Z</time></trkpt><trkpt lat="44.80740514474777" lon="9.813212620144688"><ele>316.3333333333333</ele><time>2026-03-28T07:33:22.999Z</time></trkpt><trkpt lat="44.80732178631944" lon="9.81316543913375"><ele>317.0</ele><time>2026-03-28T07:33:25.999Z</time></trkpt><trkpt lat="44.8072365030314" lon="9.81311805838626"><ele>317.66666666666663</ele><time>2026-03-28T07:33:28.999Z</time></trkpt><trkpt lat="44.807144211307204" lon="9.813092344553725"><ele>318.3333333333333</ele><time>2026-03-28T07:33:31.999Z</time></trkpt><trkpt lat="44.80707754818164" lon="9.813094472514981"><ele>319.0</ele><time>2026-03-28T07:33:33.999Z</time></trkpt><trkpt lat="44.807012174960796" lon="9.813086042067946"><ele>319.0</ele><time>2026-03-28T07:33:35.999Z</time></trkpt><trkpt lat="44.80694512020635" lon="9.813072976242475"><ele>319.0</ele><time>2026-03-28T07:33:37.999Z</time></trkpt><trkpt lat="44.806885364118834" lon="9.8130380352722"><ele>319.0</ele><time>2026-03-28T07:33:39.999Z</time></trkpt><trkpt lat="44.806826990130936" lon="9.813002007243519"><ele>319.0</ele><time>2026-03-28T07:33:41.999Z</time></trkpt><trkpt lat="44.80674782253462" lon="9.81293959723056"><ele>319.0</ele><time>2026-03-28T07:33:44.999Z</time></trkpt><trkpt lat="44.80666930953592" lon="9.812870271054777"><ele>319.0</ele><time>2026-03-28T07:33:47.999Z</time></trkpt><trkpt lat="44.8065939640774" lon="9.8128025172505"><ele>318.16666666666663</ele><time>2026-03-28T07:33:50.999Z</time></trkpt><trkpt lat="44.80651751780424" lon="9.812737416924708"><ele>317.3333333333333</ele><time>2026-03-28T07:33:53.999Z</time></trkpt><trkpt lat="44.80644447626528" lon="9.812676365509967"><ele>316.5</ele><time>2026-03-28T07:33:56.999Z</time></trkpt><trkpt lat="44.80636839209547" lon="9.812612085083224"><ele>315.6666666666667</ele><time>2026-03-28T07:33:59.999Z</time></trkpt><trkpt lat="44.806299603203534" lon="9.812534050925544"><ele>314.83333333333337</ele><time>2026-03-28T07:34:02.998Z</time></trkpt><trkpt lat="44.80623353662238" lon="9.812451163986363"><ele>314.0</ele><time>2026-03-28T07:34:05.998Z</time></trkpt><trkpt lat="44.80617844924468" lon="9.812352221664996"><ele>317.0</ele><time>2026-03-28T07:34:08.998Z</time></trkpt><trkpt lat="44.80613638054558" lon="9.812233572854636"><ele>320.0</ele><time>2026-03-28T07:34:11.998Z</time></trkpt><trkpt lat="44.80611101228828" lon="9.812103819740168"><ele>323.0</ele><time>2026-03-28T07:34:14.998Z</time></trkpt><trkpt lat="44.806090119396146" lon="9.812011558234538"><ele>326.0</ele><time>2026-03-28T07:34:16.998Z</time></trkpt><trkpt lat="44.8060730119404" lon="9.811916922988836"><ele>329.0</ele><time>2026-03-28T07:34:18.998Z</time></trkpt><trkpt lat="44.80605413572365" lon="9.811821243114187"><ele>332.0</ele><time>2026-03-28T07:34:20.998Z</time></trkpt><trkpt lat="44.806031582461" lon="9.811723435776086"><ele>331.83333333333337</ele><time>2026-03-28T07:34:22.998Z</time></trkpt><trkpt lat="44.806016721777034" lon="9.811621048440394"><ele>331.6666666666667</ele><time>2026-03-28T07:34:24.998Z</time></trkpt><trkpt lat="44.80599527349419" lon="9.811515142950231"><ele>331.5</ele><time>2026-03-28T07:34:26.998Z</time></trkpt><trkpt lat="44.8059767646631" lon="9.811410641136266"><ele>331.3333333333333</ele><time>2026-03-28T07:34:28.998Z</time></trkpt><trkpt lat="44.80595469558314" lon="9.811304027620727"><ele>331.16666666666663</ele><time>2026-03-28T07:34:30.998Z</time></trkpt><trkpt lat="44.80592743415376" lon="9.81119829543873"><ele>331.0</ele><time>2026-03-28T07:34:32.998Z</time></trkpt><trkpt lat="44.80590167866436" lon="9.81108949847459"><ele>331.66666666666663</ele><time>2026-03-28T07:34:34.998Z</time></trkpt><trkpt lat="44.80586959620949" lon="9.810985841625506"><ele>332.3333333333333</ele><time>2026-03-28T07:34:36.998Z</time></trkpt><trkpt lat="44.80583245563835" lon="9.810882998001818"><ele>333.0</ele><time>2026-03-28T07:34:38.998Z</time></trkpt><trkpt lat="44.805788682932" lon="9.810782245478011"><ele>333.6666666666667</ele><time>2026-03-28T07:34:40.998Z</time></trkpt><trkpt lat="44.80573282185624" lon="9.81068863221281"><ele>334.33333333333337</ele><time>2026-03-28T07:34:42.998Z</time></trkpt><trkpt lat="44.8056680622144" lon="9.810597227412334"><ele>335.0</ele><time>2026-03-28T07:34:44.998Z</time></trkpt><trkpt lat="44.805600871800976" lon="9.810509450394202"><ele>335.0</ele><time>2026-03-28T07:34:46.998Z</time></trkpt><trkpt lat="44.80552307918949" lon="9.810436184321631"><ele>335.0</ele><time>2026-03-28T07:34:48.998Z</time></trkpt><trkpt lat="44.80544398782411" lon="9.810359128164261"><ele>335.0</ele><time>2026-03-28T07:34:51Z</time></trkpt><trkpt lat="44.80535768764073" lon="9.810291665797587"><ele>335.0</ele><time>2026-03-28T07:34:53Z</time></trkpt><trkpt lat="44.80526995842832" lon="9.810227217624792"><ele>335.0</ele><time>2026-03-28T07:34:55Z</time></trkpt><trkpt lat="44.80518224577529" lon="9.810164979892622"><ele>335.0</ele><time>2026-03-28T07:34:57Z</time></trkpt><trkpt lat="44.80509405509139" lon="9.810103802725104"><ele>335.0</ele><time>2026-03-28T07:34:59Z</time></trkpt><trkpt lat="44.805007136420826" lon="9.810047736088341"><ele>335.0</ele><time>2026-03-28T07:35:01Z</time></trkpt><trkpt lat="44.80492335854066" lon="9.80998020504261"><ele>335.0</ele><time>2026-03-28T07:35:03Z</time></trkpt><trkpt lat="44.80483598663857" lon="9.809920623798687"><ele>335.0</ele><time>2026-03-28T07:35:05Z</time></trkpt><trkpt lat="44.804750224615965" lon="9.809852781009871"><ele>335.0</ele><time>2026-03-28T07:35:07Z</time></trkpt><trkpt lat="44.804662943927866" lon="9.809780887757311"><ele>335.0</ele><time>2026-03-28T07:35:09Z</time></trkpt><trkpt lat="44.80457431319598" lon="9.809712136708828"><ele>335.0</ele><time>2026-03-28T07:35:11Z</time></trkpt><trkpt lat="44.80448577032568" lon="9.80964001682059"><ele>335.0</ele><time>2026-03-28T07:35:13Z</time></trkpt><trkpt lat="44.80439890256326" lon="9.80956142562497"><ele>335.0</ele><time>2026-03-28T07:35:14.999Z</time></trkpt><trkpt lat="44.804316511142645" lon="9.80947735098954"><ele>335.4</ele><time>2026-03-28T07:35:16.999Z</time></trkpt><trkpt lat="44.80423904563048" lon="9.809383768149274"><ele>335.8</ele><time>2026-03-28T07:35:18.999Z</time></trkpt><trkpt lat="44.80415182830911" lon="9.809218707698493"><ele>336.20000000000005</ele><time>2026-03-28T07:35:21.999Z</time></trkpt><trkpt lat="44.80409633946099" lon="9.80910041789074"><ele>336.6</ele><time>2026-03-28T07:35:23.999Z</time></trkpt><trkpt lat="44.80405198502291" lon="9.808985547779635"><ele>337.0</ele><time>2026-03-28T07:35:25.999Z</time></trkpt><trkpt lat="44.80401020705553" lon="9.808868964735117"><ele>337.0</ele><time>2026-03-28T07:35:27.999Z</time></trkpt><trkpt lat="44.803962721192164" lon="9.808753537791771"><ele>337.0</ele><time>2026-03-28T07:35:29.999Z</time></trkpt><trkpt lat="44.803916755257056" lon="9.808641272449796"><ele>337.0</ele><time>2026-03-28T07:35:31.999Z</time></trkpt><trkpt lat="44.8038597726253" lon="9.808533865697918"><ele>337.0</ele><time>2026-03-28T07:35:33.999Z</time></trkpt><trkpt lat="44.80379656536469" lon="9.808436278785118"><ele>337.0</ele><time>2026-03-28T07:35:35.999Z</time></trkpt><trkpt lat="44.803729080305324" lon="9.808340484696915"><ele>337.8</ele><time>2026-03-28T07:35:37.999Z</time></trkpt><trkpt lat="44.80365379932176" lon="9.808247493961087"><ele>338.6</ele><time>2026-03-28T07:35:39.999Z</time></trkpt><trkpt lat="44.80357451800768" lon="9.808158737747824"><ele>339.40000000000003</ele><time>2026-03-28T07:35:41.999Z</time></trkpt><trkpt lat="44.80349689269872" lon="9.808075348152919"><ele>340.20000000000005</ele><time>2026-03-28T07:35:43.999Z</time></trkpt><trkpt lat="44.803415267376494" lon="9.807999799696004"><ele>341.0</ele><time>2026-03-28T07:35:45.999Z</time></trkpt><trkpt lat="44.80333429371011" lon="9.807921251133262"><ele>341.0</ele><time>2026-03-28T07:35:47.999Z</time></trkpt><trkpt lat="44.803252045855466" lon="9.807841428220593"><ele>341.0</ele><time>2026-03-28T07:35:49.999Z</time></trkpt><trkpt lat="44.803168725284024" lon="9.807761703022935"><ele>341.0</ele><time>2026-03-28T07:35:51.999Z</time></trkpt><trkpt lat="44.80308375034401" lon="9.80768150274382"><ele>341.0</ele><time>2026-03-28T07:35:53.999Z</time></trkpt><trkpt lat="44.80299886254533" lon="9.807593672815301"><ele>341.0</ele><time>2026-03-28T07:35:55.999Z</time></trkpt><trkpt lat="44.80291430934211" lon="9.807495710324051"><ele>340.8</ele><time>2026-03-28T07:35:57.999Z</time></trkpt><trkpt lat="44.80283402722344" lon="9.807399764855296"><ele>340.6</ele><time>2026-03-28T07:35:59.999Z</time></trkpt><trkpt lat="44.80275546478826" lon="9.80730247812152"><ele>340.4</ele><time>2026-03-28T07:36:01.999Z</time></trkpt><trkpt lat="44.802682887132754" lon="9.807201486339803"><ele>340.2</ele><time>2026-03-28T07:36:03.999Z</time></trkpt><trkpt lat="44.802612541488074" lon="9.80710539419114"><ele>340.0</ele><time>2026-03-28T07:36:05.999Z</time></trkpt><trkpt lat="44.802542096469075" lon="9.807019228163046"><ele>340.0</ele><time>2026-03-28T07:36:07.998Z</time></trkpt><trkpt lat="44.80246598286351" lon="9.80694463464041"><ele>340.0</ele><time>2026-03-28T07:36:09.998Z</time></trkpt><trkpt lat="44.802389424251366" lon="9.806885032874098"><ele>340.0</ele><time>2026-03-28T07:36:11.998Z</time></trkpt><trkpt lat="44.80231844464618" lon="9.806825297373079"><ele>340.0</ele><time>2026-03-28T07:36:13.998Z</time></trkpt><trkpt lat="44.802245798055566" lon="9.80677312909453"><ele>340.0</ele><time>2026-03-28T07:36:15.998Z</time></trkpt><trkpt lat="44.80217104060447" lon="9.806727198893164"><ele>340.0</ele><time>2026-03-28T07:36:17.998Z</time></trkpt><trkpt lat="44.802099146823885" lon="9.806683606042542"><ele>339.8333333333333</ele><time>2026-03-28T07:36:19.998Z</time></trkpt><trkpt lat="44.80202296779563" lon="9.806651293002382"><ele>339.66666666666663</ele><time>2026-03-28T07:36:21.998Z</time></trkpt><trkpt lat="44.80194323730187" lon="9.80663855112927"><ele>339.5</ele><time>2026-03-28T07:36:23.998Z</time></trkpt><trkpt lat="44.8018659805663" lon="9.806638254605184"><ele>339.3333333333333</ele><time>2026-03-28T07:36:25.998Z</time></trkpt><trkpt lat="44.80179211032101" lon="9.80664855199504"><ele>339.1666666666667</ele><time>2026-03-28T07:36:27.998Z</time></trkpt><trkpt lat="44.80172069211695" lon="9.80666053415362"><ele>339.0</ele><time>2026-03-28T07:36:29.998Z</time></trkpt><trkpt lat="44.801652530600386" lon="9.806670831250843"><ele>340.2857142857143</ele><time>2026-03-28T07:36:31.998Z</time></trkpt><trkpt lat="44.801578712876214" lon="9.806675202640362"><ele>341.5714285714286</ele><time>2026-03-28T07:36:33.998Z</time></trkpt><trkpt lat="44.80150902050458" lon="9.806683718300867"><ele>342.8571428571429</ele><time>2026-03-28T07:36:35.998Z</time></trkpt><trkpt lat="44.80143114621944" lon="9.806675808466052"><ele>344.1428571428571</ele><time>2026-03-28T07:36:37.998Z</time></trkpt><trkpt lat="44.80135775930849" lon="9.80664389637503"><ele>345.42857142857144</ele><time>2026-03-28T07:36:39.998Z</time></trkpt><trkpt lat="44.80128881735847" lon="9.806586224501345"><ele>346.7142857142857</ele><time>2026-03-28T07:36:41.998Z</time></trkpt><trkpt lat="44.80123967914805" lon="9.806517546947884"><ele>348.0</ele><time>2026-03-28T07:36:43.998Z</time></trkpt><trkpt lat="44.80119087675073" lon="9.806446041944403"><ele>348.0</ele><time>2026-03-28T07:36:45.998Z</time></trkpt><trkpt lat="44.80115098965943" lon="9.806366773225431"><ele>348.0</ele><time>2026-03-28T07:36:47.998Z</time></trkpt><trkpt lat="44.80111083178911" lon="9.806290943883155"><ele>348.0</ele><time>2026-03-28T07:36:49.998Z</time></trkpt><trkpt lat="44.80106532624172" lon="9.806223406131194"><ele>348.0</ele><time>2026-03-28T07:36:51.998Z</time></trkpt><trkpt lat="44.800991929257485" lon="9.806136422148787"><ele>348.0</ele><time>2026-03-28T07:36:54.998Z</time></trkpt><trkpt lat="44.80093580181978" lon="9.80608369493361"><ele>348.0</ele><time>2026-03-28T07:36:57Z</time></trkpt><trkpt lat="44.800871005665485" lon="9.806033999665592"><ele>348.0</ele><time>2026-03-28T07:36:59Z</time></trkpt><trkpt lat="44.800807076875316" lon="9.805989754424239"><ele>348.8333333333333</ele><time>2026-03-28T07:37:01Z</time></trkpt><trkpt lat="44.80074018765931" lon="9.805939797232051"><ele>349.6666666666667</ele><time>2026-03-28T07:37:03Z</time></trkpt><trkpt lat="44.800673198151266" lon="9.80588407004092"><ele>350.5</ele><time>2026-03-28T07:37:05Z</time></trkpt><trkpt lat="44.80061601581914" lon="9.805829071314559"><ele>351.33333333333337</ele><time>2026-03-28T07:37:07Z</time></trkpt><trkpt lat="44.80052210635324" lon="9.805721919525677"><ele>352.1666666666667</ele><time>2026-03-28T07:37:10Z</time></trkpt><trkpt lat="44.800475225935536" lon="9.805660888103594"><ele>353.0</ele><time>2026-03-28T07:37:11Z</time></trkpt><trkpt lat="44.800427486829946" lon="9.805582800185336"><ele>353.0</ele><time>2026-03-28T07:37:13Z</time></trkpt><trkpt lat="44.800378330218564" lon="9.80548719841512"><ele>353.0</ele><time>2026-03-28T07:37:15Z</time></trkpt><trkpt lat="44.800330225835985" lon="9.805391517778245"><ele>353.0</ele><time>2026-03-28T07:37:16.999Z</time></trkpt><trkpt lat="44.800281451842" lon="9.8053014710873"><ele>353.0</ele><time>2026-03-28T07:37:18.999Z</time></trkpt><trkpt lat="44.80023861054766" lon="9.805205967031021"><ele>353.0</ele><time>2026-03-28T07:37:20.999Z</time></trkpt><trkpt lat="44.80019188769974" lon="9.805109202889186"><ele>353.0</ele><time>2026-03-28T07:37:22.999Z</time></trkpt><trkpt lat="44.800147292863194" lon="9.805009209806773"><ele>354.1666666666667</ele><time>2026-03-28T07:37:24.999Z</time></trkpt><trkpt lat="44.8001034348691" lon="9.804905145339218"><ele>355.33333333333337</ele><time>2026-03-28T07:37:26.999Z</time></trkpt><trkpt lat="44.80006386981482" lon="9.804796038403012"><ele>356.5</ele><time>2026-03-28T07:37:28.999Z</time></trkpt><trkpt lat="44.80002803554393" lon="9.804688659767296"><ele>357.6666666666667</ele><time>2026-03-28T07:37:30.999Z</time></trkpt><trkpt lat="44.79999061937375" lon="9.80458527150781"><ele>358.8333333333333</ele><time>2026-03-28T07:37:32.999Z</time></trkpt><trkpt lat="44.799958049861864" lon="9.80448115975031"><ele>360.0</ele><time>2026-03-28T07:37:34.999Z</time></trkpt><trkpt lat="44.79992591694447" lon="9.804378478209415"><ele>359.8333333333333</ele><time>2026-03-28T07:37:36.999Z</time></trkpt><trkpt lat="44.79988866875156" lon="9.804282279664102"><ele>359.6666666666667</ele><time>2026-03-28T07:37:38.999Z</time></trkpt><trkpt lat="44.79984745155468" lon="9.80418971228932"><ele>359.5</ele><time>2026-03-28T07:37:40.999Z</time></trkpt><trkpt lat="44.799792348643976" lon="9.804105353301681"><ele>359.33333333333337</ele><time>2026-03-28T07:37:42.999Z</time></trkpt><trkpt lat="44.79972742659298" lon="9.804025193748998"><ele>359.1666666666667</ele><time>2026-03-28T07:37:44.999Z</time></trkpt><trkpt lat="44.79965245403777" lon="9.803960647266226"><ele>359.0</ele><time>2026-03-28T07:37:46.999Z</time></trkpt><trkpt lat="44.79956369587521" lon="9.803912051296125"><ele>359.0</ele><time>2026-03-28T07:37:48.999Z</time></trkpt><trkpt lat="44.799475078050804" lon="9.803859658157856"><ele>359.0</ele><time>2026-03-28T07:37:50.999Z</time></trkpt><trkpt lat="44.79938065014534" lon="9.803804987718072"><ele>359.0</ele><time>2026-03-28T07:37:52.999Z</time></trkpt><trkpt lat="44.79929258319879" lon="9.803729978802178"><ele>359.0</ele><time>2026-03-28T07:37:54.999Z</time></trkpt><trkpt lat="44.79920928403655" lon="9.803628045248285"><ele>359.0</ele><time>2026-03-28T07:37:56.999Z</time></trkpt><trkpt lat="44.79913603603034" lon="9.803510412115521"><ele>359.4</ele><time>2026-03-28T07:37:58.999Z</time></trkpt><trkpt lat="44.799066162362244" lon="9.803385280283013"><ele>359.79999999999995</ele><time>2026-03-28T07:38:00.999Z</time></trkpt><trkpt lat="44.799007411146356" lon="9.80326707788986"><ele>360.20000000000005</ele><time>2026-03-28T07:38:02.999Z</time></trkpt><trkpt lat="44.79894582067932" lon="9.803143005851673"><ele>360.6</ele><time>2026-03-28T07:38:04.999Z</time></trkpt><trkpt lat="44.798898266283544" lon="9.803013608478933"><ele>361.0</ele><time>2026-03-28T07:38:06.999Z</time></trkpt><trkpt lat="44.79885078827669" lon="9.802885157665148"><ele>361.0</ele><time>2026-03-28T07:38:08.999Z</time></trkpt><trkpt lat="44.798811745538984" lon="9.802760637764026"><ele>361.0</ele><time>2026-03-28T07:38:10.999Z</time></trkpt><trkpt lat="44.798775301443214" lon="9.802635234619235"><ele>361.0</ele><time>2026-03-28T07:38:12.998Z</time></trkpt><trkpt lat="44.79874428909812" lon="9.802510556391857"><ele>361.0</ele><time>2026-03-28T07:38:14.998Z</time></trkpt><trkpt lat="44.79871440469355" lon="9.80239897547193"><ele>361.0</ele><time>2026-03-28T07:38:16.998Z</time></trkpt><trkpt lat="44.79868356257098" lon="9.802292316012773"><ele>360.7142857142857</ele><time>2026-03-28T07:38:18.998Z</time></trkpt><trkpt lat="44.798654303318585" lon="9.802192439055752"><ele>360.4285714285714</ele><time>2026-03-28T07:38:20.998Z</time></trkpt><trkpt lat="44.79862915773986" lon="9.802091651491102"><ele>360.1428571428571</ele><time>2026-03-28T07:38:22.998Z</time></trkpt><trkpt lat="44.79859615073367" lon="9.801999102304219"><ele>359.8571428571429</ele><time>2026-03-28T07:38:24.998Z</time></trkpt><trkpt lat="44.798558107428114" lon="9.801910749041387"><ele>359.57142857142856</ele><time>2026-03-28T07:38:26.998Z</time></trkpt><trkpt lat="44.7985163802047" lon="9.801830013760744"><ele>359.2857142857143</ele><time>2026-03-28T07:38:28.998Z</time></trkpt><trkpt lat="44.79847026666775" lon="9.801751360864474"><ele>359.0</ele><time>2026-03-28T07:38:30.998Z</time></trkpt><trkpt lat="44.79842089446429" lon="9.801681029195493"><ele>360.14285714285717</ele><time>2026-03-28T07:38:32.998Z</time></trkpt><trkpt lat="44.79837234102935" lon="9.801610176391705"><ele>361.28571428571433</ele><time>2026-03-28T07:38:34.998Z</time></trkpt><trkpt lat="44.798321464890634" lon="9.801543557043328"><ele>362.42857142857144</ele><time>2026-03-28T07:38:36.998Z</time></trkpt><trkpt lat="44.798278303282" lon="9.801474976422934"><ele>363.57142857142856</ele><time>2026-03-28T07:38:38.998Z</time></trkpt><trkpt lat="44.798239908928835" lon="9.801401543982092"><ele>364.7142857142857</ele><time>2026-03-28T07:38:40.998Z</time></trkpt><trkpt lat="44.79820587131046" lon="9.801325124469404"><ele>365.85714285714283</ele><time>2026-03-28T07:38:42.998Z</time></trkpt><trkpt lat="44.79818392215024" lon="9.801238587573083"><ele>367.0</ele><time>2026-03-28T07:38:44.998Z</time></trkpt><trkpt lat="44.798166405442615" lon="9.801152313518905"><ele>367.0</ele><time>2026-03-28T07:38:46.998Z</time></trkpt><trkpt lat="44.798153375830445" lon="9.80102540711631"><ele>367.0</ele><time>2026-03-28T07:38:49.998Z</time></trkpt><trkpt lat="44.798149570789676" lon="9.800893694672043"><ele>367.0</ele><time>2026-03-28T07:38:52.998Z</time></trkpt><trkpt lat="44.7981409176434" lon="9.80076513157513"><ele>367.0</ele><time>2026-03-28T07:38:55.998Z</time></trkpt><trkpt lat="44.79812097062124" lon="9.800647118268476"><ele>367.0</ele><time>2026-03-28T07:38:58.998Z</time></trkpt><trkpt lat="44.79807909530583" lon="9.800534599885571"><ele>367.66666666666663</ele><time>2026-03-28T07:39:02Z</time></trkpt><trkpt lat="44.79801771680078" lon="9.80043453677712"><ele>368.3333333333333</ele><time>2026-03-28T07:39:05Z</time></trkpt><trkpt lat="44.79794667866182" lon="9.800351323636834"><ele>369.0</ele><time>2026-03-28T07:39:08Z</time></trkpt><trkpt lat="44.797893818901194" lon="9.800302159779061"><ele>369.6666666666667</ele><time>2026-03-28T07:39:10Z</time></trkpt><trkpt lat="44.797833293177376" lon="9.80025894560213"><ele>370.33333333333337</ele><time>2026-03-28T07:39:12Z</time></trkpt><trkpt lat="44.797765191264624" lon="9.80021750557736"><ele>371.0</ele><time>2026-03-28T07:39:14Z</time></trkpt><trkpt lat="44.79769042049534" lon="9.8001836052122"><ele>372.0</ele><time>2026-03-28T07:39:16Z</time></trkpt><trkpt lat="44.797614488980074" lon="9.800142952078208"><ele>373.0</ele><time>2026-03-28T07:39:18Z</time></trkpt><trkpt lat="44.7975366453147" lon="9.800102852535666"><ele>374.0</ele><time>2026-03-28T07:39:19.999Z</time></trkpt><trkpt lat="44.79745777550586" lon="9.800066619694945"><ele>375.0</ele><time>2026-03-28T07:39:21.999Z</time></trkpt><trkpt lat="44.79737812412207" lon="9.800019552457915"><ele>376.0</ele><time>2026-03-28T07:39:23.999Z</time></trkpt><trkpt lat="44.79730199716151" lon="9.799965752158696"><ele>377.0</ele><time>2026-03-28T07:39:25.999Z</time></trkpt><trkpt lat="44.79722910603103" lon="9.799904582035136"><ele>377.0</ele><time>2026-03-28T07:39:27.999Z</time></trkpt><trkpt lat="44.797163335273105" lon="9.799828361130766"><ele>377.0</ele><time>2026-03-28T07:39:29.999Z</time></trkpt><trkpt lat="44.79709941659913" lon="9.799750626145133"><ele>377.0</ele><time>2026-03-28T07:39:31.999Z</time></trkpt><trkpt lat="44.797041114168756" lon="9.79967294354522"><ele>377.0</ele><time>2026-03-28T07:39:33.999Z</time></trkpt><trkpt lat="44.796983142024544" lon="9.799597630399836"><ele>377.0</ele><time>2026-03-28T07:39:35.999Z</time></trkpt><trkpt lat="44.796925462555905" lon="9.799521373413517"><ele>377.0</ele><time>2026-03-28T07:39:37.999Z</time></trkpt><trkpt lat="44.796872638837506" lon="9.79944103785189"><ele>376.6666666666667</ele><time>2026-03-28T07:39:39.999Z</time></trkpt><trkpt lat="44.79682026032114" lon="9.79936215866873"><ele>376.33333333333337</ele><time>2026-03-28T07:39:41.999Z</time></trkpt><trkpt lat="44.796764360778326" lon="9.79928486089216"><ele>376.0</ele><time>2026-03-28T07:39:43.999Z</time></trkpt><trkpt lat="44.79671595666836" lon="9.799204332729692"><ele>375.6666666666667</ele><time>2026-03-28T07:39:45.999Z</time></trkpt><trkpt lat="44.79666384714924" lon="9.799124244728322"><ele>375.3333333333333</ele><time>2026-03-28T07:39:47.999Z</time></trkpt><trkpt lat="44.796615021161315" lon="9.799042587317041"><ele>375.0</ele><time>2026-03-28T07:39:49.999Z</time></trkpt><trkpt lat="44.796565887033516" lon="9.798967304208713"><ele>376.5714285714286</ele><time>2026-03-28T07:39:51.999Z</time></trkpt><trkpt lat="44.79652341051064" lon="9.798885116344536"><ele>378.1428571428571</ele><time>2026-03-28T07:39:53.999Z</time></trkpt><trkpt lat="44.79648394372665" lon="9.79880684854825"><ele>379.7142857142857</ele><time>2026-03-28T07:39:55.999Z</time></trkpt><trkpt lat="44.796444962025014" lon="9.798725582091826"><ele>381.28571428571433</ele><time>2026-03-28T07:39:57.999Z</time></trkpt><trkpt lat="44.796403474039444" lon="9.798647928579959"><ele>382.8571428571429</ele><time>2026-03-28T07:39:59.999Z</time></trkpt><trkpt lat="44.79636608576575" lon="9.798558581069708"><ele>384.42857142857144</ele><time>2026-03-28T07:40:01.999Z</time></trkpt><trkpt lat="44.796327776617424" lon="9.798474996332832"><ele>386.0</ele><time>2026-03-28T07:40:03.999Z</time></trkpt><trkpt lat="44.79628709373177" lon="9.79839166007269"><ele>386.14285714285717</ele><time>2026-03-28T07:40:05.999Z</time></trkpt><trkpt lat="44.7962500392737" lon="9.798309712282915"><ele>386.2857142857143</ele><time>2026-03-28T07:40:07.999Z</time></trkpt><trkpt lat="44.79621161872745" lon="9.79822368458459"><ele>386.42857142857144</ele><time>2026-03-28T07:40:09.999Z</time></trkpt><trkpt lat="44.796170612351574" lon="9.798144957418247"><ele>386.57142857142856</ele><time>2026-03-28T07:40:11.999Z</time></trkpt><trkpt lat="44.79613730143164" lon="9.79805779641411"><ele>386.7142857142857</ele><time>2026-03-28T07:40:13.998Z</time></trkpt><trkpt lat="44.796096736598145" lon="9.797980389354201"><ele>386.8571428571429</ele><time>2026-03-28T07:40:15.998Z</time></trkpt><trkpt lat="44.79605954250582" lon="9.79790175659342"><ele>387.0</ele><time>2026-03-28T07:40:17.998Z</time></trkpt><trkpt lat="44.7960233712495" lon="9.797825277693622"><ele>386.57142857142856</ele><time>2026-03-28T07:40:19.998Z</time></trkpt><trkpt lat="44.7959873680489" lon="9.79774356984704"><ele>386.14285714285717</ele><time>2026-03-28T07:40:21.998Z</time></trkpt><trkpt lat="44.79595274629952" lon="9.797665830714584"><ele>385.71428571428567</ele><time>2026-03-28T07:40:23.998Z</time></trkpt><trkpt lat="44.7959227914478" lon="9.797581245733024"><ele>385.2857142857143</ele><time>2026-03-28T07:40:25.998Z</time></trkpt><trkpt lat="44.79589630909053" lon="9.797497158787234"><ele>384.85714285714283</ele><time>2026-03-28T07:40:27.998Z</time></trkpt><trkpt lat="44.79586810540552" lon="9.797403571964212"><ele>384.4285714285714</ele><time>2026-03-28T07:40:29.998Z</time></trkpt><trkpt lat="44.795846271847005" lon="9.797312370167285"><ele>384.0</ele><time>2026-03-28T07:40:31.998Z</time></trkpt><trkpt lat="44.795816411228195" lon="9.797220137801693"><ele>384.99999999999994</ele><time>2026-03-28T07:40:33.998Z</time></trkpt><trkpt lat="44.79579466315287" lon="9.797120942652397"><ele>386.0</ele><time>2026-03-28T07:40:35.998Z</time></trkpt><trkpt lat="44.79576569225729" lon="9.797025449801113"><ele>387.0</ele><time>2026-03-28T07:40:37.998Z</time></trkpt><trkpt lat="44.795739452159445" lon="9.796931860037091"><ele>388.0</ele><time>2026-03-28T07:40:39.998Z</time></trkpt><trkpt lat="44.79570965645706" lon="9.796842430571552"><ele>389.0</ele><time>2026-03-28T07:40:41.998Z</time></trkpt><trkpt lat="44.795674496198224" lon="9.796756937484004"><ele>389.99999999999994</ele><time>2026-03-28T07:40:43.998Z</time></trkpt><trkpt lat="44.7956352839435" lon="9.796685555096836"><ele>391.0</ele><time>2026-03-28T07:40:45.998Z</time></trkpt><trkpt lat="44.795579854495266" lon="9.796625705225882"><ele>391.50000000000006</ele><time>2026-03-28T07:40:47.998Z</time></trkpt><trkpt lat="44.79552099000321" lon="9.796580963438647"><ele>392.0</ele><time>2026-03-28T07:40:49.998Z</time></trkpt><trkpt lat="44.79543007261624" lon="9.796534309750491"><ele>392.5</ele><time>2026-03-28T07:40:52.998Z</time></trkpt><trkpt lat="44.795364168888355" lon="9.796517121610893"><ele>393.0</ele><time>2026-03-28T07:40:54.998Z</time></trkpt><trkpt lat="44.79527084486478" lon="9.796488158841631"><ele>393.50000000000006</ele><time>2026-03-28T07:40:57.998Z</time></trkpt><trkpt lat="44.79521334271664" lon="9.796446615293732"><ele>394.0</ele><time>2026-03-28T07:40:59.998Z</time></trkpt><trkpt lat="44.79514275664729" lon="9.796369268201172"><ele>394.1666666666667</ele><time>2026-03-28T07:41:02.998Z</time></trkpt><trkpt lat="44.79508353433202" lon="9.796269768570813"><ele>394.33333333333337</ele><time>2026-03-28T07:41:05.998Z</time></trkpt><trkpt lat="44.79503131255665" lon="9.796163485285254"><ele>394.5</ele><time>2026-03-28T07:41:09Z</time></trkpt><trkpt lat="44.79497883411841" lon="9.796064173747412"><ele>394.66666666666663</ele><time>2026-03-28T07:41:12Z</time></trkpt><trkpt lat="44.794923565170755" lon="9.795969968932313"><ele>394.8333333333333</ele><time>2026-03-28T07:41:15Z</time></trkpt><trkpt lat="44.79486551651515" lon="9.79587481818735"><ele>395.0</ele><time>2026-03-28T07:41:18Z</time></trkpt><trkpt lat="44.794807506661314" lon="9.795783370663933"><ele>397.16666666666663</ele><time>2026-03-28T07:41:21Z</time></trkpt><trkpt lat="44.794749593992165" lon="9.795695940211575"><ele>399.3333333333333</ele><time>2026-03-28T07:41:23.999Z</time></trkpt><trkpt lat="44.79468982999548" lon="9.79561121574571"><ele>401.5</ele><time>2026-03-28T07:41:26.999Z</time></trkpt><trkpt lat="44.79463070750112" lon="9.795528375380004"><ele>403.66666666666663</ele><time>2026-03-28T07:41:29.999Z</time></trkpt><trkpt lat="44.79457782723233" lon="9.795440378740063"><ele>405.8333333333333</ele><time>2026-03-28T07:41:32.999Z</time></trkpt><trkpt lat="44.794526222433596" lon="9.795348282661417"><ele>408.0</ele><time>2026-03-28T07:41:35.999Z</time></trkpt><trkpt lat="44.794478868859045" lon="9.795249833470965"><ele>408.5</ele><time>2026-03-28T07:41:38.999Z</time></trkpt><trkpt lat="44.79443500338934" lon="9.795151363878215"><ele>409.0</ele><time>2026-03-28T07:41:41.999Z</time></trkpt><trkpt lat="44.79439436070795" lon="9.795048579871835"><ele>409.5</ele><time>2026-03-28T07:41:44.999Z</time></trkpt><trkpt lat="44.79435662844343" lon="9.794943711369884"><ele>410.0</ele><time>2026-03-28T07:41:47.999Z</time></trkpt><trkpt lat="44.79432275317378" lon="9.794837776080863"><ele>410.5</ele><time>2026-03-28T07:41:50.999Z</time></trkpt><trkpt lat="44.79427984264013" lon="9.794738480327972"><ele>411.0</ele><time>2026-03-28T07:41:53.999Z</time></trkpt><trkpt lat="44.79423145958742" lon="9.794639832416943"><ele>411.0</ele><time>2026-03-28T07:41:56.999Z</time></trkpt><trkpt lat="44.79418340263618" lon="9.794538089502895"><ele>411.0</ele><time>2026-03-28T07:41:59.999Z</time></trkpt><trkpt lat="44.794133392349934" lon="9.794442528005266"><ele>411.0</ele><time>2026-03-28T07:42:02.999Z</time></trkpt><trkpt lat="44.79408400428815" lon="9.794353610424492"><ele>411.0</ele><time>2026-03-28T07:42:05.999Z</time></trkpt><trkpt lat="44.79402958789362" lon="9.794268537263154"><ele>411.0</ele><time>2026-03-28T07:42:08.999Z</time></trkpt><trkpt lat="44.79397525312016" lon="9.79418078741026"><ele>411.0</ele><time>2026-03-28T07:42:11.999Z</time></trkpt><trkpt lat="44.79391610337564" lon="9.79409761621053"><ele>412.3333333333333</ele><time>2026-03-28T07:42:14.999Z</time></trkpt><trkpt lat="44.79385909796965" lon="9.794014285165819"><ele>413.66666666666663</ele><time>2026-03-28T07:42:17.999Z</time></trkpt><trkpt lat="44.793804743521356" lon="9.793932313555283"><ele>415.0</ele><time>2026-03-28T07:42:20.998Z</time></trkpt><trkpt lat="44.793747296386535" lon="9.793846849035923"><ele>416.3333333333333</ele><time>2026-03-28T07:42:23.998Z</time></trkpt><trkpt lat="44.79369585627572" lon="9.793757752292661"><ele>417.66666666666663</ele><time>2026-03-28T07:42:26.998Z</time></trkpt><trkpt lat="44.79364618147791" lon="9.793662457073454"><ele>419.0</ele><time>2026-03-28T07:42:29.998Z</time></trkpt><trkpt lat="44.793598188175665" lon="9.793564794452786"><ele>419.49999999999994</ele><time>2026-03-28T07:42:32.998Z</time></trkpt><trkpt lat="44.79354708960187" lon="9.793471183009013"><ele>420.0</ele><time>2026-03-28T07:42:35.998Z</time></trkpt><trkpt lat="44.793487052856186" lon="9.793385351612647"><ele>420.5</ele><time>2026-03-28T07:42:38.998Z</time></trkpt><trkpt lat="44.79341322696007" lon="9.79332488585544"><ele>421.0</ele><time>2026-03-28T07:42:41.998Z</time></trkpt><trkpt lat="44.79332755299579" lon="9.793284909725612"><ele>421.49999999999994</ele><time>2026-03-28T07:42:44.998Z</time></trkpt><trkpt lat="44.79323882762598" lon="9.793252885665876"><ele>422.0</ele><time>2026-03-28T07:42:47.998Z</time></trkpt><trkpt lat="44.79316970545999" lon="9.793182316065678"><ele>423.16666666666663</ele><time>2026-03-28T07:42:50.998Z</time></trkpt><trkpt lat="44.7931891962029" lon="9.79307227486471"><ele>424.3333333333333</ele><time>2026-03-28T07:42:53.998Z</time></trkpt><trkpt lat="44.79327274509394" lon="9.793025194029886"><ele>425.5</ele><time>2026-03-28T07:42:56.998Z</time></trkpt><trkpt lat="44.79335436688464" lon="9.792998684697166"><ele>426.66666666666663</ele><time>2026-03-28T07:42:59.998Z</time></trkpt><trkpt lat="44.793427548806164" lon="9.792942120171409"><ele>427.8333333333333</ele><time>2026-03-28T07:43:02.998Z</time></trkpt><trkpt lat="44.793469020897966" lon="9.792843263704926"><ele>429.0</ele><time>2026-03-28T07:43:05.998Z</time></trkpt><trkpt lat="44.79346425087456" lon="9.792718073937966"><ele>430.1666666666667</ele><time>2026-03-28T07:43:08.998Z</time></trkpt><trkpt lat="44.79340235160591" lon="9.792630908876362"><ele>431.33333333333337</ele><time>2026-03-28T07:43:11.998Z</time></trkpt><trkpt lat="44.79331854943025" lon="9.792608503143475"><ele>432.5</ele><time>2026-03-28T07:43:14.999Z</time></trkpt><trkpt lat="44.79322944395784" lon="9.792622902949615"><ele>433.6666666666667</ele><time>2026-03-28T07:43:17.999Z</time></trkpt><trkpt lat="44.79314301069739" lon="9.792651325612422"><ele>434.83333333333337</ele><time>2026-03-28T07:43:20.999Z</time></trkpt><trkpt lat="44.79305567767877" lon="9.792648520664983"><ele>436.0</ele><time>2026-03-28T07:43:24Z</time></trkpt><trkpt lat="44.792977460274486" lon="9.792592503080703"><ele>436.00000000000006</ele><time>2026-03-28T07:43:27Z</time></trkpt><trkpt lat="44.792943986902856" lon="9.792486151694655"><ele>436.0</ele><time>2026-03-28T07:43:29.999Z</time></trkpt><trkpt lat="44.792966000927215" lon="9.792373120910481"><ele>436.0</ele><time>2026-03-28T07:43:32.999Z</time></trkpt><trkpt lat="44.79301684113277" lon="9.792276166779189"><ele>436.0</ele><time>2026-03-28T07:43:35.999Z</time></trkpt><trkpt lat="44.793075944800734" lon="9.79218197934134"><ele>436.00000000000006</ele><time>2026-03-28T07:43:38.999Z</time></trkpt><trkpt lat="44.7931365818287" lon="9.792095812373052"><ele>436.0</ele><time>2026-03-28T07:43:41.999Z</time></trkpt><trkpt lat="44.793192986784916" lon="9.791994917555858"><ele>436.0</ele><time>2026-03-28T07:43:44.999Z</time></trkpt><trkpt lat="44.7932372059865" lon="9.791887202986375"><ele>436.0</ele><time>2026-03-28T07:43:47.999Z</time></trkpt><trkpt lat="44.79325774058357" lon="9.791799016256789"><ele>436.0</ele><time>2026-03-28T07:43:49.999Z</time></trkpt><trkpt lat="44.79327315644114" lon="9.79170484559037"><ele>436.0</ele><time>2026-03-28T07:43:51.999Z</time></trkpt><trkpt lat="44.79327759177264" lon="9.791615030226483"><ele>436.0</ele><time>2026-03-28T07:43:53.999Z</time></trkpt><trkpt lat="44.7932815282876" lon="9.791519701279285"><ele>436.0</ele><time>2026-03-28T07:43:55.999Z</time></trkpt><trkpt lat="44.793288467758956" lon="9.791392259584244"><ele>436.0</ele><time>2026-03-28T07:43:58.999Z</time></trkpt><trkpt lat="44.793276076485526" lon="9.791260183945395"><ele>436.1666666666667</ele><time>2026-03-28T07:44:01.999Z</time></trkpt><trkpt lat="44.79326284850638" lon="9.791134250364228"><ele>436.33333333333337</ele><time>2026-03-28T07:44:04.999Z</time></trkpt><trkpt lat="44.793209536545675" lon="9.79103419296869"><ele>436.5</ele><time>2026-03-28T07:44:07.999Z</time></trkpt><trkpt lat="44.79312555168734" lon="9.791015377650233"><ele>436.66666666666663</ele><time>2026-03-28T07:44:10.999Z</time></trkpt><trkpt lat="44.79304781165967" lon="9.791048511249727"><ele>436.8333333333333</ele><time>2026-03-28T07:44:13.999Z</time></trkpt><trkpt lat="44.792992782141944" lon="9.7911440238128"><ele>437.0</ele><time>2026-03-28T07:44:16.999Z</time></trkpt><trkpt lat="44.79294842849176" lon="9.791253223579071"><ele>437.0</ele><time>2026-03-28T07:44:19.999Z</time></trkpt><trkpt lat="44.79289330797869" lon="9.791349761562275"><ele>437.00000000000006</ele><time>2026-03-28T07:44:22.999Z</time></trkpt><trkpt lat="44.792824796447405" lon="9.791431854875112"><ele>437.00000000000006</ele><time>2026-03-28T07:44:25.998Z</time></trkpt><trkpt lat="44.79274262318242" lon="9.791487332167538"><ele>437.0</ele><time>2026-03-28T07:44:28.998Z</time></trkpt><trkpt lat="44.79265331360884" lon="9.79151646462048"><ele>437.0</ele><time>2026-03-28T07:44:31.998Z</time></trkpt><trkpt lat="44.792565676812416" lon="9.791477545163843"><ele>438.3333333333333</ele><time>2026-03-28T07:44:34.998Z</time></trkpt><trkpt lat="44.792509611577195" lon="9.791375495472321"><ele>439.66666666666663</ele><time>2026-03-28T07:44:37.998Z</time></trkpt><trkpt lat="44.792497423920345" lon="9.791249578180873"><ele>441.0</ele><time>2026-03-28T07:44:40.998Z</time></trkpt><trkpt lat="44.79251604617237" lon="9.791160823956574"><ele>442.33333333333337</ele><time>2026-03-28T07:44:42.998Z</time></trkpt><trkpt lat="44.79253885122063" lon="9.791068846602192"><ele>443.6666666666667</ele><time>2026-03-28T07:44:44.998Z</time></trkpt><trkpt lat="44.79256704749315" lon="9.790978674821458"><ele>445.0</ele><time>2026-03-28T07:44:46.998Z</time></trkpt><trkpt lat="44.792599536697836" lon="9.790885816068261"><ele>444.5714285714286</ele><time>2026-03-28T07:44:48.998Z</time></trkpt><trkpt lat="44.79263668176082" lon="9.790800388971313"><ele>444.1428571428571</ele><time>2026-03-28T07:44:50.998Z</time></trkpt><trkpt lat="44.79266756972268" lon="9.790699949106843"><ele>443.7142857142857</ele><time>2026-03-28T07:44:52.998Z</time></trkpt><trkpt lat="44.7926950899568" lon="9.790601817547476"><ele>443.28571428571433</ele><time>2026-03-28T07:44:54.998Z</time></trkpt><trkpt lat="44.79270035281726" lon="9.790497621756597"><ele>442.8571428571429</ele><time>2026-03-28T07:44:56.998Z</time></trkpt><trkpt lat="44.79268651853522" lon="9.790391765525975"><ele>442.42857142857144</ele><time>2026-03-28T07:44:58.998Z</time></trkpt><trkpt lat="44.79263645966187" lon="9.790329177534147"><ele>442.0</ele><time>2026-03-28T07:45:00.998Z</time></trkpt><trkpt lat="44.79256493710439" lon="9.790319073861976"><ele>444.0</ele><time>2026-03-28T07:45:02.998Z</time></trkpt><trkpt lat="44.7925042630338" lon="9.790356611159197"><ele>446.0</ele><time>2026-03-28T07:45:04.998Z</time></trkpt><trkpt lat="44.792449815019644" lon="9.790413993596452"><ele>448.0</ele><time>2026-03-28T07:45:06.998Z</time></trkpt><trkpt lat="44.79239740518341" lon="9.790478868550295"><ele>450.0</ele><time>2026-03-28T07:45:08.998Z</time></trkpt><trkpt lat="44.7923487520685" lon="9.790544635882654"><ele>451.99999999999994</ele><time>2026-03-28T07:45:10.998Z</time></trkpt><trkpt lat="44.79229493938469" lon="9.790598065132706"><ele>454.0</ele><time>2026-03-28T07:45:12.998Z</time></trkpt><trkpt lat="44.79224107612161" lon="9.790649160783937"><ele>456.0</ele><time>2026-03-28T07:45:14.998Z</time></trkpt><trkpt lat="44.79217753655343" lon="9.790661534611306"><ele>456.0</ele><time>2026-03-28T07:45:16.998Z</time></trkpt><trkpt lat="44.79211846336601" lon="9.790630081928224"><ele>455.99999999999994</ele><time>2026-03-28T07:45:18.998Z</time></trkpt><trkpt lat="44.792099604048765" lon="9.790539760752111"><ele>456.0</ele><time>2026-03-28T07:45:21Z</time></trkpt><trkpt lat="44.79212807954563" lon="9.790457542392204"><ele>456.0</ele><time>2026-03-28T07:45:23Z</time></trkpt><trkpt lat="44.792177193527806" lon="9.790397604523461"><ele>455.99999999999994</ele><time>2026-03-28T07:45:24.999Z</time></trkpt><trkpt lat="44.79224037950691" lon="9.790305398744382"><ele>456.0</ele><time>2026-03-28T07:45:27.999Z</time></trkpt><trkpt lat="44.79229553908653" lon="9.79020349546076"><ele>456.0</ele><time>2026-03-28T07:45:30.999Z</time></trkpt><trkpt lat="44.79229729597099" lon="9.790083186630923"><ele>456.0</ele><time>2026-03-28T07:45:33.999Z</time></trkpt><trkpt lat="44.792237758075174" lon="9.79000453462818"><ele>456.0</ele><time>2026-03-28T07:45:36.999Z</time></trkpt><trkpt lat="44.79215756751009" lon="9.790006242685116"><ele>456.0</ele><time>2026-03-28T07:45:39.999Z</time></trkpt><trkpt lat="44.79207409413746" lon="9.790062267749557"><ele>456.0</ele><time>2026-03-28T07:45:42.999Z</time></trkpt><trkpt lat="44.79202239694975" lon="9.79011373079746"><ele>456.0</ele><time>2026-03-28T07:45:44.999Z</time></trkpt><trkpt lat="44.79196242581685" lon="9.790156364093484"><ele>456.0</ele><time>2026-03-28T07:45:46.999Z</time></trkpt><trkpt lat="44.79187777989927" lon="9.790224650123319"><ele>456.1666666666667</ele><time>2026-03-28T07:45:49.999Z</time></trkpt><trkpt lat="44.79179228702336" lon="9.790270498538325"><ele>456.33333333333337</ele><time>2026-03-28T07:45:52.999Z</time></trkpt><trkpt lat="44.791699857437465" lon="9.790254334566992"><ele>456.5</ele><time>2026-03-28T07:45:55.999Z</time></trkpt><trkpt lat="44.79166922778358" lon="9.790144418198041"><ele>456.6666666666667</ele><time>2026-03-28T07:45:58.999Z</time></trkpt><trkpt lat="44.79170563631517" lon="9.790067562660667"><ele>456.83333333333337</ele><time>2026-03-28T07:46:00.999Z</time></trkpt><trkpt lat="44.79175505378488" lon="9.790009224129216"><ele>457.0</ele><time>2026-03-28T07:46:02.999Z</time></trkpt><trkpt lat="44.79182140236408" lon="9.789922035369196"><ele>457.57142857142867</ele><time>2026-03-28T07:46:05.999Z</time></trkpt><trkpt lat="44.791874628747784" lon="9.789816350997464"><ele>458.14285714285717</ele><time>2026-03-28T07:46:08.999Z</time></trkpt><trkpt lat="44.79188740193842" lon="9.789691203311524"><ele>458.7142857142858</ele><time>2026-03-28T07:46:11.999Z</time></trkpt><trkpt lat="44.791854348341225" lon="9.789610751680334"><ele>459.28571428571433</ele><time>2026-03-28T07:46:13.999Z</time></trkpt><trkpt lat="44.79181180511008" lon="9.78954234185647"><ele>459.8571428571429</ele><time>2026-03-28T07:46:15.999Z</time></trkpt><trkpt lat="44.79175365007589" lon="9.78948452038424"><ele>460.42857142857144</ele><time>2026-03-28T07:46:17.999Z</time></trkpt><trkpt lat="44.79169992545261" lon="9.789431869122799"><ele>461.0</ele><time>2026-03-28T07:46:19.999Z</time></trkpt><trkpt lat="44.79162978121979" lon="9.789348254448003"><ele>462.66666666666663</ele><time>2026-03-28T07:46:22.999Z</time></trkpt><trkpt lat="44.791582691669646" lon="9.789241647324976"><ele>464.3333333333333</ele><time>2026-03-28T07:46:25.999Z</time></trkpt><trkpt lat="44.79154976322559" lon="9.789126053196057"><ele>466.0</ele><time>2026-03-28T07:46:28.999Z</time></trkpt><trkpt lat="44.79152216638625" lon="9.789011338331662"><ele>467.66666666666663</ele><time>2026-03-28T07:46:31.998Z</time></trkpt><trkpt lat="44.79149390748563" lon="9.788898032627042"><ele>469.3333333333333</ele><time>2026-03-28T07:46:34.998Z</time></trkpt><trkpt lat="44.791447773568265" lon="9.788797454811984"><ele>471.0</ele><time>2026-03-28T07:46:37.998Z</time></trkpt><trkpt lat="44.79136613225735" lon="9.788752110289124"><ele>471.0</ele><time>2026-03-28T07:46:40.998Z</time></trkpt><trkpt lat="44.79128968152337" lon="9.788791165657356"><ele>471.0</ele><time>2026-03-28T07:46:43.998Z</time></trkpt><trkpt lat="44.79123075515897" lon="9.788875649810926"><ele>471.0</ele><time>2026-03-28T07:46:46.998Z</time></trkpt><trkpt lat="44.79118776793912" lon="9.788974267908609"><ele>471.0</ele><time>2026-03-28T07:46:49.998Z</time></trkpt><trkpt lat="44.7911346704929" lon="9.789067708778196"><ele>471.0</ele><time>2026-03-28T07:46:52.998Z</time></trkpt><trkpt lat="44.79105280628289" lon="9.78911156348898"><ele>471.0</ele><time>2026-03-28T07:46:55.998Z</time></trkpt><trkpt lat="44.790979366063176" lon="9.789053893133095"><ele>473.1666666666667</ele><time>2026-03-28T07:46:59.998Z</time></trkpt><trkpt lat="44.79093546097289" lon="9.788988544014073"><ele>475.33333333333337</ele><time>2026-03-28T07:47:01.998Z</time></trkpt><trkpt lat="44.79089328596367" lon="9.788904141456813"><ele>477.5</ele><time>2026-03-28T07:47:03.998Z</time></trkpt><trkpt lat="44.79084157515999" lon="9.788801628471097"><ele>479.6666666666667</ele><time>2026-03-28T07:47:06.998Z</time></trkpt><trkpt lat="44.790785350678114" lon="9.788704796865629"><ele>481.83333333333337</ele><time>2026-03-28T07:47:09.998Z</time></trkpt><trkpt lat="44.79073156626123" lon="9.788609510313995"><ele>484.0</ele><time>2026-03-28T07:47:12.998Z</time></trkpt><trkpt lat="44.79067516297209" lon="9.78851232533821"><ele>484.33333333333337</ele><time>2026-03-28T07:47:15.998Z</time></trkpt><trkpt lat="44.79061394487778" lon="9.788414673099291"><ele>484.6666666666667</ele><time>2026-03-28T07:47:18.998Z</time></trkpt><trkpt lat="44.79055716362301" lon="9.788318952720502"><ele>485.0</ele><time>2026-03-28T07:47:21.998Z</time></trkpt><trkpt lat="44.79049399408633" lon="9.78821733874279"><ele>485.33333333333337</ele><time>2026-03-28T07:47:24.998Z</time></trkpt><trkpt lat="44.7904346028247" lon="9.788117339244376"><ele>485.6666666666667</ele><time>2026-03-28T07:47:28Z</time></trkpt><trkpt lat="44.79039261685432" lon="9.788050626895558"><ele>486.0</ele><time>2026-03-28T07:47:30Z</time></trkpt><trkpt lat="44.7903325673196" lon="9.787951009281933"><ele>486.0</ele><time>2026-03-28T07:47:33Z</time></trkpt><trkpt lat="44.79027951989482" lon="9.787863991222691"><ele>486.0</ele><time>2026-03-28T07:47:36Z</time></trkpt><trkpt lat="44.79022132269707" lon="9.787766111719101"><ele>486.0</ele><time>2026-03-28T07:47:39Z</time></trkpt><trkpt lat="44.79017805339757" lon="9.78769035745407"><ele>486.0</ele><time>2026-03-28T07:47:40.999Z</time></trkpt><trkpt lat="44.790124260597956" lon="9.787581130063199"><ele>486.0</ele><time>2026-03-28T07:47:43.999Z</time></trkpt><trkpt lat="44.79008402650169" lon="9.787464189880726"><ele>486.0</ele><time>2026-03-28T07:47:46.999Z</time></trkpt><trkpt lat="44.790086572175106" lon="9.787372734302265"><ele>486.0</ele><time>2026-03-28T07:47:48.999Z</time></trkpt><trkpt lat="44.79010503591523" lon="9.787287352046027"><ele>486.0</ele><time>2026-03-28T07:47:50.999Z</time></trkpt><trkpt lat="44.79013530275908" lon="9.787205441546169"><ele>486.0</ele><time>2026-03-28T07:47:52.999Z</time></trkpt><trkpt lat="44.79017355025771" lon="9.787129049297832"><ele>486.0</ele><time>2026-03-28T07:47:54.999Z</time></trkpt><trkpt lat="44.79021010854215" lon="9.787052086879612"><ele>486.0</ele><time>2026-03-28T07:47:56.999Z</time></trkpt><trkpt lat="44.790254228860974" lon="9.786980561937732"><ele>486.0</ele><time>2026-03-28T07:47:58.999Z</time></trkpt><trkpt lat="44.790293164637795" lon="9.78690066295883"><ele>486.0</ele><time>2026-03-28T07:48:00.999Z</time></trkpt><trkpt lat="44.79033269488464" lon="9.786817430039546"><ele>486.6666666666667</ele><time>2026-03-28T07:48:02.999Z</time></trkpt><trkpt lat="44.79037382191081" lon="9.786743305387283"><ele>487.33333333333337</ele><time>2026-03-28T07:48:04.999Z</time></trkpt><trkpt lat="44.79040855441401" lon="9.786668790916384"><ele>488.0</ele><time>2026-03-28T07:48:06.999Z</time></trkpt><trkpt lat="44.79044990056168" lon="9.786597547548544"><ele>488.6666666666667</ele><time>2026-03-28T07:48:08.999Z</time></trkpt><trkpt lat="44.79049880847597" lon="9.786488760758822"><ele>489.33333333333337</ele><time>2026-03-28T07:48:11.999Z</time></trkpt><trkpt lat="44.79054045376778" lon="9.786373869672348"><ele>490.0</ele><time>2026-03-28T07:48:14.999Z</time></trkpt><trkpt lat="44.79053378874338" lon="9.786255367626408"><ele>490.00000000000006</ele><time>2026-03-28T07:48:17.999Z</time></trkpt><trkpt lat="44.79046330466977" lon="9.78618366830436"><ele>490.0</ele><time>2026-03-28T07:48:20.999Z</time></trkpt><trkpt lat="44.79037795828926" lon="9.786175018726178"><ele>490.0</ele><time>2026-03-28T07:48:23.999Z</time></trkpt><trkpt lat="44.79028875736977" lon="9.786200949275974"><ele>490.0</ele><time>2026-03-28T07:48:26.999Z</time></trkpt><trkpt lat="44.79019657793822" lon="9.786231615631518"><ele>490.00000000000006</ele><time>2026-03-28T07:48:29.999Z</time></trkpt><trkpt lat="44.790132415421276" lon="9.786255851926597"><ele>490.0</ele><time>2026-03-28T07:48:31.999Z</time></trkpt><trkpt lat="44.790044341675085" lon="9.786288235290902"><ele>491.1666666666667</ele><time>2026-03-28T07:48:34.999Z</time></trkpt><trkpt lat="44.78995250367666" lon="9.786316921434384"><ele>492.33333333333337</ele><time>2026-03-28T07:48:37.998Z</time></trkpt><trkpt lat="44.78986233859247" lon="9.786336236353403"><ele>493.5</ele><time>2026-03-28T07:48:40.998Z</time></trkpt><trkpt lat="44.78977258906744" lon="9.786323914945813"><ele>494.66666666666663</ele><time>2026-03-28T07:48:43.998Z</time></trkpt><trkpt lat="44.78970657579709" lon="9.786259015095853"><ele>495.8333333333333</ele><time>2026-03-28T07:48:46.998Z</time></trkpt><trkpt lat="44.78967511444309" lon="9.78615359538364"><ele>497.0</ele><time>2026-03-28T07:48:49.998Z</time></trkpt><trkpt lat="44.78970012041434" lon="9.786043141247534"><ele>498.66666666666663</ele><time>2026-03-28T07:48:52.998Z</time></trkpt><trkpt lat="44.78975576550661" lon="9.785958242069583"><ele>500.3333333333333</ele><time>2026-03-28T07:48:55.998Z</time></trkpt><trkpt lat="44.789829566103236" lon="9.785897135411883"><ele>502.0</ele><time>2026-03-28T07:48:58.998Z</time></trkpt><trkpt lat="44.78990753536367" lon="9.785841147176434"><ele>503.66666666666663</ele><time>2026-03-28T07:49:01.998Z</time></trkpt><trkpt lat="44.78998570027065" lon="9.785785248750654"><ele>505.3333333333333</ele><time>2026-03-28T07:49:04.998Z</time></trkpt><trkpt lat="44.790056449407494" lon="9.78571083447715"><ele>507.0</ele><time>2026-03-28T07:49:07.998Z</time></trkpt><trkpt lat="44.79010080846416" lon="9.785639889528104"><ele>507.0</ele><time>2026-03-28T07:49:09.998Z</time></trkpt><trkpt lat="44.79012884929974" lon="9.785559266259993"><ele>507.0</ele><time>2026-03-28T07:49:11.998Z</time></trkpt><trkpt lat="44.790144276298726" lon="9.78546908961607"><ele>507.0</ele><time>2026-03-28T07:49:13.998Z</time></trkpt><trkpt lat="44.790142350335564" lon="9.785374630271356"><ele>507.0</ele><time>2026-03-28T07:49:15.998Z</time></trkpt><trkpt lat="44.79013062186943" lon="9.785278168332425"><ele>507.0</ele><time>2026-03-28T07:49:17.998Z</time></trkpt><trkpt lat="44.79011821483948" lon="9.785188022203776"><ele>507.0</ele><time>2026-03-28T07:49:19.998Z</time></trkpt><trkpt lat="44.7900817727149" lon="9.785071599471378"><ele>507.0</ele><time>2026-03-28T07:49:22.998Z</time></trkpt><trkpt lat="44.790032558023036" lon="9.784980303267076"><ele>507.0</ele><time>2026-03-28T07:49:25.998Z</time></trkpt><trkpt lat="44.78996439299024" lon="9.784911574453208"><ele>507.0</ele><time>2026-03-28T07:49:28.998Z</time></trkpt><trkpt lat="44.78988090960501" lon="9.784900673066812"><ele>507.0</ele><time>2026-03-28T07:49:32Z</time></trkpt><trkpt lat="44.78980446434742" lon="9.784941154537965"><ele>507.0</ele><time>2026-03-28T07:49:35Z</time></trkpt><trkpt lat="44.789738837651825" lon="9.785017835947285"><ele>507.0</ele><time>2026-03-28T07:49:38Z</time></trkpt><trkpt lat="44.789688361665334" lon="9.785118006479571"><ele>507.0</ele><time>2026-03-28T07:49:41Z</time></trkpt><trkpt lat="44.78964655096872" lon="9.785230166615627"><ele>507.0</ele><time>2026-03-28T07:49:44Z</time></trkpt><trkpt lat="44.7896069428222" lon="9.785349117446456"><ele>507.0</ele><time>2026-03-28T07:49:46.999Z</time></trkpt><trkpt lat="44.78956710182292" lon="9.785421558482199"><ele>507.0</ele><time>2026-03-28T07:49:48.999Z</time></trkpt><trkpt lat="44.78951821473394" lon="9.78547913745758"><ele>507.0</ele><time>2026-03-28T07:49:50.999Z</time></trkpt><trkpt lat="44.78942899371987" lon="9.785512909623177"><ele>507.0</ele><time>2026-03-28T07:49:53.999Z</time></trkpt><trkpt lat="44.78935040751106" lon="9.785462634961208"><ele>507.0</ele><time>2026-03-28T07:49:56.999Z</time></trkpt><trkpt lat="44.789338699675525" lon="9.785350653013326"><ele>507.0</ele><time>2026-03-28T07:49:59.999Z</time></trkpt><trkpt lat="44.78935708531219" lon="9.785244744082348"><ele>507.0</ele><time>2026-03-28T07:50:02.999Z</time></trkpt><trkpt lat="44.789341990827374" lon="9.785133186482827"><ele>507.0</ele><time>2026-03-28T07:50:05.999Z</time></trkpt><trkpt lat="44.78927342264611" lon="9.785068370074887"><ele>507.0</ele><time>2026-03-28T07:50:08.999Z</time></trkpt><trkpt lat="44.78918616757099" lon="9.785062628452629"><ele>507.0</ele><time>2026-03-28T07:50:11.999Z</time></trkpt><trkpt lat="44.78909254934199" lon="9.785067685704623"><ele>507.0</ele><time>2026-03-28T07:50:14.999Z</time></trkpt><trkpt lat="44.78902989617754" lon="9.785081012471988"><ele>509.6666666666667</ele><time>2026-03-28T07:50:16.999Z</time></trkpt><trkpt lat="44.78896704301926" lon="9.785089794501637"><ele>512.3333333333334</ele><time>2026-03-28T07:50:18.999Z</time></trkpt><trkpt lat="44.78887660368988" lon="9.785079474058904"><ele>515.0</ele><time>2026-03-28T07:50:21.999Z</time></trkpt><trkpt lat="44.78879712574467" lon="9.78502680126682"><ele>517.6666666666667</ele><time>2026-03-28T07:50:24.999Z</time></trkpt><trkpt lat="44.78874737446842" lon="9.784933992699287"><ele>520.3333333333334</ele><time>2026-03-28T07:50:27.999Z</time></trkpt><trkpt lat="44.788752093503696" lon="9.784818511424406"><ele>523.0</ele><time>2026-03-28T07:50:30.999Z</time></trkpt><trkpt lat="44.78876595636453" lon="9.784709182894403"><ele>523.0</ele><time>2026-03-28T07:50:33.999Z</time></trkpt><trkpt lat="44.78873741420662" lon="9.784604546742287"><ele>523.0</ele><time>2026-03-28T07:50:36.999Z</time></trkpt><trkpt lat="44.78865776131133" lon="9.784562954682608"><ele>523.0</ele><time>2026-03-28T07:50:39.999Z</time></trkpt><trkpt lat="44.788573872112195" lon="9.78456134297578"><ele>523.0</ele><time>2026-03-28T07:50:42.999Z</time></trkpt><trkpt lat="44.78848388381583" lon="9.78455006777584"><ele>523.0</ele><time>2026-03-28T07:50:45.999Z</time></trkpt><trkpt lat="44.78840559470913" lon="9.784496674016522"><ele>523.0</ele><time>2026-03-28T07:50:48.999Z</time></trkpt><trkpt lat="44.788340490499806" lon="9.784419321196452"><ele>524.6666666666667</ele><time>2026-03-28T07:50:51.999Z</time></trkpt><trkpt lat="44.788279347665195" lon="9.784342296513968"><ele>526.3333333333334</ele><time>2026-03-28T07:50:54.999Z</time></trkpt><trkpt lat="44.788222991058966" lon="9.784254017103224"><ele>528.0</ele><time>2026-03-28T07:50:57.999Z</time></trkpt><trkpt lat="44.78815893861465" lon="9.784180994191152"><ele>529.6666666666666</ele><time>2026-03-28T07:51:00.999Z</time></trkpt><trkpt lat="44.788100091713645" lon="9.784102721856305"><ele>531.3333333333333</ele><time>2026-03-28T07:51:03.999Z</time></trkpt><trkpt lat="44.788040528938" lon="9.78402367134498"><ele>533.0</ele><time>2026-03-28T07:51:06.999Z</time></trkpt><trkpt lat="44.78797979823804" lon="9.78394504997124"><ele>533.0</ele><time>2026-03-28T07:51:09.999Z</time></trkpt><trkpt lat="44.78792435514366" lon="9.783855622483836"><ele>533.0</ele><time>2026-03-28T07:51:12.999Z</time></trkpt><trkpt lat="44.78786704816949" lon="9.783768137098996"><ele>533.0</ele><time>2026-03-28T07:51:15.999Z</time></trkpt><trkpt lat="44.787813381951054" lon="9.78367448961832"><ele>533.0</ele><time>2026-03-28T07:51:18.999Z</time></trkpt><trkpt lat="44.78776787149197" lon="9.783575262224362"><ele>533.0</ele><time>2026-03-28T07:51:21.999Z</time></trkpt><trkpt lat="44.78771754135402" lon="9.783475453586655"><ele>533.0</ele><time>2026-03-28T07:51:24.999Z</time></trkpt><trkpt lat="44.78766576994427" lon="9.783377984728318"><ele>533.8333333333333</ele><time>2026-03-28T07:51:27.999Z</time></trkpt><trkpt lat="44.7876171714456" lon="9.783281587523234"><ele>534.6666666666666</ele><time>2026-03-28T07:51:30.999Z</time></trkpt><trkpt lat="44.78757148667206" lon="9.783180373179205"><ele>535.5</ele><time>2026-03-28T07:51:33.999Z</time></trkpt><trkpt lat="44.78751117479933" lon="9.783079606752224"><ele>536.3333333333334</ele><time>2026-03-28T07:51:36.998Z</time></trkpt><trkpt lat="44.787446942809645" lon="9.782985812908768"><ele>537.1666666666667</ele><time>2026-03-28T07:51:40Z</time></trkpt><trkpt lat="44.78739388119617" lon="9.782928488880792"><ele>538.0</ele><time>2026-03-28T07:51:42Z</time></trkpt><trkpt lat="44.78733609030273" lon="9.782877058884248"><ele>538.0</ele><time>2026-03-28T07:51:44Z</time></trkpt><trkpt lat="44.78727411849276" lon="9.782827332261654"><ele>538.0</ele><time>2026-03-28T07:51:46Z</time></trkpt><trkpt lat="44.78720925881172" lon="9.782767401441168"><ele>538.0</ele><time>2026-03-28T07:51:48Z</time></trkpt><trkpt lat="44.78714093255945" lon="9.782711676961034"><ele>538.0</ele><time>2026-03-28T07:51:50Z</time></trkpt><trkpt lat="44.78706956566987" lon="9.782654092937596"><ele>538.0</ele><time>2026-03-28T07:51:52Z</time></trkpt><trkpt lat="44.786999091973605" lon="9.782595159643728"><ele>538.0</ele><time>2026-03-28T07:51:54Z</time></trkpt><trkpt lat="44.786923084264885" lon="9.782537516530132"><ele>538.6</ele><time>2026-03-28T07:51:56Z</time></trkpt><trkpt lat="44.78684627010144" lon="9.782479406072447"><ele>539.1999999999999</ele><time>2026-03-28T07:51:58Z</time></trkpt><trkpt lat="44.786769135869385" lon="9.78241780896713"><ele>539.8</ele><time>2026-03-28T07:52:00Z</time></trkpt><trkpt lat="44.78668671330631" lon="9.782358117188112"><ele>540.4</ele><time>2026-03-28T07:52:02Z</time></trkpt><trkpt lat="44.786609650857415" lon="9.782293492618514"><ele>541.0</ele><time>2026-03-28T07:52:04Z</time></trkpt><trkpt lat="44.78652882453032" lon="9.782229001652027"><ele>541.0</ele><time>2026-03-28T07:52:06Z</time></trkpt><trkpt lat="44.78644706618857" lon="9.782163310136793"><ele>541.0</ele><time>2026-03-28T07:52:08Z</time></trkpt><trkpt lat="44.786364588011736" lon="9.782105744184896"><ele>541.0</ele><time>2026-03-28T07:52:10Z</time></trkpt><trkpt lat="44.786281827946645" lon="9.782035977754827"><ele>541.0</ele><time>2026-03-28T07:52:12Z</time></trkpt><trkpt lat="44.78619877798429" lon="9.78197039595385"><ele>541.0</ele><time>2026-03-28T07:52:14Z</time></trkpt><trkpt lat="44.7861160291277" lon="9.781908798801588"><ele>540.1666666666667</ele><time>2026-03-28T07:52:16Z</time></trkpt><trkpt lat="44.78603454240385" lon="9.78184520121357"><ele>539.3333333333334</ele><time>2026-03-28T07:52:18Z</time></trkpt><trkpt lat="44.78595412957094" lon="9.781785807459718"><ele>538.5</ele><time>2026-03-28T07:52:20Z</time></trkpt><trkpt lat="44.78588070842894" lon="9.78172000236486"><ele>537.6666666666666</ele><time>2026-03-28T07:52:22Z</time></trkpt><trkpt lat="44.78580801122096" lon="9.781655783095763"><ele>536.8333333333333</ele><time>2026-03-28T07:52:24Z</time></trkpt><trkpt lat="44.78575084103774" lon="9.781578704444868"><ele>536.0</ele><time>2026-03-28T07:52:26Z</time></trkpt><trkpt lat="44.7857045569683" lon="9.781489027312617"><ele>537.5</ele><time>2026-03-28T07:52:28Z</time></trkpt><trkpt lat="44.785676346997306" lon="9.78139639573806"><ele>539.0</ele><time>2026-03-28T07:52:30Z</time></trkpt><trkpt lat="44.785657585659834" lon="9.78129850302437"><ele>540.5</ele><time>2026-03-28T07:52:32Z</time></trkpt><trkpt lat="44.78564789008681" lon="9.781206592134412"><ele>542.0</ele><time>2026-03-28T07:52:34Z</time></trkpt><trkpt lat="44.78564242362346" lon="9.781116767292128"><ele>543.5</ele><time>2026-03-28T07:52:36Z</time></trkpt><trkpt lat="44.78562453015403" lon="9.780987095282029"><ele>545.0</ele><time>2026-03-28T07:52:39Z</time></trkpt><trkpt lat="44.78560945504307" lon="9.780867840914746"><ele>545.0</ele><time>2026-03-28T07:52:42Z</time></trkpt><trkpt lat="44.785567089544124" lon="9.780766966836596"><ele>545.0</ele><time>2026-03-28T07:52:45Z</time></trkpt><trkpt lat="44.78549279267808" lon="9.780734646539297"><ele>545.0</ele><time>2026-03-28T07:52:47.999Z</time></trkpt><trkpt lat="44.78542030895726" lon="9.780794013871196"><ele>545.0</ele><time>2026-03-28T07:52:50.999Z</time></trkpt><trkpt lat="44.78538047577113" lon="9.780906905968873"><ele>545.0</ele><time>2026-03-28T07:52:53.999Z</time></trkpt><trkpt lat="44.78535932714375" lon="9.780990525548711"><ele>545.0</ele><time>2026-03-28T07:52:55.999Z</time></trkpt><trkpt lat="44.78534004614806" lon="9.781078329596689"><ele>545.1428571428571</ele><time>2026-03-28T07:52:57.999Z</time></trkpt><trkpt lat="44.785306122414056" lon="9.781159417168926"><ele>545.2857142857143</ele><time>2026-03-28T07:52:59.999Z</time></trkpt><trkpt lat="44.78525696427511" lon="9.781224801553407"><ele>545.4285714285714</ele><time>2026-03-28T07:53:01.999Z</time></trkpt><trkpt lat="44.785189312100314" lon="9.781248686327405"><ele>545.5714285714286</ele><time>2026-03-28T07:53:03.999Z</time></trkpt><trkpt lat="44.785121036086494" lon="9.781231301448571"><ele>545.7142857142858</ele><time>2026-03-28T07:53:05.999Z</time></trkpt><trkpt lat="44.78505785069015" lon="9.781201108628919"><ele>545.8571428571429</ele><time>2026-03-28T07:53:07.999Z</time></trkpt><trkpt lat="44.7849946930839" lon="9.78116970899403"><ele>546.0</ele><time>2026-03-28T07:53:09.999Z</time></trkpt><trkpt lat="44.78490582523933" lon="9.781131006346738"><ele>547.0</ele><time>2026-03-28T07:53:12.999Z</time></trkpt><trkpt lat="44.78481858150766" lon="9.781104668062001"><ele>548.0</ele><time>2026-03-28T07:53:15.999Z</time></trkpt><trkpt lat="44.78473081649397" lon="9.781101746397168"><ele>549.0</ele><time>2026-03-28T07:53:18.999Z</time></trkpt><trkpt lat="44.784634602161276" lon="9.78110048459547"><ele>550.0</ele><time>2026-03-28T07:53:21.999Z</time></trkpt><trkpt lat="44.78456030153597" lon="9.781102654109105"><ele>551.0</ele><time>2026-03-28T07:53:24.999Z</time></trkpt><trkpt lat="44.78449199588839" lon="9.781106237948137"><ele>552.0</ele><time>2026-03-28T07:53:27.999Z</time></trkpt><trkpt lat="44.7844062234378" lon="9.7811015230884"><ele>551.5</ele><time>2026-03-28T07:53:30.999Z</time></trkpt><trkpt lat="44.784332590276335" lon="9.781082659055892"><ele>551.0</ele><time>2026-03-28T07:53:32.999Z</time></trkpt><trkpt lat="44.784248285747815" lon="9.781033072174324"><ele>550.5</ele><time>2026-03-28T07:53:35.999Z</time></trkpt><trkpt lat="44.784202457366646" lon="9.780954840623748"><ele>550.0</ele><time>2026-03-28T07:53:37.999Z</time></trkpt><trkpt lat="44.78424214567236" lon="9.780856173818957"><ele>549.5</ele><time>2026-03-28T07:53:41.998Z</time></trkpt><trkpt lat="44.78431302375776" lon="9.780848895924903"><ele>549.0</ele><time>2026-03-28T07:53:44Z</time></trkpt><trkpt lat="44.78439823177078" lon="9.780870362349335"><ele>550.8333333333334</ele><time>2026-03-28T07:53:47Z</time></trkpt><trkpt lat="44.784488405080836" lon="9.780860280973675"><ele>552.6666666666666</ele><time>2026-03-28T07:53:50Z</time></trkpt><trkpt lat="44.78456273749401" lon="9.78083087549449"><ele>554.5</ele><time>2026-03-28T07:53:52Z</time></trkpt><trkpt lat="44.78463036242998" lon="9.780789853130536"><ele>556.3333333333333</ele><time>2026-03-28T07:53:54Z</time></trkpt><trkpt lat="44.784701331042555" lon="9.780730855109312"><ele>558.1666666666666</ele><time>2026-03-28T07:53:56Z</time></trkpt><trkpt lat="44.7847648301491" lon="9.780656983023517"><ele>560.0</ele><time>2026-03-28T07:53:58Z</time></trkpt><trkpt lat="44.78480369772336" lon="9.780555137368944"><ele>560.0</ele><time>2026-03-28T07:54:00Z</time></trkpt><trkpt lat="44.78480761750486" lon="9.780440258753675"><ele>560.0</ele><time>2026-03-28T07:54:02Z</time></trkpt><trkpt lat="44.78478547626832" lon="9.780313584334484"><ele>560.0</ele><time>2026-03-28T07:54:04Z</time></trkpt><trkpt lat="44.784760832588645" lon="9.78018078281353"><ele>560.0</ele><time>2026-03-28T07:54:06Z</time></trkpt><trkpt lat="44.784736186061316" lon="9.78005894005485"><ele>560.0</ele><time>2026-03-28T07:54:08Z</time></trkpt><trkpt lat="44.784724633704336" lon="9.779925467958002"><ele>560.3333333333333</ele><time>2026-03-28T07:54:10Z</time></trkpt><trkpt lat="44.78471672497553" lon="9.779796333692497"><ele>560.6666666666666</ele><time>2026-03-28T07:54:12Z</time></trkpt><trkpt lat="44.784711149243385" lon="9.779673830799592"><ele>561.0</ele><time>2026-03-28T07:54:14Z</time></trkpt><trkpt lat="44.78470112840819" lon="9.779559280480052"><ele>561.3333333333334</ele><time>2026-03-28T07:54:16Z</time></trkpt><trkpt lat="44.78467910374772" lon="9.779453849684867"><ele>561.6666666666667</ele><time>2026-03-28T07:54:18Z</time></trkpt><trkpt lat="44.78464007697372" lon="9.779361797165745"><ele>562.0</ele><time>2026-03-28T07:54:20Z</time></trkpt><trkpt lat="44.78458363593134" lon="9.779290489712752"><ele>562.0</ele><time>2026-03-28T07:54:22Z</time></trkpt><trkpt lat="44.78451755449254" lon="9.779245462039592"><ele>562.0</ele><time>2026-03-28T07:54:24Z</time></trkpt><trkpt lat="44.78444647648898" lon="9.77920911219555"><ele>562.0</ele><time>2026-03-28T07:54:26Z</time></trkpt><trkpt lat="44.78437224390501" lon="9.779175727661977"><ele>562.0</ele><time>2026-03-28T07:54:28Z</time></trkpt><trkpt lat="44.78429458492408" lon="9.779153582829428"><ele>562.0</ele><time>2026-03-28T07:54:30Z</time></trkpt><trkpt lat="44.78421783794666" lon="9.779135859538856"><ele>562.0</ele><time>2026-03-28T07:54:32Z</time></trkpt><trkpt lat="44.78414265271126" lon="9.779109738737773"><ele>563.6666666666667</ele><time>2026-03-28T07:54:34Z</time></trkpt><trkpt lat="44.78406825380941" lon="9.77907723385639"><ele>565.3333333333334</ele><time>2026-03-28T07:54:36Z</time></trkpt><trkpt lat="44.783998102489086" lon="9.7790546728556"><ele>567.0</ele><time>2026-03-28T07:54:38Z</time></trkpt><trkpt lat="44.78391890551295" lon="9.779010174864645"><ele>568.6666666666666</ele><time>2026-03-28T07:54:40Z</time></trkpt><trkpt lat="44.78384388491912" lon="9.778970312467095"><ele>570.3333333333333</ele><time>2026-03-28T07:54:42Z</time></trkpt><trkpt lat="44.78377514484247" lon="9.778916668386664"><ele>572.0</ele><time>2026-03-28T07:54:44Z</time></trkpt><trkpt lat="44.78370157268806" lon="9.778858420233751"><ele>572.0</ele><time>2026-03-28T07:54:46Z</time></trkpt><trkpt lat="44.78363478064152" lon="9.778783185285402"><ele>572.0</ele><time>2026-03-28T07:54:48Z</time></trkpt><trkpt lat="44.78357826845756" lon="9.77870856823477"><ele>572.0</ele><time>2026-03-28T07:54:50Z</time></trkpt><trkpt lat="44.78353314707814" lon="9.778617325370469"><ele>572.0</ele><time>2026-03-28T07:54:51.999Z</time></trkpt><trkpt lat="44.78349540259369" lon="9.778520346332446"><ele>572.0</ele><time>2026-03-28T07:54:54.999Z</time></trkpt><trkpt lat="44.78343472705069" lon="9.778377122300109"><ele>572.0</ele><time>2026-03-28T07:54:56.999Z</time></trkpt><trkpt lat="44.78339238087972" lon="9.778293787928341"><ele>573.5</ele><time>2026-03-28T07:54:58.999Z</time></trkpt><trkpt lat="44.78335842136073" lon="9.778198870905648"><ele>575.0</ele><time>2026-03-28T07:55:00.999Z</time></trkpt><trkpt lat="44.78331994031088" lon="9.77809345540097"><ele>576.5</ele><time>2026-03-28T07:55:03.999Z</time></trkpt><trkpt lat="44.783280471655786" lon="9.77798654357879"><ele>578.0</ele><time>2026-03-28T07:55:05.999Z</time></trkpt><trkpt lat="44.78324000117625" lon="9.777915118205325"><ele>579.5</ele><time>2026-03-28T07:55:07.999Z</time></trkpt><trkpt lat="44.7831743263687" lon="9.777823242211603"><ele>581.0</ele><time>2026-03-28T07:55:10.999Z</time></trkpt><trkpt lat="44.78310302479347" lon="9.777743410382927"><ele>581.0</ele><time>2026-03-28T07:55:12.999Z</time></trkpt><trkpt lat="44.78304255233335" lon="9.777692621941066"><ele>581.0</ele><time>2026-03-28T07:55:14.999Z</time></trkpt><trkpt lat="44.782984813885754" lon="9.777648982057245"><ele>581.0</ele><time>2026-03-28T07:55:16.999Z</time></trkpt><trkpt lat="44.7829283644594" lon="9.777605427240449"><ele>581.0</ele><time>2026-03-28T07:55:18.999Z</time></trkpt><trkpt lat="44.782867979974675" lon="9.777568515177256"><ele>581.0</ele><time>2026-03-28T07:55:20.999Z</time></trkpt><trkpt lat="44.78281035316887" lon="9.777531600100023"><ele>581.0</ele><time>2026-03-28T07:55:22.999Z</time></trkpt><trkpt lat="44.78272358501169" lon="9.777481140496008"><ele>581.0</ele><time>2026-03-28T07:55:25.999Z</time></trkpt><trkpt lat="44.78263903131044" lon="9.77742969570086"><ele>582.0</ele><time>2026-03-28T07:55:28.999Z</time></trkpt><trkpt lat="44.78255477418555" lon="9.77738742745082"><ele>583.0</ele><time>2026-03-28T07:55:31.999Z</time></trkpt><trkpt lat="44.782465759628955" lon="9.777346096262663"><ele>584.0</ele><time>2026-03-28T07:55:34.999Z</time></trkpt><trkpt lat="44.782379000687925" lon="9.777306975478275"><ele>585.0</ele><time>2026-03-28T07:55:37.999Z</time></trkpt><trkpt lat="44.78229584461819" lon="9.777262772881706"><ele>586.0</ele><time>2026-03-28T07:55:40.999Z</time></trkpt><trkpt lat="44.7822357777771" lon="9.777233027347163"><ele>587.0</ele><time>2026-03-28T07:55:42.999Z</time></trkpt><trkpt lat="44.78215400827091" lon="9.77717214831218"><ele>587.0</ele><time>2026-03-28T07:55:45.998Z</time></trkpt><trkpt lat="44.782072403611934" lon="9.777105676400431"><ele>587.0</ele><time>2026-03-28T07:55:48.998Z</time></trkpt><trkpt lat="44.78199583438356" lon="9.777047472702709"><ele>587.0</ele><time>2026-03-28T07:55:52Z</time></trkpt><trkpt lat="44.78191789357249" lon="9.77699309616812"><ele>587.0</ele><time>2026-03-28T07:55:55Z</time></trkpt><trkpt lat="44.78184311227065" lon="9.776945535474365"><ele>587.0</ele><time>2026-03-28T07:55:58Z</time></trkpt><trkpt lat="44.78177502101167" lon="9.776913347725667"><ele>587.0</ele><time>2026-03-28T07:56:01Z</time></trkpt><trkpt lat="44.78169193778283" lon="9.77690587195004"><ele>589.5</ele><time>2026-03-28T07:56:04Z</time></trkpt><trkpt lat="44.78162184469269" lon="9.77693424973982"><ele>592.0</ele><time>2026-03-28T07:56:07Z</time></trkpt><trkpt lat="44.781570363939636" lon="9.777020951859875"><ele>594.5</ele><time>2026-03-28T07:56:10Z</time></trkpt><trkpt lat="44.781568926620544" lon="9.777131406652169"><ele>597.0</ele><time>2026-03-28T07:56:13Z</time></trkpt><trkpt lat="44.781611836184986" lon="9.777236878214337"><ele>599.5</ele><time>2026-03-28T07:56:16Z</time></trkpt><trkpt lat="44.78167760112075" lon="9.777323374746484"><ele>602.0</ele><time>2026-03-28T07:56:19Z</time></trkpt><trkpt lat="44.78174321181386" lon="9.77740364785577"><ele>602.0</ele><time>2026-03-28T07:56:22Z</time></trkpt><trkpt lat="44.78179735805992" lon="9.77745811038609"><ele>602.0</ele><time>2026-03-28T07:56:24Z</time></trkpt><trkpt lat="44.78184741264324" lon="9.777515829002965"><ele>602.0</ele><time>2026-03-28T07:56:26Z</time></trkpt><trkpt lat="44.781901261418696" lon="9.777578195978787"><ele>602.0</ele><time>2026-03-28T07:56:28Z</time></trkpt><trkpt lat="44.78195485519226" lon="9.777635988377217"><ele>602.0</ele><time>2026-03-28T07:56:30Z</time></trkpt><trkpt lat="44.78200639713779" lon="9.777715498919713"><ele>602.0</ele><time>2026-03-28T07:56:32Z</time></trkpt><trkpt lat="44.78205679111394" lon="9.777787444602668"><ele>602.0</ele><time>2026-03-28T07:56:34Z</time></trkpt><trkpt lat="44.78209986102153" lon="9.77786491516497"><ele>601.2857142857143</ele><time>2026-03-28T07:56:36Z</time></trkpt><trkpt lat="44.78214882145106" lon="9.777939463151284"><ele>600.5714285714286</ele><time>2026-03-28T07:56:38Z</time></trkpt><trkpt lat="44.78219991868524" lon="9.778013637924579"><ele>599.8571428571429</ele><time>2026-03-28T07:56:40Z</time></trkpt><trkpt lat="44.78224365292722" lon="9.778090786527756"><ele>599.1428571428571</ele><time>2026-03-28T07:56:42Z</time></trkpt><trkpt lat="44.78229135713485" lon="9.778156993789919"><ele>598.4285714285714</ele><time>2026-03-28T07:56:44Z</time></trkpt><trkpt lat="44.782330798675034" lon="9.778232256874375"><ele>597.7142857142858</ele><time>2026-03-28T07:56:46Z</time></trkpt><trkpt lat="44.782372930628604" lon="9.778304440007403"><ele>597.0</ele><time>2026-03-28T07:56:48Z</time></trkpt><trkpt lat="44.782417065230405" lon="9.7783776418718"><ele>597.0000000000001</ele><time>2026-03-28T07:56:50Z</time></trkpt><trkpt lat="44.78246025752752" lon="9.77845350763744"><ele>597.0</ele><time>2026-03-28T07:56:52Z</time></trkpt><trkpt lat="44.7825048682283" lon="9.778525651102582"><ele>597.0</ele><time>2026-03-28T07:56:54Z</time></trkpt><trkpt lat="44.78254480049194" lon="9.77860483623366"><ele>597.0</ele><time>2026-03-28T07:56:55.999Z</time></trkpt><trkpt lat="44.782583859536814" lon="9.778678572249387"><ele>597.0</ele><time>2026-03-28T07:56:57.999Z</time></trkpt><trkpt lat="44.78262314526893" lon="9.778749257895658"><ele>597.0000000000001</ele><time>2026-03-28T07:56:59.999Z</time></trkpt><trkpt lat="44.78264491652094" lon="9.778848197633813"><ele>597.0</ele><time>2026-03-28T07:57:01.999Z</time></trkpt><trkpt lat="44.78262836226529" lon="9.7789407896667"><ele>596.8571428571429</ele><time>2026-03-28T07:57:03.999Z</time></trkpt><trkpt lat="44.78256534143658" lon="9.778986233209768"><ele>596.7142857142858</ele><time>2026-03-28T07:57:05.999Z</time></trkpt><trkpt lat="44.78249713817275" lon="9.778968221697655"><ele>596.5714285714286</ele><time>2026-03-28T07:57:07.999Z</time></trkpt><trkpt lat="44.78243252999113" lon="9.77891981373708"><ele>596.4285714285714</ele><time>2026-03-28T07:57:09.999Z</time></trkpt><trkpt lat="44.782367271666864" lon="9.778870707952073"><ele>596.2857142857142</ele><time>2026-03-28T07:57:11.999Z</time></trkpt><trkpt lat="44.78230619536424" lon="9.778822861231607"><ele>596.1428571428571</ele><time>2026-03-28T07:57:13.999Z</time></trkpt><trkpt lat="44.78224323646739" lon="9.778779685606091"><ele>596.0</ele><time>2026-03-28T07:57:15.999Z</time></trkpt><trkpt lat="44.78218164017081" lon="9.778730946226352"><ele>596.0</ele><time>2026-03-28T07:57:17.999Z</time></trkpt><trkpt lat="44.78211712574586" lon="9.778683789770998"><ele>596.0</ele><time>2026-03-28T07:57:19.999Z</time></trkpt><trkpt lat="44.78205547849431" lon="9.778634740101948"><ele>596.0</ele><time>2026-03-28T07:57:21.999Z</time></trkpt><trkpt lat="44.78199409899477" lon="9.778584557703947"><ele>596.0</ele><time>2026-03-28T07:57:23.999Z</time></trkpt><trkpt lat="44.78193178322909" lon="9.778540490117035"><ele>596.0</ele><time>2026-03-28T07:57:25.999Z</time></trkpt><trkpt lat="44.781868667864096" lon="9.778497854808384"><ele>596.0</ele><time>2026-03-28T07:57:27.999Z</time></trkpt><trkpt lat="44.78180692770518" lon="9.778454464847323"><ele>596.0</ele><time>2026-03-28T07:57:29.999Z</time></trkpt><trkpt lat="44.781742573115835" lon="9.778410760526343"><ele>597.1428571428571</ele><time>2026-03-28T07:57:31.999Z</time></trkpt><trkpt lat="44.78167790507806" lon="9.778364140554006"><ele>598.2857142857142</ele><time>2026-03-28T07:57:33.999Z</time></trkpt><trkpt lat="44.78161520785192" lon="9.778326468593455"><ele>599.4285714285714</ele><time>2026-03-28T07:57:35.999Z</time></trkpt><trkpt lat="44.781547601150976" lon="9.778278747058891"><ele>600.5714285714286</ele><time>2026-03-28T07:57:37.999Z</time></trkpt><trkpt lat="44.78148651280984" lon="9.778230634796497"><ele>601.7142857142858</ele><time>2026-03-28T07:57:39.999Z</time></trkpt><trkpt lat="44.78142969325835" lon="9.778189964844389"><ele>602.8571428571429</ele><time>2026-03-28T07:57:41.999Z</time></trkpt><trkpt lat="44.78136319642602" lon="9.778157837315339"><ele>604.0</ele><time>2026-03-28T07:57:43.999Z</time></trkpt><trkpt lat="44.78129496554183" lon="9.7781290453824"><ele>604.0000000000001</ele><time>2026-03-28T07:57:45.999Z</time></trkpt><trkpt lat="44.7812254756612" lon="9.778121646289511"><ele>604.0</ele><time>2026-03-28T07:57:47.999Z</time></trkpt><trkpt lat="44.781155458543964" lon="9.77813164521074"><ele>604.0</ele><time>2026-03-28T07:57:49.998Z</time></trkpt><trkpt lat="44.78109014185617" lon="9.778147094642527"><ele>604.0</ele><time>2026-03-28T07:57:51.998Z</time></trkpt><trkpt lat="44.78102724494263" lon="9.778171761561095"><ele>604.0</ele><time>2026-03-28T07:57:53.998Z</time></trkpt><trkpt lat="44.78096902888677" lon="9.77820883520401"><ele>604.0000000000001</ele><time>2026-03-28T07:57:56Z</time></trkpt><trkpt lat="44.78087897443723" lon="9.778250829070158"><ele>604.0</ele><time>2026-03-28T07:57:59Z</time></trkpt><trkpt lat="44.78079318192568" lon="9.778297721717125"><ele>605.3333333333334</ele><time>2026-03-28T07:58:02Z</time></trkpt><trkpt lat="44.780731458598446" lon="9.778317998651637"><ele>606.6666666666667</ele><time>2026-03-28T07:58:04Z</time></trkpt><trkpt lat="44.78064559090789" lon="9.778323339641293"><ele>608.0</ele><time>2026-03-28T07:58:07Z</time></trkpt><trkpt lat="44.780573152315796" lon="9.778255845772618"><ele>609.3333333333334</ele><time>2026-03-28T07:58:10Z</time></trkpt><trkpt lat="44.78053336373168" lon="9.778152787419604"><ele>610.6666666666666</ele><time>2026-03-28T07:58:13Z</time></trkpt><trkpt lat="44.780521703750196" lon="9.778032761577277"><ele>612.0</ele><time>2026-03-28T07:58:16Z</time></trkpt><trkpt lat="44.780525269636044" lon="9.777914759956726"><ele>612.0</ele><time>2026-03-28T07:58:19Z</time></trkpt><trkpt lat="44.78053072035244" lon="9.777791800369734"><ele>612.0</ele><time>2026-03-28T07:58:22Z</time></trkpt><trkpt lat="44.78049309735673" lon="9.777680712472042"><ele>612.0</ele><time>2026-03-28T07:58:25Z</time></trkpt><trkpt lat="44.780437943797885" lon="9.777637049550268"><ele>612.0</ele><time>2026-03-28T07:58:27Z</time></trkpt><trkpt lat="44.78034831577435" lon="9.777609397767245"><ele>612.0</ele><time>2026-03-28T07:58:30Z</time></trkpt><trkpt lat="44.78025983693564" lon="9.777594145634005"><ele>612.0</ele><time>2026-03-28T07:58:33Z</time></trkpt><trkpt lat="44.78017295132826" lon="9.77758189213108"><ele>613.8333333333334</ele><time>2026-03-28T07:58:36Z</time></trkpt><trkpt lat="44.78008580702424" lon="9.777564731383244"><ele>615.6666666666666</ele><time>2026-03-28T07:58:39Z</time></trkpt><trkpt lat="44.780006101466675" lon="9.777523643578304"><ele>617.5</ele><time>2026-03-28T07:58:42Z</time></trkpt><trkpt lat="44.779937026825515" lon="9.777461938100092"><ele>619.3333333333333</ele><time>2026-03-28T07:58:45Z</time></trkpt><trkpt lat="44.779881102191865" lon="9.777385991378427"><ele>621.1666666666666</ele><time>2026-03-28T07:58:48Z</time></trkpt><trkpt lat="44.779830214786784" lon="9.77730273840562"><ele>623.0</ele><time>2026-03-28T07:58:51Z</time></trkpt><trkpt lat="44.77978904944208" lon="9.77722277526615"><ele>623.0</ele><time>2026-03-28T07:58:54Z</time></trkpt><trkpt lat="44.779724324125176" lon="9.777154268100412"><ele>623.0</ele><time>2026-03-28T07:58:56.999Z</time></trkpt><trkpt lat="44.77966718760599" lon="9.777081082003187"><ele>623.0</ele><time>2026-03-28T07:58:59.999Z</time></trkpt><trkpt lat="44.77961332268238" lon="9.777006312350474"><ele>623.0</ele><time>2026-03-28T07:59:02.999Z</time></trkpt><trkpt lat="44.77956160228615" lon="9.776941631757225"><ele>623.0</ele><time>2026-03-28T07:59:05.999Z</time></trkpt><trkpt lat="44.77949885033357" lon="9.776880867879369"><ele>623.0</ele><time>2026-03-28T07:59:08.999Z</time></trkpt><trkpt lat="44.779429353308174" lon="9.776815620642365"><ele>621.6666666666666</ele><time>2026-03-28T07:59:11.999Z</time></trkpt><trkpt lat="44.77937463218342" lon="9.776754516683758"><ele>620.3333333333333</ele><time>2026-03-28T07:59:14.999Z</time></trkpt><trkpt lat="44.77931064777464" lon="9.776692141041393"><ele>619.0</ele><time>2026-03-28T07:59:17.999Z</time></trkpt><trkpt lat="44.77924865177887" lon="9.776638487818625"><ele>617.6666666666666</ele><time>2026-03-28T07:59:20.999Z</time></trkpt><trkpt lat="44.779182083865365" lon="9.776581942331813"><ele>616.3333333333334</ele><time>2026-03-28T07:59:23.999Z</time></trkpt><trkpt lat="44.77911852726961" lon="9.776524287309304"><ele>615.0</ele><time>2026-03-28T07:59:26.999Z</time></trkpt><trkpt lat="44.77905083203606" lon="9.776460193903148"><ele>616.6666666666666</ele><time>2026-03-28T07:59:29.999Z</time></trkpt><trkpt lat="44.77899371666083" lon="9.776384148442618"><ele>618.3333333333334</ele><time>2026-03-28T07:59:32.999Z</time></trkpt><trkpt lat="44.778938199654306" lon="9.776295855457686"><ele>620.0</ele><time>2026-03-28T07:59:35.999Z</time></trkpt><trkpt lat="44.7788835085329" lon="9.776189997985083"><ele>621.6666666666667</ele><time>2026-03-28T07:59:38.999Z</time></trkpt><trkpt lat="44.77882779771087" lon="9.776100137760901"><ele>623.3333333333334</ele><time>2026-03-28T07:59:41.999Z</time></trkpt><trkpt lat="44.778772186486165" lon="9.776009367132607"><ele>625.0</ele><time>2026-03-28T07:59:44.999Z</time></trkpt><trkpt lat="44.778696044872525" lon="9.775935312263222"><ele>625.0</ele><time>2026-03-28T07:59:47.999Z</time></trkpt><trkpt lat="44.7786057523293" lon="9.775888065816323"><ele>625.0</ele><time>2026-03-28T07:59:50.999Z</time></trkpt><trkpt lat="44.77854298092087" lon="9.775868983546813"><ele>625.0</ele><time>2026-03-28T07:59:52.998Z</time></trkpt><trkpt lat="44.77847996818225" lon="9.775854526438433"><ele>625.0</ele><time>2026-03-28T07:59:54.998Z</time></trkpt><trkpt lat="44.778417380430064" lon="9.775837290492076"><ele>625.0</ele><time>2026-03-28T07:59:56.998Z</time></trkpt><trkpt lat="44.778330261878544" lon="9.775810295159571"><ele>625.0</ele><time>2026-03-28T07:59:59.998Z</time></trkpt><trkpt lat="44.77824942492118" lon="9.775782832477597"><ele>628.0</ele><time>2026-03-28T08:00:03Z</time></trkpt><trkpt lat="44.778160646602046" lon="9.77575939039314"><ele>631.0</ele><time>2026-03-28T08:00:06Z</time></trkpt><trkpt lat="44.77807333135558" lon="9.77572013341445"><ele>634.0</ele><time>2026-03-28T08:00:09Z</time></trkpt><trkpt lat="44.77798924538399" lon="9.77567187000247"><ele>637.0</ele><time>2026-03-28T08:00:12Z</time></trkpt><trkpt lat="44.777907453956026" lon="9.77560469724489"><ele>640.0</ele><time>2026-03-28T08:00:15Z</time></trkpt><trkpt lat="44.777837737088134" lon="9.77552902829353"><ele>640.0</ele><time>2026-03-28T08:00:18Z</time></trkpt><trkpt lat="44.777767002716686" lon="9.775454712718423"><ele>640.0</ele><time>2026-03-28T08:00:21Z</time></trkpt><trkpt lat="44.77770501755017" lon="9.775365913065917"><ele>640.0</ele><time>2026-03-28T08:00:24Z</time></trkpt><trkpt lat="44.77764858856401" lon="9.775263499424904"><ele>640.0</ele><time>2026-03-28T08:00:27Z</time></trkpt><trkpt lat="44.77759297940301" lon="9.775158359159665"><ele>640.0</ele><time>2026-03-28T08:00:30Z</time></trkpt><trkpt lat="44.77754927147458" lon="9.775048511931496"><ele>641.1666666666667</ele><time>2026-03-28T08:00:33Z</time></trkpt><trkpt lat="44.77748859461327" lon="9.774954352836568"><ele>642.3333333333334</ele><time>2026-03-28T08:00:36Z</time></trkpt><trkpt lat="44.7774139439114" lon="9.77487502350969"><ele>643.5</ele><time>2026-03-28T08:00:39Z</time></trkpt><trkpt lat="44.77732795599806" lon="9.774818564663473"><ele>644.6666666666666</ele><time>2026-03-28T08:00:42Z</time></trkpt><trkpt lat="44.777266940765266" lon="9.774779933281346"><ele>645.8333333333333</ele><time>2026-03-28T08:00:44Z</time></trkpt><trkpt lat="44.777199785790785" lon="9.774755273855776"><ele>647.0</ele><time>2026-03-28T08:00:46Z</time></trkpt><trkpt lat="44.77713084230829" lon="9.774718905822679"><ele>647.0</ele><time>2026-03-28T08:00:48Z</time></trkpt><trkpt lat="44.77706548273451" lon="9.77469120900144"><ele>647.0</ele><time>2026-03-28T08:00:50Z</time></trkpt><trkpt lat="44.77699439534758" lon="9.774664056848893"><ele>647.0</ele><time>2026-03-28T08:00:52Z</time></trkpt><trkpt lat="44.77691980729593" lon="9.774632483366068"><ele>647.0</ele><time>2026-03-28T08:00:54Z</time></trkpt><trkpt lat="44.77683887782773" lon="9.774588065687832"><ele>647.0</ele><time>2026-03-28T08:00:56Z</time></trkpt><trkpt lat="44.776768465840995" lon="9.77453841582938"><ele>647.0</ele><time>2026-03-28T08:00:58Z</time></trkpt><trkpt lat="44.77670644714623" lon="9.774486897371526"><ele>647.5</ele><time>2026-03-28T08:01:00Z</time></trkpt><trkpt lat="44.77665010298059" lon="9.774396390679184"><ele>648.0</ele><time>2026-03-28T08:01:02Z</time></trkpt><trkpt lat="44.77660209933902" lon="9.77429448081266"><ele>648.5</ele><time>2026-03-28T08:01:03.999Z</time></trkpt><trkpt lat="44.77655389097354" lon="9.774195627371657"><ele>649.0</ele><time>2026-03-28T08:01:05.999Z</time></trkpt><trkpt lat="44.77652765426481" lon="9.774077753815039"><ele>649.5</ele><time>2026-03-28T08:01:07.999Z</time></trkpt><trkpt lat="44.77651910541471" lon="9.773957881767608"><ele>650.0</ele><time>2026-03-28T08:01:09.999Z</time></trkpt><trkpt lat="44.77653146752577" lon="9.773835238832435"><ele>650.0</ele><time>2026-03-28T08:01:11.999Z</time></trkpt><trkpt lat="44.776505560932726" lon="9.773715910405448"><ele>650.0</ele><time>2026-03-28T08:01:13.999Z</time></trkpt><trkpt lat="44.776457100362116" lon="9.773617747254567"><ele>650.0</ele><time>2026-03-28T08:01:15.999Z</time></trkpt><trkpt lat="44.776392135344565" lon="9.773532150954404"><ele>650.0</ele><time>2026-03-28T08:01:17.999Z</time></trkpt><trkpt lat="44.77633303239815" lon="9.773426117619081"><ele>650.0</ele><time>2026-03-28T08:01:20.999Z</time></trkpt><trkpt lat="44.776276079996215" lon="9.773241691097322"><ele>649.6666666666666</ele><time>2026-03-28T08:01:22.999Z</time></trkpt><trkpt lat="44.77626597140559" lon="9.773122395525332"><ele>649.3333333333333</ele><time>2026-03-28T08:01:24.999Z</time></trkpt><trkpt lat="44.77624751886293" lon="9.773012575699546"><ele>649.0</ele><time>2026-03-28T08:01:26.999Z</time></trkpt><trkpt lat="44.77621810009931" lon="9.772910396492014"><ele>648.6666666666666</ele><time>2026-03-28T08:01:28.999Z</time></trkpt><trkpt lat="44.77616550745167" lon="9.772827723913483"><ele>648.3333333333334</ele><time>2026-03-28T08:01:30.999Z</time></trkpt><trkpt lat="44.77610785458687" lon="9.772763431529516"><ele>648.0</ele><time>2026-03-28T08:01:32.999Z</time></trkpt><trkpt lat="44.776047490701664" lon="9.772705988383915"><ele>649.4285714285714</ele><time>2026-03-28T08:01:34.999Z</time></trkpt><trkpt lat="44.775986791058976" lon="9.772652860828188"><ele>650.8571428571429</ele><time>2026-03-28T08:01:36.999Z</time></trkpt><trkpt lat="44.77592932636952" lon="9.772592255857065"><ele>652.2857142857142</ele><time>2026-03-28T08:01:38.999Z</time></trkpt><trkpt lat="44.77586391153937" lon="9.772542152734232"><ele>653.7142857142858</ele><time>2026-03-28T08:01:40.999Z</time></trkpt><trkpt lat="44.77581934928829" lon="9.772468196633273"><ele>655.1428571428571</ele><time>2026-03-28T08:01:42.999Z</time></trkpt><trkpt lat="44.77578673488542" lon="9.772376474581737"><ele>656.5714285714286</ele><time>2026-03-28T08:01:44.999Z</time></trkpt><trkpt lat="44.77577304308093" lon="9.772275614249892"><ele>658.0</ele><time>2026-03-28T08:01:46.999Z</time></trkpt><trkpt lat="44.77575426949705" lon="9.772171575580046"><ele>658.0</ele><time>2026-03-28T08:01:48.999Z</time></trkpt><trkpt lat="44.77574275397415" lon="9.772067022095714"><ele>658.0</ele><time>2026-03-28T08:01:50.999Z</time></trkpt><trkpt lat="44.775731133623914" lon="9.771931735153508"><ele>658.0</ele><time>2026-03-28T08:01:53.999Z</time></trkpt><trkpt lat="44.77571302596851" lon="9.77183072376125"><ele>658.0</ele><time>2026-03-28T08:01:55.999Z</time></trkpt><trkpt lat="44.775704007851694" lon="9.771725916057765"><ele>658.0</ele><time>2026-03-28T08:01:57.999Z</time></trkpt><trkpt lat="44.77567350383876" lon="9.771636053344475"><ele>658.0</ele><time>2026-03-28T08:01:59.998Z</time></trkpt><trkpt lat="44.77562784216337" lon="9.77153902474832"><ele>658.1428571428571</ele><time>2026-03-28T08:02:01.998Z</time></trkpt><trkpt lat="44.77558496945001" lon="9.7714484977483"><ele>658.2857142857142</ele><time>2026-03-28T08:02:03.998Z</time></trkpt><trkpt lat="44.77554115809899" lon="9.771365899647385"><ele>658.4285714285714</ele><time>2026-03-28T08:02:06Z</time></trkpt><trkpt lat="44.77550677820264" lon="9.771272614927277"><ele>658.5714285714286</ele><time>2026-03-28T08:02:08Z</time></trkpt><trkpt lat="44.775479219226995" lon="9.771183297831795"><ele>658.7142857142857</ele><time>2026-03-28T08:02:10Z</time></trkpt><trkpt lat="44.77545645002597" lon="9.771085542168898"><ele>658.8571428571429</ele><time>2026-03-28T08:02:12Z</time></trkpt><trkpt lat="44.77543512772524" lon="9.770992516011104"><ele>659.0</ele><time>2026-03-28T08:02:14Z</time></trkpt><trkpt lat="44.77541714827641" lon="9.770905404282813"><ele>658.2857142857143</ele><time>2026-03-28T08:02:16Z</time></trkpt><trkpt lat="44.7753842333428" lon="9.770819784028628"><ele>657.5714285714286</ele><time>2026-03-28T08:02:18Z</time></trkpt><trkpt lat="44.7753444215155" lon="9.770738682257488"><ele>656.8571428571429</ele><time>2026-03-28T08:02:20Z</time></trkpt><trkpt lat="44.77529740098883" lon="9.770668196552291"><ele>656.1428571428571</ele><time>2026-03-28T08:02:22Z</time></trkpt><trkpt lat="44.775243064398026" lon="9.770608205373572"><ele>655.4285714285714</ele><time>2026-03-28T08:02:24Z</time></trkpt><trkpt lat="44.7751939233675" lon="9.77053706877016"><ele>654.7142857142857</ele><time>2026-03-28T08:02:26Z</time></trkpt><trkpt lat="44.7751388588002" lon="9.77046578197919"><ele>654.0</ele><time>2026-03-28T08:02:28Z</time></trkpt><trkpt lat="44.775088078162135" lon="9.770385870735337"><ele>655.5</ele><time>2026-03-28T08:02:30Z</time></trkpt><trkpt lat="44.77504435780182" lon="9.770311843541725"><ele>657.0</ele><time>2026-03-28T08:02:32Z</time></trkpt><trkpt lat="44.77499950532205" lon="9.770206072165044"><ele>658.5</ele><time>2026-03-28T08:02:34Z</time></trkpt><trkpt lat="44.77494633970847" lon="9.770104785187357"><ele>660.0</ele><time>2026-03-28T08:02:36Z</time></trkpt><trkpt lat="44.77489221649689" lon="9.769999131423356"><ele>661.5</ele><time>2026-03-28T08:02:38Z</time></trkpt><trkpt lat="44.77483253456605" lon="9.769885100439385"><ele>663.0</ele><time>2026-03-28T08:02:40Z</time></trkpt><trkpt lat="44.774769749544774" lon="9.769784082407812"><ele>663.0</ele><time>2026-03-28T08:02:42Z</time></trkpt><trkpt lat="44.77471300578496" lon="9.769669810781696"><ele>663.0</ele><time>2026-03-28T08:02:44Z</time></trkpt><trkpt lat="44.77465363935248" lon="9.769552848343498"><ele>663.0</ele><time>2026-03-28T08:02:46Z</time></trkpt><trkpt lat="44.77459712248006" lon="9.769424615016467"><ele>663.0</ele><time>2026-03-28T08:02:48Z</time></trkpt><trkpt lat="44.77453411335872" lon="9.769293474091384"><ele>663.0</ele><time>2026-03-28T08:02:50Z</time></trkpt><trkpt lat="44.77446655694141" lon="9.769169654272767"><ele>662.0</ele><time>2026-03-28T08:02:52Z</time></trkpt><trkpt lat="44.77438704824727" lon="9.769068580998587"><ele>661.0</ele><time>2026-03-28T08:02:54Z</time></trkpt><trkpt lat="44.77429791527221" lon="9.768983285257939"><ele>660.0</ele><time>2026-03-28T08:02:56Z</time></trkpt><trkpt lat="44.77420078753924" lon="9.76890510430762"><ele>659.0</ele><time>2026-03-28T08:02:58Z</time></trkpt><trkpt lat="44.774110288063554" lon="9.768836904443457"><ele>658.0</ele><time>2026-03-28T08:03:00Z</time></trkpt><trkpt lat="44.77402899763257" lon="9.768760715452038"><ele>658.0</ele><time>2026-03-28T08:03:02Z</time></trkpt><trkpt lat="44.77395207410634" lon="9.768669261841456"><ele>658.0</ele><time>2026-03-28T08:03:04Z</time></trkpt><trkpt lat="44.77388212023846" lon="9.768557514213983"><ele>658.0</ele><time>2026-03-28T08:03:05.999Z</time></trkpt><trkpt lat="44.77381351140047" lon="9.768433098645989"><ele>658.0</ele><time>2026-03-28T08:03:07.999Z</time></trkpt><trkpt lat="44.773752235721616" lon="9.768311547843796"><ele>658.0</ele><time>2026-03-28T08:03:09.999Z</time></trkpt><trkpt lat="44.773698180755034" lon="9.768191687135698"><ele>658.2</ele><time>2026-03-28T08:03:11.999Z</time></trkpt><trkpt lat="44.773639454033514" lon="9.76807750666618"><ele>658.4</ele><time>2026-03-28T08:03:13.999Z</time></trkpt><trkpt lat="44.77358357854832" lon="9.767960918112617"><ele>658.6</ele><time>2026-03-28T08:03:15.999Z</time></trkpt><trkpt lat="44.773514017874845" lon="9.767850390836227"><ele>658.8000000000001</ele><time>2026-03-28T08:03:17.999Z</time></trkpt><trkpt lat="44.773438790215934" lon="9.76774861845345"><ele>659.0</ele><time>2026-03-28T08:03:19.999Z</time></trkpt><trkpt lat="44.773363145169604" lon="9.767645865938285"><ele>659.0</ele><time>2026-03-28T08:03:21.999Z</time></trkpt><trkpt lat="44.77329618645106" lon="9.767527856817962"><ele>659.0</ele><time>2026-03-28T08:03:23.999Z</time></trkpt><trkpt lat="44.77326501679782" lon="9.767380251972279"><ele>659.0</ele><time>2026-03-28T08:03:25.999Z</time></trkpt><trkpt lat="44.77326260819964" lon="9.767217356804077"><ele>659.0</ele><time>2026-03-28T08:03:27.999Z</time></trkpt><trkpt lat="44.77327326088565" lon="9.767049319011385"><ele>659.0</ele><time>2026-03-28T08:03:29.999Z</time></trkpt><trkpt lat="44.7732187458047" lon="9.7669046640341"><ele>659.0</ele><time>2026-03-28T08:03:31.999Z</time></trkpt><trkpt lat="44.773158638458035" lon="9.766759646975858"><ele>659.0</ele><time>2026-03-28T08:03:33.999Z</time></trkpt><trkpt lat="44.773101580970604" lon="9.766619132202182"><ele>659.0</ele><time>2026-03-28T08:03:35.999Z</time></trkpt><trkpt lat="44.773051443944546" lon="9.766484331727384"><ele>659.4000000000001</ele><time>2026-03-28T08:03:37.999Z</time></trkpt><trkpt lat="44.772983675893656" lon="9.766368433580537"><ele>659.8</ele><time>2026-03-28T08:03:39.999Z</time></trkpt><trkpt lat="44.77289968836674" lon="9.766257024880066"><ele>660.2</ele><time>2026-03-28T08:03:41.999Z</time></trkpt><trkpt lat="44.77280694375546" lon="9.766163058368123"><ele>660.5999999999999</ele><time>2026-03-28T08:03:43.999Z</time></trkpt><trkpt lat="44.77270374588421" lon="9.766097702600584"><ele>661.0</ele><time>2026-03-28T08:03:45.999Z</time></trkpt><trkpt lat="44.77259616171582" lon="9.766072302263922"><ele>661.0</ele><time>2026-03-28T08:03:47.999Z</time></trkpt><trkpt lat="44.772487438142534" lon="9.766072391840838"><ele>661.0</ele><time>2026-03-28T08:03:49.999Z</time></trkpt><trkpt lat="44.77237550167779" lon="9.766071017225663"><ele>661.0</ele><time>2026-03-28T08:03:51.999Z</time></trkpt><trkpt lat="44.77226656659128" lon="9.766065478643227"><ele>661.0</ele><time>2026-03-28T08:03:53.999Z</time></trkpt><trkpt lat="44.772198269402764" lon="9.766046034461207"><ele>661.0</ele><time>2026-03-28T08:03:54.999Z</time></trkpt><trkpt lat="44.772075280159164" lon="9.76600227196821"><ele>661.4</ele><time>2026-03-28T08:03:56.999Z</time></trkpt><trkpt lat="44.77201666456999" lon="9.765963113455394"><ele>661.8</ele><time>2026-03-28T08:03:57.999Z</time></trkpt><trkpt lat="44.771916550960896" lon="9.765868972850376"><ele>662.1999999999999</ele><time>2026-03-28T08:03:59.999Z</time></trkpt><trkpt lat="44.77181467181795" lon="9.765766809357451"><ele>662.5999999999999</ele><time>2026-03-28T08:04:01.998Z</time></trkpt><trkpt lat="44.771761629961766" lon="9.765716952209372"><ele>663.0</ele><time>2026-03-28T08:04:02.998Z</time></trkpt><trkpt lat="44.7716624407949" lon="9.765616465232632"><ele>663.0</ele><time>2026-03-28T08:04:04.998Z</time></trkpt><trkpt lat="44.77160603250691" lon="9.765567322245277"><ele>663.0</ele><time>2026-03-28T08:04:05.998Z</time></trkpt><trkpt lat="44.771494153944346" lon="9.765489014558566"><ele>663.0</ele><time>2026-03-28T08:04:07.998Z</time></trkpt><trkpt lat="44.77143091662026" lon="9.76546265887645"><ele>663.0</ele><time>2026-03-28T08:04:08.998Z</time></trkpt><trkpt lat="44.77137228163422" lon="9.765419983440182"><ele>663.0</ele><time>2026-03-28T08:04:09.998Z</time></trkpt><trkpt lat="44.771317244055496" lon="9.765369983984964"><ele>663.0</ele><time>2026-03-28T08:04:11Z</time></trkpt><trkpt lat="44.771212549026124" lon="9.765283107454382"><ele>662.4</ele><time>2026-03-28T08:04:13Z</time></trkpt><trkpt lat="44.77112756442148" lon="9.765164762648961"><ele>661.8</ele><time>2026-03-28T08:04:15Z</time></trkpt><trkpt lat="44.77107513235558" lon="9.765012805622195"><ele>661.2</ele><time>2026-03-28T08:04:17Z</time></trkpt><trkpt lat="44.771055444699236" lon="9.764926893298986"><ele>660.6</ele><time>2026-03-28T08:04:18Z</time></trkpt><trkpt lat="44.77103544638183" lon="9.764756446464938"><ele>660.0</ele><time>2026-03-28T08:04:20Z</time></trkpt><trkpt lat="44.771001880181295" lon="9.764610265951601"><ele>660.0</ele><time>2026-03-28T08:04:22Z</time></trkpt><trkpt lat="44.77096614340668" lon="9.76445654175095"><ele>660.0</ele><time>2026-03-28T08:04:24Z</time></trkpt><trkpt lat="44.770941112334775" lon="9.764375095069912"><ele>660.0</ele><time>2026-03-28T08:04:25Z</time></trkpt><trkpt lat="44.770841266656326" lon="9.764261738463084"><ele>660.0</ele><time>2026-03-28T08:04:27Z</time></trkpt><trkpt lat="44.77078698799539" lon="9.764212006425176"><ele>660.0</ele><time>2026-03-28T08:04:28Z</time></trkpt><trkpt lat="44.77073161448977" lon="9.76415631474839"><ele>660.0</ele><time>2026-03-28T08:04:29Z</time></trkpt><trkpt lat="44.770674763272176" lon="9.764110114054931"><ele>660.4285714285714</ele><time>2026-03-28T08:04:30Z</time></trkpt><trkpt lat="44.77061755551135" lon="9.764060489185432"><ele>660.8571428571429</ele><time>2026-03-28T08:04:31Z</time></trkpt><trkpt lat="44.770560953250225" lon="9.764005880777693"><ele>661.2857142857142</ele><time>2026-03-28T08:04:32Z</time></trkpt><trkpt lat="44.77049736978074" lon="9.763959348540688"><ele>661.7142857142858</ele><time>2026-03-28T08:04:33Z</time></trkpt><trkpt lat="44.770427786034176" lon="9.763922131495"><ele>662.1428571428571</ele><time>2026-03-28T08:04:34Z</time></trkpt><trkpt lat="44.77035789475409" lon="9.763890806869602"><ele>662.5714285714286</ele><time>2026-03-28T08:04:35Z</time></trkpt><trkpt lat="44.77029108816833" lon="9.763866699594825"><ele>663.0</ele><time>2026-03-28T08:04:36Z</time></trkpt><trkpt lat="44.77023034770392" lon="9.763838430065576"><ele>663.5</ele><time>2026-03-28T08:04:37Z</time></trkpt><trkpt lat="44.7701717537271" lon="9.763775279819013"><ele>664.0</ele><time>2026-03-28T08:04:38Z</time></trkpt><trkpt lat="44.77013481000935" lon="9.763688142910274"><ele>664.5</ele><time>2026-03-28T08:04:39Z</time></trkpt><trkpt lat="44.77011480840934" lon="9.76359786320275"><ele>665.0</ele><time>2026-03-28T08:04:40Z</time></trkpt><trkpt lat="44.77016513024579" lon="9.76348840258848"><ele>665.5</ele><time>2026-03-28T08:04:41Z</time></trkpt><trkpt lat="44.770204877092006" lon="9.763396927728138"><ele>666.0</ele><time>2026-03-28T08:04:42Z</time></trkpt><trkpt lat="44.77023555571095" lon="9.763300029622236"><ele>666.0</ele><time>2026-03-28T08:04:43Z</time></trkpt><trkpt lat="44.7702564356961" lon="9.763186924574079"><ele>666.0</ele><time>2026-03-28T08:04:44Z</time></trkpt><trkpt lat="44.77024452383229" lon="9.763065278708366"><ele>666.0</ele><time>2026-03-28T08:04:45Z</time></trkpt><trkpt lat="44.770182509912395" lon="9.762965782591825"><ele>666.0</ele><time>2026-03-28T08:04:46Z</time></trkpt><trkpt lat="44.77012322494513" lon="9.762886280981567"><ele>666.0</ele><time>2026-03-28T08:04:47Z</time></trkpt><trkpt lat="44.77006300532803" lon="9.762818271179777"><ele>666.0</ele><time>2026-03-28T08:04:48Z</time></trkpt><trkpt lat="44.7700125724632" lon="9.76273540034254"><ele>664.1666666666666</ele><time>2026-03-28T08:04:49Z</time></trkpt><trkpt lat="44.76996728756036" lon="9.762649493964274"><ele>662.3333333333334</ele><time>2026-03-28T08:04:50Z</time></trkpt><trkpt lat="44.76992022212823" lon="9.762559102342415"><ele>660.5</ele><time>2026-03-28T08:04:51Z</time></trkpt><trkpt lat="44.76987159606479" lon="9.762470537010714"><ele>658.6666666666667</ele><time>2026-03-28T08:04:52Z</time></trkpt><trkpt lat="44.76982650430184" lon="9.762377982537007"><ele>656.8333333333334</ele><time>2026-03-28T08:04:53Z</time></trkpt><trkpt lat="44.769784846155616" lon="9.762279560014218"><ele>655.0</ele><time>2026-03-28T08:04:54Z</time></trkpt><trkpt lat="44.7697551554797" lon="9.762164573563751"><ele>655.0</ele><time>2026-03-28T08:04:55Z</time></trkpt><trkpt lat="44.7697407924219" lon="9.762045826617573"><ele>655.0</ele><time>2026-03-28T08:04:56Z</time></trkpt><trkpt lat="44.769728373863444" lon="9.761926759549759"><ele>655.0</ele><time>2026-03-28T08:04:57Z</time></trkpt><trkpt lat="44.76971270990177" lon="9.761800898725202"><ele>655.0</ele><time>2026-03-28T08:04:58Z</time></trkpt><trkpt lat="44.7697045717947" lon="9.761675891415095"><ele>655.0</ele><time>2026-03-28T08:04:59Z</time></trkpt><trkpt lat="44.76969675091352" lon="9.761554345740857"><ele>655.0</ele><time>2026-03-28T08:05:00Z</time></trkpt><trkpt lat="44.76969951778908" lon="9.761428404823302"><ele>655.0</ele><time>2026-03-28T08:05:01Z</time></trkpt><trkpt lat="44.76969795601228" lon="9.76130595301797"><ele>655.0</ele><time>2026-03-28T08:05:02Z</time></trkpt><trkpt lat="44.76968983802111" lon="9.761191194336806"><ele>655.0</ele><time>2026-03-28T08:05:03Z</time></trkpt><trkpt lat="44.769687848381764" lon="9.761074131732842"><ele>655.0</ele><time>2026-03-28T08:05:04Z</time></trkpt><trkpt lat="44.76962074506086" lon="9.760980549688298"><ele>655.0</ele><time>2026-03-28T08:05:05Z</time></trkpt><trkpt lat="44.769564946878106" lon="9.76088410498447"><ele>655.0</ele><time>2026-03-28T08:05:06Z</time></trkpt><trkpt lat="44.76948321818004" lon="9.760832773853119"><ele>654.6666666666667</ele><time>2026-03-28T08:05:07Z</time></trkpt><trkpt lat="44.76940933926811" lon="9.760774173779978"><ele>654.3333333333334</ele><time>2026-03-28T08:05:08Z</time></trkpt><trkpt lat="44.76933408379808" lon="9.760712957876846"><ele>654.0</ele><time>2026-03-28T08:05:09Z</time></trkpt><trkpt lat="44.76925652492829" lon="9.760658918798317"><ele>653.6666666666666</ele><time>2026-03-28T08:05:09.999Z</time></trkpt><trkpt lat="44.76919133165258" lon="9.760591770375736"><ele>653.3333333333333</ele><time>2026-03-28T08:05:10.999Z</time></trkpt><trkpt lat="44.769150128487965" lon="9.760496197876064"><ele>653.0</ele><time>2026-03-28T08:05:11.999Z</time></trkpt><trkpt lat="44.76913747242756" lon="9.760376463801498"><ele>651.8</ele><time>2026-03-28T08:05:12.999Z</time></trkpt><trkpt lat="44.769153379860164" lon="9.760253149038022"><ele>650.5999999999999</ele><time>2026-03-28T08:05:13.999Z</time></trkpt><trkpt lat="44.76919952823444" lon="9.760136503388729"><ele>649.4000000000001</ele><time>2026-03-28T08:05:14.999Z</time></trkpt><trkpt lat="44.7692600195454" lon="9.76003126513352"><ele>648.2</ele><time>2026-03-28T08:05:15.999Z</time></trkpt><trkpt lat="44.76932141319669" lon="9.759933226329267"><ele>647.0</ele><time>2026-03-28T08:05:16.999Z</time></trkpt><trkpt lat="44.76938429045402" lon="9.75983646733135"><ele>647.0</ele><time>2026-03-28T08:05:17.999Z</time></trkpt><trkpt lat="44.769445935713385" lon="9.759734726412855"><ele>647.0</ele><time>2026-03-28T08:05:18.999Z</time></trkpt><trkpt lat="44.76951487638554" lon="9.759632614594562"><ele>647.0</ele><time>2026-03-28T08:05:19.999Z</time></trkpt><trkpt lat="44.769588730230716" lon="9.759546281610431"><ele>647.0</ele><time>2026-03-28T08:05:20.999Z</time></trkpt><trkpt lat="44.76966970594356" lon="9.759481994238023"><ele>647.0</ele><time>2026-03-28T08:05:21.999Z</time></trkpt><trkpt lat="44.76974356054255" lon="9.759404908899686"><ele>645.6666666666666</ele><time>2026-03-28T08:05:22.999Z</time></trkpt><trkpt lat="44.76979555957911" lon="9.759304229471924"><ele>644.3333333333333</ele><time>2026-03-28T08:05:23.999Z</time></trkpt><trkpt lat="44.769813014217405" lon="9.759171425041329"><ele>643.0</ele><time>2026-03-28T08:05:24.999Z</time></trkpt><trkpt lat="44.76978773652363" lon="9.759043775866477"><ele>641.6666666666666</ele><time>2026-03-28T08:05:25.999Z</time></trkpt><trkpt lat="44.76973848234556" lon="9.758940377894897"><ele>640.3333333333334</ele><time>2026-03-28T08:05:26.999Z</time></trkpt><trkpt lat="44.7696918752151" lon="9.758848837261244"><ele>639.0</ele><time>2026-03-28T08:05:27.999Z</time></trkpt><trkpt lat="44.76965625190184" lon="9.758761454155179"><ele>639.0</ele><time>2026-03-28T08:05:28.999Z</time></trkpt><trkpt lat="44.76962361003625" lon="9.758682696920419"><ele>639.0</ele><time>2026-03-28T08:05:29.999Z</time></trkpt><trkpt lat="44.76956730333219" lon="9.758552930253783"><ele>639.0</ele><time>2026-03-28T08:05:31.999Z</time></trkpt><trkpt lat="44.769514700877224" lon="9.758445670350383"><ele>639.0</ele><time>2026-03-28T08:05:33.999Z</time></trkpt><trkpt lat="44.76947060205624" lon="9.758353161726022"><ele>639.0</ele><time>2026-03-28T08:05:35.999Z</time></trkpt><trkpt lat="44.76943547977805" lon="9.758273335989037"><ele>639.0</ele><time>2026-03-28T08:05:37.999Z</time></trkpt><trkpt lat="44.76940410127051" lon="9.75819536051112"><ele>639.5</ele><time>2026-03-28T08:05:39.999Z</time></trkpt><trkpt lat="44.76935522026998" lon="9.758101495529308"><ele>640.0</ele><time>2026-03-28T08:05:42.999Z</time></trkpt><trkpt lat="44.76930722980759" lon="9.757996694591302"><ele>640.5</ele><time>2026-03-28T08:05:45.999Z</time></trkpt><trkpt lat="44.76926446233811" lon="9.75788594006966"><ele>641.0</ele><time>2026-03-28T08:05:48.999Z</time></trkpt><trkpt lat="44.7692163052632" lon="9.757782000500637"><ele>641.5</ele><time>2026-03-28T08:05:51.999Z</time></trkpt><trkpt lat="44.76916677364932" lon="9.757674722189424"><ele>642.0</ele><time>2026-03-28T08:05:54.999Z</time></trkpt><trkpt lat="44.769116348193485" lon="9.757572758391806"><ele>643.8333333333334</ele><time>2026-03-28T08:05:57.999Z</time></trkpt><trkpt lat="44.7690659207254" lon="9.757465176123036"><ele>645.6666666666666</ele><time>2026-03-28T08:06:00.999Z</time></trkpt><trkpt lat="44.76902510676848" lon="9.757356763774398"><ele>647.5</ele><time>2026-03-28T08:06:03.999Z</time></trkpt><trkpt lat="44.76897938462606" lon="9.757250106655519"><ele>649.3333333333333</ele><time>2026-03-28T08:06:06.998Z</time></trkpt><trkpt lat="44.76893220753153" lon="9.75714783025477"><ele>651.1666666666666</ele><time>2026-03-28T08:06:09.998Z</time></trkpt><trkpt lat="44.76888946016518" lon="9.757037455609723"><ele>653.0</ele><time>2026-03-28T08:06:12.998Z</time></trkpt><trkpt lat="44.76883721904479" lon="9.756938416201193"><ele>654.5</ele><time>2026-03-28T08:06:15.998Z</time></trkpt><trkpt lat="44.76879013835301" lon="9.756848595649544"><ele>656.0</ele><time>2026-03-28T08:06:19Z</time></trkpt><trkpt lat="44.76874048155435" lon="9.756754357330475"><ele>657.5</ele><time>2026-03-28T08:06:22Z</time></trkpt><trkpt lat="44.76868967842929" lon="9.75666901571308"><ele>659.0</ele><time>2026-03-28T08:06:25Z</time></trkpt><trkpt lat="44.7686426437234" lon="9.756574587870864"><ele>660.5</ele><time>2026-03-28T08:06:28Z</time></trkpt><trkpt lat="44.76859155532494" lon="9.756494158635096"><ele>662.0</ele><time>2026-03-28T08:06:31Z</time></trkpt><trkpt lat="44.76852450971557" lon="9.756411924988731"><ele>662.0</ele><time>2026-03-28T08:06:34Z</time></trkpt><trkpt lat="44.768477424082455" lon="9.756336996954268"><ele>662.0</ele><time>2026-03-28T08:06:37Z</time></trkpt><trkpt lat="44.76840550550456" lon="9.756267243263405"><ele>662.0</ele><time>2026-03-28T08:06:40Z</time></trkpt><trkpt lat="44.76833848405693" lon="9.756209855173722"><ele>662.0</ele><time>2026-03-28T08:06:43Z</time></trkpt><trkpt lat="44.76827544126989" lon="9.756155017163517"><ele>662.0</ele><time>2026-03-28T08:06:46Z</time></trkpt><trkpt lat="44.76820512853048" lon="9.756097128249122"><ele>662.0</ele><time>2026-03-28T08:06:49Z</time></trkpt><trkpt lat="44.76812445373537" lon="9.756044555450412"><ele>662.0</ele><time>2026-03-28T08:06:52Z</time></trkpt><trkpt lat="44.76804315247903" lon="9.756012721047282"><ele>662.0</ele><time>2026-03-28T08:06:54.999Z</time></trkpt><trkpt lat="44.767970795495856" lon="9.75600802032048"><ele>662.0</ele><time>2026-03-28T08:06:57.999Z</time></trkpt><trkpt lat="44.76789416376535" lon="9.756019840890342"><ele>662.0</ele><time>2026-03-28T08:07:00.999Z</time></trkpt><trkpt lat="44.767820266654184" lon="9.75605844730142"><ele>662.0</ele><time>2026-03-28T08:07:03.999Z</time></trkpt><trkpt lat="44.7677400852695" lon="9.75609434161272"><ele>662.0</ele><time>2026-03-28T08:07:06.999Z</time></trkpt><trkpt lat="44.76766009229737" lon="9.756121990063901"><ele>662.6666666666666</ele><time>2026-03-28T08:07:09.999Z</time></trkpt><trkpt lat="44.76758733862576" lon="9.75614508976128"><ele>663.3333333333333</ele><time>2026-03-28T08:07:12.999Z</time></trkpt><trkpt lat="44.767511792660194" lon="9.756143281531667"><ele>664.0</ele><time>2026-03-28T08:07:15.999Z</time></trkpt><trkpt lat="44.76743145822581" lon="9.75612259158703"><ele>664.6666666666666</ele><time>2026-03-28T08:07:18.999Z</time></trkpt><trkpt lat="44.76735137914872" lon="9.756090124146372"><ele>665.3333333333334</ele><time>2026-03-28T08:07:21.999Z</time></trkpt><trkpt lat="44.767272189055994" lon="9.756053968244515"><ele>666.0</ele><time>2026-03-28T08:07:24.999Z</time></trkpt><trkpt lat="44.767208526870895" lon="9.755999345142929"><ele>667.4285714285714</ele><time>2026-03-28T08:07:27.999Z</time></trkpt><trkpt lat="44.767142479539345" lon="9.755950558162601"><ele>668.8571428571428</ele><time>2026-03-28T08:07:30.999Z</time></trkpt><trkpt lat="44.76709068859117" lon="9.755888173837386"><ele>670.2857142857142</ele><time>2026-03-28T08:07:33.999Z</time></trkpt><trkpt lat="44.767046091033016" lon="9.755807402985289"><ele>671.7142857142858</ele><time>2026-03-28T08:07:36.999Z</time></trkpt><trkpt lat="44.76701866164273" lon="9.755707908261629"><ele>673.1428571428571</ele><time>2026-03-28T08:07:39.999Z</time></trkpt><trkpt lat="44.76701895862718" lon="9.755610048808576"><ele>674.5714285714286</ele><time>2026-03-28T08:07:42.999Z</time></trkpt><trkpt lat="44.76702910090758" lon="9.755513743122975"><ele>676.0</ele><time>2026-03-28T08:07:45.998Z</time></trkpt><trkpt lat="44.76702378143498" lon="9.755418923644958"><ele>676.0</ele><time>2026-03-28T08:07:48.998Z</time></trkpt><trkpt lat="44.76699601837287" lon="9.755334915830005"><ele>676.0</ele><time>2026-03-28T08:07:51.998Z</time></trkpt><trkpt lat="44.76691497549168" lon="9.755291895687552"><ele>676.0</ele><time>2026-03-28T08:07:55.998Z</time></trkpt><trkpt lat="44.76684238070111" lon="9.755320267087095"><ele>676.0</ele><time>2026-03-28T08:07:58.998Z</time></trkpt><trkpt lat="44.766775376989514" lon="9.755371611319232"><ele>676.0</ele><time>2026-03-28T08:08:01.998Z</time></trkpt><trkpt lat="44.76671456217646" lon="9.755420876628616"><ele>676.0</ele><time>2026-03-28T08:08:04.998Z</time></trkpt><trkpt lat="44.76665386520427" lon="9.755466519511291"><ele>676.0</ele><time>2026-03-28T08:08:06.998Z</time></trkpt><trkpt lat="44.766583405052174" lon="9.755530400606276"><ele>676.6666666666667</ele><time>2026-03-28T08:08:09.998Z</time></trkpt><trkpt lat="44.76652308824195" lon="9.755591736806547"><ele>677.3333333333334</ele><time>2026-03-28T08:08:12.998Z</time></trkpt><trkpt lat="44.76644723107205" lon="9.755623686290669"><ele>678.0</ele><time>2026-03-28T08:08:15.998Z</time></trkpt><trkpt lat="44.766368525966946" lon="9.755609693298673"><ele>678.6666666666666</ele><time>2026-03-28T08:08:18.998Z</time></trkpt><trkpt lat="44.76630370119116" lon="9.755535163622264"><ele>679.3333333333333</ele><time>2026-03-28T08:08:22Z</time></trkpt><trkpt lat="44.76625339165489" lon="9.755441312529154"><ele>680.0</ele><time>2026-03-28T08:08:25Z</time></trkpt><trkpt lat="44.76620587018234" lon="9.755350988456316"><ele>680.0</ele><time>2026-03-28T08:08:28Z</time></trkpt><trkpt lat="44.76616599251863" lon="9.755250090032309"><ele>680.0</ele><time>2026-03-28T08:08:31Z</time></trkpt><trkpt lat="44.76612050649695" lon="9.755159847252008"><ele>680.0</ele><time>2026-03-28T08:08:34Z</time></trkpt><trkpt lat="44.76607704780283" lon="9.755066355221746"><ele>680.0</ele><time>2026-03-28T08:08:37Z</time></trkpt><trkpt lat="44.76604023412054" lon="9.754968027732405"><ele>680.0</ele><time>2026-03-28T08:08:40Z</time></trkpt><trkpt lat="44.7660115695724" lon="9.754862243055726"><ele>680.0</ele><time>2026-03-28T08:08:43Z</time></trkpt><trkpt lat="44.76601839154526" lon="9.754744193920288"><ele>682.0</ele><time>2026-03-28T08:08:46Z</time></trkpt><trkpt lat="44.76605071532337" lon="9.754628698380092"><ele>684.0</ele><time>2026-03-28T08:08:49Z</time></trkpt><trkpt lat="44.766099904997446" lon="9.75452306439765"><ele>686.0</ele><time>2026-03-28T08:08:52Z</time></trkpt><trkpt lat="44.76616458316005" lon="9.754434731386903"><ele>688.0</ele><time>2026-03-28T08:08:55Z</time></trkpt><trkpt lat="44.76623224279589" lon="9.75436536565608"><ele>690.0</ele><time>2026-03-28T08:08:58Z</time></trkpt><trkpt lat="44.76630304789851" lon="9.754303883167635"><ele>692.0</ele><time>2026-03-28T08:09:01Z</time></trkpt><trkpt lat="44.76637721432899" lon="9.754260721304938"><ele>692.0</ele><time>2026-03-28T08:09:04Z</time></trkpt><trkpt lat="44.766453094035235" lon="9.754268240122267"><ele>692.0</ele><time>2026-03-28T08:09:07Z</time></trkpt><trkpt lat="44.76652148087604" lon="9.754329433257608"><ele>692.0</ele><time>2026-03-28T08:09:10Z</time></trkpt><trkpt lat="44.766543427698956" lon="9.754441109221048"><ele>692.0</ele><time>2026-03-28T08:09:13Z</time></trkpt><trkpt lat="44.76649833072103" lon="9.754545302445893"><ele>692.0</ele><time>2026-03-28T08:09:15.999Z</time></trkpt><trkpt lat="44.766423885066644" lon="9.754613463789156"><ele>692.0</ele><time>2026-03-28T08:09:18.999Z</time></trkpt><trkpt lat="44.766354125229284" lon="9.754697692327785"><ele>692.0</ele><time>2026-03-28T08:09:21.999Z</time></trkpt><trkpt lat="44.76635324109798" lon="9.754820173487872"><ele>692.0</ele><time>2026-03-28T08:09:24.999Z</time></trkpt><trkpt lat="44.76640333087174" lon="9.754919615061667"><ele>692.0</ele><time>2026-03-28T08:09:27.999Z</time></trkpt><trkpt lat="44.7664818214969" lon="9.7549395994557"><ele>692.0</ele><time>2026-03-28T08:09:30.999Z</time></trkpt><trkpt lat="44.76655921485538" lon="9.754895839199616"><ele>692.0</ele><time>2026-03-28T08:09:33.999Z</time></trkpt><trkpt lat="44.76663603957426" lon="9.754828972517743"><ele>692.0</ele><time>2026-03-28T08:09:36.999Z</time></trkpt><trkpt lat="44.76670576076914" lon="9.754751878370636"><ele>692.0</ele><time>2026-03-28T08:09:39.999Z</time></trkpt><trkpt lat="44.766783206605545" lon="9.754701372586313"><ele>692.0</ele><time>2026-03-28T08:09:42.999Z</time></trkpt><trkpt lat="44.76685865964876" lon="9.754664899086618"><ele>692.0</ele><time>2026-03-28T08:09:45.999Z</time></trkpt><trkpt lat="44.766942261805106" lon="9.754639865348564"><ele>692.0</ele><time>2026-03-28T08:09:48.999Z</time></trkpt><trkpt lat="44.767026083416326" lon="9.754640992579873"><ele>692.0</ele><time>2026-03-28T08:09:51.999Z</time></trkpt><trkpt lat="44.767107279169856" lon="9.754657605326498"><ele>692.0</ele><time>2026-03-28T08:09:54.999Z</time></trkpt><trkpt lat="44.76718833380743" lon="9.754676108579696"><ele>691.8333333333333</ele><time>2026-03-28T08:09:57.999Z</time></trkpt><trkpt lat="44.76727102411594" lon="9.7546890980517"><ele>691.6666666666666</ele><time>2026-03-28T08:10:00.999Z</time></trkpt><trkpt lat="44.76735286907268" lon="9.754672911728576"><ele>691.5</ele><time>2026-03-28T08:10:03.999Z</time></trkpt><trkpt lat="44.76741945771161" lon="9.754602404104153"><ele>691.3333333333334</ele><time>2026-03-28T08:10:06.999Z</time></trkpt><trkpt lat="44.767465355769296" lon="9.754500276494271"><ele>691.1666666666667</ele><time>2026-03-28T08:10:09.999Z</time></trkpt><trkpt lat="44.76749764856786" lon="9.754386993036665"><ele>691.0</ele><time>2026-03-28T08:10:12.999Z</time></trkpt><trkpt lat="44.76753046971835" lon="9.754274761497161"><ele>692.1666666666667</ele><time>2026-03-28T08:10:15.998Z</time></trkpt><trkpt lat="44.76755474376741" lon="9.754172726245951"><ele>693.3333333333334</ele><time>2026-03-28T08:10:18.998Z</time></trkpt><trkpt lat="44.76760604960673" lon="9.754067905209427"><ele>694.5</ele><time>2026-03-28T08:10:21.998Z</time></trkpt><trkpt lat="44.76765714268317" lon="9.753972108436399"><ele>695.6666666666666</ele><time>2026-03-28T08:10:24.998Z</time></trkpt><trkpt lat="44.76770782142753" lon="9.753886797155467"><ele>696.8333333333333</ele><time>2026-03-28T08:10:28Z</time></trkpt><trkpt lat="44.76776254386111" lon="9.753804095370189"><ele>698.0</ele><time>2026-03-28T08:10:31Z</time></trkpt><trkpt lat="44.76782252659836" lon="9.753723222252363"><ele>698.0</ele><time>2026-03-28T08:10:34Z</time></trkpt><trkpt lat="44.76787823094714" lon="9.75365042739003"><ele>698.0</ele><time>2026-03-28T08:10:37Z</time></trkpt><trkpt lat="44.767943617273666" lon="9.753585052460256"><ele>698.0</ele><time>2026-03-28T08:10:40Z</time></trkpt><trkpt lat="44.768022666939515" lon="9.753554765806141"><ele>698.0</ele><time>2026-03-28T08:10:43Z</time></trkpt><trkpt lat="44.76810085430582" lon="9.753543939673296"><ele>698.0</ele><time>2026-03-28T08:10:46Z</time></trkpt><trkpt lat="44.76817547067753" lon="9.75354222377198"><ele>698.0</ele><time>2026-03-28T08:10:49Z</time></trkpt><trkpt lat="44.76824400228207" lon="9.753489671426014"><ele>700.0</ele><time>2026-03-28T08:10:52Z</time></trkpt><trkpt lat="44.768245105092504" lon="9.75336076106089"><ele>702.0</ele><time>2026-03-28T08:10:55Z</time></trkpt><trkpt lat="44.76818180224743" lon="9.753299293051173"><ele>704.0</ele><time>2026-03-28T08:10:58Z</time></trkpt><trkpt lat="44.768112663634604" lon="9.753289142765551"><ele>706.0</ele><time>2026-03-28T08:11:01Z</time></trkpt><trkpt lat="44.76802494442242" lon="9.753298999273877"><ele>708.0</ele><time>2026-03-28T08:11:04Z</time></trkpt><trkpt lat="44.76793530219547" lon="9.753306685287239"><ele>710.0</ele><time>2026-03-28T08:11:07Z</time></trkpt><trkpt lat="44.767848305579925" lon="9.753283380997258"><ele>710.0</ele><time>2026-03-28T08:11:10Z</time></trkpt><trkpt lat="44.76777699078896" lon="9.7532115283936"><ele>710.0</ele><time>2026-03-28T08:11:13Z</time></trkpt><trkpt lat="44.7677367357879" lon="9.753109347556881"><ele>710.0</ele><time>2026-03-28T08:11:16Z</time></trkpt><trkpt lat="44.76773534219101" lon="9.752997814840123"><ele>710.0</ele><time>2026-03-28T08:11:19Z</time></trkpt><trkpt lat="44.7677694637322" lon="9.75289528385248"><ele>710.0</ele><time>2026-03-28T08:11:21.999Z</time></trkpt><trkpt lat="44.76782517827836" lon="9.752810750810584"><ele>710.0</ele><time>2026-03-28T08:11:24.999Z</time></trkpt><trkpt lat="44.767887870311085" lon="9.752721657912971"><ele>711.0</ele><time>2026-03-28T08:11:27.999Z</time></trkpt><trkpt lat="44.76793340713861" lon="9.752612458614928"><ele>712.0</ele><time>2026-03-28T08:11:30.999Z</time></trkpt><trkpt lat="44.76793164267869" lon="9.752520500471231"><ele>713.0</ele><time>2026-03-28T08:11:32.999Z</time></trkpt><trkpt lat="44.7678927043617" lon="9.752405069649502"><ele>714.0</ele><time>2026-03-28T08:11:35.999Z</time></trkpt><trkpt lat="44.76782764072691" lon="9.752326403889418"><ele>715.0</ele><time>2026-03-28T08:11:38.999Z</time></trkpt><trkpt lat="44.76775716683956" lon="9.752264986489195"><ele>716.0</ele><time>2026-03-28T08:11:41.999Z</time></trkpt><trkpt lat="44.76770365369366" lon="9.752174765436388"><ele>716.0</ele><time>2026-03-28T08:11:44.999Z</time></trkpt><trkpt lat="44.767687062714096" lon="9.752058146202055"><ele>716.0</ele><time>2026-03-28T08:11:47.999Z</time></trkpt><trkpt lat="44.76771930775498" lon="9.751954701664774"><ele>716.0</ele><time>2026-03-28T08:11:50.999Z</time></trkpt><trkpt lat="44.767752193612694" lon="9.751844586380606"><ele>716.0</ele><time>2026-03-28T08:11:53.999Z</time></trkpt><trkpt lat="44.76776526625349" lon="9.751725580660144"><ele>716.0</ele><time>2026-03-28T08:11:56.999Z</time></trkpt><trkpt lat="44.76774212254885" lon="9.751616580444937"><ele>716.0</ele><time>2026-03-28T08:11:59.999Z</time></trkpt><trkpt lat="44.76769300687265" lon="9.751525499290175"><ele>718.3333333333333</ele><time>2026-03-28T08:12:02.999Z</time></trkpt><trkpt lat="44.76763177007881" lon="9.751457979679845"><ele>720.6666666666666</ele><time>2026-03-28T08:12:05.999Z</time></trkpt><trkpt lat="44.76755223824703" lon="9.751422777744263"><ele>723.0</ele><time>2026-03-28T08:12:08.999Z</time></trkpt><trkpt lat="44.76746693979303" lon="9.751430010819998"><ele>725.3333333333334</ele><time>2026-03-28T08:12:11.999Z</time></trkpt><trkpt lat="44.76740680318291" lon="9.751460857942309"><ele>727.6666666666667</ele><time>2026-03-28T08:12:13.999Z</time></trkpt><trkpt lat="44.76732320577323" lon="9.751508508681358"><ele>730.0</ele><time>2026-03-28T08:12:16.999Z</time></trkpt><trkpt lat="44.76723652863502" lon="9.751542109724488"><ele>730.0</ele><time>2026-03-28T08:12:19.998Z</time></trkpt><trkpt lat="44.767151063656165" lon="9.75153473416596"><ele>730.0</ele><time>2026-03-28T08:12:22.998Z</time></trkpt><trkpt lat="44.76709251089262" lon="9.751500827704803"><ele>730.0</ele><time>2026-03-28T08:12:24.998Z</time></trkpt><trkpt lat="44.767025959437944" lon="9.751446528707588"><ele>730.0</ele><time>2026-03-28T08:12:27.998Z</time></trkpt><trkpt lat="44.76695577445578" lon="9.75140654692359"><ele>730.0</ele><time>2026-03-28T08:12:30.998Z</time></trkpt><trkpt lat="44.76687826092999" lon="9.75139517180573"><ele>730.0</ele><time>2026-03-28T08:12:34Z</time></trkpt><trkpt lat="44.76679935166271" lon="9.751422380181744"><ele>730.1666666666667</ele><time>2026-03-28T08:12:37Z</time></trkpt><trkpt lat="44.766713111836594" lon="9.751442338484171"><ele>730.3333333333334</ele><time>2026-03-28T08:12:40Z</time></trkpt><trkpt lat="44.766649773068494" lon="9.75146051438426"><ele>730.5</ele><time>2026-03-28T08:12:42Z</time></trkpt><trkpt lat="44.76658574211029" lon="9.751444306766407"><ele>730.6666666666666</ele><time>2026-03-28T08:12:44Z</time></trkpt><trkpt lat="44.76650590142967" lon="9.75138182392446"><ele>730.8333333333333</ele><time>2026-03-28T08:12:47Z</time></trkpt><trkpt lat="44.766474351823" lon="9.75126203591784"><ele>731.0</ele><time>2026-03-28T08:12:50Z</time></trkpt><trkpt lat="44.766482269501616" lon="9.751145984773231"><ele>733.8333333333333</ele><time>2026-03-28T08:12:53Z</time></trkpt><trkpt lat="44.76650927962904" lon="9.751032287189537"><ele>736.6666666666666</ele><time>2026-03-28T08:12:56Z</time></trkpt><trkpt lat="44.766514114995495" lon="9.750927912450122"><ele>739.5</ele><time>2026-03-28T08:12:59Z</time></trkpt><trkpt lat="44.76650720935635" lon="9.750815171408739"><ele>742.3333333333334</ele><time>2026-03-28T08:13:02Z</time></trkpt><trkpt lat="44.76649740315926" lon="9.750702304800457"><ele>745.1666666666667</ele><time>2026-03-28T08:13:05Z</time></trkpt><trkpt lat="44.76647854540459" lon="9.75059204006502"><ele>748.0</ele><time>2026-03-28T08:13:08Z</time></trkpt><trkpt lat="44.76646955884432" lon="9.75046704696821"><ele>748.0</ele><time>2026-03-28T08:13:11Z</time></trkpt><trkpt lat="44.76646009093788" lon="9.750350831065736"><ele>748.0</ele><time>2026-03-28T08:13:14Z</time></trkpt><trkpt lat="44.76644247708296" lon="9.750230043120931"><ele>748.0</ele><time>2026-03-28T08:13:17Z</time></trkpt><trkpt lat="44.76642681979638" lon="9.750104698239795"><ele>748.0</ele><time>2026-03-28T08:13:20Z</time></trkpt><trkpt lat="44.76639541026916" lon="9.749992635103881"><ele>748.0</ele><time>2026-03-28T08:13:23Z</time></trkpt><trkpt lat="44.7663687612877" lon="9.749910659219678"><ele>748.0</ele><time>2026-03-28T08:13:25Z</time></trkpt><trkpt lat="44.76633344871872" lon="9.749791637463538"><ele>750.0</ele><time>2026-03-28T08:13:28Z</time></trkpt><trkpt lat="44.76629723754809" lon="9.74966896302356"><ele>752.0</ele><time>2026-03-28T08:13:30.999Z</time></trkpt><trkpt lat="44.76626249313011" lon="9.749572885370494"><ele>754.0</ele><time>2026-03-28T08:13:33.999Z</time></trkpt><trkpt lat="44.76623785324959" lon="9.749457845452262"><ele>756.0</ele><time>2026-03-28T08:13:36.999Z</time></trkpt><trkpt lat="44.76623657410845" lon="9.749343864352848"><ele>758.0</ele><time>2026-03-28T08:13:39.999Z</time></trkpt><trkpt lat="44.76625229034301" lon="9.749227213840618"><ele>760.0</ele><time>2026-03-28T08:13:42.999Z</time></trkpt><trkpt lat="44.76629657721537" lon="9.74912020278308"><ele>761.0</ele><time>2026-03-28T08:13:45.999Z</time></trkpt><trkpt lat="44.766350219341035" lon="9.749025268620699"><ele>762.0</ele><time>2026-03-28T08:13:48.999Z</time></trkpt><trkpt lat="44.76640687086351" lon="9.748936204034102"><ele>763.0</ele><time>2026-03-28T08:13:51.999Z</time></trkpt><trkpt lat="44.766461845222565" lon="9.74884632619447"><ele>764.0</ele><time>2026-03-28T08:13:54.999Z</time></trkpt><trkpt lat="44.76651715079944" lon="9.7487622565606"><ele>765.0</ele><time>2026-03-28T08:13:57.999Z</time></trkpt><trkpt lat="44.76656941364963" lon="9.748677274502084"><ele>766.0</ele><time>2026-03-28T08:14:00.999Z</time></trkpt><trkpt lat="44.766621011204144" lon="9.748582263872052"><ele>765.6666666666667</ele><time>2026-03-28T08:14:03.999Z</time></trkpt><trkpt lat="44.766678983167395" lon="9.748496486423335"><ele>765.3333333333334</ele><time>2026-03-28T08:14:06.999Z</time></trkpt><trkpt lat="44.7667277318037" lon="9.748412474302144"><ele>765.0</ele><time>2026-03-28T08:14:09.999Z</time></trkpt><trkpt lat="44.76677462555235" lon="9.748314209122796"><ele>764.6666666666666</ele><time>2026-03-28T08:14:12.999Z</time></trkpt><trkpt lat="44.766797491262636" lon="9.748198534168395"><ele>764.3333333333333</ele><time>2026-03-28T08:14:15.999Z</time></trkpt><trkpt lat="44.76681136402728" lon="9.74806815452989"><ele>764.0</ele><time>2026-03-28T08:14:18.999Z</time></trkpt><trkpt lat="44.766806804447086" lon="9.747947209084243"><ele>764.0</ele><time>2026-03-28T08:14:21.999Z</time></trkpt><trkpt lat="44.76684272789801" lon="9.747838793578048"><ele>764.0</ele><time>2026-03-28T08:14:24.999Z</time></trkpt><trkpt lat="44.7669188386746" lon="9.747795830339236"><ele>764.0</ele><time>2026-03-28T08:14:27.999Z</time></trkpt><trkpt lat="44.76698220955962" lon="9.747856064998949"><ele>764.0</ele><time>2026-03-28T08:14:30.998Z</time></trkpt><trkpt lat="44.76699948859075" lon="9.747963226213095"><ele>764.0</ele><time>2026-03-28T08:14:33.998Z</time></trkpt><trkpt lat="44.76697061812814" lon="9.748076368560332"><ele>764.0</ele><time>2026-03-28T08:14:36.998Z</time></trkpt><trkpt lat="44.766927191209206" lon="9.74818047029705"><ele>766.1666666666666</ele><time>2026-03-28T08:14:40Z</time></trkpt><trkpt lat="44.76691750425071" lon="9.748300323693245"><ele>768.3333333333333</ele><time>2026-03-28T08:14:43Z</time></trkpt><trkpt lat="44.76693779214135" lon="9.748417503989305"><ele>770.5</ele><time>2026-03-28T08:14:46Z</time></trkpt><trkpt lat="44.766950976121166" lon="9.74852786899268"><ele>772.6666666666666</ele><time>2026-03-28T08:14:49Z</time></trkpt><trkpt lat="44.76695008111359" lon="9.748635935410308"><ele>774.8333333333334</ele><time>2026-03-28T08:14:52Z</time></trkpt><trkpt lat="44.766963190230676" lon="9.748764264135485"><ele>777.0</ele><time>2026-03-28T08:14:55Z</time></trkpt><trkpt lat="44.76697581801589" lon="9.748870004262404"><ele>777.0</ele><time>2026-03-28T08:14:58Z</time></trkpt><trkpt lat="44.7669733632586" lon="9.748987593264445"><ele>777.0</ele><time>2026-03-28T08:15:01Z</time></trkpt><trkpt lat="44.76698985512741" lon="9.749106124852146"><ele>777.0</ele><time>2026-03-28T08:15:04Z</time></trkpt><trkpt lat="44.7670102819162" lon="9.74922216508074"><ele>777.0</ele><time>2026-03-28T08:15:07Z</time></trkpt><trkpt lat="44.767049019971246" lon="9.749340684345256"><ele>777.0</ele><time>2026-03-28T08:15:10Z</time></trkpt><trkpt lat="44.76710871519181" lon="9.749449147912152"><ele>777.0</ele><time>2026-03-28T08:15:13Z</time></trkpt><trkpt lat="44.76717636055485" lon="9.749520757064772"><ele>777.0</ele><time>2026-03-28T08:15:16Z</time></trkpt><trkpt lat="44.76724983113727" lon="9.74956325061586"><ele>777.0</ele><time>2026-03-28T08:15:19Z</time></trkpt><trkpt lat="44.76732698039849" lon="9.749579013652578"><ele>777.0</ele><time>2026-03-28T08:15:22Z</time></trkpt><trkpt lat="44.76740348389099" lon="9.74957035830246"><ele>777.0</ele><time>2026-03-28T08:15:25Z</time></trkpt><trkpt lat="44.767475563736966" lon="9.74952312066722"><ele>777.0</ele><time>2026-03-28T08:15:28Z</time></trkpt><trkpt lat="44.76754010703759" lon="9.74945806055671"><ele>777.0</ele><time>2026-03-28T08:15:31Z</time></trkpt><trkpt lat="44.76759348673146" lon="9.74937107450106"><ele>777.0</ele><time>2026-03-28T08:15:34Z</time></trkpt><trkpt lat="44.76763236338927" lon="9.749275263353592"><ele>777.0</ele><time>2026-03-28T08:15:36.999Z</time></trkpt><trkpt lat="44.76763801230815" lon="9.749170707783025"><ele>777.0</ele><time>2026-03-28T08:15:39.999Z</time></trkpt><trkpt lat="44.767631288731515" lon="9.749069140744147"><ele>777.0</ele><time>2026-03-28T08:15:42.999Z</time></trkpt><trkpt lat="44.76761144382914" lon="9.748962935004679"><ele>777.0</ele><time>2026-03-28T08:15:45.999Z</time></trkpt><trkpt lat="44.767568514855455" lon="9.748863989548342"><ele>777.0</ele><time>2026-03-28T08:15:48.999Z</time></trkpt><trkpt lat="44.76752114895051" lon="9.7487780650721"><ele>777.0</ele><time>2026-03-28T08:15:51.999Z</time></trkpt><trkpt lat="44.767486497353296" lon="9.748683804748527"><ele>777.0</ele><time>2026-03-28T08:15:54.999Z</time></trkpt><trkpt lat="44.76747290846506" lon="9.748593733449958"><ele>777.0</ele><time>2026-03-28T08:15:56.999Z</time></trkpt><trkpt lat="44.76748297194976" lon="9.74847784883246"><ele>777.0</ele><time>2026-03-28T08:15:59.999Z</time></trkpt><trkpt lat="44.767512789728094" lon="9.74836696358301"><ele>777.0</ele><time>2026-03-28T08:16:02.999Z</time></trkpt><trkpt lat="44.76753074721332" lon="9.74826225164406"><ele>777.0</ele><time>2026-03-28T08:16:05.999Z</time></trkpt><trkpt lat="44.7675629969099" lon="9.748154964897934"><ele>778.0</ele><time>2026-03-28T08:16:08.999Z</time></trkpt><trkpt lat="44.7675839690375" lon="9.748048641733076"><ele>779.0</ele><time>2026-03-28T08:16:11.999Z</time></trkpt><trkpt lat="44.767602650188614" lon="9.747939466421057"><ele>780.0</ele><time>2026-03-28T08:16:14.999Z</time></trkpt><trkpt lat="44.76762513815074" lon="9.74783464064876"><ele>781.0</ele><time>2026-03-28T08:16:17.999Z</time></trkpt><trkpt lat="44.767643628773776" lon="9.747739696411898"><ele>782.0</ele><time>2026-03-28T08:16:20.999Z</time></trkpt><trkpt lat="44.76766894581036" lon="9.747636145836498"><ele>783.0</ele><time>2026-03-28T08:16:23.999Z</time></trkpt><trkpt lat="44.76768989662809" lon="9.747547786965516"><ele>785.0</ele><time>2026-03-28T08:16:26.999Z</time></trkpt><trkpt lat="44.7677162985433" lon="9.747454836667604"><ele>787.0</ele><time>2026-03-28T08:16:29.999Z</time></trkpt><trkpt lat="44.767743728865014" lon="9.747342453734175"><ele>789.0</ele><time>2026-03-28T08:16:32.999Z</time></trkpt><trkpt lat="44.7677662290233" lon="9.747242730992314"><ele>791.0</ele><time>2026-03-28T08:16:35.998Z</time></trkpt><trkpt lat="44.76778154505137" lon="9.747141590052934"><ele>793.0</ele><time>2026-03-28T08:16:38.998Z</time></trkpt><trkpt lat="44.76778753596842" lon="9.747040070077192"><ele>795.0</ele><time>2026-03-28T08:16:41.998Z</time></trkpt><trkpt lat="44.767797006558034" lon="9.746926159876798"><ele>794.5</ele><time>2026-03-28T08:16:45Z</time></trkpt><trkpt lat="44.76779459905285" lon="9.746824689411875"><ele>794.0</ele><time>2026-03-28T08:16:48Z</time></trkpt><trkpt lat="44.76779913141091" lon="9.746713726081037"><ele>793.5</ele><time>2026-03-28T08:16:51Z</time></trkpt><trkpt lat="44.76780285209079" lon="9.746601002838647"><ele>793.0</ele><time>2026-03-28T08:16:54Z</time></trkpt><trkpt lat="44.76780493220904" lon="9.746488863981332"><ele>792.5</ele><time>2026-03-28T08:16:57Z</time></trkpt><trkpt lat="44.7678101747952" lon="9.746375183022948"><ele>792.0</ele><time>2026-03-28T08:17:00Z</time></trkpt><trkpt lat="44.76781018655221" lon="9.74626188826994"><ele>792.0</ele><time>2026-03-28T08:17:03Z</time></trkpt><trkpt lat="44.767805607204984" lon="9.746143625020972"><ele>792.0</ele><time>2026-03-28T08:17:06Z</time></trkpt><trkpt lat="44.76778970738068" lon="9.746029183078097"><ele>792.0</ele><time>2026-03-28T08:17:09Z</time></trkpt><trkpt lat="44.76776116379439" lon="9.745911153681261"><ele>792.0</ele><time>2026-03-28T08:17:12Z</time></trkpt><trkpt lat="44.767725335295054" lon="9.745798261979518"><ele>792.0</ele><time>2026-03-28T08:17:15Z</time></trkpt><trkpt lat="44.767685580259695" lon="9.745683182267456"><ele>792.0</ele><time>2026-03-28T08:17:18Z</time></trkpt><trkpt lat="44.76766650919421" lon="9.745597765167094"><ele>791.8333333333334</ele><time>2026-03-28T08:17:20Z</time></trkpt><trkpt lat="44.76764957832274" lon="9.745504705331607"><ele>791.6666666666667</ele><time>2026-03-28T08:17:22Z</time></trkpt><trkpt lat="44.76763455980802" lon="9.74541850828666"><ele>791.5</ele><time>2026-03-28T08:17:24Z</time></trkpt><trkpt lat="44.76760695969057" lon="9.745300644979839"><ele>791.3333333333334</ele><time>2026-03-28T08:17:27Z</time></trkpt><trkpt lat="44.76757536159977" lon="9.745182263771502"><ele>791.1666666666667</ele><time>2026-03-28T08:17:30Z</time></trkpt><trkpt lat="44.76754260953407" lon="9.745072026033494"><ele>791.0</ele><time>2026-03-28T08:17:33Z</time></trkpt><trkpt lat="44.76750630066596" lon="9.744976521449285"><ele>792.1428571428571</ele><time>2026-03-28T08:17:36Z</time></trkpt><trkpt lat="44.76747136056905" lon="9.744876093320746"><ele>793.2857142857142</ele><time>2026-03-28T08:17:39Z</time></trkpt><trkpt lat="44.76743943627635" lon="9.744787561857457"><ele>794.4285714285714</ele><time>2026-03-28T08:17:41.999Z</time></trkpt><trkpt lat="44.767403129572216" lon="9.744708816139205"><ele>795.5714285714286</ele><time>2026-03-28T08:17:44.999Z</time></trkpt><trkpt lat="44.76736661562004" lon="9.744606547927038"><ele>796.7142857142857</ele><time>2026-03-28T08:17:48.999Z</time></trkpt><trkpt lat="44.76733791427251" lon="9.744526951898207"><ele>797.8571428571429</ele><time>2026-03-28T08:17:51.999Z</time></trkpt><trkpt lat="44.767299509542" lon="9.744428046344318"><ele>799.0</ele><time>2026-03-28T08:17:55.999Z</time></trkpt><trkpt lat="44.76726915445617" lon="9.744327963036348"><ele>800.0</ele><time>2026-03-28T08:17:59.999Z</time></trkpt><trkpt lat="44.767232672929595" lon="9.744239383667258"><ele>801.0</ele><time>2026-03-28T08:18:03.999Z</time></trkpt><trkpt lat="44.76720091485144" lon="9.744147333311238"><ele>802.0</ele><time>2026-03-28T08:18:07.999Z</time></trkpt><trkpt lat="44.767168768391535" lon="9.744055399459162"><ele>803.0</ele><time>2026-03-28T08:18:11.999Z</time></trkpt><trkpt lat="44.767148975380806" lon="9.743971060794609"><ele>804.0</ele><time>2026-03-28T08:18:15.999Z</time></trkpt><trkpt lat="44.76712166544438" lon="9.743881118728106"><ele>805.0</ele><time>2026-03-28T08:18:19.999Z</time></trkpt><trkpt lat="44.76710693270955" lon="9.743790168393442"><ele>806.0</ele><time>2026-03-28T08:18:23.999Z</time></trkpt><trkpt lat="44.76709118169706" lon="9.743690477792097"><ele>806.0000000000001</ele><time>2026-03-28T08:18:27.999Z</time></trkpt><trkpt lat="44.767082827963854" lon="9.743583615178629"><ele>806.0</ele><time>2026-03-28T08:18:31.999Z</time></trkpt><trkpt lat="44.76708876905035" lon="9.743479265337127"><ele>806.0</ele><time>2026-03-28T08:18:35.999Z</time></trkpt><trkpt lat="44.76706886053399" lon="9.743368572220142"><ele>806.0</ele><time>2026-03-28T08:18:39.998Z</time></trkpt><trkpt lat="44.767061070074384" lon="9.743265457321774"><ele>806.0000000000001</ele><time>2026-03-28T08:18:43.998Z</time></trkpt><trkpt lat="44.76705154870092" lon="9.74315797092524"><ele>806.0</ele><time>2026-03-28T08:18:47.998Z</time></trkpt><trkpt lat="44.76704144604917" lon="9.743046164874308"><ele>805.8333333333334</ele><time>2026-03-28T08:18:52Z</time></trkpt><trkpt lat="44.767022309668654" lon="9.74294150252031"><ele>805.6666666666667</ele><time>2026-03-28T08:18:56Z</time></trkpt><trkpt lat="44.767014044855095" lon="9.742826000158653"><ele>805.5</ele><time>2026-03-28T08:19:00Z</time></trkpt><trkpt lat="44.767005902132944" lon="9.742720414232572"><ele>805.3333333333333</ele><time>2026-03-28T08:19:04Z</time></trkpt><trkpt lat="44.76699435271253" lon="9.742606668941715"><ele>805.1666666666666</ele><time>2026-03-28T08:19:08Z</time></trkpt><trkpt lat="44.76696863426845" lon="9.74249787187993"><ele>805.0</ele><time>2026-03-28T08:19:12Z</time></trkpt><trkpt lat="44.76693805170229" lon="9.742390902596577"><ele>804.8571428571429</ele><time>2026-03-28T08:19:16Z</time></trkpt><trkpt lat="44.76691437239955" lon="9.742304645085003"><ele>804.7142857142858</ele><time>2026-03-28T08:19:19Z</time></trkpt><trkpt lat="44.76689444845842" lon="9.742218648193903"><ele>804.5714285714286</ele><time>2026-03-28T08:19:22Z</time></trkpt><trkpt lat="44.76687351226066" lon="9.742131613247839"><ele>804.4285714285714</ele><time>2026-03-28T08:19:25Z</time></trkpt><trkpt lat="44.76685270912162" lon="9.742021804684978"><ele>804.2857142857143</ele><time>2026-03-28T08:19:29Z</time></trkpt><trkpt lat="44.766833846269144" lon="9.741936269750889"><ele>804.1428571428571</ele><time>2026-03-28T08:19:32Z</time></trkpt><trkpt lat="44.76681532849166" lon="9.741850858395912"><ele>804.0</ele><time>2026-03-28T08:19:35Z</time></trkpt><trkpt lat="44.76678423238513" lon="9.741740422622941"><ele>812.3333333333334</ele><time>2026-03-28T08:19:39Z</time></trkpt><trkpt lat="44.76677122883689" lon="9.741652989579997"><ele>820.6666666666667</ele><time>2026-03-28T08:19:42Z</time></trkpt><trkpt lat="44.766755356852514" lon="9.741565842863572"><ele>829.0</ele><time>2026-03-28T08:19:44.999Z</time></trkpt><trkpt lat="44.76673571529805" lon="9.74145155408998"><ele>837.3333333333334</ele><time>2026-03-28T08:19:48.999Z</time></trkpt><trkpt lat="44.76671497876406" lon="9.741339370236355"><ele>845.6666666666667</ele><time>2026-03-28T08:19:52.999Z</time></trkpt><trkpt lat="44.76669689912941" lon="9.741232600439151"><ele>854.0</ele><time>2026-03-28T08:19:56.999Z</time></trkpt><trkpt lat="44.766679973749405" lon="9.741122547274117"><ele>853.5000000000001</ele><time>2026-03-28T08:20:00.999Z</time></trkpt><trkpt lat="44.766656916432254" lon="9.741014748805393"><ele>853.0</ele><time>2026-03-28T08:20:04.999Z</time></trkpt><trkpt lat="44.766638835151376" lon="9.740905606434191"><ele>852.5</ele><time>2026-03-28T08:20:08.999Z</time></trkpt><trkpt lat="44.7666151505399" lon="9.740804847921012"><ele>852.0</ele><time>2026-03-28T08:20:12.999Z</time></trkpt><trkpt lat="44.76659173410484" lon="9.740704863525865"><ele>851.5000000000001</ele><time>2026-03-28T08:20:16.999Z</time></trkpt><trkpt lat="44.76656323094944" lon="9.740601675831932"><ele>851.0</ele><time>2026-03-28T08:20:20.999Z</time></trkpt><trkpt lat="44.766541172256154" lon="9.740518177801928"><ele>851.0000000000001</ele><time>2026-03-28T08:20:23.999Z</time></trkpt><trkpt lat="44.76652233685959" lon="9.740411191273559"><ele>851.0</ele><time>2026-03-28T08:20:27.999Z</time></trkpt><trkpt lat="44.76651034955991" lon="9.74030741707639"><ele>851.0</ele><time>2026-03-28T08:20:31.999Z</time></trkpt><trkpt lat="44.76649134969768" lon="9.740201343146166"><ele>851.0</ele><time>2026-03-28T08:20:35.999Z</time></trkpt><trkpt lat="44.76649853006728" lon="9.7400954156666"><ele>851.0000000000001</ele><time>2026-03-28T08:20:39.999Z</time></trkpt><trkpt lat="44.766504703742804" lon="9.739982095142947"><ele>851.0</ele><time>2026-03-28T08:20:43.998Z</time></trkpt><trkpt lat="44.76650808215055" lon="9.73987346593774"><ele>851.4285714285714</ele><time>2026-03-28T08:20:47.998Z</time></trkpt><trkpt lat="44.76652434767386" lon="9.739760588229936"><ele>851.8571428571429</ele><time>2026-03-28T08:20:51.998Z</time></trkpt><trkpt lat="44.76652343601398" lon="9.739656661327677"><ele>852.2857142857142</ele><time>2026-03-28T08:20:55.998Z</time></trkpt><trkpt lat="44.76652402423003" lon="9.739563180420872"><ele>852.7142857142858</ele><time>2026-03-28T08:21:00Z</time></trkpt><trkpt lat="44.766531392657754" lon="9.73946148171958"><ele>853.1428571428571</ele><time>2026-03-28T08:21:04Z</time></trkpt><trkpt lat="44.76653217220802" lon="9.739347594090923"><ele>853.5714285714286</ele><time>2026-03-28T08:21:08Z</time></trkpt><trkpt lat="44.76654156126141" lon="9.739257474829701"><ele>854.0</ele><time>2026-03-28T08:21:11Z</time></trkpt><trkpt lat="44.76655473023927" lon="9.739161961644138"><ele>855.5000000000001</ele><time>2026-03-28T08:21:14Z</time></trkpt><trkpt lat="44.76658175636605" lon="9.739068550962758"><ele>857.0</ele><time>2026-03-28T08:21:17Z</time></trkpt><trkpt lat="44.766606939251474" lon="9.738967122699927"><ele>858.5</ele><time>2026-03-28T08:21:20Z</time></trkpt><trkpt lat="44.766633945370174" lon="9.738858987470982"><ele>860.0</ele><time>2026-03-28T08:21:23Z</time></trkpt><trkpt lat="44.76665595711408" lon="9.73874931548599"><ele>861.5000000000001</ele><time>2026-03-28T08:21:26Z</time></trkpt><trkpt lat="44.766680915704924" lon="9.738642166399604"><ele>863.0</ele><time>2026-03-28T08:21:29Z</time></trkpt><trkpt lat="44.76670256336723" lon="9.738542531613822"><ele>865.2857142857143</ele><time>2026-03-28T08:21:32Z</time></trkpt><trkpt lat="44.766721937792745" lon="9.738442253169119"><ele>867.5714285714286</ele><time>2026-03-28T08:21:35Z</time></trkpt><trkpt lat="44.76673869378159" lon="9.73834332275297"><ele>869.8571428571429</ele><time>2026-03-28T08:21:38Z</time></trkpt><trkpt lat="44.766745008917596" lon="9.738244621935655"><ele>872.1428571428571</ele><time>2026-03-28T08:21:41Z</time></trkpt><trkpt lat="44.766765824356106" lon="9.738153755272588"><ele>874.4285714285714</ele><time>2026-03-28T08:21:44Z</time></trkpt><trkpt lat="44.76678420509689" lon="9.738050944810125"><ele>876.7142857142858</ele><time>2026-03-28T08:21:47Z</time></trkpt><trkpt lat="44.76680827538074" lon="9.73795901090196"><ele>879.0</ele><time>2026-03-28T08:21:49.999Z</time></trkpt><trkpt lat="44.76681885031048" lon="9.7378680738464"><ele>879.0</ele><time>2026-03-28T08:21:52.999Z</time></trkpt><trkpt lat="44.76684156812732" lon="9.737773212084022"><ele>879.0</ele><time>2026-03-28T08:21:55.999Z</time></trkpt><trkpt lat="44.766851061906465" lon="9.73768276105492"><ele>879.0</ele><time>2026-03-28T08:21:58.999Z</time></trkpt><trkpt lat="44.766856785144185" lon="9.737589113222489"><ele>879.0</ele><time>2026-03-28T08:22:01.999Z</time></trkpt><trkpt lat="44.76685841382285" lon="9.737498638741105"><ele>879.0</ele><time>2026-03-28T08:22:04.999Z</time></trkpt><trkpt lat="44.76684641346662" lon="9.737411038238271"><ele>879.0</ele><time>2026-03-28T08:22:07.999Z</time></trkpt><trkpt lat="44.76681888118404" lon="9.737304241789918"><ele>879.0</ele><time>2026-03-28T08:22:11.999Z</time></trkpt><trkpt lat="44.766788818235824" lon="9.737226114095316"><ele>880.4285714285714</ele><time>2026-03-28T08:22:14.999Z</time></trkpt><trkpt lat="44.76675453213447" lon="9.737134938470383"><ele>881.8571428571429</ele><time>2026-03-28T08:22:18.999Z</time></trkpt><trkpt lat="44.766706851716165" lon="9.73705713826462"><ele>883.2857142857142</ele><time>2026-03-28T08:22:22.999Z</time></trkpt><trkpt lat="44.76666328062511" lon="9.736985405601057"><ele>884.7142857142858</ele><time>2026-03-28T08:22:26.999Z</time></trkpt><trkpt lat="44.7666094697136" lon="9.736916689010267"><ele>886.1428571428571</ele><time>2026-03-28T08:22:30.999Z</time></trkpt><trkpt lat="44.766617858438515" lon="9.736812607754585"><ele>887.5714285714286</ele><time>2026-03-28T08:22:34.999Z</time></trkpt><trkpt lat="44.766679709264245" lon="9.73676282500521"><ele>889.0</ele><time>2026-03-28T08:22:38.999Z</time></trkpt><trkpt lat="44.76674721143066" lon="9.736730034715736"><ele>889.3333333333333</ele><time>2026-03-28T08:22:43.999Z</time></trkpt><trkpt lat="44.76681132746336" lon="9.736667910325123"><ele>889.6666666666666</ele><time>2026-03-28T08:22:47.998Z</time></trkpt><trkpt lat="44.76685391473691" lon="9.736573506756843"><ele>890.0</ele><time>2026-03-28T08:22:51.998Z</time></trkpt><trkpt lat="44.76685764241375" lon="9.736461195610328"><ele>890.3333333333333</ele><time>2026-03-28T08:22:55.998Z</time></trkpt><trkpt lat="44.7668247502369" lon="9.736359968409934"><ele>890.6666666666666</ele><time>2026-03-28T08:22:59.998Z</time></trkpt><trkpt lat="44.76678030842454" lon="9.736269639312784"><ele>891.0</ele><time>2026-03-28T08:23:05Z</time></trkpt><trkpt lat="44.766728511950525" lon="9.736217077784397"><ele>891.0</ele><time>2026-03-28T08:23:08Z</time></trkpt><trkpt lat="44.766661089050274" lon="9.736165280248228"><ele>891.0</ele><time>2026-03-28T08:23:12Z</time></trkpt><trkpt lat="44.76660566056886" lon="9.736111876161532"><ele>891.0</ele><time>2026-03-28T08:23:16Z</time></trkpt><trkpt lat="44.766531091801134" lon="9.736066056963582"><ele>891.0</ele><time>2026-03-28T08:23:20Z</time></trkpt><trkpt lat="44.766469639071175" lon="9.736018908787202"><ele>891.0</ele><time>2026-03-28T08:23:23Z</time></trkpt><trkpt lat="44.76640913741551" lon="9.735966455593147"><ele>891.0</ele><time>2026-03-28T08:23:26Z</time></trkpt><trkpt lat="44.76633492319851" lon="9.735906972830186"><ele>891.4285714285714</ele><time>2026-03-28T08:23:30Z</time></trkpt><trkpt lat="44.766262558610194" lon="9.735857236990942"><ele>891.8571428571429</ele><time>2026-03-28T08:23:34Z</time></trkpt><trkpt lat="44.7662020068935" lon="9.735829416666478"><ele>892.2857142857142</ele><time>2026-03-28T08:23:37Z</time></trkpt><trkpt lat="44.76613900403436" lon="9.73579986759413"><ele>892.7142857142858</ele><time>2026-03-28T08:23:40Z</time></trkpt><trkpt lat="44.76606628201839" lon="9.735756310494052"><ele>893.1428571428571</ele><time>2026-03-28T08:23:43Z</time></trkpt><trkpt lat="44.766004695598404" lon="9.735709119781507"><ele>893.5714285714286</ele><time>2026-03-28T08:23:46Z</time></trkpt><trkpt lat="44.76594851390095" lon="9.735667058376256"><ele>894.0</ele><time>2026-03-28T08:23:47.999Z</time></trkpt><trkpt lat="44.76589352010474" lon="9.735623424303904"><ele>894.8333333333334</ele><time>2026-03-28T08:23:49.999Z</time></trkpt><trkpt lat="44.765828771714084" lon="9.735535934144457"><ele>895.6666666666667</ele><time>2026-03-28T08:23:52.999Z</time></trkpt><trkpt lat="44.7657694028755" lon="9.735482174362804"><ele>896.5</ele><time>2026-03-28T08:23:54.999Z</time></trkpt><trkpt lat="44.765686125240144" lon="9.735421226632262"><ele>897.3333333333334</ele><time>2026-03-28T08:23:57.999Z</time></trkpt><trkpt lat="44.76561527832531" lon="9.735367010514373"><ele>898.1666666666667</ele><time>2026-03-28T08:23:59.999Z</time></trkpt><trkpt lat="44.76554188777085" lon="9.735301519367365"><ele>899.0</ele><time>2026-03-28T08:24:01.999Z</time></trkpt><trkpt lat="44.76546388329369" lon="9.735221851242995"><ele>898.8333333333334</ele><time>2026-03-28T08:24:03.999Z</time></trkpt><trkpt lat="44.765403312195936" lon="9.735126653217902"><ele>898.6666666666667</ele><time>2026-03-28T08:24:05.999Z</time></trkpt><trkpt lat="44.76535710866994" lon="9.735041967915786"><ele>898.5</ele><time>2026-03-28T08:24:07.999Z</time></trkpt><trkpt lat="44.76529966696639" lon="9.734940581861643"><ele>898.3333333333333</ele><time>2026-03-28T08:24:09.999Z</time></trkpt><trkpt lat="44.765259435779925" lon="9.73486733715563"><ele>898.1666666666666</ele><time>2026-03-28T08:24:10.999Z</time></trkpt><trkpt lat="44.765185152619296" lon="9.734745736110206"><ele>898.0</ele><time>2026-03-28T08:24:12.999Z</time></trkpt><trkpt lat="44.76511512853078" lon="9.73460949348129"><ele>898.0</ele><time>2026-03-28T08:24:14.999Z</time></trkpt><trkpt lat="44.76507686976644" lon="9.734537759954986"><ele>897.9999999999999</ele><time>2026-03-28T08:24:15.999Z</time></trkpt><trkpt lat="44.76503475448761" lon="9.734467119430564"><ele>898.0</ele><time>2026-03-28T08:24:16.999Z</time></trkpt><trkpt lat="44.764987475394356" lon="9.734401259558176"><ele>898.0</ele><time>2026-03-28T08:24:17.999Z</time></trkpt><trkpt lat="44.76493383174763" lon="9.734341727852007"><ele>897.9999999999999</ele><time>2026-03-28T08:24:18.999Z</time></trkpt><trkpt lat="44.76487468149127" lon="9.734280150615133"><ele>898.0</ele><time>2026-03-28T08:24:19.999Z</time></trkpt><trkpt lat="44.76482290500993" lon="9.734215338460276"><ele>898.0</ele><time>2026-03-28T08:24:20.999Z</time></trkpt><trkpt lat="44.76476377048449" lon="9.734158788975229"><ele>897.4</ele><time>2026-03-28T08:24:21.999Z</time></trkpt><trkpt lat="44.7647065709067" lon="9.734105920572757"><ele>896.8</ele><time>2026-03-28T08:24:22.999Z</time></trkpt><trkpt lat="44.76464847728582" lon="9.734049007971176"><ele>896.2</ele><time>2026-03-28T08:24:23.999Z</time></trkpt><trkpt lat="44.76456403526684" lon="9.733921606990533"><ele>895.6</ele><time>2026-03-28T08:24:25.999Z</time></trkpt><trkpt lat="44.76449007793152" lon="9.73379918901916"><ele>895.0</ele><time>2026-03-28T08:24:27.999Z</time></trkpt><trkpt lat="44.76441046466809" lon="9.733682168841682"><ele>894.4999999999999</ele><time>2026-03-28T08:24:29.999Z</time></trkpt><trkpt lat="44.76432227435188" lon="9.733554262961094"><ele>894.0</ele><time>2026-03-28T08:24:31.999Z</time></trkpt><trkpt lat="44.76427551282828" lon="9.733487754781912"><ele>893.5</ele><time>2026-03-28T08:24:32.999Z</time></trkpt><trkpt lat="44.764237485418235" lon="9.733411280699222"><ele>893.0</ele><time>2026-03-28T08:24:33.999Z</time></trkpt><trkpt lat="44.76419849328441" lon="9.733334645061436"><ele>892.4999999999999</ele><time>2026-03-28T08:24:34.999Z</time></trkpt><trkpt lat="44.76415853390228" lon="9.733255350658135"><ele>892.0</ele><time>2026-03-28T08:24:35.999Z</time></trkpt><trkpt lat="44.76412441201729" lon="9.733170637205541"><ele>891.9999999999999</ele><time>2026-03-28T08:24:36.999Z</time></trkpt><trkpt lat="44.764089175376036" lon="9.733087857932386"><ele>892.0</ele><time>2026-03-28T08:24:37.999Z</time></trkpt><trkpt lat="44.76405381403482" lon="9.733002085685637"><ele>892.0</ele><time>2026-03-28T08:24:38.999Z</time></trkpt><trkpt lat="44.7640173452647" lon="9.732919439133369"><ele>892.0</ele><time>2026-03-28T08:24:39.999Z</time></trkpt><trkpt lat="44.76398338090701" lon="9.73284035060964"><ele>891.9999999999999</ele><time>2026-03-28T08:24:40.999Z</time></trkpt><trkpt lat="44.76394701308994" lon="9.732765727643427"><ele>892.0</ele><time>2026-03-28T08:24:41.999Z</time></trkpt><trkpt lat="44.763870728430504" lon="9.73263226189837"><ele>891.2</ele><time>2026-03-28T08:24:43.999Z</time></trkpt><trkpt lat="44.76379883444641" lon="9.732515623711548"><ele>890.4000000000001</ele><time>2026-03-28T08:24:45.999Z</time></trkpt><trkpt lat="44.763721895224315" lon="9.732418711672493"><ele>889.5999999999999</ele><time>2026-03-28T08:24:47.998Z</time></trkpt><trkpt lat="44.76364172097134" lon="9.732326751148376"><ele>888.8</ele><time>2026-03-28T08:24:49.998Z</time></trkpt><trkpt lat="44.763561779597225" lon="9.732244034847684"><ele>888.0</ele><time>2026-03-28T08:24:51.998Z</time></trkpt><trkpt lat="44.76348619358502" lon="9.732160900504603"><ele>888.0</ele><time>2026-03-28T08:24:53.998Z</time></trkpt><trkpt lat="44.76341419738868" lon="9.732084115862008"><ele>888.0</ele><time>2026-03-28T08:24:55.998Z</time></trkpt><trkpt lat="44.763347236466565" lon="9.732012227788037"><ele>888.0</ele><time>2026-03-28T08:24:57.998Z</time></trkpt><trkpt lat="44.7632823522572" lon="9.731938017146085"><ele>888.0</ele><time>2026-03-28T08:24:59.998Z</time></trkpt><trkpt lat="44.76321123681901" lon="9.731864342283195"><ele>888.0</ele><time>2026-03-28T08:25:01.998Z</time></trkpt><trkpt lat="44.76314436323933" lon="9.73178241801978"><ele>888.0</ele><time>2026-03-28T08:25:03.998Z</time></trkpt><trkpt lat="44.763079839760834" lon="9.731687331721373"><ele>888.5999999999999</ele><time>2026-03-28T08:25:05.998Z</time></trkpt><trkpt lat="44.7630212782578" lon="9.731567217079624"><ele>889.1999999999999</ele><time>2026-03-28T08:25:08Z</time></trkpt><trkpt lat="44.76296889458223" lon="9.731456578269446"><ele>889.8</ele><time>2026-03-28T08:25:10Z</time></trkpt><trkpt lat="44.762913935686754" lon="9.731340959831202"><ele>890.4</ele><time>2026-03-28T08:25:12Z</time></trkpt><trkpt lat="44.76284878908622" lon="9.731229332449185"><ele>891.0</ele><time>2026-03-28T08:25:14Z</time></trkpt><trkpt lat="44.762783254104114" lon="9.731148409694978"><ele>891.0</ele><time>2026-03-28T08:25:16Z</time></trkpt><trkpt lat="44.762723022382055" lon="9.731069494849704"><ele>891.0</ele><time>2026-03-28T08:25:18Z</time></trkpt><trkpt lat="44.76265693717925" lon="9.73100115623005"><ele>891.0</ele><time>2026-03-28T08:25:20Z</time></trkpt><trkpt lat="44.76259752259014" lon="9.730944163686175"><ele>891.0</ele><time>2026-03-28T08:25:22Z</time></trkpt><trkpt lat="44.76252964346646" lon="9.730884736807987"><ele>891.0</ele><time>2026-03-28T08:25:24Z</time></trkpt><trkpt lat="44.7624650165494" lon="9.730856145442948"><ele>891.0</ele><time>2026-03-28T08:25:26Z</time></trkpt><trkpt lat="44.762395877824495" lon="9.730807027479802"><ele>892.0</ele><time>2026-03-28T08:25:28Z</time></trkpt><trkpt lat="44.76232954313891" lon="9.730776436917465"><ele>893.0</ele><time>2026-03-28T08:25:30Z</time></trkpt><trkpt lat="44.76224715123826" lon="9.730719139367647"><ele>894.0</ele><time>2026-03-28T08:25:33Z</time></trkpt><trkpt lat="44.76215859595588" lon="9.730671323158663"><ele>895.0</ele><time>2026-03-28T08:25:36Z</time></trkpt><trkpt lat="44.76206749854554" lon="9.73063507388588"><ele>896.0</ele><time>2026-03-28T08:25:39Z</time></trkpt><trkpt lat="44.76198507644705" lon="9.730608701192253"><ele>897.0</ele><time>2026-03-28T08:25:42Z</time></trkpt><trkpt lat="44.7619223469333" lon="9.730592395540839"><ele>897.6666666666666</ele><time>2026-03-28T08:25:44Z</time></trkpt><trkpt lat="44.76183558250201" lon="9.730551668263924"><ele>898.3333333333333</ele><time>2026-03-28T08:25:47Z</time></trkpt><trkpt lat="44.76177467264371" lon="9.730504543454694"><ele>899.0</ele><time>2026-03-28T08:25:50Z</time></trkpt><trkpt lat="44.76172357167762" lon="9.730424167940706"><ele>899.6666666666666</ele><time>2026-03-28T08:25:52.999Z</time></trkpt><trkpt lat="44.76166080204631" lon="9.730339018370422"><ele>900.3333333333333</ele><time>2026-03-28T08:25:55.999Z</time></trkpt><trkpt lat="44.76159029492745" lon="9.730266051996205"><ele>901.0</ele><time>2026-03-28T08:25:58.999Z</time></trkpt><trkpt lat="44.761531424409334" lon="9.730218987563124"><ele>901.0</ele><time>2026-03-28T08:26:00.999Z</time></trkpt><trkpt lat="44.761459179382406" lon="9.730189261349054"><ele>901.0000000000001</ele><time>2026-03-28T08:26:03.999Z</time></trkpt><trkpt lat="44.76138993240609" lon="9.730176882528987"><ele>901.0</ele><time>2026-03-28T08:26:06.999Z</time></trkpt><trkpt lat="44.76132713753847" lon="9.7301638780439"><ele>901.0</ele><time>2026-03-28T08:26:08.999Z</time></trkpt><trkpt lat="44.761250547588475" lon="9.730159507050882"><ele>901.0000000000001</ele><time>2026-03-28T08:26:11.999Z</time></trkpt><trkpt lat="44.76117400814338" lon="9.730158311744246"><ele>901.0</ele><time>2026-03-28T08:26:14.999Z</time></trkpt><trkpt lat="44.76108873410704" lon="9.730153314704205"><ele>901.0</ele><time>2026-03-28T08:26:17.999Z</time></trkpt><trkpt lat="44.76100959746213" lon="9.730147681682059"><ele>902.8333333333333</ele><time>2026-03-28T08:26:20.999Z</time></trkpt><trkpt lat="44.760925426669395" lon="9.730116815445257"><ele>904.6666666666666</ele><time>2026-03-28T08:26:23.999Z</time></trkpt><trkpt lat="44.76084930558315" lon="9.730084301052507"><ele>906.5</ele><time>2026-03-28T08:26:26.999Z</time></trkpt><trkpt lat="44.76077630433278" lon="9.730061750654185"><ele>908.3333333333333</ele><time>2026-03-28T08:26:29.999Z</time></trkpt><trkpt lat="44.76070513544854" lon="9.730048626386505"><ele>910.1666666666666</ele><time>2026-03-28T08:26:32.999Z</time></trkpt><trkpt lat="44.760620675322684" lon="9.730036624564324"><ele>912.0</ele><time>2026-03-28T08:26:35.999Z</time></trkpt><trkpt lat="44.760549371017994" lon="9.730026681828814"><ele>912.0</ele><time>2026-03-28T08:26:38.999Z</time></trkpt><trkpt lat="44.76047793800458" lon="9.730014366904243"><ele>912.0</ele><time>2026-03-28T08:26:41.999Z</time></trkpt><trkpt lat="44.7604029219429" lon="9.729979399105945"><ele>912.0</ele><time>2026-03-28T08:26:44.999Z</time></trkpt><trkpt lat="44.76034501554174" lon="9.72993439771677"><ele>912.0</ele><time>2026-03-28T08:26:46.999Z</time></trkpt><trkpt lat="44.76026895679863" lon="9.729860213167512"><ele>912.0</ele><time>2026-03-28T08:26:49.999Z</time></trkpt><trkpt lat="44.7602106714185" lon="9.729796135260951"><ele>912.0</ele><time>2026-03-28T08:26:51.998Z</time></trkpt><trkpt lat="44.760153538654535" lon="9.729733194765798"><ele>912.8333333333334</ele><time>2026-03-28T08:26:53.998Z</time></trkpt><trkpt lat="44.760101695723364" lon="9.729669439833648"><ele>913.6666666666667</ele><time>2026-03-28T08:26:55.998Z</time></trkpt><trkpt lat="44.760038639974944" lon="9.729618812595355"><ele>914.5</ele><time>2026-03-28T08:26:57.998Z</time></trkpt><trkpt lat="44.75998371072402" lon="9.729553338294323"><ele>915.3333333333334</ele><time>2026-03-28T08:26:59.998Z</time></trkpt><trkpt lat="44.759937368880195" lon="9.729477139101725"><ele>916.1666666666667</ele><time>2026-03-28T08:27:01.998Z</time></trkpt><trkpt lat="44.75987226594488" lon="9.729382916052336"><ele>917.0</ele><time>2026-03-28T08:27:04.998Z</time></trkpt><trkpt lat="44.759815182417775" lon="9.729319076158648"><ele>917.0000000000001</ele><time>2026-03-28T08:27:06.998Z</time></trkpt><trkpt lat="44.75975826160359" lon="9.729239111681387"><ele>917.0</ele><time>2026-03-28T08:27:08.998Z</time></trkpt><trkpt lat="44.75969726660089" lon="9.729150368439932"><ele>917.0</ele><time>2026-03-28T08:27:11.998Z</time></trkpt><trkpt lat="44.759651020844146" lon="9.729079946472591"><ele>917.0</ele><time>2026-03-28T08:27:13Z</time></trkpt><trkpt lat="44.75960579577452" lon="9.729013138544486"><ele>917.0000000000001</ele><time>2026-03-28T08:27:14Z</time></trkpt><trkpt lat="44.759567350125906" lon="9.728916721959594"><ele>917.0</ele><time>2026-03-28T08:27:16Z</time></trkpt><trkpt lat="44.75951564642117" lon="9.728811657659033"><ele>917.0000000000001</ele><time>2026-03-28T08:27:18Z</time></trkpt><trkpt lat="44.759460946915546" lon="9.728720686015361"><ele>917.0</ele><time>2026-03-28T08:27:20Z</time></trkpt><trkpt lat="44.75940870148291" lon="9.728631904685685"><ele>917.0</ele><time>2026-03-28T08:27:22Z</time></trkpt><trkpt lat="44.75934798416912" lon="9.72856004771032"><ele>917.0</ele><time>2026-03-28T08:27:24Z</time></trkpt><trkpt lat="44.759284940836906" lon="9.728499782018671"><ele>917.0000000000001</ele><time>2026-03-28T08:27:26Z</time></trkpt><trkpt lat="44.759222222078655" lon="9.728428615874131"><ele>917.0</ele><time>2026-03-28T08:27:28Z</time></trkpt><trkpt lat="44.75917311850334" lon="9.728355805012594"><ele>917.2857142857142</ele><time>2026-03-28T08:27:30Z</time></trkpt><trkpt lat="44.75913075368403" lon="9.728267981308303"><ele>917.5714285714286</ele><time>2026-03-28T08:27:32Z</time></trkpt><trkpt lat="44.759100548904215" lon="9.728188337431346"><ele>917.8571428571429</ele><time>2026-03-28T08:27:34Z</time></trkpt><trkpt lat="44.75906896615304" lon="9.728110418507448"><ele>918.1428571428571</ele><time>2026-03-28T08:27:36Z</time></trkpt><trkpt lat="44.759039801011134" lon="9.727993249842967"><ele>918.4285714285713</ele><time>2026-03-28T08:27:39Z</time></trkpt><trkpt lat="44.75901734637014" lon="9.72787132624157"><ele>918.7142857142857</ele><time>2026-03-28T08:27:42Z</time></trkpt><trkpt lat="44.75899092559625" lon="9.727782299430274"><ele>919.0</ele><time>2026-03-28T08:27:44Z</time></trkpt><trkpt lat="44.75896151375585" lon="9.727698743411544"><ele>919.9999999999999</ele><time>2026-03-28T08:27:46Z</time></trkpt><trkpt lat="44.758953234304016" lon="9.727584690216617"><ele>921.0</ele><time>2026-03-28T08:27:49Z</time></trkpt><trkpt lat="44.758929262859404" lon="9.727485629804038"><ele>922.0</ele><time>2026-03-28T08:27:52Z</time></trkpt><trkpt lat="44.75890528295743" lon="9.727369854712705"><ele>923.0</ele><time>2026-03-28T08:27:54.999Z</time></trkpt><trkpt lat="44.75888463733336" lon="9.72725938519229"><ele>923.9999999999999</ele><time>2026-03-28T08:27:57.999Z</time></trkpt><trkpt lat="44.758846941175996" lon="9.72717932497895"><ele>925.0</ele><time>2026-03-28T08:27:59.999Z</time></trkpt><trkpt lat="44.7588029148052" lon="9.72705832962055"><ele>925.0</ele><time>2026-03-28T08:28:02.999Z</time></trkpt><trkpt lat="44.75876355223455" lon="9.726983625534585"><ele>925.0</ele><time>2026-03-28T08:28:04.999Z</time></trkpt><trkpt lat="44.758717412171386" lon="9.72690468235918"><ele>925.0</ele><time>2026-03-28T08:28:06.999Z</time></trkpt><trkpt lat="44.75867924366525" lon="9.726833992345593"><ele>925.0</ele><time>2026-03-28T08:28:08.999Z</time></trkpt><trkpt lat="44.75862191353932" lon="9.726755122484317"><ele>925.0</ele><time>2026-03-28T08:28:11.999Z</time></trkpt><trkpt lat="44.758577374268796" lon="9.72667653783874"><ele>925.0</ele><time>2026-03-28T08:28:14.999Z</time></trkpt><trkpt lat="44.75852807860443" lon="9.726613473716158"><ele>925.0</ele><time>2026-03-28T08:28:16.999Z</time></trkpt><trkpt lat="44.75848650961974" lon="9.726540733671403"><ele>925.9999999999999</ele><time>2026-03-28T08:28:18.999Z</time></trkpt><trkpt lat="44.75842824013878" lon="9.72650086683093"><ele>927.0</ele><time>2026-03-28T08:28:21.999Z</time></trkpt><trkpt lat="44.75835844755165" lon="9.726492278124569"><ele>928.0</ele><time>2026-03-28T08:28:24.999Z</time></trkpt><trkpt lat="44.75828904315729" lon="9.726493746203477"><ele>929.0</ele><time>2026-03-28T08:28:27.999Z</time></trkpt><trkpt lat="44.75819320648229" lon="9.726497159654846"><ele>929.9999999999999</ele><time>2026-03-28T08:28:30.999Z</time></trkpt><trkpt lat="44.75812527711516" lon="9.726498051024882"><ele>931.0</ele><time>2026-03-28T08:28:33.999Z</time></trkpt><trkpt lat="44.758027497709065" lon="9.726491833921683"><ele>931.0</ele><time>2026-03-28T08:28:36.999Z</time></trkpt><trkpt lat="44.75792045037721" lon="9.726376735197732"><ele>930.9999999999999</ele><time>2026-03-28T08:28:40.999Z</time></trkpt><trkpt lat="44.757873659602446" lon="9.726302105585452"><ele>930.9999999999999</ele><time>2026-03-28T08:28:42.999Z</time></trkpt><trkpt lat="44.757836350732546" lon="9.726218300252023"><ele>931.0</ele><time>2026-03-28T08:28:44.999Z</time></trkpt><trkpt lat="44.757794101283146" lon="9.72613266379962"><ele>931.0</ele><time>2026-03-28T08:28:46.999Z</time></trkpt><trkpt lat="44.757671354488735" lon="9.726012219985098"><ele>932.4</ele><time>2026-03-28T08:28:49.999Z</time></trkpt><trkpt lat="44.75760643626347" lon="9.725937872915512"><ele>933.8</ele><time>2026-03-28T08:28:51.999Z</time></trkpt><trkpt lat="44.75750412317154" lon="9.725868493073964"><ele>935.1999999999999</ele><time>2026-03-28T08:28:53.998Z</time></trkpt><trkpt lat="44.75741566041026" lon="9.725880344263386"><ele>936.5999999999999</ele><time>2026-03-28T08:28:55.998Z</time></trkpt><trkpt lat="44.75736255776087" lon="9.725976466532764"><ele>938.0</ele><time>2026-03-28T08:28:58.998Z</time></trkpt><trkpt lat="44.757318115733526" lon="9.726076896005262"><ele>938.0</ele><time>2026-03-28T08:29:00.998Z</time></trkpt><trkpt lat="44.75727965783552" lon="9.72615512900261"><ele>938.0</ele><time>2026-03-28T08:29:02.998Z</time></trkpt><trkpt lat="44.75724944204464" lon="9.726237640886373"><ele>938.0</ele><time>2026-03-28T08:29:05.998Z</time></trkpt><trkpt lat="44.7572078413467" lon="9.72632172952132"><ele>938.0</ele><time>2026-03-28T08:29:08.998Z</time></trkpt><trkpt lat="44.757139874677755" lon="9.72639352406997"><ele>938.0</ele><time>2026-03-28T08:29:11.998Z</time></trkpt><trkpt lat="44.757084227218634" lon="9.726450324571417"><ele>938.0</ele><time>2026-03-28T08:29:13.998Z</time></trkpt><trkpt lat="44.75703339092739" lon="9.726513357548543"><ele>938.0</ele><time>2026-03-28T08:29:15.998Z</time></trkpt><trkpt lat="44.75695006409597" lon="9.726572720431335"><ele>938.0000000000001</ele><time>2026-03-28T08:29:19Z</time></trkpt><trkpt lat="44.75689014834963" lon="9.726600747425486"><ele>938.0</ele><time>2026-03-28T08:29:21Z</time></trkpt><trkpt lat="44.75682817198658" lon="9.72667864383113"><ele>938.0</ele><time>2026-03-28T08:29:24Z</time></trkpt><trkpt lat="44.756883050006756" lon="9.726728277931317"><ele>938.0</ele><time>2026-03-28T08:29:27Z</time></trkpt><trkpt lat="44.75683887249559" lon="9.726823700066149"><ele>938.0000000000001</ele><time>2026-03-28T08:29:30Z</time></trkpt><trkpt lat="44.75676651947135" lon="9.726869838930146"><ele>938.0</ele><time>2026-03-28T08:29:33Z</time></trkpt><trkpt lat="44.75668772206819" lon="9.726898672841804"><ele>940.5000000000001</ele><time>2026-03-28T08:29:35.999Z</time></trkpt><trkpt lat="44.756624657649006" lon="9.726830047867551"><ele>943.0</ele><time>2026-03-28T08:29:38.998Z</time></trkpt><trkpt lat="44.75658015658984" lon="9.72676152834784"><ele>945.5</ele><time>2026-03-28T08:29:41.998Z</time></trkpt><trkpt lat="44.756550164032944" lon="9.72664005341691"><ele>948.0</ele><time>2026-03-28T08:29:44.997Z</time></trkpt><trkpt lat="44.7565104160719" lon="9.726568879300688"><ele>950.5000000000001</ele><time>2026-03-28T08:29:47.997Z</time></trkpt><trkpt lat="44.75650340808875" lon="9.726455820526942"><ele>953.0</ele><time>2026-03-28T08:29:50.996Z</time></trkpt><trkpt lat="44.7564886473228" lon="9.726341678527573"><ele>953.0000000000001</ele><time>2026-03-28T08:29:54.996Z</time></trkpt><trkpt lat="44.75647264154964" lon="9.726248052072275"><ele>953.0</ele><time>2026-03-28T08:29:57.996Z</time></trkpt><trkpt lat="44.756454734390026" lon="9.726148544151535"><ele>953.0</ele><time>2026-03-28T08:30:00.995Z</time></trkpt><trkpt lat="44.7564641675442" lon="9.72602649967129"><ele>953.0</ele><time>2026-03-28T08:30:03.995Z</time></trkpt><trkpt lat="44.756477359050486" lon="9.725927996760953"><ele>953.0000000000001</ele><time>2026-03-28T08:30:06.995Z</time></trkpt><trkpt lat="44.7565400753722" lon="9.725841873500078"><ele>953.0</ele><time>2026-03-28T08:30:09.995Z</time></trkpt><trkpt lat="44.756553998907414" lon="9.725749311698234"><ele>953.1666666666667</ele><time>2026-03-28T08:30:12.995Z</time></trkpt><trkpt lat="44.75656586944965" lon="9.72565360006552"><ele>953.3333333333334</ele><time>2026-03-28T08:30:16.994Z</time></trkpt><trkpt lat="44.756558225337116" lon="9.725529016117685"><ele>953.5</ele><time>2026-03-28T08:30:20.994Z</time></trkpt><trkpt lat="44.756555778639196" lon="9.72542978144994"><ele>953.6666666666667</ele><time>2026-03-28T08:30:25.994Z</time></trkpt><trkpt lat="44.75649843721032" lon="9.725379124023787"><ele>953.8333333333334</ele><time>2026-03-28T08:30:37.994Z</time></trkpt><trkpt lat="44.75651927179488" lon="9.725226143459123"><ele>954.0</ele><time>2026-03-28T08:31:40.998Z</time></trkpt><trkpt lat="44.75644241425457" lon="9.725136141370609"><ele>954.3333333333334</ele><time>2026-03-28T08:36:15Z</time></trkpt><trkpt lat="44.756479460589375" lon="9.725220632340395"><ele>954.6666666666667</ele><time>2026-03-28T08:37:38.998Z</time></trkpt><trkpt lat="44.75654980879353" lon="9.725196717279493"><ele>955.0</ele><time>2026-03-28T08:37:47Z</time></trkpt><trkpt lat="44.756583329248244" lon="9.725104278126159"><ele>955.3333333333334</ele><time>2026-03-28T08:37:50Z</time></trkpt><trkpt lat="44.75659461375986" lon="9.724985333887412"><ele>955.6666666666667</ele><time>2026-03-28T08:37:53Z</time></trkpt><trkpt lat="44.75659905515479" lon="9.724875329494383"><ele>956.0</ele><time>2026-03-28T08:37:55Z</time></trkpt><trkpt lat="44.756605060745166" lon="9.724761855682504"><ele>956.0</ele><time>2026-03-28T08:37:57Z</time></trkpt><trkpt lat="44.756596426229706" lon="9.724635109274868"><ele>955.9999999999999</ele><time>2026-03-28T08:37:59Z</time></trkpt><trkpt lat="44.756574118254655" lon="9.724502514374144"><ele>955.9999999999999</ele><time>2026-03-28T08:38:01Z</time></trkpt><trkpt lat="44.756554957064765" lon="9.724363693564515"><ele>956.0</ele><time>2026-03-28T08:38:03Z</time></trkpt><trkpt lat="44.75655463166972" lon="9.724231199078941"><ele>956.0</ele><time>2026-03-28T08:38:05Z</time></trkpt><trkpt lat="44.75656155327193" lon="9.724109815477139"><ele>956.4</ele><time>2026-03-28T08:38:07Z</time></trkpt><trkpt lat="44.75656865973322" lon="9.724001256372867"><ele>956.8</ele><time>2026-03-28T08:38:09Z</time></trkpt><trkpt lat="44.756577040499785" lon="9.723851197225283"><ele>957.1999999999999</ele><time>2026-03-28T08:38:11Z</time></trkpt><trkpt lat="44.756570916619616" lon="9.723714004507398"><ele>957.5999999999999</ele><time>2026-03-28T08:38:13Z</time></trkpt><trkpt lat="44.756553709115416" lon="9.723558554896153"><ele>958.0</ele><time>2026-03-28T08:38:15Z</time></trkpt><trkpt lat="44.75654978407196" lon="9.723427171770124"><ele>958.2</ele><time>2026-03-28T08:38:17Z</time></trkpt><trkpt lat="44.75651937692817" lon="9.723300218540885"><ele>958.4</ele><time>2026-03-28T08:38:19Z</time></trkpt><trkpt lat="44.75647859776393" lon="9.723169661951797"><ele>958.6000000000001</ele><time>2026-03-28T08:38:21Z</time></trkpt><trkpt lat="44.75645236405408" lon="9.723035967141877"><ele>958.8000000000001</ele><time>2026-03-28T08:38:22.999Z</time></trkpt><trkpt lat="44.75641897447826" lon="9.722918676907206"><ele>959.0</ele><time>2026-03-28T08:38:24.999Z</time></trkpt><trkpt lat="44.75641001803018" lon="9.722772850803329"><ele>958.6666666666667</ele><time>2026-03-28T08:38:26.999Z</time></trkpt><trkpt lat="44.75638473493639" lon="9.722643814859374"><ele>958.3333333333334</ele><time>2026-03-28T08:38:28.999Z</time></trkpt><trkpt lat="44.756355113873866" lon="9.722531890091284"><ele>958.0</ele><time>2026-03-28T08:38:30.999Z</time></trkpt><trkpt lat="44.75633897696362" lon="9.722403812559401"><ele>957.6666666666667</ele><time>2026-03-28T08:38:32.999Z</time></trkpt><trkpt lat="44.75633563630889" lon="9.722290095879197"><ele>957.3333333333334</ele><time>2026-03-28T08:38:34.999Z</time></trkpt><trkpt lat="44.75634895160633" lon="9.722167665089266"><ele>957.0</ele><time>2026-03-28T08:38:36.999Z</time></trkpt><trkpt lat="44.756366432465406" lon="9.722049026638825"><ele>957.0</ele><time>2026-03-28T08:38:38.999Z</time></trkpt><trkpt lat="44.756384618946235" lon="9.721949911236209"><ele>957.0000000000001</ele><time>2026-03-28T08:38:40.999Z</time></trkpt><trkpt lat="44.756412363723165" lon="9.72186295984669"><ele>957.0</ele><time>2026-03-28T08:38:42.999Z</time></trkpt><trkpt lat="44.75643412389954" lon="9.721768941858624"><ele>957.0</ele><time>2026-03-28T08:38:44.999Z</time></trkpt><trkpt lat="44.7564467659144" lon="9.721670834755384"><ele>957.0000000000001</ele><time>2026-03-28T08:38:46.999Z</time></trkpt><trkpt lat="44.75645539973712" lon="9.721568497105059"><ele>957.0</ele><time>2026-03-28T08:38:48.999Z</time></trkpt><trkpt lat="44.756469261122746" lon="9.72148004164201"><ele>957.0</ele><time>2026-03-28T08:38:50.999Z</time></trkpt><trkpt lat="44.75648196597147" lon="9.721381469384376"><ele>957.6</ele><time>2026-03-28T08:38:52.999Z</time></trkpt><trkpt lat="44.75649239280082" lon="9.721280979037152"><ele>958.2</ele><time>2026-03-28T08:38:54.999Z</time></trkpt><trkpt lat="44.75650322838026" lon="9.721161327563236"><ele>958.8</ele><time>2026-03-28T08:38:56.999Z</time></trkpt><trkpt lat="44.75652570481518" lon="9.721047572795865"><ele>959.4</ele><time>2026-03-28T08:38:58.999Z</time></trkpt><trkpt lat="44.75655391710206" lon="9.720897996981133"><ele>960.0</ele><time>2026-03-28T08:39:00.999Z</time></trkpt><trkpt lat="44.7565650615765" lon="9.720752796941856"><ele>960.0</ele><time>2026-03-28T08:39:02.999Z</time></trkpt><trkpt lat="44.756594488630185" lon="9.720590477798659"><ele>960.0</ele><time>2026-03-28T08:39:04.999Z</time></trkpt><trkpt lat="44.75660574207672" lon="9.720501350914192"><ele>960.0</ele><time>2026-03-28T08:39:05.999Z</time></trkpt><trkpt lat="44.75663432070361" lon="9.720396311868555"><ele>960.0</ele><time>2026-03-28T08:39:06.999Z</time></trkpt><trkpt lat="44.756645199321405" lon="9.720285121148587"><ele>960.0</ele><time>2026-03-28T08:39:07.999Z</time></trkpt><trkpt lat="44.7566676604179" lon="9.720170965372516"><ele>960.0</ele><time>2026-03-28T08:39:08.999Z</time></trkpt><trkpt lat="44.75667842415147" lon="9.720063247492421"><ele>959.8333333333334</ele><time>2026-03-28T08:39:09.999Z</time></trkpt><trkpt lat="44.75668233321306" lon="9.719954184957912"><ele>959.6666666666667</ele><time>2026-03-28T08:39:10.999Z</time></trkpt><trkpt lat="44.756682565544686" lon="9.71984806825539"><ele>959.5</ele><time>2026-03-28T08:39:11.999Z</time></trkpt><trkpt lat="44.7566925214934" lon="9.719743856720381"><ele>959.3333333333334</ele><time>2026-03-28T08:39:12.999Z</time></trkpt><trkpt lat="44.756715472772704" lon="9.719635026766284"><ele>959.1666666666667</ele><time>2026-03-28T08:39:13.999Z</time></trkpt><trkpt lat="44.75674111918173" lon="9.719533983066345"><ele>959.0</ele><time>2026-03-28T08:39:14.999Z</time></trkpt><trkpt lat="44.7567971431376" lon="9.719464402227203"><ele>959.3333333333334</ele><time>2026-03-28T08:39:15.999Z</time></trkpt><trkpt lat="44.75684143999297" lon="9.719389752622572"><ele>959.6666666666667</ele><time>2026-03-28T08:39:16.999Z</time></trkpt><trkpt lat="44.75689074949829" lon="9.719316501137767"><ele>960.0</ele><time>2026-03-28T08:39:17.999Z</time></trkpt><trkpt lat="44.756956485945494" lon="9.71923663844019"><ele>960.3333333333333</ele><time>2026-03-28T08:39:18.999Z</time></trkpt><trkpt lat="44.75700257324723" lon="9.719147661318871"><ele>960.6666666666666</ele><time>2026-03-28T08:39:19.999Z</time></trkpt><trkpt lat="44.757070228669576" lon="9.719061309717134"><ele>961.0</ele><time>2026-03-28T08:39:20.998Z</time></trkpt><trkpt lat="44.75714164532207" lon="9.718972104276416"><ele>957.5999999999999</ele><time>2026-03-28T08:39:21.998Z</time></trkpt><trkpt lat="44.75720915611146" lon="9.718853999811364"><ele>954.1999999999999</ele><time>2026-03-28T08:39:22.998Z</time></trkpt><trkpt lat="44.75725735171555" lon="9.718723801922437"><ele>950.8000000000001</ele><time>2026-03-28T08:39:23.998Z</time></trkpt><trkpt lat="44.75730643155744" lon="9.718595665976473"><ele>947.4000000000001</ele><time>2026-03-28T08:39:24.998Z</time></trkpt><trkpt lat="44.7573644272275" lon="9.718473801536664"><ele>944.0</ele><time>2026-03-28T08:39:25.998Z</time></trkpt><trkpt lat="44.75741987186309" lon="9.718363777721404"><ele>944.0</ele><time>2026-03-28T08:39:26.998Z</time></trkpt><trkpt lat="44.75747902397251" lon="9.718244545364406"><ele>944.0000000000001</ele><time>2026-03-28T08:39:27.998Z</time></trkpt><trkpt lat="44.75752400302804" lon="9.718112215372521"><ele>944.0000000000001</ele><time>2026-03-28T08:39:28.998Z</time></trkpt><trkpt lat="44.75755440784978" lon="9.717979605768452"><ele>944.0</ele><time>2026-03-28T08:39:29.998Z</time></trkpt><trkpt lat="44.75756962789951" lon="9.717842182610879"><ele>944.0</ele><time>2026-03-28T08:39:30.998Z</time></trkpt><trkpt lat="44.757582402107275" lon="9.717715085667404"><ele>944.8333333333334</ele><time>2026-03-28T08:39:31.998Z</time></trkpt><trkpt lat="44.757606369501616" lon="9.717610539505326"><ele>945.6666666666667</ele><time>2026-03-28T08:39:32.998Z</time></trkpt><trkpt lat="44.75763101737785" lon="9.71751775601723"><ele>946.5</ele><time>2026-03-28T08:39:33.998Z</time></trkpt><trkpt lat="44.757665533530144" lon="9.717375628163808"><ele>947.3333333333333</ele><time>2026-03-28T08:39:35.998Z</time></trkpt><trkpt lat="44.75770714286131" lon="9.717262157794684"><ele>948.1666666666666</ele><time>2026-03-28T08:39:37.998Z</time></trkpt><trkpt lat="44.757750498959815" lon="9.717171052350887"><ele>949.0</ele><time>2026-03-28T08:39:39.998Z</time></trkpt><trkpt lat="44.7577912208932" lon="9.717081919808459"><ele>947.9999999999999</ele><time>2026-03-28T08:39:41.998Z</time></trkpt><trkpt lat="44.75782354006767" lon="9.716993200089012"><ele>947.0</ele><time>2026-03-28T08:39:43.998Z</time></trkpt><trkpt lat="44.75783247464286" lon="9.716897273086404"><ele>946.0</ele><time>2026-03-28T08:39:45.998Z</time></trkpt><trkpt lat="44.7578556273453" lon="9.716801950283259"><ele>945.0</ele><time>2026-03-28T08:39:48Z</time></trkpt><trkpt lat="44.757867023200355" lon="9.71666232145397"><ele>943.9999999999999</ele><time>2026-03-28T08:39:50Z</time></trkpt><trkpt lat="44.757846184323164" lon="9.716502504393482"><ele>943.0</ele><time>2026-03-28T08:39:52Z</time></trkpt><trkpt lat="44.75784779515998" lon="9.716342837502314"><ele>943.0</ele><time>2026-03-28T08:39:54Z</time></trkpt><trkpt lat="44.7578648066859" lon="9.7161857155128"><ele>943.0</ele><time>2026-03-28T08:39:56Z</time></trkpt><trkpt lat="44.75789651528846" lon="9.716041595112202"><ele>943.0</ele><time>2026-03-28T08:39:58Z</time></trkpt><trkpt lat="44.75794959981948" lon="9.715919897746012"><ele>943.0</ele><time>2026-03-28T08:40:00Z</time></trkpt><trkpt lat="44.75799269539915" lon="9.715852668029324"><ele>943.0</ele><time>2026-03-28T08:40:01Z</time></trkpt><trkpt lat="44.75807985996528" lon="9.715747809676232"><ele>943.1428571428572</ele><time>2026-03-28T08:40:03Z</time></trkpt><trkpt lat="44.75812361075619" lon="9.715670494989038"><ele>943.2857142857144</ele><time>2026-03-28T08:40:04Z</time></trkpt><trkpt lat="44.758163607969976" lon="9.71557889435498"><ele>943.4285714285714</ele><time>2026-03-28T08:40:05Z</time></trkpt><trkpt lat="44.758198302692804" lon="9.715482651084754"><ele>943.5714285714287</ele><time>2026-03-28T08:40:06Z</time></trkpt><trkpt lat="44.75822400015044" lon="9.715395384083797"><ele>943.7142857142858</ele><time>2026-03-28T08:40:07Z</time></trkpt><trkpt lat="44.758249673672815" lon="9.715306761349373"><ele>943.8571428571429</ele><time>2026-03-28T08:40:08Z</time></trkpt><trkpt lat="44.75827055538471" lon="9.715215115178333"><ele>944.0</ele><time>2026-03-28T08:40:09Z</time></trkpt><trkpt lat="44.75828121040321" lon="9.715112975057307"><ele>942.1666666666667</ele><time>2026-03-28T08:40:10Z</time></trkpt><trkpt lat="44.7582926020651" lon="9.715005552962095"><ele>940.3333333333334</ele><time>2026-03-28T08:40:11Z</time></trkpt><trkpt lat="44.75829701952025" lon="9.714899568419872"><ele>938.5</ele><time>2026-03-28T08:40:12Z</time></trkpt><trkpt lat="44.75830864101463" lon="9.71478916312372"><ele>936.6666666666667</ele><time>2026-03-28T08:40:13Z</time></trkpt><trkpt lat="44.758328366686484" lon="9.714676233039201"><ele>934.8333333333334</ele><time>2026-03-28T08:40:14Z</time></trkpt><trkpt lat="44.758345733878876" lon="9.714564090632956"><ele>933.0</ele><time>2026-03-28T08:40:15Z</time></trkpt><trkpt lat="44.758369465298465" lon="9.714443913971419"><ele>931.5</ele><time>2026-03-28T08:40:16Z</time></trkpt><trkpt lat="44.758390342027496" lon="9.714328043780325"><ele>930.0</ele><time>2026-03-28T08:40:17Z</time></trkpt><trkpt lat="44.75840894642365" lon="9.714218810824285"><ele>928.5</ele><time>2026-03-28T08:40:18Z</time></trkpt><trkpt lat="44.75843404940768" lon="9.71411240683918"><ele>927.0</ele><time>2026-03-28T08:40:19Z</time></trkpt><trkpt lat="44.75846854867771" lon="9.714000794336435"><ele>925.5</ele><time>2026-03-28T08:40:20Z</time></trkpt><trkpt lat="44.758503215610034" lon="9.713889816045599"><ele>924.0</ele><time>2026-03-28T08:40:21Z</time></trkpt><trkpt lat="44.75853386705225" lon="9.713780959286488"><ele>923.1428571428571</ele><time>2026-03-28T08:40:22Z</time></trkpt><trkpt lat="44.75856561044674" lon="9.713678518236419"><ele>922.2857142857142</ele><time>2026-03-28T08:40:23Z</time></trkpt><trkpt lat="44.758601764538575" lon="9.713586771756912"><ele>921.4285714285714</ele><time>2026-03-28T08:40:24Z</time></trkpt><trkpt lat="44.75864190238049" lon="9.71350087319842"><ele>920.5714285714286</ele><time>2026-03-28T08:40:25Z</time></trkpt><trkpt lat="44.75868041695769" lon="9.713417322124293"><ele>919.7142857142857</ele><time>2026-03-28T08:40:26Z</time></trkpt><trkpt lat="44.75872166794878" lon="9.713337862552065"><ele>918.8571428571429</ele><time>2026-03-28T08:40:27Z</time></trkpt><trkpt lat="44.7587596664886" lon="9.713263219811079"><ele>918.0</ele><time>2026-03-28T08:40:28Z</time></trkpt><trkpt lat="44.75877968605468" lon="9.71317581126954"><ele>917.6666666666666</ele><time>2026-03-28T08:40:28.999Z</time></trkpt><trkpt lat="44.75874302103604" lon="9.71302156696158"><ele>917.3333333333333</ele><time>2026-03-28T08:40:30.999Z</time></trkpt><trkpt lat="44.75867885609738" lon="9.712965566499594"><ele>917.0</ele><time>2026-03-28T08:40:31.999Z</time></trkpt><trkpt lat="44.75860660556192" lon="9.712921814435987"><ele>916.6666666666666</ele><time>2026-03-28T08:40:32.999Z</time></trkpt><trkpt lat="44.75853962175922" lon="9.712873519418926"><ele>916.3333333333333</ele><time>2026-03-28T08:40:33.999Z</time></trkpt><trkpt lat="44.75847575604653" lon="9.712828555679799"><ele>916.0</ele><time>2026-03-28T08:40:34.999Z</time></trkpt><trkpt lat="44.75840834085904" lon="9.71278662174305"><ele>915.9999999999999</ele><time>2026-03-28T08:40:35.999Z</time></trkpt><trkpt lat="44.758336956471126" lon="9.712755604813495"><ele>916.0</ele><time>2026-03-28T08:40:36.999Z</time></trkpt><trkpt lat="44.75827112531734" lon="9.712704042316593"><ele>916.0</ele><time>2026-03-28T08:40:37.999Z</time></trkpt><trkpt lat="44.758167513197705" lon="9.712671125149717"><ele>916.0</ele><time>2026-03-28T08:40:39.999Z</time></trkpt><trkpt lat="44.758103483218065" lon="9.712604038658045"><ele>915.9999999999999</ele><time>2026-03-28T08:40:41.999Z</time></trkpt><trkpt lat="44.75810523179633" lon="9.71244634236068"><ele>916.0</ele><time>2026-03-28T08:40:43.999Z</time></trkpt><trkpt lat="44.75807159725413" lon="9.712278225756373"><ele>914.1666666666666</ele><time>2026-03-28T08:40:45.999Z</time></trkpt><trkpt lat="44.75804696012697" lon="9.712182959825947"><ele>912.3333333333333</ele><time>2026-03-28T08:40:46.999Z</time></trkpt><trkpt lat="44.75801553337324" lon="9.712091376223896"><ele>910.5</ele><time>2026-03-28T08:40:47.999Z</time></trkpt><trkpt lat="44.75798245008891" lon="9.71200456214892"><ele>908.6666666666667</ele><time>2026-03-28T08:40:48.999Z</time></trkpt><trkpt lat="44.75794782948839" lon="9.711913714090205"><ele>906.8333333333334</ele><time>2026-03-28T08:40:49.999Z</time></trkpt><trkpt lat="44.75791770549947" lon="9.711829685530617"><ele>905.0</ele><time>2026-03-28T08:40:50.999Z</time></trkpt><trkpt lat="44.75788599174376" lon="9.71166581446981"><ele>904.1428571428571</ele><time>2026-03-28T08:40:52.999Z</time></trkpt><trkpt lat="44.75786985994179" lon="9.711572597079636"><ele>903.2857142857142</ele><time>2026-03-28T08:40:53.999Z</time></trkpt><trkpt lat="44.7578523134642" lon="9.711485920049812"><ele>902.4285714285713</ele><time>2026-03-28T08:40:54.999Z</time></trkpt><trkpt lat="44.757832756678695" lon="9.711395145875633"><ele>901.5714285714284</ele><time>2026-03-28T08:40:55.999Z</time></trkpt><trkpt lat="44.75781382264416" lon="9.711306987025427"><ele>900.7142857142857</ele><time>2026-03-28T08:40:56.999Z</time></trkpt><trkpt lat="44.75778988684243" lon="9.711217428429014"><ele>899.8571428571427</ele><time>2026-03-28T08:40:57.999Z</time></trkpt><trkpt lat="44.75774809041735" lon="9.711135712981232"><ele>898.9999999999999</ele><time>2026-03-28T08:40:58.999Z</time></trkpt><trkpt lat="44.75769633810188" lon="9.711077645758309"><ele>899.0000000000001</ele><time>2026-03-28T08:40:59.999Z</time></trkpt><trkpt lat="44.75758547352063" lon="9.711002002092426"><ele>899.0</ele><time>2026-03-28T08:41:01.999Z</time></trkpt><trkpt lat="44.75750941897206" lon="9.711022110419556"><ele>899.0</ele><time>2026-03-28T08:41:02.999Z</time></trkpt><trkpt lat="44.75745665845145" lon="9.711102642151035"><ele>899.0</ele><time>2026-03-28T08:41:03.999Z</time></trkpt><trkpt lat="44.757396025473" lon="9.711177984307643"><ele>899.0000000000001</ele><time>2026-03-28T08:41:04.999Z</time></trkpt><trkpt lat="44.757325105448636" lon="9.71122429883603"><ele>899.0</ele><time>2026-03-28T08:41:05.999Z</time></trkpt><trkpt lat="44.75727529316455" lon="9.711298966913414"><ele>898.9999999999999</ele><time>2026-03-28T08:41:06.999Z</time></trkpt><trkpt lat="44.757213574764215" lon="9.711335314510865"><ele>899.0</ele><time>2026-03-28T08:41:07.999Z</time></trkpt><trkpt lat="44.757143397733735" lon="9.711346311229434"><ele>898.9999999999999</ele><time>2026-03-28T08:41:08.999Z</time></trkpt><trkpt lat="44.75707515917138" lon="9.711376254817731"><ele>898.9999999999999</ele><time>2026-03-28T08:41:09.999Z</time></trkpt><trkpt lat="44.757017632326026" lon="9.711430417067866"><ele>899.0</ele><time>2026-03-28T08:41:10.999Z</time></trkpt><trkpt lat="44.75696688195644" lon="9.71148550045454"><ele>898.9999999999999</ele><time>2026-03-28T08:41:11.999Z</time></trkpt><trkpt lat="44.756922524848356" lon="9.711550162319584"><ele>898.9999999999999</ele><time>2026-03-28T08:41:12.999Z</time></trkpt><trkpt lat="44.75680868611972" lon="9.711605172031387"><ele>896.0000000000001</ele><time>2026-03-28T08:41:14.999Z</time></trkpt><trkpt lat="44.75667649366883" lon="9.711618457796913"><ele>893.0</ele><time>2026-03-28T08:41:16.999Z</time></trkpt><trkpt lat="44.75660459108034" lon="9.711626806675984"><ele>890.0</ele><time>2026-03-28T08:41:17.999Z</time></trkpt><trkpt lat="44.7565276479873" lon="9.711638483259907"><ele>887.0</ele><time>2026-03-28T08:41:18.999Z</time></trkpt><trkpt lat="44.756445966973196" lon="9.711657391104843"><ele>884.0000000000001</ele><time>2026-03-28T08:41:19.999Z</time></trkpt><trkpt lat="44.756367024992976" lon="9.711683072662664"><ele>881.0</ele><time>2026-03-28T08:41:20.999Z</time></trkpt><trkpt lat="44.75628891337261" lon="9.711711912951666"><ele>881.0000000000001</ele><time>2026-03-28T08:41:21.999Z</time></trkpt><trkpt lat="44.756206621558604" lon="9.711757073011222"><ele>881.0</ele><time>2026-03-28T08:41:22.999Z</time></trkpt><trkpt lat="44.756137452109314" lon="9.711834992898"><ele>881.0</ele><time>2026-03-28T08:41:23.999Z</time></trkpt><trkpt lat="44.7560759771173" lon="9.711887501141877"><ele>881.0</ele><time>2026-03-28T08:41:24.999Z</time></trkpt><trkpt lat="44.75601246545135" lon="9.711926924643514"><ele>881.0000000000001</ele><time>2026-03-28T08:41:25.999Z</time></trkpt><trkpt lat="44.75588829251175" lon="9.711981979835098"><ele>881.0</ele><time>2026-03-28T08:41:27.999Z</time></trkpt><trkpt lat="44.75581456430895" lon="9.712014587154387"><ele>881.0000000000001</ele><time>2026-03-28T08:41:28.998Z</time></trkpt><trkpt lat="44.75574542334986" lon="9.712057365548228"><ele>881.0</ele><time>2026-03-28T08:41:29.998Z</time></trkpt><trkpt lat="44.75568708306062" lon="9.712098434790194"><ele>881.0</ele><time>2026-03-28T08:41:30.998Z</time></trkpt><trkpt lat="44.75558192677597" lon="9.712161279929663"><ele>881.0</ele><time>2026-03-28T08:41:32.998Z</time></trkpt><trkpt lat="44.755505016225875" lon="9.712129528597464"><ele>881.0000000000001</ele><time>2026-03-28T08:41:35.998Z</time></trkpt><trkpt lat="44.755574234971746" lon="9.712013001435638"><ele>881.0</ele><time>2026-03-28T08:41:37.998Z</time></trkpt><trkpt lat="44.75561941817238" lon="9.711912915458086"><ele>877.4</ele><time>2026-03-28T08:41:39.998Z</time></trkpt><trkpt lat="44.75565968268563" lon="9.71179666844926"><ele>873.8</ele><time>2026-03-28T08:41:41.998Z</time></trkpt><trkpt lat="44.75567436526739" lon="9.711662095287632"><ele>870.1999999999999</ele><time>2026-03-28T08:41:43.998Z</time></trkpt><trkpt lat="44.7556700563009" lon="9.711519528558807"><ele>866.5999999999999</ele><time>2026-03-28T08:41:45.998Z</time></trkpt><trkpt lat="44.755653586212915" lon="9.711373354110332"><ele>863.0</ele><time>2026-03-28T08:41:47.998Z</time></trkpt><trkpt lat="44.75562503210771" lon="9.711214776249932"><ele>860.8</ele><time>2026-03-28T08:41:49.998Z</time></trkpt><trkpt lat="44.75558325848112" lon="9.71106662553139"><ele>858.5999999999999</ele><time>2026-03-28T08:41:52Z</time></trkpt><trkpt lat="44.75554207023776" lon="9.710919547801165"><ele>856.4000000000001</ele><time>2026-03-28T08:41:54Z</time></trkpt><trkpt lat="44.75551573652252" lon="9.710783363420276"><ele>854.2</ele><time>2026-03-28T08:41:56Z</time></trkpt><trkpt lat="44.75548534590789" lon="9.71064151635245"><ele>852.0</ele><time>2026-03-28T08:41:58Z</time></trkpt><trkpt lat="44.7554549956289" lon="9.710504053465117"><ele>852.0</ele><time>2026-03-28T08:42:00Z</time></trkpt><trkpt lat="44.75543062541135" lon="9.71038343193061"><ele>852.0</ele><time>2026-03-28T08:42:02Z</time></trkpt><trkpt lat="44.75541893591877" lon="9.710261342226836"><ele>852.0</ele><time>2026-03-28T08:42:04Z</time></trkpt><trkpt lat="44.75542023792728" lon="9.71013468665059"><ele>852.0</ele><time>2026-03-28T08:42:06Z</time></trkpt><trkpt lat="44.75546628375915" lon="9.709996792668393"><ele>852.0</ele><time>2026-03-28T08:42:08Z</time></trkpt><trkpt lat="44.755530648772776" lon="9.709862346722025"><ele>851.6</ele><time>2026-03-28T08:42:10Z</time></trkpt><trkpt lat="44.755601836644836" lon="9.70977531069275"><ele>851.2</ele><time>2026-03-28T08:42:12Z</time></trkpt><trkpt lat="44.755709186821186" lon="9.709752507612754"><ele>850.8</ele><time>2026-03-28T08:42:14Z</time></trkpt><trkpt lat="44.7558209544154" lon="9.70977250423656"><ele>850.4</ele><time>2026-03-28T08:42:16Z</time></trkpt><trkpt lat="44.75593943436007" lon="9.709785160561317"><ele>850.0</ele><time>2026-03-28T08:42:18Z</time></trkpt><trkpt lat="44.756031365664896" lon="9.709723912957017"><ele>850.0</ele><time>2026-03-28T08:42:20Z</time></trkpt><trkpt lat="44.756047458332134" lon="9.709587459083906"><ele>850.0</ele><time>2026-03-28T08:42:22Z</time></trkpt><trkpt lat="44.755978748354515" lon="9.70944399558072"><ele>850.0</ele><time>2026-03-28T08:42:24Z</time></trkpt><trkpt lat="44.75593227170433" lon="9.709370768366504"><ele>850.0</ele><time>2026-03-28T08:42:25Z</time></trkpt><trkpt lat="44.755888281030856" lon="9.709300054180316"><ele>850.0</ele><time>2026-03-28T08:42:26Z</time></trkpt><trkpt lat="44.755821284654644" lon="9.709156571053889"><ele>848.4</ele><time>2026-03-28T08:42:28Z</time></trkpt><trkpt lat="44.75581865248617" lon="9.709023473726942"><ele>846.8</ele><time>2026-03-28T08:42:30Z</time></trkpt><trkpt lat="44.75587858756182" lon="9.708907438898407"><ele>845.2</ele><time>2026-03-28T08:42:32Z</time></trkpt><trkpt lat="44.75593987113127" lon="9.708871561853382"><ele>843.6</ele><time>2026-03-28T08:42:33Z</time></trkpt><trkpt lat="44.75603946326619" lon="9.708769375402758"><ele>842.0</ele><time>2026-03-28T08:42:34.999Z</time></trkpt><trkpt lat="44.75608789095295" lon="9.708708904975449"><ele>837.6666666666667</ele><time>2026-03-28T08:42:35.999Z</time></trkpt><trkpt lat="44.756133746290836" lon="9.708644723611826"><ele>833.3333333333334</ele><time>2026-03-28T08:42:36.999Z</time></trkpt><trkpt lat="44.75617149298425" lon="9.708565857021423"><ele>829.0</ele><time>2026-03-28T08:42:37.999Z</time></trkpt><trkpt lat="44.75618896163813" lon="9.708471581143915"><ele>824.6666666666667</ele><time>2026-03-28T08:42:38.999Z</time></trkpt><trkpt lat="44.75619374772696" lon="9.708363461775912"><ele>820.3333333333334</ele><time>2026-03-28T08:42:39.999Z</time></trkpt><trkpt lat="44.75619918810101" lon="9.708261130472897"><ele>816.0</ele><time>2026-03-28T08:42:40.999Z</time></trkpt><trkpt lat="44.75621089838961" lon="9.708093358228087"><ele>814.5999999999999</ele><time>2026-03-28T08:42:42.999Z</time></trkpt><trkpt lat="44.75618233005565" lon="9.707926595276342"><ele>813.2</ele><time>2026-03-28T08:42:44.999Z</time></trkpt><trkpt lat="44.756131772738165" lon="9.70785841820328"><ele>811.8</ele><time>2026-03-28T08:42:45.999Z</time></trkpt><trkpt lat="44.75604650823317" lon="9.707825677329062"><ele>810.4000000000001</ele><time>2026-03-28T08:42:46.999Z</time></trkpt><trkpt lat="44.75597584060439" lon="9.707816307892392"><ele>809.0</ele><time>2026-03-28T08:42:47.999Z</time></trkpt><trkpt lat="44.75585733353202" lon="9.707795423762674"><ele>813.0</ele><time>2026-03-28T08:42:49.999Z</time></trkpt><trkpt lat="44.755766676432636" lon="9.707776967774564"><ele>817.0</ele><time>2026-03-28T08:42:51.999Z</time></trkpt><trkpt lat="44.75569428080497" lon="9.707764113068958"><ele>821.0</ele><time>2026-03-28T08:42:53.999Z</time></trkpt><trkpt lat="44.75562478109978" lon="9.70799269550735"><ele>825.0</ele><time>2026-03-28T08:42:57.999Z</time></trkpt><trkpt lat="44.75559489110657" lon="9.708073771119786"><ele>829.0</ele><time>2026-03-28T08:43:00.999Z</time></trkpt><trkpt lat="44.75553152624732" lon="9.70813745911576"><ele>829.0</ele><time>2026-03-28T08:43:04.999Z</time></trkpt><trkpt lat="44.75547481275853" lon="9.708180135134867"><ele>829.0</ele><time>2026-03-28T08:43:07.999Z</time></trkpt><trkpt lat="44.755405698438054" lon="9.708213154799504"><ele>829.0</ele><time>2026-03-28T08:43:10.999Z</time></trkpt><trkpt lat="44.75532546681744" lon="9.708236661598495"><ele>829.0</ele><time>2026-03-28T08:43:13.999Z</time></trkpt><trkpt lat="44.75523562000495" lon="9.708272543463652"><ele>829.0</ele><time>2026-03-28T08:43:16.999Z</time></trkpt><trkpt lat="44.75517207847677" lon="9.708250235590128"><ele>829.0</ele><time>2026-03-28T08:43:18.999Z</time></trkpt><trkpt lat="44.75510834144663" lon="9.708233079344444"><ele>829.0</ele><time>2026-03-28T08:43:20.999Z</time></trkpt><trkpt lat="44.75504430765947" lon="9.708200498256286"><ele>828.4999999999999</ele><time>2026-03-28T08:43:22.999Z</time></trkpt><trkpt lat="44.75497854049251" lon="9.708154139874727"><ele>828.0</ele><time>2026-03-28T08:43:24.999Z</time></trkpt><trkpt lat="44.754897140687056" lon="9.708130771082862"><ele>827.5</ele><time>2026-03-28T08:43:26.999Z</time></trkpt><trkpt lat="44.75482404848935" lon="9.708076307907204"><ele>827.0</ele><time>2026-03-28T08:43:28.999Z</time></trkpt><trkpt lat="44.75475718141005" lon="9.708028180161826"><ele>826.4999999999999</ele><time>2026-03-28T08:43:30.998Z</time></trkpt><trkpt lat="44.75469456272074" lon="9.707980305207796"><ele>826.0</ele><time>2026-03-28T08:43:32.998Z</time></trkpt><trkpt lat="44.75462438355982" lon="9.707944417827665"><ele>826.0</ele><time>2026-03-28T08:43:34.998Z</time></trkpt><trkpt lat="44.75455109470366" lon="9.707917674083772"><ele>826.0</ele><time>2026-03-28T08:43:36.998Z</time></trkpt><trkpt lat="44.754462324382075" lon="9.707878050200293"><ele>826.0</ele><time>2026-03-28T08:43:38.998Z</time></trkpt><trkpt lat="44.75436809178613" lon="9.707834493145606"><ele>826.0</ele><time>2026-03-28T08:43:40.998Z</time></trkpt><trkpt lat="44.754269921345276" lon="9.707802425742731"><ele>826.0</ele><time>2026-03-28T08:43:42.998Z</time></trkpt><trkpt lat="44.75417576795473" lon="9.707762376793477"><ele>824.5714285714286</ele><time>2026-03-28T08:43:44.998Z</time></trkpt><trkpt lat="44.75410059615579" lon="9.707709100832165"><ele>823.1428571428571</ele><time>2026-03-28T08:43:46.998Z</time></trkpt><trkpt lat="44.75404509530777" lon="9.707645832350188"><ele>821.7142857142858</ele><time>2026-03-28T08:43:48.998Z</time></trkpt><trkpt lat="44.753991289977876" lon="9.707594773076538"><ele>820.2857142857142</ele><time>2026-03-28T08:43:50.998Z</time></trkpt><trkpt lat="44.753925416812464" lon="9.707538638194144"><ele>818.8571428571429</ele><time>2026-03-28T08:43:53.998Z</time></trkpt><trkpt lat="44.753867021828434" lon="9.707492276321451"><ele>817.4285714285714</ele><time>2026-03-28T08:43:56.998Z</time></trkpt><trkpt lat="44.75380701219808" lon="9.707410803941606"><ele>816.0</ele><time>2026-03-28T08:43:59Z</time></trkpt><trkpt lat="44.75373896816667" lon="9.707334045715266"><ele>816.0</ele><time>2026-03-28T08:44:01Z</time></trkpt><trkpt lat="44.75365884096754" lon="9.7072969947725"><ele>816.0</ele><time>2026-03-28T08:44:03Z</time></trkpt><trkpt lat="44.753583504133424" lon="9.707314165528"><ele>816.0</ele><time>2026-03-28T08:44:05Z</time></trkpt><trkpt lat="44.75352063055884" lon="9.7073692718149"><ele>816.0</ele><time>2026-03-28T08:44:07Z</time></trkpt><trkpt lat="44.7534752552801" lon="9.707452265314826"><ele>816.0</ele><time>2026-03-28T08:44:09Z</time></trkpt><trkpt lat="44.75344556491914" lon="9.70755223247788"><ele>816.0</ele><time>2026-03-28T08:44:11Z</time></trkpt><trkpt lat="44.753407307044185" lon="9.70763608099774"><ele>817.4285714285714</ele><time>2026-03-28T08:44:13Z</time></trkpt><trkpt lat="44.7533496812544" lon="9.707685670871403"><ele>818.8571428571429</ele><time>2026-03-28T08:44:15Z</time></trkpt><trkpt lat="44.75328439543091" lon="9.70772613118157"><ele>820.2857142857142</ele><time>2026-03-28T08:44:17Z</time></trkpt><trkpt lat="44.753231101096496" lon="9.707776420179997"><ele>821.7142857142858</ele><time>2026-03-28T08:44:19Z</time></trkpt><trkpt lat="44.75317483743549" lon="9.70782429308981"><ele>823.1428571428571</ele><time>2026-03-28T08:44:21Z</time></trkpt><trkpt lat="44.75310094881182" lon="9.707883911169674"><ele>824.5714285714286</ele><time>2026-03-28T08:44:24Z</time></trkpt><trkpt lat="44.75302585588264" lon="9.707947282773647"><ele>826.0</ele><time>2026-03-28T08:44:27Z</time></trkpt><trkpt lat="44.75294993052972" lon="9.708016667757171"><ele>826.4999999999999</ele><time>2026-03-28T08:44:30Z</time></trkpt><trkpt lat="44.752874509387816" lon="9.708088951766062"><ele>827.0</ele><time>2026-03-28T08:44:33Z</time></trkpt><trkpt lat="44.75281623808426" lon="9.7081270930522"><ele>827.5</ele><time>2026-03-28T08:44:35Z</time></trkpt><trkpt lat="44.75275478379056" lon="9.708173264657368"><ele>828.0</ele><time>2026-03-28T08:44:37.999Z</time></trkpt><trkpt lat="44.75269539923215" lon="9.708232302143733"><ele>828.4999999999999</ele><time>2026-03-28T08:44:40.999Z</time></trkpt><trkpt lat="44.75262138176284" lon="9.708304586081667"><ele>829.0</ele><time>2026-03-28T08:44:43.999Z</time></trkpt><trkpt lat="44.752542083700256" lon="9.708373101485057"><ele>829.3333333333333</ele><time>2026-03-28T08:44:46.999Z</time></trkpt><trkpt lat="44.75248985068749" lon="9.708424144521366"><ele>829.6666666666666</ele><time>2026-03-28T08:44:48.999Z</time></trkpt><trkpt lat="44.75240930798357" lon="9.708488708816265"><ele>830.0</ele><time>2026-03-28T08:44:51.999Z</time></trkpt><trkpt lat="44.75233118059969" lon="9.708562069867755"><ele>830.3333333333333</ele><time>2026-03-28T08:44:54.999Z</time></trkpt><trkpt lat="44.75225389387479" lon="9.708630361116155"><ele>830.6666666666666</ele><time>2026-03-28T08:44:57.999Z</time></trkpt><trkpt lat="44.75216963638004" lon="9.708697304673949"><ele>831.0</ele><time>2026-03-28T08:45:00.999Z</time></trkpt><trkpt lat="44.75209798739178" lon="9.70876365605162"><ele>832.1666666666666</ele><time>2026-03-28T08:45:03.999Z</time></trkpt><trkpt lat="44.75201853623248" lon="9.708807356996504"><ele>833.3333333333333</ele><time>2026-03-28T08:45:06.999Z</time></trkpt><trkpt lat="44.751938151150036" lon="9.708846579315754"><ele>834.5</ele><time>2026-03-28T08:45:09.999Z</time></trkpt><trkpt lat="44.75184974002742" lon="9.708872329020016"><ele>835.6666666666666</ele><time>2026-03-28T08:45:12.999Z</time></trkpt><trkpt lat="44.7517643750598" lon="9.708896933075662"><ele>836.8333333333333</ele><time>2026-03-28T08:45:15.999Z</time></trkpt><trkpt lat="44.75167681975258" lon="9.708897701755763"><ele>838.0</ele><time>2026-03-28T08:45:18.999Z</time></trkpt><trkpt lat="44.75159854167049" lon="9.708894806015785"><ele>839.5714285714286</ele><time>2026-03-28T08:45:21.999Z</time></trkpt><trkpt lat="44.75153083039248" lon="9.708879504591627"><ele>841.1428571428571</ele><time>2026-03-28T08:45:24.999Z</time></trkpt><trkpt lat="44.751458665073784" lon="9.708881666300847"><ele>842.7142857142858</ele><time>2026-03-28T08:45:27.999Z</time></trkpt><trkpt lat="44.75138093863938" lon="9.708905814651326"><ele>844.2857142857142</ele><time>2026-03-28T08:45:30.999Z</time></trkpt><trkpt lat="44.75131142130666" lon="9.70895004801566"><ele>845.8571428571429</ele><time>2026-03-28T08:45:33.998Z</time></trkpt><trkpt lat="44.75124869806748" lon="9.709004506046798"><ele>847.4285714285714</ele><time>2026-03-28T08:45:36.998Z</time></trkpt><trkpt lat="44.75119450272757" lon="9.70907111455843"><ele>849.0</ele><time>2026-03-28T08:45:39.998Z</time></trkpt><trkpt lat="44.75114575012462" lon="9.709136815470698"><ele>849.0000000000001</ele><time>2026-03-28T08:45:42.998Z</time></trkpt><trkpt lat="44.75109231191404" lon="9.709200605686393"><ele>849.0</ele><time>2026-03-28T08:45:45.998Z</time></trkpt><trkpt lat="44.751041262521696" lon="9.709266806937054"><ele>849.0</ele><time>2026-03-28T08:45:48.998Z</time></trkpt><trkpt lat="44.75099607384948" lon="9.709337450249782"><ele>849.0</ele><time>2026-03-28T08:45:51.998Z</time></trkpt><trkpt lat="44.750945663470816" lon="9.709392505464642"><ele>849.0</ele><time>2026-03-28T08:45:54.998Z</time></trkpt><trkpt lat="44.75088983383365" lon="9.70948019101652"><ele>849.0000000000001</ele><time>2026-03-28T08:45:58.998Z</time></trkpt><trkpt lat="44.75084869540825" lon="9.709550149518394"><ele>849.0</ele><time>2026-03-28T08:46:01.998Z</time></trkpt><trkpt lat="44.750800192460524" lon="9.709620502898812"><ele>852.4285714285714</ele><time>2026-03-28T08:46:05Z</time></trkpt><trkpt lat="44.750748983317656" lon="9.709691583976557"><ele>855.8571428571429</ele><time>2026-03-28T08:46:08Z</time></trkpt><trkpt lat="44.750703785287264" lon="9.70976912661733"><ele>859.2857142857142</ele><time>2026-03-28T08:46:11Z</time></trkpt><trkpt lat="44.75065349382023" lon="9.709839797939077"><ele>862.7142857142858</ele><time>2026-03-28T08:46:14Z</time></trkpt><trkpt lat="44.75060063001125" lon="9.709902658969847"><ele>866.1428571428571</ele><time>2026-03-28T08:46:17Z</time></trkpt><trkpt lat="44.750543572962826" lon="9.709959539258008"><ele>869.5714285714286</ele><time>2026-03-28T08:46:20Z</time></trkpt><trkpt lat="44.75048781842782" lon="9.710021751429537"><ele>873.0</ele><time>2026-03-28T08:46:23Z</time></trkpt><trkpt lat="44.750424303521704" lon="9.710060032131494"><ele>873.0</ele><time>2026-03-28T08:46:26Z</time></trkpt><trkpt lat="44.75035187093467" lon="9.710076374099389"><ele>873.0</ele><time>2026-03-28T08:46:29Z</time></trkpt><trkpt lat="44.750281413419145" lon="9.71005868398875"><ele>873.0</ele><time>2026-03-28T08:46:32Z</time></trkpt><trkpt lat="44.7502108498009" lon="9.710025269653379"><ele>873.0</ele><time>2026-03-28T08:46:35Z</time></trkpt><trkpt lat="44.750145188035724" lon="9.709965716243914"><ele>873.0</ele><time>2026-03-28T08:46:38Z</time></trkpt><trkpt lat="44.75008538861747" lon="9.70988808300385"><ele>873.0</ele><time>2026-03-28T08:46:40.999Z</time></trkpt><trkpt lat="44.7500237142503" lon="9.70980402352326"><ele>871.5</ele><time>2026-03-28T08:46:43.999Z</time></trkpt><trkpt lat="44.74996388947223" lon="9.709723616765201"><ele>870.0</ele><time>2026-03-28T08:46:46.999Z</time></trkpt><trkpt lat="44.749902922751204" lon="9.709643877255376"><ele>868.5</ele><time>2026-03-28T08:46:49.999Z</time></trkpt><trkpt lat="44.74983961703491" lon="9.70957564518178"><ele>867.0</ele><time>2026-03-28T08:46:52.999Z</time></trkpt><trkpt lat="44.74977264794963" lon="9.709516883228062"><ele>865.5</ele><time>2026-03-28T08:46:55.999Z</time></trkpt><trkpt lat="44.74970149562986" lon="9.709485555191904"><ele>864.0</ele><time>2026-03-28T08:46:58.999Z</time></trkpt><trkpt lat="44.74962782651894" lon="9.709474106167477"><ele>864.0</ele><time>2026-03-28T08:47:01.999Z</time></trkpt><trkpt lat="44.74955403499891" lon="9.709470037603422"><ele>864.0</ele><time>2026-03-28T08:47:04.999Z</time></trkpt><trkpt lat="44.74948392867754" lon="9.709488697053244"><ele>864.0</ele><time>2026-03-28T08:47:07.999Z</time></trkpt><trkpt lat="44.74941274222161" lon="9.709515895868797"><ele>864.0</ele><time>2026-03-28T08:47:10.999Z</time></trkpt><trkpt lat="44.7493471717414" lon="9.709559301021102"><ele>864.0</ele><time>2026-03-28T08:47:13.999Z</time></trkpt><trkpt lat="44.749281639011045" lon="9.709600772931958"><ele>864.0</ele><time>2026-03-28T08:47:16.999Z</time></trkpt><trkpt lat="44.7492140394923" lon="9.709632544924235"><ele>864.0</ele><time>2026-03-28T08:47:19.999Z</time></trkpt><trkpt lat="44.74914176493802" lon="9.709651972421344"><ele>865.8571428571429</ele><time>2026-03-28T08:47:22.999Z</time></trkpt><trkpt lat="44.749076625340294" lon="9.70967324502133"><ele>867.7142857142857</ele><time>2026-03-28T08:47:25.999Z</time></trkpt><trkpt lat="44.749007431864435" lon="9.709683264717784"><ele>869.5714285714287</ele><time>2026-03-28T08:47:28.999Z</time></trkpt><trkpt lat="44.748940830739706" lon="9.709692474553064"><ele>871.4285714285714</ele><time>2026-03-28T08:47:31.999Z</time></trkpt><trkpt lat="44.748871373023846" lon="9.70968963812142"><ele>873.2857142857143</ele><time>2026-03-28T08:47:34.998Z</time></trkpt><trkpt lat="44.74880532318732" lon="9.70968484645339"><ele>875.1428571428572</ele><time>2026-03-28T08:47:37.998Z</time></trkpt><trkpt lat="44.74874019698241" lon="9.70968468411787"><ele>877.0</ele><time>2026-03-28T08:47:40.998Z</time></trkpt><trkpt lat="44.74867496561856" lon="9.709674985280712"><ele>877.0000000000001</ele><time>2026-03-28T08:47:43.998Z</time></trkpt><trkpt lat="44.74861057925195" lon="9.709664155389575"><ele>877.0</ele><time>2026-03-28T08:47:46.998Z</time></trkpt><trkpt lat="44.74852626780636" lon="9.709648170973486"><ele>877.0</ele><time>2026-03-28T08:47:50.998Z</time></trkpt><trkpt lat="44.748454806840776" lon="9.709618052905018"><ele>877.0</ele><time>2026-03-28T08:47:54.998Z</time></trkpt><trkpt lat="44.748384452555214" lon="9.709567112016147"><ele>877.0</ele><time>2026-03-28T08:47:58.998Z</time></trkpt><trkpt lat="44.748332904575555" lon="9.709506821982076"><ele>877.0000000000001</ele><time>2026-03-28T08:48:01.998Z</time></trkpt><trkpt lat="44.74827276538208" lon="9.709456520725567"><ele>877.0</ele><time>2026-03-28T08:48:04.998Z</time></trkpt><trkpt lat="44.748213018244066" lon="9.70940095650279"><ele>877.8571428571429</ele><time>2026-03-28T08:48:07.998Z</time></trkpt><trkpt lat="44.74816113107124" lon="9.709344285827642"><ele>878.7142857142858</ele><time>2026-03-28T08:48:11Z</time></trkpt><trkpt lat="44.74810482303976" lon="9.70929162434116"><ele>879.5714285714287</ele><time>2026-03-28T08:48:14Z</time></trkpt><trkpt lat="44.74804576947319" lon="9.709234790250925"><ele>880.4285714285714</ele><time>2026-03-28T08:48:17Z</time></trkpt><trkpt lat="44.74798652010864" lon="9.709178501480942"><ele>881.2857142857142</ele><time>2026-03-28T08:48:20Z</time></trkpt><trkpt lat="44.74792197465374" lon="9.709137362345942"><ele>882.1428571428572</ele><time>2026-03-28T08:48:23Z</time></trkpt><trkpt lat="44.74786114034156" lon="9.709083232815605"><ele>883.0</ele><time>2026-03-28T08:48:26Z</time></trkpt><trkpt lat="44.74779598144765" lon="9.709027075227809"><ele>883.0</ele><time>2026-03-28T08:48:29Z</time></trkpt><trkpt lat="44.74772776054109" lon="9.708982200288567"><ele>883.0</ele><time>2026-03-28T08:48:32Z</time></trkpt><trkpt lat="44.747665542508436" lon="9.70892507790703"><ele>883.0</ele><time>2026-03-28T08:48:35Z</time></trkpt><trkpt lat="44.74760335244294" lon="9.708864180009462"><ele>883.0</ele><time>2026-03-28T08:48:38Z</time></trkpt><trkpt lat="44.74754164808384" lon="9.70881385260099"><ele>883.0</ele><time>2026-03-28T08:48:41Z</time></trkpt><trkpt lat="44.74747687012371" lon="9.708763081451197"><ele>883.0</ele><time>2026-03-28T08:48:44Z</time></trkpt><trkpt lat="44.74741410602496" lon="9.708697905801289"><ele>883.0</ele><time>2026-03-28T08:48:46.999Z</time></trkpt><trkpt lat="44.747345368286965" lon="9.708630889852671"><ele>884.6666666666666</ele><time>2026-03-28T08:48:49.999Z</time></trkpt><trkpt lat="44.74729587336017" lon="9.708572726810587"><ele>886.3333333333333</ele><time>2026-03-28T08:48:51.999Z</time></trkpt><trkpt lat="44.747249339229654" lon="9.708488920203976"><ele>888.0</ele><time>2026-03-28T08:48:53.999Z</time></trkpt><trkpt lat="44.74721180430792" lon="9.708378076295979"><ele>889.6666666666667</ele><time>2026-03-28T08:48:55.999Z</time></trkpt><trkpt lat="44.74716022622911" lon="9.70826102052144"><ele>891.3333333333334</ele><time>2026-03-28T08:48:57.999Z</time></trkpt><trkpt lat="44.74706624639397" lon="9.708154442135132"><ele>893.0</ele><time>2026-03-28T08:48:59.999Z</time></trkpt><trkpt lat="44.74695289115475" lon="9.708096340779797"><ele>891.5000000000001</ele><time>2026-03-28T08:49:01.999Z</time></trkpt><trkpt lat="44.746846614682305" lon="9.708029572666394"><ele>890.0</ele><time>2026-03-28T08:49:03.999Z</time></trkpt><trkpt lat="44.74674572783788" lon="9.707940787802553"><ele>888.5</ele><time>2026-03-28T08:49:05.999Z</time></trkpt><trkpt lat="44.746689997017334" lon="9.70788931444965"><ele>887.0</ele><time>2026-03-28T08:49:06.999Z</time></trkpt><trkpt lat="44.74662608544952" lon="9.707839393552469"><ele>885.5000000000001</ele><time>2026-03-28T08:49:07.999Z</time></trkpt><trkpt lat="44.746564498017136" lon="9.707790205333524"><ele>884.0</ele><time>2026-03-28T08:49:08.999Z</time></trkpt><trkpt lat="44.74649611854535" lon="9.70775656250181"><ele>884.0000000000001</ele><time>2026-03-28T08:49:09.999Z</time></trkpt><trkpt lat="44.746416731189086" lon="9.707741261274244"><ele>884.0</ele><time>2026-03-28T08:49:10.999Z</time></trkpt><trkpt lat="44.746336851170255" lon="9.707744781099796"><ele>884.0</ele><time>2026-03-28T08:49:11.999Z</time></trkpt><trkpt lat="44.74625900782218" lon="9.707768171544707"><ele>884.0</ele><time>2026-03-28T08:49:12.999Z</time></trkpt><trkpt lat="44.746184199441274" lon="9.707798938315092"><ele>884.0000000000001</ele><time>2026-03-28T08:49:13.999Z</time></trkpt><trkpt lat="44.74611424162308" lon="9.707838631030263"><ele>884.0</ele><time>2026-03-28T08:49:14.999Z</time></trkpt><trkpt lat="44.74604604106672" lon="9.70788196193965"><ele>882.4285714285714</ele><time>2026-03-28T08:49:15.999Z</time></trkpt><trkpt lat="44.74598108645372" lon="9.707934396184735"><ele>880.8571428571429</ele><time>2026-03-28T08:49:16.999Z</time></trkpt><trkpt lat="44.74591854522832" lon="9.707981586936254"><ele>879.2857142857142</ele><time>2026-03-28T08:49:17.999Z</time></trkpt><trkpt lat="44.74584620891909" lon="9.708013571989682"><ele>877.7142857142858</ele><time>2026-03-28T08:49:18.999Z</time></trkpt><trkpt lat="44.745772311378914" lon="9.708022380107131"><ele>876.1428571428571</ele><time>2026-03-28T08:49:19.999Z</time></trkpt><trkpt lat="44.74570964837092" lon="9.707966201413436"><ele>874.5714285714286</ele><time>2026-03-28T08:49:20.999Z</time></trkpt><trkpt lat="44.74564639265811" lon="9.707911580760179"><ele>873.0</ele><time>2026-03-28T08:49:21.999Z</time></trkpt><trkpt lat="44.74557864380561" lon="9.707850257541436"><ele>873.0</ele><time>2026-03-28T08:49:22.999Z</time></trkpt><trkpt lat="44.745511784100366" lon="9.707780137487955"><ele>873.0</ele><time>2026-03-28T08:49:23.999Z</time></trkpt><trkpt lat="44.74545009802615" lon="9.70770636699061"><ele>873.0</ele><time>2026-03-28T08:49:24.999Z</time></trkpt><trkpt lat="44.74539962822294" lon="9.707626512517495"><ele>873.0</ele><time>2026-03-28T08:49:25.999Z</time></trkpt><trkpt lat="44.74534990924188" lon="9.707548128482253"><ele>873.0</ele><time>2026-03-28T08:49:26.999Z</time></trkpt><trkpt lat="44.745334573027" lon="9.707442261156457"><ele>873.0</ele><time>2026-03-28T08:49:27.999Z</time></trkpt><trkpt lat="44.74533105689855" lon="9.707337082543315"><ele>874.5714285714286</ele><time>2026-03-28T08:49:28.999Z</time></trkpt><trkpt lat="44.74533313878316" lon="9.707234989458541"><ele>876.1428571428571</ele><time>2026-03-28T08:49:29.999Z</time></trkpt><trkpt lat="44.745327972240126" lon="9.707138032645402"><ele>877.7142857142858</ele><time>2026-03-28T08:49:30.999Z</time></trkpt><trkpt lat="44.74533906119043" lon="9.707043250897403"><ele>879.2857142857142</ele><time>2026-03-28T08:49:31.999Z</time></trkpt><trkpt lat="44.74532532553912" lon="9.706949769435221"><ele>880.8571428571429</ele><time>2026-03-28T08:49:32.999Z</time></trkpt><trkpt lat="44.74530136668436" lon="9.706860835829428"><ele>882.4285714285714</ele><time>2026-03-28T08:49:33.999Z</time></trkpt><trkpt lat="44.745268821914856" lon="9.70678433031167"><ele>884.0</ele><time>2026-03-28T08:49:34.999Z</time></trkpt><trkpt lat="44.7452272015404" lon="9.706717462105333"><ele>883.4285714285714</ele><time>2026-03-28T08:49:35.999Z</time></trkpt><trkpt lat="44.74517604060327" lon="9.706660215715189"><ele>882.8571428571429</ele><time>2026-03-28T08:49:36.999Z</time></trkpt><trkpt lat="44.74510704812846" lon="9.706627214541893"><ele>882.2857142857142</ele><time>2026-03-28T08:49:37.999Z</time></trkpt><trkpt lat="44.745038489210074" lon="9.706615568185418"><ele>881.7142857142858</ele><time>2026-03-28T08:49:38.999Z</time></trkpt><trkpt lat="44.74497057162545" lon="9.706619493238913"><ele>881.1428571428571</ele><time>2026-03-28T08:49:39.999Z</time></trkpt><trkpt lat="44.74490638276061" lon="9.706637203356498"><ele>880.5714285714286</ele><time>2026-03-28T08:49:40.998Z</time></trkpt><trkpt lat="44.74484240162245" lon="9.706656721322675"><ele>880.0</ele><time>2026-03-28T08:49:41.998Z</time></trkpt><trkpt lat="44.744776831256566" lon="9.706680385116528"><ele>879.9999999999999</ele><time>2026-03-28T08:49:42.998Z</time></trkpt><trkpt lat="44.74471341960784" lon="9.706703269944413"><ele>880.0</ele><time>2026-03-28T08:49:43.998Z</time></trkpt><trkpt lat="44.7446483016163" lon="9.706722684604014"><ele>880.0</ele><time>2026-03-28T08:49:44.998Z</time></trkpt><trkpt lat="44.74457810730823" lon="9.7067423148178"><ele>880.0</ele><time>2026-03-28T08:49:45.998Z</time></trkpt><trkpt lat="44.744505194560325" lon="9.7067634789428"><ele>880.0</ele><time>2026-03-28T08:49:46.998Z</time></trkpt><trkpt lat="44.74443570098451" lon="9.706804894209082"><ele>879.9999999999999</ele><time>2026-03-28T08:49:47.998Z</time></trkpt><trkpt lat="44.74436433594293" lon="9.706823697797159"><ele>880.0</ele><time>2026-03-28T08:49:48.998Z</time></trkpt><trkpt lat="44.7442898867242" lon="9.706854969536984"><ele>879.9999999999999</ele><time>2026-03-28T08:49:49.998Z</time></trkpt><trkpt lat="44.74421169557591" lon="9.706858725252136"><ele>880.0</ele><time>2026-03-28T08:49:50.998Z</time></trkpt><trkpt lat="44.74414397745499" lon="9.706885062170976"><ele>880.0</ele><time>2026-03-28T08:49:51.998Z</time></trkpt><trkpt lat="44.744074033900226" lon="9.706912264502868"><ele>880.0</ele><time>2026-03-28T08:49:52.998Z</time></trkpt><trkpt lat="44.74400774616903" lon="9.706952286452692"><ele>880.0</ele><time>2026-03-28T08:49:53.998Z</time></trkpt><trkpt lat="44.743935254425416" lon="9.706973092261475"><ele>879.9999999999999</ele><time>2026-03-28T08:49:54.998Z</time></trkpt><trkpt lat="44.74386476599036" lon="9.707003144062195"><ele>880.0</ele><time>2026-03-28T08:49:55.998Z</time></trkpt><trkpt lat="44.7437919161218" lon="9.70700547742376"><ele>877.4999999999999</ele><time>2026-03-28T08:49:56.998Z</time></trkpt><trkpt lat="44.74372099723495" lon="9.707018646794403"><ele>875.0</ele><time>2026-03-28T08:49:57.998Z</time></trkpt><trkpt lat="44.74364532039297" lon="9.707024693505792"><ele>872.5</ele><time>2026-03-28T08:49:58.998Z</time></trkpt><trkpt lat="44.74356818359637" lon="9.707020353118738"><ele>870.0</ele><time>2026-03-28T08:49:59.998Z</time></trkpt><trkpt lat="44.743485178460915" lon="9.707011147754253"><ele>867.4999999999999</ele><time>2026-03-28T08:50:00.998Z</time></trkpt><trkpt lat="44.743395197504164" lon="9.706998757316745"><ele>865.0</ele><time>2026-03-28T08:50:01.998Z</time></trkpt><trkpt lat="44.74330471468819" lon="9.706984426696511"><ele>864.8</ele><time>2026-03-28T08:50:02.998Z</time></trkpt><trkpt lat="44.74320677646052" lon="9.706989076536365"><ele>864.6</ele><time>2026-03-28T08:50:03.998Z</time></trkpt><trkpt lat="44.743107383265894" lon="9.706955556470337"><ele>864.4000000000001</ele><time>2026-03-28T08:50:04.998Z</time></trkpt><trkpt lat="44.74300094528177" lon="9.706942805884422"><ele>864.2</ele><time>2026-03-28T08:50:05.998Z</time></trkpt><trkpt lat="44.74288998324253" lon="9.70692951336811"><ele>864.0</ele><time>2026-03-28T08:50:06.998Z</time></trkpt><trkpt lat="44.742778950427706" lon="9.70691427069642"><ele>863.8333333333334</ele><time>2026-03-28T08:50:07.998Z</time></trkpt><trkpt lat="44.74267303710783" lon="9.706896286552015"><ele>863.6666666666667</ele><time>2026-03-28T08:50:08.998Z</time></trkpt><trkpt lat="44.74257785897425" lon="9.706866081301536"><ele>863.5</ele><time>2026-03-28T08:50:09.998Z</time></trkpt><trkpt lat="44.74250982221153" lon="9.706814131839053"><ele>863.3333333333334</ele><time>2026-03-28T08:50:10.998Z</time></trkpt><trkpt lat="44.74246667346674" lon="9.706728886992819"><ele>863.1666666666667</ele><time>2026-03-28T08:50:11.998Z</time></trkpt><trkpt lat="44.74242166700355" lon="9.70662833599609"><ele>863.0</ele><time>2026-03-28T08:50:12.998Z</time></trkpt><trkpt lat="44.74242016113237" lon="9.70650417520691"><ele>863.0000000000001</ele><time>2026-03-28T08:50:13.998Z</time></trkpt><trkpt lat="44.74243580501488" lon="9.706387314240647"><ele>863.0</ele><time>2026-03-28T08:50:14.998Z</time></trkpt><trkpt lat="44.742452852062925" lon="9.70626643904905"><ele>863.0</ele><time>2026-03-28T08:50:16Z</time></trkpt><trkpt lat="44.74246781737036" lon="9.706148805312575"><ele>863.0</ele><time>2026-03-28T08:50:17Z</time></trkpt><trkpt lat="44.742478086901706" lon="9.706021392601876"><ele>863.0000000000001</ele><time>2026-03-28T08:50:18Z</time></trkpt><trkpt lat="44.742477879482976" lon="9.705892236720173"><ele>863.0</ele><time>2026-03-28T08:50:19Z</time></trkpt><trkpt lat="44.74248603853868" lon="9.70576118324259"><ele>863.5999999999999</ele><time>2026-03-28T08:50:20Z</time></trkpt><trkpt lat="44.74246872547857" lon="9.705629633931856"><ele>864.1999999999999</ele><time>2026-03-28T08:50:21Z</time></trkpt><trkpt lat="44.7424345596863" lon="9.705499739876895"><ele>864.8</ele><time>2026-03-28T08:50:22Z</time></trkpt><trkpt lat="44.74239727084029" lon="9.70537769016307"><ele>865.4</ele><time>2026-03-28T08:50:23Z</time></trkpt><trkpt lat="44.742349275047125" lon="9.70525517262706"><ele>866.0</ele><time>2026-03-28T08:50:24Z</time></trkpt><trkpt lat="44.74229020575601" lon="9.705140659318134"><ele>866.8</ele><time>2026-03-28T08:50:25Z</time></trkpt><trkpt lat="44.74221281165089" lon="9.70503794291788"><ele>867.5999999999999</ele><time>2026-03-28T08:50:26Z</time></trkpt><trkpt lat="44.74212742803023" lon="9.704944302864694"><ele>868.4</ele><time>2026-03-28T08:50:27Z</time></trkpt><trkpt lat="44.74203551649417" lon="9.704856570476878"><ele>869.2</ele><time>2026-03-28T08:50:28Z</time></trkpt><trkpt lat="44.74193782006877" lon="9.704782643396031"><ele>870.0</ele><time>2026-03-28T08:50:29Z</time></trkpt><trkpt lat="44.74183946878801" lon="9.704717766748505"><ele>867.2</ele><time>2026-03-28T08:50:30Z</time></trkpt><trkpt lat="44.7417391697366" lon="9.704659453104561"><ele>864.4</ele><time>2026-03-28T08:50:31Z</time></trkpt><trkpt lat="44.741639706428685" lon="9.704609541657328"><ele>861.5999999999999</ele><time>2026-03-28T08:50:32Z</time></trkpt><trkpt lat="44.74154207728802" lon="9.704566062305247"><ele>858.8</ele><time>2026-03-28T08:50:33Z</time></trkpt><trkpt lat="44.74145224256269" lon="9.704523247185685"><ele>856.0</ele><time>2026-03-28T08:50:34Z</time></trkpt><trkpt lat="44.741373976546726" lon="9.704476376951652"><ele>856.0000000000001</ele><time>2026-03-28T08:50:35Z</time></trkpt><trkpt lat="44.741312566950995" lon="9.704420017564654"><ele>856.0</ele><time>2026-03-28T08:50:36Z</time></trkpt><trkpt lat="44.741305691608346" lon="9.704317717093135"><ele>856.0</ele><time>2026-03-28T08:50:37Z</time></trkpt><trkpt lat="44.741298181719635" lon="9.704228086408293"><ele>856.0</ele><time>2026-03-28T08:50:38Z</time></trkpt><trkpt lat="44.74127736481474" lon="9.704139482009241"><ele>856.0</ele><time>2026-03-28T08:50:39Z</time></trkpt><trkpt lat="44.741267305838406" lon="9.704048627077851"><ele>856.0000000000001</ele><time>2026-03-28T08:50:40Z</time></trkpt><trkpt lat="44.74125373765363" lon="9.7039576022666"><ele>856.0</ele><time>2026-03-28T08:50:41Z</time></trkpt><trkpt lat="44.741245410549524" lon="9.703865639703587"><ele>857.8333333333333</ele><time>2026-03-28T08:50:42Z</time></trkpt><trkpt lat="44.74123838804519" lon="9.70377476532909"><ele>859.6666666666666</ele><time>2026-03-28T08:50:43Z</time></trkpt><trkpt lat="44.74122774998846" lon="9.703684386568186"><ele>861.5</ele><time>2026-03-28T08:50:44Z</time></trkpt><trkpt lat="44.74120580652066" lon="9.703530394253656"><ele>863.3333333333333</ele><time>2026-03-28T08:50:46Z</time></trkpt><trkpt lat="44.74118568411196" lon="9.703414849124437"><ele>865.1666666666666</ele><time>2026-03-28T08:50:48Z</time></trkpt><trkpt lat="44.741175903758624" lon="9.703308167720664"><ele>867.0</ele><time>2026-03-28T08:50:49.999Z</time></trkpt><trkpt lat="44.741153591437275" lon="9.703222576971598"><ele>867.5</ele><time>2026-03-28T08:50:51.999Z</time></trkpt><trkpt lat="44.74112842702192" lon="9.703140201972175"><ele>868.0</ele><time>2026-03-28T08:50:53.999Z</time></trkpt><trkpt lat="44.74109452091132" lon="9.703034884381212"><ele>868.5</ele><time>2026-03-28T08:50:56.999Z</time></trkpt><trkpt lat="44.7410388366995" lon="9.702942458523657"><ele>869.0</ele><time>2026-03-28T08:50:59.999Z</time></trkpt><trkpt lat="44.7410036540126" lon="9.70283504796492"><ele>869.5</ele><time>2026-03-28T08:51:02.999Z</time></trkpt><trkpt lat="44.740969466721566" lon="9.702725078217897"><ele>870.0</ele><time>2026-03-28T08:51:05.999Z</time></trkpt><trkpt lat="44.740937433556006" lon="9.702609015039606"><ele>870.0</ele><time>2026-03-28T08:51:08.999Z</time></trkpt><trkpt lat="44.74089941758194" lon="9.702494188165064"><ele>870.0</ele><time>2026-03-28T08:51:11.999Z</time></trkpt><trkpt lat="44.74085771857319" lon="9.702387589620534"><ele>870.0</ele><time>2026-03-28T08:51:14.999Z</time></trkpt><trkpt lat="44.74080870745684" lon="9.702301344986179"><ele>870.0</ele><time>2026-03-28T08:51:17.999Z</time></trkpt><trkpt lat="44.740753763055466" lon="9.702213060917899"><ele>870.0</ele><time>2026-03-28T08:51:20.999Z</time></trkpt><trkpt lat="44.740710540277696" lon="9.702122017797238"><ele>870.0</ele><time>2026-03-28T08:51:23.999Z</time></trkpt><trkpt lat="44.74068146106825" lon="9.702040960665814"><ele>870.0</ele><time>2026-03-28T08:51:25.999Z</time></trkpt><trkpt lat="44.74063072010406" lon="9.701965826140718"><ele>870.0</ele><time>2026-03-28T08:51:28.999Z</time></trkpt><trkpt lat="44.740584548609675" lon="9.701872769045542"><ele>870.0</ele><time>2026-03-28T08:51:31.999Z</time></trkpt><trkpt lat="44.74054122683943" lon="9.70178314498617"><ele>870.0</ele><time>2026-03-28T08:51:34.999Z</time></trkpt><trkpt lat="44.740500126618294" lon="9.701685773237934"><ele>870.0</ele><time>2026-03-28T08:51:37.999Z</time></trkpt><trkpt lat="44.740438241686675" lon="9.70160554226821"><ele>870.0</ele><time>2026-03-28T08:51:40.999Z</time></trkpt><trkpt lat="44.740375857678174" lon="9.70152104529164"><ele>871.1666666666666</ele><time>2026-03-28T08:51:43.998Z</time></trkpt><trkpt lat="44.740323038494985" lon="9.701435796088106"><ele>872.3333333333333</ele><time>2026-03-28T08:51:46.998Z</time></trkpt><trkpt lat="44.74026934376881" lon="9.701364581709628"><ele>873.5</ele><time>2026-03-28T08:51:49.998Z</time></trkpt><trkpt lat="44.74026171135813" lon="9.701237213825413"><ele>874.6666666666666</ele><time>2026-03-28T08:51:52.998Z</time></trkpt><trkpt lat="44.740322680102885" lon="9.701155773137652"><ele>875.8333333333333</ele><time>2026-03-28T08:51:55.998Z</time></trkpt><trkpt lat="44.74038402084075" lon="9.701092862522083"><ele>877.0</ele><time>2026-03-28T08:51:58.998Z</time></trkpt><trkpt lat="44.740452901114125" lon="9.701038838868701"><ele>877.6666666666666</ele><time>2026-03-28T08:52:01.998Z</time></trkpt><trkpt lat="44.74052717656622" lon="9.700967458704335"><ele>878.3333333333333</ele><time>2026-03-28T08:52:04.998Z</time></trkpt><trkpt lat="44.74055521507913" lon="9.700846389236798"><ele>879.0</ele><time>2026-03-28T08:52:07.998Z</time></trkpt><trkpt lat="44.74054834603905" lon="9.700718413136078"><ele>879.6666666666667</ele><time>2026-03-28T08:52:10.998Z</time></trkpt><trkpt lat="44.74054221453432" lon="9.700627122466154"><ele>880.3333333333334</ele><time>2026-03-28T08:52:12.998Z</time></trkpt><trkpt lat="44.74054207520262" lon="9.7005300581073"><ele>881.0</ele><time>2026-03-28T08:52:14.998Z</time></trkpt><trkpt lat="44.74052300889394" lon="9.700419614726176"><ele>881.0000000000001</ele><time>2026-03-28T08:52:16.998Z</time></trkpt><trkpt lat="44.74049367487198" lon="9.70031568388157"><ele>881.0</ele><time>2026-03-28T08:52:18.998Z</time></trkpt><trkpt lat="44.740448996019694" lon="9.700178098138682"><ele>881.0</ele><time>2026-03-28T08:52:20.998Z</time></trkpt><trkpt lat="44.740414573880344" lon="9.700102484547855"><ele>881.0</ele><time>2026-03-28T08:52:22Z</time></trkpt><trkpt lat="44.740377033867375" lon="9.700023711358655"><ele>881.0000000000001</ele><time>2026-03-28T08:52:23Z</time></trkpt><trkpt lat="44.74033533711295" lon="9.699949172131916"><ele>881.0</ele><time>2026-03-28T08:52:24Z</time></trkpt><trkpt lat="44.74030467989568" lon="9.699856230239842"><ele>880.8333333333334</ele><time>2026-03-28T08:52:25Z</time></trkpt><trkpt lat="44.74029016664331" lon="9.699748376512675"><ele>880.6666666666667</ele><time>2026-03-28T08:52:26Z</time></trkpt><trkpt lat="44.74030102412668" lon="9.699632198088123"><ele>880.5</ele><time>2026-03-28T08:52:27Z</time></trkpt><trkpt lat="44.740315493247095" lon="9.699516972620334"><ele>880.3333333333333</ele><time>2026-03-28T08:52:28Z</time></trkpt><trkpt lat="44.74032804123086" lon="9.699395980450237"><ele>880.1666666666666</ele><time>2026-03-28T08:52:29Z</time></trkpt><trkpt lat="44.740331883521044" lon="9.699271248562054"><ele>880.0</ele><time>2026-03-28T08:52:30Z</time></trkpt><trkpt lat="44.74032476939206" lon="9.699142354255002"><ele>879.9999999999999</ele><time>2026-03-28T08:52:31Z</time></trkpt><trkpt lat="44.74032467195423" lon="9.699010732907203"><ele>880.0</ele><time>2026-03-28T08:52:32Z</time></trkpt><trkpt lat="44.74031669052941" lon="9.698878962868768"><ele>880.0</ele><time>2026-03-28T08:52:33Z</time></trkpt><trkpt lat="44.74030158612" lon="9.698754053747715"><ele>880.0</ele><time>2026-03-28T08:52:34Z</time></trkpt><trkpt lat="44.7402895638326" lon="9.698631486986368"><ele>879.9999999999999</ele><time>2026-03-28T08:52:35Z</time></trkpt><trkpt lat="44.740277636184075" lon="9.698514631557158"><ele>880.0</ele><time>2026-03-28T08:52:36Z</time></trkpt><trkpt lat="44.74026311582811" lon="9.698402212945798"><ele>880.1666666666666</ele><time>2026-03-28T08:52:37Z</time></trkpt><trkpt lat="44.740248410028784" lon="9.698296076191564"><ele>880.3333333333333</ele><time>2026-03-28T08:52:38Z</time></trkpt><trkpt lat="44.74023597024012" lon="9.698196401630186"><ele>880.5</ele><time>2026-03-28T08:52:39Z</time></trkpt><trkpt lat="44.740227025190165" lon="9.698101928176447"><ele>880.6666666666667</ele><time>2026-03-28T08:52:40Z</time></trkpt><trkpt lat="44.74021830483562" lon="9.697923696126821"><ele>880.8333333333334</ele><time>2026-03-28T08:52:42Z</time></trkpt><trkpt lat="44.74021405017912" lon="9.697831777004746"><ele>881.0</ele><time>2026-03-28T08:52:43Z</time></trkpt><trkpt lat="44.74020673116446" lon="9.697742387159309"><ele>877.8333333333334</ele><time>2026-03-28T08:52:44Z</time></trkpt><trkpt lat="44.74020054835325" lon="9.697647321424183"><ele>874.6666666666667</ele><time>2026-03-28T08:52:45Z</time></trkpt><trkpt lat="44.74019614826251" lon="9.697549250036808"><ele>871.5</ele><time>2026-03-28T08:52:46Z</time></trkpt><trkpt lat="44.7401947947545" lon="9.697447161878799"><ele>868.3333333333333</ele><time>2026-03-28T08:52:47Z</time></trkpt><trkpt lat="44.74020069313949" lon="9.69733990438808"><ele>865.1666666666666</ele><time>2026-03-28T08:52:48Z</time></trkpt><trkpt lat="44.74020619197106" lon="9.697226839590671"><ele>862.0</ele><time>2026-03-28T08:52:49Z</time></trkpt><trkpt lat="44.74021330270847" lon="9.69710682557209"><ele>865.2</ele><time>2026-03-28T08:52:50Z</time></trkpt><trkpt lat="44.740230058715476" lon="9.696982411629087"><ele>868.4000000000001</ele><time>2026-03-28T08:52:51Z</time></trkpt><trkpt lat="44.74025662302462" lon="9.696853529023187"><ele>871.5999999999999</ele><time>2026-03-28T08:52:51.999Z</time></trkpt><trkpt lat="44.74029064356438" lon="9.696722782842853"><ele>874.8</ele><time>2026-03-28T08:52:52.999Z</time></trkpt><trkpt lat="44.740326571444186" lon="9.696589696624724"><ele>878.0</ele><time>2026-03-28T08:52:53.999Z</time></trkpt><trkpt lat="44.74036497391223" lon="9.69645804249096"><ele>878.0</ele><time>2026-03-28T08:52:54.999Z</time></trkpt><trkpt lat="44.74040349761862" lon="9.696328785184706"><ele>878.0</ele><time>2026-03-28T08:52:55.999Z</time></trkpt><trkpt lat="44.7404385857075" lon="9.696198667801294"><ele>878.0</ele><time>2026-03-28T08:52:56.999Z</time></trkpt><trkpt lat="44.74048831196481" lon="9.696078833584854"><ele>878.0</ele><time>2026-03-28T08:52:57.999Z</time></trkpt><trkpt lat="44.740501263566685" lon="9.695943008275561"><ele>878.0</ele><time>2026-03-28T08:52:58.999Z</time></trkpt><trkpt lat="44.74051268528006" lon="9.69581338624082"><ele>876.1666666666667</ele><time>2026-03-28T08:52:59.999Z</time></trkpt><trkpt lat="44.740513953918565" lon="9.695684969890822"><ele>874.3333333333334</ele><time>2026-03-28T08:53:00.999Z</time></trkpt><trkpt lat="44.74051001172632" lon="9.695565189295033"><ele>872.5</ele><time>2026-03-28T08:53:01.999Z</time></trkpt><trkpt lat="44.74052281501986" lon="9.695446966888461"><ele>870.6666666666667</ele><time>2026-03-28T08:53:02.999Z</time></trkpt><trkpt lat="44.74055165833536" lon="9.695334844384087"><ele>868.8333333333334</ele><time>2026-03-28T08:53:03.999Z</time></trkpt><trkpt lat="44.7405948099558" lon="9.695225953096788"><ele>867.0</ele><time>2026-03-28T08:53:04.999Z</time></trkpt><trkpt lat="44.740639175938" lon="9.695106819060864"><ele>865.8</ele><time>2026-03-28T08:53:05.999Z</time></trkpt><trkpt lat="44.74067816006408" lon="9.694975204328168"><ele>864.6</ele><time>2026-03-28T08:53:06.999Z</time></trkpt><trkpt lat="44.74072399820599" lon="9.694843752052869"><ele>863.3999999999999</ele><time>2026-03-28T08:53:07.999Z</time></trkpt><trkpt lat="44.74076366455823" lon="9.69471489736289"><ele>862.1999999999999</ele><time>2026-03-28T08:53:08.999Z</time></trkpt><trkpt lat="44.74078850875694" lon="9.694588290430678"><ele>861.0</ele><time>2026-03-28T08:53:09.999Z</time></trkpt><trkpt lat="44.740802736091105" lon="9.694468421029185"><ele>860.5</ele><time>2026-03-28T08:53:10.999Z</time></trkpt><trkpt lat="44.74080515167528" lon="9.69434200810562"><ele>860.0</ele><time>2026-03-28T08:53:11.999Z</time></trkpt><trkpt lat="44.74079533052891" lon="9.694214852957844"><ele>859.5</ele><time>2026-03-28T08:53:12.999Z</time></trkpt><trkpt lat="44.740774735437256" lon="9.694089886367783"><ele>859.0</ele><time>2026-03-28T08:53:13.999Z</time></trkpt><trkpt lat="44.740749694688716" lon="9.693967290222295"><ele>858.5</ele><time>2026-03-28T08:53:14.999Z</time></trkpt><trkpt lat="44.74073011918417" lon="9.693853196749185"><ele>858.0</ele><time>2026-03-28T08:53:15.999Z</time></trkpt><trkpt lat="44.74071671141778" lon="9.693743685368277"><ele>858.0</ele><time>2026-03-28T08:53:16.999Z</time></trkpt><trkpt lat="44.740711098649754" lon="9.693641162616185"><ele>858.0</ele><time>2026-03-28T08:53:17.999Z</time></trkpt><trkpt lat="44.74072229240682" lon="9.693540592009942"><ele>858.0</ele><time>2026-03-28T08:53:18.999Z</time></trkpt><trkpt lat="44.740728590861785" lon="9.693396757225877"><ele>858.0</ele><time>2026-03-28T08:53:20.999Z</time></trkpt><trkpt lat="44.74049813300351" lon="9.693484758666688"><ele>858.0</ele><time>2026-03-28T08:54:34Z</time></trkpt><trkpt lat="44.74039979232852" lon="9.693583838887015"><ele>858.0</ele><time>2026-03-28T08:54:36Z</time></trkpt><trkpt lat="44.740354560894595" lon="9.693657808335718"><ele>858.0</ele><time>2026-03-28T08:54:37Z</time></trkpt><trkpt lat="44.74032359486702" lon="9.693753978953502"><ele>858.0</ele><time>2026-03-28T08:54:38Z</time></trkpt><trkpt lat="44.74029697641013" lon="9.693861536216353"><ele>858.0</ele><time>2026-03-28T08:54:39Z</time></trkpt><trkpt lat="44.74033412164216" lon="9.693980412019526"><ele>858.0</ele><time>2026-03-28T08:54:40Z</time></trkpt><trkpt lat="44.74035258791278" lon="9.694096743426254"><ele>858.0</ele><time>2026-03-28T08:54:41Z</time></trkpt><trkpt lat="44.74035855939502" lon="9.694217042715282"><ele>858.0</ele><time>2026-03-28T08:54:42Z</time></trkpt><trkpt lat="44.74035440697613" lon="9.694342717240994"><ele>858.0</ele><time>2026-03-28T08:54:43Z</time></trkpt><trkpt lat="44.74033327535632" lon="9.694467922823009"><ele>858.0</ele><time>2026-03-28T08:54:44Z</time></trkpt><trkpt lat="44.74028455354982" lon="9.694584117781442"><ele>858.0</ele><time>2026-03-28T08:54:45Z</time></trkpt><trkpt lat="44.74021315521268" lon="9.694688291093094"><ele>855.4</ele><time>2026-03-28T08:54:46Z</time></trkpt><trkpt lat="44.74012072335513" lon="9.694783697988838"><ele>852.8</ele><time>2026-03-28T08:54:47Z</time></trkpt><trkpt lat="44.74002552863904" lon="9.694843775101006"><ele>850.2</ele><time>2026-03-28T08:54:48Z</time></trkpt><trkpt lat="44.739933667128554" lon="9.694896705512175"><ele>847.6</ele><time>2026-03-28T08:54:49Z</time></trkpt><trkpt lat="44.73985523474633" lon="9.694982703975512"><ele>845.0</ele><time>2026-03-28T08:54:50Z</time></trkpt><trkpt lat="44.73979796159378" lon="9.69509602912544"><ele>845.0</ele><time>2026-03-28T08:54:51Z</time></trkpt><trkpt lat="44.739750505049734" lon="9.695225678690504"><ele>845.0</ele><time>2026-03-28T08:54:52Z</time></trkpt><trkpt lat="44.73970381223789" lon="9.695357040674256"><ele>845.0</ele><time>2026-03-28T08:54:53Z</time></trkpt><trkpt lat="44.739658444600046" lon="9.695491632044734"><ele>845.0</ele><time>2026-03-28T08:54:54Z</time></trkpt><trkpt lat="44.7396115441923" lon="9.69562901735835"><ele>845.0</ele><time>2026-03-28T08:54:55Z</time></trkpt><trkpt lat="44.73955827746677" lon="9.695762060166839"><ele>845.8</ele><time>2026-03-28T08:54:55.999Z</time></trkpt><trkpt lat="44.739495506535114" lon="9.695889167116233"><ele>846.6</ele><time>2026-03-28T08:54:56.999Z</time></trkpt><trkpt lat="44.73942578879373" lon="9.696009538277943"><ele>847.4000000000001</ele><time>2026-03-28T08:54:57.999Z</time></trkpt><trkpt lat="44.73935248963276" lon="9.696124955985763"><ele>848.2</ele><time>2026-03-28T08:54:58.999Z</time></trkpt><trkpt lat="44.73927904819568" lon="9.696240057972311"><ele>849.0</ele><time>2026-03-28T08:54:59.999Z</time></trkpt><trkpt lat="44.73919896804058" lon="9.696349728975306"><ele>845.5</ele><time>2026-03-28T08:55:00.999Z</time></trkpt><trkpt lat="44.739121223642066" lon="9.696466335651126"><ele>842.0</ele><time>2026-03-28T08:55:01.999Z</time></trkpt><trkpt lat="44.73905991719843" lon="9.696602614694866"><ele>838.5</ele><time>2026-03-28T08:55:02.999Z</time></trkpt><trkpt lat="44.73900154128834" lon="9.696742415192535"><ele>835.0</ele><time>2026-03-28T08:55:03.999Z</time></trkpt><trkpt lat="44.738938381207625" lon="9.696874961544998"><ele>836.2</ele><time>2026-03-28T08:55:04.999Z</time></trkpt><trkpt lat="44.73887206630815" lon="9.697007503394842"><ele>837.4</ele><time>2026-03-28T08:55:05.999Z</time></trkpt><trkpt lat="44.738811129865056" lon="9.697144102378743"><ele>838.5999999999999</ele><time>2026-03-28T08:55:06.999Z</time></trkpt><trkpt lat="44.73875481423571" lon="9.69727882063512"><ele>839.8</ele><time>2026-03-28T08:55:07.999Z</time></trkpt><trkpt lat="44.7386905882632" lon="9.697394825719758"><ele>841.0</ele><time>2026-03-28T08:55:08.999Z</time></trkpt><trkpt lat="44.73860917674668" lon="9.697479190627456"><ele>837.8</ele><time>2026-03-28T08:55:09.999Z</time></trkpt><trkpt lat="44.7385239979982" lon="9.697540437100795"><ele>834.5999999999999</ele><time>2026-03-28T08:55:10.999Z</time></trkpt><trkpt lat="44.738427143311945" lon="9.69756033134132"><ele>831.4</ele><time>2026-03-28T08:55:11.999Z</time></trkpt><trkpt lat="44.73832893854057" lon="9.697516211393872"><ele>828.2</ele><time>2026-03-28T08:55:12.999Z</time></trkpt><trkpt lat="44.73822152098502" lon="9.697507527035212"><ele>825.0</ele><time>2026-03-28T08:55:13.999Z</time></trkpt><trkpt lat="44.73811776552302" lon="9.697481687833122"><ele>825.0</ele><time>2026-03-28T08:55:14.999Z</time></trkpt><trkpt lat="44.73801330851971" lon="9.697508412627014"><ele>825.0</ele><time>2026-03-28T08:55:15.999Z</time></trkpt><trkpt lat="44.737914874655914" lon="9.697575945551884"><ele>825.0</ele><time>2026-03-28T08:55:16.999Z</time></trkpt><trkpt lat="44.737856066403516" lon="9.69771600979383"><ele>825.0</ele><time>2026-03-28T08:55:17.999Z</time></trkpt><trkpt lat="44.737796577421804" lon="9.697830678590469"><ele>825.0</ele><time>2026-03-28T08:55:18.999Z</time></trkpt><trkpt lat="44.73775718671798" lon="9.697929118349613"><ele>825.0</ele><time>2026-03-28T08:55:19.999Z</time></trkpt><trkpt lat="44.737682156057666" lon="9.698032535293626"><ele>825.0</ele><time>2026-03-28T08:55:21.999Z</time></trkpt><trkpt lat="44.7375952207609" lon="9.697990569904594"><ele>825.0</ele><time>2026-03-28T08:55:23.999Z</time></trkpt><trkpt lat="44.737593127727166" lon="9.697901149074049"><ele>825.0</ele><time>2026-03-28T08:55:24.999Z</time></trkpt><trkpt lat="44.73762766327561" lon="9.697813803521502"><ele>825.0</ele><time>2026-03-28T08:55:25.999Z</time></trkpt><trkpt lat="44.737674781656786" lon="9.697731044690281"><ele>825.0</ele><time>2026-03-28T08:55:26.999Z</time></trkpt><trkpt lat="44.73772287189202" lon="9.697637838214703"><ele>825.0</ele><time>2026-03-28T08:55:27.999Z</time></trkpt><trkpt lat="44.737773853790024" lon="9.697541549959363"><ele>825.0</ele><time>2026-03-28T08:55:28.999Z</time></trkpt><trkpt lat="44.73782762769313" lon="9.69744998310305"><ele>825.0</ele><time>2026-03-28T08:55:29.999Z</time></trkpt><trkpt lat="44.73788240889785" lon="9.697350702785558"><ele>825.0</ele><time>2026-03-28T08:55:30.999Z</time></trkpt><trkpt lat="44.73792278262437" lon="9.697242697783759"><ele>825.0</ele><time>2026-03-28T08:55:31.999Z</time></trkpt><trkpt lat="44.73794910906354" lon="9.697123709756097"><ele>825.0</ele><time>2026-03-28T08:55:32.999Z</time></trkpt><trkpt lat="44.73796339597148" lon="9.697000732563552"><ele>823.2</ele><time>2026-03-28T08:55:33.999Z</time></trkpt><trkpt lat="44.737958526001876" lon="9.696876810628424"><ele>821.4</ele><time>2026-03-28T08:55:34.999Z</time></trkpt><trkpt lat="44.7379397264776" lon="9.696750336389902"><ele>819.5999999999999</ele><time>2026-03-28T08:55:35.999Z</time></trkpt><trkpt lat="44.73793921374967" lon="9.696618065862257"><ele>817.8</ele><time>2026-03-28T08:55:36.999Z</time></trkpt><trkpt lat="44.73793293938835" lon="9.696482054687806"><ele>816.0</ele><time>2026-03-28T08:55:37.999Z</time></trkpt><trkpt lat="44.73792474195089" lon="9.696341195488719"><ele>816.0</ele><time>2026-03-28T08:55:38.999Z</time></trkpt><trkpt lat="44.73790943934682" lon="9.69619684543658"><ele>816.0</ele><time>2026-03-28T08:55:39.999Z</time></trkpt><trkpt lat="44.73789026867025" lon="9.696050782299626"><ele>816.0</ele><time>2026-03-28T08:55:40.999Z</time></trkpt><trkpt lat="44.73787454089092" lon="9.695900124994044"><ele>816.0</ele><time>2026-03-28T08:55:41.999Z</time></trkpt><trkpt lat="44.73786534863145" lon="9.69574690304671"><ele>816.0</ele><time>2026-03-28T08:55:42.999Z</time></trkpt><trkpt lat="44.73786522766335" lon="9.695594007477927"><ele>815.1999999999999</ele><time>2026-03-28T08:55:43.999Z</time></trkpt><trkpt lat="44.737876652379185" lon="9.695443132612368"><ele>814.4</ele><time>2026-03-28T08:55:44.999Z</time></trkpt><trkpt lat="44.73789803314483" lon="9.695301297836908"><ele>813.6</ele><time>2026-03-28T08:55:45.999Z</time></trkpt><trkpt lat="44.73793235846739" lon="9.695170753166558"><ele>812.8</ele><time>2026-03-28T08:55:46.999Z</time></trkpt><trkpt lat="44.73796837606917" lon="9.6950440535225"><ele>812.0</ele><time>2026-03-28T08:55:47.999Z</time></trkpt><trkpt lat="44.73799975437969" lon="9.694920064855701"><ele>811.8</ele><time>2026-03-28T08:55:48.998Z</time></trkpt><trkpt lat="44.73802151506862" lon="9.69480166845187"><ele>811.6</ele><time>2026-03-28T08:55:49.998Z</time></trkpt><trkpt lat="44.73801259816945" lon="9.694702179729786"><ele>811.4</ele><time>2026-03-28T08:55:50.998Z</time></trkpt><trkpt lat="44.73789799674931" lon="9.694569052688832"><ele>811.1999999999999</ele><time>2026-03-28T08:55:52.998Z</time></trkpt><trkpt lat="44.737798117507" lon="9.694644616899051"><ele>811.0</ele><time>2026-03-28T08:55:53.998Z</time></trkpt><trkpt lat="44.73775765930647" lon="9.694781974546432"><ele>810.9999999999999</ele><time>2026-03-28T08:55:54.998Z</time></trkpt><trkpt lat="44.73772184222098" lon="9.694885787920828"><ele>811.0</ele><time>2026-03-28T08:55:55.998Z</time></trkpt><trkpt lat="44.7376882597891" lon="9.69498551959705"><ele>811.0</ele><time>2026-03-28T08:55:56.998Z</time></trkpt><trkpt lat="44.73764526300053" lon="9.695085346311934"><ele>811.0</ele><time>2026-03-28T08:55:57.998Z</time></trkpt><trkpt lat="44.7375965944583" lon="9.69518644816986"><ele>810.9999999999999</ele><time>2026-03-28T08:55:58.998Z</time></trkpt><trkpt lat="44.73755435588548" lon="9.695305162068074"><ele>811.0</ele><time>2026-03-28T08:55:59.998Z</time></trkpt><trkpt lat="44.73748266272465" lon="9.695402291478947"><ele>808.5999999999999</ele><time>2026-03-28T08:56:00.998Z</time></trkpt><trkpt lat="44.73742108390188" lon="9.695515773298155"><ele>806.2</ele><time>2026-03-28T08:56:01.998Z</time></trkpt><trkpt lat="44.73735885100555" lon="9.695632453184233"><ele>803.8</ele><time>2026-03-28T08:56:02.998Z</time></trkpt><trkpt lat="44.73729599957263" lon="9.695751408323495"><ele>801.4000000000001</ele><time>2026-03-28T08:56:03.998Z</time></trkpt><trkpt lat="44.737231528554865" lon="9.695873428372842"><ele>799.0</ele><time>2026-03-28T08:56:04.998Z</time></trkpt><trkpt lat="44.73717603875054" lon="9.696008452335448"><ele>799.8000000000001</ele><time>2026-03-28T08:56:05.998Z</time></trkpt><trkpt lat="44.73710957598832" lon="9.696127559405534"><ele>800.6</ele><time>2026-03-28T08:56:06.998Z</time></trkpt><trkpt lat="44.737039074707106" lon="9.69624056942972"><ele>801.4</ele><time>2026-03-28T08:56:07.998Z</time></trkpt><trkpt lat="44.736951493463835" lon="9.696328435008784"><ele>802.2</ele><time>2026-03-28T08:56:08.998Z</time></trkpt><trkpt lat="44.736852599144356" lon="9.696404235406893"><ele>803.0</ele><time>2026-03-28T08:56:09.998Z</time></trkpt><trkpt lat="44.73674214588936" lon="9.69645994637133"><ele>800.5</ele><time>2026-03-28T08:56:10.998Z</time></trkpt><trkpt lat="44.73663549838764" lon="9.696530756138817"><ele>798.0</ele><time>2026-03-28T08:56:11.998Z</time></trkpt><trkpt lat="44.736532595366626" lon="9.696616438665158"><ele>795.5</ele><time>2026-03-28T08:56:12.998Z</time></trkpt><trkpt lat="44.73642096266641" lon="9.696684086080007"><ele>793.0</ele><time>2026-03-28T08:56:13.998Z</time></trkpt><trkpt lat="44.736303237412535" lon="9.696751680625734"><ele>793.0</ele><time>2026-03-28T08:56:14.998Z</time></trkpt><trkpt lat="44.73618322830711" lon="9.696815553455773"><ele>793.0</ele><time>2026-03-28T08:56:15.998Z</time></trkpt><trkpt lat="44.736064822028766" lon="9.696887519058986"><ele>793.0</ele><time>2026-03-28T08:56:16.998Z</time></trkpt><trkpt lat="44.735948439907105" lon="9.696956477289955"><ele>793.0</ele><time>2026-03-28T08:56:17.998Z</time></trkpt><trkpt lat="44.735841851645816" lon="9.697047953678787"><ele>791.2</ele><time>2026-03-28T08:56:18.998Z</time></trkpt><trkpt lat="44.73575674687063" lon="9.697169365345895"><ele>789.4</ele><time>2026-03-28T08:56:19.998Z</time></trkpt><trkpt lat="44.73568866658762" lon="9.697291805688003"><ele>787.6</ele><time>2026-03-28T08:56:20.998Z</time></trkpt><trkpt lat="44.735615408627154" lon="9.697390534330825"><ele>785.8000000000001</ele><time>2026-03-28T08:56:21.998Z</time></trkpt><trkpt lat="44.735564939714024" lon="9.69749659421767"><ele>784.0</ele><time>2026-03-28T08:56:22.998Z</time></trkpt><trkpt lat="44.73553662593699" lon="9.697601429848683"><ele>784.0</ele><time>2026-03-28T08:56:23.998Z</time></trkpt><trkpt lat="44.73549683628594" lon="9.697681749955755"><ele>784.0</ele><time>2026-03-28T08:56:24.998Z</time></trkpt><trkpt lat="44.73544169552402" lon="9.697740398088726"><ele>784.0</ele><time>2026-03-28T08:56:25.998Z</time></trkpt><trkpt lat="44.735378678234675" lon="9.69776651916128"><ele>784.0</ele><time>2026-03-28T08:56:26.998Z</time></trkpt><trkpt lat="44.735315470755395" lon="9.697737067374494"><ele>784.0</ele><time>2026-03-28T08:56:27.998Z</time></trkpt><trkpt lat="44.73527419190467" lon="9.697650441228502"><ele>784.0</ele><time>2026-03-28T08:56:28.998Z</time></trkpt><trkpt lat="44.73527273167088" lon="9.697539907934244"><ele>784.0</ele><time>2026-03-28T08:56:29.998Z</time></trkpt><trkpt lat="44.735290984603616" lon="9.697430900560535"><ele>783.9999999999999</ele><time>2026-03-28T08:56:30.998Z</time></trkpt><trkpt lat="44.73531382864889" lon="9.697325977536916"><ele>784.0</ele><time>2026-03-28T08:56:31.998Z</time></trkpt><trkpt lat="44.73533500591011" lon="9.697216057061484"><ele>784.0</ele><time>2026-03-28T08:56:33Z</time></trkpt><trkpt lat="44.73536404558297" lon="9.69711350892809"><ele>784.0</ele><time>2026-03-28T08:56:34Z</time></trkpt><trkpt lat="44.735399054592854" lon="9.697011076967977"><ele>783.9999999999999</ele><time>2026-03-28T08:56:35Z</time></trkpt><trkpt lat="44.73543057756032" lon="9.696905848639513"><ele>784.0</ele><time>2026-03-28T08:56:36Z</time></trkpt><trkpt lat="44.73545336332739" lon="9.696794502110313"><ele>783.1666666666666</ele><time>2026-03-28T08:56:37Z</time></trkpt><trkpt lat="44.735466488134044" lon="9.696680104481391"><ele>782.3333333333333</ele><time>2026-03-28T08:56:38Z</time></trkpt><trkpt lat="44.7354515823792" lon="9.696574064529823"><ele>781.5</ele><time>2026-03-28T08:56:39Z</time></trkpt><trkpt lat="44.73541999048161" lon="9.696476316823084"><ele>780.6666666666667</ele><time>2026-03-28T08:56:40Z</time></trkpt><trkpt lat="44.73533416153458" lon="9.696426642648541"><ele>779.8333333333334</ele><time>2026-03-28T08:56:41Z</time></trkpt><trkpt lat="44.73523895098223" lon="9.696483253662317"><ele>779.0</ele><time>2026-03-28T08:56:42Z</time></trkpt><trkpt lat="44.735161134131296" lon="9.696557765285268"><ele>777.2</ele><time>2026-03-28T08:56:43Z</time></trkpt><trkpt lat="44.735132932510155" lon="9.696687600078603"><ele>775.4000000000001</ele><time>2026-03-28T08:56:44Z</time></trkpt><trkpt lat="44.73507122352988" lon="9.696776689033879"><ele>773.6</ele><time>2026-03-28T08:56:45Z</time></trkpt><trkpt lat="44.735017951481275" lon="9.69687651356433"><ele>771.8</ele><time>2026-03-28T08:56:46Z</time></trkpt><trkpt lat="44.73495670148815" lon="9.696973502031375"><ele>770.0</ele><time>2026-03-28T08:56:47Z</time></trkpt><trkpt lat="44.73488980400451" lon="9.697065337467663"><ele>770.0</ele><time>2026-03-28T08:56:48Z</time></trkpt><trkpt lat="44.734833357305234" lon="9.697171673905498"><ele>770.0</ele><time>2026-03-28T08:56:49Z</time></trkpt><trkpt lat="44.73476679864992" lon="9.697269603469326"><ele>770.0</ele><time>2026-03-28T08:56:50Z</time></trkpt><trkpt lat="44.73471702861644" lon="9.697388298844551"><ele>770.0</ele><time>2026-03-28T08:56:51Z</time></trkpt><trkpt lat="44.73469165565177" lon="9.697525393153947"><ele>770.0</ele><time>2026-03-28T08:56:52Z</time></trkpt><trkpt lat="44.734681009430375" lon="9.697664938092252"><ele>769.6666666666667</ele><time>2026-03-28T08:56:53Z</time></trkpt><trkpt lat="44.734670828004674" lon="9.697794905340134"><ele>769.3333333333334</ele><time>2026-03-28T08:56:54Z</time></trkpt><trkpt lat="44.7346410208907" lon="9.697900044414194"><ele>769.0</ele><time>2026-03-28T08:56:55Z</time></trkpt><trkpt lat="44.73460215821791" lon="9.697983712201173"><ele>768.6666666666667</ele><time>2026-03-28T08:56:56Z</time></trkpt><trkpt lat="44.734545896274604" lon="9.698047417233973"><ele>768.3333333333334</ele><time>2026-03-28T08:56:57Z</time></trkpt><trkpt lat="44.73446876573113" lon="9.698041065108434"><ele>768.0</ele><time>2026-03-28T08:56:58Z</time></trkpt><trkpt lat="44.734388821819245" lon="9.698036375556482"><ele>765.4</ele><time>2026-03-28T08:56:58.999Z</time></trkpt><trkpt lat="44.73431267799961" lon="9.697977792894049"><ele>762.8</ele><time>2026-03-28T08:56:59.999Z</time></trkpt><trkpt lat="44.73423446704337" lon="9.697911832294436"><ele>760.2</ele><time>2026-03-28T08:57:00.999Z</time></trkpt><trkpt lat="44.73415208116353" lon="9.697849743213439"><ele>757.6</ele><time>2026-03-28T08:57:01.999Z</time></trkpt><trkpt lat="44.73408537854636" lon="9.69774698549463"><ele>755.0</ele><time>2026-03-28T08:57:02.999Z</time></trkpt><trkpt lat="44.734008927135605" lon="9.69765978893488"><ele>755.0</ele><time>2026-03-28T08:57:03.999Z</time></trkpt><trkpt lat="44.73396132101263" lon="9.697529910528367"><ele>755.0</ele><time>2026-03-28T08:57:04.999Z</time></trkpt><trkpt lat="44.73394217283228" lon="9.697381419838296"><ele>755.0</ele><time>2026-03-28T08:57:05.999Z</time></trkpt><trkpt lat="44.73394365472657" lon="9.69722572326068"><ele>755.0</ele><time>2026-03-28T08:57:06.999Z</time></trkpt><trkpt lat="44.73394524756005" lon="9.697070468669578"><ele>755.0</ele><time>2026-03-28T08:57:07.999Z</time></trkpt><trkpt lat="44.73394718932804" lon="9.696914280943219"><ele>754.4</ele><time>2026-03-28T08:57:08.999Z</time></trkpt><trkpt lat="44.73395833929696" lon="9.696759944789155"><ele>753.8</ele><time>2026-03-28T08:57:09.999Z</time></trkpt><trkpt lat="44.73397227072833" lon="9.696609491477455"><ele>753.2</ele><time>2026-03-28T08:57:10.999Z</time></trkpt><trkpt lat="44.733980288940145" lon="9.696480365041905"><ele>752.6</ele><time>2026-03-28T08:57:11.999Z</time></trkpt><trkpt lat="44.73396439470457" lon="9.69637224004892"><ele>752.0</ele><time>2026-03-28T08:57:12.999Z</time></trkpt><trkpt lat="44.733937214890005" lon="9.696268394923914"><ele>752.0</ele><time>2026-03-28T08:57:13.999Z</time></trkpt><trkpt lat="44.73384368199962" lon="9.696221988072839"><ele>752.0</ele><time>2026-03-28T08:57:14.999Z</time></trkpt><trkpt lat="44.73373720062219" lon="9.696261631555588"><ele>752.0</ele><time>2026-03-28T08:57:15.999Z</time></trkpt><trkpt lat="44.7336792316184" lon="9.696390687391222"><ele>752.0</ele><time>2026-03-28T08:57:16.999Z</time></trkpt><trkpt lat="44.73361076113994" lon="9.696476987715853"><ele>752.0</ele><time>2026-03-28T08:57:17.999Z</time></trkpt><trkpt lat="44.73354734433018" lon="9.696574285337375"><ele>750.4000000000001</ele><time>2026-03-28T08:57:18.999Z</time></trkpt><trkpt lat="44.7334817250037" lon="9.696676481967017"><ele>748.8000000000001</ele><time>2026-03-28T08:57:19.999Z</time></trkpt><trkpt lat="44.73341615158925" lon="9.696784990777406"><ele>747.2</ele><time>2026-03-28T08:57:20.999Z</time></trkpt><trkpt lat="44.73336030862188" lon="9.69691287955515"><ele>745.6</ele><time>2026-03-28T08:57:21.999Z</time></trkpt><trkpt lat="44.73329579086045" lon="9.69703131500803"><ele>744.0</ele><time>2026-03-28T08:57:22.999Z</time></trkpt><trkpt lat="44.73322834848187" lon="9.697153129432007"><ele>744.0</ele><time>2026-03-28T08:57:23.999Z</time></trkpt><trkpt lat="44.7331633595988" lon="9.697283780541767"><ele>744.0</ele><time>2026-03-28T08:57:24.999Z</time></trkpt><trkpt lat="44.73309567087979" lon="9.697414588976748"><ele>744.0</ele><time>2026-03-28T08:57:25.999Z</time></trkpt><trkpt lat="44.733035463521446" lon="9.697550516718039"><ele>744.0</ele><time>2026-03-28T08:57:26.999Z</time></trkpt><trkpt lat="44.732988761752594" lon="9.697691802093559"><ele>743.25</ele><time>2026-03-28T08:57:27.999Z</time></trkpt><trkpt lat="44.73297261521121" lon="9.697844582392444"><ele>742.5</ele><time>2026-03-28T08:57:28.999Z</time></trkpt><trkpt lat="44.73297351384387" lon="9.698003369702427"><ele>741.75</ele><time>2026-03-28T08:57:29.999Z</time></trkpt><trkpt lat="44.73297659256481" lon="9.69816696768072"><ele>741.0</ele><time>2026-03-28T08:57:30.999Z</time></trkpt><trkpt lat="44.732985358340876" lon="9.69833163027788"><ele>741.0</ele><time>2026-03-28T08:57:31.999Z</time></trkpt><trkpt lat="44.73301022023527" lon="9.698495728410624"><ele>741.0</ele><time>2026-03-28T08:57:32.999Z</time></trkpt><trkpt lat="44.7330389723322" lon="9.698661040487966"><ele>741.0</ele><time>2026-03-28T08:57:33.999Z</time></trkpt><trkpt lat="44.73307040126691" lon="9.698830999713907"><ele>741.0</ele><time>2026-03-28T08:57:34.999Z</time></trkpt><trkpt lat="44.733105779054895" lon="9.69899938581033"><ele>739.5999999999999</ele><time>2026-03-28T08:57:35.999Z</time></trkpt><trkpt lat="44.73314492517107" lon="9.699161322026956"><ele>738.2</ele><time>2026-03-28T08:57:36.999Z</time></trkpt><trkpt lat="44.73317782639162" lon="9.699306172721126"><ele>736.8</ele><time>2026-03-28T08:57:37.999Z</time></trkpt><trkpt lat="44.73319736970977" lon="9.699431505208302"><ele>735.4000000000001</ele><time>2026-03-28T08:57:38.999Z</time></trkpt><trkpt lat="44.73320464521728" lon="9.699540512327648"><ele>734.0</ele><time>2026-03-28T08:57:39.999Z</time></trkpt><trkpt lat="44.73318793451626" lon="9.699631689747525"><ele>734.0</ele><time>2026-03-28T08:57:40.999Z</time></trkpt><trkpt lat="44.73311197293888" lon="9.699747046784859"><ele>734.0</ele><time>2026-03-28T08:57:42.999Z</time></trkpt><trkpt lat="44.73302167818657" lon="9.699651090071624"><ele>734.0</ele><time>2026-03-28T08:57:44.999Z</time></trkpt><trkpt lat="44.73300208933378" lon="9.699561518071665"><ele>734.0</ele><time>2026-03-28T08:57:45.999Z</time></trkpt><trkpt lat="44.73300882489753" lon="9.699458450270175"><ele>734.0</ele><time>2026-03-28T08:57:46.999Z</time></trkpt><trkpt lat="44.73300244382155" lon="9.699356373932773"><ele>734.0</ele><time>2026-03-28T08:57:47.999Z</time></trkpt><trkpt lat="44.73298352882329" lon="9.699251530880849"><ele>734.0</ele><time>2026-03-28T08:57:48.999Z</time></trkpt><trkpt lat="44.73296157974882" lon="9.69914285632997"><ele>734.0</ele><time>2026-03-28T08:57:49.999Z</time></trkpt><trkpt lat="44.73289852282148" lon="9.6990648657956"><ele>734.0</ele><time>2026-03-28T08:57:50.998Z</time></trkpt><trkpt lat="44.73284307916687" lon="9.69898417727099"><ele>734.0</ele><time>2026-03-28T08:57:51.998Z</time></trkpt><trkpt lat="44.73278594606672" lon="9.698905436373877"><ele>734.0</ele><time>2026-03-28T08:57:52.998Z</time></trkpt><trkpt lat="44.73273320168055" lon="9.698819225796393"><ele>734.0</ele><time>2026-03-28T08:57:53.998Z</time></trkpt><trkpt lat="44.73268770649188" lon="9.698725424259857"><ele>732.1666666666666</ele><time>2026-03-28T08:57:54.998Z</time></trkpt><trkpt lat="44.732658643873414" lon="9.698618187805257"><ele>730.3333333333333</ele><time>2026-03-28T08:57:55.998Z</time></trkpt><trkpt lat="44.73262136765273" lon="9.698517955171917"><ele>728.5</ele><time>2026-03-28T08:57:56.998Z</time></trkpt><trkpt lat="44.73257175295188" lon="9.698426258812075"><ele>726.6666666666666</ele><time>2026-03-28T08:57:57.998Z</time></trkpt><trkpt lat="44.73253714201338" lon="9.698323795733236"><ele>724.8333333333334</ele><time>2026-03-28T08:57:58.998Z</time></trkpt><trkpt lat="44.73249805525028" lon="9.698224275629139"><ele>723.0</ele><time>2026-03-28T08:57:59.998Z</time></trkpt><trkpt lat="44.732457608490634" lon="9.698121618552726"><ele>723.0</ele><time>2026-03-28T08:58:00.998Z</time></trkpt><trkpt lat="44.73242779778334" lon="9.698007948277533"><ele>723.0</ele><time>2026-03-28T08:58:01.998Z</time></trkpt><trkpt lat="44.73237839018109" lon="9.69790678620329"><ele>723.0</ele><time>2026-03-28T08:58:02.998Z</time></trkpt><trkpt lat="44.73230915841191" lon="9.697824731344449"><ele>723.0</ele><time>2026-03-28T08:58:03.998Z</time></trkpt><trkpt lat="44.73224059112" lon="9.697734198043465"><ele>723.0</ele><time>2026-03-28T08:58:04.998Z</time></trkpt><trkpt lat="44.732170753008184" lon="9.697644978341813"><ele>724.2</ele><time>2026-03-28T08:58:05.998Z</time></trkpt><trkpt lat="44.73210338967831" lon="9.697546740134001"><ele>725.4</ele><time>2026-03-28T08:58:06.998Z</time></trkpt><trkpt lat="44.73204274770002" lon="9.697435733649218"><ele>726.6</ele><time>2026-03-28T08:58:07.998Z</time></trkpt><trkpt lat="44.7319824192592" lon="9.697318367849322"><ele>727.8000000000001</ele><time>2026-03-28T08:58:08.998Z</time></trkpt><trkpt lat="44.73192502161941" lon="9.697197602199433"><ele>729.0</ele><time>2026-03-28T08:58:09.998Z</time></trkpt><trkpt lat="44.73187268024931" lon="9.697073239176177"><ele>726.5</ele><time>2026-03-28T08:58:10.998Z</time></trkpt><trkpt lat="44.73181812788062" lon="9.696961668137483"><ele>724.0</ele><time>2026-03-28T08:58:11.998Z</time></trkpt><trkpt lat="44.73176313247335" lon="9.696870299187568"><ele>721.5</ele><time>2026-03-28T08:58:12.998Z</time></trkpt><trkpt lat="44.731700223371604" lon="9.696812234713471"><ele>719.0</ele><time>2026-03-28T08:58:13.998Z</time></trkpt><trkpt lat="44.73162867783478" lon="9.696772700361013"><ele>716.5</ele><time>2026-03-28T08:58:14.998Z</time></trkpt><trkpt lat="44.73154427101153" lon="9.696826611682875"><ele>714.0</ele><time>2026-03-28T08:58:15.998Z</time></trkpt><trkpt lat="44.73149976127791" lon="9.696982464529603"><ele>713.4000000000001</ele><time>2026-03-28T08:58:16.998Z</time></trkpt><trkpt lat="44.731508693828474" lon="9.697121880986977"><ele>712.8</ele><time>2026-03-28T08:58:17.998Z</time></trkpt><trkpt lat="44.731517909897185" lon="9.69725544932918"><ele>712.2</ele><time>2026-03-28T08:58:18.998Z</time></trkpt><trkpt lat="44.731525602709596" lon="9.69739599726389"><ele>711.5999999999999</ele><time>2026-03-28T08:58:19.998Z</time></trkpt><trkpt lat="44.73153145830699" lon="9.697535306705435"><ele>711.0</ele><time>2026-03-28T08:58:20.998Z</time></trkpt><trkpt lat="44.7315387960578" lon="9.697677235292907"><ele>709.5999999999999</ele><time>2026-03-28T08:58:21.998Z</time></trkpt><trkpt lat="44.73154867096358" lon="9.697820305218139"><ele>708.2</ele><time>2026-03-28T08:58:22.998Z</time></trkpt><trkpt lat="44.73155964709596" lon="9.69796515731296"><ele>706.8</ele><time>2026-03-28T08:58:23.998Z</time></trkpt><trkpt lat="44.73156821463219" lon="9.698113142559377"><ele>705.4000000000001</ele><time>2026-03-28T08:58:24.998Z</time></trkpt><trkpt lat="44.73157584164175" lon="9.69826509109671"><ele>704.0</ele><time>2026-03-28T08:58:25.998Z</time></trkpt><trkpt lat="44.7315834120474" lon="9.698416042309258"><ele>704.0</ele><time>2026-03-28T08:58:26.998Z</time></trkpt><trkpt lat="44.731597997919415" lon="9.698563844827559"><ele>704.0</ele><time>2026-03-28T08:58:27.998Z</time></trkpt><trkpt lat="44.731607636614946" lon="9.698715578288338"><ele>704.0</ele><time>2026-03-28T08:58:28.998Z</time></trkpt><trkpt lat="44.73161635768421" lon="9.69887122121984"><ele>704.0</ele><time>2026-03-28T08:58:29.998Z</time></trkpt><trkpt lat="44.73162908766401" lon="9.699028061628068"><ele>704.0</ele><time>2026-03-28T08:58:30.998Z</time></trkpt><trkpt lat="44.73163141115494" lon="9.699188991986748"><ele>703.8000000000001</ele><time>2026-03-28T08:58:31.998Z</time></trkpt><trkpt lat="44.73162620879239" lon="9.699349847855535"><ele>703.6</ele><time>2026-03-28T08:58:32.998Z</time></trkpt><trkpt lat="44.7316225806145" lon="9.699505480078601"><ele>703.4</ele><time>2026-03-28T08:58:33.998Z</time></trkpt><trkpt lat="44.73160526709361" lon="9.699655925579696"><ele>703.2</ele><time>2026-03-28T08:58:34.998Z</time></trkpt><trkpt lat="44.73157721449839" lon="9.69980338149135"><ele>703.0</ele><time>2026-03-28T08:58:35.998Z</time></trkpt><trkpt lat="44.73153745670734" lon="9.699946881028369"><ele>702.0</ele><time>2026-03-28T08:58:36.998Z</time></trkpt><trkpt lat="44.731492104768954" lon="9.700087768005094"><ele>701.0</ele><time>2026-03-28T08:58:37.998Z</time></trkpt><trkpt lat="44.73146268303802" lon="9.700241394371426"><ele>700.0</ele><time>2026-03-28T08:58:39Z</time></trkpt><trkpt lat="44.73145849309959" lon="9.70040855493912"><ele>699.0</ele><time>2026-03-28T08:58:40Z</time></trkpt><trkpt lat="44.731470524690316" lon="9.700580036124158"><ele>698.2</ele><time>2026-03-28T08:58:41Z</time></trkpt><trkpt lat="44.73148725318459" lon="9.700738883169336"><ele>697.4000000000001</ele><time>2026-03-28T08:58:42Z</time></trkpt><trkpt lat="44.731496321136134" lon="9.700887215886107"><ele>696.6</ele><time>2026-03-28T08:58:43Z</time></trkpt><trkpt lat="44.73147588189581" lon="9.701023566807386"><ele>695.8</ele><time>2026-03-28T08:58:44Z</time></trkpt><trkpt lat="44.73142623889524" lon="9.701141714938384"><ele>695.0</ele><time>2026-03-28T08:58:45Z</time></trkpt><trkpt lat="44.73133887354903" lon="9.701205345609718"><ele>694.2</ele><time>2026-03-28T08:58:46Z</time></trkpt><trkpt lat="44.73124786858599" lon="9.701222509278818"><ele>693.4</ele><time>2026-03-28T08:58:47Z</time></trkpt><trkpt lat="44.73114414971607" lon="9.70122687477987"><ele>692.5999999999999</ele><time>2026-03-28T08:58:48Z</time></trkpt><trkpt lat="44.731028610351785" lon="9.701229164826158"><ele>691.8</ele><time>2026-03-28T08:58:49Z</time></trkpt><trkpt lat="44.73091341828912" lon="9.701237276510291"><ele>691.0</ele><time>2026-03-28T08:58:50Z</time></trkpt><trkpt lat="44.73081235450837" lon="9.701265398863276"><ele>689.1999999999999</ele><time>2026-03-28T08:58:51Z</time></trkpt><trkpt lat="44.73074477708046" lon="9.701401407909119"><ele>687.4</ele><time>2026-03-28T08:58:52Z</time></trkpt><trkpt lat="44.73067673137445" lon="9.70148004550056"><ele>685.6</ele><time>2026-03-28T08:58:53Z</time></trkpt><trkpt lat="44.730619637047994" lon="9.701518819713106"><ele>683.8</ele><time>2026-03-28T08:58:54Z</time></trkpt><trkpt lat="44.73049916188099" lon="9.701493714058723"><ele>682.0</ele><time>2026-03-28T08:58:56Z</time></trkpt><trkpt lat="44.73047485775632" lon="9.701383027045837"><ele>682.0</ele><time>2026-03-28T08:58:57Z</time></trkpt><trkpt lat="44.730458805435035" lon="9.701282624056452"><ele>682.0</ele><time>2026-03-28T08:58:58Z</time></trkpt><trkpt lat="44.73041061367183" lon="9.701173104763878"><ele>682.0</ele><time>2026-03-28T08:58:59Z</time></trkpt><trkpt lat="44.73038578898945" lon="9.701048007011284"><ele>682.0</ele><time>2026-03-28T08:59:00Z</time></trkpt><trkpt lat="44.73033980778677" lon="9.7009330536642"><ele>682.0</ele><time>2026-03-28T08:59:01Z</time></trkpt><trkpt lat="44.73029022842862" lon="9.700819870128873"><ele>682.0</ele><time>2026-03-28T08:59:02Z</time></trkpt><trkpt lat="44.73024010295486" lon="9.70070695090227"><ele>680.2</ele><time>2026-03-28T08:59:02.999Z</time></trkpt><trkpt lat="44.730191644978724" lon="9.700591036925173"><ele>678.4000000000001</ele><time>2026-03-28T08:59:03.999Z</time></trkpt><trkpt lat="44.73014978371569" lon="9.70047078317394"><ele>676.5999999999999</ele><time>2026-03-28T08:59:04.999Z</time></trkpt><trkpt lat="44.73010712171901" lon="9.700342394505734"><ele>674.8</ele><time>2026-03-28T08:59:05.999Z</time></trkpt><trkpt lat="44.730044543058966" lon="9.700232425838553"><ele>673.0</ele><time>2026-03-28T08:59:06.999Z</time></trkpt><trkpt lat="44.72999763109059" lon="9.700104210487954"><ele>673.0</ele><time>2026-03-28T08:59:07.999Z</time></trkpt><trkpt lat="44.72993042982689" lon="9.699993451652379"><ele>673.0</ele><time>2026-03-28T08:59:08.999Z</time></trkpt><trkpt lat="44.7298628383403" lon="9.699889748962734"><ele>673.0</ele><time>2026-03-28T08:59:09.999Z</time></trkpt><trkpt lat="44.72979785421243" lon="9.699783518980109"><ele>673.0</ele><time>2026-03-28T08:59:10.999Z</time></trkpt><trkpt lat="44.72974566499591" lon="9.699664578035135"><ele>673.0</ele><time>2026-03-28T08:59:11.999Z</time></trkpt><trkpt lat="44.72968851737837" lon="9.699541700037527"><ele>672.8</ele><time>2026-03-28T08:59:12.999Z</time></trkpt><trkpt lat="44.72964273091217" lon="9.699410538604596"><ele>672.5999999999999</ele><time>2026-03-28T08:59:13.999Z</time></trkpt><trkpt lat="44.729597950246855" lon="9.699274672778044"><ele>672.4000000000001</ele><time>2026-03-28T08:59:14.999Z</time></trkpt><trkpt lat="44.7294995427625" lon="9.699192219153716"><ele>672.2</ele><time>2026-03-28T08:59:15.999Z</time></trkpt><trkpt lat="44.72939937870906" lon="9.69914761334162"><ele>672.0</ele><time>2026-03-28T08:59:16.999Z</time></trkpt><trkpt lat="44.72928836708383" lon="9.6991485100384"><ele>672.0</ele><time>2026-03-28T08:59:17.999Z</time></trkpt><trkpt lat="44.729201528620976" lon="9.69925879642994"><ele>672.0</ele><time>2026-03-28T08:59:18.999Z</time></trkpt><trkpt lat="44.7291202343735" lon="9.699326073195438"><ele>672.0</ele><time>2026-03-28T08:59:19.999Z</time></trkpt><trkpt lat="44.72904990370371" lon="9.699394247118656"><ele>672.0</ele><time>2026-03-28T08:59:20.999Z</time></trkpt><trkpt lat="44.728979461421176" lon="9.69945891491972"><ele>672.0</ele><time>2026-03-28T08:59:21.999Z</time></trkpt><trkpt lat="44.728906432098974" lon="9.699525057091737"><ele>671.0</ele><time>2026-03-28T08:59:22.999Z</time></trkpt><trkpt lat="44.72883037029095" lon="9.699593945710342"><ele>670.0</ele><time>2026-03-28T08:59:23.999Z</time></trkpt><trkpt lat="44.7287530580319" lon="9.69966645711316"><ele>669.0</ele><time>2026-03-28T08:59:24.999Z</time></trkpt><trkpt lat="44.72869343442084" lon="9.699762177956194"><ele>668.0</ele><time>2026-03-28T08:59:25.999Z</time></trkpt><trkpt lat="44.72861892744646" lon="9.699836509408266"><ele>667.0</ele><time>2026-03-28T08:59:26.999Z</time></trkpt><trkpt lat="44.72855266964451" lon="9.699921422331542"><ele>667.0</ele><time>2026-03-28T08:59:27.999Z</time></trkpt><trkpt lat="44.728484455395574" lon="9.699997624207661"><ele>667.0</ele><time>2026-03-28T08:59:28.999Z</time></trkpt><trkpt lat="44.728400916148395" lon="9.700030272347343"><ele>667.0</ele><time>2026-03-28T08:59:29.999Z</time></trkpt><trkpt lat="44.728321072028734" lon="9.700058333141573"><ele>667.0</ele><time>2026-03-28T08:59:30.999Z</time></trkpt><trkpt lat="44.728241179281305" lon="9.700048049074937"><ele>667.0</ele><time>2026-03-28T08:59:31.999Z</time></trkpt><trkpt lat="44.72817213369491" lon="9.699995204032467"><ele>667.0</ele><time>2026-03-28T08:59:32.999Z</time></trkpt><trkpt lat="44.728112034636744" lon="9.69992843717223"><ele>667.0</ele><time>2026-03-28T08:59:33.999Z</time></trkpt><trkpt lat="44.728051007174386" lon="9.699856327008206"><ele>667.0</ele><time>2026-03-28T08:59:34.999Z</time></trkpt><trkpt lat="44.72798650420628" lon="9.699795532323023"><ele>667.0</ele><time>2026-03-28T08:59:35.999Z</time></trkpt><trkpt lat="44.727898533643035" lon="9.699773431798087"><ele>667.0</ele><time>2026-03-28T08:59:36.999Z</time></trkpt><trkpt lat="44.727814258406205" lon="9.699797349813595"><ele>667.0</ele><time>2026-03-28T08:59:37.999Z</time></trkpt><trkpt lat="44.727739785428525" lon="9.699832252484764"><ele>667.0</ele><time>2026-03-28T08:59:38.999Z</time></trkpt><trkpt lat="44.72767725867992" lon="9.699906698993667"><ele>666.6666666666667</ele><time>2026-03-28T08:59:39.999Z</time></trkpt><trkpt lat="44.72760579233264" lon="9.699942734774151"><ele>666.3333333333334</ele><time>2026-03-28T08:59:40.999Z</time></trkpt><trkpt lat="44.727532766103096" lon="9.69998125329126"><ele>666.0</ele><time>2026-03-28T08:59:41.999Z</time></trkpt><trkpt lat="44.72745897364449" lon="9.700016821713525"><ele>665.6666666666666</ele><time>2026-03-28T08:59:42.999Z</time></trkpt><trkpt lat="44.72737971688286" lon="9.700038952409619"><ele>665.3333333333333</ele><time>2026-03-28T08:59:43.999Z</time></trkpt><trkpt lat="44.72730658203442" lon="9.7000426782546"><ele>665.0</ele><time>2026-03-28T08:59:44.999Z</time></trkpt><trkpt lat="44.72723436381801" lon="9.700021131904673"><ele>665.0</ele><time>2026-03-28T08:59:45.999Z</time></trkpt><trkpt lat="44.727177113986116" lon="9.69996795053141"><ele>665.0</ele><time>2026-03-28T08:59:46.999Z</time></trkpt><trkpt lat="44.72712947357313" lon="9.699894284119399"><ele>665.0</ele><time>2026-03-28T08:59:47.999Z</time></trkpt><trkpt lat="44.72706912872379" lon="9.6998393605377"><ele>665.0</ele><time>2026-03-28T08:59:48.999Z</time></trkpt><trkpt lat="44.72700323087251" lon="9.69978086077554"><ele>665.0</ele><time>2026-03-28T08:59:49.999Z</time></trkpt><trkpt lat="44.72691499757511" lon="9.699820026259951"><ele>665.0</ele><time>2026-03-28T08:59:50.999Z</time></trkpt><trkpt lat="44.726851504385024" lon="9.699897888825532"><ele>665.1428571428571</ele><time>2026-03-28T08:59:51.999Z</time></trkpt><trkpt lat="44.72678579148373" lon="9.699942218455428"><ele>665.2857142857142</ele><time>2026-03-28T08:59:52.999Z</time></trkpt><trkpt lat="44.72671819704069" lon="9.699978168024359"><ele>665.4285714285714</ele><time>2026-03-28T08:59:53.999Z</time></trkpt><trkpt lat="44.72664743920874" lon="9.699987402835903"><ele>665.5714285714286</ele><time>2026-03-28T08:59:54.999Z</time></trkpt><trkpt lat="44.72657688706808" lon="9.700019478939904"><ele>665.7142857142857</ele><time>2026-03-28T08:59:55.998Z</time></trkpt><trkpt lat="44.726505331234556" lon="9.700050587302135"><ele>665.8571428571429</ele><time>2026-03-28T08:59:56.998Z</time></trkpt><trkpt lat="44.72643527766024" lon="9.70008106515198"><ele>666.0</ele><time>2026-03-28T08:59:57.998Z</time></trkpt><trkpt lat="44.72637574672247" lon="9.700139175245484"><ele>666.0</ele><time>2026-03-28T08:59:58.998Z</time></trkpt><trkpt lat="44.72630682996641" lon="9.7001606666833"><ele>666.0</ele><time>2026-03-28T08:59:59.998Z</time></trkpt><trkpt lat="44.726238695168846" lon="9.700166344679383"><ele>666.0</ele><time>2026-03-28T09:00:00.998Z</time></trkpt><trkpt lat="44.72617031108161" lon="9.700150475536526"><ele>666.0</ele><time>2026-03-28T09:00:01.998Z</time></trkpt><trkpt lat="44.72610771984776" lon="9.700105625681227"><ele>666.0</ele><time>2026-03-28T09:00:02.998Z</time></trkpt><trkpt lat="44.72604490228064" lon="9.700057391476488"><ele>666.0</ele><time>2026-03-28T09:00:03.998Z</time></trkpt><trkpt lat="44.7259837060973" lon="9.70001186812241"><ele>666.0</ele><time>2026-03-28T09:00:04.998Z</time></trkpt><trkpt lat="44.72591954671525" lon="9.699969449521356"><ele>665.6666666666666</ele><time>2026-03-28T09:00:05.998Z</time></trkpt><trkpt lat="44.7258578570976" lon="9.69993306616029"><ele>665.3333333333334</ele><time>2026-03-28T09:00:06.998Z</time></trkpt><trkpt lat="44.72579262929415" lon="9.699898120583338"><ele>665.0</ele><time>2026-03-28T09:00:07.998Z</time></trkpt><trkpt lat="44.72573074659252" lon="9.699869025634825"><ele>664.6666666666667</ele><time>2026-03-28T09:00:08.998Z</time></trkpt><trkpt lat="44.725668571918725" lon="9.699834844386393"><ele>664.3333333333334</ele><time>2026-03-28T09:00:09.998Z</time></trkpt><trkpt lat="44.7256078237461" lon="9.699803079454009"><ele>664.0</ele><time>2026-03-28T09:00:10.998Z</time></trkpt><trkpt lat="44.7255163600215" lon="9.6996906983364"><ele>664.0</ele><time>2026-03-28T09:00:12.998Z</time></trkpt><trkpt lat="44.72541813515906" lon="9.699606517372171"><ele>664.0</ele><time>2026-03-28T09:00:14.998Z</time></trkpt><trkpt lat="44.725303025187316" lon="9.699543237034751"><ele>664.0</ele><time>2026-03-28T09:00:16.998Z</time></trkpt><trkpt lat="44.725236110942326" lon="9.699528106768664"><ele>664.0</ele><time>2026-03-28T09:00:17.998Z</time></trkpt><trkpt lat="44.72516144326568" lon="9.699539307272575"><ele>664.0</ele><time>2026-03-28T09:00:18.998Z</time></trkpt><trkpt lat="44.725086880244106" lon="9.699565833446709"><ele>663.0</ele><time>2026-03-28T09:00:19.998Z</time></trkpt><trkpt lat="44.72502196515003" lon="9.699624158428062"><ele>662.0</ele><time>2026-03-28T09:00:20.998Z</time></trkpt><trkpt lat="44.72494865576537" lon="9.699658878550542"><ele>661.0</ele><time>2026-03-28T09:00:21.998Z</time></trkpt><trkpt lat="44.72487204571492" lon="9.699683676989896"><ele>660.0</ele><time>2026-03-28T09:00:22.998Z</time></trkpt><trkpt lat="44.72479363376096" lon="9.699704683196721"><ele>659.0</ele><time>2026-03-28T09:00:23.998Z</time></trkpt><trkpt lat="44.724727392111404" lon="9.699762213701051"><ele>658.0</ele><time>2026-03-28T09:00:24.998Z</time></trkpt><trkpt lat="44.72470385746452" lon="9.699874456704832"><ele>658.0</ele><time>2026-03-28T09:00:25.998Z</time></trkpt><trkpt lat="44.72470421515906" lon="9.700003395294052"><ele>658.0</ele><time>2026-03-28T09:00:26.998Z</time></trkpt><trkpt lat="44.72476430919596" lon="9.7001276591976"><ele>658.0</ele><time>2026-03-28T09:00:27.998Z</time></trkpt><trkpt lat="44.724872063659824" lon="9.70017503244651"><ele>658.0</ele><time>2026-03-28T09:00:28.998Z</time></trkpt><trkpt lat="44.72496287441924" lon="9.700209841255319"><ele>658.0</ele><time>2026-03-28T09:00:29.998Z</time></trkpt><trkpt lat="44.72505064582191" lon="9.700236976089498"><ele>656.3333333333334</ele><time>2026-03-28T09:00:30.998Z</time></trkpt><trkpt lat="44.72513671815315" lon="9.700267768926045"><ele>654.6666666666667</ele><time>2026-03-28T09:00:31.998Z</time></trkpt><trkpt lat="44.72522542894182" lon="9.700291209806043"><ele>653.0</ele><time>2026-03-28T09:00:32.998Z</time></trkpt><trkpt lat="44.72531137222918" lon="9.700339597299255"><ele>651.3333333333334</ele><time>2026-03-28T09:00:33.998Z</time></trkpt><trkpt lat="44.72539134540396" lon="9.700399790356315"><ele>649.6666666666666</ele><time>2026-03-28T09:00:34.998Z</time></trkpt><trkpt lat="44.725460479382605" lon="9.700463893222123"><ele>648.0</ele><time>2026-03-28T09:00:35.998Z</time></trkpt><trkpt lat="44.72550700756644" lon="9.700551817495763"><ele>648.0</ele><time>2026-03-28T09:00:36.998Z</time></trkpt><trkpt lat="44.72551799632771" lon="9.700668329587156"><ele>648.0</ele><time>2026-03-28T09:00:37.998Z</time></trkpt><trkpt lat="44.725477053501756" lon="9.700788983270337"><ele>648.0</ele><time>2026-03-28T09:00:38.998Z</time></trkpt><trkpt lat="44.725397351050766" lon="9.700872512722782"><ele>648.0</ele><time>2026-03-28T09:00:39.998Z</time></trkpt><trkpt lat="44.72529266835441" lon="9.700858791197922"><ele>648.0</ele><time>2026-03-28T09:00:40.998Z</time></trkpt><trkpt lat="44.725205840120395" lon="9.700896132855583"><ele>647.8</ele><time>2026-03-28T09:00:41.998Z</time></trkpt><trkpt lat="44.72511368234668" lon="9.70087995465745"><ele>647.5999999999999</ele><time>2026-03-28T09:00:42.998Z</time></trkpt><trkpt lat="44.72502483462879" lon="9.700890970559435"><ele>647.4000000000001</ele><time>2026-03-28T09:00:43.998Z</time></trkpt><trkpt lat="44.72493323860359" lon="9.700926431955342"><ele>647.2</ele><time>2026-03-28T09:00:45Z</time></trkpt><trkpt lat="44.72484601810033" lon="9.700964526912498"><ele>647.0</ele><time>2026-03-28T09:00:46Z</time></trkpt><trkpt lat="44.724752662771046" lon="9.700983434543707"><ele>647.0</ele><time>2026-03-28T09:00:47Z</time></trkpt><trkpt lat="44.724660533135754" lon="9.700953410940908"><ele>647.0</ele><time>2026-03-28T09:00:48Z</time></trkpt><trkpt lat="44.72457979137002" lon="9.700915135591549"><ele>647.0</ele><time>2026-03-28T09:00:49Z</time></trkpt><trkpt lat="44.724498709978796" lon="9.70085652300213"><ele>647.0</ele><time>2026-03-28T09:00:50Z</time></trkpt><trkpt lat="44.72444267730557" lon="9.700742221057075"><ele>647.0</ele><time>2026-03-28T09:00:51Z</time></trkpt><trkpt lat="44.72440925016858" lon="9.700605418191268"><ele>646.4000000000001</ele><time>2026-03-28T09:00:52Z</time></trkpt><trkpt lat="44.72436859740599" lon="9.700466803459953"><ele>645.8000000000001</ele><time>2026-03-28T09:00:53Z</time></trkpt><trkpt lat="44.724349713036176" lon="9.700333195735247"><ele>645.2</ele><time>2026-03-28T09:00:54Z</time></trkpt><trkpt lat="44.72432247869349" lon="9.700208221561732"><ele>644.6</ele><time>2026-03-28T09:00:55Z</time></trkpt><trkpt lat="44.72428954240664" lon="9.70009264326578"><ele>644.0</ele><time>2026-03-28T09:00:56Z</time></trkpt><trkpt lat="44.72423200945698" lon="9.69999511353228"><ele>644.0</ele><time>2026-03-28T09:00:57Z</time></trkpt><trkpt lat="44.72415679264531" lon="9.699935757550517"><ele>644.0</ele><time>2026-03-28T09:00:58Z</time></trkpt><trkpt lat="44.72407692136101" lon="9.69989028742992"><ele>644.0</ele><time>2026-03-28T09:00:59Z</time></trkpt><trkpt lat="44.72399083378429" lon="9.699898843671365"><ele>644.0</ele><time>2026-03-28T09:01:00Z</time></trkpt><trkpt lat="44.723909939466054" lon="9.699935498041906"><ele>644.0</ele><time>2026-03-28T09:01:01Z</time></trkpt><trkpt lat="44.723839111061544" lon="9.699994979067139"><ele>644.0</ele><time>2026-03-28T09:01:02Z</time></trkpt><trkpt lat="44.7237860078435" lon="9.700078055368955"><ele>644.0</ele><time>2026-03-28T09:01:03Z</time></trkpt><trkpt lat="44.72374951254911" lon="9.70016808205324"><ele>644.0</ele><time>2026-03-28T09:01:04Z</time></trkpt><trkpt lat="44.72370424620698" lon="9.700240956745864"><ele>644.0</ele><time>2026-03-28T09:01:05Z</time></trkpt><trkpt lat="44.723659254392125" lon="9.700312764469892"><ele>644.0</ele><time>2026-03-28T09:01:06Z</time></trkpt><trkpt lat="44.72361603110211" lon="9.700386518773822"><ele>644.0</ele><time>2026-03-28T09:01:06.999Z</time></trkpt><trkpt lat="44.723572431842435" lon="9.7004559620173"><ele>644.0</ele><time>2026-03-28T09:01:07.999Z</time></trkpt><trkpt lat="44.723533766850544" lon="9.700532426226037"><ele>644.0</ele><time>2026-03-28T09:01:08.999Z</time></trkpt><trkpt lat="44.72349332167666" lon="9.700605052424326"><ele>643.8571428571429</ele><time>2026-03-28T09:01:09.999Z</time></trkpt><trkpt lat="44.72345191228479" lon="9.700673597990804"><ele>643.7142857142858</ele><time>2026-03-28T09:01:10.999Z</time></trkpt><trkpt lat="44.72340954071043" lon="9.700742833226366"><ele>643.5714285714286</ele><time>2026-03-28T09:01:11.999Z</time></trkpt><trkpt lat="44.72336482079073" lon="9.700812288173747"><ele>643.4285714285714</ele><time>2026-03-28T09:01:12.999Z</time></trkpt><trkpt lat="44.7233216006635" lon="9.70088470436884"><ele>643.2857142857143</ele><time>2026-03-28T09:01:13.999Z</time></trkpt><trkpt lat="44.72328311903744" lon="9.700958315642266"><ele>643.1428571428571</ele><time>2026-03-28T09:01:14.999Z</time></trkpt><trkpt lat="44.723213481490745" lon="9.70107902407912"><ele>643.0</ele><time>2026-03-28T09:01:16.999Z</time></trkpt><trkpt lat="44.72315310104704" lon="9.701172680684573"><ele>643.0</ele><time>2026-03-28T09:01:18.999Z</time></trkpt><trkpt lat="44.72311703920015" lon="9.701260036510428"><ele>643.0</ele><time>2026-03-28T09:01:20.999Z</time></trkpt><trkpt lat="44.7230667074036" lon="9.701343447796086"><ele>643.0</ele><time>2026-03-28T09:01:23.999Z</time></trkpt><trkpt lat="44.72312263633972" lon="9.701265877812869"><ele>643.0</ele><time>2026-03-28T09:02:00.998Z</time></trkpt><trkpt lat="44.72315860739574" lon="9.701187439031562"><ele>643.0</ele><time>2026-03-28T09:02:04.998Z</time></trkpt><trkpt lat="44.72319842011764" lon="9.701118702078096"><ele>643.0</ele><time>2026-03-28T09:02:08.998Z</time></trkpt><trkpt lat="44.72323990405111" lon="9.701038912227927"><ele>643.0</ele><time>2026-03-28T09:05:10Z</time></trkpt><trkpt lat="44.72324669940674" lon="9.70091263448918"><ele>643.0</ele><time>2026-03-28T09:06:08.998Z</time></trkpt><trkpt lat="44.723175414408075" lon="9.701032134561295"><ele>643.0</ele><time>2026-03-28T09:06:49.998Z</time></trkpt><trkpt lat="44.72313205294087" lon="9.700925557311407"><ele>643.0</ele><time>2026-03-28T09:10:08.999Z</time></trkpt><trkpt lat="44.723048102422396" lon="9.700933741045883"><ele>643.0</ele><time>2026-03-28T09:10:16.999Z</time></trkpt><trkpt lat="44.7231141863677" lon="9.70084976507752"><ele>643.0</ele><time>2026-03-28T09:10:36.999Z</time></trkpt><trkpt lat="44.72321469159798" lon="9.70085623437306"><ele>643.0</ele><time>2026-03-28T09:11:03.999Z</time></trkpt><trkpt lat="44.72325727464254" lon="9.70096384372444"><ele>643.0</ele><time>2026-03-28T09:11:31Z</time></trkpt><trkpt lat="44.72320846064742" lon="9.701036106481755"><ele>643.0</ele><time>2026-03-28T09:11:40Z</time></trkpt><trkpt lat="44.723237744991714" lon="9.700952950507807"><ele>643.0</ele><time>2026-03-28T09:11:45Z</time></trkpt><trkpt lat="44.723271563178" lon="9.700874496681337"><ele>643.0</ele><time>2026-03-28T09:11:46.072Z</time></trkpt><trkpt lat="44.72327974342316" lon="9.700969701242718"><ele>643.0</ele><time>2026-03-28T09:11:51Z</time></trkpt><trkpt lat="44.72318819440161" lon="9.700975215529713"><ele>643.0</ele><time>2026-03-28T09:11:57Z</time></trkpt><trkpt lat="44.723310526756265" lon="9.700941239438544"><ele>643.0</ele><time>2026-03-28T09:16:50.999Z</time></trkpt><trkpt lat="44.723363580885255" lon="9.700873775599511"><ele>643.0</ele><time>2026-03-28T09:16:53.999Z</time></trkpt><trkpt lat="44.723401622914714" lon="9.700790350157988"><ele>643.0</ele><time>2026-03-28T09:16:56.999Z</time></trkpt><trkpt lat="44.72345141078436" lon="9.700718327531058"><ele>643.0</ele><time>2026-03-28T09:16:59.999Z</time></trkpt><trkpt lat="44.72350262097905" lon="9.700651283487568"><ele>643.0</ele><time>2026-03-28T09:17:01.999Z</time></trkpt><trkpt lat="44.72356029551216" lon="9.700571444270851"><ele>643.0</ele><time>2026-03-28T09:17:03.999Z</time></trkpt><trkpt lat="44.72360842420025" lon="9.700492413577381"><ele>643.0</ele><time>2026-03-28T09:17:05.999Z</time></trkpt><trkpt lat="44.72365245483626" lon="9.700420176873308"><ele>643.1666666666667</ele><time>2026-03-28T09:17:08.999Z</time></trkpt><trkpt lat="44.7236972108661" lon="9.700350216295076"><ele>643.3333333333334</ele><time>2026-03-28T09:17:09.999Z</time></trkpt><trkpt lat="44.723767269191704" lon="9.70023831208049"><ele>643.5</ele><time>2026-03-28T09:17:12.999Z</time></trkpt><trkpt lat="44.72380892635135" lon="9.700157825489802"><ele>643.6666666666666</ele><time>2026-03-28T09:17:14.999Z</time></trkpt><trkpt lat="44.7238592632914" lon="9.700075914769057"><ele>643.8333333333333</ele><time>2026-03-28T09:17:16.999Z</time></trkpt><trkpt lat="44.7239232221685" lon="9.700010838993284"><ele>644.0</ele><time>2026-03-28T09:17:18.998Z</time></trkpt><trkpt lat="44.724001414193246" lon="9.69997671732663"><ele>644.0</ele><time>2026-03-28T09:17:20.998Z</time></trkpt><trkpt lat="44.724082835532954" lon="9.699968717803628"><ele>644.0</ele><time>2026-03-28T09:17:22.998Z</time></trkpt><trkpt lat="44.72416219155129" lon="9.699989195354403"><ele>644.0</ele><time>2026-03-28T09:17:24.998Z</time></trkpt><trkpt lat="44.72423869056094" lon="9.700038062865742"><ele>644.0</ele><time>2026-03-28T09:17:26.998Z</time></trkpt><trkpt lat="44.724295625224336" lon="9.700130668305999"><ele>644.0</ele><time>2026-03-28T09:17:28.998Z</time></trkpt><trkpt lat="44.72433542555142" lon="9.700236327251945"><ele>644.0</ele><time>2026-03-28T09:17:31Z</time></trkpt><trkpt lat="44.72435295331055" lon="9.700363037592021"><ele>644.5</ele><time>2026-03-28T09:17:33Z</time></trkpt><trkpt lat="44.724373602350745" lon="9.700480915049694"><ele>645.0</ele><time>2026-03-28T09:17:35Z</time></trkpt><trkpt lat="44.724396124729324" lon="9.700604122729832"><ele>645.5</ele><time>2026-03-28T09:17:37Z</time></trkpt><trkpt lat="44.724417883592494" lon="9.700726476147238"><ele>646.0</ele><time>2026-03-28T09:17:39Z</time></trkpt><trkpt lat="44.72445068962249" lon="9.70084304597188"><ele>646.5</ele><time>2026-03-28T09:17:41Z</time></trkpt><trkpt lat="44.72450767334181" lon="9.700922728075208"><ele>647.0</ele><time>2026-03-28T09:17:43Z</time></trkpt><trkpt lat="44.72457210530995" lon="9.700964197540262"><ele>647.0</ele><time>2026-03-28T09:17:45Z</time></trkpt><trkpt lat="44.72465721027338" lon="9.7010124211562"><ele>647.0</ele><time>2026-03-28T09:17:48Z</time></trkpt><trkpt lat="44.7247471317644" lon="9.701016066524172"><ele>647.0</ele><time>2026-03-28T09:17:51Z</time></trkpt><trkpt lat="44.72484277454499" lon="9.701015461471798"><ele>647.0</ele><time>2026-03-28T09:17:54Z</time></trkpt><trkpt lat="44.72493433767239" lon="9.70099870579634"><ele>647.0</ele><time>2026-03-28T09:17:57Z</time></trkpt><trkpt lat="44.72502664029728" lon="9.700970541173294"><ele>647.0</ele><time>2026-03-28T09:18:00Z</time></trkpt><trkpt lat="44.72512665096414" lon="9.700934681379538"><ele>647.0</ele><time>2026-03-28T09:18:03Z</time></trkpt><trkpt lat="44.72518998267048" lon="9.700934437229604"><ele>647.0</ele><time>2026-03-28T09:18:05Z</time></trkpt><trkpt lat="44.72525400475209" lon="9.70092618660597"><ele>647.0</ele><time>2026-03-28T09:18:07Z</time></trkpt><trkpt lat="44.725344290484" lon="9.700912859717828"><ele>647.0</ele><time>2026-03-28T09:18:10Z</time></trkpt><trkpt lat="44.72543407940618" lon="9.700877788491656"><ele>647.0</ele><time>2026-03-28T09:18:13Z</time></trkpt><trkpt lat="44.7254901948177" lon="9.70082598823095"><ele>647.1666666666666</ele><time>2026-03-28T09:18:15Z</time></trkpt><trkpt lat="44.72554100380723" lon="9.700726743521468"><ele>647.3333333333333</ele><time>2026-03-28T09:18:18Z</time></trkpt><trkpt lat="44.72555462531887" lon="9.700627188143756"><ele>647.5</ele><time>2026-03-28T09:18:21Z</time></trkpt><trkpt lat="44.72552312447927" lon="9.700530297885386"><ele>647.6666666666666</ele><time>2026-03-28T09:18:24Z</time></trkpt><trkpt lat="44.72547675179744" lon="9.700449025604357"><ele>647.8333333333334</ele><time>2026-03-28T09:18:27Z</time></trkpt><trkpt lat="44.72541644946365" lon="9.70038551947276"><ele>648.0</ele><time>2026-03-28T09:18:29.999Z</time></trkpt><trkpt lat="44.72535120176967" lon="9.700340294803752"><ele>648.0</ele><time>2026-03-28T09:18:32.999Z</time></trkpt><trkpt lat="44.72527181111918" lon="9.700286889419914"><ele>648.0</ele><time>2026-03-28T09:18:35.999Z</time></trkpt><trkpt lat="44.725195029863954" lon="9.700247670819953"><ele>648.0</ele><time>2026-03-28T09:18:38.999Z</time></trkpt><trkpt lat="44.72511284341594" lon="9.70021743067686"><ele>648.0</ele><time>2026-03-28T09:18:41.999Z</time></trkpt><trkpt lat="44.72502219252356" lon="9.700189657848298"><ele>648.0</ele><time>2026-03-28T09:18:44.999Z</time></trkpt><trkpt lat="44.72493646070665" lon="9.700155230905803"><ele>648.0</ele><time>2026-03-28T09:18:47.999Z</time></trkpt><trkpt lat="44.72485765860472" lon="9.700098512242366"><ele>649.4285714285714</ele><time>2026-03-28T09:18:50.999Z</time></trkpt><trkpt lat="44.72481037435245" lon="9.700039008243236"><ele>650.8571428571429</ele><time>2026-03-28T09:18:52.999Z</time></trkpt><trkpt lat="44.72477415409502" lon="9.699965680040275"><ele>652.2857142857142</ele><time>2026-03-28T09:18:54.999Z</time></trkpt><trkpt lat="44.72477505554085" lon="9.699848815464069"><ele>653.7142857142858</ele><time>2026-03-28T09:18:57.999Z</time></trkpt><trkpt lat="44.72483078029994" lon="9.699774734509111"><ele>655.1428571428571</ele><time>2026-03-28T09:19:00.999Z</time></trkpt><trkpt lat="44.72490111966145" lon="9.699735966137997"><ele>656.5714285714286</ele><time>2026-03-28T09:19:04.999Z</time></trkpt><trkpt lat="44.72497586160822" lon="9.699699781849596"><ele>658.0</ele><time>2026-03-28T09:19:07.999Z</time></trkpt><trkpt lat="44.725054018145194" lon="9.699659029219722"><ele>658.0</ele><time>2026-03-28T09:19:10.999Z</time></trkpt><trkpt lat="44.72513131921515" lon="9.69962347711928"><ele>658.0</ele><time>2026-03-28T09:19:12.999Z</time></trkpt><trkpt lat="44.72521233569462" lon="9.699599600439026"><ele>658.0</ele><time>2026-03-28T09:19:15.999Z</time></trkpt><trkpt lat="44.72530235520035" lon="9.699610148691471"><ele>658.0</ele><time>2026-03-28T09:19:18.999Z</time></trkpt><trkpt lat="44.7253887437085" lon="9.699641638597859"><ele>658.0</ele><time>2026-03-28T09:19:21.999Z</time></trkpt><trkpt lat="44.72547650258891" lon="9.69966244646406"><ele>658.0</ele><time>2026-03-28T09:19:24.998Z</time></trkpt><trkpt lat="44.72554074088365" lon="9.699633310764591"><ele>658.8571428571429</ele><time>2026-03-28T09:19:27.998Z</time></trkpt><trkpt lat="44.72558784105296" lon="9.69956430362803"><ele>659.7142857142858</ele><time>2026-03-28T09:19:30.998Z</time></trkpt><trkpt lat="44.72563152672988" lon="9.69945813996234"><ele>660.5714285714286</ele><time>2026-03-28T09:19:34.998Z</time></trkpt><trkpt lat="44.72567261959824" lon="9.699382574688924"><ele>661.4285714285714</ele><time>2026-03-28T09:19:38Z</time></trkpt><trkpt lat="44.72570788298474" lon="9.69929194557325"><ele>662.2857142857143</ele><time>2026-03-28T09:19:42Z</time></trkpt><trkpt lat="44.725736795102556" lon="9.699212428321268"><ele>663.1428571428571</ele><time>2026-03-28T09:19:45Z</time></trkpt><trkpt lat="44.72576416154509" lon="9.699119807738917"><ele>664.0</ele><time>2026-03-28T09:19:48Z</time></trkpt><trkpt lat="44.72579969158333" lon="9.699040978740952"><ele>665.5714285714286</ele><time>2026-03-28T09:19:52Z</time></trkpt><trkpt lat="44.72583636702444" lon="9.698959998571368"><ele>667.1428571428572</ele><time>2026-03-28T09:19:55Z</time></trkpt><trkpt lat="44.72586678174443" lon="9.69886431129471"><ele>668.7142857142858</ele><time>2026-03-28T09:19:58Z</time></trkpt><trkpt lat="44.725892935654" lon="9.69876897736056"><ele>670.2857142857142</ele><time>2026-03-28T09:20:02Z</time></trkpt><trkpt lat="44.725917989584076" lon="9.698675980927641"><ele>671.8571428571429</ele><time>2026-03-28T09:20:05Z</time></trkpt><trkpt lat="44.725940515486016" lon="9.698575536017922"><ele>673.4285714285714</ele><time>2026-03-28T09:20:08Z</time></trkpt><trkpt lat="44.72596337205329" lon="9.69846968072505"><ele>675.0</ele><time>2026-03-28T09:20:12Z</time></trkpt><trkpt lat="44.7259817310759" lon="9.69834922393071"><ele>675.1428571428571</ele><time>2026-03-28T09:20:15Z</time></trkpt><trkpt lat="44.72599859304724" lon="9.698259549861024"><ele>675.2857142857143</ele><time>2026-03-28T09:20:18Z</time></trkpt><trkpt lat="44.7260153546865" lon="9.698166729903736"><ele>675.4285714285714</ele><time>2026-03-28T09:20:21Z</time></trkpt><trkpt lat="44.72602819904778" lon="9.698070223581352"><ele>675.5714285714286</ele><time>2026-03-28T09:20:24Z</time></trkpt><trkpt lat="44.72605100702813" lon="9.697976812195881"><ele>675.7142857142857</ele><time>2026-03-28T09:20:27Z</time></trkpt><trkpt lat="44.726070690789726" lon="9.69788056161561"><ele>675.8571428571429</ele><time>2026-03-28T09:20:30Z</time></trkpt><trkpt lat="44.72608613454469" lon="9.697778545797844"><ele>676.0</ele><time>2026-03-28T09:20:33Z</time></trkpt><trkpt lat="44.72610233640032" lon="9.697666691317833"><ele>679.2857142857143</ele><time>2026-03-28T09:20:35.999Z</time></trkpt><trkpt lat="44.726115943863284" lon="9.697578729778932"><ele>682.5714285714286</ele><time>2026-03-28T09:20:38.999Z</time></trkpt><trkpt lat="44.72613402391855" lon="9.697492384412438"><ele>685.8571428571429</ele><time>2026-03-28T09:20:41.999Z</time></trkpt><trkpt lat="44.7261465272487" lon="9.697399718966427"><ele>689.1428571428571</ele><time>2026-03-28T09:20:44.999Z</time></trkpt><trkpt lat="44.72616474510534" lon="9.697303307348637"><ele>692.4285714285714</ele><time>2026-03-28T09:20:47.999Z</time></trkpt><trkpt lat="44.72618278987515" lon="9.69720268678509"><ele>695.7142857142857</ele><time>2026-03-28T09:20:50.999Z</time></trkpt><trkpt lat="44.72619751891641" lon="9.697106128666153"><ele>699.0</ele><time>2026-03-28T09:20:53.999Z</time></trkpt><trkpt lat="44.72622764834549" lon="9.696995451911231"><ele>698.8571428571428</ele><time>2026-03-28T09:20:56.999Z</time></trkpt><trkpt lat="44.72624181461587" lon="9.696907650070925"><ele>698.7142857142858</ele><time>2026-03-28T09:20:59.999Z</time></trkpt><trkpt lat="44.72626730065724" lon="9.696800603612054"><ele>698.5714285714286</ele><time>2026-03-28T09:21:03.999Z</time></trkpt><trkpt lat="44.72627415537097" lon="9.69670213397276"><ele>698.4285714285713</ele><time>2026-03-28T09:21:06.999Z</time></trkpt><trkpt lat="44.72628068018529" lon="9.696605881116144"><ele>698.2857142857142</ele><time>2026-03-28T09:21:09.999Z</time></trkpt><trkpt lat="44.72628672779897" lon="9.696494503341336"><ele>698.1428571428571</ele><time>2026-03-28T09:21:12.999Z</time></trkpt><trkpt lat="44.72629002244583" lon="9.696401018151729"><ele>698.0</ele><time>2026-03-28T09:21:15.999Z</time></trkpt><trkpt lat="44.72629046526165" lon="9.696310829285848"><ele>697.9999999999999</ele><time>2026-03-28T09:21:18.999Z</time></trkpt><trkpt lat="44.72629660829959" lon="9.696220786252116"><ele>698.0</ele><time>2026-03-28T09:21:21.999Z</time></trkpt><trkpt lat="44.7262959990568" lon="9.696131055830385"><ele>698.0</ele><time>2026-03-28T09:21:24.999Z</time></trkpt><trkpt lat="44.72630111225271" lon="9.696035121444027"><ele>698.0</ele><time>2026-03-28T09:21:28.998Z</time></trkpt><trkpt lat="44.72630056303097" lon="9.69590546868346"><ele>698.0</ele><time>2026-03-28T09:21:32.998Z</time></trkpt><trkpt lat="44.726296956599185" lon="9.695806395891806"><ele>697.9999999999999</ele><time>2026-03-28T09:21:36.998Z</time></trkpt><trkpt lat="44.726296221549376" lon="9.695710170390292"><ele>698.0</ele><time>2026-03-28T09:21:39.998Z</time></trkpt><trkpt lat="44.72628725334236" lon="9.69560671606688"><ele>698.5714285714286</ele><time>2026-03-28T09:21:43Z</time></trkpt><trkpt lat="44.72627599970576" lon="9.69551161235988"><ele>699.1428571428571</ele><time>2026-03-28T09:21:47Z</time></trkpt><trkpt lat="44.7262569471075" lon="9.69540576263449"><ele>699.7142857142858</ele><time>2026-03-28T09:21:50Z</time></trkpt><trkpt lat="44.72623734040026" lon="9.695313874587816"><ele>700.2857142857142</ele><time>2026-03-28T09:21:53Z</time></trkpt><trkpt lat="44.726219369457105" lon="9.695226393067136"><ele>700.8571428571429</ele><time>2026-03-28T09:21:57Z</time></trkpt><trkpt lat="44.72619406389058" lon="9.695143378347876"><ele>701.4285714285714</ele><time>2026-03-28T09:22:00Z</time></trkpt><trkpt lat="44.726159480680955" lon="9.69506261583976"><ele>702.0</ele><time>2026-03-28T09:22:03Z</time></trkpt><trkpt lat="44.72611039835627" lon="9.694966994979545"><ele>701.4285714285714</ele><time>2026-03-28T09:22:06Z</time></trkpt><trkpt lat="44.726064070035655" lon="9.694887135828628"><ele>700.8571428571429</ele><time>2026-03-28T09:22:09Z</time></trkpt><trkpt lat="44.72602073601619" lon="9.694800607559225"><ele>700.2857142857142</ele><time>2026-03-28T09:22:13Z</time></trkpt><trkpt lat="44.725979586410496" lon="9.694721680020667"><ele>699.7142857142858</ele><time>2026-03-28T09:22:16Z</time></trkpt><trkpt lat="44.72593156172736" lon="9.694637267903662"><ele>699.1428571428571</ele><time>2026-03-28T09:22:19Z</time></trkpt><trkpt lat="44.7258842722657" lon="9.694550730500017"><ele>698.5714285714286</ele><time>2026-03-28T09:22:22Z</time></trkpt><trkpt lat="44.72584801969364" lon="9.694468844065808"><ele>698.0</ele><time>2026-03-28T09:22:25Z</time></trkpt><trkpt lat="44.72581041549845" lon="9.694386644475637"><ele>699.5</ele><time>2026-03-28T09:22:28Z</time></trkpt><trkpt lat="44.72576802378942" lon="9.694306339178999"><ele>701.0</ele><time>2026-03-28T09:22:31Z</time></trkpt><trkpt lat="44.725722161226614" lon="9.694201749006655"><ele>702.5</ele><time>2026-03-28T09:22:34Z</time></trkpt><trkpt lat="44.72568105497387" lon="9.694107375237978"><ele>704.0</ele><time>2026-03-28T09:22:37Z</time></trkpt><trkpt lat="44.7256612268235" lon="9.694007709341184"><ele>705.5</ele><time>2026-03-28T09:22:40Z</time></trkpt><trkpt lat="44.725638013995926" lon="9.69390226745526"><ele>707.0</ele><time>2026-03-28T09:22:42.999Z</time></trkpt><trkpt lat="44.72562191780894" lon="9.693793004638847"><ele>707.0</ele><time>2026-03-28T09:22:45.999Z</time></trkpt><trkpt lat="44.72560695775465" lon="9.693687477336452"><ele>707.0</ele><time>2026-03-28T09:22:48.999Z</time></trkpt><trkpt lat="44.7256039880627" lon="9.693581621031424"><ele>707.0</ele><time>2026-03-28T09:22:51.999Z</time></trkpt><trkpt lat="44.7256074929168" lon="9.693463454371127"><ele>707.0</ele><time>2026-03-28T09:22:55.999Z</time></trkpt><trkpt lat="44.72561627706133" lon="9.69337126533636"><ele>707.0</ele><time>2026-03-28T09:22:58.999Z</time></trkpt><trkpt lat="44.72563561741652" lon="9.693267676266684"><ele>707.0</ele><time>2026-03-28T09:23:01.999Z</time></trkpt><trkpt lat="44.72566027021797" lon="9.693170770521368"><ele>708.4285714285714</ele><time>2026-03-28T09:23:04.999Z</time></trkpt><trkpt lat="44.72568821677671" lon="9.693080070145859"><ele>709.8571428571429</ele><time>2026-03-28T09:23:07.999Z</time></trkpt><trkpt lat="44.72570912514175" lon="9.692995062740264"><ele>711.2857142857142</ele><time>2026-03-28T09:23:10.999Z</time></trkpt><trkpt lat="44.72572621769112" lon="9.69290422630329"><ele>712.7142857142858</ele><time>2026-03-28T09:23:13.999Z</time></trkpt><trkpt lat="44.72572079092006" lon="9.692802058767187"><ele>714.1428571428571</ele><time>2026-03-28T09:23:16.999Z</time></trkpt><trkpt lat="44.725697277527615" lon="9.692693786429967"><ele>715.5714285714286</ele><time>2026-03-28T09:23:19.999Z</time></trkpt><trkpt lat="44.725661511806095" lon="9.692581517327174"><ele>717.0</ele><time>2026-03-28T09:23:22.999Z</time></trkpt><trkpt lat="44.725623628630856" lon="9.692469279731181"><ele>717.6</ele><time>2026-03-28T09:23:25.999Z</time></trkpt><trkpt lat="44.7255753582301" lon="9.692360387409208"><ele>718.2</ele><time>2026-03-28T09:23:28.999Z</time></trkpt><trkpt lat="44.72551724896365" lon="9.692265586783716"><ele>718.8</ele><time>2026-03-28T09:23:31.999Z</time></trkpt><trkpt lat="44.72544556592206" lon="9.69218083391666"><ele>719.4</ele><time>2026-03-28T09:23:34.998Z</time></trkpt><trkpt lat="44.72537382965728" lon="9.692096569990293"><ele>720.0</ele><time>2026-03-28T09:23:37.998Z</time></trkpt><trkpt lat="44.725315970221295" lon="9.691997405064614"><ele>719.8333333333334</ele><time>2026-03-28T09:23:40.998Z</time></trkpt><trkpt lat="44.725276176088144" lon="9.69188873887596"><ele>719.6666666666666</ele><time>2026-03-28T09:23:43.998Z</time></trkpt><trkpt lat="44.725249749898964" lon="9.691783134989446"><ele>719.5</ele><time>2026-03-28T09:23:46.998Z</time></trkpt><trkpt lat="44.72522845985562" lon="9.691677816379523"><ele>719.3333333333333</ele><time>2026-03-28T09:23:50Z</time></trkpt><trkpt lat="44.72520263974195" lon="9.691568028631758"><ele>719.1666666666666</ele><time>2026-03-28T09:23:53Z</time></trkpt><trkpt lat="44.72518006835362" lon="9.69146573908584"><ele>719.0</ele><time>2026-03-28T09:23:56Z</time></trkpt><trkpt lat="44.72517236187001" lon="9.691360993686237"><ele>719.0</ele><time>2026-03-28T09:23:59Z</time></trkpt><trkpt lat="44.72516031159552" lon="9.691251091392338"><ele>719.0</ele><time>2026-03-28T09:24:02Z</time></trkpt><trkpt lat="44.7251504327392" lon="9.691135183991785"><ele>719.0</ele><time>2026-03-28T09:24:05Z</time></trkpt><trkpt lat="44.72514767773151" lon="9.691015220374052"><ele>719.0</ele><time>2026-03-28T09:24:08Z</time></trkpt><trkpt lat="44.72514168135565" lon="9.690887724776562"><ele>719.0</ele><time>2026-03-28T09:24:11Z</time></trkpt><trkpt lat="44.72513233719323" lon="9.690797550547833"><ele>719.0</ele><time>2026-03-28T09:24:13Z</time></trkpt><trkpt lat="44.725102728296925" lon="9.690678686958837"><ele>720.3333333333333</ele><time>2026-03-28T09:24:16Z</time></trkpt><trkpt lat="44.72507574446789" lon="9.69059228415409"><ele>721.6666666666666</ele><time>2026-03-28T09:24:18Z</time></trkpt><trkpt lat="44.72503869335571" lon="9.690479121436049"><ele>723.0</ele><time>2026-03-28T09:24:21Z</time></trkpt><trkpt lat="44.72500637759383" lon="9.690362827532407"><ele>724.3333333333334</ele><time>2026-03-28T09:24:24Z</time></trkpt><trkpt lat="44.72497498873169" lon="9.690242134907356"><ele>725.6666666666667</ele><time>2026-03-28T09:24:27Z</time></trkpt><trkpt lat="44.72495654004115" lon="9.690123195359742"><ele>727.0</ele><time>2026-03-28T09:24:30Z</time></trkpt><trkpt lat="44.724942435196944" lon="9.69003026543081"><ele>728.3333333333334</ele><time>2026-03-28T09:24:33Z</time></trkpt><trkpt lat="44.724921455452765" lon="9.689895034869725"><ele>729.6666666666667</ele><time>2026-03-28T09:24:36Z</time></trkpt><trkpt lat="44.72490340935269" lon="9.68978409904113"><ele>731.0</ele><time>2026-03-28T09:24:39Z</time></trkpt><trkpt lat="44.72488305582595" lon="9.68968316289249"><ele>732.3333333333334</ele><time>2026-03-28T09:24:42Z</time></trkpt><trkpt lat="44.72485476368271" lon="9.689582586543825"><ele>733.6666666666666</ele><time>2026-03-28T09:24:44.999Z</time></trkpt><trkpt lat="44.7248289440102" lon="9.689486806278989"><ele>735.0</ele><time>2026-03-28T09:24:47.999Z</time></trkpt><trkpt lat="44.724803088370656" lon="9.689391157818259"><ele>736.1666666666666</ele><time>2026-03-28T09:24:50.999Z</time></trkpt><trkpt lat="44.72475517873075" lon="9.689301760057571"><ele>737.3333333333334</ele><time>2026-03-28T09:24:53.999Z</time></trkpt><trkpt lat="44.724694185782084" lon="9.689229488615082"><ele>738.5</ele><time>2026-03-28T09:24:56.999Z</time></trkpt><trkpt lat="44.724632696466365" lon="9.689155612782772"><ele>739.6666666666667</ele><time>2026-03-28T09:24:59.999Z</time></trkpt><trkpt lat="44.72456738423965" lon="9.689086788725673"><ele>740.8333333333334</ele><time>2026-03-28T09:25:02.999Z</time></trkpt><trkpt lat="44.72449678080542" lon="9.689027347556907"><ele>742.0</ele><time>2026-03-28T09:25:05.999Z</time></trkpt><trkpt lat="44.72442471492063" lon="9.688958779942"><ele>741.6666666666667</ele><time>2026-03-28T09:25:08.999Z</time></trkpt><trkpt lat="44.72434024806431" lon="9.688899968333176"><ele>741.3333333333334</ele><time>2026-03-28T09:25:11.999Z</time></trkpt><trkpt lat="44.72427023706101" lon="9.688826429401464"><ele>741.0</ele><time>2026-03-28T09:25:14.999Z</time></trkpt><trkpt lat="44.724205061430204" lon="9.68874898983104"><ele>740.6666666666666</ele><time>2026-03-28T09:25:17.999Z</time></trkpt><trkpt lat="44.724156471914476" lon="9.688666314689819"><ele>740.3333333333333</ele><time>2026-03-28T09:25:20.999Z</time></trkpt><trkpt lat="44.724120765988545" lon="9.68857176940141"><ele>740.0</ele><time>2026-03-28T09:25:23.999Z</time></trkpt><trkpt lat="44.72407203745118" lon="9.688478006288848"><ele>741.8333333333333</ele><time>2026-03-28T09:25:26.999Z</time></trkpt><trkpt lat="44.724029858014156" lon="9.688390063196987"><ele>743.6666666666666</ele><time>2026-03-28T09:25:29.999Z</time></trkpt><trkpt lat="44.723979711014046" lon="9.688323730080615"><ele>745.5</ele><time>2026-03-28T09:25:32.999Z</time></trkpt><trkpt lat="44.72394529021571" lon="9.688237541306004"><ele>747.3333333333334</ele><time>2026-03-28T09:25:34.999Z</time></trkpt><trkpt lat="44.72392156261932" lon="9.688141361649173"><ele>749.1666666666667</ele><time>2026-03-28T09:25:37.998Z</time></trkpt><trkpt lat="44.72390426044911" lon="9.688029260788294"><ele>751.0</ele><time>2026-03-28T09:25:40.998Z</time></trkpt><trkpt lat="44.723882815677676" lon="9.687900434633715"><ele>751.0</ele><time>2026-03-28T09:25:43.998Z</time></trkpt><trkpt lat="44.723862769617696" lon="9.687803844142667"><ele>751.0</ele><time>2026-03-28T09:25:45.998Z</time></trkpt><trkpt lat="44.723838871123206" lon="9.68768819076384"><ele>751.0</ele><time>2026-03-28T09:25:47.998Z</time></trkpt><trkpt lat="44.723803220698755" lon="9.687571712557752"><ele>751.0</ele><time>2026-03-28T09:25:49.998Z</time></trkpt><trkpt lat="44.723765737305804" lon="9.687474068075517"><ele>751.0</ele><time>2026-03-28T09:25:51.998Z</time></trkpt><trkpt lat="44.72371714338119" lon="9.687364266306874"><ele>751.0</ele><time>2026-03-28T09:25:54Z</time></trkpt><trkpt lat="44.723654150819165" lon="9.687281879500354"><ele>751.1666666666667</ele><time>2026-03-28T09:25:56Z</time></trkpt><trkpt lat="44.72358186030915" lon="9.687224015777769"><ele>751.3333333333334</ele><time>2026-03-28T09:25:58Z</time></trkpt><trkpt lat="44.72350188469074" lon="9.687183548564015"><ele>751.5</ele><time>2026-03-28T09:26:00Z</time></trkpt><trkpt lat="44.72343656031" lon="9.687175408861377"><ele>751.6666666666666</ele><time>2026-03-28T09:26:02Z</time></trkpt><trkpt lat="44.72336529628648" lon="9.687175593272693"><ele>751.8333333333333</ele><time>2026-03-28T09:26:04Z</time></trkpt><trkpt lat="44.72329967199372" lon="9.68717117567522"><ele>752.0</ele><time>2026-03-28T09:26:06Z</time></trkpt><trkpt lat="44.72320611563676" lon="9.687161591703193"><ele>752.0</ele><time>2026-03-28T09:26:09Z</time></trkpt><trkpt lat="44.72311746325173" lon="9.687138758972257"><ele>752.0</ele><time>2026-03-28T09:26:12Z</time></trkpt><trkpt lat="44.72305306793878" lon="9.68712767762313"><ele>752.0</ele><time>2026-03-28T09:26:14Z</time></trkpt><trkpt lat="44.722960901106894" lon="9.687105253028138"><ele>752.0</ele><time>2026-03-28T09:26:17Z</time></trkpt><trkpt lat="44.72288495523016" lon="9.687066177977101"><ele>752.0</ele><time>2026-03-28T09:26:19Z</time></trkpt><trkpt lat="44.722822011208166" lon="9.68702964007903"><ele>752.0</ele><time>2026-03-28T09:26:21Z</time></trkpt><trkpt lat="44.72274690338302" lon="9.686976714181792"><ele>752.0</ele><time>2026-03-28T09:26:24Z</time></trkpt><trkpt lat="44.72268718200997" lon="9.686931469690814"><ele>752.0</ele><time>2026-03-28T09:26:26Z</time></trkpt><trkpt lat="44.72262271808248" lon="9.686887935028583"><ele>752.0</ele><time>2026-03-28T09:26:28Z</time></trkpt><trkpt lat="44.722481684426626" lon="9.686819431027182"><ele>752.0</ele><time>2026-03-28T09:26:31Z</time></trkpt><trkpt lat="44.72239548665391" lon="9.686769323646645"><ele>752.0</ele><time>2026-03-28T09:26:33Z</time></trkpt><trkpt lat="44.722304298543804" lon="9.686728269183108"><ele>752.7142857142857</ele><time>2026-03-28T09:26:35Z</time></trkpt><trkpt lat="44.72222908015392" lon="9.686702277612843"><ele>753.4285714285713</ele><time>2026-03-28T09:26:37Z</time></trkpt><trkpt lat="44.72215545382335" lon="9.686677392756062"><ele>754.1428571428571</ele><time>2026-03-28T09:26:39Z</time></trkpt><trkpt lat="44.72208636903573" lon="9.68665440719525"><ele>754.8571428571429</ele><time>2026-03-28T09:26:41Z</time></trkpt><trkpt lat="44.72202328241557" lon="9.686637391968656"><ele>755.5714285714286</ele><time>2026-03-28T09:26:43Z</time></trkpt><trkpt lat="44.72195811415463" lon="9.686621706807138"><ele>756.2857142857143</ele><time>2026-03-28T09:26:45Z</time></trkpt><trkpt lat="44.72188979482248" lon="9.686607736961703"><ele>757.0</ele><time>2026-03-28T09:26:47Z</time></trkpt><trkpt lat="44.721802587602035" lon="9.686572550060852"><ele>758.3333333333334</ele><time>2026-03-28T09:26:49.999Z</time></trkpt><trkpt lat="44.721714063239006" lon="9.686555685926482"><ele>759.6666666666667</ele><time>2026-03-28T09:26:52.999Z</time></trkpt><trkpt lat="44.7216340608352" lon="9.686540361609676"><ele>761.0</ele><time>2026-03-28T09:26:55.999Z</time></trkpt><trkpt lat="44.72155409936227" lon="9.686530353922837"><ele>762.3333333333334</ele><time>2026-03-28T09:26:58.999Z</time></trkpt><trkpt lat="44.721480529425925" lon="9.686544546290559"><ele>763.6666666666666</ele><time>2026-03-28T09:27:01.999Z</time></trkpt><trkpt lat="44.72140290693259" lon="9.686545051294393"><ele>765.0</ele><time>2026-03-28T09:27:04.999Z</time></trkpt><trkpt lat="44.72132516256684" lon="9.686546098622193"><ele>765.0000000000001</ele><time>2026-03-28T09:27:07.999Z</time></trkpt><trkpt lat="44.72125039734952" lon="9.686543636378584"><ele>765.0</ele><time>2026-03-28T09:27:10.999Z</time></trkpt><trkpt lat="44.7211722042261" lon="9.68654422865708"><ele>765.0</ele><time>2026-03-28T09:27:13.999Z</time></trkpt><trkpt lat="44.72109648857915" lon="9.686537539724482"><ele>765.0</ele><time>2026-03-28T09:27:16.999Z</time></trkpt><trkpt lat="44.72102274342845" lon="9.686519235363164"><ele>765.0</ele><time>2026-03-28T09:27:19.999Z</time></trkpt><trkpt lat="44.72095485616548" lon="9.686499851662845"><ele>765.0000000000001</ele><time>2026-03-28T09:27:22.999Z</time></trkpt><trkpt lat="44.72088863736449" lon="9.68648456610441"><ele>765.0</ele><time>2026-03-28T09:27:25.999Z</time></trkpt><trkpt lat="44.720825466132915" lon="9.68643737459493"><ele>766.4285714285714</ele><time>2026-03-28T09:27:28.999Z</time></trkpt><trkpt lat="44.720764527827846" lon="9.686392800999311"><ele>767.8571428571429</ele><time>2026-03-28T09:27:31.999Z</time></trkpt><trkpt lat="44.72069996803751" lon="9.686345113110008"><ele>769.2857142857142</ele><time>2026-03-28T09:27:34.999Z</time></trkpt><trkpt lat="44.72062936118896" lon="9.686320792199119"><ele>770.7142857142858</ele><time>2026-03-28T09:27:37.999Z</time></trkpt><trkpt lat="44.72055592787207" lon="9.686335654225536"><ele>772.1428571428571</ele><time>2026-03-28T09:27:40.998Z</time></trkpt><trkpt lat="44.720504960690285" lon="9.686387971338466"><ele>773.5714285714286</ele><time>2026-03-28T09:27:43.998Z</time></trkpt><trkpt lat="44.72046868735346" lon="9.68647929031807"><ele>775.0</ele><time>2026-03-28T09:27:46.998Z</time></trkpt><trkpt lat="44.7204445941713" lon="9.686578034241684"><ele>774.9999999999999</ele><time>2026-03-28T09:27:49.998Z</time></trkpt><trkpt lat="44.72043055307437" lon="9.686679348242729"><ele>775.0</ele><time>2026-03-28T09:27:52.998Z</time></trkpt><trkpt lat="44.720412788826664" lon="9.686780810006725"><ele>775.0</ele><time>2026-03-28T09:27:55.998Z</time></trkpt><trkpt lat="44.720399834047704" lon="9.686881742608637"><ele>775.0</ele><time>2026-03-28T09:27:59Z</time></trkpt><trkpt lat="44.720384141185356" lon="9.686979416491743"><ele>775.0</ele><time>2026-03-28T09:28:02Z</time></trkpt><trkpt lat="44.72036079498676" lon="9.687072563603492"><ele>774.9999999999999</ele><time>2026-03-28T09:28:05Z</time></trkpt><trkpt lat="44.720327531311256" lon="9.687158132202523"><ele>775.0</ele><time>2026-03-28T09:28:08Z</time></trkpt><trkpt lat="44.72027811522915" lon="9.687227935815152"><ele>775.7142857142857</ele><time>2026-03-28T09:28:11Z</time></trkpt><trkpt lat="44.72021139992995" lon="9.687246823778281"><ele>776.4285714285714</ele><time>2026-03-28T09:28:14Z</time></trkpt><trkpt lat="44.72014498640835" lon="9.687236765799685"><ele>777.1428571428571</ele><time>2026-03-28T09:28:17Z</time></trkpt><trkpt lat="44.720080323605" lon="9.687227937817568"><ele>777.8571428571429</ele><time>2026-03-28T09:28:20Z</time></trkpt><trkpt lat="44.72001516030346" lon="9.687216617074437"><ele>778.5714285714286</ele><time>2026-03-28T09:28:23Z</time></trkpt><trkpt lat="44.71993586186015" lon="9.687197510785888"><ele>779.2857142857142</ele><time>2026-03-28T09:28:27Z</time></trkpt><trkpt lat="44.71985244917638" lon="9.687189797772884"><ele>780.0</ele><time>2026-03-28T09:28:31Z</time></trkpt><trkpt lat="44.71978727203471" lon="9.687180903400039"><ele>780.0</ele><time>2026-03-28T09:28:34Z</time></trkpt><trkpt lat="44.71972129864892" lon="9.687174520310629"><ele>780.0</ele><time>2026-03-28T09:28:37Z</time></trkpt><trkpt lat="44.71965316853702" lon="9.687157571508681"><ele>780.0</ele><time>2026-03-28T09:28:40Z</time></trkpt><trkpt lat="44.71958185352496" lon="9.68713196586086"><ele>780.0</ele><time>2026-03-28T09:28:43Z</time></trkpt><trkpt lat="44.719509478313014" lon="9.687093788067322"><ele>780.0</ele><time>2026-03-28T09:28:46Z</time></trkpt><trkpt lat="44.71942818228543" lon="9.687050351400613"><ele>780.0</ele><time>2026-03-28T09:28:49Z</time></trkpt><trkpt lat="44.719354071610574" lon="9.686984018077622"><ele>782.0</ele><time>2026-03-28T09:28:51.999Z</time></trkpt><trkpt lat="44.71929019915889" lon="9.686904737858283"><ele>784.0</ele><time>2026-03-28T09:28:54.999Z</time></trkpt><trkpt lat="44.719230799922414" lon="9.68681481806307"><ele>786.0</ele><time>2026-03-28T09:28:57.999Z</time></trkpt><trkpt lat="44.71917237283774" lon="9.686727035458759"><ele>788.0</ele><time>2026-03-28T09:29:00.999Z</time></trkpt><trkpt lat="44.719117478181154" lon="9.686635185043997"><ele>790.0</ele><time>2026-03-28T09:29:03.999Z</time></trkpt><trkpt lat="44.71906232757229" lon="9.686546282747056"><ele>792.0</ele><time>2026-03-28T09:29:06.999Z</time></trkpt><trkpt lat="44.7190130695571" lon="9.686469908257303"><ele>792.0</ele><time>2026-03-28T09:29:09.999Z</time></trkpt><trkpt lat="44.718963148087674" lon="9.686397991113921"><ele>792.0</ele><time>2026-03-28T09:29:12.999Z</time></trkpt><trkpt lat="44.71891200498088" lon="9.68632950177965"><ele>792.0</ele><time>2026-03-28T09:29:15.999Z</time></trkpt><trkpt lat="44.71886400011977" lon="9.68624928504631"><ele>792.0</ele><time>2026-03-28T09:29:18.999Z</time></trkpt><trkpt lat="44.718816498232876" lon="9.686176696357407"><ele>792.0</ele><time>2026-03-28T09:29:21.999Z</time></trkpt><trkpt lat="44.71877380035682" lon="9.6861070099584"><ele>792.0</ele><time>2026-03-28T09:29:24.999Z</time></trkpt><trkpt lat="44.7187159935815" lon="9.686019256723752"><ele>792.0</ele><time>2026-03-28T09:29:28.999Z</time></trkpt><trkpt lat="44.7186716778238" lon="9.68595540669085"><ele>792.8333333333334</ele><time>2026-03-28T09:29:31.999Z</time></trkpt><trkpt lat="44.71861555188993" lon="9.685876377674136"><ele>793.6666666666667</ele><time>2026-03-28T09:29:35.999Z</time></trkpt><trkpt lat="44.71855483034993" lon="9.685797670841591"><ele>794.5</ele><time>2026-03-28T09:29:39.999Z</time></trkpt><trkpt lat="44.718490804134646" lon="9.685720128265297"><ele>795.3333333333334</ele><time>2026-03-28T09:29:43.998Z</time></trkpt><trkpt lat="44.71844393409629" lon="9.68565338367744"><ele>796.1666666666667</ele><time>2026-03-28T09:29:46.998Z</time></trkpt><trkpt lat="44.71841454615429" lon="9.685562568848797"><ele>797.0</ele><time>2026-03-28T09:29:49.998Z</time></trkpt><trkpt lat="44.71840774774238" lon="9.68545284883987"><ele>797.8333333333334</ele><time>2026-03-28T09:29:52.998Z</time></trkpt><trkpt lat="44.71840730628025" lon="9.685334999369969"><ele>798.6666666666667</ele><time>2026-03-28T09:29:55.998Z</time></trkpt><trkpt lat="44.718408849545355" lon="9.68520948617332"><ele>799.5</ele><time>2026-03-28T09:29:58.998Z</time></trkpt><trkpt lat="44.71841676714187" lon="9.68508727070522"><ele>800.3333333333333</ele><time>2026-03-28T09:30:01.998Z</time></trkpt><trkpt lat="44.71842476544039" lon="9.684969289087599"><ele>801.1666666666666</ele><time>2026-03-28T09:30:05Z</time></trkpt><trkpt lat="44.7184262551745" lon="9.684845887022412"><ele>802.0</ele><time>2026-03-28T09:30:09Z</time></trkpt><trkpt lat="44.71842986696905" lon="9.684718797469852"><ele>802.6666666666666</ele><time>2026-03-28T09:30:12Z</time></trkpt><trkpt lat="44.71843625203601" lon="9.684612487996969"><ele>803.3333333333333</ele><time>2026-03-28T09:30:15Z</time></trkpt><trkpt lat="44.718426521102295" lon="9.684512672805303"><ele>804.0</ele><time>2026-03-28T09:30:18Z</time></trkpt><trkpt lat="44.718426055747095" lon="9.684409565493345"><ele>804.6666666666667</ele><time>2026-03-28T09:30:21Z</time></trkpt><trkpt lat="44.71842865360899" lon="9.684300346168207"><ele>805.3333333333334</ele><time>2026-03-28T09:30:24Z</time></trkpt><trkpt lat="44.71842152136882" lon="9.684191387485209"><ele>806.0</ele><time>2026-03-28T09:30:27Z</time></trkpt><trkpt lat="44.718393401851614" lon="9.684089505435951"><ele>807.0000000000001</ele><time>2026-03-28T09:30:30Z</time></trkpt><trkpt lat="44.71834393051054" lon="9.684023428797493"><ele>808.0</ele><time>2026-03-28T09:30:33Z</time></trkpt><trkpt lat="44.71825303273313" lon="9.683976514525787"><ele>809.0</ele><time>2026-03-28T09:30:36Z</time></trkpt><trkpt lat="44.71817439056504" lon="9.683971523343505"><ele>810.0</ele><time>2026-03-28T09:30:39Z</time></trkpt><trkpt lat="44.71809006069552" lon="9.68396724084583"><ele>811.0000000000001</ele><time>2026-03-28T09:30:42Z</time></trkpt><trkpt lat="44.718008197512376" lon="9.683959410784405"><ele>812.0</ele><time>2026-03-28T09:30:45Z</time></trkpt><trkpt lat="44.71793349690606" lon="9.683949405583453"><ele>812.0</ele><time>2026-03-28T09:30:48Z</time></trkpt><trkpt lat="44.71785198156997" lon="9.683937643546487"><ele>812.0</ele><time>2026-03-28T09:30:51Z</time></trkpt><trkpt lat="44.71777548529718" lon="9.683917957599245"><ele>812.0</ele><time>2026-03-28T09:30:53.999Z</time></trkpt><trkpt lat="44.71770793767895" lon="9.683900513666746"><ele>812.0</ele><time>2026-03-28T09:30:55.999Z</time></trkpt><trkpt lat="44.71763109732553" lon="9.683880152906443"><ele>812.0</ele><time>2026-03-28T09:30:58.999Z</time></trkpt><trkpt lat="44.71755561217141" lon="9.68387098006438"><ele>812.0</ele><time>2026-03-28T09:31:01.999Z</time></trkpt><trkpt lat="44.717489557311126" lon="9.683860992823424"><ele>812.0</ele><time>2026-03-28T09:31:04.999Z</time></trkpt><trkpt lat="44.71742688761355" lon="9.683850532963591"><ele>812.3333333333334</ele><time>2026-03-28T09:31:06.999Z</time></trkpt><trkpt lat="44.717357982790574" lon="9.683834937170731"><ele>812.6666666666667</ele><time>2026-03-28T09:31:09.999Z</time></trkpt><trkpt lat="44.71728160284278" lon="9.683819068337664"><ele>813.0</ele><time>2026-03-28T09:31:12.999Z</time></trkpt><trkpt lat="44.71720297606607" lon="9.68379935492759"><ele>813.3333333333333</ele><time>2026-03-28T09:31:15.999Z</time></trkpt><trkpt lat="44.71712576709135" lon="9.683778024910664"><ele>813.6666666666666</ele><time>2026-03-28T09:31:18.999Z</time></trkpt><trkpt lat="44.71704764078678" lon="9.683746690497292"><ele>814.0</ele><time>2026-03-28T09:31:21.999Z</time></trkpt><trkpt lat="44.716971738068885" lon="9.683720932830331"><ele>814.6666666666666</ele><time>2026-03-28T09:31:24.999Z</time></trkpt><trkpt lat="44.716896537829136" lon="9.68369210705799"><ele>815.3333333333333</ele><time>2026-03-28T09:31:27.999Z</time></trkpt><trkpt lat="44.71681999987079" lon="9.68365898360047"><ele>816.0</ele><time>2026-03-28T09:31:30.999Z</time></trkpt><trkpt lat="44.71674545301292" lon="9.683626664002835"><ele>816.6666666666667</ele><time>2026-03-28T09:31:33.999Z</time></trkpt><trkpt lat="44.71666866021521" lon="9.683594286204102"><ele>817.3333333333334</ele><time>2026-03-28T09:31:36.999Z</time></trkpt><trkpt lat="44.71660000217712" lon="9.683573017462377"><ele>818.0</ele><time>2026-03-28T09:31:39.999Z</time></trkpt><trkpt lat="44.716519405585615" lon="9.6835452379399"><ele>819.2857142857142</ele><time>2026-03-28T09:31:42.999Z</time></trkpt><trkpt lat="44.71645009555483" lon="9.683522740944317"><ele>820.5714285714287</ele><time>2026-03-28T09:31:45.998Z</time></trkpt><trkpt lat="44.716384389510296" lon="9.683495710199708"><ele>821.8571428571429</ele><time>2026-03-28T09:31:48.998Z</time></trkpt><trkpt lat="44.71632097866703" lon="9.683454114380083"><ele>823.1428571428571</ele><time>2026-03-28T09:31:51.998Z</time></trkpt><trkpt lat="44.716265204238944" lon="9.68340028833569"><ele>824.4285714285713</ele><time>2026-03-28T09:31:54.998Z</time></trkpt><trkpt lat="44.71621525275744" lon="9.683330908354817"><ele>825.7142857142858</ele><time>2026-03-28T09:31:57.998Z</time></trkpt><trkpt lat="44.716161195110125" lon="9.683254266494071"><ele>827.0</ele><time>2026-03-28T09:32:00.998Z</time></trkpt><trkpt lat="44.716109577360825" lon="9.68315246626552"><ele>827.0</ele><time>2026-03-28T09:32:03.998Z</time></trkpt><trkpt lat="44.71607156830339" lon="9.683056475994901"><ele>827.0</ele><time>2026-03-28T09:32:06.998Z</time></trkpt><trkpt lat="44.716032892821495" lon="9.682967194696863"><ele>827.0</ele><time>2026-03-28T09:32:10Z</time></trkpt><trkpt lat="44.71599787691016" lon="9.682879946287985"><ele>827.0</ele><time>2026-03-28T09:32:13Z</time></trkpt><trkpt lat="44.71596709554075" lon="9.682786824496803"><ele>827.0</ele><time>2026-03-28T09:32:16Z</time></trkpt><trkpt lat="44.71593090590802" lon="9.682699790572496"><ele>827.0</ele><time>2026-03-28T09:32:19Z</time></trkpt><trkpt lat="44.71589991246377" lon="9.682614250331076"><ele>827.0</ele><time>2026-03-28T09:32:22Z</time></trkpt><trkpt lat="44.715871232430466" lon="9.682529876607735"><ele>829.0000000000001</ele><time>2026-03-28T09:32:25Z</time></trkpt><trkpt lat="44.71584029487074" lon="9.682445094936293"><ele>831.0</ele><time>2026-03-28T09:32:28Z</time></trkpt><trkpt lat="44.71581602769779" lon="9.682359354297382"><ele>833.0</ele><time>2026-03-28T09:32:31Z</time></trkpt><trkpt lat="44.71578473347371" lon="9.682271614058504"><ele>835.0</ele><time>2026-03-28T09:32:34Z</time></trkpt><trkpt lat="44.715753046869686" lon="9.682160735040053"><ele>837.0000000000001</ele><time>2026-03-28T09:32:38Z</time></trkpt><trkpt lat="44.715730839558304" lon="9.6820498652691"><ele>839.0</ele><time>2026-03-28T09:32:42Z</time></trkpt><trkpt lat="44.715698246260814" lon="9.681940002310448"><ele>840.8571428571428</ele><time>2026-03-28T09:32:46Z</time></trkpt><trkpt lat="44.71567245054766" lon="9.681844404583764"><ele>842.7142857142858</ele><time>2026-03-28T09:32:50Z</time></trkpt><trkpt lat="44.71564557946044" lon="9.681746643127264"><ele>844.5714285714286</ele><time>2026-03-28T09:32:54Z</time></trkpt><trkpt lat="44.71562197381122" lon="9.681653231089571"><ele>846.4285714285713</ele><time>2026-03-28T09:32:57.999Z</time></trkpt><trkpt lat="44.71557003983296" lon="9.681575932094448"><ele>848.2857142857142</ele><time>2026-03-28T09:33:01.999Z</time></trkpt><trkpt lat="44.715520780051655" lon="9.6815144527843"><ele>850.1428571428571</ele><time>2026-03-28T09:33:04.999Z</time></trkpt><trkpt lat="44.715464864667965" lon="9.6814717518945"><ele>852.0</ele><time>2026-03-28T09:33:07.999Z</time></trkpt><trkpt lat="44.715390809352314" lon="9.6814279382769"><ele>851.9999999999999</ele><time>2026-03-28T09:33:11.999Z</time></trkpt><trkpt lat="44.715319775946355" lon="9.681396284288745"><ele>852.0</ele><time>2026-03-28T09:33:15.999Z</time></trkpt><trkpt lat="44.7152551172724" lon="9.681365714782514"><ele>852.0</ele><time>2026-03-28T09:33:19.999Z</time></trkpt><trkpt lat="44.7151884099524" lon="9.681316762558817"><ele>852.0</ele><time>2026-03-28T09:33:23.999Z</time></trkpt><trkpt lat="44.715137409121276" lon="9.68124464232659"><ele>852.0</ele><time>2026-03-28T09:33:27.999Z</time></trkpt><trkpt lat="44.71511535849849" lon="9.681158678201921"><ele>851.9999999999999</ele><time>2026-03-28T09:33:31.999Z</time></trkpt><trkpt lat="44.71509223421825" lon="9.681064546922116"><ele>852.0</ele><time>2026-03-28T09:33:35.999Z</time></trkpt><trkpt lat="44.71507470000774" lon="9.680973369573962"><ele>852.9999999999999</ele><time>2026-03-28T09:33:39.999Z</time></trkpt><trkpt lat="44.71506416308813" lon="9.680876980266811"><ele>854.0</ele><time>2026-03-28T09:33:43.999Z</time></trkpt><trkpt lat="44.71505036309984" lon="9.680769078354148"><ele>855.0</ele><time>2026-03-28T09:33:47.999Z</time></trkpt><trkpt lat="44.715018677567585" lon="9.680667009240118"><ele>856.0</ele><time>2026-03-28T09:33:51.998Z</time></trkpt><trkpt lat="44.714964207043394" lon="9.680585106010597"><ele>857.0</ele><time>2026-03-28T09:33:55.998Z</time></trkpt><trkpt lat="44.71491536654429" lon="9.6805179802742"><ele>857.9999999999999</ele><time>2026-03-28T09:33:59.998Z</time></trkpt><trkpt lat="44.71486330159754" lon="9.680464349432759"><ele>859.0</ele><time>2026-03-28T09:34:02.998Z</time></trkpt><trkpt lat="44.71480590610894" lon="9.680406329710026"><ele>858.9999999999999</ele><time>2026-03-28T09:34:05.998Z</time></trkpt><trkpt lat="44.714734399060305" lon="9.680366468988474"><ele>859.0</ele><time>2026-03-28T09:34:09.998Z</time></trkpt><trkpt lat="44.714653161542174" lon="9.680346375946108"><ele>859.0</ele><time>2026-03-28T09:34:13.998Z</time></trkpt><trkpt lat="44.714582039533354" lon="9.680364847163302"><ele>859.0</ele><time>2026-03-28T09:34:18Z</time></trkpt><trkpt lat="44.714517870444325" lon="9.680363103814646"><ele>859.0</ele><time>2026-03-28T09:34:21Z</time></trkpt><trkpt lat="44.71444479727707" lon="9.68038180322886"><ele>858.9999999999999</ele><time>2026-03-28T09:34:25Z</time></trkpt><trkpt lat="44.714367282468174" lon="9.68040023759406"><ele>859.0</ele><time>2026-03-28T09:34:29Z</time></trkpt><trkpt lat="44.71430423542569" lon="9.680414527301497"><ele>860.4999999999999</ele><time>2026-03-28T09:34:32Z</time></trkpt><trkpt lat="44.714235948564564" lon="9.680429856526825"><ele>862.0</ele><time>2026-03-28T09:34:35Z</time></trkpt><trkpt lat="44.714155171639995" lon="9.680457910559236"><ele>863.5</ele><time>2026-03-28T09:34:39Z</time></trkpt><trkpt lat="44.71407745179758" lon="9.680498164265869"><ele>865.0</ele><time>2026-03-28T09:34:43Z</time></trkpt><trkpt lat="44.714003916353356" lon="9.680541511427625"><ele>866.4999999999999</ele><time>2026-03-28T09:34:47Z</time></trkpt><trkpt lat="44.7139346431098" lon="9.680563897538073"><ele>868.0</ele><time>2026-03-28T09:34:50Z</time></trkpt><trkpt lat="44.71386769816373" lon="9.680576346109815"><ele>868.0</ele><time>2026-03-28T09:34:53Z</time></trkpt><trkpt lat="44.71379537056417" lon="9.680567450310754"><ele>868.0</ele><time>2026-03-28T09:34:56Z</time></trkpt><trkpt lat="44.713721197191624" lon="9.680544941903845"><ele>868.0</ele><time>2026-03-28T09:34:59Z</time></trkpt><trkpt lat="44.71366439251859" lon="9.680494314471494"><ele>868.0</ele><time>2026-03-28T09:35:01.999Z</time></trkpt><trkpt lat="44.71361292233082" lon="9.680426433215555"><ele>868.0</ele><time>2026-03-28T09:35:04.999Z</time></trkpt><trkpt lat="44.71356869313261" lon="9.680347309286335"><ele>868.0</ele><time>2026-03-28T09:35:07.999Z</time></trkpt><trkpt lat="44.71351962388349" lon="9.680271568030433"><ele>868.0</ele><time>2026-03-28T09:35:10.999Z</time></trkpt><trkpt lat="44.71348684539161" lon="9.680186292860885"><ele>869.8571428571429</ele><time>2026-03-28T09:35:13.999Z</time></trkpt><trkpt lat="44.71346956574454" lon="9.680086232279052"><ele>871.7142857142858</ele><time>2026-03-28T09:35:16.999Z</time></trkpt><trkpt lat="44.713452555616854" lon="9.679989412425803"><ele>873.5714285714286</ele><time>2026-03-28T09:35:19.999Z</time></trkpt><trkpt lat="44.713456049811974" lon="9.679893500468145"><ele>875.4285714285714</ele><time>2026-03-28T09:35:22.999Z</time></trkpt><trkpt lat="44.71345689908137" lon="9.67980231082789"><ele>877.2857142857143</ele><time>2026-03-28T09:35:25.999Z</time></trkpt><trkpt lat="44.713461583103594" lon="9.679693090489575"><ele>879.1428571428571</ele><time>2026-03-28T09:35:29.999Z</time></trkpt><trkpt lat="44.71346448166822" lon="9.679593348878882"><ele>881.0</ele><time>2026-03-28T09:35:33.999Z</time></trkpt><trkpt lat="44.71347160259045" lon="9.679488227383604"><ele>882.5714285714286</ele><time>2026-03-28T09:35:37.999Z</time></trkpt><trkpt lat="44.71347685851881" lon="9.679391978149967"><ele>884.1428571428572</ele><time>2026-03-28T09:35:41.999Z</time></trkpt><trkpt lat="44.71349016264521" lon="9.679281800948553"><ele>885.7142857142858</ele><time>2026-03-28T09:35:45.999Z</time></trkpt><trkpt lat="44.71349105107034" lon="9.679186626807088"><ele>887.2857142857142</ele><time>2026-03-28T09:35:49.999Z</time></trkpt><trkpt lat="44.71346891704286" lon="9.679091724144815"><ele>888.8571428571429</ele><time>2026-03-28T09:35:53.999Z</time></trkpt><trkpt lat="44.713433674060035" lon="9.679012712611124"><ele>890.4285714285714</ele><time>2026-03-28T09:35:56.998Z</time></trkpt><trkpt lat="44.71339332290733" lon="9.678932836595719"><ele>892.0</ele><time>2026-03-28T09:36:01.998Z</time></trkpt><trkpt lat="44.71335673278648" lon="9.678855931620168"><ele>892.0</ele><time>2026-03-28T09:36:05.998Z</time></trkpt><trkpt lat="44.71333116812271" lon="9.678762332016783"><ele>892.0</ele><time>2026-03-28T09:36:08.998Z</time></trkpt><trkpt lat="44.71333337248773" lon="9.678650266212337"><ele>892.0</ele><time>2026-03-28T09:36:12.998Z</time></trkpt><trkpt lat="44.71336704727896" lon="9.678563262878827"><ele>892.0</ele><time>2026-03-28T09:36:16.998Z</time></trkpt><trkpt lat="44.71341893489833" lon="9.678499517931247"><ele>892.0</ele><time>2026-03-28T09:36:20.998Z</time></trkpt><trkpt lat="44.71349600796918" lon="9.678480108231675"><ele>892.0</ele><time>2026-03-28T09:36:26Z</time></trkpt><trkpt lat="44.713563547411184" lon="9.678479078365699"><ele>892.0</ele><time>2026-03-28T09:36:30Z</time></trkpt><trkpt lat="44.713628667470495" lon="9.678476411488994"><ele>893.9999999999999</ele><time>2026-03-28T09:36:34Z</time></trkpt><trkpt lat="44.713708185830015" lon="9.67848579046296"><ele>896.0</ele><time>2026-03-28T09:36:38Z</time></trkpt><trkpt lat="44.71379217042122" lon="9.678493196259533"><ele>898.0</ele><time>2026-03-28T09:36:42Z</time></trkpt><trkpt lat="44.71386902570866" lon="9.678484055124922"><ele>900.0</ele><time>2026-03-28T09:36:46Z</time></trkpt><trkpt lat="44.713949532708924" lon="9.678466911599383"><ele>901.9999999999999</ele><time>2026-03-28T09:36:50Z</time></trkpt><trkpt lat="44.714010487993086" lon="9.678439605976028"><ele>904.0</ele><time>2026-03-28T09:36:53Z</time></trkpt><trkpt lat="44.71408178094488" lon="9.678381289591934"><ele>904.0</ele><time>2026-03-28T09:36:57Z</time></trkpt><trkpt lat="44.714138694803324" lon="9.678318465363544"><ele>904.0</ele><time>2026-03-28T09:37:01Z</time></trkpt><trkpt lat="44.71418486656043" lon="9.678254473788325"><ele>904.0</ele><time>2026-03-28T09:37:04Z</time></trkpt><trkpt lat="44.71422639180469" lon="9.678169977156237"><ele>904.0</ele><time>2026-03-28T09:37:06.999Z</time></trkpt><trkpt lat="44.71425329471853" lon="9.678066849483812"><ele>904.0</ele><time>2026-03-28T09:37:10.999Z</time></trkpt><trkpt lat="44.7142695669166" lon="9.67795697190438"><ele>904.0</ele><time>2026-03-28T09:37:14.999Z</time></trkpt><trkpt lat="44.71426989369141" lon="9.677842499458531"><ele>904.0</ele><time>2026-03-28T09:37:18.999Z</time></trkpt><trkpt lat="44.71425996817246" lon="9.677730622240183"><ele>905.8571428571429</ele><time>2026-03-28T09:37:22.999Z</time></trkpt><trkpt lat="44.71424843324306" lon="9.677618127934931"><ele>907.7142857142857</ele><time>2026-03-28T09:37:26.999Z</time></trkpt><trkpt lat="44.714233544328586" lon="9.67753016118323"><ele>909.5714285714286</ele><time>2026-03-28T09:37:29.999Z</time></trkpt><trkpt lat="44.7142195800894" lon="9.677441306886925"><ele>911.4285714285714</ele><time>2026-03-28T09:37:32.999Z</time></trkpt><trkpt lat="44.7141912489835" lon="9.677330993658192"><ele>913.2857142857142</ele><time>2026-03-28T09:37:36.999Z</time></trkpt><trkpt lat="44.7141533570539" lon="9.67725820404398"><ele>915.1428571428571</ele><time>2026-03-28T09:37:39.999Z</time></trkpt><trkpt lat="44.71408952125356" lon="9.677196154195457"><ele>917.0</ele><time>2026-03-28T09:37:43.999Z</time></trkpt><trkpt lat="44.714029369052696" lon="9.67715696407891"><ele>917.0000000000001</ele><time>2026-03-28T09:37:46.999Z</time></trkpt><trkpt lat="44.71395437961606" lon="9.677122783036253"><ele>917.0</ele><time>2026-03-28T09:37:50.999Z</time></trkpt><trkpt lat="44.71387315077218" lon="9.67709156703219"><ele>917.0</ele><time>2026-03-28T09:37:54.999Z</time></trkpt><trkpt lat="44.71379010307627" lon="9.677076114268088"><ele>917.0</ele><time>2026-03-28T09:37:58.999Z</time></trkpt><trkpt lat="44.71371272944564" lon="9.677050180597035"><ele>917.0000000000001</ele><time>2026-03-28T09:38:02.998Z</time></trkpt><trkpt lat="44.71365494882934" lon="9.677010665920003"><ele>917.0</ele><time>2026-03-28T09:38:05.998Z</time></trkpt><trkpt lat="44.7136014625725" lon="9.676960726356112"><ele>918.8333333333334</ele><time>2026-03-28T09:38:08.998Z</time></trkpt><trkpt lat="44.71354326431253" lon="9.67688441131968"><ele>920.6666666666667</ele><time>2026-03-28T09:38:12.998Z</time></trkpt><trkpt lat="44.713486257125886" lon="9.676811210698554"><ele>922.5</ele><time>2026-03-28T09:38:16.998Z</time></trkpt><trkpt lat="44.71342501507948" lon="9.676732123577533"><ele>924.3333333333333</ele><time>2026-03-28T09:38:20.998Z</time></trkpt><trkpt lat="44.7133725302005" lon="9.676645714337315"><ele>926.1666666666666</ele><time>2026-03-28T09:38:24.998Z</time></trkpt><trkpt lat="44.71332829147118" lon="9.676582516709463"><ele>928.0</ele><time>2026-03-28T09:38:28Z</time></trkpt><trkpt lat="44.71328086954414" lon="9.67651486326467"><ele>928.0000000000001</ele><time>2026-03-28T09:38:31Z</time></trkpt><trkpt lat="44.71323167905408" lon="9.676444677692944"><ele>928.0</ele><time>2026-03-28T09:38:34Z</time></trkpt><trkpt lat="44.713176150667415" lon="9.676385415067466"><ele>928.0000000000001</ele><time>2026-03-28T09:38:37Z</time></trkpt><trkpt lat="44.713126195037745" lon="9.676323462122255"><ele>928.0000000000001</ele><time>2026-03-28T09:38:40Z</time></trkpt><trkpt lat="44.71307608193266" lon="9.676263471432529"><ele>928.0</ele><time>2026-03-28T09:38:43Z</time></trkpt><trkpt lat="44.713029812009985" lon="9.676201747561354"><ele>928.0000000000001</ele><time>2026-03-28T09:38:46Z</time></trkpt><trkpt lat="44.712974703371145" lon="9.67611202425078"><ele>928.0000000000001</ele><time>2026-03-28T09:38:50Z</time></trkpt><trkpt lat="44.71293959132361" lon="9.676008104396987"><ele>929.5714285714287</ele><time>2026-03-28T09:38:54Z</time></trkpt><trkpt lat="44.7129194781098" lon="9.675896152320123"><ele>931.1428571428571</ele><time>2026-03-28T09:38:58Z</time></trkpt><trkpt lat="44.712924648157006" lon="9.675794367297012"><ele>932.7142857142858</ele><time>2026-03-28T09:39:02Z</time></trkpt><trkpt lat="44.71296485680068" lon="9.675707031625672"><ele>934.2857142857143</ele><time>2026-03-28T09:39:06Z</time></trkpt><trkpt lat="44.713028930200196" lon="9.675657540050974"><ele>935.8571428571429</ele><time>2026-03-28T09:39:09.999Z</time></trkpt><trkpt lat="44.71309017511991" lon="9.675606054967885"><ele>937.4285714285714</ele><time>2026-03-28T09:39:13.999Z</time></trkpt><trkpt lat="44.7131558965553" lon="9.67556201695457"><ele>939.0</ele><time>2026-03-28T09:39:17.999Z</time></trkpt><trkpt lat="44.71322273457572" lon="9.675524556578305"><ele>939.0</ele><time>2026-03-28T09:39:21.999Z</time></trkpt><trkpt lat="44.71329487089871" lon="9.675480341232138"><ele>939.0</ele><time>2026-03-28T09:39:26.999Z</time></trkpt><trkpt lat="44.71336170078062" lon="9.675433768346656"><ele>939.0</ele><time>2026-03-28T09:39:30.999Z</time></trkpt><trkpt lat="44.71342159855577" lon="9.675386132283728"><ele>939.0</ele><time>2026-03-28T09:39:34.999Z</time></trkpt><trkpt lat="44.71348829238429" lon="9.675353536616068"><ele>939.0</ele><time>2026-03-28T09:39:38.999Z</time></trkpt><trkpt lat="44.713556777305875" lon="9.675324462671176"><ele>939.0</ele><time>2026-03-28T09:39:42.999Z</time></trkpt><trkpt lat="44.71362026857833" lon="9.67531744215335"><ele>939.0</ele><time>2026-03-28T09:39:45.999Z</time></trkpt><trkpt lat="44.713696038587926" lon="9.675334303796797"><ele>939.6666666666666</ele><time>2026-03-28T09:39:49.999Z</time></trkpt><trkpt lat="44.713775188274795" lon="9.675347831477287"><ele>940.3333333333333</ele><time>2026-03-28T09:39:53.999Z</time></trkpt><trkpt lat="44.71384728979108" lon="9.67536343070857"><ele>941.0</ele><time>2026-03-28T09:39:57.999Z</time></trkpt><trkpt lat="44.7139107953583" lon="9.675383831178507"><ele>941.6666666666666</ele><time>2026-03-28T09:40:00.999Z</time></trkpt><trkpt lat="44.713987095118654" lon="9.675388246512918"><ele>942.3333333333333</ele><time>2026-03-28T09:40:04.998Z</time></trkpt><trkpt lat="44.71407031677465" lon="9.675366293391125"><ele>943.0</ele><time>2026-03-28T09:40:08.998Z</time></trkpt><trkpt lat="44.714145161946995" lon="9.675311355750308"><ele>944.5714285714287</ele><time>2026-03-28T09:40:12.998Z</time></trkpt><trkpt lat="44.714200582248296" lon="9.675256880020779"><ele>946.1428571428572</ele><time>2026-03-28T09:40:15.998Z</time></trkpt><trkpt lat="44.71421129691254" lon="9.675164256794709"><ele>947.7142857142858</ele><time>2026-03-28T09:40:18.998Z</time></trkpt><trkpt lat="44.71420702430187" lon="9.67506403661538"><ele>949.2857142857142</ele><time>2026-03-28T09:40:21.998Z</time></trkpt><trkpt lat="44.714185582276045" lon="9.674973366094713"><ele>950.8571428571428</ele><time>2026-03-28T09:40:24.998Z</time></trkpt><trkpt lat="44.71414549275997" lon="9.674889993424072"><ele>952.4285714285713</ele><time>2026-03-28T09:40:27.998Z</time></trkpt><trkpt lat="44.71411204769066" lon="9.674802585572312"><ele>954.0</ele><time>2026-03-28T09:40:30.998Z</time></trkpt><trkpt lat="44.71406101132486" lon="9.674718942517769"><ele>954.0</ele><time>2026-03-28T09:40:34Z</time></trkpt><trkpt lat="44.714003007283345" lon="9.674648088684755"><ele>954.0</ele><time>2026-03-28T09:40:37Z</time></trkpt><trkpt lat="44.71394180631549" lon="9.674580453356297"><ele>954.0</ele><time>2026-03-28T09:40:40Z</time></trkpt><trkpt lat="44.713879307907874" lon="9.674515226132803"><ele>954.0</ele><time>2026-03-28T09:40:43Z</time></trkpt><trkpt lat="44.713819670997644" lon="9.674470798426407"><ele>954.0</ele><time>2026-03-28T09:40:46Z</time></trkpt><trkpt lat="44.71375813298234" lon="9.674426289612272"><ele>954.0</ele><time>2026-03-28T09:40:49Z</time></trkpt><trkpt lat="44.71368079690502" lon="9.674375672927345"><ele>955.8571428571428</ele><time>2026-03-28T09:40:53Z</time></trkpt><trkpt lat="44.71362064636642" lon="9.674340012400284"><ele>957.7142857142856</ele><time>2026-03-28T09:40:56Z</time></trkpt><trkpt lat="44.7135401230668" lon="9.674300991689583"><ele>959.5714285714286</ele><time>2026-03-28T09:41:01Z</time></trkpt><trkpt lat="44.71346806783986" lon="9.674267795543365"><ele>961.4285714285713</ele><time>2026-03-28T09:41:05Z</time></trkpt><trkpt lat="44.713410284448656" lon="9.674223219565832"><ele>963.2857142857142</ele><time>2026-03-28T09:41:08Z</time></trkpt><trkpt lat="44.713351492759536" lon="9.674186712625826"><ele>965.1428571428571</ele><time>2026-03-28T09:41:11Z</time></trkpt><trkpt lat="44.713294026781455" lon="9.674137694488325"><ele>967.0</ele><time>2026-03-28T09:41:14Z</time></trkpt><trkpt lat="44.713225298990984" lon="9.674078063869349"><ele>966.9999999999999</ele><time>2026-03-28T09:41:18Z</time></trkpt><trkpt lat="44.713152133191244" lon="9.674022672938559"><ele>967.0</ele><time>2026-03-28T09:41:21.999Z</time></trkpt><trkpt lat="44.71309103627176" lon="9.673959785443278"><ele>967.0</ele><time>2026-03-28T09:41:25.999Z</time></trkpt><trkpt lat="44.7130347614676" lon="9.673898651235508"><ele>967.0</ele><time>2026-03-28T09:41:29.999Z</time></trkpt><trkpt lat="44.71297978744531" lon="9.673821355859474"><ele>966.9999999999999</ele><time>2026-03-28T09:41:33.999Z</time></trkpt><trkpt lat="44.71294841022002" lon="9.673720371963316"><ele>967.0</ele><time>2026-03-28T09:41:37.999Z</time></trkpt><trkpt lat="44.71291146911552" lon="9.673610131990614"><ele>969.4999999999999</ele><time>2026-03-28T09:41:41.999Z</time></trkpt><trkpt lat="44.71288820589338" lon="9.673496789777252"><ele>972.0</ele><time>2026-03-28T09:41:45.999Z</time></trkpt><trkpt lat="44.712874074812525" lon="9.673390163612869"><ele>974.5</ele><time>2026-03-28T09:41:49.999Z</time></trkpt><trkpt lat="44.71285600230459" lon="9.673280531696577"><ele>977.0</ele><time>2026-03-28T09:41:53.999Z</time></trkpt><trkpt lat="44.71286018363703" lon="9.673179879819944"><ele>979.4999999999999</ele><time>2026-03-28T09:41:57.999Z</time></trkpt><trkpt lat="44.71285852953976" lon="9.67308787740988"><ele>982.0</ele><time>2026-03-28T09:42:00.999Z</time></trkpt><trkpt lat="44.712880841125056" lon="9.672983456654652"><ele>982.0</ele><time>2026-03-28T09:42:04.999Z</time></trkpt><trkpt lat="44.71290213830021" lon="9.672882477512324"><ele>981.9999999999999</ele><time>2026-03-28T09:42:08.999Z</time></trkpt><trkpt lat="44.71291969528208" lon="9.672780112451079"><ele>982.0</ele><time>2026-03-28T09:42:12.999Z</time></trkpt><trkpt lat="44.712957788534766" lon="9.672687806360072"><ele>982.0</ele><time>2026-03-28T09:42:16.998Z</time></trkpt><trkpt lat="44.71299283017593" lon="9.672602605598875"><ele>981.9999999999999</ele><time>2026-03-28T09:42:20.998Z</time></trkpt><trkpt lat="44.71304176232033" lon="9.672526686257404"><ele>982.0</ele><time>2026-03-28T09:42:24.998Z</time></trkpt><trkpt lat="44.71309259088678" lon="9.67245668177049"><ele>982.0</ele><time>2026-03-28T09:42:28.998Z</time></trkpt><trkpt lat="44.71315013566222" lon="9.672397129446404"><ele>982.8571428571428</ele><time>2026-03-28T09:42:32.998Z</time></trkpt><trkpt lat="44.713207755975674" lon="9.672337743860945"><ele>983.7142857142856</ele><time>2026-03-28T09:42:36.998Z</time></trkpt><trkpt lat="44.713269133150064" lon="9.672306915889845"><ele>984.5714285714286</ele><time>2026-03-28T09:42:40Z</time></trkpt><trkpt lat="44.713334360955656" lon="9.67228969133123"><ele>985.4285714285713</ele><time>2026-03-28T09:42:43Z</time></trkpt><trkpt lat="44.71340194809459" lon="9.67229341785125"><ele>986.2857142857142</ele><time>2026-03-28T09:42:46Z</time></trkpt><trkpt lat="44.71346989321661" lon="9.672307126579577"><ele>987.1428571428571</ele><time>2026-03-28T09:42:49Z</time></trkpt><trkpt lat="44.71354084764168" lon="9.672321141676678"><ele>988.0</ele><time>2026-03-28T09:42:52Z</time></trkpt><trkpt lat="44.713615715516895" lon="9.672337253826626"><ele>988.5714285714287</ele><time>2026-03-28T09:42:55Z</time></trkpt><trkpt lat="44.713686078055005" lon="9.67235965509234"><ele>989.1428571428571</ele><time>2026-03-28T09:42:58Z</time></trkpt><trkpt lat="44.713750262460955" lon="9.672373504983556"><ele>989.7142857142858</ele><time>2026-03-28T09:43:01Z</time></trkpt><trkpt lat="44.713834145381995" lon="9.672384441014017"><ele>990.2857142857143</ele><time>2026-03-28T09:43:05Z</time></trkpt><trkpt lat="44.71390548823475" lon="9.672385820074819"><ele>990.8571428571429</ele><time>2026-03-28T09:43:08Z</time></trkpt><trkpt lat="44.713986975319855" lon="9.672389167633524"><ele>991.4285714285714</ele><time>2026-03-28T09:43:11Z</time></trkpt><trkpt lat="44.714054697335406" lon="9.672371895769665"><ele>992.0</ele><time>2026-03-28T09:43:14Z</time></trkpt><trkpt lat="44.71412140430918" lon="9.672355867597759"><ele>992.0</ele><time>2026-03-28T09:43:17Z</time></trkpt><trkpt lat="44.714181674199025" lon="9.6723249638034"><ele>992.0000000000001</ele><time>2026-03-28T09:43:20Z</time></trkpt><trkpt lat="44.71425599561584" lon="9.672290223589618"><ele>992.0</ele><time>2026-03-28T09:43:24Z</time></trkpt><trkpt lat="44.714322365762534" lon="9.672257033533949"><ele>992.0</ele><time>2026-03-28T09:43:26.999Z</time></trkpt><trkpt lat="44.714396706930216" lon="9.672224855369913"><ele>992.0000000000001</ele><time>2026-03-28T09:43:29.999Z</time></trkpt><trkpt lat="44.71446484063922" lon="9.672182070639295"><ele>992.0</ele><time>2026-03-28T09:43:33.999Z</time></trkpt><trkpt lat="44.71452990775355" lon="9.672158611065747"><ele>992.0</ele><time>2026-03-28T09:43:36.999Z</time></trkpt><trkpt lat="44.714607939528285" lon="9.672114596944072"><ele>992.7142857142858</ele><time>2026-03-28T09:43:39.999Z</time></trkpt><trkpt lat="44.71466823997287" lon="9.672088731436551"><ele>993.4285714285716</ele><time>2026-03-28T09:43:42.999Z</time></trkpt><trkpt lat="44.71473541771971" lon="9.672062992742434"><ele>994.1428571428571</ele><time>2026-03-28T09:43:45.999Z</time></trkpt><trkpt lat="44.71481988163884" lon="9.672041124372672"><ele>994.8571428571429</ele><time>2026-03-28T09:43:49.999Z</time></trkpt><trkpt lat="44.71488311649444" lon="9.67202948988918"><ele>995.5714285714286</ele><time>2026-03-28T09:43:52.999Z</time></trkpt><trkpt lat="44.71494763689887" lon="9.672019147033355"><ele>996.2857142857142</ele><time>2026-03-28T09:43:55.999Z</time></trkpt><trkpt lat="44.71502793761604" lon="9.672017278906008"><ele>996.9999999999999</ele><time>2026-03-28T09:43:59.999Z</time></trkpt><trkpt lat="44.71510396647787" lon="9.672007850272834"><ele>996.9999999999999</ele><time>2026-03-28T09:44:03.999Z</time></trkpt><trkpt lat="44.71517903908957" lon="9.672005516946609"><ele>997.0</ele><time>2026-03-28T09:44:07.999Z</time></trkpt><trkpt lat="44.715254693224566" lon="9.672002858321058"><ele>997.0</ele><time>2026-03-28T09:44:11.999Z</time></trkpt><trkpt lat="44.7153303084574" lon="9.671993268411"><ele>997.0</ele><time>2026-03-28T09:44:15.999Z</time></trkpt><trkpt lat="44.715412526447665" lon="9.671994769806002"><ele>996.9999999999999</ele><time>2026-03-28T09:44:19.998Z</time></trkpt><trkpt lat="44.715479820514815" lon="9.671967295944185"><ele>997.0</ele><time>2026-03-28T09:44:23.998Z</time></trkpt><trkpt lat="44.71554936041174" lon="9.671902573977967"><ele>999.4285714285713</ele><time>2026-03-28T09:44:27.998Z</time></trkpt><trkpt lat="44.715592451208614" lon="9.671808979159513"><ele>1001.8571428571429</ele><time>2026-03-28T09:44:31.998Z</time></trkpt><trkpt lat="44.715632105019594" lon="9.671727380724075"><ele>1004.2857142857142</ele><time>2026-03-28T09:44:35.998Z</time></trkpt><trkpt lat="44.715662782897326" lon="9.671636879662596"><ele>1006.7142857142857</ele><time>2026-03-28T09:44:38.998Z</time></trkpt><trkpt lat="44.715706159858215" lon="9.671566914936616"><ele>1009.1428571428571</ele><time>2026-03-28T09:44:41.998Z</time></trkpt><trkpt lat="44.715765644530435" lon="9.671508312210463"><ele>1011.5714285714286</ele><time>2026-03-28T09:44:46Z</time></trkpt><trkpt lat="44.71581192115143" lon="9.671426599380766"><ele>1014.0</ele><time>2026-03-28T09:44:50Z</time></trkpt><trkpt lat="44.71585784585292" lon="9.671347245170724"><ele>1014.0</ele><time>2026-03-28T09:44:54Z</time></trkpt><trkpt lat="44.7158896802529" lon="9.671256365209205"><ele>1014.0</ele><time>2026-03-28T09:44:58Z</time></trkpt><trkpt lat="44.7159164354647" lon="9.671167908107048"><ele>1014.0</ele><time>2026-03-28T09:45:02Z</time></trkpt><trkpt lat="44.71594783956828" lon="9.671063465503352"><ele>1014.0</ele><time>2026-03-28T09:45:06Z</time></trkpt><trkpt lat="44.71598218326127" lon="9.670964226287555"><ele>1014.0</ele><time>2026-03-28T09:45:10Z</time></trkpt><trkpt lat="44.716017405752446" lon="9.670875565462612"><ele>1014.0</ele><time>2026-03-28T09:45:14Z</time></trkpt><trkpt lat="44.716060281662806" lon="9.670780727742828"><ele>1016.3333333333334</ele><time>2026-03-28T09:45:18Z</time></trkpt><trkpt lat="44.716100227474136" lon="9.670678208982345"><ele>1018.6666666666667</ele><time>2026-03-28T09:45:22Z</time></trkpt><trkpt lat="44.71614890750766" lon="9.670592030024295"><ele>1021.0</ele><time>2026-03-28T09:45:26Z</time></trkpt><trkpt lat="44.71620191459079" lon="9.670516854104841"><ele>1023.3333333333334</ele><time>2026-03-28T09:45:29.999Z</time></trkpt><trkpt lat="44.71626892366654" lon="9.670464030228755"><ele>1025.6666666666667</ele><time>2026-03-28T09:45:33.999Z</time></trkpt><trkpt lat="44.716335432168236" lon="9.67041425556372"><ele>1028.0</ele><time>2026-03-28T09:45:37.999Z</time></trkpt><trkpt lat="44.716409765183364" lon="9.670377243238427"><ele>1028.0</ele><time>2026-03-28T09:45:41.999Z</time></trkpt><trkpt lat="44.71648521407481" lon="9.67034438584053"><ele>1028.0</ele><time>2026-03-28T09:45:45.999Z</time></trkpt><trkpt lat="44.71656564087488" lon="9.670321908597607"><ele>1028.0</ele><time>2026-03-28T09:45:49.999Z</time></trkpt><trkpt lat="44.71664494911376" lon="9.670332839244873"><ele>1028.0</ele><time>2026-03-28T09:45:53.999Z</time></trkpt><trkpt lat="44.71671676702353" lon="9.670349732671562"><ele>1028.0</ele><time>2026-03-28T09:45:57.999Z</time></trkpt><trkpt lat="44.716790826314046" lon="9.670361743157544"><ele>1028.0</ele><time>2026-03-28T09:46:01.999Z</time></trkpt><trkpt lat="44.7168640615351" lon="9.670380153928534"><ele>1029.5</ele><time>2026-03-28T09:46:05.999Z</time></trkpt><trkpt lat="44.71694421133522" lon="9.670383057363411"><ele>1031.0</ele><time>2026-03-28T09:46:09.999Z</time></trkpt><trkpt lat="44.71702092615751" lon="9.67039467833735"><ele>1032.5</ele><time>2026-03-28T09:46:13.999Z</time></trkpt><trkpt lat="44.717102797415805" lon="9.670370005726816"><ele>1034.0</ele><time>2026-03-28T09:46:17.999Z</time></trkpt><trkpt lat="44.717174607707676" lon="9.670369156420215"><ele>1035.5</ele><time>2026-03-28T09:46:21.999Z</time></trkpt><trkpt lat="44.71725014889848" lon="9.670370039756637"><ele>1037.0</ele><time>2026-03-28T09:46:25.998Z</time></trkpt><trkpt lat="44.71731734322283" lon="9.670371729437358"><ele>1037.0</ele><time>2026-03-28T09:46:29.998Z</time></trkpt><trkpt lat="44.717401883089146" lon="9.670370635720237"><ele>1037.0</ele><time>2026-03-28T09:46:33.998Z</time></trkpt><trkpt lat="44.71748090107969" lon="9.670369077835069"><ele>1037.0</ele><time>2026-03-28T09:46:37.998Z</time></trkpt><trkpt lat="44.71754744583632" lon="9.670386978755184"><ele>1037.0</ele><time>2026-03-28T09:46:40.998Z</time></trkpt><trkpt lat="44.717610926077604" lon="9.67043057779131"><ele>1037.0</ele><time>2026-03-28T09:46:43.998Z</time></trkpt><trkpt lat="44.717672705577925" lon="9.670485135502114"><ele>1037.0</ele><time>2026-03-28T09:46:47.998Z</time></trkpt><trkpt lat="44.71772556552604" lon="9.670541605380063"><ele>1037.0</ele><time>2026-03-28T09:46:51Z</time></trkpt><trkpt lat="44.71777883807542" lon="9.670606372380007"><ele>1039.5</ele><time>2026-03-28T09:46:54Z</time></trkpt><trkpt lat="44.71783228967239" lon="9.670663359419674"><ele>1042.0</ele><time>2026-03-28T09:46:57Z</time></trkpt><trkpt lat="44.717890908700916" lon="9.670725438375626"><ele>1044.5</ele><time>2026-03-28T09:47:00Z</time></trkpt><trkpt lat="44.71795009073236" lon="9.670792105762187"><ele>1047.0</ele><time>2026-03-28T09:47:03Z</time></trkpt><trkpt lat="44.71802273722072" lon="9.670845214210924"><ele>1049.5</ele><time>2026-03-28T09:47:07Z</time></trkpt><trkpt lat="44.71810013015812" lon="9.670876213673102"><ele>1052.0</ele><time>2026-03-28T09:47:11Z</time></trkpt><trkpt lat="44.718178974280576" lon="9.670885387259993"><ele>1052.0</ele><time>2026-03-28T09:47:15Z</time></trkpt><trkpt lat="44.71825290206487" lon="9.670894745388752"><ele>1052.0</ele><time>2026-03-28T09:47:19Z</time></trkpt><trkpt lat="44.718326183570014" lon="9.670882171810943"><ele>1052.0</ele><time>2026-03-28T09:47:23Z</time></trkpt><trkpt lat="44.718396017465416" lon="9.670858018490938"><ele>1052.0</ele><time>2026-03-28T09:47:27Z</time></trkpt><trkpt lat="44.71846415721183" lon="9.670823921207989"><ele>1052.0</ele><time>2026-03-28T09:47:31Z</time></trkpt><trkpt lat="44.71853241945912" lon="9.670783914253557"><ele>1052.0</ele><time>2026-03-28T09:47:34.999Z</time></trkpt><trkpt lat="44.71858900642603" lon="9.670728599537147"><ele>1052.0</ele><time>2026-03-28T09:47:38.999Z</time></trkpt><trkpt lat="44.71864268651818" lon="9.670646928995597"><ele>1053.6666666666667</ele><time>2026-03-28T09:47:42.999Z</time></trkpt><trkpt lat="44.71865926545675" lon="9.670535841524595"><ele>1055.3333333333335</ele><time>2026-03-28T09:47:46.999Z</time></trkpt><trkpt lat="44.718630782915426" lon="9.670449308772367"><ele>1057.0</ele><time>2026-03-28T09:47:50.999Z</time></trkpt><trkpt lat="44.718597218373866" lon="9.67035619856702"><ele>1058.6666666666667</ele><time>2026-03-28T09:47:54.999Z</time></trkpt><trkpt lat="44.71856659527791" lon="9.670269098018982"><ele>1060.3333333333333</ele><time>2026-03-28T09:47:58.999Z</time></trkpt><trkpt lat="44.71853129578448" lon="9.670170022306044"><ele>1062.0</ele><time>2026-03-28T09:48:02.999Z</time></trkpt><trkpt lat="44.718503791365585" lon="9.670061625887534"><ele>1062.4285714285716</ele><time>2026-03-28T09:48:06.999Z</time></trkpt><trkpt lat="44.71847258940601" lon="9.669983769895511"><ele>1062.857142857143</ele><time>2026-03-28T09:48:09.999Z</time></trkpt><trkpt lat="44.71842498808013" lon="9.669890623099514"><ele>1063.2857142857142</ele><time>2026-03-28T09:48:13.999Z</time></trkpt><trkpt lat="44.71837043636828" lon="9.66980105335899"><ele>1063.7142857142858</ele><time>2026-03-28T09:48:17.999Z</time></trkpt><trkpt lat="44.71832551724654" lon="9.669738389465598"><ele>1064.142857142857</ele><time>2026-03-28T09:48:20.999Z</time></trkpt><trkpt lat="44.718282151215064" lon="9.669668599925595"><ele>1064.5714285714287</ele><time>2026-03-28T09:48:23.999Z</time></trkpt><trkpt lat="44.718237544211604" lon="9.669577508189336"><ele>1065.0</ele><time>2026-03-28T09:48:27.998Z</time></trkpt><trkpt lat="44.71819676554862" lon="9.669506793118495"><ele>1067.142857142857</ele><time>2026-03-28T09:48:30.998Z</time></trkpt><trkpt lat="44.7181564382427" lon="9.669431786959214"><ele>1069.2857142857142</ele><time>2026-03-28T09:48:33.998Z</time></trkpt><trkpt lat="44.71812220160983" lon="9.669352065755596"><ele>1071.4285714285713</ele><time>2026-03-28T09:48:36.998Z</time></trkpt><trkpt lat="44.71807897332992" lon="9.669276168262764"><ele>1073.5714285714284</ele><time>2026-03-28T09:48:39.998Z</time></trkpt><trkpt lat="44.718023514904324" lon="9.669200784987515"><ele>1075.7142857142856</ele><time>2026-03-28T09:48:42.998Z</time></trkpt><trkpt lat="44.71797300459635" lon="9.669137592502352"><ele>1077.857142857143</ele><time>2026-03-28T09:48:45.998Z</time></trkpt><trkpt lat="44.71790408340376" lon="9.669076833167844"><ele>1080.0</ele><time>2026-03-28T09:48:49.998Z</time></trkpt><trkpt lat="44.717845728737394" lon="9.669028735638484"><ele>1080.0</ele><time>2026-03-28T09:48:52.998Z</time></trkpt><trkpt lat="44.717778816383095" lon="9.668980091076637"><ele>1080.0</ele><time>2026-03-28T09:48:55.998Z</time></trkpt><trkpt lat="44.71772100799214" lon="9.668938973233447"><ele>1080.0</ele><time>2026-03-28T09:48:59Z</time></trkpt><trkpt lat="44.71766058171281" lon="9.66889986325003"><ele>1080.0</ele><time>2026-03-28T09:49:02Z</time></trkpt><trkpt lat="44.71758972838138" lon="9.668836812258572"><ele>1080.0</ele><time>2026-03-28T09:49:06Z</time></trkpt><trkpt lat="44.717526710423954" lon="9.668773449408606"><ele>1080.0</ele><time>2026-03-28T09:49:10Z</time></trkpt><trkpt lat="44.717479318182825" lon="9.668682665789742"><ele>1080.0</ele><time>2026-03-28T09:49:14Z</time></trkpt><trkpt lat="44.717427009005554" lon="9.668600022167679"><ele>1080.857142857143</ele><time>2026-03-28T09:49:18Z</time></trkpt><trkpt lat="44.71738494182878" lon="9.668533393512693"><ele>1081.7142857142856</ele><time>2026-03-28T09:49:21Z</time></trkpt><trkpt lat="44.71734795049201" lon="9.668459817317233"><ele>1082.5714285714284</ele><time>2026-03-28T09:49:24Z</time></trkpt><trkpt lat="44.71731381762999" lon="9.66837560165916"><ele>1083.4285714285713</ele><time>2026-03-28T09:49:27Z</time></trkpt><trkpt lat="44.717263465310054" lon="9.66827619453609"><ele>1084.2857142857142</ele><time>2026-03-28T09:49:31Z</time></trkpt><trkpt lat="44.71721302462951" lon="9.668188188837448"><ele>1085.142857142857</ele><time>2026-03-28T09:49:35Z</time></trkpt><trkpt lat="44.71718058613751" lon="9.668108952921921"><ele>1086.0</ele><time>2026-03-28T09:49:37.999Z</time></trkpt><trkpt lat="44.71714259185836" lon="9.66803327608682"><ele>1086.0</ele><time>2026-03-28T09:49:40.999Z</time></trkpt><trkpt lat="44.71708996534159" lon="9.667948893304107"><ele>1086.0</ele><time>2026-03-28T09:49:44.999Z</time></trkpt><trkpt lat="44.71704951038518" lon="9.667867402561056"><ele>1086.0</ele><time>2026-03-28T09:49:48.999Z</time></trkpt><trkpt lat="44.717010925836554" lon="9.667782001480717"><ele>1086.0</ele><time>2026-03-28T09:49:52.999Z</time></trkpt><trkpt lat="44.716966383031085" lon="9.667712156028033"><ele>1086.0</ele><time>2026-03-28T09:49:55.999Z</time></trkpt><trkpt lat="44.71691851621422" lon="9.667632615731412"><ele>1086.0</ele><time>2026-03-28T09:49:59.999Z</time></trkpt><trkpt lat="44.716871823093626" lon="9.667567763826119"><ele>1086.0</ele><time>2026-03-28T09:50:02.999Z</time></trkpt><trkpt lat="44.71683919776326" lon="9.66748910332069"><ele>1086.5714285714287</ele><time>2026-03-28T09:50:06.999Z</time></trkpt><trkpt lat="44.71679002390777" lon="9.667414765749559"><ele>1087.142857142857</ele><time>2026-03-28T09:50:09.999Z</time></trkpt><trkpt lat="44.71674769014179" lon="9.667329715158553"><ele>1087.7142857142858</ele><time>2026-03-28T09:50:13.999Z</time></trkpt><trkpt lat="44.716728566954565" lon="9.667232429044578"><ele>1088.2857142857142</ele><time>2026-03-28T09:50:17.999Z</time></trkpt><trkpt lat="44.716712586802196" lon="9.667135169938682"><ele>1088.857142857143</ele><time>2026-03-28T09:50:21.999Z</time></trkpt><trkpt lat="44.71670920991524" lon="9.667042840815615"><ele>1089.4285714285716</ele><time>2026-03-28T09:50:25.999Z</time></trkpt><trkpt lat="44.7167147269287" lon="9.666946108743279"><ele>1090.0</ele><time>2026-03-28T09:50:29.999Z</time></trkpt><trkpt lat="44.71672254940636" lon="9.666856898390286"><ele>1092.1666666666665</ele><time>2026-03-28T09:50:33.998Z</time></trkpt><trkpt lat="44.71672178543674" lon="9.666748461939662"><ele>1094.3333333333333</ele><time>2026-03-28T09:50:37.998Z</time></trkpt><trkpt lat="44.71673336731239" lon="9.666634464746958"><ele>1096.5</ele><time>2026-03-28T09:50:41.998Z</time></trkpt><trkpt lat="44.7167189078659" lon="9.666532411502839"><ele>1098.6666666666667</ele><time>2026-03-28T09:50:45.998Z</time></trkpt><trkpt lat="44.71669689138003" lon="9.66642990332114"><ele>1100.8333333333335</ele><time>2026-03-28T09:50:49.998Z</time></trkpt><trkpt lat="44.716683974311756" lon="9.666317402765985"><ele>1103.0</ele><time>2026-03-28T09:50:53.998Z</time></trkpt><trkpt lat="44.716672203905716" lon="9.666203791464232"><ele>1104.2857142857144</ele><time>2026-03-28T09:50:57.998Z</time></trkpt><trkpt lat="44.71665851529881" lon="9.666105668376746"><ele>1105.5714285714287</ele><time>2026-03-28T09:51:01.998Z</time></trkpt><trkpt lat="44.716638684456235" lon="9.665999075252959"><ele>1106.857142857143</ele><time>2026-03-28T09:51:06Z</time></trkpt><trkpt lat="44.71660928392237" lon="9.665880227803362"><ele>1108.1428571428573</ele><time>2026-03-28T09:51:10Z</time></trkpt><trkpt lat="44.71658412299809" lon="9.665786359536328"><ele>1109.4285714285716</ele><time>2026-03-28T09:51:13Z</time></trkpt><trkpt lat="44.71656080118129" lon="9.665700119268188"><ele>1110.7142857142858</ele><time>2026-03-28T09:51:16Z</time></trkpt><trkpt lat="44.71652741699759" lon="9.66562000417005"><ele>1112.0</ele><time>2026-03-28T09:51:19Z</time></trkpt><trkpt lat="44.71648235385655" lon="9.665555356506392"><ele>1112.0</ele><time>2026-03-28T09:51:22Z</time></trkpt><trkpt lat="44.71643880207405" lon="9.665478681250523"><ele>1112.0</ele><time>2026-03-28T09:51:25Z</time></trkpt><trkpt lat="44.71638603839033" lon="9.66540338788357"><ele>1112.0</ele><time>2026-03-28T09:51:29Z</time></trkpt><trkpt lat="44.716330666393844" lon="9.66532063852705"><ele>1112.0</ele><time>2026-03-28T09:51:33Z</time></trkpt><trkpt lat="44.71627163222614" lon="9.665259188282175"><ele>1112.0</ele><time>2026-03-28T09:51:36Z</time></trkpt><trkpt lat="44.71623027324275" lon="9.66518465445568"><ele>1112.0</ele><time>2026-03-28T09:51:39Z</time></trkpt><trkpt lat="44.716170964748564" lon="9.665092337710567"><ele>1111.4285714285713</ele><time>2026-03-28T09:51:42.999Z</time></trkpt><trkpt lat="44.716123635177865" lon="9.665022261391407"><ele>1110.857142857143</ele><time>2026-03-28T09:51:45.999Z</time></trkpt><trkpt lat="44.71607482756119" lon="9.664939430385063"><ele>1110.2857142857142</ele><time>2026-03-28T09:51:49.999Z</time></trkpt><trkpt lat="44.71602469829697" lon="9.664855579072952"><ele>1109.7142857142858</ele><time>2026-03-28T09:51:52.999Z</time></trkpt><trkpt lat="44.71598253898561" lon="9.664778191849686"><ele>1109.142857142857</ele><time>2026-03-28T09:51:56.999Z</time></trkpt><trkpt lat="44.71593201327696" lon="9.664695544985396"><ele>1108.5714285714284</ele><time>2026-03-28T09:51:59.999Z</time></trkpt><trkpt lat="44.71588486116663" lon="9.664630428857148"><ele>1108.0</ele><time>2026-03-28T09:52:02.999Z</time></trkpt><trkpt lat="44.71583892074473" lon="9.664561803646299"><ele>1108.0</ele><time>2026-03-28T09:52:05.999Z</time></trkpt><trkpt lat="44.715783744566814" lon="9.66449380735728"><ele>1108.0</ele><time>2026-03-28T09:52:08.999Z</time></trkpt><trkpt lat="44.71573017494811" lon="9.664430249975444"><ele>1108.0</ele><time>2026-03-28T09:52:11.999Z</time></trkpt><trkpt lat="44.715676516380974" lon="9.664363115556526"><ele>1108.0</ele><time>2026-03-28T09:52:14.999Z</time></trkpt><trkpt lat="44.71562438510979" lon="9.664295049796719"><ele>1108.0</ele><time>2026-03-28T09:52:17.999Z</time></trkpt><trkpt lat="44.71557359144577" lon="9.664227778505534"><ele>1108.0</ele><time>2026-03-28T09:52:20.999Z</time></trkpt><trkpt lat="44.71552954005299" lon="9.664163587316539"><ele>1108.0</ele><time>2026-03-28T09:52:23.999Z</time></trkpt><trkpt lat="44.71548559853821" lon="9.664073538466456"><ele>1109.2857142857142</ele><time>2026-03-28T09:52:27.999Z</time></trkpt><trkpt lat="44.71544584992708" lon="9.664000411525386"><ele>1110.5714285714284</ele><time>2026-03-28T09:52:30.999Z</time></trkpt><trkpt lat="44.71539913073703" lon="9.663915605758492"><ele>1111.857142857143</ele><time>2026-03-28T09:52:33.998Z</time></trkpt><trkpt lat="44.71534086731788" lon="9.66387645129142"><ele>1113.142857142857</ele><time>2026-03-28T09:52:36.998Z</time></trkpt><trkpt lat="44.715286894313394" lon="9.66383036751004"><ele>1114.4285714285716</ele><time>2026-03-28T09:52:39.998Z</time></trkpt><trkpt lat="44.71521436469438" lon="9.66379147482841"><ele>1115.7142857142858</ele><time>2026-03-28T09:52:42.998Z</time></trkpt><trkpt lat="44.715125818960416" lon="9.663765213240968"><ele>1117.0</ele><time>2026-03-28T09:52:46.998Z</time></trkpt><trkpt lat="44.71504025673898" lon="9.663733141141725"><ele>1117.0000000000002</ele><time>2026-03-28T09:52:50.998Z</time></trkpt><trkpt lat="44.71497129921893" lon="9.663711781202597"><ele>1117.0</ele><time>2026-03-28T09:52:54.998Z</time></trkpt><trkpt lat="44.7148998088594" lon="9.663682921084774"><ele>1117.0</ele><time>2026-03-28T09:52:58.998Z</time></trkpt><trkpt lat="44.71484916883781" lon="9.663626502484103"><ele>1117.0</ele><time>2026-03-28T09:53:01.998Z</time></trkpt><trkpt lat="44.714823456362566" lon="9.663541978694276"><ele>1117.0</ele><time>2026-03-28T09:53:04.998Z</time></trkpt><trkpt lat="44.71483415506524" lon="9.663427583680438"><ele>1117.0000000000002</ele><time>2026-03-28T09:53:09Z</time></trkpt><trkpt lat="44.71489828144218" lon="9.663355050894866"><ele>1117.0</ele><time>2026-03-28T09:53:13Z</time></trkpt><trkpt lat="44.714954531595396" lon="9.663306322532181"><ele>1120.5</ele><time>2026-03-28T09:53:16Z</time></trkpt><trkpt lat="44.71502204257385" lon="9.663294548686396"><ele>1124.0</ele><time>2026-03-28T09:53:19Z</time></trkpt><trkpt lat="44.7151086561503" lon="9.663282294220942"><ele>1127.5</ele><time>2026-03-28T09:53:22Z</time></trkpt><trkpt lat="44.71517419653288" lon="9.663286380219732"><ele>1131.0</ele><time>2026-03-28T09:53:24Z</time></trkpt><trkpt lat="44.7152501361447" lon="9.663291939000722"><ele>1134.5</ele><time>2026-03-28T09:53:26Z</time></trkpt><trkpt lat="44.71531893359" lon="9.66332993579986"><ele>1138.0</ele><time>2026-03-28T09:53:28Z</time></trkpt><trkpt lat="44.715403569517264" lon="9.66337335366601"><ele>1138.5</ele><time>2026-03-28T09:53:31Z</time></trkpt><trkpt lat="44.71548458192175" lon="9.663429358658489"><ele>1139.0</ele><time>2026-03-28T09:53:34Z</time></trkpt><trkpt lat="44.71556607537381" lon="9.663476887999312"><ele>1139.5</ele><time>2026-03-28T09:53:37Z</time></trkpt><trkpt lat="44.71564743869326" lon="9.663529626749414"><ele>1140.0</ele><time>2026-03-28T09:53:40Z</time></trkpt><trkpt lat="44.71573132394846" lon="9.66357246628024"><ele>1140.5</ele><time>2026-03-28T09:53:43Z</time></trkpt><trkpt lat="44.715814684430356" lon="9.663597658138151"><ele>1141.0</ele><time>2026-03-28T09:53:45.999Z</time></trkpt><trkpt lat="44.71590110797997" lon="9.66361529767748"><ele>1140.0</ele><time>2026-03-28T09:53:48.999Z</time></trkpt><trkpt lat="44.715987515668495" lon="9.663617335503284"><ele>1139.0</ele><time>2026-03-28T09:53:51.999Z</time></trkpt><trkpt lat="44.71607672564248" lon="9.663619272047494"><ele>1138.0</ele><time>2026-03-28T09:53:54.999Z</time></trkpt><trkpt lat="44.71616036997587" lon="9.663630110711011"><ele>1137.0</ele><time>2026-03-28T09:53:57.999Z</time></trkpt><trkpt lat="44.71624305602185" lon="9.663627697929355"><ele>1136.0</ele><time>2026-03-28T09:54:00.999Z</time></trkpt><trkpt lat="44.71632481173971" lon="9.663639931762768"><ele>1135.0</ele><time>2026-03-28T09:54:03.999Z</time></trkpt><trkpt lat="44.716394693872" lon="9.663648814700775"><ele>1135.0</ele><time>2026-03-28T09:54:06.999Z</time></trkpt><trkpt lat="44.716470333309246" lon="9.663653216482885"><ele>1135.0</ele><time>2026-03-28T09:54:09.999Z</time></trkpt><trkpt lat="44.716539398974376" lon="9.66367180150707"><ele>1135.0</ele><time>2026-03-28T09:54:12.999Z</time></trkpt><trkpt lat="44.716609211491374" lon="9.66367772036955"><ele>1135.0</ele><time>2026-03-28T09:54:15.999Z</time></trkpt><trkpt lat="44.7166731407309" lon="9.663676203451342"><ele>1135.0</ele><time>2026-03-28T09:54:18.999Z</time></trkpt><trkpt lat="44.716743772318345" lon="9.663666100967475"><ele>1135.0</ele><time>2026-03-28T09:54:21.999Z</time></trkpt><trkpt lat="44.71682423190571" lon="9.663653804246625"><ele>1135.0</ele><time>2026-03-28T09:54:25.999Z</time></trkpt><trkpt lat="44.716887489368794" lon="9.663627291402834"><ele>1137.4285714285716</ele><time>2026-03-28T09:54:28.999Z</time></trkpt><trkpt lat="44.71694909737424" lon="9.66358822799875"><ele>1139.857142857143</ele><time>2026-03-28T09:54:31.999Z</time></trkpt><trkpt lat="44.71700568127678" lon="9.663541587265115"><ele>1142.2857142857142</ele><time>2026-03-28T09:54:34.999Z</time></trkpt><trkpt lat="44.717051235263824" lon="9.663473591395523"><ele>1144.7142857142858</ele><time>2026-03-28T09:54:37.998Z</time></trkpt><trkpt lat="44.7170880652095" lon="9.663397899861268"><ele>1147.142857142857</ele><time>2026-03-28T09:54:40.998Z</time></trkpt><trkpt lat="44.71711128593548" lon="9.663291621402642"><ele>1149.5714285714287</ele><time>2026-03-28T09:54:44.998Z</time></trkpt><trkpt lat="44.71711054617827" lon="9.66320270124195"><ele>1152.0</ele><time>2026-03-28T09:54:47.998Z</time></trkpt><trkpt lat="44.717095277671135" lon="9.66311502374323"><ele>1152.0000000000002</ele><time>2026-03-28T09:54:50.998Z</time></trkpt><trkpt lat="44.71707320262268" lon="9.663032016058628"><ele>1152.0</ele><time>2026-03-28T09:54:53.998Z</time></trkpt><trkpt lat="44.7170505654488" lon="9.662949234325879"><ele>1152.0</ele><time>2026-03-28T09:54:56.998Z</time></trkpt><trkpt lat="44.71699893038756" lon="9.662855132404452"><ele>1152.0</ele><time>2026-03-28T09:55:00.998Z</time></trkpt><trkpt lat="44.71695713582275" lon="9.662752660709245"><ele>1152.0</ele><time>2026-03-28T09:55:04.998Z</time></trkpt><trkpt lat="44.71690036816276" lon="9.66265850622735"><ele>1152.0000000000002</ele><time>2026-03-28T09:55:08.998Z</time></trkpt><trkpt lat="44.71685414073651" lon="9.662592518307724"><ele>1152.0</ele><time>2026-03-28T09:55:11.998Z</time></trkpt><trkpt lat="44.71680332969273" lon="9.662501951179705"><ele>1152.4285714285716</ele><time>2026-03-28T09:55:16Z</time></trkpt><trkpt lat="44.716748131689044" lon="9.662423578563665"><ele>1152.857142857143</ele><time>2026-03-28T09:55:20Z</time></trkpt><trkpt lat="44.716701839437015" lon="9.662327406724836"><ele>1153.2857142857142</ele><time>2026-03-28T09:55:24Z</time></trkpt><trkpt lat="44.71667836294969" lon="9.662243759724575"><ele>1153.7142857142858</ele><time>2026-03-28T09:55:27Z</time></trkpt><trkpt lat="44.716661153353584" lon="9.662152715364826"><ele>1154.142857142857</ele><time>2026-03-28T09:55:30Z</time></trkpt><trkpt lat="44.71666206400623" lon="9.662060797918537"><ele>1154.5714285714287</ele><time>2026-03-28T09:55:33Z</time></trkpt><trkpt lat="44.716681944846876" lon="9.661974350195052"><ele>1155.0</ele><time>2026-03-28T09:55:36Z</time></trkpt><trkpt lat="44.71674188602533" lon="9.66189500370087"><ele>1156.1666666666667</ele><time>2026-03-28T09:55:39Z</time></trkpt><trkpt lat="44.71680814129625" lon="9.661869757550381"><ele>1157.3333333333333</ele><time>2026-03-28T09:55:43Z</time></trkpt><trkpt lat="44.71688200524807" lon="9.661897306393243"><ele>1158.5</ele><time>2026-03-28T09:55:46Z</time></trkpt><trkpt lat="44.716956869501274" lon="9.661945377773"><ele>1159.6666666666665</ele><time>2026-03-28T09:55:48.999Z</time></trkpt><trkpt lat="44.71702371759128" lon="9.662013191166393"><ele>1160.8333333333333</ele><time>2026-03-28T09:55:51.999Z</time></trkpt><trkpt lat="44.71707877082865" lon="9.662078168337041"><ele>1162.0</ele><time>2026-03-28T09:55:53.999Z</time></trkpt><trkpt lat="44.71714023569452" lon="9.662156205839485"><ele>1162.2</ele><time>2026-03-28T09:55:56.999Z</time></trkpt><trkpt lat="44.71721185789371" lon="9.662235878560791"><ele>1162.4</ele><time>2026-03-28T09:55:59.999Z</time></trkpt><trkpt lat="44.71728099598708" lon="9.662322292028321"><ele>1162.6</ele><time>2026-03-28T09:56:02.999Z</time></trkpt><trkpt lat="44.717350307967145" lon="9.662411739654674"><ele>1162.8</ele><time>2026-03-28T09:56:05.999Z</time></trkpt><trkpt lat="44.717418477656715" lon="9.662492829169791"><ele>1163.0</ele><time>2026-03-28T09:56:08.999Z</time></trkpt><trkpt lat="44.717487518431994" lon="9.66256738401698"><ele>1163.0</ele><time>2026-03-28T09:56:11.999Z</time></trkpt><trkpt lat="44.71753423270071" lon="9.662630172022753"><ele>1163.0</ele><time>2026-03-28T09:56:13.999Z</time></trkpt><trkpt lat="44.71758234563243" lon="9.662689951371638"><ele>1163.0</ele><time>2026-03-28T09:56:15.999Z</time></trkpt><trkpt lat="44.717636194650645" lon="9.662751503141234"><ele>1163.0</ele><time>2026-03-28T09:56:17.999Z</time></trkpt><trkpt lat="44.717691964466795" lon="9.66282182123403"><ele>1163.0</ele><time>2026-03-28T09:56:19.999Z</time></trkpt><trkpt lat="44.71775057608745" lon="9.662886471682858"><ele>1163.0</ele><time>2026-03-28T09:56:21.999Z</time></trkpt><trkpt lat="44.71781179681321" lon="9.66295539216633"><ele>1163.0</ele><time>2026-03-28T09:56:23.999Z</time></trkpt><trkpt lat="44.71788378787792" lon="9.663034267700416"><ele>1164.1666666666667</ele><time>2026-03-28T09:56:25.999Z</time></trkpt><trkpt lat="44.7179503696006" lon="9.663110724777669"><ele>1165.3333333333335</ele><time>2026-03-28T09:56:27.999Z</time></trkpt><trkpt lat="44.71801460590415" lon="9.663193140827683"><ele>1166.5</ele><time>2026-03-28T09:56:29.999Z</time></trkpt><trkpt lat="44.71808003660418" lon="9.66326283513273"><ele>1167.6666666666667</ele><time>2026-03-28T09:56:31.999Z</time></trkpt><trkpt lat="44.7181418705499" lon="9.663326990662833"><ele>1168.8333333333333</ele><time>2026-03-28T09:56:33.999Z</time></trkpt><trkpt lat="44.71820120176152" lon="9.663398572677092"><ele>1170.0</ele><time>2026-03-28T09:56:35.999Z</time></trkpt><trkpt lat="44.71826170344587" lon="9.66346175987298"><ele>1170.0</ele><time>2026-03-28T09:56:37.999Z</time></trkpt><trkpt lat="44.71832113144421" lon="9.663527333096662"><ele>1170.0</ele><time>2026-03-28T09:56:39.999Z</time></trkpt><trkpt lat="44.718379175986925" lon="9.663588326803199"><ele>1170.0</ele><time>2026-03-28T09:56:41.998Z</time></trkpt><trkpt lat="44.718438144212044" lon="9.663644631213506"><ele>1170.0</ele><time>2026-03-28T09:56:43.998Z</time></trkpt><trkpt lat="44.71849595266305" lon="9.663702697465911"><ele>1170.0</ele><time>2026-03-28T09:56:45.998Z</time></trkpt><trkpt lat="44.718553027801654" lon="9.663761770221907"><ele>1170.0</ele><time>2026-03-28T09:56:47.998Z</time></trkpt><trkpt lat="44.71861465545777" lon="9.66383155265221"><ele>1170.0</ele><time>2026-03-28T09:56:49.998Z</time></trkpt><trkpt lat="44.71867395790133" lon="9.663874809603977"><ele>1170.1666666666667</ele><time>2026-03-28T09:56:51.998Z</time></trkpt><trkpt lat="44.718733237589184" lon="9.66393025066168"><ele>1170.3333333333333</ele><time>2026-03-28T09:56:54.998Z</time></trkpt><trkpt lat="44.71879203653749" lon="9.663979023631594"><ele>1170.5</ele><time>2026-03-28T09:56:55.998Z</time></trkpt><trkpt lat="44.71886158192804" lon="9.66403083708579"><ele>1170.6666666666665</ele><time>2026-03-28T09:56:57.998Z</time></trkpt><trkpt lat="44.718931238752134" lon="9.664073419562106"><ele>1170.8333333333333</ele><time>2026-03-28T09:56:59.998Z</time></trkpt><trkpt lat="44.71901445723746" lon="9.664120427233096"><ele>1171.0</ele><time>2026-03-28T09:57:01.998Z</time></trkpt><trkpt lat="44.71908668946499" lon="9.664145851053565"><ele>1171.0</ele><time>2026-03-28T09:57:03.998Z</time></trkpt><trkpt lat="44.719156325754085" lon="9.664174640412083"><ele>1171.0</ele><time>2026-03-28T09:57:05.998Z</time></trkpt><trkpt lat="44.71923862753659" lon="9.66418969666143"><ele>1171.0</ele><time>2026-03-28T09:57:08.998Z</time></trkpt><trkpt lat="44.71933774837068" lon="9.664205115706203"><ele>1171.0</ele><time>2026-03-28T09:57:10.998Z</time></trkpt><trkpt lat="44.7194065992982" lon="9.664223169595314"><ele>1171.0</ele><time>2026-03-28T09:57:13.998Z</time></trkpt><trkpt lat="44.71948652306791" lon="9.664242320160435"><ele>1171.0</ele><time>2026-03-28T09:57:16.998Z</time></trkpt><trkpt lat="44.719554793509204" lon="9.664263688549065"><ele>1172.3333333333333</ele><time>2026-03-28T09:57:18.998Z</time></trkpt><trkpt lat="44.71963784926334" lon="9.664279188273666"><ele>1173.6666666666665</ele><time>2026-03-28T09:57:22Z</time></trkpt><trkpt lat="44.71971173754658" lon="9.664297974722437"><ele>1175.0</ele><time>2026-03-28T09:57:25Z</time></trkpt><trkpt lat="44.71978888169296" lon="9.664303020091658"><ele>1176.3333333333333</ele><time>2026-03-28T09:57:28Z</time></trkpt><trkpt lat="44.71987119144927" lon="9.664315584311105"><ele>1177.6666666666667</ele><time>2026-03-28T09:57:31Z</time></trkpt><trkpt lat="44.719952873829165" lon="9.66432337164568"><ele>1179.0</ele><time>2026-03-28T09:57:35Z</time></trkpt><trkpt lat="44.72001929398601" lon="9.66431520496525"><ele>1178.9999999999998</ele><time>2026-03-28T09:57:37Z</time></trkpt><trkpt lat="44.72009520532379" lon="9.664303581606331"><ele>1179.0</ele><time>2026-03-28T09:57:40Z</time></trkpt><trkpt lat="44.72017653464194" lon="9.664285704971178"><ele>1179.0</ele><time>2026-03-28T09:57:44Z</time></trkpt><trkpt lat="44.72024175469474" lon="9.664247381710739"><ele>1179.0</ele><time>2026-03-28T09:57:47Z</time></trkpt><trkpt lat="44.72027995224759" lon="9.66416834276921"><ele>1179.0</ele><time>2026-03-28T09:57:50Z</time></trkpt><trkpt lat="44.72024529569393" lon="9.664082331199925"><ele>1178.9999999999998</ele><time>2026-03-28T09:57:52.999Z</time></trkpt><trkpt lat="44.72020008101608" lon="9.66399430308183"><ele>1179.0</ele><time>2026-03-28T09:57:56.999Z</time></trkpt><trkpt lat="44.720156491828014" lon="9.663924997391439"><ele>1178.9999999999998</ele><time>2026-03-28T09:58:00.999Z</time></trkpt><trkpt lat="44.72011635162544" lon="9.663836578663407"><ele>1179.0</ele><time>2026-03-28T09:58:04.999Z</time></trkpt><trkpt lat="44.720089125556676" lon="9.663732469855509"><ele>1179.0</ele><time>2026-03-28T09:58:08.999Z</time></trkpt><trkpt lat="44.72007452832099" lon="9.663645838375773"><ele>1179.0</ele><time>2026-03-28T09:58:11.999Z</time></trkpt><trkpt lat="44.72005545357234" lon="9.663537074243333"><ele>1179.0</ele><time>2026-03-28T09:58:15.999Z</time></trkpt><trkpt lat="44.720050551338694" lon="9.663441245319833"><ele>1178.9999999999998</ele><time>2026-03-28T09:58:19.999Z</time></trkpt><trkpt lat="44.72003971253161" lon="9.663338392994214"><ele>1179.0</ele><time>2026-03-28T09:58:23.999Z</time></trkpt><trkpt lat="44.72002415669571" lon="9.663242941105393"><ele>1181.0</ele><time>2026-03-28T09:58:27.999Z</time></trkpt><trkpt lat="44.72000484982948" lon="9.66314178821117"><ele>1183.0</ele><time>2026-03-28T09:58:30.999Z</time></trkpt><trkpt lat="44.71999589922991" lon="9.663045951261497"><ele>1185.0</ele><time>2026-03-28T09:58:34.999Z</time></trkpt><trkpt lat="44.71998330970023" lon="9.662927729538646"><ele>1187.0</ele><time>2026-03-28T09:58:38.999Z</time></trkpt><trkpt lat="44.71997458409101" lon="9.662820514156715"><ele>1189.0</ele><time>2026-03-28T09:58:42.999Z</time></trkpt><trkpt lat="44.719978779799845" lon="9.662709156178327"><ele>1191.0</ele><time>2026-03-28T09:58:46.998Z</time></trkpt><trkpt lat="44.719993358743814" lon="9.662599122858483"><ele>1192.0</ele><time>2026-03-28T09:58:50.998Z</time></trkpt><trkpt lat="44.71999975433498" lon="9.662488326303503"><ele>1193.0</ele><time>2026-03-28T09:58:54.998Z</time></trkpt><trkpt lat="44.720012575733314" lon="9.662380404504516"><ele>1194.0</ele><time>2026-03-28T09:58:58.998Z</time></trkpt><trkpt lat="44.72002111499793" lon="9.662290835784157"><ele>1195.0</ele><time>2026-03-28T09:59:01.998Z</time></trkpt><trkpt lat="44.72003482486865" lon="9.662179833310288"><ele>1196.0</ele><time>2026-03-28T09:59:05.998Z</time></trkpt><trkpt lat="44.720047064575525" lon="9.662068170761684"><ele>1197.0</ele><time>2026-03-28T09:59:09.998Z</time></trkpt><trkpt lat="44.720063898490324" lon="9.661952497120605"><ele>1197.4285714285713</ele><time>2026-03-28T09:59:13.998Z</time></trkpt><trkpt lat="44.72006261109334" lon="9.661832246417148"><ele>1197.857142857143</ele><time>2026-03-28T09:59:17.998Z</time></trkpt><trkpt lat="44.72003178636063" lon="9.661749638618097"><ele>1198.2857142857142</ele><time>2026-03-28T09:59:20.998Z</time></trkpt><trkpt lat="44.720001105186334" lon="9.661665637707225"><ele>1198.7142857142858</ele><time>2026-03-28T09:59:23.998Z</time></trkpt><trkpt lat="44.719962700500844" lon="9.66158880145772"><ele>1199.142857142857</ele><time>2026-03-28T09:59:27Z</time></trkpt><trkpt lat="44.719922943512415" lon="9.661514341854167"><ele>1199.5714285714284</ele><time>2026-03-28T09:59:30Z</time></trkpt><trkpt lat="44.719886127149756" lon="9.661432950235595"><ele>1200.0</ele><time>2026-03-28T09:59:33Z</time></trkpt><trkpt lat="44.71985305530398" lon="9.661355396039276"><ele>1200.0</ele><time>2026-03-28T09:59:36Z</time></trkpt><trkpt lat="44.71981282701847" lon="9.66125478922299"><ele>1200.0</ele><time>2026-03-28T09:59:40Z</time></trkpt><trkpt lat="44.71977606798927" lon="9.661171367117497"><ele>1200.0</ele><time>2026-03-28T09:59:44Z</time></trkpt><trkpt lat="44.719733539241396" lon="9.66105856856376"><ele>1200.0</ele><time>2026-03-28T09:59:48Z</time></trkpt><trkpt lat="44.71969798643517" lon="9.660964250015008"><ele>1200.0</ele><time>2026-03-28T09:59:52Z</time></trkpt><trkpt lat="44.71966812981689" lon="9.660884496539316"><ele>1200.0</ele><time>2026-03-28T09:59:54.999Z</time></trkpt><trkpt lat="44.71962830262846" lon="9.66078496261175"><ele>1200.5</ele><time>2026-03-28T09:59:58.999Z</time></trkpt><trkpt lat="44.71959111270048" lon="9.660686730287496"><ele>1201.0</ele><time>2026-03-28T10:00:02.999Z</time></trkpt><trkpt lat="44.7195581872117" lon="9.660588996102353"><ele>1201.5</ele><time>2026-03-28T10:00:06.999Z</time></trkpt><trkpt lat="44.7195206057979" lon="9.660495207718423"><ele>1202.0</ele><time>2026-03-28T10:00:10.999Z</time></trkpt><trkpt lat="44.719487636552856" lon="9.660398362461576"><ele>1202.5</ele><time>2026-03-28T10:00:14.999Z</time></trkpt><trkpt lat="44.71945191857529" lon="9.660304746893921"><ele>1203.0</ele><time>2026-03-28T10:00:18.999Z</time></trkpt><trkpt lat="44.71942640682925" lon="9.660210480067935"><ele>1203.857142857143</ele><time>2026-03-28T10:00:22.999Z</time></trkpt><trkpt lat="44.719400632504346" lon="9.660107244589389"><ele>1204.7142857142858</ele><time>2026-03-28T10:00:26.999Z</time></trkpt><trkpt lat="44.71937648299278" lon="9.660006289166631"><ele>1205.5714285714284</ele><time>2026-03-28T10:00:30.999Z</time></trkpt><trkpt lat="44.719343525066" lon="9.659926564128936"><ele>1206.4285714285716</ele><time>2026-03-28T10:00:33.999Z</time></trkpt><trkpt lat="44.71932278857255" lon="9.659842747762816"><ele>1207.2857142857144</ele><time>2026-03-28T10:00:36.999Z</time></trkpt><trkpt lat="44.719289796007544" lon="9.659737257117445"><ele>1208.142857142857</ele><time>2026-03-28T10:00:40.999Z</time></trkpt><trkpt lat="44.71926424306415" lon="9.659629944701457"><ele>1209.0</ele><time>2026-03-28T10:00:44.999Z</time></trkpt><trkpt lat="44.71922929699029" lon="9.659518990570378"><ele>1211.6666666666667</ele><time>2026-03-28T10:00:48.998Z</time></trkpt><trkpt lat="44.71919750430414" lon="9.65941652584738"><ele>1214.3333333333333</ele><time>2026-03-28T10:00:52.998Z</time></trkpt><trkpt lat="44.71917855637591" lon="9.659307576959081"><ele>1217.0</ele><time>2026-03-28T10:00:56.998Z</time></trkpt><trkpt lat="44.71915567482453" lon="9.659210166183177"><ele>1219.6666666666665</ele><time>2026-03-28T10:01:00.998Z</time></trkpt><trkpt lat="44.719138658860956" lon="9.659102333789413"><ele>1222.3333333333333</ele><time>2026-03-28T10:01:04.998Z</time></trkpt><trkpt lat="44.719114043697516" lon="9.658993255076458"><ele>1225.0</ele><time>2026-03-28T10:01:08.998Z</time></trkpt><trkpt lat="44.719094749825956" lon="9.658905055911147"><ele>1225.0</ele><time>2026-03-28T10:01:12.998Z</time></trkpt><trkpt lat="44.71908748693428" lon="9.658798920880848"><ele>1225.0</ele><time>2026-03-28T10:01:16.998Z</time></trkpt><trkpt lat="44.719066166251054" lon="9.658676620342854"><ele>1225.0</ele><time>2026-03-28T10:01:20.998Z</time></trkpt><trkpt lat="44.71903853725144" lon="9.658584864399062"><ele>1225.0</ele><time>2026-03-28T10:01:24.998Z</time></trkpt><trkpt lat="44.71900819771932" lon="9.65848185686103"><ele>1225.0</ele><time>2026-03-28T10:01:27.998Z</time></trkpt><trkpt lat="44.718984460691004" lon="9.658398162570114"><ele>1225.0</ele><time>2026-03-28T10:01:31Z</time></trkpt><trkpt lat="44.71895429412089" lon="9.658308940807045"><ele>1225.4285714285713</ele><time>2026-03-28T10:01:34Z</time></trkpt><trkpt lat="44.7189248854024" lon="9.658225117231966"><ele>1225.857142857143</ele><time>2026-03-28T10:01:37Z</time></trkpt><trkpt lat="44.718893677469694" lon="9.65814159183641"><ele>1226.2857142857142</ele><time>2026-03-28T10:01:40Z</time></trkpt><trkpt lat="44.71885708925856" lon="9.658066022598842"><ele>1226.7142857142858</ele><time>2026-03-28T10:01:43Z</time></trkpt><trkpt lat="44.718822556807744" lon="9.657990738049039"><ele>1227.142857142857</ele><time>2026-03-28T10:01:46Z</time></trkpt><trkpt lat="44.718767569715105" lon="9.657904615875454"><ele>1227.5714285714284</ele><time>2026-03-28T10:01:50Z</time></trkpt><trkpt lat="44.71871906748291" lon="9.657845863971275"><ele>1228.0</ele><time>2026-03-28T10:01:53Z</time></trkpt><trkpt lat="44.71865413666641" lon="9.65777564051746"><ele>1229.0</ele><time>2026-03-28T10:01:56.999Z</time></trkpt><trkpt lat="44.71859642486803" lon="9.657719263198322"><ele>1230.0</ele><time>2026-03-28T10:01:59.999Z</time></trkpt><trkpt lat="44.718526167326154" lon="9.657671068135157"><ele>1231.0</ele><time>2026-03-28T10:02:02.999Z</time></trkpt><trkpt lat="44.71845608011819" lon="9.65763176893401"><ele>1232.0</ele><time>2026-03-28T10:02:05.999Z</time></trkpt><trkpt lat="44.71838065549948" lon="9.657596191226217"><ele>1233.0</ele><time>2026-03-28T10:02:08.999Z</time></trkpt><trkpt lat="44.718310693241456" lon="9.657562765320625"><ele>1234.0</ele><time>2026-03-28T10:02:11.999Z</time></trkpt><trkpt lat="44.718237583926246" lon="9.657531443294047"><ele>1234.857142857143</ele><time>2026-03-28T10:02:14.999Z</time></trkpt><trkpt lat="44.71816902776664" lon="9.657492444561871"><ele>1235.7142857142856</ele><time>2026-03-28T10:02:17.999Z</time></trkpt><trkpt lat="44.71809713271615" lon="9.657460046169307"><ele>1236.5714285714284</ele><time>2026-03-28T10:02:21.999Z</time></trkpt><trkpt lat="44.7180161858909" lon="9.657417646571634"><ele>1237.4285714285716</ele><time>2026-03-28T10:02:24.999Z</time></trkpt><trkpt lat="44.71794827814819" lon="9.657375489638001"><ele>1238.2857142857142</ele><time>2026-03-28T10:02:27.999Z</time></trkpt><trkpt lat="44.717890301715094" lon="9.657339590004563"><ele>1239.142857142857</ele><time>2026-03-28T10:02:30.999Z</time></trkpt><trkpt lat="44.71782973702597" lon="9.6572984122825"><ele>1240.0</ele><time>2026-03-28T10:02:33.999Z</time></trkpt><trkpt lat="44.71776092167823" lon="9.657258944345088"><ele>1239.7142857142858</ele><time>2026-03-28T10:02:36.999Z</time></trkpt><trkpt lat="44.717692297331325" lon="9.65721905325781"><ele>1239.4285714285713</ele><time>2026-03-28T10:02:39.999Z</time></trkpt><trkpt lat="44.717635126404346" lon="9.65716998528746"><ele>1239.142857142857</ele><time>2026-03-28T10:02:42.999Z</time></trkpt><trkpt lat="44.71757478748757" lon="9.6571300833147"><ele>1238.857142857143</ele><time>2026-03-28T10:02:45.999Z</time></trkpt><trkpt lat="44.71750481479209" lon="9.657087300594391"><ele>1238.5714285714287</ele><time>2026-03-28T10:02:49.999Z</time></trkpt><trkpt lat="44.71743501458575" lon="9.657039727806657"><ele>1238.2857142857142</ele><time>2026-03-28T10:02:53.998Z</time></trkpt><trkpt lat="44.71737025774133" lon="9.656977020683016"><ele>1238.0</ele><time>2026-03-28T10:02:57.998Z</time></trkpt><trkpt lat="44.717306516436516" lon="9.656933500413729"><ele>1240.2857142857142</ele><time>2026-03-28T10:03:01.998Z</time></trkpt><trkpt lat="44.71724512962737" lon="9.65688013616552"><ele>1242.5714285714287</ele><time>2026-03-28T10:03:04.998Z</time></trkpt><trkpt lat="44.71717324890928" lon="9.656829034248645"><ele>1244.857142857143</ele><time>2026-03-28T10:03:08.998Z</time></trkpt><trkpt lat="44.717116837961605" lon="9.656764814261113"><ele>1247.142857142857</ele><time>2026-03-28T10:03:12.998Z</time></trkpt><trkpt lat="44.717054936353584" lon="9.656690924408275"><ele>1249.4285714285713</ele><time>2026-03-28T10:03:16.998Z</time></trkpt><trkpt lat="44.716993092236635" lon="9.656646730264496"><ele>1251.7142857142858</ele><time>2026-03-28T10:03:19.998Z</time></trkpt><trkpt lat="44.71694238603332" lon="9.656593370319525"><ele>1254.0</ele><time>2026-03-28T10:03:22.998Z</time></trkpt><trkpt lat="44.7168653498684" lon="9.656529264480604"><ele>1254.0</ele><time>2026-03-28T10:03:26.998Z</time></trkpt><trkpt lat="44.71679849343512" lon="9.65647899505995"><ele>1254.0</ele><time>2026-03-28T10:03:29.998Z</time></trkpt><trkpt lat="44.71674130560689" lon="9.656433652622002"><ele>1254.0</ele><time>2026-03-28T10:03:32.998Z</time></trkpt><trkpt lat="44.71669544764326" lon="9.656359297244421"><ele>1254.0</ele><time>2026-03-28T10:03:35.998Z</time></trkpt><trkpt lat="44.716639164027335" lon="9.656275203557929"><ele>1254.0</ele><time>2026-03-28T10:03:40Z</time></trkpt><trkpt lat="44.71658426296372" lon="9.656193997527167"><ele>1254.0</ele><time>2026-03-28T10:03:43Z</time></trkpt><trkpt lat="44.7165166984068" lon="9.656139027935037"><ele>1256.3333333333333</ele><time>2026-03-28T10:03:46Z</time></trkpt><trkpt lat="44.71645833705822" lon="9.65606893981374"><ele>1258.6666666666667</ele><time>2026-03-28T10:03:49Z</time></trkpt><trkpt lat="44.716399129570505" lon="9.65598498979021"><ele>1261.0</ele><time>2026-03-28T10:03:52Z</time></trkpt><trkpt lat="44.71634965126955" lon="9.65591285970958"><ele>1263.3333333333335</ele><time>2026-03-28T10:03:55Z</time></trkpt><trkpt lat="44.71629435749837" lon="9.65582589029372"><ele>1265.6666666666667</ele><time>2026-03-28T10:03:58Z</time></trkpt><trkpt lat="44.71624415901302" lon="9.655750582633534"><ele>1268.0</ele><time>2026-03-28T10:03:59.999Z</time></trkpt><trkpt lat="44.71619818513007" lon="9.655634363088529"><ele>1268.0</ele><time>2026-03-28T10:04:02.999Z</time></trkpt><trkpt lat="44.71616140178721" lon="9.65555882982531"><ele>1268.0</ele><time>2026-03-28T10:04:03.999Z</time></trkpt><trkpt lat="44.716103989645674" lon="9.65548210337615"><ele>1268.0</ele><time>2026-03-28T10:04:05.999Z</time></trkpt><trkpt lat="44.71605624295696" lon="9.655398784392087"><ele>1268.0</ele><time>2026-03-28T10:04:07.999Z</time></trkpt><trkpt lat="44.716013862522665" lon="9.655322162707769"><ele>1268.0</ele><time>2026-03-28T10:04:09.999Z</time></trkpt><trkpt lat="44.71594287367709" lon="9.655237137470465"><ele>1268.0</ele><time>2026-03-28T10:04:12.999Z</time></trkpt><trkpt lat="44.715883798628795" lon="9.655182363623927"><ele>1268.0</ele><time>2026-03-28T10:04:14.999Z</time></trkpt><trkpt lat="44.715826581219815" lon="9.655129898868525"><ele>1268.0</ele><time>2026-03-28T10:04:16.999Z</time></trkpt><trkpt lat="44.7157507857733" lon="9.655061497681444"><ele>1268.0</ele><time>2026-03-28T10:04:19.999Z</time></trkpt><trkpt lat="44.71569568982169" lon="9.655016231114029"><ele>1268.0</ele><time>2026-03-28T10:04:21.999Z</time></trkpt><trkpt lat="44.71562342816442" lon="9.654968945641931"><ele>1268.0</ele><time>2026-03-28T10:04:24.999Z</time></trkpt><trkpt lat="44.71556733434444" lon="9.654914785202854"><ele>1268.0</ele><time>2026-03-28T10:04:27.999Z</time></trkpt><trkpt lat="44.71549576202794" lon="9.654840310326552"><ele>1268.0</ele><time>2026-03-28T10:04:30.999Z</time></trkpt><trkpt lat="44.71542338087158" lon="9.654766974075798"><ele>1268.0</ele><time>2026-03-28T10:04:33.999Z</time></trkpt><trkpt lat="44.71537615435578" lon="9.654682053128465"><ele>1268.0</ele><time>2026-03-28T10:04:36.999Z</time></trkpt><trkpt lat="44.71532651095966" lon="9.654603279927912"><ele>1268.0</ele><time>2026-03-28T10:04:39.999Z</time></trkpt><trkpt lat="44.71528605662267" lon="9.65452787420594"><ele>1268.0</ele><time>2026-03-28T10:04:42.999Z</time></trkpt><trkpt lat="44.7152449400428" lon="9.654454881809917"><ele>1268.0</ele><time>2026-03-28T10:04:45.999Z</time></trkpt><trkpt lat="44.71522028695064" lon="9.65437315681539"><ele>1268.0</ele><time>2026-03-28T10:04:48.999Z</time></trkpt><trkpt lat="44.71517818585561" lon="9.654271726723055"><ele>1269.0</ele><time>2026-03-28T10:04:52.999Z</time></trkpt><trkpt lat="44.71515596580021" lon="9.654169063460444"><ele>1270.0</ele><time>2026-03-28T10:04:55.998Z</time></trkpt><trkpt lat="44.7151200840521" lon="9.654038000225052"><ele>1271.0</ele><time>2026-03-28T10:04:57.998Z</time></trkpt><trkpt lat="44.71509363835018" lon="9.653946298941328"><ele>1272.0</ele><time>2026-03-28T10:04:59.998Z</time></trkpt><trkpt lat="44.715067995764485" lon="9.653836757350227"><ele>1273.0</ele><time>2026-03-28T10:05:01.998Z</time></trkpt><trkpt lat="44.71504031852884" lon="9.653707387182902"><ele>1274.0</ele><time>2026-03-28T10:05:03.998Z</time></trkpt><trkpt lat="44.71500461959933" lon="9.65357700660175"><ele>1274.0</ele><time>2026-03-28T10:05:05.998Z</time></trkpt><trkpt lat="44.714964017943906" lon="9.653438051062167"><ele>1274.0</ele><time>2026-03-28T10:05:07.998Z</time></trkpt><trkpt lat="44.71494482735163" lon="9.65329775259636"><ele>1274.0</ele><time>2026-03-28T10:05:09.998Z</time></trkpt><trkpt lat="44.71490615824669" lon="9.65315860007842"><ele>1274.0</ele><time>2026-03-28T10:05:11.998Z</time></trkpt><trkpt lat="44.71486327447559" lon="9.653016089665211"><ele>1274.0</ele><time>2026-03-28T10:05:13.998Z</time></trkpt><trkpt lat="44.714824649333956" lon="9.652878598333006"><ele>1274.2</ele><time>2026-03-28T10:05:15.998Z</time></trkpt><trkpt lat="44.714784153622" lon="9.652749135691899"><ele>1274.4</ele><time>2026-03-28T10:05:17.998Z</time></trkpt><trkpt lat="44.714754390321986" lon="9.652628001116973"><ele>1274.6</ele><time>2026-03-28T10:05:19.998Z</time></trkpt><trkpt lat="44.71476348309927" lon="9.652487850342517"><ele>1274.8</ele><time>2026-03-28T10:05:21.998Z</time></trkpt><trkpt lat="44.71478953017635" lon="9.652361606796205"><ele>1275.0</ele><time>2026-03-28T10:05:23.998Z</time></trkpt><trkpt lat="44.71481297102825" lon="9.652243122499016"><ele>1275.0</ele><time>2026-03-28T10:05:25.998Z</time></trkpt><trkpt lat="44.714845568068014" lon="9.652123553333958"><ele>1275.0</ele><time>2026-03-28T10:05:27.998Z</time></trkpt><trkpt lat="44.714884801532484" lon="9.652016111431799"><ele>1275.0</ele><time>2026-03-28T10:05:29.998Z</time></trkpt><trkpt lat="44.714910468512976" lon="9.651934055228148"><ele>1275.0</ele><time>2026-03-28T10:05:31.998Z</time></trkpt><trkpt lat="44.71486790993227" lon="9.651795541750483"><ele>1275.0</ele><time>2026-03-28T10:08:08.999Z</time></trkpt><trkpt lat="44.71494499450218" lon="9.651738865263901"><ele>1275.0</ele><time>2026-03-28T10:13:33.998Z</time></trkpt><trkpt lat="44.715002919494346" lon="9.651646693651108"><ele>1274.4</ele><time>2026-03-28T10:13:36.998Z</time></trkpt><trkpt lat="44.715048288907944" lon="9.651560495406306"><ele>1273.8</ele><time>2026-03-28T10:13:38.998Z</time></trkpt><trkpt lat="44.71510808266665" lon="9.651465205772347"><ele>1273.2</ele><time>2026-03-28T10:13:40.998Z</time></trkpt><trkpt lat="44.71516324860743" lon="9.651353306068348"><ele>1272.6</ele><time>2026-03-28T10:13:42.998Z</time></trkpt><trkpt lat="44.71522978304405" lon="9.651231123903235"><ele>1272.0</ele><time>2026-03-28T10:13:44.998Z</time></trkpt><trkpt lat="44.715296618115744" lon="9.651090513523496"><ele>1272.0</ele><time>2026-03-28T10:13:46.998Z</time></trkpt><trkpt lat="44.71537741422873" lon="9.650963005427053"><ele>1272.0</ele><time>2026-03-28T10:13:48.998Z</time></trkpt><trkpt lat="44.71544270692755" lon="9.650818561383701"><ele>1272.0</ele><time>2026-03-28T10:13:50.998Z</time></trkpt><trkpt lat="44.715479587982756" lon="9.650744872063582"><ele>1272.0</ele><time>2026-03-28T10:13:51.998Z</time></trkpt><trkpt lat="44.71555458540245" lon="9.650604338919774"><ele>1272.0</ele><time>2026-03-28T10:13:53.998Z</time></trkpt><trkpt lat="44.71558783908418" lon="9.650527727068134"><ele>1272.0</ele><time>2026-03-28T10:13:54.998Z</time></trkpt><trkpt lat="44.71562934948812" lon="9.65045337631821"><ele>1272.0</ele><time>2026-03-28T10:13:55.998Z</time></trkpt><trkpt lat="44.715669127228374" lon="9.650372988888138"><ele>1272.0</ele><time>2026-03-28T10:13:56.998Z</time></trkpt><trkpt lat="44.71569488931265" lon="9.650273121591335"><ele>1272.0</ele><time>2026-03-28T10:13:57.998Z</time></trkpt><trkpt lat="44.715714157817594" lon="9.650175386069819"><ele>1272.0</ele><time>2026-03-28T10:13:58.998Z</time></trkpt><trkpt lat="44.71571837515924" lon="9.650084434789386"><ele>1272.0</ele><time>2026-03-28T10:13:59.998Z</time></trkpt><trkpt lat="44.715710506146415" lon="9.649992248903574"><ele>1272.0</ele><time>2026-03-28T10:14:00.998Z</time></trkpt><trkpt lat="44.715693681575985" lon="9.649903155948406"><ele>1270.3333333333333</ele><time>2026-03-28T10:14:01.998Z</time></trkpt><trkpt lat="44.71565892558021" lon="9.649802864449985"><ele>1268.6666666666667</ele><time>2026-03-28T10:14:02.998Z</time></trkpt><trkpt lat="44.715628167531314" lon="9.649700790516677"><ele>1267.0</ele><time>2026-03-28T10:14:03.998Z</time></trkpt><trkpt lat="44.71559447128897" lon="9.649592786976495"><ele>1265.3333333333335</ele><time>2026-03-28T10:14:05Z</time></trkpt><trkpt lat="44.715564347163394" lon="9.649476848750146"><ele>1263.6666666666667</ele><time>2026-03-28T10:14:06Z</time></trkpt><trkpt lat="44.7155318786047" lon="9.649356963133213"><ele>1262.0</ele><time>2026-03-28T10:14:07Z</time></trkpt><trkpt lat="44.71549984091563" lon="9.649241455467505"><ele>1262.0</ele><time>2026-03-28T10:14:08Z</time></trkpt><trkpt lat="44.71547099900131" lon="9.649123784450852"><ele>1262.0</ele><time>2026-03-28T10:14:09Z</time></trkpt><trkpt lat="44.715442126756344" lon="9.649009073705649"><ele>1262.0</ele><time>2026-03-28T10:14:10Z</time></trkpt><trkpt lat="44.7154109387665" lon="9.648892413797908"><ele>1262.0</ele><time>2026-03-28T10:14:11Z</time></trkpt><trkpt lat="44.715382046383986" lon="9.648775311745288"><ele>1262.0</ele><time>2026-03-28T10:14:12Z</time></trkpt><trkpt lat="44.71535066730421" lon="9.648658339311591"><ele>1262.0</ele><time>2026-03-28T10:14:13Z</time></trkpt><trkpt lat="44.71533306725448" lon="9.64854337892786"><ele>1262.8333333333335</ele><time>2026-03-28T10:14:14Z</time></trkpt><trkpt lat="44.71532230656535" lon="9.648428603747728"><ele>1263.6666666666667</ele><time>2026-03-28T10:14:15Z</time></trkpt><trkpt lat="44.71531457788397" lon="9.648312186540547"><ele>1264.5</ele><time>2026-03-28T10:14:16Z</time></trkpt><trkpt lat="44.71530709660778" lon="9.648193843426688"><ele>1265.3333333333333</ele><time>2026-03-28T10:14:17Z</time></trkpt><trkpt lat="44.71530757633227" lon="9.64807632330075"><ele>1266.1666666666665</ele><time>2026-03-28T10:14:18Z</time></trkpt><trkpt lat="44.71531471607916" lon="9.647963791064818"><ele>1267.0</ele><time>2026-03-28T10:14:19Z</time></trkpt><trkpt lat="44.71533507363988" lon="9.647851922415436"><ele>1265.2</ele><time>2026-03-28T10:14:20Z</time></trkpt><trkpt lat="44.715361054536054" lon="9.647738016821153"><ele>1263.4</ele><time>2026-03-28T10:14:21Z</time></trkpt><trkpt lat="44.71538988929593" lon="9.647625059961074"><ele>1261.6</ele><time>2026-03-28T10:14:22Z</time></trkpt><trkpt lat="44.71541748583091" lon="9.647504138272655"><ele>1259.8</ele><time>2026-03-28T10:14:23Z</time></trkpt><trkpt lat="44.71544721913574" lon="9.647380272331347"><ele>1258.0</ele><time>2026-03-28T10:14:24Z</time></trkpt><trkpt lat="44.71548042118263" lon="9.647253207888532"><ele>1258.0</ele><time>2026-03-28T10:14:25Z</time></trkpt><trkpt lat="44.7155093322907" lon="9.647118937169344"><ele>1258.0</ele><time>2026-03-28T10:14:26Z</time></trkpt><trkpt lat="44.7155466182685" lon="9.646981926010783"><ele>1258.0</ele><time>2026-03-28T10:14:27Z</time></trkpt><trkpt lat="44.71558027443109" lon="9.64684272279369"><ele>1258.0</ele><time>2026-03-28T10:14:28Z</time></trkpt><trkpt lat="44.71560564081143" lon="9.646694603127047"><ele>1258.0</ele><time>2026-03-28T10:14:29Z</time></trkpt><trkpt lat="44.715623844759456" lon="9.646541765810758"><ele>1256.4</ele><time>2026-03-28T10:14:30Z</time></trkpt><trkpt lat="44.71562531566105" lon="9.646385489439353"><ele>1254.8</ele><time>2026-03-28T10:14:30.999Z</time></trkpt><trkpt lat="44.71560557492225" lon="9.64623133577852"><ele>1253.2</ele><time>2026-03-28T10:14:31.999Z</time></trkpt><trkpt lat="44.71558450052898" lon="9.646077561473728"><ele>1251.6</ele><time>2026-03-28T10:14:32.999Z</time></trkpt><trkpt lat="44.71556351313362" lon="9.645921702909362"><ele>1250.0</ele><time>2026-03-28T10:14:33.999Z</time></trkpt><trkpt lat="44.7155429743566" lon="9.645768495149193"><ele>1249.6</ele><time>2026-03-28T10:14:34.999Z</time></trkpt><trkpt lat="44.71552642199664" lon="9.645615267517753"><ele>1249.2</ele><time>2026-03-28T10:14:35.999Z</time></trkpt><trkpt lat="44.71550523116494" lon="9.645461124835668"><ele>1248.8</ele><time>2026-03-28T10:14:36.999Z</time></trkpt><trkpt lat="44.71548081744288" lon="9.645312300657725"><ele>1248.4</ele><time>2026-03-28T10:14:37.999Z</time></trkpt><trkpt lat="44.715461786517054" lon="9.645160000403752"><ele>1248.0</ele><time>2026-03-28T10:14:38.999Z</time></trkpt><trkpt lat="44.71544058075608" lon="9.645004134782203"><ele>1248.0</ele><time>2026-03-28T10:14:39.999Z</time></trkpt><trkpt lat="44.71541133931642" lon="9.644853420969234"><ele>1248.0</ele><time>2026-03-28T10:14:40.999Z</time></trkpt><trkpt lat="44.71538530295066" lon="9.644700764992901"><ele>1248.0</ele><time>2026-03-28T10:14:41.999Z</time></trkpt><trkpt lat="44.71536331857665" lon="9.644549562307462"><ele>1248.0</ele><time>2026-03-28T10:14:42.999Z</time></trkpt><trkpt lat="44.71534128608041" lon="9.644399848623602"><ele>1248.0</ele><time>2026-03-28T10:14:43.999Z</time></trkpt><trkpt lat="44.7153302865096" lon="9.644253160364132"><ele>1248.2</ele><time>2026-03-28T10:14:44.999Z</time></trkpt><trkpt lat="44.715315448312296" lon="9.644105559566984"><ele>1248.4</ele><time>2026-03-28T10:14:45.999Z</time></trkpt><trkpt lat="44.715294703672136" lon="9.643965006199776"><ele>1248.6000000000001</ele><time>2026-03-28T10:14:46.999Z</time></trkpt><trkpt lat="44.71525448662784" lon="9.643837729800167"><ele>1248.8</ele><time>2026-03-28T10:14:47.999Z</time></trkpt><trkpt lat="44.715204160462" lon="9.643712185849415"><ele>1249.0</ele><time>2026-03-28T10:14:48.999Z</time></trkpt><trkpt lat="44.715127549389145" lon="9.643605070509015"><ele>1245.6000000000001</ele><time>2026-03-28T10:14:49.999Z</time></trkpt><trkpt lat="44.715038982802966" lon="9.643521982674034"><ele>1242.2</ele><time>2026-03-28T10:14:50.999Z</time></trkpt><trkpt lat="44.714942438095754" lon="9.6434517983417"><ele>1238.8000000000002</ele><time>2026-03-28T10:14:51.999Z</time></trkpt><trkpt lat="44.714841860688686" lon="9.64338596405031"><ele>1235.4</ele><time>2026-03-28T10:14:52.999Z</time></trkpt><trkpt lat="44.714738087624085" lon="9.64332272650388"><ele>1232.0</ele><time>2026-03-28T10:14:53.999Z</time></trkpt><trkpt lat="44.71463447764121" lon="9.643264405813936"><ele>1232.0</ele><time>2026-03-28T10:14:54.999Z</time></trkpt><trkpt lat="44.71451992031638" lon="9.643208279620943"><ele>1232.0</ele><time>2026-03-28T10:14:55.999Z</time></trkpt><trkpt lat="44.71440766094646" lon="9.643162741930155"><ele>1232.0</ele><time>2026-03-28T10:14:56.999Z</time></trkpt><trkpt lat="44.71430061811054" lon="9.643119617544015"><ele>1232.0</ele><time>2026-03-28T10:14:57.999Z</time></trkpt><trkpt lat="44.7142032810009" lon="9.643078137838662"><ele>1229.2</ele><time>2026-03-28T10:14:58.999Z</time></trkpt><trkpt lat="44.71412235572545" lon="9.643045926378273"><ele>1226.4</ele><time>2026-03-28T10:14:59.999Z</time></trkpt><trkpt lat="44.714068543442266" lon="9.642939365769067"><ele>1223.6</ele><time>2026-03-28T10:15:00.999Z</time></trkpt><trkpt lat="44.71402636906916" lon="9.642806388637315"><ele>1220.8</ele><time>2026-03-28T10:15:01.999Z</time></trkpt><trkpt lat="44.71398533451394" lon="9.642667209917677"><ele>1218.0</ele><time>2026-03-28T10:15:02.999Z</time></trkpt><trkpt lat="44.71394126660399" lon="9.642520356667879"><ele>1218.0</ele><time>2026-03-28T10:15:03.999Z</time></trkpt><trkpt lat="44.713891244122955" lon="9.642365974124667"><ele>1218.0</ele><time>2026-03-28T10:15:04.999Z</time></trkpt><trkpt lat="44.71384298750889" lon="9.64220743539162"><ele>1218.0</ele><time>2026-03-28T10:15:05.999Z</time></trkpt><trkpt lat="44.71380078093218" lon="9.642051405186383"><ele>1218.0</ele><time>2026-03-28T10:15:06.999Z</time></trkpt><trkpt lat="44.71377561108777" lon="9.641893292624088"><ele>1216.8</ele><time>2026-03-28T10:15:07.999Z</time></trkpt><trkpt lat="44.713766062671375" lon="9.641745773857213"><ele>1215.6</ele><time>2026-03-28T10:15:08.999Z</time></trkpt><trkpt lat="44.7137811818781" lon="9.64160192881165"><ele>1214.4</ele><time>2026-03-28T10:15:09.999Z</time></trkpt><trkpt lat="44.71382513782137" lon="9.641465928243365"><ele>1213.2</ele><time>2026-03-28T10:15:10.999Z</time></trkpt><trkpt lat="44.71388670957047" lon="9.641344122536244"><ele>1212.0</ele><time>2026-03-28T10:15:11.999Z</time></trkpt><trkpt lat="44.71394941208587" lon="9.641222429304367"><ele>1209.2</ele><time>2026-03-28T10:15:12.999Z</time></trkpt><trkpt lat="44.71400846633365" lon="9.641092759505195"><ele>1206.4</ele><time>2026-03-28T10:15:13.999Z</time></trkpt><trkpt lat="44.71405811107264" lon="9.64096585880438"><ele>1203.6</ele><time>2026-03-28T10:15:14.999Z</time></trkpt><trkpt lat="44.71408654868916" lon="9.640834509899586"><ele>1200.8</ele><time>2026-03-28T10:15:15.999Z</time></trkpt><trkpt lat="44.714077951486715" lon="9.64069685834492"><ele>1198.0</ele><time>2026-03-28T10:15:16.999Z</time></trkpt><trkpt lat="44.71402980802506" lon="9.640564904750134"><ele>1198.0</ele><time>2026-03-28T10:15:17.999Z</time></trkpt><trkpt lat="44.71397250258055" lon="9.640442465213743"><ele>1198.0</ele><time>2026-03-28T10:15:18.999Z</time></trkpt><trkpt lat="44.713909866652116" lon="9.640326160164348"><ele>1198.0</ele><time>2026-03-28T10:15:19.999Z</time></trkpt><trkpt lat="44.71385272708928" lon="9.640209710855125"><ele>1198.0</ele><time>2026-03-28T10:15:20.999Z</time></trkpt><trkpt lat="44.71378875874673" lon="9.640092843784943"><ele>1198.0</ele><time>2026-03-28T10:15:21.999Z</time></trkpt><trkpt lat="44.7137363186594" lon="9.639963887967022"><ele>1196.8</ele><time>2026-03-28T10:15:22.999Z</time></trkpt><trkpt lat="44.7136727774419" lon="9.639843374053086"><ele>1195.6</ele><time>2026-03-28T10:15:23.999Z</time></trkpt><trkpt lat="44.713607183216695" lon="9.63971896634869"><ele>1194.4</ele><time>2026-03-28T10:15:24.998Z</time></trkpt><trkpt lat="44.71354300554411" lon="9.639591268393813"><ele>1193.2</ele><time>2026-03-28T10:15:25.998Z</time></trkpt><trkpt lat="44.71346898323875" lon="9.639470422175595"><ele>1192.0</ele><time>2026-03-28T10:15:26.998Z</time></trkpt><trkpt lat="44.713408740225965" lon="9.639337260433532"><ele>1191.5</ele><time>2026-03-28T10:15:27.998Z</time></trkpt><trkpt lat="44.713349013681075" lon="9.639200243499454"><ele>1191.0</ele><time>2026-03-28T10:15:28.998Z</time></trkpt><trkpt lat="44.71328235571956" lon="9.639064999864212"><ele>1190.5</ele><time>2026-03-28T10:15:29.998Z</time></trkpt><trkpt lat="44.71322142560374" lon="9.638929221431269"><ele>1190.0</ele><time>2026-03-28T10:15:30.998Z</time></trkpt><trkpt lat="44.71315770108398" lon="9.63879481188043"><ele>1190.0</ele><time>2026-03-28T10:15:31.998Z</time></trkpt><trkpt lat="44.713101691850135" lon="9.638662373045783"><ele>1190.0</ele><time>2026-03-28T10:15:32.998Z</time></trkpt><trkpt lat="44.71302834826025" lon="9.638551122358498"><ele>1190.0</ele><time>2026-03-28T10:15:33.998Z</time></trkpt><trkpt lat="44.7129352429966" lon="9.638462755977317"><ele>1190.0</ele><time>2026-03-28T10:15:34.998Z</time></trkpt><trkpt lat="44.7128225471018" lon="9.638418994705862"><ele>1190.0</ele><time>2026-03-28T10:15:35.998Z</time></trkpt><trkpt lat="44.71271279033064" lon="9.638412127122471"><ele>1188.8</ele><time>2026-03-28T10:15:36.998Z</time></trkpt><trkpt lat="44.712608468214256" lon="9.638409842562016"><ele>1187.6</ele><time>2026-03-28T10:15:37.998Z</time></trkpt><trkpt lat="44.712508716110214" lon="9.638402455403247"><ele>1186.4</ele><time>2026-03-28T10:15:38.998Z</time></trkpt><trkpt lat="44.71241040051368" lon="9.638376329572523"><ele>1185.2</ele><time>2026-03-28T10:15:39.998Z</time></trkpt><trkpt lat="44.71231677586648" lon="9.63831855626198"><ele>1184.0</ele><time>2026-03-28T10:15:40.998Z</time></trkpt><trkpt lat="44.71223098679113" lon="9.638237890853297"><ele>1184.0</ele><time>2026-03-28T10:15:41.998Z</time></trkpt><trkpt lat="44.71215536758557" lon="9.638130403514499"><ele>1184.0</ele><time>2026-03-28T10:15:42.998Z</time></trkpt><trkpt lat="44.712083045179874" lon="9.638007112807376"><ele>1184.0</ele><time>2026-03-28T10:15:43.998Z</time></trkpt><trkpt lat="44.71200614128586" lon="9.637876040175327"><ele>1184.0</ele><time>2026-03-28T10:15:44.998Z</time></trkpt><trkpt lat="44.71192974080915" lon="9.637740319283408"><ele>1181.5</ele><time>2026-03-28T10:15:45.998Z</time></trkpt><trkpt lat="44.71185043871802" lon="9.637599270055173"><ele>1179.0</ele><time>2026-03-28T10:15:46.998Z</time></trkpt><trkpt lat="44.711769452158244" lon="9.637455224775264"><ele>1176.5</ele><time>2026-03-28T10:15:47.998Z</time></trkpt><trkpt lat="44.711671586518484" lon="9.637323672726176"><ele>1174.0</ele><time>2026-03-28T10:15:48.998Z</time></trkpt><trkpt lat="44.71158290255011" lon="9.6371772452211"><ele>1174.0</ele><time>2026-03-28T10:15:49.998Z</time></trkpt><trkpt lat="44.71147162640455" lon="9.637071205059584"><ele>1174.0</ele><time>2026-03-28T10:15:50.998Z</time></trkpt><trkpt lat="44.71136020765422" lon="9.636979859429923"><ele>1174.0</ele><time>2026-03-28T10:15:51.998Z</time></trkpt><trkpt lat="44.71125503147268" lon="9.636871511347627"><ele>1174.0</ele><time>2026-03-28T10:15:52.998Z</time></trkpt><trkpt lat="44.71114260085336" lon="9.636768454944026"><ele>1170.0</ele><time>2026-03-28T10:15:53.998Z</time></trkpt><trkpt lat="44.71103851318003" lon="9.63664531406861"><ele>1166.0</ele><time>2026-03-28T10:15:54.998Z</time></trkpt><trkpt lat="44.71094180506336" lon="9.636509761343031"><ele>1162.0</ele><time>2026-03-28T10:15:55.998Z</time></trkpt><trkpt lat="44.71083410092473" lon="9.636390315723103"><ele>1158.0</ele><time>2026-03-28T10:15:56.998Z</time></trkpt><trkpt lat="44.71072040904065" lon="9.636290380978688"><ele>1158.0</ele><time>2026-03-28T10:15:57.998Z</time></trkpt><trkpt lat="44.71062626788596" lon="9.636156726035395"><ele>1158.0</ele><time>2026-03-28T10:15:58.998Z</time></trkpt><trkpt lat="44.71054766704108" lon="9.63600269394227"><ele>1158.0</ele><time>2026-03-28T10:15:59.998Z</time></trkpt><trkpt lat="44.710477692516484" lon="9.635844696540484"><ele>1158.0</ele><time>2026-03-28T10:16:00.998Z</time></trkpt><trkpt lat="44.71040120239992" lon="9.63569683699623"><ele>1158.25</ele><time>2026-03-28T10:16:01.998Z</time></trkpt><trkpt lat="44.71032855257161" lon="9.635541700011236"><ele>1158.5</ele><time>2026-03-28T10:16:02.998Z</time></trkpt><trkpt lat="44.7102305985999" lon="9.635417116617171"><ele>1158.75</ele><time>2026-03-28T10:16:03.998Z</time></trkpt><trkpt lat="44.710112519498516" lon="9.635326032791504"><ele>1159.0</ele><time>2026-03-28T10:16:04.998Z</time></trkpt><trkpt lat="44.70999461610285" lon="9.635258681340467"><ele>1159.0</ele><time>2026-03-28T10:16:05.998Z</time></trkpt><trkpt lat="44.7098893651415" lon="9.635199194556632"><ele>1159.0</ele><time>2026-03-28T10:16:06.998Z</time></trkpt><trkpt lat="44.709799980290775" lon="9.635145581726034"><ele>1159.0</ele><time>2026-03-28T10:16:07.998Z</time></trkpt><trkpt lat="44.709731949119195" lon="9.635053300820681"><ele>1159.0</ele><time>2026-03-28T10:16:08.998Z</time></trkpt><trkpt lat="44.70964041456849" lon="9.63499561113365"><ele>1159.0</ele><time>2026-03-28T10:16:09.998Z</time></trkpt><trkpt lat="44.709526901565575" lon="9.63500447101269"><ele>1159.0</ele><time>2026-03-28T10:16:11Z</time></trkpt><trkpt lat="44.70941810885717" lon="9.635044461666492"><ele>1159.0</ele><time>2026-03-28T10:16:12Z</time></trkpt><trkpt lat="44.70931553294276" lon="9.635084263228121"><ele>1159.0</ele><time>2026-03-28T10:16:13Z</time></trkpt><trkpt lat="44.70921869181667" lon="9.635115965603392"><ele>1159.0</ele><time>2026-03-28T10:16:14Z</time></trkpt><trkpt lat="44.70912638482688" lon="9.635146363110206"><ele>1159.0</ele><time>2026-03-28T10:16:15Z</time></trkpt><trkpt lat="44.70903536906926" lon="9.635181227278043"><ele>1155.7142857142858</ele><time>2026-03-28T10:16:16Z</time></trkpt><trkpt lat="44.70896219858162" lon="9.63523501239244"><ele>1152.4285714285716</ele><time>2026-03-28T10:16:17Z</time></trkpt><trkpt lat="44.70891164140849" lon="9.635317801012196"><ele>1149.142857142857</ele><time>2026-03-28T10:16:18Z</time></trkpt><trkpt lat="44.7089140430538" lon="9.635432615873029"><ele>1145.857142857143</ele><time>2026-03-28T10:16:19Z</time></trkpt><trkpt lat="44.708952621363665" lon="9.635515133741725"><ele>1142.5714285714284</ele><time>2026-03-28T10:16:20Z</time></trkpt><trkpt lat="44.70899799088786" lon="9.635581825675578"><ele>1139.2857142857142</ele><time>2026-03-28T10:16:21Z</time></trkpt><trkpt lat="44.70906212072644" lon="9.635618157884567"><ele>1136.0</ele><time>2026-03-28T10:16:22Z</time></trkpt><trkpt lat="44.70913728868498" lon="9.635626849234267"><ele>1136.0</ele><time>2026-03-28T10:16:23Z</time></trkpt><trkpt lat="44.709217746417316" lon="9.635622729275362"><ele>1136.0</ele><time>2026-03-28T10:16:24Z</time></trkpt><trkpt lat="44.709300650989285" lon="9.635621372121063"><ele>1136.0</ele><time>2026-03-28T10:16:25Z</time></trkpt><trkpt lat="44.70938473967095" lon="9.635650492536406"><ele>1136.0</ele><time>2026-03-28T10:16:26Z</time></trkpt><trkpt lat="44.7094634067375" lon="9.635706496482639"><ele>1136.0</ele><time>2026-03-28T10:16:27Z</time></trkpt><trkpt lat="44.709526389109605" lon="9.635772539717852"><ele>1136.0</ele><time>2026-03-28T10:16:28Z</time></trkpt><trkpt lat="44.709571553328" lon="9.63584797034036"><ele>1136.0</ele><time>2026-03-28T10:16:29Z</time></trkpt><trkpt lat="44.70959339046771" lon="9.635931103158926"><ele>1136.0</ele><time>2026-03-28T10:16:30Z</time></trkpt><trkpt lat="44.70956387745576" lon="9.636024546131654"><ele>1136.0</ele><time>2026-03-28T10:16:31Z</time></trkpt><trkpt lat="44.709519387535046" lon="9.636104519057374"><ele>1136.0</ele><time>2026-03-28T10:16:32Z</time></trkpt><trkpt lat="44.709481052590064" lon="9.636190074318982"><ele>1136.0</ele><time>2026-03-28T10:16:33Z</time></trkpt><trkpt lat="44.709444190967645" lon="9.636267760533649"><ele>1136.0</ele><time>2026-03-28T10:16:34Z</time></trkpt><trkpt lat="44.7093776710814" lon="9.636322020700177"><ele>1136.0</ele><time>2026-03-28T10:16:36Z</time></trkpt><trkpt lat="44.70929221340302" lon="9.636254592963054"><ele>1134.6666666666667</ele><time>2026-03-28T10:16:37.999Z</time></trkpt><trkpt lat="44.70922360756498" lon="9.636214606622827"><ele>1133.3333333333335</ele><time>2026-03-28T10:16:38.999Z</time></trkpt><trkpt lat="44.70913307656434" lon="9.636201933819478"><ele>1132.0</ele><time>2026-03-28T10:16:39.999Z</time></trkpt><trkpt lat="44.70904914422578" lon="9.63621212635559"><ele>1130.6666666666667</ele><time>2026-03-28T10:16:40.999Z</time></trkpt><trkpt lat="44.70897417522503" lon="9.6362252012101"><ele>1129.3333333333333</ele><time>2026-03-28T10:16:41.999Z</time></trkpt><trkpt lat="44.70889551962178" lon="9.636240766853716"><ele>1128.0</ele><time>2026-03-28T10:16:42.999Z</time></trkpt><trkpt lat="44.70881931539779" lon="9.63625893378756"><ele>1128.0</ele><time>2026-03-28T10:16:43.999Z</time></trkpt><trkpt lat="44.708735100009484" lon="9.63627907235778"><ele>1128.0</ele><time>2026-03-28T10:16:44.999Z</time></trkpt><trkpt lat="44.708653408243336" lon="9.636300592746673"><ele>1128.0</ele><time>2026-03-28T10:16:45.999Z</time></trkpt><trkpt lat="44.70857650227733" lon="9.636331432998237"><ele>1128.0</ele><time>2026-03-28T10:16:46.999Z</time></trkpt><trkpt lat="44.70846158361876" lon="9.63631430736101"><ele>1128.0</ele><time>2026-03-28T10:16:48.999Z</time></trkpt><trkpt lat="44.70841960846449" lon="9.636157735468855"><ele>1126.6666666666667</ele><time>2026-03-28T10:16:50.999Z</time></trkpt><trkpt lat="44.70843038908866" lon="9.63605273365569"><ele>1125.3333333333333</ele><time>2026-03-28T10:16:51.999Z</time></trkpt><trkpt lat="44.7084335400916" lon="9.635939422611921"><ele>1124.0</ele><time>2026-03-28T10:16:52.999Z</time></trkpt><trkpt lat="44.708455498109565" lon="9.635822784563748"><ele>1122.6666666666665</ele><time>2026-03-28T10:16:53.999Z</time></trkpt><trkpt lat="44.70845413625005" lon="9.635688753695266"><ele>1121.3333333333333</ele><time>2026-03-28T10:16:54.999Z</time></trkpt><trkpt lat="44.70842132518547" lon="9.635548809988602"><ele>1120.0</ele><time>2026-03-28T10:16:55.999Z</time></trkpt><trkpt lat="44.70834915568606" lon="9.635423967578737"><ele>1120.0</ele><time>2026-03-28T10:16:56.999Z</time></trkpt><trkpt lat="44.70825920500785" lon="9.63533549928516"><ele>1120.0</ele><time>2026-03-28T10:16:57.999Z</time></trkpt><trkpt lat="44.70816394839221" lon="9.635275106750202"><ele>1120.0</ele><time>2026-03-28T10:16:58.999Z</time></trkpt><trkpt lat="44.70807631947025" lon="9.635221453563872"><ele>1120.0</ele><time>2026-03-28T10:16:59.999Z</time></trkpt><trkpt lat="44.70799217459728" lon="9.63516993358917"><ele>1120.0</ele><time>2026-03-28T10:17:00.999Z</time></trkpt><trkpt lat="44.70790411712063" lon="9.635121451613685"><ele>1120.6</ele><time>2026-03-28T10:17:01.999Z</time></trkpt><trkpt lat="44.707817398739614" lon="9.63507779644367"><ele>1121.2</ele><time>2026-03-28T10:17:02.999Z</time></trkpt><trkpt lat="44.70773152218955" lon="9.635025392440598"><ele>1121.8</ele><time>2026-03-28T10:17:03.999Z</time></trkpt><trkpt lat="44.707639125393854" lon="9.634972047910038"><ele>1122.4</ele><time>2026-03-28T10:17:04.999Z</time></trkpt><trkpt lat="44.70753642031947" lon="9.63493403693222"><ele>1123.0</ele><time>2026-03-28T10:17:05.999Z</time></trkpt><trkpt lat="44.70742830974514" lon="9.63493275804696"><ele>1120.8</ele><time>2026-03-28T10:17:06.999Z</time></trkpt><trkpt lat="44.70732531288441" lon="9.634940481912778"><ele>1118.6</ele><time>2026-03-28T10:17:07.999Z</time></trkpt><trkpt lat="44.70722491020613" lon="9.634947871070421"><ele>1116.4</ele><time>2026-03-28T10:17:08.999Z</time></trkpt><trkpt lat="44.70712518757373" lon="9.634940105213744"><ele>1114.2</ele><time>2026-03-28T10:17:09.999Z</time></trkpt><trkpt lat="44.70702188459756" lon="9.634914082511344"><ele>1112.0</ele><time>2026-03-28T10:17:10.999Z</time></trkpt><trkpt lat="44.706907179860174" lon="9.634890971998093"><ele>1109.6666666666667</ele><time>2026-03-28T10:17:11.999Z</time></trkpt><trkpt lat="44.706799080544236" lon="9.634864779474203"><ele>1107.3333333333335</ele><time>2026-03-28T10:17:12.999Z</time></trkpt><trkpt lat="44.70671398383321" lon="9.63481749263045"><ele>1105.0</ele><time>2026-03-28T10:17:13.999Z</time></trkpt><trkpt lat="44.70664588327025" lon="9.634754206792689"><ele>1102.6666666666667</ele><time>2026-03-28T10:17:14.999Z</time></trkpt><trkpt lat="44.7065894621902" lon="9.634686892688391"><ele>1100.3333333333333</ele><time>2026-03-28T10:17:15.999Z</time></trkpt><trkpt lat="44.706585970177954" lon="9.634583975203212"><ele>1098.0</ele><time>2026-03-28T10:17:16.999Z</time></trkpt><trkpt lat="44.706627183443956" lon="9.634485550893304"><ele>1098.0</ele><time>2026-03-28T10:17:17.999Z</time></trkpt><trkpt lat="44.70669722987062" lon="9.63441175178943"><ele>1098.0</ele><time>2026-03-28T10:17:18.999Z</time></trkpt><trkpt lat="44.70676895213827" lon="9.634341206791799"><ele>1098.0</ele><time>2026-03-28T10:17:19.999Z</time></trkpt><trkpt lat="44.706822179030596" lon="9.634247574327734"><ele>1098.0</ele><time>2026-03-28T10:17:20.999Z</time></trkpt><trkpt lat="44.70685142365774" lon="9.634127261239442"><ele>1098.0</ele><time>2026-03-28T10:17:21.999Z</time></trkpt><trkpt lat="44.706860065583726" lon="9.633991758458665"><ele>1098.0</ele><time>2026-03-28T10:17:22.999Z</time></trkpt><trkpt lat="44.706838533850046" lon="9.633861286605367"><ele>1098.0</ele><time>2026-03-28T10:17:23.999Z</time></trkpt><trkpt lat="44.70680582284277" lon="9.63372380568232"><ele>1098.0</ele><time>2026-03-28T10:17:24.999Z</time></trkpt><trkpt lat="44.706749329033045" lon="9.633604417708456"><ele>1098.0</ele><time>2026-03-28T10:17:25.999Z</time></trkpt><trkpt lat="44.706701853526795" lon="9.633487448545706"><ele>1098.0</ele><time>2026-03-28T10:17:26.999Z</time></trkpt><trkpt lat="44.706659375107336" lon="9.63336747080003"><ele>1098.0</ele><time>2026-03-28T10:17:27.999Z</time></trkpt><trkpt lat="44.7066358093788" lon="9.63324905512421"><ele>1096.4</ele><time>2026-03-28T10:17:28.999Z</time></trkpt><trkpt lat="44.70661244115882" lon="9.633126765413738"><ele>1094.8</ele><time>2026-03-28T10:17:29.999Z</time></trkpt><trkpt lat="44.70661605732172" lon="9.632995527653573"><ele>1093.2</ele><time>2026-03-28T10:17:30.998Z</time></trkpt><trkpt lat="44.70662024506864" lon="9.632862888700942"><ele>1091.6</ele><time>2026-03-28T10:17:31.998Z</time></trkpt><trkpt lat="44.706633346321496" lon="9.632723457439825"><ele>1090.0</ele><time>2026-03-28T10:17:32.998Z</time></trkpt><trkpt lat="44.70659803366964" lon="9.63257767515148"><ele>1089.2</ele><time>2026-03-28T10:17:33.998Z</time></trkpt><trkpt lat="44.70654822282892" lon="9.632444279092907"><ele>1088.4</ele><time>2026-03-28T10:17:34.998Z</time></trkpt><trkpt lat="44.70650272491804" lon="9.63232359571559"><ele>1087.6</ele><time>2026-03-28T10:17:35.998Z</time></trkpt><trkpt lat="44.70648207233175" lon="9.632191152782639"><ele>1086.8</ele><time>2026-03-28T10:17:36.998Z</time></trkpt><trkpt lat="44.706465345942355" lon="9.632064461075762"><ele>1086.0</ele><time>2026-03-28T10:17:37.998Z</time></trkpt><trkpt lat="44.70647186170412" lon="9.631940834762212"><ele>1085.3999999999999</ele><time>2026-03-28T10:17:38.998Z</time></trkpt><trkpt lat="44.70648169906861" lon="9.631813687501392"><ele>1084.8</ele><time>2026-03-28T10:17:39.998Z</time></trkpt><trkpt lat="44.70649881040433" lon="9.631687567174634"><ele>1084.1999999999998</ele><time>2026-03-28T10:17:40.998Z</time></trkpt><trkpt lat="44.7065006080207" lon="9.631564134989059"><ele>1083.6</ele><time>2026-03-28T10:17:41.998Z</time></trkpt><trkpt lat="44.70649085747789" lon="9.631433159208232"><ele>1083.0</ele><time>2026-03-28T10:17:42.998Z</time></trkpt><trkpt lat="44.706437049409274" lon="9.631309666657677"><ele>1083.0</ele><time>2026-03-28T10:17:43.998Z</time></trkpt><trkpt lat="44.70635331766158" lon="9.631215504595346"><ele>1083.0</ele><time>2026-03-28T10:17:44.998Z</time></trkpt><trkpt lat="44.70626385378932" lon="9.63114748412518"><ele>1083.0</ele><time>2026-03-28T10:17:45.998Z</time></trkpt><trkpt lat="44.706155522649304" lon="9.631117574009062"><ele>1083.0</ele><time>2026-03-28T10:17:46.998Z</time></trkpt><trkpt lat="44.70604769602348" lon="9.631125212484449"><ele>1083.0</ele><time>2026-03-28T10:17:47.998Z</time></trkpt><trkpt lat="44.70594943939305" lon="9.631110973917396"><ele>1080.6</ele><time>2026-03-28T10:17:48.998Z</time></trkpt><trkpt lat="44.70584779816074" lon="9.631087708660806"><ele>1078.1999999999998</ele><time>2026-03-28T10:17:49.998Z</time></trkpt><trkpt lat="44.70574479525996" lon="9.63106096976572"><ele>1075.8</ele><time>2026-03-28T10:17:50.998Z</time></trkpt><trkpt lat="44.705640786877375" lon="9.631032240897706"><ele>1073.3999999999999</ele><time>2026-03-28T10:17:51.998Z</time></trkpt><trkpt lat="44.70554166357351" lon="9.630995891446918"><ele>1071.0</ele><time>2026-03-28T10:17:52.998Z</time></trkpt><trkpt lat="44.70544304243212" lon="9.630949453948421"><ele>1071.0</ele><time>2026-03-28T10:17:53.998Z</time></trkpt><trkpt lat="44.70534707776655" lon="9.630892500276063"><ele>1071.0</ele><time>2026-03-28T10:17:54.998Z</time></trkpt><trkpt lat="44.70526469913228" lon="9.630833696387663"><ele>1071.0</ele><time>2026-03-28T10:17:55.998Z</time></trkpt><trkpt lat="44.70519641223475" lon="9.630767991166081"><ele>1071.0</ele><time>2026-03-28T10:17:56.998Z</time></trkpt><trkpt lat="44.705145727146665" lon="9.63068020656829"><ele>1071.0</ele><time>2026-03-28T10:17:57.998Z</time></trkpt><trkpt lat="44.70510750747199" lon="9.630579665926447"><ele>1071.0</ele><time>2026-03-28T10:17:58.998Z</time></trkpt><trkpt lat="44.70511298895309" lon="9.630448363271434"><ele>1067.0</ele><time>2026-03-28T10:17:59.998Z</time></trkpt><trkpt lat="44.70514190406634" lon="9.630307964068077"><ele>1063.0</ele><time>2026-03-28T10:18:00.998Z</time></trkpt><trkpt lat="44.705166794791424" lon="9.630158384731955"><ele>1059.0</ele><time>2026-03-28T10:18:01.998Z</time></trkpt><trkpt lat="44.705187824745195" lon="9.630005470257666"><ele>1055.0</ele><time>2026-03-28T10:18:02.998Z</time></trkpt><trkpt lat="44.70520493268659" lon="9.629847325597057"><ele>1051.0</ele><time>2026-03-28T10:18:03.998Z</time></trkpt><trkpt lat="44.705203635371355" lon="9.629689736805608"><ele>1051.0</ele><time>2026-03-28T10:18:04.998Z</time></trkpt><trkpt lat="44.705207193946435" lon="9.629536698084193"><ele>1051.0</ele><time>2026-03-28T10:18:05.998Z</time></trkpt><trkpt lat="44.70518224006525" lon="9.62938607938466"><ele>1051.0</ele><time>2026-03-28T10:18:06.998Z</time></trkpt><trkpt lat="44.70514109682417" lon="9.629238826937877"><ele>1051.0</ele><time>2026-03-28T10:18:07.998Z</time></trkpt><trkpt lat="44.705093887706596" lon="9.629092325877696"><ele>1051.0</ele><time>2026-03-28T10:18:08.998Z</time></trkpt><trkpt lat="44.705044384500354" lon="9.62895117987409"><ele>1050.3999999999999</ele><time>2026-03-28T10:18:09.998Z</time></trkpt><trkpt lat="44.70499715799371" lon="9.628812805361829"><ele>1049.8</ele><time>2026-03-28T10:18:10.998Z</time></trkpt><trkpt lat="44.704940459212835" lon="9.628684926836135"><ele>1049.1999999999998</ele><time>2026-03-28T10:18:11.998Z</time></trkpt><trkpt lat="44.70490416046088" lon="9.628539483186596"><ele>1048.6</ele><time>2026-03-28T10:18:12.998Z</time></trkpt><trkpt lat="44.70486946527835" lon="9.628402447495139"><ele>1048.0</ele><time>2026-03-28T10:18:13.998Z</time></trkpt><trkpt lat="44.70482927263825" lon="9.628278744736695"><ele>1047.8</ele><time>2026-03-28T10:18:14.998Z</time></trkpt><trkpt lat="44.70479646334669" lon="9.62814831067963"><ele>1047.6</ele><time>2026-03-28T10:18:15.998Z</time></trkpt><trkpt lat="44.70472550145635" lon="9.628030717443975"><ele>1047.4</ele><time>2026-03-28T10:18:17Z</time></trkpt><trkpt lat="44.70462835028723" lon="9.627934752873575"><ele>1047.2</ele><time>2026-03-28T10:18:18Z</time></trkpt><trkpt lat="44.70452494358333" lon="9.62786095707074"><ele>1047.0</ele><time>2026-03-28T10:18:19Z</time></trkpt><trkpt lat="44.70443742352069" lon="9.627795505138751"><ele>1043.6</ele><time>2026-03-28T10:18:20Z</time></trkpt><trkpt lat="44.70435975994951" lon="9.627729999630695"><ele>1040.2</ele><time>2026-03-28T10:18:21Z</time></trkpt><trkpt lat="44.704298419486086" lon="9.627654925417566"><ele>1036.8</ele><time>2026-03-28T10:18:22Z</time></trkpt><trkpt lat="44.704235730558224" lon="9.627558123228857"><ele>1033.4</ele><time>2026-03-28T10:18:23Z</time></trkpt><trkpt lat="44.704201369245986" lon="9.627425179849036"><ele>1030.0</ele><time>2026-03-28T10:18:24Z</time></trkpt><trkpt lat="44.704152897013145" lon="9.627289737392712"><ele>1030.0</ele><time>2026-03-28T10:18:25Z</time></trkpt><trkpt lat="44.704095205291814" lon="9.627184483774593"><ele>1030.0</ele><time>2026-03-28T10:18:26Z</time></trkpt><trkpt lat="44.70404652726048" lon="9.627102885614143"><ele>1030.0</ele><time>2026-03-28T10:18:27Z</time></trkpt><trkpt lat="44.70401874283286" lon="9.6270177144082"><ele>1030.0</ele><time>2026-03-28T10:18:28Z</time></trkpt><trkpt lat="44.703964021713496" lon="9.626949181092803"><ele>1030.0</ele><time>2026-03-28T10:18:29Z</time></trkpt><trkpt lat="44.703877617489596" lon="9.62692945965916"><ele>1030.0</ele><time>2026-03-28T10:18:30Z</time></trkpt><trkpt lat="44.70378667556851" lon="9.627011118553957"><ele>1030.0</ele><time>2026-03-28T10:18:31Z</time></trkpt><trkpt lat="44.703724020319875" lon="9.627103321264164"><ele>1030.0</ele><time>2026-03-28T10:18:32Z</time></trkpt><trkpt lat="44.70365417228081" lon="9.627174882382755"><ele>1030.0</ele><time>2026-03-28T10:18:33Z</time></trkpt><trkpt lat="44.70357965733006" lon="9.627223246658284"><ele>1030.0</ele><time>2026-03-28T10:18:34Z</time></trkpt><trkpt lat="44.70350648926576" lon="9.627250409239814"><ele>1030.0</ele><time>2026-03-28T10:18:35Z</time></trkpt><trkpt lat="44.703437949670516" lon="9.627258469779315"><ele>1030.0</ele><time>2026-03-28T10:18:36Z</time></trkpt><trkpt lat="44.70337594601022" lon="9.627226146584784"><ele>1027.4285714285716</ele><time>2026-03-28T10:18:37Z</time></trkpt><trkpt lat="44.70331336752773" lon="9.627172018839273"><ele>1024.857142857143</ele><time>2026-03-28T10:18:38Z</time></trkpt><trkpt lat="44.703264457374736" lon="9.627095595474357"><ele>1022.2857142857143</ele><time>2026-03-28T10:18:39Z</time></trkpt><trkpt lat="44.70322345775149" lon="9.627019177781573"><ele>1019.7142857142858</ele><time>2026-03-28T10:18:40Z</time></trkpt><trkpt lat="44.703229238294504" lon="9.62692174993643"><ele>1017.1428571428571</ele><time>2026-03-28T10:18:40.999Z</time></trkpt><trkpt lat="44.70326893285899" lon="9.626830066718636"><ele>1014.5714285714287</ele><time>2026-03-28T10:18:41.999Z</time></trkpt><trkpt lat="44.70331948451867" lon="9.626758833162055"><ele>1012.0000000000001</ele><time>2026-03-28T10:18:42.999Z</time></trkpt><trkpt lat="44.70334793071651" lon="9.626678765041728"><ele>1012.0</ele><time>2026-03-28T10:18:43.999Z</time></trkpt><trkpt lat="44.70331746163742" lon="9.626510086918627"><ele>1012.0</ele><time>2026-03-28T10:18:45.999Z</time></trkpt><trkpt lat="44.70321359942656" lon="9.626460973618055"><ele>1012.0</ele><time>2026-03-28T10:18:46.999Z</time></trkpt><trkpt lat="44.70310748391605" lon="9.626514503750935"><ele>1012.0</ele><time>2026-03-28T10:18:47.999Z</time></trkpt><trkpt lat="44.703036346842595" lon="9.626616096166105"><ele>1012.0</ele><time>2026-03-28T10:18:48.999Z</time></trkpt><trkpt lat="44.70300106611751" lon="9.626739390487531"><ele>1011.9999999999999</ele><time>2026-03-28T10:18:49.999Z</time></trkpt><trkpt lat="44.70298859253923" lon="9.626865665366138"><ele>1012.0</ele><time>2026-03-28T10:18:50.999Z</time></trkpt><trkpt lat="44.703015344549286" lon="9.626978684858322"><ele>1012.0</ele><time>2026-03-28T10:18:51.999Z</time></trkpt><trkpt lat="44.703002877777564" lon="9.627072552397012"><ele>1012.0</ele><time>2026-03-28T10:18:52.999Z</time></trkpt><trkpt lat="44.702980243551515" lon="9.627226088259242"><ele>1011.9999999999999</ele><time>2026-03-28T10:18:54.999Z</time></trkpt><trkpt lat="44.70289403483576" lon="9.6271843624172"><ele>1012.0</ele><time>2026-03-28T10:18:56.999Z</time></trkpt><trkpt lat="44.702821406235785" lon="9.62705561154604"><ele>1012.0</ele><time>2026-03-28T10:18:58.999Z</time></trkpt><trkpt lat="44.70278330424893" lon="9.62696991353855"><ele>1012.0</ele><time>2026-03-28T10:18:59.999Z</time></trkpt><trkpt lat="44.70272257049469" lon="9.626872195143736"><ele>1012.0</ele><time>2026-03-28T10:19:00.999Z</time></trkpt><trkpt lat="44.702627384391995" lon="9.626799239354229"><ele>1012.0</ele><time>2026-03-28T10:19:01.999Z</time></trkpt><trkpt lat="44.70250443014112" lon="9.626791978052932"><ele>1012.0</ele><time>2026-03-28T10:19:02.999Z</time></trkpt><trkpt lat="44.702385603114024" lon="9.626842247946488"><ele>1008.6</ele><time>2026-03-28T10:19:03.999Z</time></trkpt><trkpt lat="44.702284162446254" lon="9.626881880409998"><ele>1005.2</ele><time>2026-03-28T10:19:04.999Z</time></trkpt><trkpt lat="44.70218894426473" lon="9.626907932353884"><ele>1001.8</ele><time>2026-03-28T10:19:05.999Z</time></trkpt><trkpt lat="44.7020965447627" lon="9.626916059528227"><ele>998.4</ele><time>2026-03-28T10:19:06.999Z</time></trkpt><trkpt lat="44.70200629998624" lon="9.626900099806672"><ele>995.0</ele><time>2026-03-28T10:19:07.999Z</time></trkpt><trkpt lat="44.70191052088683" lon="9.626865732490788"><ele>992.8</ele><time>2026-03-28T10:19:08.999Z</time></trkpt><trkpt lat="44.70181235306585" lon="9.62680929141993"><ele>990.6</ele><time>2026-03-28T10:19:09.999Z</time></trkpt><trkpt lat="44.70172049902516" lon="9.626729654978078"><ele>988.4000000000001</ele><time>2026-03-28T10:19:10.999Z</time></trkpt><trkpt lat="44.7016285708202" lon="9.626642620670097"><ele>986.2</ele><time>2026-03-28T10:19:11.999Z</time></trkpt><trkpt lat="44.70154335614282" lon="9.626554649640864"><ele>984.0</ele><time>2026-03-28T10:19:12.999Z</time></trkpt><trkpt lat="44.70145754051497" lon="9.62645784438249"><ele>984.0</ele><time>2026-03-28T10:19:13.999Z</time></trkpt><trkpt lat="44.701372323286144" lon="9.626361685825714"><ele>984.0000000000001</ele><time>2026-03-28T10:19:14.999Z</time></trkpt><trkpt lat="44.70128380673613" lon="9.626270338959063"><ele>984.0000000000001</ele><time>2026-03-28T10:19:15.999Z</time></trkpt><trkpt lat="44.701200696248705" lon="9.626197138693339"><ele>984.0</ele><time>2026-03-28T10:19:16.999Z</time></trkpt><trkpt lat="44.70111012995221" lon="9.62614565034689"><ele>984.0</ele><time>2026-03-28T10:19:17.999Z</time></trkpt><trkpt lat="44.70101092580083" lon="9.626125132220363"><ele>980.8000000000001</ele><time>2026-03-28T10:19:18.999Z</time></trkpt><trkpt lat="44.70090118956697" lon="9.62614460598962"><ele>977.6000000000001</ele><time>2026-03-28T10:19:19.999Z</time></trkpt><trkpt lat="44.70080329223586" lon="9.626166922215281"><ele>974.4</ele><time>2026-03-28T10:19:20.999Z</time></trkpt><trkpt lat="44.70070736211549" lon="9.6261925526867"><ele>971.2</ele><time>2026-03-28T10:19:21.999Z</time></trkpt><trkpt lat="44.70061744491322" lon="9.626226255257981"><ele>968.0</ele><time>2026-03-28T10:19:22.999Z</time></trkpt><trkpt lat="44.70053307954249" lon="9.626270919187707"><ele>968.0</ele><time>2026-03-28T10:19:23.999Z</time></trkpt><trkpt lat="44.70046197706282" lon="9.626334481463989"><ele>968.0</ele><time>2026-03-28T10:19:24.999Z</time></trkpt><trkpt lat="44.70041057385626" lon="9.626420246038158"><ele>968.0</ele><time>2026-03-28T10:19:25.999Z</time></trkpt><trkpt lat="44.70041098055523" lon="9.626563394963911"><ele>968.0</ele><time>2026-03-28T10:19:26.999Z</time></trkpt><trkpt lat="44.700471927341404" lon="9.626672063094022"><ele>968.0</ele><time>2026-03-28T10:19:27.999Z</time></trkpt><trkpt lat="44.700528832123524" lon="9.626766160792119"><ele>968.0</ele><time>2026-03-28T10:19:28.999Z</time></trkpt><trkpt lat="44.70057261484266" lon="9.626873230171233"><ele>968.0</ele><time>2026-03-28T10:19:29.999Z</time></trkpt><trkpt lat="44.700575074347846" lon="9.62701439947344"><ele>968.0</ele><time>2026-03-28T10:19:30.999Z</time></trkpt><trkpt lat="44.700554127640544" lon="9.627153276023202"><ele>968.0</ele><time>2026-03-28T10:19:31.998Z</time></trkpt><trkpt lat="44.70054165473171" lon="9.627292377889335"><ele>968.0</ele><time>2026-03-28T10:19:32.998Z</time></trkpt><trkpt lat="44.700581348635524" lon="9.627429798993623"><ele>967.4</ele><time>2026-03-28T10:19:33.998Z</time></trkpt><trkpt lat="44.700604636531644" lon="9.627552929796698"><ele>966.8</ele><time>2026-03-28T10:19:34.998Z</time></trkpt><trkpt lat="44.700630565265435" lon="9.627658326566007"><ele>966.2</ele><time>2026-03-28T10:19:35.998Z</time></trkpt><trkpt lat="44.70064729099452" lon="9.627748343170817"><ele>965.6</ele><time>2026-03-28T10:19:36.998Z</time></trkpt><trkpt lat="44.700587867270436" lon="9.627890655458515"><ele>965.0</ele><time>2026-03-28T10:19:38.998Z</time></trkpt><trkpt lat="44.70049370210192" lon="9.627852635168665"><ele>965.0000000000001</ele><time>2026-03-28T10:19:40.998Z</time></trkpt><trkpt lat="44.70043071682419" lon="9.627827972363734"><ele>965.0</ele><time>2026-03-28T10:19:42.998Z</time></trkpt><trkpt lat="44.700416769536695" lon="9.627729346797961"><ele>965.0</ele><time>2026-03-28T10:19:46.998Z</time></trkpt><trkpt lat="44.70039673166042" lon="9.627618566527607"><ele>965.0</ele><time>2026-03-28T10:20:11.998Z</time></trkpt><trkpt lat="44.700370744596626" lon="9.6275267870791"><ele>965.0000000000001</ele><time>2026-03-28T10:20:13.998Z</time></trkpt><trkpt lat="44.700326691670405" lon="9.627419361592011"><ele>965.0</ele><time>2026-03-28T10:20:15.998Z</time></trkpt><trkpt lat="44.70026138761445" lon="9.627306126060216"><ele>962.75</ele><time>2026-03-28T10:20:17.998Z</time></trkpt><trkpt lat="44.7001982464629" lon="9.627180682913787"><ele>960.5</ele><time>2026-03-28T10:20:19.998Z</time></trkpt><trkpt lat="44.70011136066642" lon="9.627083280404927"><ele>958.25</ele><time>2026-03-28T10:20:21.998Z</time></trkpt><trkpt lat="44.69999719011758" lon="9.627026086580027"><ele>956.0</ele><time>2026-03-28T10:20:24Z</time></trkpt><trkpt lat="44.6998941302123" lon="9.626934696664463"><ele>956.0000000000001</ele><time>2026-03-28T10:20:26Z</time></trkpt><trkpt lat="44.69979448281315" lon="9.62684323914651"><ele>956.0</ele><time>2026-03-28T10:20:28Z</time></trkpt><trkpt lat="44.699684424848066" lon="9.626751470994611"><ele>956.0</ele><time>2026-03-28T10:20:30Z</time></trkpt><trkpt lat="44.699628941272515" lon="9.626704284498219"><ele>956.0</ele><time>2026-03-28T10:20:31Z</time></trkpt><trkpt lat="44.69957400381161" lon="9.626656579428557"><ele>956.0000000000001</ele><time>2026-03-28T10:20:32Z</time></trkpt><trkpt lat="44.69952121382497" lon="9.626603548856506"><ele>956.0</ele><time>2026-03-28T10:20:33Z</time></trkpt><trkpt lat="44.699426143070596" lon="9.626489374912238"><ele>956.0000000000001</ele><time>2026-03-28T10:20:35Z</time></trkpt><trkpt lat="44.69940223491864" lon="9.626401861147007"><ele>956.0</ele><time>2026-03-28T10:20:36Z</time></trkpt><trkpt lat="44.69939939035608" lon="9.626309717883316"><ele>956.0</ele><time>2026-03-28T10:20:37Z</time></trkpt><trkpt lat="44.69946789321978" lon="9.626159694556515"><ele>956.0</ele><time>2026-03-28T10:20:39Z</time></trkpt><trkpt lat="44.699524430014314" lon="9.62610331783876"><ele>956.0000000000001</ele><time>2026-03-28T10:20:40Z</time></trkpt><trkpt lat="44.699581835458396" lon="9.626058839530964"><ele>956.0</ele><time>2026-03-28T10:20:41Z</time></trkpt><trkpt lat="44.699640669686694" lon="9.626018435501914"><ele>955.6666666666667</ele><time>2026-03-28T10:20:42Z</time></trkpt><trkpt lat="44.699695759913475" lon="9.625972995133502"><ele>955.3333333333334</ele><time>2026-03-28T10:20:42.999Z</time></trkpt><trkpt lat="44.69980390156414" lon="9.625878114484637"><ele>955.0</ele><time>2026-03-28T10:20:44.999Z</time></trkpt><trkpt lat="44.69985992336952" lon="9.625829270675595"><ele>954.6666666666667</ele><time>2026-03-28T10:20:45.999Z</time></trkpt><trkpt lat="44.699919651877515" lon="9.625776395767048"><ele>954.3333333333334</ele><time>2026-03-28T10:20:46.999Z</time></trkpt><trkpt lat="44.69998272035657" lon="9.62572183611967"><ele>954.0</ele><time>2026-03-28T10:20:47.999Z</time></trkpt><trkpt lat="44.70004741816977" lon="9.625662333776459"><ele>954.0</ele><time>2026-03-28T10:20:48.999Z</time></trkpt><trkpt lat="44.70011461436316" lon="9.62560108528498"><ele>954.0</ele><time>2026-03-28T10:20:49.999Z</time></trkpt><trkpt lat="44.70018663538948" lon="9.625540983414124"><ele>954.0</ele><time>2026-03-28T10:20:50.999Z</time></trkpt><trkpt lat="44.70025821239492" lon="9.625480376121766"><ele>954.0</ele><time>2026-03-28T10:20:51.999Z</time></trkpt><trkpt lat="44.70032255292688" lon="9.625418973775776"><ele>954.0</ele><time>2026-03-28T10:20:52.999Z</time></trkpt><trkpt lat="44.700393318782645" lon="9.625361098358413"><ele>954.0</ele><time>2026-03-28T10:20:53.999Z</time></trkpt><trkpt lat="44.7004654106099" lon="9.625306463896031"><ele>953.3333333333334</ele><time>2026-03-28T10:20:54.999Z</time></trkpt><trkpt lat="44.70053413319456" lon="9.62525010225224"><ele>952.6666666666667</ele><time>2026-03-28T10:20:55.999Z</time></trkpt><trkpt lat="44.70060163168685" lon="9.625192750975843"><ele>952.0</ele><time>2026-03-28T10:20:56.999Z</time></trkpt><trkpt lat="44.7006677972534" lon="9.625135174899546"><ele>951.3333333333334</ele><time>2026-03-28T10:20:57.999Z</time></trkpt><trkpt lat="44.70073146194414" lon="9.625078592325075"><ele>950.6666666666667</ele><time>2026-03-28T10:20:58.999Z</time></trkpt><trkpt lat="44.7007953167064" lon="9.625027903456251"><ele>950.0</ele><time>2026-03-28T10:20:59.999Z</time></trkpt><trkpt lat="44.700858950473126" lon="9.624976065673268"><ele>950.0</ele><time>2026-03-28T10:21:00.999Z</time></trkpt><trkpt lat="44.70092264586496" lon="9.624921316698348"><ele>950.0000000000001</ele><time>2026-03-28T10:21:01.999Z</time></trkpt><trkpt lat="44.70098399120291" lon="9.624865558299808"><ele>950.0</ele><time>2026-03-28T10:21:02.999Z</time></trkpt><trkpt lat="44.70104682964806" lon="9.624811563404386"><ele>950.0</ele><time>2026-03-28T10:21:03.999Z</time></trkpt><trkpt lat="44.70110957194505" lon="9.624762652967048"><ele>950.0000000000001</ele><time>2026-03-28T10:21:04.999Z</time></trkpt><trkpt lat="44.701173817485895" lon="9.624712207000462"><ele>950.0</ele><time>2026-03-28T10:21:05.999Z</time></trkpt><trkpt lat="44.70123361336004" lon="9.624656919841078"><ele>950.0</ele><time>2026-03-28T10:21:06.999Z</time></trkpt><trkpt lat="44.70129536733678" lon="9.624601799507657"><ele>950.5714285714287</ele><time>2026-03-28T10:21:07.999Z</time></trkpt><trkpt lat="44.70135352632506" lon="9.624544933260392"><ele>951.1428571428572</ele><time>2026-03-28T10:21:08.999Z</time></trkpt><trkpt lat="44.70141145876627" lon="9.624485404588574"><ele>951.7142857142858</ele><time>2026-03-28T10:21:09.999Z</time></trkpt><trkpt lat="44.701464708555015" lon="9.624419047973191"><ele>952.2857142857142</ele><time>2026-03-28T10:21:10.999Z</time></trkpt><trkpt lat="44.70151117173938" lon="9.624341600691963"><ele>952.8571428571428</ele><time>2026-03-28T10:21:11.999Z</time></trkpt><trkpt lat="44.70155485907275" lon="9.624256081678402"><ele>953.4285714285713</ele><time>2026-03-28T10:21:12.999Z</time></trkpt><trkpt lat="44.70159445305021" lon="9.624168280338955"><ele>954.0</ele><time>2026-03-28T10:21:13.999Z</time></trkpt><trkpt lat="44.70163327549817" lon="9.624075246350296"><ele>954.0</ele><time>2026-03-28T10:21:14.999Z</time></trkpt><trkpt lat="44.701670277320865" lon="9.623982408984997"><ele>953.9999999999999</ele><time>2026-03-28T10:21:15.999Z</time></trkpt><trkpt lat="44.70170631179667" lon="9.623893231559444"><ele>954.0</ele><time>2026-03-28T10:21:16.999Z</time></trkpt><trkpt lat="44.70174847348111" lon="9.623806176785557"><ele>954.0</ele><time>2026-03-28T10:21:17.999Z</time></trkpt><trkpt lat="44.70178963993211" lon="9.62372104711168"><ele>953.9999999999999</ele><time>2026-03-28T10:21:18.999Z</time></trkpt><trkpt lat="44.7018351701294" lon="9.623645840911596"><ele>954.0</ele><time>2026-03-28T10:21:19.999Z</time></trkpt><trkpt lat="44.701882237754965" lon="9.623580711276253"><ele>954.0</ele><time>2026-03-28T10:21:20.999Z</time></trkpt><trkpt lat="44.70193369311294" lon="9.62351974021298"><ele>954.4285714285713</ele><time>2026-03-28T10:21:21.999Z</time></trkpt><trkpt lat="44.701987117989354" lon="9.623460385989368"><ele>954.8571428571428</ele><time>2026-03-28T10:21:22.999Z</time></trkpt><trkpt lat="44.70204365266265" lon="9.623407184075404"><ele>955.2857142857142</ele><time>2026-03-28T10:21:23.999Z</time></trkpt><trkpt lat="44.70210541338758" lon="9.6233593906262"><ele>955.7142857142858</ele><time>2026-03-28T10:21:24.999Z</time></trkpt><trkpt lat="44.70215250674879" lon="9.623289592400303"><ele>956.1428571428572</ele><time>2026-03-28T10:21:25.999Z</time></trkpt><trkpt lat="44.70218842682915" lon="9.623203511650456"><ele>956.5714285714287</ele><time>2026-03-28T10:21:26.999Z</time></trkpt><trkpt lat="44.70221062141549" lon="9.623104452791146"><ele>957.0</ele><time>2026-03-28T10:21:27.999Z</time></trkpt><trkpt lat="44.70222472915473" lon="9.623004154264837"><ele>957.0</ele><time>2026-03-28T10:21:28.999Z</time></trkpt><trkpt lat="44.702230912018145" lon="9.622897087942091"><ele>957.0</ele><time>2026-03-28T10:21:29.999Z</time></trkpt><trkpt lat="44.7022294099714" lon="9.622790840265269"><ele>957.0</ele><time>2026-03-28T10:21:30.999Z</time></trkpt><trkpt lat="44.702229761118105" lon="9.622679936869202"><ele>957.0</ele><time>2026-03-28T10:21:31.999Z</time></trkpt><trkpt lat="44.70224788423159" lon="9.622569985339691"><ele>957.0</ele><time>2026-03-28T10:21:32.999Z</time></trkpt><trkpt lat="44.70227312587344" lon="9.622460767063377"><ele>957.0</ele><time>2026-03-28T10:21:33.999Z</time></trkpt><trkpt lat="44.70231586958859" lon="9.622370135951495"><ele>957.0</ele><time>2026-03-28T10:21:34.998Z</time></trkpt><trkpt lat="44.70236151380381" lon="9.622284321030634"><ele>957.0000000000001</ele><time>2026-03-28T10:21:35.998Z</time></trkpt><trkpt lat="44.702395859792745" lon="9.622195109249796"><ele>957.0</ele><time>2026-03-28T10:21:36.998Z</time></trkpt><trkpt lat="44.70242689367586" lon="9.62211670642413"><ele>957.0</ele><time>2026-03-28T10:21:37.998Z</time></trkpt><trkpt lat="44.702463278858694" lon="9.622014359397125"><ele>957.0000000000001</ele><time>2026-03-28T10:21:39.998Z</time></trkpt><trkpt lat="44.702417620088006" lon="9.62193671546052"><ele>957.0</ele><time>2026-03-28T10:23:39.999Z</time></trkpt><trkpt lat="44.702384218509685" lon="9.621838492162262"><ele>957.0</ele><time>2026-03-28T10:23:42.999Z</time></trkpt><trkpt lat="44.70235176194975" lon="9.62172167494743"><ele>957.0</ele><time>2026-03-28T10:23:45.999Z</time></trkpt><trkpt lat="44.70232148624841" lon="9.621636653062762"><ele>957.0</ele><time>2026-03-28T10:23:47.999Z</time></trkpt><trkpt lat="44.70228802125764" lon="9.62154731505353"><ele>957.0</ele><time>2026-03-28T10:23:49.999Z</time></trkpt><trkpt lat="44.70225260946423" lon="9.621448879788618"><ele>957.0</ele><time>2026-03-28T10:23:51.999Z</time></trkpt><trkpt lat="44.70222003934684" lon="9.621349031127167"><ele>957.0</ele><time>2026-03-28T10:23:53.999Z</time></trkpt><trkpt lat="44.702180526675505" lon="9.621248159136588"><ele>957.0</ele><time>2026-03-28T10:23:55.999Z</time></trkpt><trkpt lat="44.70214691008863" lon="9.621145924094401"><ele>957.2</ele><time>2026-03-28T10:23:57.999Z</time></trkpt><trkpt lat="44.702117093003906" lon="9.6210261579179"><ele>957.4000000000001</ele><time>2026-03-28T10:23:59.999Z</time></trkpt><trkpt lat="44.702096440981364" lon="9.620895645906264"><ele>957.5999999999999</ele><time>2026-03-28T10:24:01.999Z</time></trkpt><trkpt lat="44.70207904836569" lon="9.62075753561526"><ele>957.8</ele><time>2026-03-28T10:24:03.999Z</time></trkpt><trkpt lat="44.70206594028771" lon="9.620611364424127"><ele>958.0</ele><time>2026-03-28T10:24:05.999Z</time></trkpt><trkpt lat="44.702052014984375" lon="9.62045212279168"><ele>957.8333333333333</ele><time>2026-03-28T10:24:07.999Z</time></trkpt><trkpt lat="44.70204846474899" lon="9.620272287504424"><ele>957.6666666666666</ele><time>2026-03-28T10:24:09.999Z</time></trkpt><trkpt lat="44.70204299507556" lon="9.620177331385223"><ele>957.5</ele><time>2026-03-28T10:24:10.999Z</time></trkpt><trkpt lat="44.70203809332286" lon="9.62007617372285"><ele>957.3333333333333</ele><time>2026-03-28T10:24:11.999Z</time></trkpt><trkpt lat="44.70203668347252" lon="9.619971469127309"><ele>957.1666666666666</ele><time>2026-03-28T10:24:12.999Z</time></trkpt><trkpt lat="44.70203929946619" lon="9.61986524751367"><ele>957.0</ele><time>2026-03-28T10:24:13.999Z</time></trkpt><trkpt lat="44.70204692913448" lon="9.619754499562946"><ele>957.0</ele><time>2026-03-28T10:24:14.999Z</time></trkpt><trkpt lat="44.70206790247967" lon="9.619643350134028"><ele>957.0</ele><time>2026-03-28T10:24:15.999Z</time></trkpt><trkpt lat="44.70209502005595" lon="9.619531545299804"><ele>957.0</ele><time>2026-03-28T10:24:16.999Z</time></trkpt><trkpt lat="44.70212527644715" lon="9.619420201876885"><ele>957.0</ele><time>2026-03-28T10:24:17.999Z</time></trkpt><trkpt lat="44.702158611369484" lon="9.61931028708761"><ele>957.0</ele><time>2026-03-28T10:24:18.999Z</time></trkpt><trkpt lat="44.70219442319238" lon="9.619200196146123"><ele>957.0</ele><time>2026-03-28T10:24:19.999Z</time></trkpt><trkpt lat="44.702223399207476" lon="9.619091948320127"><ele>955.8333333333334</ele><time>2026-03-28T10:24:20.999Z</time></trkpt><trkpt lat="44.70224754880878" lon="9.618983098196882"><ele>954.6666666666667</ele><time>2026-03-28T10:24:21.999Z</time></trkpt><trkpt lat="44.702261122254576" lon="9.618871705175541"><ele>953.5</ele><time>2026-03-28T10:24:22.999Z</time></trkpt><trkpt lat="44.7022667736424" lon="9.618764959073062"><ele>952.3333333333334</ele><time>2026-03-28T10:24:23.999Z</time></trkpt><trkpt lat="44.70227074401051" lon="9.61865740286738"><ele>951.1666666666667</ele><time>2026-03-28T10:24:24.999Z</time></trkpt><trkpt lat="44.702263561723534" lon="9.618551159555352"><ele>950.0</ele><time>2026-03-28T10:24:25.999Z</time></trkpt><trkpt lat="44.702265261634786" lon="9.618445946842547"><ele>950.0000000000001</ele><time>2026-03-28T10:24:26.999Z</time></trkpt><trkpt lat="44.702271217375674" lon="9.618331601768348"><ele>950.0</ele><time>2026-03-28T10:24:27.999Z</time></trkpt><trkpt lat="44.70228148593507" lon="9.618220197639205"><ele>950.0</ele><time>2026-03-28T10:24:28.998Z</time></trkpt><trkpt lat="44.70229610421193" lon="9.618109704360485"><ele>950.0</ele><time>2026-03-28T10:24:29.998Z</time></trkpt><trkpt lat="44.70231147208752" lon="9.61799715157279"><ele>950.0000000000001</ele><time>2026-03-28T10:24:30.998Z</time></trkpt><trkpt lat="44.70232513181483" lon="9.617884638420358"><ele>950.0</ele><time>2026-03-28T10:24:31.998Z</time></trkpt><trkpt lat="44.70233298661663" lon="9.6177705350841"><ele>950.0000000000001</ele><time>2026-03-28T10:24:33.001Z</time></trkpt><trkpt lat="44.70233719444597" lon="9.617657860480906"><ele>950.0</ele><time>2026-03-28T10:24:34.001Z</time></trkpt><trkpt lat="44.702335784238215" lon="9.617546160282616"><ele>950.0</ele><time>2026-03-28T10:24:35Z</time></trkpt><trkpt lat="44.70233212066709" lon="9.617434712056982"><ele>950.0</ele><time>2026-03-28T10:24:36.001Z</time></trkpt><trkpt lat="44.70232171351401" lon="9.617324571006964"><ele>950.0000000000001</ele><time>2026-03-28T10:24:37.001Z</time></trkpt><trkpt lat="44.70230980237416" lon="9.61721843729238"><ele>950.0</ele><time>2026-03-28T10:24:38.001Z</time></trkpt><trkpt lat="44.702302509023085" lon="9.617113757901771"><ele>950.0000000000001</ele><time>2026-03-28T10:24:39.001Z</time></trkpt><trkpt lat="44.70230006936058" lon="9.617008033643806"><ele>950.0</ele><time>2026-03-28T10:24:40.001Z</time></trkpt><trkpt lat="44.70229660431842" lon="9.61690357805557"><ele>950.0</ele><time>2026-03-28T10:24:41Z</time></trkpt><trkpt lat="44.70229595333838" lon="9.616798968177315"><ele>950.0</ele><time>2026-03-28T10:24:42.001Z</time></trkpt><trkpt lat="44.70228931697036" lon="9.616692009555544"><ele>950.0000000000001</ele><time>2026-03-28T10:24:43.001Z</time></trkpt><trkpt lat="44.70228434306804" lon="9.616584339771906"><ele>950.0</ele><time>2026-03-28T10:24:44Z</time></trkpt><trkpt lat="44.70227993419853" lon="9.61647419364611"><ele>950.0000000000001</ele><time>2026-03-28T10:24:45.001Z</time></trkpt><trkpt lat="44.702275563697384" lon="9.61636668968409"><ele>950.0</ele><time>2026-03-28T10:24:46.001Z</time></trkpt><trkpt lat="44.7022716844721" lon="9.616255403225527"><ele>950.0</ele><time>2026-03-28T10:24:47Z</time></trkpt><trkpt lat="44.70227145292071" lon="9.616144622812913"><ele>950.0</ele><time>2026-03-28T10:24:48Z</time></trkpt><trkpt lat="44.702275179005454" lon="9.616033042422501"><ele>950.0000000000001</ele><time>2026-03-28T10:24:49Z</time></trkpt><trkpt lat="44.70228110300463" lon="9.615922027390235"><ele>950.0</ele><time>2026-03-28T10:24:50Z</time></trkpt><trkpt lat="44.70229148643489" lon="9.615812826918802"><ele>950.3333333333334</ele><time>2026-03-28T10:24:51Z</time></trkpt><trkpt lat="44.70228756634797" lon="9.615702384504711"><ele>950.6666666666667</ele><time>2026-03-28T10:24:52Z</time></trkpt><trkpt lat="44.702283413728686" lon="9.615590629680597"><ele>951.0</ele><time>2026-03-28T10:24:53Z</time></trkpt><trkpt lat="44.702247647296886" lon="9.615482867177933"><ele>951.3333333333333</ele><time>2026-03-28T10:24:54Z</time></trkpt><trkpt lat="44.70218192933018" lon="9.615391781031118"><ele>951.6666666666666</ele><time>2026-03-28T10:24:55Z</time></trkpt><trkpt lat="44.70210719781566" lon="9.61533028245179"><ele>952.0</ele><time>2026-03-28T10:24:56Z</time></trkpt><trkpt lat="44.70204066309795" lon="9.615275712658725"><ele>952.6666666666666</ele><time>2026-03-28T10:24:57Z</time></trkpt><trkpt lat="44.701978800479665" lon="9.615215519629805"><ele>953.3333333333333</ele><time>2026-03-28T10:24:58Z</time></trkpt><trkpt lat="44.701915820638256" lon="9.615151917818103"><ele>954.0</ele><time>2026-03-28T10:24:59Z</time></trkpt><trkpt lat="44.70185507989862" lon="9.615086791613594"><ele>954.6666666666667</ele><time>2026-03-28T10:25:00Z</time></trkpt><trkpt lat="44.70179484688952" lon="9.615020300241358"><ele>955.3333333333334</ele><time>2026-03-28T10:25:01Z</time></trkpt><trkpt lat="44.701736354870754" lon="9.614953396141432"><ele>956.0</ele><time>2026-03-28T10:25:02Z</time></trkpt><trkpt lat="44.70167818179397" lon="9.614884646086905"><ele>955.6666666666667</ele><time>2026-03-28T10:25:03Z</time></trkpt><trkpt lat="44.70162225605218" lon="9.614816367664384"><ele>955.3333333333334</ele><time>2026-03-28T10:25:04Z</time></trkpt><trkpt lat="44.70156606294036" lon="9.614747861351892"><ele>955.0</ele><time>2026-03-28T10:25:05Z</time></trkpt><trkpt lat="44.701502631107026" lon="9.614690585643205"><ele>954.6666666666667</ele><time>2026-03-28T10:25:06Z</time></trkpt><trkpt lat="44.70144995088677" lon="9.61461457941885"><ele>954.3333333333334</ele><time>2026-03-28T10:25:07Z</time></trkpt><trkpt lat="44.70139807404945" lon="9.614539475170295"><ele>954.0</ele><time>2026-03-28T10:25:08Z</time></trkpt><trkpt lat="44.70136023183053" lon="9.614446427439166"><ele>954.0</ele><time>2026-03-28T10:25:09Z</time></trkpt><trkpt lat="44.70129891809353" lon="9.614381339553795"><ele>953.9999999999999</ele><time>2026-03-28T10:25:10Z</time></trkpt><trkpt lat="44.70125563726414" lon="9.61429952579912"><ele>954.0</ele><time>2026-03-28T10:25:11Z</time></trkpt><trkpt lat="44.70121397993796" lon="9.614216446508292"><ele>954.0</ele><time>2026-03-28T10:25:12Z</time></trkpt><trkpt lat="44.701153806945534" lon="9.614156324183822"><ele>953.9999999999999</ele><time>2026-03-28T10:25:13Z</time></trkpt><trkpt lat="44.70111149512698" lon="9.614079512928765"><ele>954.0</ele><time>2026-03-28T10:25:14Z</time></trkpt><trkpt lat="44.701079481871815" lon="9.613990084107986"><ele>954.0</ele><time>2026-03-28T10:25:15Z</time></trkpt><trkpt lat="44.701066887728395" lon="9.613890640150334"><ele>953.2857142857142</ele><time>2026-03-28T10:25:16Z</time></trkpt><trkpt lat="44.701054550078645" lon="9.613784911888336"><ele>952.5714285714284</ele><time>2026-03-28T10:25:17Z</time></trkpt><trkpt lat="44.70106418345673" lon="9.613693013210334"><ele>951.8571428571429</ele><time>2026-03-28T10:25:18Z</time></trkpt><trkpt lat="44.70105029828885" lon="9.613591368430667"><ele>951.1428571428571</ele><time>2026-03-28T10:25:19Z</time></trkpt><trkpt lat="44.70104552019269" lon="9.613494204736286"><ele>950.4285714285714</ele><time>2026-03-28T10:25:20Z</time></trkpt><trkpt lat="44.70106124530125" lon="9.613391684753124"><ele>949.7142857142858</ele><time>2026-03-28T10:25:21Z</time></trkpt><trkpt lat="44.701061969692745" lon="9.6132994985977"><ele>949.0000000000001</ele><time>2026-03-28T10:25:22Z</time></trkpt><trkpt lat="44.701044104884986" lon="9.613120375711313"><ele>948.9999999999999</ele><time>2026-03-28T10:25:24Z</time></trkpt><trkpt lat="44.70102582792662" lon="9.6130324202696"><ele>949.0</ele><time>2026-03-28T10:25:25Z</time></trkpt><trkpt lat="44.70099540363063" lon="9.612943780454529"><ele>949.0</ele><time>2026-03-28T10:25:26Z</time></trkpt><trkpt lat="44.700958757955824" lon="9.612859522439738"><ele>949.0</ele><time>2026-03-28T10:25:27Z</time></trkpt><trkpt lat="44.70092082907009" lon="9.61278055424597"><ele>948.9999999999999</ele><time>2026-03-28T10:25:28Z</time></trkpt><trkpt lat="44.70084372909702" lon="9.612637713466615"><ele>949.0</ele><time>2026-03-28T10:25:30Z</time></trkpt><trkpt lat="44.7007727862006" lon="9.612601272318285"><ele>949.7142857142858</ele><time>2026-03-28T10:25:31Z</time></trkpt><trkpt lat="44.700718268040866" lon="9.612544801585466"><ele>950.4285714285714</ele><time>2026-03-28T10:25:32Z</time></trkpt><trkpt lat="44.70065675691766" lon="9.612502614639252"><ele>951.1428571428571</ele><time>2026-03-28T10:25:33Z</time></trkpt><trkpt lat="44.70059186168299" lon="9.612472107433963"><ele>951.8571428571429</ele><time>2026-03-28T10:25:34Z</time></trkpt><trkpt lat="44.700527559163014" lon="9.612437803225216"><ele>952.5714285714284</ele><time>2026-03-28T10:25:35Z</time></trkpt><trkpt lat="44.70046062007428" lon="9.612398078400306"><ele>953.2857142857142</ele><time>2026-03-28T10:25:36Z</time></trkpt><trkpt lat="44.70039911914934" lon="9.612347438427097"><ele>954.0</ele><time>2026-03-28T10:25:37Z</time></trkpt><trkpt lat="44.70036613716977" lon="9.612235535623107"><ele>954.0</ele><time>2026-03-28T10:25:38Z</time></trkpt><trkpt lat="44.70032462556648" lon="9.612164860875351"><ele>954.0</ele><time>2026-03-28T10:25:38.999Z</time></trkpt><trkpt lat="44.700294654846445" lon="9.612076416669762"><ele>954.0</ele><time>2026-03-28T10:25:39.999Z</time></trkpt><trkpt lat="44.700272513891456" lon="9.611978564759458"><ele>954.0</ele><time>2026-03-28T10:25:40.999Z</time></trkpt><trkpt lat="44.70024139880203" lon="9.61187434803845"><ele>954.0</ele><time>2026-03-28T10:25:41.999Z</time></trkpt><trkpt lat="44.70021932342528" lon="9.611764476801204"><ele>954.0</ele><time>2026-03-28T10:25:42.999Z</time></trkpt><trkpt lat="44.700204386602245" lon="9.611649440904808"><ele>953.3333333333334</ele><time>2026-03-28T10:25:43.999Z</time></trkpt><trkpt lat="44.70015359056594" lon="9.611552565215144"><ele>952.6666666666667</ele><time>2026-03-28T10:25:44.999Z</time></trkpt><trkpt lat="44.70008818427536" lon="9.611473818498924"><ele>952.0</ele><time>2026-03-28T10:25:45.999Z</time></trkpt><trkpt lat="44.70001342756584" lon="9.611417662035636"><ele>951.3333333333334</ele><time>2026-03-28T10:25:46.999Z</time></trkpt><trkpt lat="44.69992342776916" lon="9.611388023763746"><ele>950.6666666666667</ele><time>2026-03-28T10:25:47.999Z</time></trkpt><trkpt lat="44.69983451457324" lon="9.611378225402886"><ele>950.0</ele><time>2026-03-28T10:25:48.999Z</time></trkpt><trkpt lat="44.6997447742219" lon="9.611388095533288"><ele>950.0000000000001</ele><time>2026-03-28T10:25:49.999Z</time></trkpt><trkpt lat="44.69965906838815" lon="9.611393883403881"><ele>950.0</ele><time>2026-03-28T10:25:50.999Z</time></trkpt><trkpt lat="44.699574854240716" lon="9.611399570533898"><ele>950.0</ele><time>2026-03-28T10:25:51.999Z</time></trkpt><trkpt lat="44.69948957066114" lon="9.611405329882341"><ele>950.0</ele><time>2026-03-28T10:25:52.999Z</time></trkpt><trkpt lat="44.699402229098055" lon="9.611411228208432"><ele>950.0000000000001</ele><time>2026-03-28T10:25:53.999Z</time></trkpt><trkpt lat="44.69931468022163" lon="9.611415342488874"><ele>950.0</ele><time>2026-03-28T10:25:54.999Z</time></trkpt><trkpt lat="44.699230414861866" lon="9.611401346112373"><ele>949.0000000000001</ele><time>2026-03-28T10:25:55.999Z</time></trkpt><trkpt lat="44.69915942178056" lon="9.611356163869885"><ele>948.0</ele><time>2026-03-28T10:25:56.999Z</time></trkpt><trkpt lat="44.699077617830774" lon="9.61130330986309"><ele>947.0</ele><time>2026-03-28T10:25:57.999Z</time></trkpt><trkpt lat="44.69899509107922" lon="9.611241836769484"><ele>946.0</ele><time>2026-03-28T10:25:58.999Z</time></trkpt><trkpt lat="44.69891391719724" lon="9.61117772961066"><ele>945.0000000000001</ele><time>2026-03-28T10:25:59.999Z</time></trkpt><trkpt lat="44.698835085366284" lon="9.611110491323782"><ele>944.0</ele><time>2026-03-28T10:26:00.999Z</time></trkpt><trkpt lat="44.69876245436098" lon="9.611047161217634"><ele>944.0</ele><time>2026-03-28T10:26:01.999Z</time></trkpt><trkpt lat="44.69869369965137" lon="9.61098477066987"><ele>944.0</ele><time>2026-03-28T10:26:02.999Z</time></trkpt><trkpt lat="44.698629150952584" lon="9.610927168940966"><ele>944.0</ele><time>2026-03-28T10:26:03.999Z</time></trkpt><trkpt lat="44.69856255493303" lon="9.610880839850617"><ele>944.0</ele><time>2026-03-28T10:26:04.999Z</time></trkpt><trkpt lat="44.69850152243007" lon="9.61084169976837"><ele>944.0</ele><time>2026-03-28T10:26:05.999Z</time></trkpt><trkpt lat="44.69844383978542" lon="9.610791952665798"><ele>944.0</ele><time>2026-03-28T10:26:06.999Z</time></trkpt><trkpt lat="44.69839191809258" lon="9.61073214056089"><ele>944.0</ele><time>2026-03-28T10:26:07.999Z</time></trkpt><trkpt lat="44.69834358905316" lon="9.610661264367364"><ele>944.0</ele><time>2026-03-28T10:26:08.999Z</time></trkpt><trkpt lat="44.69830186363878" lon="9.610578419402724"><ele>944.0</ele><time>2026-03-28T10:26:09.999Z</time></trkpt><trkpt lat="44.69826005093335" lon="9.610493630475009"><ele>944.0</ele><time>2026-03-28T10:26:10.999Z</time></trkpt><trkpt lat="44.69821575661365" lon="9.610405705191749"><ele>944.0</ele><time>2026-03-28T10:26:11.999Z</time></trkpt><trkpt lat="44.698173860220194" lon="9.610322539960295"><ele>944.0</ele><time>2026-03-28T10:26:12.999Z</time></trkpt><trkpt lat="44.698113754860124" lon="9.610262171328513"><ele>944.0</ele><time>2026-03-28T10:26:13.999Z</time></trkpt><trkpt lat="44.69806550968497" lon="9.6101841647718"><ele>944.0</ele><time>2026-03-28T10:26:14.999Z</time></trkpt><trkpt lat="44.69802277101835" lon="9.610107723096606"><ele>943.2857142857142</ele><time>2026-03-28T10:26:15.999Z</time></trkpt><trkpt lat="44.69799922447686" lon="9.610005352674131"><ele>942.5714285714287</ele><time>2026-03-28T10:26:16.999Z</time></trkpt><trkpt lat="44.697939414268106" lon="9.609943930857533"><ele>941.8571428571429</ele><time>2026-03-28T10:26:17.999Z</time></trkpt><trkpt lat="44.697877758887294" lon="9.60988823008787"><ele>941.1428571428571</ele><time>2026-03-28T10:26:18.999Z</time></trkpt><trkpt lat="44.69781815204309" lon="9.609840223836047"><ele>940.4285714285713</ele><time>2026-03-28T10:26:19.999Z</time></trkpt><trkpt lat="44.697754200199995" lon="9.609794661828849"><ele>939.7142857142858</ele><time>2026-03-28T10:26:20.999Z</time></trkpt><trkpt lat="44.69769018362344" lon="9.609750328818745"><ele>939.0</ele><time>2026-03-28T10:26:21.999Z</time></trkpt><trkpt lat="44.69762904462394" lon="9.609708419017712"><ele>939.0</ele><time>2026-03-28T10:26:22.999Z</time></trkpt><trkpt lat="44.69753118771332" lon="9.609589321174852"><ele>939.0000000000001</ele><time>2026-03-28T10:26:24.999Z</time></trkpt><trkpt lat="44.69753526613466" lon="9.60947295964763"><ele>939.0000000000001</ele><time>2026-03-28T10:26:25.999Z</time></trkpt><trkpt lat="44.6975725310282" lon="9.609363710408418"><ele>939.0</ele><time>2026-03-28T10:26:26.999Z</time></trkpt><trkpt lat="44.6976283875964" lon="9.609273537312367"><ele>939.0</ele><time>2026-03-28T10:26:27.999Z</time></trkpt><trkpt lat="44.697687108411074" lon="9.60919753581075"><ele>938.6666666666666</ele><time>2026-03-28T10:26:28.999Z</time></trkpt><trkpt lat="44.697746932389" lon="9.609113815962868"><ele>938.3333333333333</ele><time>2026-03-28T10:26:29.999Z</time></trkpt><trkpt lat="44.697806435568175" lon="9.609015933054275"><ele>938.0</ele><time>2026-03-28T10:26:30.999Z</time></trkpt><trkpt lat="44.697856999684845" lon="9.608912823810844"><ele>937.6666666666666</ele><time>2026-03-28T10:26:31.998Z</time></trkpt><trkpt lat="44.69790268803194" lon="9.6087999940021"><ele>937.3333333333333</ele><time>2026-03-28T10:26:32.998Z</time></trkpt><trkpt lat="44.69794747396707" lon="9.60868715689389"><ele>937.0</ele><time>2026-03-28T10:26:33.998Z</time></trkpt><trkpt lat="44.69799811378695" lon="9.608577815644813"><ele>940.0</ele><time>2026-03-28T10:26:34.998Z</time></trkpt><trkpt lat="44.69805012273708" lon="9.608469116975487"><ele>943.0</ele><time>2026-03-28T10:26:35.998Z</time></trkpt><trkpt lat="44.698099737746304" lon="9.608355457704318"><ele>946.0</ele><time>2026-03-28T10:26:36.998Z</time></trkpt><trkpt lat="44.698146762279634" lon="9.608245224632512"><ele>949.0</ele><time>2026-03-28T10:26:37.998Z</time></trkpt><trkpt lat="44.698190166539604" lon="9.608127532969272"><ele>952.0</ele><time>2026-03-28T10:26:39Z</time></trkpt><trkpt lat="44.69822533569194" lon="9.608009864405322"><ele>951.9999999999999</ele><time>2026-03-28T10:26:40Z</time></trkpt><trkpt lat="44.69825005741196" lon="9.607889561610754"><ele>952.0</ele><time>2026-03-28T10:26:41Z</time></trkpt><trkpt lat="44.69827058621383" lon="9.607771451171285"><ele>952.0</ele><time>2026-03-28T10:26:42Z</time></trkpt><trkpt lat="44.69829654157823" lon="9.607656427072975"><ele>952.0</ele><time>2026-03-28T10:26:43Z</time></trkpt><trkpt lat="44.698320360005596" lon="9.607544879193945"><ele>951.9999999999999</ele><time>2026-03-28T10:26:44Z</time></trkpt><trkpt lat="44.69834067096457" lon="9.60743707184351"><ele>952.0</ele><time>2026-03-28T10:26:45Z</time></trkpt><trkpt lat="44.69834901997153" lon="9.607324437138251"><ele>951.3333333333333</ele><time>2026-03-28T10:26:46Z</time></trkpt><trkpt lat="44.69835296753869" lon="9.60720655103668"><ele>950.6666666666666</ele><time>2026-03-28T10:26:47Z</time></trkpt><trkpt lat="44.69832284511358" lon="9.60708920577167"><ele>950.0</ele><time>2026-03-28T10:26:48Z</time></trkpt><trkpt lat="44.69825933950032" lon="9.606993910947855"><ele>949.3333333333333</ele><time>2026-03-28T10:26:49Z</time></trkpt><trkpt lat="44.698210241685736" lon="9.606911114179503"><ele>948.6666666666666</ele><time>2026-03-28T10:26:50Z</time></trkpt><trkpt lat="44.69816570963796" lon="9.606820644648764"><ele>948.0</ele><time>2026-03-28T10:26:51Z</time></trkpt><trkpt lat="44.69813385892111" lon="9.606719555084524"><ele>948.0</ele><time>2026-03-28T10:26:52Z</time></trkpt><trkpt lat="44.69810547766919" lon="9.6066136691617"><ele>948.0</ele><time>2026-03-28T10:26:53Z</time></trkpt><trkpt lat="44.69807725014089" lon="9.60650145695147"><ele>948.0</ele><time>2026-03-28T10:26:54Z</time></trkpt><trkpt lat="44.6980415274107" lon="9.606389525054514"><ele>948.0</ele><time>2026-03-28T10:26:55Z</time></trkpt><trkpt lat="44.69800501187544" lon="9.606283279916209"><ele>948.0</ele><time>2026-03-28T10:26:56Z</time></trkpt><trkpt lat="44.69796527362596" lon="9.606178130485457"><ele>948.0</ele><time>2026-03-28T10:26:57Z</time></trkpt><trkpt lat="44.69792316825121" lon="9.606077847710269"><ele>948.2857142857142</ele><time>2026-03-28T10:26:58Z</time></trkpt><trkpt lat="44.69787584451915" lon="9.605980301377548"><ele>948.5714285714286</ele><time>2026-03-28T10:26:59Z</time></trkpt><trkpt lat="44.6978264557838" lon="9.605893756806047"><ele>948.8571428571429</ele><time>2026-03-28T10:27:00Z</time></trkpt><trkpt lat="44.69777705897036" lon="9.60581368978633"><ele>949.1428571428571</ele><time>2026-03-28T10:27:01Z</time></trkpt><trkpt lat="44.697729407261676" lon="9.605738670023417"><ele>949.4285714285716</ele><time>2026-03-28T10:27:02Z</time></trkpt><trkpt lat="44.6976837270344" lon="9.605666754043924"><ele>949.7142857142858</ele><time>2026-03-28T10:27:03Z</time></trkpt><trkpt lat="44.69764317025322" lon="9.605596366705507"><ele>950.0</ele><time>2026-03-28T10:27:04Z</time></trkpt><trkpt lat="44.69758425878308" lon="9.605442200520057"><ele>948.6</ele><time>2026-03-28T10:27:06Z</time></trkpt><trkpt lat="44.69757371021031" lon="9.605352191950656"><ele>947.2</ele><time>2026-03-28T10:27:07Z</time></trkpt><trkpt lat="44.69753959077916" lon="9.605184600977163"><ele>945.8</ele><time>2026-03-28T10:27:09Z</time></trkpt><trkpt lat="44.69752045543382" lon="9.605097494472204"><ele>944.4</ele><time>2026-03-28T10:27:10Z</time></trkpt><trkpt lat="44.69748811549038" lon="9.604924842626103"><ele>943.0</ele><time>2026-03-28T10:27:12Z</time></trkpt><trkpt lat="44.697435517649936" lon="9.604861879183597"><ele>943.0</ele><time>2026-03-28T10:27:13Z</time></trkpt><trkpt lat="44.69735413242379" lon="9.604736626383575"><ele>943.0</ele><time>2026-03-28T10:27:15Z</time></trkpt><trkpt lat="44.69726360223476" lon="9.60463306287204"><ele>943.0</ele><time>2026-03-28T10:27:17Z</time></trkpt><trkpt lat="44.69717076529825" lon="9.604547303761938"><ele>943.0</ele><time>2026-03-28T10:27:19Z</time></trkpt><trkpt lat="44.69707257944" lon="9.604462517943782"><ele>945.75</ele><time>2026-03-28T10:27:21Z</time></trkpt><trkpt lat="44.696993655028265" lon="9.604350147575417"><ele>948.5</ele><time>2026-03-28T10:27:23Z</time></trkpt><trkpt lat="44.69694241703932" lon="9.604209057707818"><ele>951.25</ele><time>2026-03-28T10:27:25Z</time></trkpt><trkpt lat="44.6969455496708" lon="9.60404213888699"><ele>954.0</ele><time>2026-03-28T10:27:27Z</time></trkpt><trkpt lat="44.69696921494905" lon="9.603871727645812"><ele>954.0</ele><time>2026-03-28T10:27:29Z</time></trkpt><trkpt lat="44.69698936039431" lon="9.6037854725009"><ele>953.9999999999999</ele><time>2026-03-28T10:27:30Z</time></trkpt><trkpt lat="44.69701020804148" lon="9.603693675619205"><ele>954.0</ele><time>2026-03-28T10:27:31Z</time></trkpt><trkpt lat="44.697028361018056" lon="9.603605147311683"><ele>954.0</ele><time>2026-03-28T10:27:32Z</time></trkpt><trkpt lat="44.69704882473948" lon="9.603508727973503"><ele>953.9999999999999</ele><time>2026-03-28T10:27:33Z</time></trkpt><trkpt lat="44.69706770216162" lon="9.603410034420675"><ele>954.0</ele><time>2026-03-28T10:27:34Z</time></trkpt><trkpt lat="44.697086096690924" lon="9.603306942337584"><ele>954.0</ele><time>2026-03-28T10:27:35Z</time></trkpt><trkpt lat="44.69710556912554" lon="9.603207669877401"><ele>954.0</ele><time>2026-03-28T10:27:36Z</time></trkpt><trkpt lat="44.69712364853283" lon="9.603098045742353"><ele>954.0</ele><time>2026-03-28T10:27:37Z</time></trkpt><trkpt lat="44.69713435424203" lon="9.602992383573408"><ele>954.0</ele><time>2026-03-28T10:27:38Z</time></trkpt><trkpt lat="44.697137458653316" lon="9.602885276395751"><ele>954.0</ele><time>2026-03-28T10:27:39Z</time></trkpt><trkpt lat="44.697140661581784" lon="9.602773189277757"><ele>954.0</ele><time>2026-03-28T10:27:40Z</time></trkpt><trkpt lat="44.69713019126786" lon="9.602665221203388"><ele>954.0</ele><time>2026-03-28T10:27:41Z</time></trkpt><trkpt lat="44.69712062964294" lon="9.602558639019684"><ele>952.0</ele><time>2026-03-28T10:27:42Z</time></trkpt><trkpt lat="44.697093649832055" lon="9.602457512718223"><ele>950.0</ele><time>2026-03-28T10:27:42.999Z</time></trkpt><trkpt lat="44.697059592233636" lon="9.602352179472753"><ele>948.0</ele><time>2026-03-28T10:27:43.999Z</time></trkpt><trkpt lat="44.697019037946674" lon="9.602248784745422"><ele>946.0</ele><time>2026-03-28T10:27:44.999Z</time></trkpt><trkpt lat="44.6969745622254" lon="9.602144019412128"><ele>944.0</ele><time>2026-03-28T10:27:45.999Z</time></trkpt><trkpt lat="44.69692665229797" lon="9.602036708379506"><ele>942.0</ele><time>2026-03-28T10:27:46.999Z</time></trkpt><trkpt lat="44.69689332841582" lon="9.601910933927906"><ele>942.0</ele><time>2026-03-28T10:27:47.999Z</time></trkpt><trkpt lat="44.69683358178407" lon="9.601803798028438"><ele>942.0</ele><time>2026-03-28T10:27:48.999Z</time></trkpt><trkpt lat="44.69678401828411" lon="9.601687063768178"><ele>942.0</ele><time>2026-03-28T10:27:49.999Z</time></trkpt><trkpt lat="44.69672857586384" lon="9.60157164926592"><ele>942.0</ele><time>2026-03-28T10:27:50.999Z</time></trkpt><trkpt lat="44.69667780431567" lon="9.601452321607102"><ele>942.0</ele><time>2026-03-28T10:27:51.999Z</time></trkpt><trkpt lat="44.69662846716679" lon="9.601331014631171"><ele>942.0</ele><time>2026-03-28T10:27:52.999Z</time></trkpt><trkpt lat="44.696576949652396" lon="9.60121485194951"><ele>942.0</ele><time>2026-03-28T10:27:53.999Z</time></trkpt><trkpt lat="44.696526372115954" lon="9.601099499690564"><ele>942.0</ele><time>2026-03-28T10:27:54.999Z</time></trkpt><trkpt lat="44.696475993329436" lon="9.600984682730218"><ele>942.0</ele><time>2026-03-28T10:27:55.999Z</time></trkpt><trkpt lat="44.696432426964535" lon="9.600871004276604"><ele>942.0</ele><time>2026-03-28T10:27:56.999Z</time></trkpt><trkpt lat="44.6963855003415" lon="9.600763207746729"><ele>942.8333333333334</ele><time>2026-03-28T10:27:57.999Z</time></trkpt><trkpt lat="44.69634114263505" lon="9.600656783331832"><ele>943.6666666666667</ele><time>2026-03-28T10:27:58.999Z</time></trkpt><trkpt lat="44.69629767165901" lon="9.60055462716557"><ele>944.5</ele><time>2026-03-28T10:27:59.999Z</time></trkpt><trkpt lat="44.69625502504658" lon="9.60045460829862"><ele>945.3333333333334</ele><time>2026-03-28T10:28:00.999Z</time></trkpt><trkpt lat="44.69621175377608" lon="9.600361508055961"><ele>946.1666666666667</ele><time>2026-03-28T10:28:01.999Z</time></trkpt><trkpt lat="44.69617109324861" lon="9.60026886503737"><ele>947.0</ele><time>2026-03-28T10:28:02.999Z</time></trkpt><trkpt lat="44.69613294441608" lon="9.60017626384136"><ele>946.8333333333334</ele><time>2026-03-28T10:28:03.999Z</time></trkpt><trkpt lat="44.69609608660073" lon="9.600080832345302"><ele>946.6666666666667</ele><time>2026-03-28T10:28:04.999Z</time></trkpt><trkpt lat="44.69606208288211" lon="9.59998317545913"><ele>946.5</ele><time>2026-03-28T10:28:05.999Z</time></trkpt><trkpt lat="44.69602939072169" lon="9.599879978191916"><ele>946.3333333333333</ele><time>2026-03-28T10:28:06.999Z</time></trkpt><trkpt lat="44.695999523083906" lon="9.599770581485435"><ele>946.1666666666666</ele><time>2026-03-28T10:28:07.999Z</time></trkpt><trkpt lat="44.695969087379034" lon="9.599657670911586"><ele>946.0</ele><time>2026-03-28T10:28:08.999Z</time></trkpt><trkpt lat="44.69593929542225" lon="9.599544970886758"><ele>946.4999999999999</ele><time>2026-03-28T10:28:09.999Z</time></trkpt><trkpt lat="44.695907597523835" lon="9.599432008409034"><ele>947.0</ele><time>2026-03-28T10:28:10.999Z</time></trkpt><trkpt lat="44.69587529603465" lon="9.599313782257152"><ele>947.5</ele><time>2026-03-28T10:28:11.999Z</time></trkpt><trkpt lat="44.69584427714408" lon="9.599194207288367"><ele>948.0</ele><time>2026-03-28T10:28:12.999Z</time></trkpt><trkpt lat="44.69581234914711" lon="9.599073694304106"><ele>948.4999999999999</ele><time>2026-03-28T10:28:13.999Z</time></trkpt><trkpt lat="44.69578085496025" lon="9.598954110584083"><ele>949.0</ele><time>2026-03-28T10:28:14.999Z</time></trkpt><trkpt lat="44.69574979335535" lon="9.598840559210723"><ele>948.9999999999999</ele><time>2026-03-28T10:28:15.999Z</time></trkpt><trkpt lat="44.69571468899473" lon="9.598724054800943"><ele>949.0</ele><time>2026-03-28T10:28:16.999Z</time></trkpt><trkpt lat="44.69568131728127" lon="9.59861187586588"><ele>949.0</ele><time>2026-03-28T10:28:17.999Z</time></trkpt><trkpt lat="44.6956544317135" lon="9.59849732739433"><ele>949.0</ele><time>2026-03-28T10:28:18.999Z</time></trkpt><trkpt lat="44.69562622388189" lon="9.598388936910894"><ele>948.9999999999999</ele><time>2026-03-28T10:28:19.999Z</time></trkpt><trkpt lat="44.69559642890605" lon="9.598285959195325"><ele>949.0</ele><time>2026-03-28T10:28:20.999Z</time></trkpt><trkpt lat="44.695565237944784" lon="9.598179952585834"><ele>950.4999999999999</ele><time>2026-03-28T10:28:21.999Z</time></trkpt><trkpt lat="44.69553560935189" lon="9.598076204064128"><ele>952.0</ele><time>2026-03-28T10:28:22.999Z</time></trkpt><trkpt lat="44.695508483030316" lon="9.597974659331495"><ele>953.5</ele><time>2026-03-28T10:28:23.999Z</time></trkpt><trkpt lat="44.69547988561003" lon="9.597873569091666"><ele>955.0</ele><time>2026-03-28T10:28:24.999Z</time></trkpt><trkpt lat="44.69545133061504" lon="9.597773331211961"><ele>956.4999999999999</ele><time>2026-03-28T10:28:25.999Z</time></trkpt><trkpt lat="44.69542328112635" lon="9.597674950383807"><ele>958.0</ele><time>2026-03-28T10:28:26.999Z</time></trkpt><trkpt lat="44.69539466286182" lon="9.597581182261827"><ele>960.5714285714286</ele><time>2026-03-28T10:28:27.999Z</time></trkpt><trkpt lat="44.69536832515456" lon="9.597484057968103"><ele>963.1428571428571</ele><time>2026-03-28T10:28:28.999Z</time></trkpt><trkpt lat="44.695341552133485" lon="9.597391682259119"><ele>965.7142857142857</ele><time>2026-03-28T10:28:29.999Z</time></trkpt><trkpt lat="44.695317635153344" lon="9.597300126734602"><ele>968.2857142857142</ele><time>2026-03-28T10:28:30.999Z</time></trkpt><trkpt lat="44.695296350795" lon="9.597211796836515"><ele>970.8571428571429</ele><time>2026-03-28T10:28:31.999Z</time></trkpt><trkpt lat="44.6952805001048" lon="9.597120171740213"><ele>973.4285714285713</ele><time>2026-03-28T10:28:32.999Z</time></trkpt><trkpt lat="44.6952705371168" lon="9.597027357908507"><ele>975.9999999999999</ele><time>2026-03-28T10:28:33.999Z</time></trkpt><trkpt lat="44.69526008897803" lon="9.596930973402237"><ele>976.7142857142856</ele><time>2026-03-28T10:28:34.998Z</time></trkpt><trkpt lat="44.695263296329344" lon="9.59682840283889"><ele>977.4285714285713</ele><time>2026-03-28T10:28:35.998Z</time></trkpt><trkpt lat="44.6952714376623" lon="9.59672862977124"><ele>978.1428571428571</ele><time>2026-03-28T10:28:36.998Z</time></trkpt><trkpt lat="44.69528356288365" lon="9.596628911468558"><ele>978.8571428571428</ele><time>2026-03-28T10:28:37.998Z</time></trkpt><trkpt lat="44.695303041651165" lon="9.596534274172239"><ele>979.5714285714284</ele><time>2026-03-28T10:28:38.998Z</time></trkpt><trkpt lat="44.695325264976695" lon="9.596439547401898"><ele>980.2857142857143</ele><time>2026-03-28T10:28:39.998Z</time></trkpt><trkpt lat="44.69535457571097" lon="9.596342702719712"><ele>981.0</ele><time>2026-03-28T10:28:40.998Z</time></trkpt><trkpt lat="44.69537443133308" lon="9.59624361108925"><ele>976.0</ele><time>2026-03-28T10:28:41.998Z</time></trkpt><trkpt lat="44.695410012001695" lon="9.596156115798088"><ele>971.0</ele><time>2026-03-28T10:28:42.998Z</time></trkpt><trkpt lat="44.69544789484033" lon="9.596069057067504"><ele>966.0</ele><time>2026-03-28T10:28:43.998Z</time></trkpt><trkpt lat="44.695514362987055" lon="9.59600996987946"><ele>961.0</ele><time>2026-03-28T10:28:45Z</time></trkpt><trkpt lat="44.695558484987934" lon="9.59592842691529"><ele>956.0</ele><time>2026-03-28T10:28:46Z</time></trkpt><trkpt lat="44.69560724843482" lon="9.59584527014682"><ele>951.0</ele><time>2026-03-28T10:28:47Z</time></trkpt><trkpt lat="44.69565940946054" lon="9.595763499695046"><ele>951.0</ele><time>2026-03-28T10:28:48Z</time></trkpt><trkpt lat="44.69571596492719" lon="9.595683470625929"><ele>951.0</ele><time>2026-03-28T10:28:49Z</time></trkpt><trkpt lat="44.6957729675343" lon="9.595602420301981"><ele>951.0</ele><time>2026-03-28T10:28:50Z</time></trkpt><trkpt lat="44.69582819768819" lon="9.595517938037466"><ele>951.0</ele><time>2026-03-28T10:28:51Z</time></trkpt><trkpt lat="44.6958753913982" lon="9.595420356584118"><ele>951.0</ele><time>2026-03-28T10:28:52Z</time></trkpt><trkpt lat="44.69591329294203" lon="9.595313105518924"><ele>951.0</ele><time>2026-03-28T10:28:53Z</time></trkpt><trkpt lat="44.69595329755013" lon="9.595206121473984"><ele>948.3333333333334</ele><time>2026-03-28T10:28:54Z</time></trkpt><trkpt lat="44.69598217275376" lon="9.595087233561998"><ele>945.6666666666667</ele><time>2026-03-28T10:28:55Z</time></trkpt><trkpt lat="44.69599433088698" lon="9.59496649624562"><ele>943.0</ele><time>2026-03-28T10:28:56Z</time></trkpt><trkpt lat="44.69603114357039" lon="9.594859999371895"><ele>940.3333333333334</ele><time>2026-03-28T10:28:57Z</time></trkpt><trkpt lat="44.69608519437103" lon="9.594762186400782"><ele>937.6666666666667</ele><time>2026-03-28T10:28:58Z</time></trkpt><trkpt lat="44.69617164403002" lon="9.59470006743648"><ele>935.0</ele><time>2026-03-28T10:28:59Z</time></trkpt><trkpt lat="44.69628193738602" lon="9.594735949580752"><ele>933.6</ele><time>2026-03-28T10:29:00Z</time></trkpt><trkpt lat="44.696368228146625" lon="9.59484527582947"><ele>932.2</ele><time>2026-03-28T10:29:01Z</time></trkpt><trkpt lat="44.69644226110143" lon="9.59495649233309"><ele>930.8</ele><time>2026-03-28T10:29:02Z</time></trkpt><trkpt lat="44.69650218004538" lon="9.595078932491102"><ele>929.4</ele><time>2026-03-28T10:29:03Z</time></trkpt><trkpt lat="44.69658045185649" lon="9.595161916722256"><ele>928.0</ele><time>2026-03-28T10:29:04Z</time></trkpt><trkpt lat="44.69665030177956" lon="9.595285560266712"><ele>927.0</ele><time>2026-03-28T10:29:05Z</time></trkpt><trkpt lat="44.69674685034255" lon="9.595391495007963"><ele>926.0</ele><time>2026-03-28T10:29:06Z</time></trkpt><trkpt lat="44.696828773533746" lon="9.595493316701285"><ele>925.0</ele><time>2026-03-28T10:29:07Z</time></trkpt><trkpt lat="44.69690999856524" lon="9.595607364621722"><ele>924.0</ele><time>2026-03-28T10:29:08Z</time></trkpt><trkpt lat="44.69699576499827" lon="9.595728170962634"><ele>924.0</ele><time>2026-03-28T10:29:09Z</time></trkpt><trkpt lat="44.6970894698303" lon="9.595841422367595"><ele>924.0</ele><time>2026-03-28T10:29:10Z</time></trkpt><trkpt lat="44.69719157041795" lon="9.595947206125892"><ele>924.0</ele><time>2026-03-28T10:29:11Z</time></trkpt><trkpt lat="44.697292819246286" lon="9.596037597099945"><ele>924.0</ele><time>2026-03-28T10:29:12Z</time></trkpt><trkpt lat="44.69739992000159" lon="9.596106781808244"><ele>926.4000000000001</ele><time>2026-03-28T10:29:13Z</time></trkpt><trkpt lat="44.69750122887547" lon="9.59617978563082"><ele>928.8000000000001</ele><time>2026-03-28T10:29:14Z</time></trkpt><trkpt lat="44.69759200609886" lon="9.596244727543018"><ele>931.1999999999999</ele><time>2026-03-28T10:29:15Z</time></trkpt><trkpt lat="44.697667890586416" lon="9.596292507622035"><ele>933.5999999999999</ele><time>2026-03-28T10:29:16Z</time></trkpt><trkpt lat="44.69773614297577" lon="9.59632997556037"><ele>936.0</ele><time>2026-03-28T10:29:17Z</time></trkpt><trkpt lat="44.69782751697604" lon="9.596285027320443"><ele>934.0</ele><time>2026-03-28T10:29:19Z</time></trkpt><trkpt lat="44.69784069016557" lon="9.596149371945225"><ele>932.0</ele><time>2026-03-28T10:29:21Z</time></trkpt><trkpt lat="44.69781635952342" lon="9.596058585816209"><ele>930.0</ele><time>2026-03-28T10:29:22Z</time></trkpt><trkpt lat="44.697755810818464" lon="9.595977994188985"><ele>928.0</ele><time>2026-03-28T10:29:23Z</time></trkpt><trkpt lat="44.69769549482336" lon="9.595910858008752"><ele>926.0</ele><time>2026-03-28T10:29:24Z</time></trkpt><trkpt lat="44.69763278986308" lon="9.595833564507519"><ele>924.0</ele><time>2026-03-28T10:29:25Z</time></trkpt><trkpt lat="44.69757878099318" lon="9.595745983286625"><ele>924.0</ele><time>2026-03-28T10:29:26Z</time></trkpt><trkpt lat="44.697530458282344" lon="9.595648863835248"><ele>924.0</ele><time>2026-03-28T10:29:27Z</time></trkpt><trkpt lat="44.69748846507657" lon="9.595558185266654"><ele>924.0</ele><time>2026-03-28T10:29:28Z</time></trkpt><trkpt lat="44.69745324177449" lon="9.595480850701023"><ele>924.0</ele><time>2026-03-28T10:29:29Z</time></trkpt><trkpt lat="44.697473094875456" lon="9.595334107577406"><ele>924.0</ele><time>2026-03-28T10:29:31Z</time></trkpt><trkpt lat="44.69754982472529" lon="9.59530187940986"><ele>924.0</ele><time>2026-03-28T10:29:32Z</time></trkpt><trkpt lat="44.697627273786885" lon="9.595391874248445"><ele>924.0</ele><time>2026-03-28T10:29:33Z</time></trkpt><trkpt lat="44.69768445276665" lon="9.595476800095273"><ele>924.0000000000001</ele><time>2026-03-28T10:29:34Z</time></trkpt><trkpt lat="44.69775538969576" lon="9.595539389016858"><ele>924.0000000000001</ele><time>2026-03-28T10:29:35Z</time></trkpt><trkpt lat="44.697836203551255" lon="9.59558131037931"><ele>924.0</ele><time>2026-03-28T10:29:36Z</time></trkpt><trkpt lat="44.69798383509616" lon="9.595533609473058"><ele>924.0</ele><time>2026-03-28T10:29:38Z</time></trkpt><trkpt lat="44.69807816285812" lon="9.595513986770152"><ele>920.6</ele><time>2026-03-28T10:29:39Z</time></trkpt><trkpt lat="44.69818481498863" lon="9.595501398563533"><ele>917.2</ele><time>2026-03-28T10:29:40Z</time></trkpt><trkpt lat="44.698278900516804" lon="9.595494345882818"><ele>913.8000000000001</ele><time>2026-03-28T10:29:41Z</time></trkpt><trkpt lat="44.69837920446328" lon="9.595526942891562"><ele>910.4000000000001</ele><time>2026-03-28T10:29:42Z</time></trkpt><trkpt lat="44.698453700769534" lon="9.595617668886026"><ele>907.0</ele><time>2026-03-28T10:29:43Z</time></trkpt><trkpt lat="44.69850425836464" lon="9.595741585206314"><ele>907.0</ele><time>2026-03-28T10:29:44Z</time></trkpt><trkpt lat="44.6985050230715" lon="9.595864715578857"><ele>907.0</ele><time>2026-03-28T10:29:45Z</time></trkpt><trkpt lat="44.69850356421082" lon="9.596022331332627"><ele>907.0</ele><time>2026-03-28T10:29:46Z</time></trkpt><trkpt lat="44.69851672785217" lon="9.596184852774815"><ele>907.0</ele><time>2026-03-28T10:29:46.999Z</time></trkpt><trkpt lat="44.69854203985091" lon="9.596352855913144"><ele>907.0</ele><time>2026-03-28T10:29:47.999Z</time></trkpt><trkpt lat="44.698564396569914" lon="9.59652647094658"><ele>903.5</ele><time>2026-03-28T10:29:48.999Z</time></trkpt><trkpt lat="44.69861708173999" lon="9.596687702429476"><ele>900.0</ele><time>2026-03-28T10:29:49.999Z</time></trkpt><trkpt lat="44.698698784475404" lon="9.596832348442469"><ele>896.5</ele><time>2026-03-28T10:29:50.999Z</time></trkpt><trkpt lat="44.69876452211359" lon="9.596984632142345"><ele>893.0</ele><time>2026-03-28T10:29:51.999Z</time></trkpt><trkpt lat="44.698833731683976" lon="9.597140639899573"><ele>893.0</ele><time>2026-03-28T10:29:52.999Z</time></trkpt><trkpt lat="44.69890477144671" lon="9.597278055856782"><ele>893.0</ele><time>2026-03-28T10:29:53.999Z</time></trkpt><trkpt lat="44.69898592273556" lon="9.597391005224173"><ele>893.0</ele><time>2026-03-28T10:29:54.999Z</time></trkpt><trkpt lat="44.699068045915716" lon="9.597471282026092"><ele>893.0</ele><time>2026-03-28T10:29:55.999Z</time></trkpt><trkpt lat="44.699150294847605" lon="9.597569560054799"><ele>893.0</ele><time>2026-03-28T10:29:56.999Z</time></trkpt><trkpt lat="44.699212536140834" lon="9.597705390910098"><ele>893.4</ele><time>2026-03-28T10:29:57.999Z</time></trkpt><trkpt lat="44.699244210679865" lon="9.597852546439666"><ele>893.8</ele><time>2026-03-28T10:29:58.999Z</time></trkpt><trkpt lat="44.69927197194537" lon="9.597993032316584"><ele>894.2</ele><time>2026-03-28T10:29:59.999Z</time></trkpt><trkpt lat="44.69926081461603" lon="9.59813912592484"><ele>894.6</ele><time>2026-03-28T10:30:00.999Z</time></trkpt><trkpt lat="44.69924769149666" lon="9.598307952631895"><ele>895.0</ele><time>2026-03-28T10:30:01.999Z</time></trkpt><trkpt lat="44.69926518325024" lon="9.59846240755727"><ele>895.0</ele><time>2026-03-28T10:30:02.999Z</time></trkpt><trkpt lat="44.699311963710386" lon="9.598606769418344"><ele>895.0</ele><time>2026-03-28T10:30:03.999Z</time></trkpt><trkpt lat="44.699348001568076" lon="9.598744622494596"><ele>895.0</ele><time>2026-03-28T10:30:04.999Z</time></trkpt><trkpt lat="44.699356080354384" lon="9.598886461994299"><ele>895.0</ele><time>2026-03-28T10:30:05.999Z</time></trkpt><trkpt lat="44.69930420959082" lon="9.598998260409022"><ele>895.0</ele><time>2026-03-28T10:30:06.999Z</time></trkpt><trkpt lat="44.699296270120584" lon="9.599121803013935"><ele>894.9999999999999</ele><time>2026-03-28T10:30:07.999Z</time></trkpt><trkpt lat="44.69925986399982" lon="9.599232500675464"><ele>895.0</ele><time>2026-03-28T10:30:08.999Z</time></trkpt><trkpt lat="44.69928894198861" lon="9.599326980605538"><ele>895.0</ele><time>2026-03-28T10:30:09.999Z</time></trkpt><trkpt lat="44.699376109058235" lon="9.599388562585332"><ele>895.0</ele><time>2026-03-28T10:30:10.999Z</time></trkpt><trkpt lat="44.69946287586411" lon="9.599391916040277"><ele>894.9999999999999</ele><time>2026-03-28T10:30:11.999Z</time></trkpt><trkpt lat="44.69954010668469" lon="9.599353810525567"><ele>895.0</ele><time>2026-03-28T10:30:12.999Z</time></trkpt><trkpt lat="44.699612981799476" lon="9.599277887471484"><ele>891.0</ele><time>2026-03-28T10:30:13.999Z</time></trkpt><trkpt lat="44.69962526950293" lon="9.599126754237442"><ele>887.0</ele><time>2026-03-28T10:30:14.999Z</time></trkpt><trkpt lat="44.69962181724924" lon="9.5989800109522"><ele>883.0</ele><time>2026-03-28T10:30:15.999Z</time></trkpt><trkpt lat="44.699613213231075" lon="9.598838672706886"><ele>879.0</ele><time>2026-03-28T10:30:16.999Z</time></trkpt><trkpt lat="44.6995988926074" lon="9.598694172502146"><ele>875.0</ele><time>2026-03-28T10:30:17.999Z</time></trkpt><trkpt lat="44.69958376691453" lon="9.598543163484287"><ele>874.8</ele><time>2026-03-28T10:30:18.999Z</time></trkpt><trkpt lat="44.699565975416625" lon="9.59839002662431"><ele>874.6</ele><time>2026-03-28T10:30:19.999Z</time></trkpt><trkpt lat="44.69955833023963" lon="9.598234685116381"><ele>874.4000000000001</ele><time>2026-03-28T10:30:20.999Z</time></trkpt><trkpt lat="44.6995822673286" lon="9.598077016576639"><ele>874.2</ele><time>2026-03-28T10:30:21.999Z</time></trkpt><trkpt lat="44.699625352420405" lon="9.597928901391121"><ele>874.0</ele><time>2026-03-28T10:30:22.999Z</time></trkpt><trkpt lat="44.69966810277886" lon="9.597790951675654"><ele>874.0</ele><time>2026-03-28T10:30:23.999Z</time></trkpt><trkpt lat="44.69970424023756" lon="9.597656838722461"><ele>874.0000000000001</ele><time>2026-03-28T10:30:24.999Z</time></trkpt><trkpt lat="44.699740282353275" lon="9.59751509200118"><ele>874.0000000000001</ele><time>2026-03-28T10:30:25.999Z</time></trkpt><trkpt lat="44.699777653960865" lon="9.597373824759023"><ele>874.0</ele><time>2026-03-28T10:30:26.999Z</time></trkpt><trkpt lat="44.69984049608227" lon="9.597244011940575"><ele>874.0</ele><time>2026-03-28T10:30:27.999Z</time></trkpt><trkpt lat="44.69992532917403" lon="9.597149593740683"><ele>874.0</ele><time>2026-03-28T10:30:28.999Z</time></trkpt><trkpt lat="44.700027543331665" lon="9.597100809610835"><ele>874.0000000000001</ele><time>2026-03-28T10:30:29.999Z</time></trkpt><trkpt lat="44.70013307385461" lon="9.5970739658039"><ele>874.0000000000001</ele><time>2026-03-28T10:30:30.999Z</time></trkpt><trkpt lat="44.70023022449361" lon="9.59704820347329"><ele>874.0</ele><time>2026-03-28T10:30:31.999Z</time></trkpt><trkpt lat="44.700310185334324" lon="9.596987269779953"><ele>874.0</ele><time>2026-03-28T10:30:32.999Z</time></trkpt><trkpt lat="44.700371136247185" lon="9.59688698470111"><ele>873.6</ele><time>2026-03-28T10:30:33.999Z</time></trkpt><trkpt lat="44.70038797696326" lon="9.596744509622486"><ele>873.2</ele><time>2026-03-28T10:30:34.999Z</time></trkpt><trkpt lat="44.70038904554116" lon="9.596604928538648"><ele>872.8000000000001</ele><time>2026-03-28T10:30:35.999Z</time></trkpt><trkpt lat="44.7003253404343" lon="9.59647362583733"><ele>872.4000000000001</ele><time>2026-03-28T10:30:36.999Z</time></trkpt><trkpt lat="44.70026474235133" lon="9.596364105160232"><ele>872.0</ele><time>2026-03-28T10:30:37.999Z</time></trkpt><trkpt lat="44.70022383356355" lon="9.596263250654893"><ele>872.0000000000001</ele><time>2026-03-28T10:30:38.998Z</time></trkpt><trkpt lat="44.700209576512016" lon="9.596175286533892"><ele>872.0</ele><time>2026-03-28T10:30:39.998Z</time></trkpt><trkpt lat="44.70022333106969" lon="9.596082546028459"><ele>872.0</ele><time>2026-03-28T10:30:40.998Z</time></trkpt><trkpt lat="44.7002821502737" lon="9.596014098476983"><ele>872.0</ele><time>2026-03-28T10:30:41.998Z</time></trkpt><trkpt lat="44.70036306996163" lon="9.596023005108242"><ele>872.0000000000001</ele><time>2026-03-28T10:30:42.998Z</time></trkpt><trkpt lat="44.70044265148321" lon="9.596088043027862"><ele>872.0</ele><time>2026-03-28T10:30:43.998Z</time></trkpt><trkpt lat="44.70048947604526" lon="9.596195287136112"><ele>869.8333333333334</ele><time>2026-03-28T10:30:44.998Z</time></trkpt><trkpt lat="44.700536009525166" lon="9.596297621174905"><ele>867.6666666666667</ele><time>2026-03-28T10:30:45.998Z</time></trkpt><trkpt lat="44.70058914928631" lon="9.5963892548686"><ele>865.5</ele><time>2026-03-28T10:30:46.998Z</time></trkpt><trkpt lat="44.70065068337428" lon="9.596475685817149"><ele>863.3333333333333</ele><time>2026-03-28T10:30:47.998Z</time></trkpt><trkpt lat="44.700723396137995" lon="9.5965639860371"><ele>861.1666666666666</ele><time>2026-03-28T10:30:48.998Z</time></trkpt><trkpt lat="44.70080526001533" lon="9.596631259339182"><ele>859.0</ele><time>2026-03-28T10:30:49.998Z</time></trkpt><trkpt lat="44.70089323581645" lon="9.596703773589823"><ele>859.0</ele><time>2026-03-28T10:30:51Z</time></trkpt><trkpt lat="44.700981429375354" lon="9.596780988337468"><ele>859.0000000000001</ele><time>2026-03-28T10:30:52Z</time></trkpt><trkpt lat="44.701069772711406" lon="9.596862926539698"><ele>859.0000000000001</ele><time>2026-03-28T10:30:53Z</time></trkpt><trkpt lat="44.70114896170922" lon="9.59696586423293"><ele>859.0</ele><time>2026-03-28T10:30:54Z</time></trkpt><trkpt lat="44.701222298569164" lon="9.59708239840573"><ele>859.0</ele><time>2026-03-28T10:30:55Z</time></trkpt><trkpt lat="44.70128221654808" lon="9.597221030619401"><ele>856.25</ele><time>2026-03-28T10:30:56Z</time></trkpt><trkpt lat="44.701334478183654" lon="9.597376018085109"><ele>853.5</ele><time>2026-03-28T10:30:57Z</time></trkpt><trkpt lat="44.70140159066332" lon="9.597516845861223"><ele>850.75</ele><time>2026-03-28T10:30:58Z</time></trkpt><trkpt lat="44.70146857088451" lon="9.59765155359794"><ele>848.0</ele><time>2026-03-28T10:30:59Z</time></trkpt><trkpt lat="44.70153294311707" lon="9.597779339867229"><ele>848.4</ele><time>2026-03-28T10:31:00Z</time></trkpt><trkpt lat="44.701589080111624" lon="9.597915471490559"><ele>848.8</ele><time>2026-03-28T10:31:01Z</time></trkpt><trkpt lat="44.70163961632652" lon="9.598047135152386"><ele>849.2</ele><time>2026-03-28T10:31:02Z</time></trkpt><trkpt lat="44.7016733866174" lon="9.598188178586332"><ele>849.6</ele><time>2026-03-28T10:31:03Z</time></trkpt><trkpt lat="44.70169269979822" lon="9.598329626772989"><ele>850.0</ele><time>2026-03-28T10:31:04Z</time></trkpt><trkpt lat="44.70172961043098" lon="9.598477675277092"><ele>850.0</ele><time>2026-03-28T10:31:05Z</time></trkpt><trkpt lat="44.701774219457356" lon="9.598611933810831"><ele>850.0</ele><time>2026-03-28T10:31:06Z</time></trkpt><trkpt lat="44.70185360418212" lon="9.598727353044154"><ele>850.0</ele><time>2026-03-28T10:31:07Z</time></trkpt><trkpt lat="44.701930493583596" lon="9.598840080419027"><ele>850.0</ele><time>2026-03-28T10:31:08Z</time></trkpt><trkpt lat="44.70201984945599" lon="9.598939809265097"><ele>850.0</ele><time>2026-03-28T10:31:09Z</time></trkpt><trkpt lat="44.70211284189624" lon="9.599044754305798"><ele>850.8</ele><time>2026-03-28T10:31:10Z</time></trkpt><trkpt lat="44.70218593967771" lon="9.599165135517477"><ele>851.6</ele><time>2026-03-28T10:31:11Z</time></trkpt><trkpt lat="44.70226668902343" lon="9.599264982802781"><ele>852.4000000000001</ele><time>2026-03-28T10:31:12Z</time></trkpt><trkpt lat="44.70235460841543" lon="9.599345893565163"><ele>853.2</ele><time>2026-03-28T10:31:13Z</time></trkpt><trkpt lat="44.70242940890396" lon="9.599430151838037"><ele>854.0</ele><time>2026-03-28T10:31:14Z</time></trkpt><trkpt lat="44.70249541526543" lon="9.599525835143957"><ele>854.0</ele><time>2026-03-28T10:31:15Z</time></trkpt><trkpt lat="44.702596044254996" lon="9.599538133674004"><ele>854.0000000000001</ele><time>2026-03-28T10:31:16Z</time></trkpt><trkpt lat="44.70269588160766" lon="9.599490510318697"><ele>854.0000000000001</ele><time>2026-03-28T10:31:17Z</time></trkpt><trkpt lat="44.70278035440288" lon="9.59939639770438"><ele>854.0</ele><time>2026-03-28T10:31:18Z</time></trkpt><trkpt lat="44.702850605857755" lon="9.599285193084247"><ele>854.0</ele><time>2026-03-28T10:31:19Z</time></trkpt><trkpt lat="44.70292190233875" lon="9.599180158969698"><ele>851.4000000000001</ele><time>2026-03-28T10:31:20Z</time></trkpt><trkpt lat="44.703003496142756" lon="9.599086312763388"><ele>848.8000000000001</ele><time>2026-03-28T10:31:21Z</time></trkpt><trkpt lat="44.70309407800655" lon="9.598996184569764"><ele>846.2</ele><time>2026-03-28T10:31:22Z</time></trkpt><trkpt lat="44.70318735911361" lon="9.598912735547882"><ele>843.5999999999999</ele><time>2026-03-28T10:31:23Z</time></trkpt><trkpt lat="44.70328067726882" lon="9.598827531271201"><ele>841.0</ele><time>2026-03-28T10:31:24Z</time></trkpt><trkpt lat="44.70337295957882" lon="9.598737287372911"><ele>839.0</ele><time>2026-03-28T10:31:25Z</time></trkpt><trkpt lat="44.70345384413077" lon="9.598628792904293"><ele>837.0</ele><time>2026-03-28T10:31:26Z</time></trkpt><trkpt lat="44.70352536647506" lon="9.598510879322816"><ele>835.0</ele><time>2026-03-28T10:31:27Z</time></trkpt><trkpt lat="44.70358897237226" lon="9.598391313114156"><ele>833.0</ele><time>2026-03-28T10:31:28Z</time></trkpt><trkpt lat="44.70364778428682" lon="9.598279066004437"><ele>831.0</ele><time>2026-03-28T10:31:29Z</time></trkpt><trkpt lat="44.70372293292046" lon="9.598203774578675"><ele>831.0</ele><time>2026-03-28T10:31:30Z</time></trkpt><trkpt lat="44.70382103588995" lon="9.59816374471962"><ele>831.0</ele><time>2026-03-28T10:31:31Z</time></trkpt><trkpt lat="44.703914590987495" lon="9.598151438923864"><ele>831.0</ele><time>2026-03-28T10:31:32Z</time></trkpt><trkpt lat="44.704041574948626" lon="9.598172330319574"><ele>831.0</ele><time>2026-03-28T10:31:33Z</time></trkpt><trkpt lat="44.70415786595853" lon="9.598186238295437"><ele>831.0</ele><time>2026-03-28T10:31:34Z</time></trkpt><trkpt lat="44.704263656434556" lon="9.598133147098892"><ele>831.0</ele><time>2026-03-28T10:31:35Z</time></trkpt><trkpt lat="44.70436212636191" lon="9.598029009220479"><ele>831.0</ele><time>2026-03-28T10:31:36Z</time></trkpt><trkpt lat="44.70445017730287" lon="9.597928674000206"><ele>831.0</ele><time>2026-03-28T10:31:37Z</time></trkpt><trkpt lat="44.70454520470884" lon="9.597852435602212"><ele>831.0</ele><time>2026-03-28T10:31:38Z</time></trkpt><trkpt lat="44.704638717776454" lon="9.597785761224326"><ele>828.4</ele><time>2026-03-28T10:31:39Z</time></trkpt><trkpt lat="44.70472751813497" lon="9.597696955197778"><ele>825.8</ele><time>2026-03-28T10:31:40Z</time></trkpt><trkpt lat="44.70479795772297" lon="9.597575325956868"><ele>823.1999999999999</ele><time>2026-03-28T10:31:41Z</time></trkpt><trkpt lat="44.70484937353465" lon="9.597437550635137"><ele>820.5999999999999</ele><time>2026-03-28T10:31:42Z</time></trkpt><trkpt lat="44.70491062412661" lon="9.59732443728719"><ele>818.0</ele><time>2026-03-28T10:31:43Z</time></trkpt><trkpt lat="44.70499240920717" lon="9.597251438743108"><ele>818.0</ele><time>2026-03-28T10:31:44Z</time></trkpt><trkpt lat="44.705080687567204" lon="9.597249637902593"><ele>818.0</ele><time>2026-03-28T10:31:45Z</time></trkpt><trkpt lat="44.70519040293943" lon="9.597334780774862"><ele>818.0</ele><time>2026-03-28T10:31:46Z</time></trkpt><trkpt lat="44.70527109728731" lon="9.59742871425928"><ele>818.0</ele><time>2026-03-28T10:31:47Z</time></trkpt><trkpt lat="44.70526253072795" lon="9.597521350149782"><ele>818.0</ele><time>2026-03-28T10:31:48Z</time></trkpt><trkpt lat="44.70530894635542" lon="9.597700469673565"><ele>815.5999999999999</ele><time>2026-03-28T10:31:49Z</time></trkpt><trkpt lat="44.7053452351399" lon="9.597847516097222"><ele>813.1999999999999</ele><time>2026-03-28T10:31:50Z</time></trkpt><trkpt lat="44.705425371607966" lon="9.597943889366498"><ele>810.8</ele><time>2026-03-28T10:31:50.999Z</time></trkpt><trkpt lat="44.70553060768105" lon="9.59797126499632"><ele>808.4</ele><time>2026-03-28T10:31:51.999Z</time></trkpt><trkpt lat="44.70563499819645" lon="9.597904064520801"><ele>806.0</ele><time>2026-03-28T10:31:52.999Z</time></trkpt><trkpt lat="44.70570400433382" lon="9.597771283370987"><ele>806.0</ele><time>2026-03-28T10:31:53.999Z</time></trkpt><trkpt lat="44.70572121431592" lon="9.597619995289465"><ele>806.0</ele><time>2026-03-28T10:31:54.999Z</time></trkpt><trkpt lat="44.7057009315191" lon="9.597465332691538"><ele>806.0</ele><time>2026-03-28T10:31:55.999Z</time></trkpt><trkpt lat="44.70569321403448" lon="9.597310032762902"><ele>806.0</ele><time>2026-03-28T10:31:56.999Z</time></trkpt><trkpt lat="44.70566224524946" lon="9.59716078017188"><ele>806.0</ele><time>2026-03-28T10:31:57.999Z</time></trkpt><trkpt lat="44.70561854519635" lon="9.597028564247193"><ele>805.4</ele><time>2026-03-28T10:31:58.999Z</time></trkpt><trkpt lat="44.70554768408989" lon="9.596922465833376"><ele>804.8</ele><time>2026-03-28T10:31:59.999Z</time></trkpt><trkpt lat="44.70544939958316" lon="9.596859083712587"><ele>804.1999999999999</ele><time>2026-03-28T10:32:00.999Z</time></trkpt><trkpt lat="44.70533745070451" lon="9.596852848743426"><ele>803.5999999999999</ele><time>2026-03-28T10:32:01.999Z</time></trkpt><trkpt lat="44.70524125409367" lon="9.596829978982441"><ele>803.0</ele><time>2026-03-28T10:32:02.999Z</time></trkpt><trkpt lat="44.70514521648292" lon="9.596796667625867"><ele>803.0</ele><time>2026-03-28T10:32:03.999Z</time></trkpt><trkpt lat="44.70505217708297" lon="9.596749184483139"><ele>803.0</ele><time>2026-03-28T10:32:04.999Z</time></trkpt><trkpt lat="44.70495673358625" lon="9.596688467937541"><ele>803.0</ele><time>2026-03-28T10:32:05.999Z</time></trkpt><trkpt lat="44.70485992539233" lon="9.596625678523182"><ele>803.0</ele><time>2026-03-28T10:32:06.999Z</time></trkpt><trkpt lat="44.70476935028186" lon="9.596566931827791"><ele>803.0</ele><time>2026-03-28T10:32:07.999Z</time></trkpt><trkpt lat="44.70470171751328" lon="9.596503841226832"><ele>803.0</ele><time>2026-03-28T10:32:08.999Z</time></trkpt><trkpt lat="44.70465430448607" lon="9.59643703238623"><ele>803.0</ele><time>2026-03-28T10:32:09.999Z</time></trkpt><trkpt lat="44.70468598671566" lon="9.596273021684075"><ele>803.0</ele><time>2026-03-28T10:32:11.999Z</time></trkpt><trkpt lat="44.704756760363544" lon="9.596197919174092"><ele>803.0</ele><time>2026-03-28T10:32:12.999Z</time></trkpt><trkpt lat="44.70484423439583" lon="9.5961769972256"><ele>803.0</ele><time>2026-03-28T10:32:13.999Z</time></trkpt><trkpt lat="44.70493605997475" lon="9.596194905454537"><ele>803.0</ele><time>2026-03-28T10:32:14.999Z</time></trkpt><trkpt lat="44.70503793264081" lon="9.596215534245978"><ele>803.0</ele><time>2026-03-28T10:32:15.999Z</time></trkpt><trkpt lat="44.70514000096918" lon="9.596233309441498"><ele>803.0</ele><time>2026-03-28T10:32:16.999Z</time></trkpt><trkpt lat="44.70524334986463" lon="9.59624560525135"><ele>803.0</ele><time>2026-03-28T10:32:17.999Z</time></trkpt><trkpt lat="44.70534648406553" lon="9.596255994775406"><ele>803.0</ele><time>2026-03-28T10:32:18.999Z</time></trkpt><trkpt lat="44.70545428224174" lon="9.596245835348876"><ele>801.8</ele><time>2026-03-28T10:32:19.999Z</time></trkpt><trkpt lat="44.70555981123403" lon="9.596205061465295"><ele>800.5999999999999</ele><time>2026-03-28T10:32:20.999Z</time></trkpt><trkpt lat="44.705655834573115" lon="9.596130818619903"><ele>799.4000000000001</ele><time>2026-03-28T10:32:21.999Z</time></trkpt><trkpt lat="44.70574015339068" lon="9.59603017348429"><ele>798.2</ele><time>2026-03-28T10:32:22.999Z</time></trkpt><trkpt lat="44.70581116836848" lon="9.59591429183829"><ele>797.0</ele><time>2026-03-28T10:32:23.999Z</time></trkpt><trkpt lat="44.7058749459277" lon="9.595799174461238"><ele>794.4000000000001</ele><time>2026-03-28T10:32:24.999Z</time></trkpt><trkpt lat="44.70593434673201" lon="9.595696910792745"><ele>791.8000000000001</ele><time>2026-03-28T10:32:25.999Z</time></trkpt><trkpt lat="44.70596393534784" lon="9.595582986579908"><ele>789.2</ele><time>2026-03-28T10:32:26.999Z</time></trkpt><trkpt lat="44.70598124571837" lon="9.595456414163182"><ele>786.6</ele><time>2026-03-28T10:32:27.999Z</time></trkpt><trkpt lat="44.705928328125694" lon="9.595319003233724"><ele>784.0</ele><time>2026-03-28T10:32:28.999Z</time></trkpt><trkpt lat="44.705834651965766" lon="9.595244301298445"><ele>784.0</ele><time>2026-03-28T10:32:29.999Z</time></trkpt><trkpt lat="44.705723855972344" lon="9.595245245114084"><ele>784.0</ele><time>2026-03-28T10:32:30.999Z</time></trkpt><trkpt lat="44.705642144877174" lon="9.595382722698256"><ele>784.0</ele><time>2026-03-28T10:32:31.999Z</time></trkpt><trkpt lat="44.70558534919249" lon="9.595482191071481"><ele>784.0</ele><time>2026-03-28T10:32:32.999Z</time></trkpt><trkpt lat="44.7055139782368" lon="9.595568498739283"><ele>784.0</ele><time>2026-03-28T10:32:33.999Z</time></trkpt><trkpt lat="44.705449488708474" lon="9.595644484258942"><ele>783.9999999999999</ele><time>2026-03-28T10:32:34.999Z</time></trkpt><trkpt lat="44.70537247413672" lon="9.595672166561151"><ele>784.0</ele><time>2026-03-28T10:32:35.999Z</time></trkpt><trkpt lat="44.70529433118148" lon="9.595655483301035"><ele>784.0</ele><time>2026-03-28T10:32:36.999Z</time></trkpt><trkpt lat="44.70522986709145" lon="9.595596610722518"><ele>784.0</ele><time>2026-03-28T10:32:37.999Z</time></trkpt><trkpt lat="44.70515765866591" lon="9.595522442749072"><ele>783.9999999999999</ele><time>2026-03-28T10:32:38.999Z</time></trkpt><trkpt lat="44.70508534870989" lon="9.595440056881667"><ele>784.0</ele><time>2026-03-28T10:32:39.999Z</time></trkpt><trkpt lat="44.70499912476551" lon="9.595361680789024"><ele>781.8000000000001</ele><time>2026-03-28T10:32:40.999Z</time></trkpt><trkpt lat="44.704900540053316" lon="9.595301920688504"><ele>779.6</ele><time>2026-03-28T10:32:41.999Z</time></trkpt><trkpt lat="44.70480847800139" lon="9.59524374579179"><ele>777.4</ele><time>2026-03-28T10:32:42.999Z</time></trkpt><trkpt lat="44.70471161696896" lon="9.595188366466392"><ele>775.2</ele><time>2026-03-28T10:32:43.998Z</time></trkpt><trkpt lat="44.704600685521115" lon="9.595152306822865"><ele>773.0</ele><time>2026-03-28T10:32:44.998Z</time></trkpt><trkpt lat="44.70448196896802" lon="9.595144180343704"><ele>772.4</ele><time>2026-03-28T10:32:45.998Z</time></trkpt><trkpt lat="44.70438023068238" lon="9.595145241459743"><ele>771.8</ele><time>2026-03-28T10:32:46.998Z</time></trkpt><trkpt lat="44.7042993619934" lon="9.595136636939804"><ele>771.2</ele><time>2026-03-28T10:32:47.998Z</time></trkpt><trkpt lat="44.704206838164104" lon="9.595061842546412"><ele>770.6</ele><time>2026-03-28T10:32:49.998Z</time></trkpt><trkpt lat="44.704249718213916" lon="9.594903922744045"><ele>770.0</ele><time>2026-03-28T10:32:51.998Z</time></trkpt><trkpt lat="44.70434089538242" lon="9.594876730734269"><ele>770.6</ele><time>2026-03-28T10:32:52.998Z</time></trkpt><trkpt lat="44.704434045324184" lon="9.594892352216581"><ele>771.2</ele><time>2026-03-28T10:32:53.998Z</time></trkpt><trkpt lat="44.70452299071418" lon="9.594896643088129"><ele>771.8</ele><time>2026-03-28T10:32:54.998Z</time></trkpt><trkpt lat="44.7046154791486" lon="9.594890281585421"><ele>772.4</ele><time>2026-03-28T10:32:56Z</time></trkpt><trkpt lat="44.70471692332182" lon="9.594872533076936"><ele>773.0</ele><time>2026-03-28T10:32:57Z</time></trkpt><trkpt lat="44.70481677601821" lon="9.594837148652957"><ele>773.0</ele><time>2026-03-28T10:32:58Z</time></trkpt><trkpt lat="44.704918320078036" lon="9.594785328855313"><ele>773.0</ele><time>2026-03-28T10:32:59Z</time></trkpt><trkpt lat="44.70501625444465" lon="9.594716205998786"><ele>773.0</ele><time>2026-03-28T10:33:00Z</time></trkpt><trkpt lat="44.705122345470016" lon="9.594681893186202"><ele>773.0</ele><time>2026-03-28T10:33:01Z</time></trkpt><trkpt lat="44.70523496005197" lon="9.594676095589705"><ele>773.0</ele><time>2026-03-28T10:33:02Z</time></trkpt><trkpt lat="44.705352414508866" lon="9.594681501571397"><ele>772.25</ele><time>2026-03-28T10:33:03Z</time></trkpt><trkpt lat="44.70547127413594" lon="9.594682261745898"><ele>771.5</ele><time>2026-03-28T10:33:04Z</time></trkpt><trkpt lat="44.705592952828844" lon="9.594672842238642"><ele>770.75</ele><time>2026-03-28T10:33:05Z</time></trkpt><trkpt lat="44.705712146421355" lon="9.594658917407061"><ele>770.0</ele><time>2026-03-28T10:33:06Z</time></trkpt><trkpt lat="44.705821697940515" lon="9.594654597472259"><ele>770.0000000000001</ele><time>2026-03-28T10:33:07Z</time></trkpt><trkpt lat="44.705917951389246" lon="9.594651617969422"><ele>770.0</ele><time>2026-03-28T10:33:08Z</time></trkpt><trkpt lat="44.70600019638454" lon="9.594635237820041"><ele>770.0</ele><time>2026-03-28T10:33:09Z</time></trkpt><trkpt lat="44.706067632739135" lon="9.59458316963418"><ele>770.0</ele><time>2026-03-28T10:33:10Z</time></trkpt><trkpt lat="44.70610370979432" lon="9.594483885737082"><ele>770.0000000000001</ele><time>2026-03-28T10:33:11Z</time></trkpt><trkpt lat="44.706115899430806" lon="9.59436980071745"><ele>770.0</ele><time>2026-03-28T10:33:12Z</time></trkpt><trkpt lat="44.70606760503045" lon="9.594265693774075"><ele>765.6</ele><time>2026-03-28T10:33:13Z</time></trkpt><trkpt lat="44.70594317857297" lon="9.594245913656245"><ele>761.2</ele><time>2026-03-28T10:33:14Z</time></trkpt><trkpt lat="44.705858806490916" lon="9.594273946785947"><ele>756.8</ele><time>2026-03-28T10:33:15Z</time></trkpt><trkpt lat="44.70577624149563" lon="9.594278307846915"><ele>752.4</ele><time>2026-03-28T10:33:16Z</time></trkpt><trkpt lat="44.70569252469338" lon="9.59426408190224"><ele>748.0</ele><time>2026-03-28T10:33:17Z</time></trkpt><trkpt lat="44.705627082276955" lon="9.594209714159772"><ele>748.0</ele><time>2026-03-28T10:33:18Z</time></trkpt><trkpt lat="44.70554587892957" lon="9.594134823558822"><ele>748.0</ele><time>2026-03-28T10:33:19Z</time></trkpt><trkpt lat="44.705465955906455" lon="9.59405394175757"><ele>748.0</ele><time>2026-03-28T10:33:20Z</time></trkpt><trkpt lat="44.705380587833304" lon="9.593967184967564"><ele>748.0</ele><time>2026-03-28T10:33:21Z</time></trkpt><trkpt lat="44.705292260309676" lon="9.593877905118847"><ele>748.0</ele><time>2026-03-28T10:33:22Z</time></trkpt><trkpt lat="44.70520347771595" lon="9.593793033773391"><ele>748.5</ele><time>2026-03-28T10:33:23Z</time></trkpt><trkpt lat="44.70511518638778" lon="9.593714921001292"><ele>749.0</ele><time>2026-03-28T10:33:24Z</time></trkpt><trkpt lat="44.70500270009874" lon="9.593674865644772"><ele>749.5</ele><time>2026-03-28T10:33:25Z</time></trkpt><trkpt lat="44.704875290735615" lon="9.593736366557254"><ele>750.0</ele><time>2026-03-28T10:33:26Z</time></trkpt><trkpt lat="44.7047840938279" lon="9.593845171346983"><ele>750.0</ele><time>2026-03-28T10:33:27Z</time></trkpt><trkpt lat="44.704712124354764" lon="9.593909374672908"><ele>750.0</ele><time>2026-03-28T10:33:28Z</time></trkpt><trkpt lat="44.70464487108793" lon="9.593932999829192"><ele>750.0</ele><time>2026-03-28T10:33:29Z</time></trkpt><trkpt lat="44.70456109736399" lon="9.593834629340249"><ele>750.0</ele><time>2026-03-28T10:33:31Z</time></trkpt><trkpt lat="44.70455032213341" lon="9.593733547447696"><ele>750.0</ele><time>2026-03-28T10:33:32Z</time></trkpt><trkpt lat="44.70461049818717" lon="9.59364087129979"><ele>750.0</ele><time>2026-03-28T10:33:33Z</time></trkpt><trkpt lat="44.70469095970399" lon="9.593584877707565"><ele>746.0</ele><time>2026-03-28T10:33:34Z</time></trkpt><trkpt lat="44.70478049387869" lon="9.593532247591654"><ele>742.0</ele><time>2026-03-28T10:33:35Z</time></trkpt><trkpt lat="44.704868135194346" lon="9.593468502695574"><ele>738.0</ele><time>2026-03-28T10:33:36Z</time></trkpt><trkpt lat="44.70496350242383" lon="9.593420578989624"><ele>734.0</ele><time>2026-03-28T10:33:37Z</time></trkpt><trkpt lat="44.7050607883566" lon="9.59338584279879"><ele>730.0</ele><time>2026-03-28T10:33:38Z</time></trkpt><trkpt lat="44.705169476131495" lon="9.593370161514704"><ele>729.8</ele><time>2026-03-28T10:33:39Z</time></trkpt><trkpt lat="44.705280089193145" lon="9.593375706202073"><ele>729.6</ele><time>2026-03-28T10:33:40Z</time></trkpt><trkpt lat="44.70538268082538" lon="9.59336151205056"><ele>729.4000000000001</ele><time>2026-03-28T10:33:41Z</time></trkpt><trkpt lat="44.70547343731361" lon="9.593341790888468"><ele>729.2</ele><time>2026-03-28T10:33:42Z</time></trkpt><trkpt lat="44.70556015132496" lon="9.59333650614416"><ele>729.0</ele><time>2026-03-28T10:33:43Z</time></trkpt><trkpt lat="44.70563573055427" lon="9.593309961549119"><ele>729.0</ele><time>2026-03-28T10:33:44Z</time></trkpt><trkpt lat="44.70568512264746" lon="9.593226728528734"><ele>729.0</ele><time>2026-03-28T10:33:45Z</time></trkpt><trkpt lat="44.70571048824966" lon="9.593127272992632"><ele>729.0</ele><time>2026-03-28T10:33:46Z</time></trkpt><trkpt lat="44.705672580704885" lon="9.593001187498599"><ele>729.0</ele><time>2026-03-28T10:33:47Z</time></trkpt><trkpt lat="44.7055612866671" lon="9.59294663122773"><ele>729.0</ele><time>2026-03-28T10:33:48Z</time></trkpt><trkpt lat="44.70545149265141" lon="9.593003884787322"><ele>729.0</ele><time>2026-03-28T10:33:49Z</time></trkpt><trkpt lat="44.705368568512576" lon="9.593006678417215"><ele>729.0</ele><time>2026-03-28T10:33:50Z</time></trkpt><trkpt lat="44.70528548369161" lon="9.592998305375236"><ele>729.0</ele><time>2026-03-28T10:33:51Z</time></trkpt><trkpt lat="44.70520074194698" lon="9.592971754989161"><ele>729.0</ele><time>2026-03-28T10:33:52Z</time></trkpt><trkpt lat="44.70510913852179" lon="9.592935512212172"><ele>729.0</ele><time>2026-03-28T10:33:53Z</time></trkpt><trkpt lat="44.7050156313089" lon="9.592897492925177"><ele>729.0</ele><time>2026-03-28T10:33:53.999Z</time></trkpt><trkpt lat="44.70492042111664" lon="9.592855104976742"><ele>727.2857142857143</ele><time>2026-03-28T10:33:54.999Z</time></trkpt><trkpt lat="44.70484407953411" lon="9.592811711000362"><ele>725.5714285714286</ele><time>2026-03-28T10:33:55.999Z</time></trkpt><trkpt lat="44.704791850018346" lon="9.592758486947341"><ele>723.8571428571429</ele><time>2026-03-28T10:33:56.999Z</time></trkpt><trkpt lat="44.704746695234945" lon="9.59268727009771"><ele>722.1428571428571</ele><time>2026-03-28T10:33:57.999Z</time></trkpt><trkpt lat="44.70471307617972" lon="9.592600578504063"><ele>720.4285714285713</ele><time>2026-03-28T10:33:58.999Z</time></trkpt><trkpt lat="44.70467979330253" lon="9.592498557520358"><ele>718.7142857142857</ele><time>2026-03-28T10:33:59.999Z</time></trkpt><trkpt lat="44.704650338927486" lon="9.592394072766469"><ele>717.0</ele><time>2026-03-28T10:34:00.999Z</time></trkpt><trkpt lat="44.70461562551217" lon="9.592287543511715"><ele>717.0</ele><time>2026-03-28T10:34:01.999Z</time></trkpt><trkpt lat="44.704571124190444" lon="9.592202576146287"><ele>717.0</ele><time>2026-03-28T10:34:02.999Z</time></trkpt><trkpt lat="44.70448920484643" lon="9.592091608038746"><ele>717.0</ele><time>2026-03-28T10:34:04.999Z</time></trkpt><trkpt lat="44.704439631038134" lon="9.59203222578702"><ele>717.0</ele><time>2026-03-28T10:34:06.999Z</time></trkpt><trkpt lat="44.70437354371775" lon="9.591956506619482"><ele>717.0</ele><time>2026-03-28T10:34:19.999Z</time></trkpt><trkpt lat="44.70432703473513" lon="9.59189400333016"><ele>717.0</ele><time>2026-03-28T10:34:21.999Z</time></trkpt><trkpt lat="44.70427771881705" lon="9.59181775491178"><ele>717.8333333333334</ele><time>2026-03-28T10:34:23.999Z</time></trkpt><trkpt lat="44.70423587069598" lon="9.591708505066968"><ele>718.6666666666666</ele><time>2026-03-28T10:34:25.999Z</time></trkpt><trkpt lat="44.704195354658616" lon="9.59154564175208"><ele>719.5</ele><time>2026-03-28T10:34:27.999Z</time></trkpt><trkpt lat="44.70420881813017" lon="9.591450945015579"><ele>720.3333333333333</ele><time>2026-03-28T10:34:28.999Z</time></trkpt><trkpt lat="44.70423622152599" lon="9.591361830315819"><ele>721.1666666666666</ele><time>2026-03-28T10:34:29.999Z</time></trkpt><trkpt lat="44.70426887605533" lon="9.591271309021732"><ele>722.0</ele><time>2026-03-28T10:34:30.999Z</time></trkpt><trkpt lat="44.704299826400934" lon="9.59119175329243"><ele>720.8333333333333</ele><time>2026-03-28T10:34:31.999Z</time></trkpt><trkpt lat="44.704331854716905" lon="9.591109187175233"><ele>719.6666666666666</ele><time>2026-03-28T10:34:32.999Z</time></trkpt><trkpt lat="44.70436441039874" lon="9.59102378195538"><ele>718.5</ele><time>2026-03-28T10:34:33.999Z</time></trkpt><trkpt lat="44.70440123665859" lon="9.590939000532613"><ele>717.3333333333334</ele><time>2026-03-28T10:34:34.999Z</time></trkpt><trkpt lat="44.704436399898064" lon="9.590849089532703"><ele>716.1666666666667</ele><time>2026-03-28T10:34:35.999Z</time></trkpt><trkpt lat="44.704456886256324" lon="9.590761695385645"><ele>715.0</ele><time>2026-03-28T10:34:36.999Z</time></trkpt><trkpt lat="44.7044411438153" lon="9.590604236355345"><ele>715.0</ele><time>2026-03-28T10:34:38.999Z</time></trkpt><trkpt lat="44.704406366907065" lon="9.590529659468224"><ele>715.0</ele><time>2026-03-28T10:34:39.999Z</time></trkpt><trkpt lat="44.704365773397285" lon="9.590450904667978"><ele>715.0</ele><time>2026-03-28T10:34:40.999Z</time></trkpt><trkpt lat="44.704292102138425" lon="9.590415262825594"><ele>715.0</ele><time>2026-03-28T10:34:41.999Z</time></trkpt><trkpt lat="44.70423604725311" lon="9.590344558868862"><ele>715.0</ele><time>2026-03-28T10:34:42.999Z</time></trkpt><trkpt lat="44.70417036895137" lon="9.590286812722008"><ele>715.0</ele><time>2026-03-28T10:34:43.999Z</time></trkpt><trkpt lat="44.70409375546984" lon="9.590242168461561"><ele>715.0</ele><time>2026-03-28T10:34:44.999Z</time></trkpt><trkpt lat="44.70403975252888" lon="9.590148378877023"><ele>711.8</ele><time>2026-03-28T10:34:45.998Z</time></trkpt><trkpt lat="44.70398356285415" lon="9.59005907810577"><ele>708.6</ele><time>2026-03-28T10:34:46.998Z</time></trkpt><trkpt lat="44.70391926427824" lon="9.589971196462248"><ele>705.4000000000001</ele><time>2026-03-28T10:34:47.998Z</time></trkpt><trkpt lat="44.70386900871141" lon="9.589864254969793"><ele>702.2</ele><time>2026-03-28T10:34:48.998Z</time></trkpt><trkpt lat="44.703784149857334" lon="9.589787425146476"><ele>699.0</ele><time>2026-03-28T10:34:49.998Z</time></trkpt><trkpt lat="44.70369583803432" lon="9.58974099208834"><ele>699.0</ele><time>2026-03-28T10:34:50.998Z</time></trkpt><trkpt lat="44.70363385151726" lon="9.589687320510352"><ele>699.0</ele><time>2026-03-28T10:34:51.998Z</time></trkpt><trkpt lat="44.70357899996885" lon="9.589610125704702"><ele>699.0</ele><time>2026-03-28T10:34:52.998Z</time></trkpt><trkpt lat="44.703577595868296" lon="9.58949372790567"><ele>699.0</ele><time>2026-03-28T10:34:53.998Z</time></trkpt><trkpt lat="44.70361772904017" lon="9.589390706004858"><ele>699.0</ele><time>2026-03-28T10:34:54.998Z</time></trkpt><trkpt lat="44.70369862022125" lon="9.589330225113343"><ele>699.0</ele><time>2026-03-28T10:34:55.998Z</time></trkpt><trkpt lat="44.70377507833463" lon="9.589332275343347"><ele>699.0</ele><time>2026-03-28T10:34:56.998Z</time></trkpt><trkpt lat="44.70383856528877" lon="9.589388096928008"><ele>699.0</ele><time>2026-03-28T10:34:57.998Z</time></trkpt><trkpt lat="44.7038853384017" lon="9.589462406861884"><ele>699.0</ele><time>2026-03-28T10:34:58.998Z</time></trkpt><trkpt lat="44.70392854701667" lon="9.589547834686666"><ele>699.0</ele><time>2026-03-28T10:34:59.998Z</time></trkpt><trkpt lat="44.7039758919537" lon="9.589623557492992"><ele>699.0</ele><time>2026-03-28T10:35:00.998Z</time></trkpt><trkpt lat="44.70403531983695" lon="9.589690962597222"><ele>699.0</ele><time>2026-03-28T10:35:02Z</time></trkpt><trkpt lat="44.70411398689831" lon="9.589735015891328"><ele>699.0</ele><time>2026-03-28T10:35:03Z</time></trkpt><trkpt lat="44.70419723932768" lon="9.589757051551056"><ele>699.0</ele><time>2026-03-28T10:35:04Z</time></trkpt><trkpt lat="44.704289543488755" lon="9.589739296227858"><ele>699.0</ele><time>2026-03-28T10:35:05Z</time></trkpt><trkpt lat="44.704381750798895" lon="9.589711159035367"><ele>699.0</ele><time>2026-03-28T10:35:06Z</time></trkpt><trkpt lat="44.7044758580826" lon="9.589696616082195"><ele>699.0</ele><time>2026-03-28T10:35:07Z</time></trkpt><trkpt lat="44.70457313054104" lon="9.589688195156254"><ele>696.4000000000001</ele><time>2026-03-28T10:35:08Z</time></trkpt><trkpt lat="44.70467050215206" lon="9.589756744221246"><ele>693.8</ele><time>2026-03-28T10:35:09Z</time></trkpt><trkpt lat="44.70476197960385" lon="9.589837486714341"><ele>691.2</ele><time>2026-03-28T10:35:10Z</time></trkpt><trkpt lat="44.70485113455581" lon="9.58991428582819"><ele>688.5999999999999</ele><time>2026-03-28T10:35:11Z</time></trkpt><trkpt lat="44.70494119977967" lon="9.589992153008797"><ele>686.0</ele><time>2026-03-28T10:35:12Z</time></trkpt><trkpt lat="44.70503176869184" lon="9.590071467120413"><ele>686.0</ele><time>2026-03-28T10:35:13Z</time></trkpt><trkpt lat="44.705123473874345" lon="9.590151776250625"><ele>686.0</ele><time>2026-03-28T10:35:14Z</time></trkpt><trkpt lat="44.705214689680645" lon="9.590232369524436"><ele>686.0</ele><time>2026-03-28T10:35:15Z</time></trkpt><trkpt lat="44.70530516333921" lon="9.5903125033483"><ele>686.0</ele><time>2026-03-28T10:35:16Z</time></trkpt><trkpt lat="44.705389706482286" lon="9.590385014273327"><ele>686.0</ele><time>2026-03-28T10:35:17Z</time></trkpt><trkpt lat="44.70547054172488" lon="9.590439962339676"><ele>686.1999999999999</ele><time>2026-03-28T10:35:18Z</time></trkpt><trkpt lat="44.70554958571016" lon="9.59047136882682"><ele>686.4</ele><time>2026-03-28T10:35:19Z</time></trkpt><trkpt lat="44.70562890556177" lon="9.59046547772219"><ele>686.6</ele><time>2026-03-28T10:35:20Z</time></trkpt><trkpt lat="44.70570025015344" lon="9.590377536675486"><ele>686.8</ele><time>2026-03-28T10:35:21Z</time></trkpt><trkpt lat="44.705741081804234" lon="9.590239600116284"><ele>687.0</ele><time>2026-03-28T10:35:22Z</time></trkpt><trkpt lat="44.705744362682964" lon="9.590094351887917"><ele>685.4000000000001</ele><time>2026-03-28T10:35:23Z</time></trkpt><trkpt lat="44.70572731348206" lon="9.589944336587482"><ele>683.8000000000001</ele><time>2026-03-28T10:35:24Z</time></trkpt><trkpt lat="44.70573030023314" lon="9.58978962207964"><ele>682.2</ele><time>2026-03-28T10:35:25Z</time></trkpt><trkpt lat="44.70571689869096" lon="9.589632227047913"><ele>680.6</ele><time>2026-03-28T10:35:26Z</time></trkpt><trkpt lat="44.70570440688617" lon="9.589485516514781"><ele>679.0</ele><time>2026-03-28T10:35:27Z</time></trkpt><trkpt lat="44.70569264281354" lon="9.589347352761395"><ele>677.4000000000001</ele><time>2026-03-28T10:35:28Z</time></trkpt><trkpt lat="44.70568612321471" lon="9.58921072515683"><ele>675.8</ele><time>2026-03-28T10:35:29Z</time></trkpt><trkpt lat="44.705705200988554" lon="9.589081016695234"><ele>674.2</ele><time>2026-03-28T10:35:30Z</time></trkpt><trkpt lat="44.70577477305378" lon="9.588970901206915"><ele>672.5999999999999</ele><time>2026-03-28T10:35:31Z</time></trkpt><trkpt lat="44.70586587184499" lon="9.588872839340393"><ele>671.0</ele><time>2026-03-28T10:35:32Z</time></trkpt><trkpt lat="44.70593527930881" lon="9.588768212517335"><ele>669.4</ele><time>2026-03-28T10:35:33Z</time></trkpt><trkpt lat="44.70595990078766" lon="9.588644901237199"><ele>667.8</ele><time>2026-03-28T10:35:34Z</time></trkpt><trkpt lat="44.705941936146374" lon="9.58851990575935"><ele>666.1999999999999</ele><time>2026-03-28T10:35:35Z</time></trkpt><trkpt lat="44.70590563888004" lon="9.588378153926739"><ele>664.5999999999999</ele><time>2026-03-28T10:35:36Z</time></trkpt><trkpt lat="44.7058513088486" lon="9.58825363486886"><ele>663.0</ele><time>2026-03-28T10:35:37Z</time></trkpt><trkpt lat="44.705790839839146" lon="9.58812686004667"><ele>663.0</ele><time>2026-03-28T10:35:38Z</time></trkpt><trkpt lat="44.705717145703176" lon="9.58800985002121"><ele>663.0</ele><time>2026-03-28T10:35:39Z</time></trkpt><trkpt lat="44.70562165696437" lon="9.587942995950241"><ele>663.0</ele><time>2026-03-28T10:35:40Z</time></trkpt><trkpt lat="44.70550452829817" lon="9.587957393420629"><ele>663.0</ele><time>2026-03-28T10:35:41Z</time></trkpt><trkpt lat="44.70540437803206" lon="9.588021178614913"><ele>663.0</ele><time>2026-03-28T10:35:42Z</time></trkpt><trkpt lat="44.70532040002269" lon="9.58806740762234"><ele>663.0</ele><time>2026-03-28T10:35:43Z</time></trkpt><trkpt lat="44.705249708396686" lon="9.588062144790097"><ele>663.0</ele><time>2026-03-28T10:35:44Z</time></trkpt><trkpt lat="44.70519217602776" lon="9.588009699436629"><ele>663.0</ele><time>2026-03-28T10:35:45Z</time></trkpt><trkpt lat="44.705158315021045" lon="9.587922458626474"><ele>663.0</ele><time>2026-03-28T10:35:46Z</time></trkpt><trkpt lat="44.705186501693035" lon="9.587794818219137"><ele>663.0</ele><time>2026-03-28T10:35:47Z</time></trkpt><trkpt lat="44.705247082833075" lon="9.587693615308314"><ele>663.0</ele><time>2026-03-28T10:35:48Z</time></trkpt><trkpt lat="44.70532277929831" lon="9.587617991908214"><ele>661.1666666666666</ele><time>2026-03-28T10:35:49Z</time></trkpt><trkpt lat="44.70538922961458" lon="9.587538539286221"><ele>659.3333333333334</ele><time>2026-03-28T10:35:50Z</time></trkpt><trkpt lat="44.70546632411194" lon="9.58744803529021"><ele>657.5</ele><time>2026-03-28T10:35:51Z</time></trkpt><trkpt lat="44.70553247846364" lon="9.587359637379137"><ele>655.6666666666667</ele><time>2026-03-28T10:35:52Z</time></trkpt><trkpt lat="44.705587706631455" lon="9.587268759536121"><ele>653.8333333333334</ele><time>2026-03-28T10:35:53Z</time></trkpt><trkpt lat="44.70561387669301" lon="9.587157693607464"><ele>652.0</ele><time>2026-03-28T10:35:54Z</time></trkpt><trkpt lat="44.705628744318815" lon="9.587039316852952"><ele>650.2</ele><time>2026-03-28T10:35:55Z</time></trkpt><trkpt lat="44.70556175439474" lon="9.586923157974852"><ele>648.4000000000001</ele><time>2026-03-28T10:35:56Z</time></trkpt><trkpt lat="44.7054545654323" lon="9.586894071919204"><ele>646.5999999999999</ele><time>2026-03-28T10:35:57Z</time></trkpt><trkpt lat="44.70536013556404" lon="9.586869645891413"><ele>644.8</ele><time>2026-03-28T10:35:57.999Z</time></trkpt><trkpt lat="44.705266542733284" lon="9.586849385298425"><ele>643.0</ele><time>2026-03-28T10:35:58.999Z</time></trkpt><trkpt lat="44.705187891814965" lon="9.586829126369752"><ele>643.0</ele><time>2026-03-28T10:35:59.999Z</time></trkpt><trkpt lat="44.70512782353883" lon="9.586795870572004"><ele>643.0</ele><time>2026-03-28T10:36:00.999Z</time></trkpt><trkpt lat="44.70510535837469" lon="9.586614027521977"><ele>643.0</ele><time>2026-03-28T10:36:02.999Z</time></trkpt><trkpt lat="44.70516722514238" lon="9.58652214783189"><ele>643.0</ele><time>2026-03-28T10:36:03.999Z</time></trkpt><trkpt lat="44.70524484274871" lon="9.586454352668877"><ele>643.0</ele><time>2026-03-28T10:36:04.999Z</time></trkpt><trkpt lat="44.70531521115164" lon="9.586365716124043"><ele>642.4</ele><time>2026-03-28T10:36:05.999Z</time></trkpt><trkpt lat="44.705375788730464" lon="9.586252733386683"><ele>641.8</ele><time>2026-03-28T10:36:06.999Z</time></trkpt><trkpt lat="44.705419219585686" lon="9.586120132532068"><ele>641.2</ele><time>2026-03-28T10:36:07.999Z</time></trkpt><trkpt lat="44.70545119591666" lon="9.585975909351111"><ele>640.6</ele><time>2026-03-28T10:36:08.999Z</time></trkpt><trkpt lat="44.70548533517626" lon="9.5858301938021"><ele>640.0</ele><time>2026-03-28T10:36:09.999Z</time></trkpt><trkpt lat="44.70552444090075" lon="9.585687919035086"><ele>638.2</ele><time>2026-03-28T10:36:10.999Z</time></trkpt><trkpt lat="44.70556319089186" lon="9.5855455555038"><ele>636.4</ele><time>2026-03-28T10:36:11.999Z</time></trkpt><trkpt lat="44.70558773126621" lon="9.585405679082967"><ele>634.6</ele><time>2026-03-28T10:36:12.999Z</time></trkpt><trkpt lat="44.70558127588915" lon="9.585278294980093"><ele>632.8</ele><time>2026-03-28T10:36:13.999Z</time></trkpt><trkpt lat="44.70556585670172" lon="9.585152916292603"><ele>631.0</ele><time>2026-03-28T10:36:14.999Z</time></trkpt><trkpt lat="44.70548422175682" lon="9.585061046203148"><ele>629.6</ele><time>2026-03-28T10:36:15.999Z</time></trkpt><trkpt lat="44.70537844285005" lon="9.585030583779051"><ele>628.2</ele><time>2026-03-28T10:36:16.999Z</time></trkpt><trkpt lat="44.70528072820271" lon="9.585007858323916"><ele>626.8</ele><time>2026-03-28T10:36:17.999Z</time></trkpt><trkpt lat="44.70519352080817" lon="9.584988887869306"><ele>625.4</ele><time>2026-03-28T10:36:18.999Z</time></trkpt><trkpt lat="44.70513049764704" lon="9.584959700181182"><ele>624.0</ele><time>2026-03-28T10:36:19.999Z</time></trkpt><trkpt lat="44.70509184512056" lon="9.584819993307844"><ele>624.0</ele><time>2026-03-28T10:36:21.999Z</time></trkpt><trkpt lat="44.70514747090135" lon="9.584743748349165"><ele>624.0</ele><time>2026-03-28T10:36:22.999Z</time></trkpt><trkpt lat="44.705230213700695" lon="9.58472185301478"><ele>624.0</ele><time>2026-03-28T10:36:23.999Z</time></trkpt><trkpt lat="44.7053109029973" lon="9.584704878938126"><ele>624.0</ele><time>2026-03-28T10:36:24.999Z</time></trkpt><trkpt lat="44.70539179587395" lon="9.584672126659955"><ele>624.0</ele><time>2026-03-28T10:36:25.999Z</time></trkpt><trkpt lat="44.70545381201773" lon="9.584608305928004"><ele>624.0</ele><time>2026-03-28T10:36:26.999Z</time></trkpt><trkpt lat="44.70549009066116" lon="9.584506399179098"><ele>621.6</ele><time>2026-03-28T10:36:27.999Z</time></trkpt><trkpt lat="44.70548172406629" lon="9.584385936585603"><ele>619.2</ele><time>2026-03-28T10:36:28.999Z</time></trkpt><trkpt lat="44.705452761135376" lon="9.5842571613531"><ele>616.8000000000001</ele><time>2026-03-28T10:36:29.999Z</time></trkpt><trkpt lat="44.705346568561424" lon="9.584186908231093"><ele>614.4</ele><time>2026-03-28T10:36:30.999Z</time></trkpt><trkpt lat="44.70523308868597" lon="9.584203822090016"><ele>612.0</ele><time>2026-03-28T10:36:31.999Z</time></trkpt><trkpt lat="44.70512687691455" lon="9.58421023451795"><ele>612.0</ele><time>2026-03-28T10:36:32.999Z</time></trkpt><trkpt lat="44.70502295109064" lon="9.584219294243125"><ele>612.0</ele><time>2026-03-28T10:36:33.999Z</time></trkpt><trkpt lat="44.70491103492999" lon="9.584229050524145"><ele>612.0</ele><time>2026-03-28T10:36:34.999Z</time></trkpt><trkpt lat="44.70481208897507" lon="9.584236441643018"><ele>612.0</ele><time>2026-03-28T10:36:35.999Z</time></trkpt><trkpt lat="44.70473314013057" lon="9.584228845299668"><ele>612.0</ele><time>2026-03-28T10:36:36.999Z</time></trkpt><trkpt lat="44.70466613131889" lon="9.584200351701243"><ele>612.0</ele><time>2026-03-28T10:36:37.999Z</time></trkpt><trkpt lat="44.704667666396524" lon="9.584013767505084"><ele>612.0</ele><time>2026-03-28T10:36:39.999Z</time></trkpt><trkpt lat="44.70469305537138" lon="9.583889215315782"><ele>612.0</ele><time>2026-03-28T10:36:40.999Z</time></trkpt><trkpt lat="44.704714400836316" lon="9.58375369580344"><ele>612.0</ele><time>2026-03-28T10:36:41.999Z</time></trkpt><trkpt lat="44.704747276237406" lon="9.583621648811308"><ele>612.0</ele><time>2026-03-28T10:36:42.999Z</time></trkpt><trkpt lat="44.70478982176187" lon="9.583482441156429"><ele>609.5</ele><time>2026-03-28T10:36:43.999Z</time></trkpt><trkpt lat="44.70485056922718" lon="9.583349509367931"><ele>607.0</ele><time>2026-03-28T10:36:44.999Z</time></trkpt><trkpt lat="44.70493466353716" lon="9.58323825622724"><ele>604.5</ele><time>2026-03-28T10:36:45.999Z</time></trkpt><trkpt lat="44.70503305855457" lon="9.583154189600679"><ele>602.0</ele><time>2026-03-28T10:36:46.999Z</time></trkpt><trkpt lat="44.70513747886615" lon="9.583075047630317"><ele>602.0</ele><time>2026-03-28T10:36:47.999Z</time></trkpt><trkpt lat="44.70523638613053" lon="9.582986349775062"><ele>602.0</ele><time>2026-03-28T10:36:48.999Z</time></trkpt><trkpt lat="44.705335700679214" lon="9.58289331981654"><ele>602.0</ele><time>2026-03-28T10:36:49.998Z</time></trkpt><trkpt lat="44.70543273093484" lon="9.58279636422189"><ele>602.0</ele><time>2026-03-28T10:36:50.998Z</time></trkpt><trkpt lat="44.70550435191368" lon="9.58265462805814"><ele>599.75</ele><time>2026-03-28T10:36:51.998Z</time></trkpt><trkpt lat="44.70554006291445" lon="9.58248013444926"><ele>597.5</ele><time>2026-03-28T10:36:52.998Z</time></trkpt><trkpt lat="44.7055381323894" lon="9.582298314400443"><ele>595.25</ele><time>2026-03-28T10:36:53.998Z</time></trkpt><trkpt lat="44.705484725204904" lon="9.58212601865846"><ele>593.0</ele><time>2026-03-28T10:36:54.998Z</time></trkpt><trkpt lat="44.705447937398674" lon="9.581949399052386"><ele>591.5</ele><time>2026-03-28T10:36:55.998Z</time></trkpt><trkpt lat="44.70539745707821" lon="9.581785261797645"><ele>590.0</ele><time>2026-03-28T10:36:56.998Z</time></trkpt><trkpt lat="44.70534627755807" lon="9.581616433702026"><ele>588.5</ele><time>2026-03-28T10:36:57.998Z</time></trkpt><trkpt lat="44.705294626485475" lon="9.581441883440826"><ele>587.0</ele><time>2026-03-28T10:36:58.998Z</time></trkpt><trkpt lat="44.70524311243671" lon="9.581268816863712"><ele>586.0</ele><time>2026-03-28T10:36:59.998Z</time></trkpt><trkpt lat="44.70517897696106" lon="9.581112554039946"><ele>585.0</ele><time>2026-03-28T10:37:00.998Z</time></trkpt><trkpt lat="44.7051317763141" lon="9.580947065286269"><ele>584.0</ele><time>2026-03-28T10:37:01.998Z</time></trkpt><trkpt lat="44.70504210072494" lon="9.58080603936271"><ele>583.0</ele><time>2026-03-28T10:37:02.998Z</time></trkpt><trkpt lat="44.70493258171443" lon="9.580703403418394"><ele>583.0</ele><time>2026-03-28T10:37:03.998Z</time></trkpt><trkpt lat="44.70483189182267" lon="9.580615292759134"><ele>583.0</ele><time>2026-03-28T10:37:04.998Z</time></trkpt><trkpt lat="44.70474393722558" lon="9.580537717814652"><ele>583.0</ele><time>2026-03-28T10:37:05.998Z</time></trkpt><trkpt lat="44.70466796578093" lon="9.580459159540089"><ele>583.0</ele><time>2026-03-28T10:37:06.998Z</time></trkpt><trkpt lat="44.70461277804558" lon="9.580358228247132"><ele>583.0</ele><time>2026-03-28T10:37:08Z</time></trkpt><trkpt lat="44.7045742291795" lon="9.580228298745341"><ele>581.6</ele><time>2026-03-28T10:37:09Z</time></trkpt><trkpt lat="44.70458366597782" lon="9.580078268509768"><ele>580.1999999999999</ele><time>2026-03-28T10:37:10Z</time></trkpt><trkpt lat="44.70461646294705" lon="9.579953687447627"><ele>578.8</ele><time>2026-03-28T10:37:11Z</time></trkpt><trkpt lat="44.70468432929383" lon="9.579840969939855"><ele>577.4</ele><time>2026-03-28T10:37:12Z</time></trkpt><trkpt lat="44.704768243033875" lon="9.579759547873719"><ele>576.0</ele><time>2026-03-28T10:37:13Z</time></trkpt><trkpt lat="44.70486913975538" lon="9.57971331024784"><ele>576.0</ele><time>2026-03-28T10:37:14Z</time></trkpt><trkpt lat="44.704970759750594" lon="9.579673668959334"><ele>576.0</ele><time>2026-03-28T10:37:15Z</time></trkpt><trkpt lat="44.70506931955905" lon="9.579628546692861"><ele>576.0</ele><time>2026-03-28T10:37:16Z</time></trkpt><trkpt lat="44.705167731222886" lon="9.579580047179032"><ele>576.0</ele><time>2026-03-28T10:37:17Z</time></trkpt><trkpt lat="44.70527327885103" lon="9.579534291879114"><ele>576.0</ele><time>2026-03-28T10:37:18Z</time></trkpt><trkpt lat="44.705378117056796" lon="9.579485439871236"><ele>574.25</ele><time>2026-03-28T10:37:19Z</time></trkpt><trkpt lat="44.7054844374554" lon="9.579435377032942"><ele>572.5</ele><time>2026-03-28T10:37:20Z</time></trkpt><trkpt lat="44.70558155068894" lon="9.57935432597363"><ele>570.75</ele><time>2026-03-28T10:37:21Z</time></trkpt><trkpt lat="44.705656931817366" lon="9.579234598860134"><ele>569.0</ele><time>2026-03-28T10:37:22Z</time></trkpt><trkpt lat="44.70570807907495" lon="9.579085500715756"><ele>569.0</ele><time>2026-03-28T10:37:23Z</time></trkpt><trkpt lat="44.70573972294077" lon="9.578929118884169"><ele>569.0</ele><time>2026-03-28T10:37:24Z</time></trkpt><trkpt lat="44.70576311243108" lon="9.57877343243458"><ele>569.0</ele><time>2026-03-28T10:37:25Z</time></trkpt><trkpt lat="44.70578760459991" lon="9.578617392935113"><ele>569.0</ele><time>2026-03-28T10:37:26Z</time></trkpt><trkpt lat="44.70581864406714" lon="9.57846239107706"><ele>567.6</ele><time>2026-03-28T10:37:27Z</time></trkpt><trkpt lat="44.70584838950502" lon="9.578306782181825"><ele>566.2</ele><time>2026-03-28T10:37:28Z</time></trkpt><trkpt lat="44.7058796425061" lon="9.578154641913514"><ele>564.8000000000001</ele><time>2026-03-28T10:37:29Z</time></trkpt><trkpt lat="44.705909002695705" lon="9.578024058013062"><ele>563.4</ele><time>2026-03-28T10:37:30Z</time></trkpt><trkpt lat="44.70591857850565" lon="9.577901303400235"><ele>562.0</ele><time>2026-03-28T10:37:31Z</time></trkpt><trkpt lat="44.70591177492126" lon="9.577777230003356"><ele>560.8000000000001</ele><time>2026-03-28T10:37:32Z</time></trkpt><trkpt lat="44.70584217138778" lon="9.577670088124007"><ele>559.6</ele><time>2026-03-28T10:37:33Z</time></trkpt><trkpt lat="44.70573569048573" lon="9.577638694561843"><ele>558.4000000000001</ele><time>2026-03-28T10:37:34Z</time></trkpt><trkpt lat="44.705627174143196" lon="9.577699797830556"><ele>557.2</ele><time>2026-03-28T10:37:35Z</time></trkpt><trkpt lat="44.70554174186663" lon="9.577776183831302"><ele>556.0</ele><time>2026-03-28T10:37:36Z</time></trkpt><trkpt lat="44.70545888304697" lon="9.577846850083226"><ele>556.8</ele><time>2026-03-28T10:37:37Z</time></trkpt><trkpt lat="44.705375813559" lon="9.57792002660889"><ele>557.6</ele><time>2026-03-28T10:37:38Z</time></trkpt><trkpt lat="44.705292292608455" lon="9.577993600833604"><ele>558.4</ele><time>2026-03-28T10:37:39Z</time></trkpt><trkpt lat="44.705219400377786" lon="9.578048043986772"><ele>559.2</ele><time>2026-03-28T10:37:40Z</time></trkpt><trkpt lat="44.705116526648794" lon="9.578027046529908"><ele>560.0</ele><time>2026-03-28T10:37:42Z</time></trkpt><trkpt lat="44.7051250868961" lon="9.577851132183174"><ele>559.3333333333333</ele><time>2026-03-28T10:37:44Z</time></trkpt><trkpt lat="44.70517857796233" lon="9.577750293611897"><ele>558.6666666666666</ele><time>2026-03-28T10:37:45Z</time></trkpt><trkpt lat="44.705231503276664" lon="9.577657424271392"><ele>558.0</ele><time>2026-03-28T10:37:46Z</time></trkpt><trkpt lat="44.70528624186189" lon="9.5775599566395"><ele>557.3333333333334</ele><time>2026-03-28T10:37:47Z</time></trkpt><trkpt lat="44.70534246264637" lon="9.577459988515173"><ele>556.6666666666667</ele><time>2026-03-28T10:37:48Z</time></trkpt><trkpt lat="44.70540054307848" lon="9.577352418336943"><ele>556.0</ele><time>2026-03-28T10:37:49Z</time></trkpt><trkpt lat="44.705467822197264" lon="9.577257268002638"><ele>556.0</ele><time>2026-03-28T10:37:50Z</time></trkpt><trkpt lat="44.70554375484762" lon="9.577173766110729"><ele>556.0</ele><time>2026-03-28T10:37:51Z</time></trkpt><trkpt lat="44.70563183350775" lon="9.57710685642296"><ele>556.0</ele><time>2026-03-28T10:37:52Z</time></trkpt><trkpt lat="44.70571738899473" lon="9.57704315596072"><ele>556.0</ele><time>2026-03-28T10:37:53Z</time></trkpt><trkpt lat="44.70579139809503" lon="9.576954851442105"><ele>556.0</ele><time>2026-03-28T10:37:54Z</time></trkpt><trkpt lat="44.70583870411921" lon="9.576824854308327"><ele>554.0</ele><time>2026-03-28T10:37:55Z</time></trkpt><trkpt lat="44.70587741290674" lon="9.576676380433055"><ele>552.0</ele><time>2026-03-28T10:37:56Z</time></trkpt><trkpt lat="44.70582142885869" lon="9.57651639463887"><ele>550.0</ele><time>2026-03-28T10:37:57Z</time></trkpt><trkpt lat="44.705769000163286" lon="9.57638046343357"><ele>548.0</ele><time>2026-03-28T10:37:58Z</time></trkpt><trkpt lat="44.70574988265717" lon="9.57623633404188"><ele>546.8</ele><time>2026-03-28T10:37:59Z</time></trkpt><trkpt lat="44.7057331667066" lon="9.57609117701699"><ele>545.5999999999999</ele><time>2026-03-28T10:38:00Z</time></trkpt><trkpt lat="44.70577278661789" lon="9.575938474408789"><ele>544.4000000000001</ele><time>2026-03-28T10:38:01Z</time></trkpt><trkpt lat="44.705828267507464" lon="9.575799904777375"><ele>543.2</ele><time>2026-03-28T10:38:01.999Z</time></trkpt><trkpt lat="44.70588485778182" lon="9.575665191496265"><ele>542.0</ele><time>2026-03-28T10:38:02.999Z</time></trkpt><trkpt lat="44.705920918591886" lon="9.57551739310954"><ele>542.0</ele><time>2026-03-28T10:38:03.999Z</time></trkpt><trkpt lat="44.705964868405694" lon="9.575376843824289"><ele>542.0</ele><time>2026-03-28T10:38:04.999Z</time></trkpt><trkpt lat="44.70602975435959" lon="9.575248641970052"><ele>542.0</ele><time>2026-03-28T10:38:05.999Z</time></trkpt><trkpt lat="44.70610853936671" lon="9.575149839561934"><ele>542.0</ele><time>2026-03-28T10:38:06.999Z</time></trkpt><trkpt lat="44.70620168278169" lon="9.575093610316141"><ele>542.0</ele><time>2026-03-28T10:38:07.999Z</time></trkpt><trkpt lat="44.706316186932774" lon="9.575084790679695"><ele>540.6</ele><time>2026-03-28T10:38:08.999Z</time></trkpt><trkpt lat="44.706427252517884" lon="9.575098765644546"><ele>539.2</ele><time>2026-03-28T10:38:09.999Z</time></trkpt><trkpt lat="44.70653713870601" lon="9.575121631761911"><ele>537.8</ele><time>2026-03-28T10:38:10.999Z</time></trkpt><trkpt lat="44.70664162473918" lon="9.575141026812277"><ele>536.4</ele><time>2026-03-28T10:38:11.999Z</time></trkpt><trkpt lat="44.70675140176321" lon="9.575161038041916"><ele>535.0</ele><time>2026-03-28T10:38:12.999Z</time></trkpt><trkpt lat="44.706861122199435" lon="9.575185575066184"><ele>533.2</ele><time>2026-03-28T10:38:13.999Z</time></trkpt><trkpt lat="44.706970233793434" lon="9.575210163137168"><ele>531.4</ele><time>2026-03-28T10:38:14.999Z</time></trkpt><trkpt lat="44.70707970572071" lon="9.575232707852718"><ele>529.6</ele><time>2026-03-28T10:38:15.999Z</time></trkpt><trkpt lat="44.70718661483593" lon="9.575262907252073"><ele>527.8</ele><time>2026-03-28T10:38:16.999Z</time></trkpt><trkpt lat="44.70729114579145" lon="9.57527532789475"><ele>526.0</ele><time>2026-03-28T10:38:17.999Z</time></trkpt><trkpt lat="44.707385825415706" lon="9.5752363144726"><ele>526.0</ele><time>2026-03-28T10:38:18.999Z</time></trkpt><trkpt lat="44.707459099909" lon="9.575131559745056"><ele>526.0</ele><time>2026-03-28T10:38:19.999Z</time></trkpt><trkpt lat="44.707514549336764" lon="9.575003828206576"><ele>526.0</ele><time>2026-03-28T10:38:20.999Z</time></trkpt><trkpt lat="44.707484509679425" lon="9.574835656021735"><ele>526.0</ele><time>2026-03-28T10:38:21.999Z</time></trkpt><trkpt lat="44.707478426644386" lon="9.574678935789374"><ele>526.0</ele><time>2026-03-28T10:38:22.999Z</time></trkpt><trkpt lat="44.70745631859612" lon="9.574527718516379"><ele>523.75</ele><time>2026-03-28T10:38:23.999Z</time></trkpt><trkpt lat="44.707420698270845" lon="9.574376873868275"><ele>521.5</ele><time>2026-03-28T10:38:24.999Z</time></trkpt><trkpt lat="44.707397465657735" lon="9.574223003999705"><ele>519.25</ele><time>2026-03-28T10:38:25.999Z</time></trkpt><trkpt lat="44.70737299303724" lon="9.57406407243483"><ele>517.0</ele><time>2026-03-28T10:38:26.999Z</time></trkpt><trkpt lat="44.70734903615258" lon="9.57390229121512"><ele>517.0</ele><time>2026-03-28T10:38:27.999Z</time></trkpt><trkpt lat="44.70732831998478" lon="9.5737350180206"><ele>517.0</ele><time>2026-03-28T10:38:28.999Z</time></trkpt><trkpt lat="44.70730687188218" lon="9.573566365069683"><ele>517.0</ele><time>2026-03-28T10:38:29.999Z</time></trkpt><trkpt lat="44.70727985878991" lon="9.573399177259471"><ele>517.0</ele><time>2026-03-28T10:38:30.999Z</time></trkpt><trkpt lat="44.707248798251534" lon="9.573230966183948"><ele>515.25</ele><time>2026-03-28T10:38:31.999Z</time></trkpt><trkpt lat="44.70718263927786" lon="9.57307278770192"><ele>513.5</ele><time>2026-03-28T10:38:32.999Z</time></trkpt><trkpt lat="44.7071059452081" lon="9.572935271619741"><ele>511.75</ele><time>2026-03-28T10:38:33.999Z</time></trkpt><trkpt lat="44.707036509714605" lon="9.57281341490509"><ele>510.0</ele><time>2026-03-28T10:38:34.999Z</time></trkpt><trkpt lat="44.70696548426084" lon="9.572698687106294"><ele>510.6666666666667</ele><time>2026-03-28T10:38:35.999Z</time></trkpt><trkpt lat="44.70688954920808" lon="9.572603677941583"><ele>511.33333333333337</ele><time>2026-03-28T10:38:36.999Z</time></trkpt><trkpt lat="44.70681031707042" lon="9.572538665307393"><ele>512.0</ele><time>2026-03-28T10:38:37.999Z</time></trkpt><trkpt lat="44.70672078022342" lon="9.572503457557598"><ele>512.6666666666667</ele><time>2026-03-28T10:38:38.999Z</time></trkpt><trkpt lat="44.7066408758291" lon="9.572480632722748"><ele>513.3333333333334</ele><time>2026-03-28T10:38:39.999Z</time></trkpt><trkpt lat="44.70657295224113" lon="9.572442309946014"><ele>514.0</ele><time>2026-03-28T10:38:40.999Z</time></trkpt><trkpt lat="44.706519865896205" lon="9.572378411473133"><ele>514.0</ele><time>2026-03-28T10:38:41.999Z</time></trkpt><trkpt lat="44.706492362780935" lon="9.572282037891705"><ele>514.0</ele><time>2026-03-28T10:38:42.999Z</time></trkpt><trkpt lat="44.70650933305862" lon="9.572167604323225"><ele>514.0</ele><time>2026-03-28T10:38:43.999Z</time></trkpt><trkpt lat="44.70656202175249" lon="9.572077279688097"><ele>514.0</ele><time>2026-03-28T10:38:44.999Z</time></trkpt><trkpt lat="44.70662083217081" lon="9.572011974309044"><ele>514.0</ele><time>2026-03-28T10:38:45.999Z</time></trkpt><trkpt lat="44.70666979203635" lon="9.571939462668645"><ele>514.0</ele><time>2026-03-28T10:38:46.999Z</time></trkpt><trkpt lat="44.70671452186707" lon="9.571864919107982"><ele>512.0</ele><time>2026-03-28T10:38:47.999Z</time></trkpt><trkpt lat="44.70675712254015" lon="9.571797130257012"><ele>510.0</ele><time>2026-03-28T10:38:48.999Z</time></trkpt><trkpt lat="44.706843845415285" lon="9.571682474218811"><ele>508.0</ele><time>2026-03-28T10:38:50.999Z</time></trkpt><trkpt lat="44.7069342941333" lon="9.57160695320365"><ele>506.0</ele><time>2026-03-28T10:38:52.999Z</time></trkpt><trkpt lat="44.707033486827534" lon="9.571554257228417"><ele>504.0</ele><time>2026-03-28T10:38:54.998Z</time></trkpt><trkpt lat="44.707134749782774" lon="9.571526361543016"><ele>504.0</ele><time>2026-03-28T10:38:56.998Z</time></trkpt><trkpt lat="44.7072285523466" lon="9.571501073301594"><ele>504.0</ele><time>2026-03-28T10:38:58.998Z</time></trkpt><trkpt lat="44.707318921948485" lon="9.571493919619293"><ele>504.0</ele><time>2026-03-28T10:39:00.998Z</time></trkpt><trkpt lat="44.707406567522696" lon="9.571514843462818"><ele>504.0</ele><time>2026-03-28T10:39:02.998Z</time></trkpt><trkpt lat="44.70748947805402" lon="9.571577181556417"><ele>504.0</ele><time>2026-03-28T10:39:04.998Z</time></trkpt><trkpt lat="44.70755428862938" lon="9.571671029951556"><ele>504.0</ele><time>2026-03-28T10:39:06.998Z</time></trkpt><trkpt lat="44.707599186324614" lon="9.571756210966507"><ele>504.0</ele><time>2026-03-28T10:39:08.998Z</time></trkpt><trkpt lat="44.70764709994413" lon="9.571848921307957"><ele>504.0</ele><time>2026-03-28T10:39:10.998Z</time></trkpt><trkpt lat="44.70770346544628" lon="9.571908690583907"><ele>504.0</ele><time>2026-03-28T10:39:12.998Z</time></trkpt><trkpt lat="44.70776736785116" lon="9.571959931902569"><ele>504.0</ele><time>2026-03-28T10:39:15Z</time></trkpt><trkpt lat="44.7078517707737" lon="9.571957920483054"><ele>504.0</ele><time>2026-03-28T10:39:17Z</time></trkpt><trkpt lat="44.7079077654032" lon="9.57180412141285"><ele>501.3333333333333</ele><time>2026-03-28T10:39:19Z</time></trkpt><trkpt lat="44.707909310756975" lon="9.571710127642776"><ele>498.66666666666663</ele><time>2026-03-28T10:39:20Z</time></trkpt><trkpt lat="44.70791402525965" lon="9.571621379022762"><ele>496.0</ele><time>2026-03-28T10:39:21Z</time></trkpt><trkpt lat="44.70792156215745" lon="9.5714622338556"><ele>493.3333333333333</ele><time>2026-03-28T10:39:23Z</time></trkpt><trkpt lat="44.707925142715986" lon="9.571313658640303"><ele>490.66666666666663</ele><time>2026-03-28T10:39:25Z</time></trkpt><trkpt lat="44.70792782978203" lon="9.571173251410201"><ele>488.0</ele><time>2026-03-28T10:39:27Z</time></trkpt><trkpt lat="44.70793167597634" lon="9.571044102681366"><ele>487.59999999999997</ele><time>2026-03-28T10:39:29Z</time></trkpt><trkpt lat="44.70797361246944" lon="9.570923205192065"><ele>487.19999999999993</ele><time>2026-03-28T10:39:31Z</time></trkpt><trkpt lat="44.70806608297416" lon="9.570841455570436"><ele>486.8</ele><time>2026-03-28T10:39:33Z</time></trkpt><trkpt lat="44.708128119535125" lon="9.570879660419632"><ele>486.4</ele><time>2026-03-28T10:39:34Z</time></trkpt><trkpt lat="44.70818913323245" lon="9.571001530336833"><ele>486.0</ele><time>2026-03-28T10:39:36Z</time></trkpt><trkpt lat="44.70825232327027" lon="9.571124754690373"><ele>486.4</ele><time>2026-03-28T10:39:38Z</time></trkpt><trkpt lat="44.70831076765201" lon="9.571242860401423"><ele>486.8</ele><time>2026-03-28T10:39:40Z</time></trkpt><trkpt lat="44.70837280096525" lon="9.571355772142338"><ele>487.19999999999993</ele><time>2026-03-28T10:39:42Z</time></trkpt><trkpt lat="44.7084341414873" lon="9.57147982012592"><ele>487.59999999999997</ele><time>2026-03-28T10:39:44Z</time></trkpt><trkpt lat="44.70850397748852" lon="9.57159230517445"><ele>488.0</ele><time>2026-03-28T10:39:46Z</time></trkpt><trkpt lat="44.70861351312111" lon="9.571707906652628"><ele>485.79999999999995</ele><time>2026-03-28T10:39:48Z</time></trkpt><trkpt lat="44.70869076703985" lon="9.571760595637933"><ele>483.59999999999997</ele><time>2026-03-28T10:39:49Z</time></trkpt><trkpt lat="44.70877537062835" lon="9.57181738052224"><ele>481.40000000000003</ele><time>2026-03-28T10:39:50Z</time></trkpt><trkpt lat="44.70886423347368" lon="9.57188180687017"><ele>479.20000000000005</ele><time>2026-03-28T10:39:51Z</time></trkpt><trkpt lat="44.708957619474916" lon="9.571941090327092"><ele>477.0</ele><time>2026-03-28T10:39:52Z</time></trkpt><trkpt lat="44.70904773157624" lon="9.572015223346526"><ele>478.40000000000003</ele><time>2026-03-28T10:39:53Z</time></trkpt><trkpt lat="44.70912761017371" lon="9.572109314001475"><ele>479.80000000000007</ele><time>2026-03-28T10:39:54Z</time></trkpt><trkpt lat="44.70920462098167" lon="9.572215720820688"><ele>481.2</ele><time>2026-03-28T10:39:55Z</time></trkpt><trkpt lat="44.709296057163584" lon="9.572308299325627"><ele>482.6</ele><time>2026-03-28T10:39:56Z</time></trkpt><trkpt lat="44.70938079336483" lon="9.572420254420562"><ele>484.0</ele><time>2026-03-28T10:39:57Z</time></trkpt><trkpt lat="44.70945588058941" lon="9.572548296865483"><ele>482.0</ele><time>2026-03-28T10:39:58Z</time></trkpt><trkpt lat="44.70954212095639" lon="9.572662282406348"><ele>480.0</ele><time>2026-03-28T10:39:59Z</time></trkpt><trkpt lat="44.70962662266352" lon="9.572781571401862"><ele>478.0</ele><time>2026-03-28T10:40:00Z</time></trkpt><trkpt lat="44.70971290834619" lon="9.57290260907967"><ele>476.0</ele><time>2026-03-28T10:40:01Z</time></trkpt><trkpt lat="44.7098002513102" lon="9.572986771971285"><ele>475.99999999999994</ele><time>2026-03-28T10:40:02Z</time></trkpt><trkpt lat="44.70987148287058" lon="9.573063991926738"><ele>476.0</ele><time>2026-03-28T10:40:03Z</time></trkpt><trkpt lat="44.70994034448639" lon="9.573102051253551"><ele>476.0</ele><time>2026-03-28T10:40:04Z</time></trkpt><trkpt lat="44.71000633539703" lon="9.573096113673135"><ele>476.0</ele><time>2026-03-28T10:40:05Z</time></trkpt><trkpt lat="44.710070054973635" lon="9.573038977396799"><ele>475.99999999999994</ele><time>2026-03-28T10:40:06Z</time></trkpt><trkpt lat="44.7100805803915" lon="9.572888333159833"><ele>476.0</ele><time>2026-03-28T10:40:06.999Z</time></trkpt><trkpt lat="44.710069061479906" lon="9.572737469781496"><ele>474.6</ele><time>2026-03-28T10:40:07.999Z</time></trkpt><trkpt lat="44.71003669657525" lon="9.57261103945681"><ele>473.20000000000005</ele><time>2026-03-28T10:40:08.999Z</time></trkpt><trkpt lat="44.71000246469587" lon="9.572478367781589"><ele>471.79999999999995</ele><time>2026-03-28T10:40:09.999Z</time></trkpt><trkpt lat="44.709966371779345" lon="9.572347634756602"><ele>470.4</ele><time>2026-03-28T10:40:10.999Z</time></trkpt><trkpt lat="44.709928819899034" lon="9.572209835913148"><ele>469.0</ele><time>2026-03-28T10:40:11.999Z</time></trkpt><trkpt lat="44.7098961982373" lon="9.57206899223496"><ele>467.6</ele><time>2026-03-28T10:40:12.999Z</time></trkpt><trkpt lat="44.709861710597245" lon="9.571924676311214"><ele>466.2</ele><time>2026-03-28T10:40:13.999Z</time></trkpt><trkpt lat="44.70987280812136" lon="9.571768934588247"><ele>464.80000000000007</ele><time>2026-03-28T10:40:14.999Z</time></trkpt><trkpt lat="44.709890509868956" lon="9.571618794471087"><ele>463.40000000000003</ele><time>2026-03-28T10:40:15.999Z</time></trkpt><trkpt lat="44.7099070431798" lon="9.571464372308483"><ele>462.0</ele><time>2026-03-28T10:40:16.999Z</time></trkpt><trkpt lat="44.70992353634404" lon="9.571308301639714"><ele>461.6</ele><time>2026-03-28T10:40:17.999Z</time></trkpt><trkpt lat="44.709939164250756" lon="9.571159507739443"><ele>461.20000000000005</ele><time>2026-03-28T10:40:18.999Z</time></trkpt><trkpt lat="44.7099436333798" lon="9.571001393476127"><ele>460.8</ele><time>2026-03-28T10:40:19.999Z</time></trkpt><trkpt lat="44.709907968633146" lon="9.57084459495076"><ele>460.4</ele><time>2026-03-28T10:40:20.999Z</time></trkpt><trkpt lat="44.70985975049444" lon="9.570702945322713"><ele>460.0</ele><time>2026-03-28T10:40:21.999Z</time></trkpt><trkpt lat="44.70982587245052" lon="9.570565857291777"><ele>460.0</ele><time>2026-03-28T10:40:22.999Z</time></trkpt><trkpt lat="44.70981722785306" lon="9.570427487183117"><ele>460.0</ele><time>2026-03-28T10:40:23.999Z</time></trkpt><trkpt lat="44.70985494755235" lon="9.570284766088895"><ele>460.0</ele><time>2026-03-28T10:40:24.999Z</time></trkpt><trkpt lat="44.70988272853679" lon="9.570141886467324"><ele>460.0</ele><time>2026-03-28T10:40:25.999Z</time></trkpt><trkpt lat="44.70987655618527" lon="9.569990137539543"><ele>460.0</ele><time>2026-03-28T10:40:26.999Z</time></trkpt><trkpt lat="44.70987817076561" lon="9.5698336900436"><ele>459.25</ele><time>2026-03-28T10:40:27.999Z</time></trkpt><trkpt lat="44.70979646930494" lon="9.569688254739699"><ele>458.5</ele><time>2026-03-28T10:40:28.999Z</time></trkpt><trkpt lat="44.709707499836085" lon="9.569567198497484"><ele>457.75</ele><time>2026-03-28T10:40:29.999Z</time></trkpt><trkpt lat="44.70962462895559" lon="9.569449142430072"><ele>457.0</ele><time>2026-03-28T10:40:30.999Z</time></trkpt><trkpt lat="44.70954252426388" lon="9.569335017969312"><ele>457.0</ele><time>2026-03-28T10:40:31.999Z</time></trkpt><trkpt lat="44.7094601540765" lon="9.569220524454511"><ele>457.0</ele><time>2026-03-28T10:40:32.999Z</time></trkpt><trkpt lat="44.70937552669999" lon="9.569102893475383"><ele>457.0</ele><time>2026-03-28T10:40:33.999Z</time></trkpt><trkpt lat="44.70929117156771" lon="9.56898589021307"><ele>457.0</ele><time>2026-03-28T10:40:34.999Z</time></trkpt><trkpt lat="44.70920446615142" lon="9.568865706275863"><ele>457.0</ele><time>2026-03-28T10:40:35.999Z</time></trkpt><trkpt lat="44.709119857159415" lon="9.568748742599961"><ele>457.00000000000006</ele><time>2026-03-28T10:40:36.999Z</time></trkpt><trkpt lat="44.709038145705684" lon="9.568636103961463"><ele>457.00000000000006</ele><time>2026-03-28T10:40:37.999Z</time></trkpt><trkpt lat="44.70896986078579" lon="9.568541973720137"><ele>457.0</ele><time>2026-03-28T10:40:38.999Z</time></trkpt><trkpt lat="44.708909381617566" lon="9.56846218959365"><ele>457.0</ele><time>2026-03-28T10:40:39.999Z</time></trkpt><trkpt lat="44.70885932772399" lon="9.568395522325016"><ele>456.6</ele><time>2026-03-28T10:40:40.999Z</time></trkpt><trkpt lat="44.70878885016565" lon="9.568293956319069"><ele>456.20000000000005</ele><time>2026-03-28T10:40:42.999Z</time></trkpt><trkpt lat="44.708727431638756" lon="9.568220943211397"><ele>455.8</ele><time>2026-03-28T10:40:45.999Z</time></trkpt><trkpt lat="44.70870745022912" lon="9.568117654734316"><ele>455.4</ele><time>2026-03-28T10:40:48.999Z</time></trkpt><trkpt lat="44.70856609954127" lon="9.568143957297996"><ele>455.0</ele><time>2026-03-28T10:40:50.999Z</time></trkpt><trkpt lat="44.708496883142026" lon="9.568158395714436"><ele>455.0</ele><time>2026-03-28T10:40:52.999Z</time></trkpt><trkpt lat="44.708416174163936" lon="9.568163079794259"><ele>455.0</ele><time>2026-03-28T10:40:54.999Z</time></trkpt><trkpt lat="44.70832568519535" lon="9.568155086590336"><ele>455.0</ele><time>2026-03-28T10:40:56.999Z</time></trkpt><trkpt lat="44.70823885851198" lon="9.568119556236846"><ele>455.0</ele><time>2026-03-28T10:40:58.999Z</time></trkpt><trkpt lat="44.70815410883893" lon="9.568058383925642"><ele>455.0</ele><time>2026-03-28T10:41:00.998Z</time></trkpt><trkpt lat="44.7080728258113" lon="9.56798557848243"><ele>454.99999999999994</ele><time>2026-03-28T10:41:02.998Z</time></trkpt><trkpt lat="44.70799043496238" lon="9.567930550103148"><ele>455.0</ele><time>2026-03-28T10:41:04.998Z</time></trkpt><trkpt lat="44.70792183831432" lon="9.567853284935124"><ele>455.0</ele><time>2026-03-28T10:41:06.998Z</time></trkpt><trkpt lat="44.70785608929197" lon="9.567773609026293"><ele>455.0</ele><time>2026-03-28T10:41:08.998Z</time></trkpt><trkpt lat="44.707795096732944" lon="9.567715557645826"><ele>454.99999999999994</ele><time>2026-03-28T10:41:10.998Z</time></trkpt><trkpt lat="44.70772459174101" lon="9.567660630888394"><ele>455.0</ele><time>2026-03-28T10:41:13.998Z</time></trkpt><trkpt lat="44.707645866554905" lon="9.567655009792906"><ele>454.49999999999994</ele><time>2026-03-28T10:43:15.998Z</time></trkpt><trkpt lat="44.707582252227" lon="9.56765855310473"><ele>454.0</ele><time>2026-03-28T10:43:17.998Z</time></trkpt><trkpt lat="44.70751721603587" lon="9.567666199326988"><ele>453.5</ele><time>2026-03-28T10:43:19.998Z</time></trkpt><trkpt lat="44.70744345164885" lon="9.567646823759986"><ele>453.0</ele><time>2026-03-28T10:43:21.998Z</time></trkpt><trkpt lat="44.70735866190333" lon="9.56767074222908"><ele>452.49999999999994</ele><time>2026-03-28T10:43:23.998Z</time></trkpt><trkpt lat="44.70726496481609" lon="9.567686059982107"><ele>452.0</ele><time>2026-03-28T10:43:26Z</time></trkpt><trkpt lat="44.707166427922964" lon="9.567700035983943"><ele>452.0</ele><time>2026-03-28T10:43:28Z</time></trkpt><trkpt lat="44.70706479090497" lon="9.56771842442209"><ele>452.00000000000006</ele><time>2026-03-28T10:43:30Z</time></trkpt><trkpt lat="44.70696880022904" lon="9.56772788387328"><ele>452.00000000000006</ele><time>2026-03-28T10:43:32Z</time></trkpt><trkpt lat="44.706868883529225" lon="9.567750761833375"><ele>452.0</ele><time>2026-03-28T10:43:34Z</time></trkpt><trkpt lat="44.70677317303718" lon="9.567775804456508"><ele>452.0</ele><time>2026-03-28T10:43:36Z</time></trkpt><trkpt lat="44.70666324765195" lon="9.567777388752381"><ele>452.0</ele><time>2026-03-28T10:43:38Z</time></trkpt><trkpt lat="44.706556803104284" lon="9.56780080904096"><ele>452.0</ele><time>2026-03-28T10:43:40Z</time></trkpt><trkpt lat="44.70646293219278" lon="9.567816863489586"><ele>452.0</ele><time>2026-03-28T10:43:43Z</time></trkpt><trkpt lat="44.70628382041622" lon="9.567939598516151"><ele>452.0</ele><time>2026-03-28T10:43:45Z</time></trkpt><trkpt lat="44.70619245635368" lon="9.568035262708412"><ele>452.6</ele><time>2026-03-28T10:43:47Z</time></trkpt><trkpt lat="44.70611153467908" lon="9.568134565471672"><ele>453.20000000000005</ele><time>2026-03-28T10:43:49Z</time></trkpt><trkpt lat="44.706044342135534" lon="9.568257376619062"><ele>453.8</ele><time>2026-03-28T10:43:51Z</time></trkpt><trkpt lat="44.70596686415345" lon="9.56836307250893"><ele>454.4</ele><time>2026-03-28T10:43:53Z</time></trkpt><trkpt lat="44.70588017650168" lon="9.568480604746307"><ele>455.0</ele><time>2026-03-28T10:43:55Z</time></trkpt><trkpt lat="44.70579793748549" lon="9.568610806433263"><ele>458.25</ele><time>2026-03-28T10:43:57Z</time></trkpt><trkpt lat="44.70571448824904" lon="9.56873638066807"><ele>461.5</ele><time>2026-03-28T10:43:59Z</time></trkpt><trkpt lat="44.70562661584264" lon="9.568860461332925"><ele>464.75</ele><time>2026-03-28T10:44:01Z</time></trkpt><trkpt lat="44.705538220071254" lon="9.568973678309968"><ele>468.0</ele><time>2026-03-28T10:44:03Z</time></trkpt><trkpt lat="44.70544054084821" lon="9.569051015670489"><ele>468.0</ele><time>2026-03-28T10:44:05Z</time></trkpt><trkpt lat="44.70535159380507" lon="9.569177697038814"><ele>468.0</ele><time>2026-03-28T10:44:07Z</time></trkpt><trkpt lat="44.70530779599818" lon="9.569248156641892"><ele>468.0</ele><time>2026-03-28T10:44:08Z</time></trkpt><trkpt lat="44.70526384863751" lon="9.569318731325964"><ele>468.0</ele><time>2026-03-28T10:44:09Z</time></trkpt><trkpt lat="44.705221083727935" lon="9.569389998169056"><ele>468.0</ele><time>2026-03-28T10:44:10Z</time></trkpt><trkpt lat="44.705172910865336" lon="9.569460175615736"><ele>468.0</ele><time>2026-03-28T10:44:11Z</time></trkpt><trkpt lat="44.70513002315991" lon="9.569539412900145"><ele>467.8571428571429</ele><time>2026-03-28T10:44:12Z</time></trkpt><trkpt lat="44.705089413061444" lon="9.569622323310478"><ele>467.7142857142858</ele><time>2026-03-28T10:44:13Z</time></trkpt><trkpt lat="44.70504840800238" lon="9.5697066971306"><ele>467.57142857142856</ele><time>2026-03-28T10:44:14Z</time></trkpt><trkpt lat="44.705012356005014" lon="9.569790985929163"><ele>467.42857142857144</ele><time>2026-03-28T10:44:15Z</time></trkpt><trkpt lat="44.7049829662198" lon="9.56988527442431"><ele>467.2857142857143</ele><time>2026-03-28T10:44:15.999Z</time></trkpt><trkpt lat="44.704960103731615" lon="9.569987164857125"><ele>467.1428571428571</ele><time>2026-03-28T10:44:16.999Z</time></trkpt><trkpt lat="44.704934422926186" lon="9.570084006339336"><ele>466.99999999999994</ele><time>2026-03-28T10:44:17.999Z</time></trkpt><trkpt lat="44.704911124599946" lon="9.570175717637817"><ele>466.99999999999994</ele><time>2026-03-28T10:44:18.999Z</time></trkpt><trkpt lat="44.704878136636474" lon="9.570261862187857"><ele>467.0</ele><time>2026-03-28T10:44:19.999Z</time></trkpt><trkpt lat="44.70483436610568" lon="9.570339623941214"><ele>466.99999999999994</ele><time>2026-03-28T10:44:20.999Z</time></trkpt><trkpt lat="44.704780559199854" lon="9.570410057718753"><ele>466.99999999999994</ele><time>2026-03-28T10:44:21.999Z</time></trkpt><trkpt lat="44.704708572693654" lon="9.570432004359224"><ele>467.0</ele><time>2026-03-28T10:44:22.999Z</time></trkpt><trkpt lat="44.70463574542039" lon="9.570437846563902"><ele>466.99999999999994</ele><time>2026-03-28T10:44:23.999Z</time></trkpt><trkpt lat="44.704572271143206" lon="9.570420012239637"><ele>466.99999999999994</ele><time>2026-03-28T10:44:24.999Z</time></trkpt><trkpt lat="44.704510952242295" lon="9.570386437928876"><ele>466.99999999999994</ele><time>2026-03-28T10:44:25.999Z</time></trkpt><trkpt lat="44.70445077849778" lon="9.570339283570673"><ele>467.0</ele><time>2026-03-28T10:44:26.999Z</time></trkpt><trkpt lat="44.70440077520503" lon="9.570272371816454"><ele>466.99999999999994</ele><time>2026-03-28T10:44:27.999Z</time></trkpt><trkpt lat="44.70437035316296" lon="9.570191920750899"><ele>466.99999999999994</ele><time>2026-03-28T10:44:28.999Z</time></trkpt><trkpt lat="44.70432545557373" lon="9.570105955809067"><ele>467.0</ele><time>2026-03-28T10:44:29.999Z</time></trkpt><trkpt lat="44.704270540190194" lon="9.569995244233498"><ele>466.99999999999994</ele><time>2026-03-28T10:44:30.999Z</time></trkpt><trkpt lat="44.70421812197635" lon="9.569929333884534"><ele>466.99999999999994</ele><time>2026-03-28T10:44:31.999Z</time></trkpt><trkpt lat="44.70417866784579" lon="9.56984376841651"><ele>467.2857142857142</ele><time>2026-03-28T10:44:32.999Z</time></trkpt><trkpt lat="44.70413804900742" lon="9.569757288951562"><ele>467.57142857142856</ele><time>2026-03-28T10:44:33.999Z</time></trkpt><trkpt lat="44.70409651249069" lon="9.569671906082409"><ele>467.85714285714283</ele><time>2026-03-28T10:44:34.999Z</time></trkpt><trkpt lat="44.70405430566677" lon="9.56959069682845"><ele>468.1428571428571</ele><time>2026-03-28T10:44:35.999Z</time></trkpt><trkpt lat="44.70401204273336" lon="9.569507489544865"><ele>468.42857142857144</ele><time>2026-03-28T10:44:36.999Z</time></trkpt><trkpt lat="44.70396349421083" lon="9.569432189848987"><ele>468.7142857142857</ele><time>2026-03-28T10:44:37.999Z</time></trkpt><trkpt lat="44.70390520739242" lon="9.569372699900304"><ele>469.0</ele><time>2026-03-28T10:44:38.999Z</time></trkpt><trkpt lat="44.70384010164226" lon="9.56932220835616"><ele>467.50000000000006</ele><time>2026-03-28T10:44:39.999Z</time></trkpt><trkpt lat="44.70377092136505" lon="9.569283156422044"><ele>466.0</ele><time>2026-03-28T10:44:40.999Z</time></trkpt><trkpt lat="44.70369815649312" lon="9.569253100742884"><ele>464.5</ele><time>2026-03-28T10:44:41.999Z</time></trkpt><trkpt lat="44.70362075910208" lon="9.56923394465518"><ele>463.0</ele><time>2026-03-28T10:44:42.999Z</time></trkpt><trkpt lat="44.703541805296716" lon="9.569229108135037"><ele>461.50000000000006</ele><time>2026-03-28T10:44:43.999Z</time></trkpt><trkpt lat="44.703459707383075" lon="9.569235877083642"><ele>460.0</ele><time>2026-03-28T10:44:44.999Z</time></trkpt><trkpt lat="44.70338160278398" lon="9.56925323319654"><ele>460.00000000000006</ele><time>2026-03-28T10:44:45.999Z</time></trkpt><trkpt lat="44.70330765048357" lon="9.569277164239326"><ele>460.0</ele><time>2026-03-28T10:44:46.999Z</time></trkpt><trkpt lat="44.703230798946684" lon="9.569296632175224"><ele>460.0</ele><time>2026-03-28T10:44:47.999Z</time></trkpt><trkpt lat="44.70315472782532" lon="9.569318738005107"><ele>460.0</ele><time>2026-03-28T10:44:48.999Z</time></trkpt><trkpt lat="44.703077462291304" lon="9.56933838680792"><ele>460.00000000000006</ele><time>2026-03-28T10:44:49.999Z</time></trkpt><trkpt lat="44.70300134381768" lon="9.569355957248906"><ele>460.0</ele><time>2026-03-28T10:44:50.999Z</time></trkpt><trkpt lat="44.70292643131386" lon="9.56937145708244"><ele>460.00000000000006</ele><time>2026-03-28T10:44:51.999Z</time></trkpt><trkpt lat="44.70285342541334" lon="9.569386983647927"><ele>460.0</ele><time>2026-03-28T10:44:52.999Z</time></trkpt><trkpt lat="44.70278238917566" lon="9.569400102702312"><ele>460.0</ele><time>2026-03-28T10:44:53.999Z</time></trkpt><trkpt lat="44.70271259529783" lon="9.569408221062936"><ele>460.0</ele><time>2026-03-28T10:44:54.999Z</time></trkpt><trkpt lat="44.70264452206701" lon="9.569406344937274"><ele>460.00000000000006</ele><time>2026-03-28T10:44:55.999Z</time></trkpt><trkpt lat="44.70252004084608" lon="9.569383252845487"><ele>460.0</ele><time>2026-03-28T10:44:57.999Z</time></trkpt><trkpt lat="44.70245577734998" lon="9.569366136846734"><ele>460.6</ele><time>2026-03-28T10:44:58.999Z</time></trkpt><trkpt lat="44.70239198947214" lon="9.569342380925532"><ele>461.2</ele><time>2026-03-28T10:44:59.999Z</time></trkpt><trkpt lat="44.70232971192786" lon="9.56931631869688"><ele>461.79999999999995</ele><time>2026-03-28T10:45:00.999Z</time></trkpt><trkpt lat="44.702209503032435" lon="9.569267454645003"><ele>462.4</ele><time>2026-03-28T10:45:02.999Z</time></trkpt><trkpt lat="44.70209350945523" lon="9.569216239098747"><ele>463.0</ele><time>2026-03-28T10:45:04.999Z</time></trkpt><trkpt lat="44.701977768189" lon="9.569171154390725"><ele>464.2</ele><time>2026-03-28T10:45:06.999Z</time></trkpt><trkpt lat="44.70186695657123" lon="9.569120587596045"><ele>465.4</ele><time>2026-03-28T10:45:08.998Z</time></trkpt><trkpt lat="44.70175732056862" lon="9.569067795883948"><ele>466.59999999999997</ele><time>2026-03-28T10:45:10.998Z</time></trkpt><trkpt lat="44.70163811342382" lon="9.569087797885414"><ele>467.79999999999995</ele><time>2026-03-28T10:45:12.998Z</time></trkpt><trkpt lat="44.701579155734834" lon="9.56912175723391"><ele>469.0</ele><time>2026-03-28T10:45:13.998Z</time></trkpt><trkpt lat="44.70152474882793" lon="9.56916710459576"><ele>469.00000000000006</ele><time>2026-03-28T10:45:14.998Z</time></trkpt><trkpt lat="44.701475370779264" lon="9.56922516933194"><ele>469.0</ele><time>2026-03-28T10:45:15.998Z</time></trkpt><trkpt lat="44.701428569955745" lon="9.569289373745928"><ele>469.0</ele><time>2026-03-28T10:45:16.998Z</time></trkpt><trkpt lat="44.70138518296079" lon="9.569358994235381"><ele>469.0</ele><time>2026-03-28T10:45:17.998Z</time></trkpt><trkpt lat="44.70129803940695" lon="9.569481034317654"><ele>469.00000000000006</ele><time>2026-03-28T10:45:19.998Z</time></trkpt><trkpt lat="44.70119722943829" lon="9.569562836811235"><ele>469.0</ele><time>2026-03-28T10:45:21.998Z</time></trkpt><trkpt lat="44.70108089596175" lon="9.569578059021424"><ele>469.5</ele><time>2026-03-28T10:45:23.998Z</time></trkpt><trkpt lat="44.70097627493324" lon="9.569506329412905"><ele>470.0</ele><time>2026-03-28T10:45:25.998Z</time></trkpt><trkpt lat="44.700869159436316" lon="9.569429966895209"><ele>470.5</ele><time>2026-03-28T10:45:27.998Z</time></trkpt><trkpt lat="44.70076196514628" lon="9.569356681856956"><ele>471.0</ele><time>2026-03-28T10:45:30Z</time></trkpt><trkpt lat="44.70065158970886" lon="9.569299213156816"><ele>471.0</ele><time>2026-03-28T10:45:32Z</time></trkpt><trkpt lat="44.700533832562286" lon="9.569266564173926"><ele>471.0</ele><time>2026-03-28T10:45:34Z</time></trkpt><trkpt lat="44.700413297453075" lon="9.56928395226252"><ele>471.0</ele><time>2026-03-28T10:45:36Z</time></trkpt><trkpt lat="44.700290989380605" lon="9.569282816765806"><ele>471.0</ele><time>2026-03-28T10:45:38Z</time></trkpt><trkpt lat="44.70017865494271" lon="9.569257906118297"><ele>473.75</ele><time>2026-03-28T10:45:40Z</time></trkpt><trkpt lat="44.70007153351665" lon="9.569217873433017"><ele>476.5</ele><time>2026-03-28T10:45:42Z</time></trkpt><trkpt lat="44.69996780648982" lon="9.569158898486624"><ele>479.25</ele><time>2026-03-28T10:45:44Z</time></trkpt><trkpt lat="44.699860248715495" lon="9.569099468000793"><ele>482.0</ele><time>2026-03-28T10:45:46Z</time></trkpt><trkpt lat="44.69975487671867" lon="9.569042432192811"><ele>482.0</ele><time>2026-03-28T10:45:48Z</time></trkpt><trkpt lat="44.69963896407209" lon="9.568994501616576"><ele>482.0</ele><time>2026-03-28T10:45:50Z</time></trkpt><trkpt lat="44.699538118545014" lon="9.568896536467145"><ele>482.0</ele><time>2026-03-28T10:45:52Z</time></trkpt><trkpt lat="44.699441863260134" lon="9.568797015576694"><ele>482.0</ele><time>2026-03-28T10:45:54Z</time></trkpt><trkpt lat="44.699374861094476" lon="9.568660788352993"><ele>481.8333333333333</ele><time>2026-03-28T10:45:56Z</time></trkpt><trkpt lat="44.69931929468114" lon="9.568504504512186"><ele>481.66666666666663</ele><time>2026-03-28T10:45:58Z</time></trkpt><trkpt lat="44.69930092302307" lon="9.568418377707049"><ele>481.5</ele><time>2026-03-28T10:45:59Z</time></trkpt><trkpt lat="44.69927875390755" lon="9.568331162849542"><ele>481.33333333333337</ele><time>2026-03-28T10:46:00Z</time></trkpt><trkpt lat="44.69925536366174" lon="9.568247790686417"><ele>481.1666666666667</ele><time>2026-03-28T10:46:01Z</time></trkpt><trkpt lat="44.69923089461306" lon="9.56816331907802"><ele>481.0</ele><time>2026-03-28T10:46:02Z</time></trkpt><trkpt lat="44.6992185903044" lon="9.568069982841577"><ele>480.99999999999994</ele><time>2026-03-28T10:46:03Z</time></trkpt><trkpt lat="44.69917809354438" lon="9.567988127377557"><ele>481.0</ele><time>2026-03-28T10:46:04Z</time></trkpt><trkpt lat="44.69912115463311" lon="9.567918887014354"><ele>480.99999999999994</ele><time>2026-03-28T10:46:05Z</time></trkpt><trkpt lat="44.69905068850166" lon="9.56787332531466"><ele>480.99999999999994</ele><time>2026-03-28T10:46:06Z</time></trkpt><trkpt lat="44.6989797965532" lon="9.567836008885433"><ele>481.0</ele><time>2026-03-28T10:46:07Z</time></trkpt><trkpt lat="44.69891162570801" lon="9.5678051402976"><ele>480.99999999999994</ele><time>2026-03-28T10:46:08Z</time></trkpt><trkpt lat="44.69884194573598" lon="9.56777814649001"><ele>480.99999999999994</ele><time>2026-03-28T10:46:09Z</time></trkpt><trkpt lat="44.69876886100046" lon="9.567759975708949"><ele>481.2857142857142</ele><time>2026-03-28T10:46:10Z</time></trkpt><trkpt lat="44.698696760415146" lon="9.567750417203094"><ele>481.57142857142856</ele><time>2026-03-28T10:46:11Z</time></trkpt><trkpt lat="44.69862516005835" lon="9.567780035466361"><ele>481.85714285714283</ele><time>2026-03-28T10:46:12Z</time></trkpt><trkpt lat="44.69856080351311" lon="9.567808383759793"><ele>482.1428571428571</ele><time>2026-03-28T10:46:13Z</time></trkpt><trkpt lat="44.69849852459061" lon="9.567849638665514"><ele>482.42857142857144</ele><time>2026-03-28T10:46:14Z</time></trkpt><trkpt lat="44.69843315026054" lon="9.567894457253002"><ele>482.7142857142857</ele><time>2026-03-28T10:46:15Z</time></trkpt><trkpt lat="44.698372151648165" lon="9.567950364450883"><ele>483.0</ele><time>2026-03-28T10:46:16Z</time></trkpt><trkpt lat="44.69831841677681" lon="9.568018094226346"><ele>483.0</ele><time>2026-03-28T10:46:17Z</time></trkpt><trkpt lat="44.69827736219634" lon="9.568091887902753"><ele>483.0</ele><time>2026-03-28T10:46:17.999Z</time></trkpt><trkpt lat="44.698239161651564" lon="9.568168051456947"><ele>483.0</ele><time>2026-03-28T10:46:18.999Z</time></trkpt><trkpt lat="44.69820985849631" lon="9.568256979045813"><ele>483.0</ele><time>2026-03-28T10:46:19.999Z</time></trkpt><trkpt lat="44.69817556978083" lon="9.568345146146035"><ele>483.0</ele><time>2026-03-28T10:46:20.999Z</time></trkpt><trkpt lat="44.69813333001865" lon="9.568428092618186"><ele>483.0</ele><time>2026-03-28T10:46:21.999Z</time></trkpt><trkpt lat="44.698087998293985" lon="9.568504389129508"><ele>483.0</ele><time>2026-03-28T10:46:22.999Z</time></trkpt><trkpt lat="44.698036674192245" lon="9.568575443620121"><ele>483.0</ele><time>2026-03-28T10:46:23.999Z</time></trkpt><trkpt lat="44.69797884658595" lon="9.568632363954071"><ele>483.0</ele><time>2026-03-28T10:46:24.999Z</time></trkpt><trkpt lat="44.69791389656435" lon="9.568670547144514"><ele>483.0</ele><time>2026-03-28T10:46:25.999Z</time></trkpt><trkpt lat="44.69783749594111" lon="9.56861915972262"><ele>483.0</ele><time>2026-03-28T10:46:26.999Z</time></trkpt><trkpt lat="44.697770160655445" lon="9.568598803587156"><ele>483.0</ele><time>2026-03-28T10:46:27.999Z</time></trkpt><trkpt lat="44.69770487363265" lon="9.568570158400792"><ele>483.0</ele><time>2026-03-28T10:46:28.999Z</time></trkpt><trkpt lat="44.69763380670908" lon="9.56854084344381"><ele>483.0</ele><time>2026-03-28T10:46:29.999Z</time></trkpt><trkpt lat="44.697559490655074" lon="9.568518400440658"><ele>481.8333333333333</ele><time>2026-03-28T10:46:30.999Z</time></trkpt><trkpt lat="44.69748173093426" lon="9.568512901094785"><ele>480.66666666666663</ele><time>2026-03-28T10:46:31.999Z</time></trkpt><trkpt lat="44.69740620924214" lon="9.568511306281293"><ele>479.5</ele><time>2026-03-28T10:46:32.999Z</time></trkpt><trkpt lat="44.69732977133203" lon="9.568506883596209"><ele>478.3333333333333</ele><time>2026-03-28T10:46:33.999Z</time></trkpt><trkpt lat="44.69725236858511" lon="9.568496214416234"><ele>477.16666666666663</ele><time>2026-03-28T10:46:34.999Z</time></trkpt><trkpt lat="44.697180135934985" lon="9.568481513807564"><ele>476.0</ele><time>2026-03-28T10:46:35.999Z</time></trkpt><trkpt lat="44.69711380077478" lon="9.568451028759721"><ele>476.0</ele><time>2026-03-28T10:46:36.999Z</time></trkpt><trkpt lat="44.6970490882637" lon="9.568402862424579"><ele>476.0</ele><time>2026-03-28T10:46:37.999Z</time></trkpt><trkpt lat="44.69698625642427" lon="9.568352130797779"><ele>476.0</ele><time>2026-03-28T10:46:38.999Z</time></trkpt><trkpt lat="44.69692499422692" lon="9.56830206700556"><ele>476.0</ele><time>2026-03-28T10:46:39.999Z</time></trkpt><trkpt lat="44.69685612365252" lon="9.568265715865838"><ele>476.0</ele><time>2026-03-28T10:46:40.999Z</time></trkpt><trkpt lat="44.69680482497939" lon="9.568192961994107"><ele>476.0</ele><time>2026-03-28T10:46:41.999Z</time></trkpt><trkpt lat="44.696742676245" lon="9.568140484145962"><ele>476.0</ele><time>2026-03-28T10:46:42.999Z</time></trkpt><trkpt lat="44.69667700141674" lon="9.568094923335286"><ele>476.42857142857144</ele><time>2026-03-28T10:46:43.999Z</time></trkpt><trkpt lat="44.69660634289877" lon="9.568059637910258"><ele>476.8571428571429</ele><time>2026-03-28T10:46:44.999Z</time></trkpt><trkpt lat="44.696529832986855" lon="9.568061136766918"><ele>477.2857142857143</ele><time>2026-03-28T10:46:45.999Z</time></trkpt><trkpt lat="44.696458492230576" lon="9.568041311296204"><ele>477.7142857142857</ele><time>2026-03-28T10:46:46.999Z</time></trkpt><trkpt lat="44.69638295776416" lon="9.56805521899172"><ele>478.14285714285717</ele><time>2026-03-28T10:46:47.999Z</time></trkpt><trkpt lat="44.6963103762571" lon="9.568073454637311"><ele>478.57142857142856</ele><time>2026-03-28T10:46:48.999Z</time></trkpt><trkpt lat="44.69623783166708" lon="9.568094192634614"><ele>479.0</ele><time>2026-03-28T10:46:49.999Z</time></trkpt><trkpt lat="44.69616341201743" lon="9.5681168111789"><ele>479.0</ele><time>2026-03-28T10:46:50.999Z</time></trkpt><trkpt lat="44.69609368909484" lon="9.56813801286704"><ele>479.0</ele><time>2026-03-28T10:46:51.999Z</time></trkpt><trkpt lat="44.69602171418197" lon="9.568160079575458"><ele>479.0</ele><time>2026-03-28T10:46:52.999Z</time></trkpt><trkpt lat="44.69595141203485" lon="9.568181633437199"><ele>479.0</ele><time>2026-03-28T10:46:53.999Z</time></trkpt><trkpt lat="44.69587939134157" lon="9.568203714290904"><ele>479.0</ele><time>2026-03-28T10:46:54.999Z</time></trkpt><trkpt lat="44.69580777672268" lon="9.568222525878213"><ele>479.0</ele><time>2026-03-28T10:46:55.999Z</time></trkpt><trkpt lat="44.69573577169949" lon="9.568233702729705"><ele>479.0</ele><time>2026-03-28T10:46:56.999Z</time></trkpt><trkpt lat="44.69566433115869" lon="9.568238261651674"><ele>479.1428571428571</ele><time>2026-03-28T10:46:57.999Z</time></trkpt><trkpt lat="44.695594173774225" lon="9.568234213823954"><ele>479.28571428571433</ele><time>2026-03-28T10:46:58.999Z</time></trkpt><trkpt lat="44.695525232102405" lon="9.568223381207822"><ele>479.42857142857144</ele><time>2026-03-28T10:46:59.999Z</time></trkpt><trkpt lat="44.69545469639151" lon="9.568203207966688"><ele>479.57142857142856</ele><time>2026-03-28T10:47:00.999Z</time></trkpt><trkpt lat="44.69538863993945" lon="9.568175251585389"><ele>479.71428571428567</ele><time>2026-03-28T10:47:01.999Z</time></trkpt><trkpt lat="44.69532504098784" lon="9.568137980565236"><ele>479.8571428571429</ele><time>2026-03-28T10:47:02.999Z</time></trkpt><trkpt lat="44.69526743610928" lon="9.568092895071324"><ele>480.0</ele><time>2026-03-28T10:47:03.999Z</time></trkpt><trkpt lat="44.695208402387415" lon="9.568040145660099"><ele>479.57142857142856</ele><time>2026-03-28T10:47:04.999Z</time></trkpt><trkpt lat="44.69515991086642" lon="9.567981473430471"><ele>479.1428571428571</ele><time>2026-03-28T10:47:05.999Z</time></trkpt><trkpt lat="44.695107432266234" lon="9.56791324167914"><ele>478.71428571428567</ele><time>2026-03-28T10:47:06.999Z</time></trkpt><trkpt lat="44.6950550624808" lon="9.567840415285591"><ele>478.2857142857143</ele><time>2026-03-28T10:47:07.999Z</time></trkpt><trkpt lat="44.69500388721987" lon="9.56776365232831"><ele>477.8571428571428</ele><time>2026-03-28T10:47:08.999Z</time></trkpt><trkpt lat="44.69495264405781" lon="9.567686787610706"><ele>477.4285714285714</ele><time>2026-03-28T10:47:09.999Z</time></trkpt><trkpt lat="44.694896436760054" lon="9.56761241171507"><ele>477.0</ele><time>2026-03-28T10:47:10.998Z</time></trkpt><trkpt lat="44.69483629134425" lon="9.567544304626503"><ele>477.0</ele><time>2026-03-28T10:47:11.998Z</time></trkpt><trkpt lat="44.69476792355199" lon="9.567485908405548"><ele>477.0</ele><time>2026-03-28T10:47:12.998Z</time></trkpt><trkpt lat="44.69468853349586" lon="9.567442539099131"><ele>477.0</ele><time>2026-03-28T10:47:13.998Z</time></trkpt><trkpt lat="44.69461073652842" lon="9.567410986757574"><ele>477.0</ele><time>2026-03-28T10:47:14.998Z</time></trkpt><trkpt lat="44.69451975610403" lon="9.567407961657478"><ele>477.0</ele><time>2026-03-28T10:47:15.998Z</time></trkpt><trkpt lat="44.694436986569414" lon="9.567432071134313"><ele>477.0</ele><time>2026-03-28T10:47:16.998Z</time></trkpt><trkpt lat="44.69436319595303" lon="9.567456161479091"><ele>477.57142857142856</ele><time>2026-03-28T10:47:17.998Z</time></trkpt><trkpt lat="44.69429713828255" lon="9.56750573660143"><ele>478.1428571428571</ele><time>2026-03-28T10:47:18.998Z</time></trkpt><trkpt lat="44.69422589157033" lon="9.567535058964909"><ele>478.71428571428567</ele><time>2026-03-28T10:47:19.998Z</time></trkpt><trkpt lat="44.69415595085652" lon="9.56755778597825"><ele>479.2857142857142</ele><time>2026-03-28T10:47:20.998Z</time></trkpt><trkpt lat="44.69408263562443" lon="9.56757128288164"><ele>479.85714285714283</ele><time>2026-03-28T10:47:21.998Z</time></trkpt><trkpt lat="44.69400594076736" lon="9.567564191825443"><ele>480.42857142857133</ele><time>2026-03-28T10:47:22.998Z</time></trkpt><trkpt lat="44.693939845811364" lon="9.567512532570339"><ele>480.99999999999994</ele><time>2026-03-28T10:47:23.998Z</time></trkpt><trkpt lat="44.6938726270332" lon="9.567476113030853"><ele>480.99999999999994</ele><time>2026-03-28T10:47:24.998Z</time></trkpt><trkpt lat="44.69380546549487" lon="9.567444018139398"><ele>481.0</ele><time>2026-03-28T10:47:25.998Z</time></trkpt><trkpt lat="44.69373386693229" lon="9.56743644315375"><ele>480.99999999999994</ele><time>2026-03-28T10:47:26.998Z</time></trkpt><trkpt lat="44.693669129246956" lon="9.567391626285458"><ele>480.99999999999994</ele><time>2026-03-28T10:47:27.998Z</time></trkpt><trkpt lat="44.693595611731816" lon="9.567380748167052"><ele>481.0</ele><time>2026-03-28T10:47:28.998Z</time></trkpt><trkpt lat="44.693522361183575" lon="9.567384665481198"><ele>480.99999999999994</ele><time>2026-03-28T10:47:29.998Z</time></trkpt><trkpt lat="44.693451192606034" lon="9.567394892307634"><ele>480.99999999999994</ele><time>2026-03-28T10:47:30.998Z</time></trkpt><trkpt lat="44.69338291983417" lon="9.567431964817771"><ele>480.99999999999994</ele><time>2026-03-28T10:47:31.998Z</time></trkpt><trkpt lat="44.693313273473535" lon="9.567451537321535"><ele>481.0</ele><time>2026-03-28T10:47:32.998Z</time></trkpt><trkpt lat="44.69324919855492" lon="9.567489833780142"><ele>480.99999999999994</ele><time>2026-03-28T10:47:33.998Z</time></trkpt><trkpt lat="44.6931896753522" lon="9.567542518846297"><ele>480.99999999999994</ele><time>2026-03-28T10:47:34.998Z</time></trkpt><trkpt lat="44.69313921530106" lon="9.567609314144102"><ele>481.0</ele><time>2026-03-28T10:47:36Z</time></trkpt><trkpt lat="44.69309994643379" lon="9.567691525223719"><ele>480.99999999999994</ele><time>2026-03-28T10:47:37Z</time></trkpt><trkpt lat="44.693079644624426" lon="9.56778745057207"><ele>480.99999999999994</ele><time>2026-03-28T10:47:38Z</time></trkpt><trkpt lat="44.693071926581084" lon="9.567884060243044"><ele>482.99999999999994</ele><time>2026-03-28T10:47:39Z</time></trkpt><trkpt lat="44.69307146560213" lon="9.567978700607721"><ele>485.0</ele><time>2026-03-28T10:47:40Z</time></trkpt><trkpt lat="44.693079208985445" lon="9.568075658830796"><ele>486.99999999999994</ele><time>2026-03-28T10:47:41Z</time></trkpt><trkpt lat="44.69308903186329" lon="9.568174122218121"><ele>488.99999999999994</ele><time>2026-03-28T10:47:42Z</time></trkpt><trkpt lat="44.6930926000313" lon="9.56827109853838"><ele>491.0</ele><time>2026-03-28T10:47:43Z</time></trkpt><trkpt lat="44.69309156831423" lon="9.568368652999917"><ele>492.99999999999994</ele><time>2026-03-28T10:47:44Z</time></trkpt><trkpt lat="44.693088683050675" lon="9.568463936222482"><ele>494.99999999999994</ele><time>2026-03-28T10:47:45Z</time></trkpt><trkpt lat="44.6930777300923" lon="9.568556513061836"><ele>494.99999999999994</ele><time>2026-03-28T10:47:46Z</time></trkpt><trkpt lat="44.69306230439002" lon="9.568648262377144"><ele>495.0</ele><time>2026-03-28T10:47:47Z</time></trkpt><trkpt lat="44.69304311555944" lon="9.568737160864613"><ele>494.99999999999994</ele><time>2026-03-28T10:47:48Z</time></trkpt><trkpt lat="44.69301672761447" lon="9.568825455438635"><ele>494.99999999999994</ele><time>2026-03-28T10:47:49Z</time></trkpt><trkpt lat="44.69298576422593" lon="9.56891238784091"><ele>495.0</ele><time>2026-03-28T10:47:50Z</time></trkpt><trkpt lat="44.69295399205935" lon="9.568997201310841"><ele>494.99999999999994</ele><time>2026-03-28T10:47:51Z</time></trkpt><trkpt lat="44.69291664268781" lon="9.569079907627657"><ele>494.99999999999994</ele><time>2026-03-28T10:47:52Z</time></trkpt><trkpt lat="44.69287415722118" lon="9.569154260378093"><ele>494.5</ele><time>2026-03-28T10:47:53Z</time></trkpt><trkpt lat="44.69281564735655" lon="9.5692040991365"><ele>494.0</ele><time>2026-03-28T10:47:54Z</time></trkpt><trkpt lat="44.69276582638491" lon="9.56926537972255"><ele>493.5</ele><time>2026-03-28T10:47:55Z</time></trkpt><trkpt lat="44.69269631787812" lon="9.569283313760902"><ele>493.0</ele><time>2026-03-28T10:47:56Z</time></trkpt><trkpt lat="44.692628269068486" lon="9.569275030526015"><ele>492.5</ele><time>2026-03-28T10:47:57Z</time></trkpt><trkpt lat="44.69256518002666" lon="9.569234858025172"><ele>492.0</ele><time>2026-03-28T10:47:58Z</time></trkpt><trkpt lat="44.69246621833472" lon="9.569123936295382"><ele>492.0</ele><time>2026-03-28T10:48:00Z</time></trkpt><trkpt lat="44.692367564797415" lon="9.569009826540874"><ele>492.00000000000006</ele><time>2026-03-28T10:48:02Z</time></trkpt><trkpt lat="44.692312490479296" lon="9.56896258420995"><ele>492.00000000000006</ele><time>2026-03-28T10:48:03Z</time></trkpt><trkpt lat="44.692253417771454" lon="9.568931793709833"><ele>492.0</ele><time>2026-03-28T10:48:04Z</time></trkpt><trkpt lat="44.69212691704085" lon="9.568916583377572"><ele>492.0</ele><time>2026-03-28T10:48:06Z</time></trkpt><trkpt lat="44.69205818253803" lon="9.568922336735534"><ele>492.00000000000006</ele><time>2026-03-28T10:48:07Z</time></trkpt><trkpt lat="44.69198711290451" lon="9.56892805190358"><ele>492.0</ele><time>2026-03-28T10:48:08Z</time></trkpt><trkpt lat="44.69192321019112" lon="9.568942069898286"><ele>492.00000000000006</ele><time>2026-03-28T10:48:09Z</time></trkpt><trkpt lat="44.691859453762184" lon="9.568961056704996"><ele>492.00000000000006</ele><time>2026-03-28T10:48:10Z</time></trkpt><trkpt lat="44.6917910775486" lon="9.568982306486863"><ele>492.0</ele><time>2026-03-28T10:48:11Z</time></trkpt><trkpt lat="44.69172191954667" lon="9.56900953929272"><ele>492.00000000000006</ele><time>2026-03-28T10:48:12Z</time></trkpt><trkpt lat="44.69165336285938" lon="9.569042391516088"><ele>492.00000000000006</ele><time>2026-03-28T10:48:13Z</time></trkpt><trkpt lat="44.691587972536894" lon="9.56907775704158"><ele>492.4285714285715</ele><time>2026-03-28T10:48:14Z</time></trkpt><trkpt lat="44.691519745610734" lon="9.569119338656382"><ele>492.8571428571429</ele><time>2026-03-28T10:48:15Z</time></trkpt><trkpt lat="44.69145358731051" lon="9.5691617660846"><ele>493.2857142857143</ele><time>2026-03-28T10:48:16Z</time></trkpt><trkpt lat="44.69138792868856" lon="9.56920882031572"><ele>493.7142857142857</ele><time>2026-03-28T10:48:17Z</time></trkpt><trkpt lat="44.69132174227026" lon="9.56925551850021"><ele>494.1428571428571</ele><time>2026-03-28T10:48:18Z</time></trkpt><trkpt lat="44.69125262733592" lon="9.569302354130619"><ele>494.5714285714285</ele><time>2026-03-28T10:48:19Z</time></trkpt><trkpt lat="44.69118335407078" lon="9.569341795319943"><ele>494.99999999999994</ele><time>2026-03-28T10:48:20Z</time></trkpt><trkpt lat="44.6911167575258" lon="9.569377438805075"><ele>494.5714285714285</ele><time>2026-03-28T10:48:21Z</time></trkpt><trkpt lat="44.691047537300044" lon="9.569399900386971"><ele>494.1428571428571</ele><time>2026-03-28T10:48:22Z</time></trkpt><trkpt lat="44.69098181227397" lon="9.569426510137491"><ele>493.7142857142857</ele><time>2026-03-28T10:48:22.999Z</time></trkpt><trkpt lat="44.69091414179581" lon="9.56944516386546"><ele>493.2857142857143</ele><time>2026-03-28T10:48:23.999Z</time></trkpt><trkpt lat="44.69084255445395" lon="9.569441248558835"><ele>492.8571428571429</ele><time>2026-03-28T10:48:24.999Z</time></trkpt><trkpt lat="44.690775697979724" lon="9.569398873376688"><ele>492.4285714285715</ele><time>2026-03-28T10:48:25.999Z</time></trkpt><trkpt lat="44.690720278827044" lon="9.569327747174048"><ele>492.00000000000006</ele><time>2026-03-28T10:48:26.999Z</time></trkpt><trkpt lat="44.690684830745035" lon="9.56922619934556"><ele>492.0</ele><time>2026-03-28T10:48:27.999Z</time></trkpt><trkpt lat="44.69065742806026" lon="9.56912370499383"><ele>492.0</ele><time>2026-03-28T10:48:28.999Z</time></trkpt><trkpt lat="44.69064940955806" lon="9.569012049453002"><ele>492.0</ele><time>2026-03-28T10:48:29.999Z</time></trkpt><trkpt lat="44.69061210984278" lon="9.5689204909619"><ele>492.0</ele><time>2026-03-28T10:48:30.999Z</time></trkpt><trkpt lat="44.690570207419526" lon="9.568829253688188"><ele>492.0</ele><time>2026-03-28T10:48:31.999Z</time></trkpt><trkpt lat="44.69051934466964" lon="9.568747186053319"><ele>492.0</ele><time>2026-03-28T10:48:32.999Z</time></trkpt><trkpt lat="44.69044654896566" lon="9.568686340683085"><ele>493.1666666666667</ele><time>2026-03-28T10:48:33.999Z</time></trkpt><trkpt lat="44.690369979567464" lon="9.568644782551283"><ele>494.33333333333337</ele><time>2026-03-28T10:48:34.999Z</time></trkpt><trkpt lat="44.69027996785194" lon="9.56865361281766"><ele>495.5</ele><time>2026-03-28T10:48:35.999Z</time></trkpt><trkpt lat="44.69019975981853" lon="9.568652061453733"><ele>496.6666666666667</ele><time>2026-03-28T10:48:36.999Z</time></trkpt><trkpt lat="44.69011809443489" lon="9.568674068988443"><ele>497.83333333333337</ele><time>2026-03-28T10:48:37.999Z</time></trkpt><trkpt lat="44.690044688023015" lon="9.568729724796759"><ele>499.0</ele><time>2026-03-28T10:48:38.999Z</time></trkpt><trkpt lat="44.68998497099023" lon="9.568809116914712"><ele>499.00000000000006</ele><time>2026-03-28T10:48:39.999Z</time></trkpt><trkpt lat="44.68993072117999" lon="9.568888562828596"><ele>499.0</ele><time>2026-03-28T10:48:40.999Z</time></trkpt><trkpt lat="44.689878314502515" lon="9.568966095587239"><ele>499.0</ele><time>2026-03-28T10:48:41.999Z</time></trkpt><trkpt lat="44.689820998169516" lon="9.569038838747211"><ele>499.0</ele><time>2026-03-28T10:48:42.999Z</time></trkpt><trkpt lat="44.68975220650332" lon="9.569099932969298"><ele>499.00000000000006</ele><time>2026-03-28T10:48:43.999Z</time></trkpt><trkpt lat="44.68966945380123" lon="9.569090460392971"><ele>499.0</ele><time>2026-03-28T10:48:44.999Z</time></trkpt><trkpt lat="44.689588368270606" lon="9.569097698194355"><ele>499.00000000000006</ele><time>2026-03-28T10:48:45.999Z</time></trkpt><trkpt lat="44.689507388776306" lon="9.569102638443805"><ele>499.0</ele><time>2026-03-28T10:48:46.999Z</time></trkpt><trkpt lat="44.68942151318265" lon="9.56913236311224"><ele>499.0</ele><time>2026-03-28T10:48:47.999Z</time></trkpt><trkpt lat="44.6893347977964" lon="9.56914396531917"><ele>499.0</ele><time>2026-03-28T10:48:48.999Z</time></trkpt><trkpt lat="44.689249495663425" lon="9.569175637813665"><ele>499.00000000000006</ele><time>2026-03-28T10:48:49.999Z</time></trkpt><trkpt lat="44.68916861180223" lon="9.56921064283405"><ele>499.0</ele><time>2026-03-28T10:48:50.999Z</time></trkpt><trkpt lat="44.68908925504303" lon="9.569243674764246"><ele>498.33333333333337</ele><time>2026-03-28T10:48:51.999Z</time></trkpt><trkpt lat="44.68901572963905" lon="9.569272780084775"><ele>497.6666666666667</ele><time>2026-03-28T10:48:52.999Z</time></trkpt><trkpt lat="44.68894456454531" lon="9.569303599107263"><ele>497.0</ele><time>2026-03-28T10:48:53.999Z</time></trkpt><trkpt lat="44.688874789877694" lon="9.569330314349903"><ele>496.33333333333337</ele><time>2026-03-28T10:48:54.999Z</time></trkpt><trkpt lat="44.68879562259944" lon="9.569328231832436"><ele>495.6666666666667</ele><time>2026-03-28T10:48:55.999Z</time></trkpt><trkpt lat="44.68871665571202" lon="9.569342177442005"><ele>495.0</ele><time>2026-03-28T10:48:56.999Z</time></trkpt><trkpt lat="44.68863525537201" lon="9.569342063362857"><ele>495.3333333333333</ele><time>2026-03-28T10:48:57.999Z</time></trkpt><trkpt lat="44.68856401588995" lon="9.569302607584294"><ele>495.66666666666663</ele><time>2026-03-28T10:48:58.999Z</time></trkpt><trkpt lat="44.68850213590667" lon="9.569238198742898"><ele>496.0</ele><time>2026-03-28T10:48:59.999Z</time></trkpt><trkpt lat="44.6884629932472" lon="9.569143550280586"><ele>496.3333333333333</ele><time>2026-03-28T10:49:00.999Z</time></trkpt><trkpt lat="44.68843084285482" lon="9.56904423934095"><ele>496.66666666666663</ele><time>2026-03-28T10:49:01.999Z</time></trkpt><trkpt lat="44.68839540374677" lon="9.568938995567596"><ele>497.0</ele><time>2026-03-28T10:49:02.999Z</time></trkpt><trkpt lat="44.688344046435866" lon="9.56884592430897"><ele>496.99999999999994</ele><time>2026-03-28T10:49:03.999Z</time></trkpt><trkpt lat="44.688318404308156" lon="9.568733894211245"><ele>497.0</ele><time>2026-03-28T10:49:04.999Z</time></trkpt><trkpt lat="44.688267432323315" lon="9.56863394940159"><ele>497.0</ele><time>2026-03-28T10:49:05.999Z</time></trkpt><trkpt lat="44.68820837647754" lon="9.56854131678026"><ele>497.0</ele><time>2026-03-28T10:49:06.999Z</time></trkpt><trkpt lat="44.68814218577229" lon="9.568454931542721"><ele>496.99999999999994</ele><time>2026-03-28T10:49:07.999Z</time></trkpt><trkpt lat="44.688065779327246" lon="9.56837955104569"><ele>497.0</ele><time>2026-03-28T10:49:08.999Z</time></trkpt><trkpt lat="44.68798604095513" lon="9.568315872268329"><ele>495.6</ele><time>2026-03-28T10:49:09.999Z</time></trkpt><trkpt lat="44.68790348029687" lon="9.568261505297825"><ele>494.20000000000005</ele><time>2026-03-28T10:49:10.999Z</time></trkpt><trkpt lat="44.68781460288777" lon="9.568226763830634"><ele>492.8</ele><time>2026-03-28T10:49:11.999Z</time></trkpt><trkpt lat="44.68772681748488" lon="9.568206339876381"><ele>491.4</ele><time>2026-03-28T10:49:12.999Z</time></trkpt><trkpt lat="44.68763425176388" lon="9.568208712831343"><ele>490.0</ele><time>2026-03-28T10:49:13.999Z</time></trkpt><trkpt lat="44.68754303761426" lon="9.568217620036906"><ele>489.83333333333337</ele><time>2026-03-28T10:49:14.999Z</time></trkpt><trkpt lat="44.687455073385756" lon="9.568252420981707"><ele>489.6666666666667</ele><time>2026-03-28T10:49:15.998Z</time></trkpt><trkpt lat="44.6873677171281" lon="9.568264768690682"><ele>489.5</ele><time>2026-03-28T10:49:16.998Z</time></trkpt><trkpt lat="44.68728156208816" lon="9.568282574634841"><ele>489.33333333333337</ele><time>2026-03-28T10:49:17.998Z</time></trkpt><trkpt lat="44.687195329228366" lon="9.568304589063754"><ele>489.1666666666667</ele><time>2026-03-28T10:49:18.998Z</time></trkpt><trkpt lat="44.68711009305671" lon="9.568334583010543"><ele>489.0</ele><time>2026-03-28T10:49:19.998Z</time></trkpt><trkpt lat="44.68702660534916" lon="9.568378057344868"><ele>489.0</ele><time>2026-03-28T10:49:20.998Z</time></trkpt><trkpt lat="44.68694929429732" lon="9.568438509242666"><ele>489.0</ele><time>2026-03-28T10:49:21.998Z</time></trkpt><trkpt lat="44.68687249252368" lon="9.568499667498573"><ele>489.0</ele><time>2026-03-28T10:49:22.998Z</time></trkpt><trkpt lat="44.68679219720157" lon="9.568554209158968"><ele>489.0</ele><time>2026-03-28T10:49:23.998Z</time></trkpt><trkpt lat="44.68670337064251" lon="9.568568849935142"><ele>489.0</ele><time>2026-03-28T10:49:24.998Z</time></trkpt><trkpt lat="44.68661930570572" lon="9.568558543055772"><ele>489.0</ele><time>2026-03-28T10:49:25.998Z</time></trkpt><trkpt lat="44.68653454502637" lon="9.568526356528476"><ele>488.4</ele><time>2026-03-28T10:49:26.998Z</time></trkpt><trkpt lat="44.686450621009115" lon="9.568482070044581"><ele>487.79999999999995</ele><time>2026-03-28T10:49:27.998Z</time></trkpt><trkpt lat="44.686359639123374" lon="9.568437488081798"><ele>487.20000000000005</ele><time>2026-03-28T10:49:28.998Z</time></trkpt><trkpt lat="44.68627878900495" lon="9.56839960723724"><ele>486.6</ele><time>2026-03-28T10:49:29.998Z</time></trkpt><trkpt lat="44.68619691638891" lon="9.568362791087948"><ele>486.0</ele><time>2026-03-28T10:49:30.998Z</time></trkpt><trkpt lat="44.68610786665964" lon="9.56832404469678"><ele>486.6</ele><time>2026-03-28T10:49:31.998Z</time></trkpt><trkpt lat="44.68602012057365" lon="9.568288664879905"><ele>487.20000000000005</ele><time>2026-03-28T10:49:32.998Z</time></trkpt><trkpt lat="44.685931435785506" lon="9.56826284557619"><ele>487.79999999999995</ele><time>2026-03-28T10:49:33.998Z</time></trkpt><trkpt lat="44.68584171815194" lon="9.568271437910019"><ele>488.4</ele><time>2026-03-28T10:49:34.998Z</time></trkpt><trkpt lat="44.68575293387361" lon="9.568269163801519"><ele>489.0</ele><time>2026-03-28T10:49:35.998Z</time></trkpt><trkpt lat="44.68566511006045" lon="9.568295143961842"><ele>489.0</ele><time>2026-03-28T10:49:36.998Z</time></trkpt><trkpt lat="44.685580398758454" lon="9.568339301199082"><ele>489.0</ele><time>2026-03-28T10:49:37.998Z</time></trkpt><trkpt lat="44.68549926328654" lon="9.568404434654612"><ele>489.0</ele><time>2026-03-28T10:49:38.998Z</time></trkpt><trkpt lat="44.685423945952294" lon="9.568480399995128"><ele>489.0</ele><time>2026-03-28T10:49:39.998Z</time></trkpt><trkpt lat="44.68535140045687" lon="9.56856059395003"><ele>489.0</ele><time>2026-03-28T10:49:40.998Z</time></trkpt><trkpt lat="44.685263562688185" lon="9.568608965180564"><ele>487.5</ele><time>2026-03-28T10:49:42Z</time></trkpt><trkpt lat="44.685184471057184" lon="9.568656402471234"><ele>486.0</ele><time>2026-03-28T10:49:43Z</time></trkpt><trkpt lat="44.68509841172352" lon="9.568677346495459"><ele>484.5</ele><time>2026-03-28T10:49:44Z</time></trkpt><trkpt lat="44.68501544813284" lon="9.568679566257991"><ele>483.0</ele><time>2026-03-28T10:49:45Z</time></trkpt><trkpt lat="44.684936926823596" lon="9.568659788233"><ele>481.5</ele><time>2026-03-28T10:49:46Z</time></trkpt><trkpt lat="44.68486036390062" lon="9.568618826082055"><ele>480.0</ele><time>2026-03-28T10:49:47Z</time></trkpt><trkpt lat="44.68478579564384" lon="9.568561698868507"><ele>480.0</ele><time>2026-03-28T10:49:48Z</time></trkpt><trkpt lat="44.68468711354371" lon="9.568521315463006"><ele>480.0</ele><time>2026-03-28T10:49:49Z</time></trkpt><trkpt lat="44.684583128397165" lon="9.568536078884456"><ele>480.0</ele><time>2026-03-28T10:49:50Z</time></trkpt><trkpt lat="44.68449254387343" lon="9.56857110894922"><ele>480.0</ele><time>2026-03-28T10:49:51Z</time></trkpt><trkpt lat="44.68440899051901" lon="9.56860600550816"><ele>480.0</ele><time>2026-03-28T10:49:52Z</time></trkpt><trkpt lat="44.684327966155614" lon="9.568620989567572"><ele>480.8333333333333</ele><time>2026-03-28T10:49:53Z</time></trkpt><trkpt lat="44.68424569056328" lon="9.568608836529988"><ele>481.66666666666663</ele><time>2026-03-28T10:49:54Z</time></trkpt><trkpt lat="44.684170030876125" lon="9.568575296741301"><ele>482.5</ele><time>2026-03-28T10:49:55Z</time></trkpt><trkpt lat="44.68410181929018" lon="9.56853386384124"><ele>483.3333333333333</ele><time>2026-03-28T10:49:56Z</time></trkpt><trkpt lat="44.684031629202316" lon="9.568477147449052"><ele>484.16666666666663</ele><time>2026-03-28T10:49:57Z</time></trkpt><trkpt lat="44.68396710587893" lon="9.568407776206756"><ele>485.0</ele><time>2026-03-28T10:49:58Z</time></trkpt><trkpt lat="44.68391331604958" lon="9.568318505413238"><ele>484.99999999999994</ele><time>2026-03-28T10:49:59Z</time></trkpt><trkpt lat="44.683862274588805" lon="9.568223463857658"><ele>485.0</ele><time>2026-03-28T10:50:00Z</time></trkpt><trkpt lat="44.68381528360123" lon="9.568125691711135"><ele>485.0</ele><time>2026-03-28T10:50:01Z</time></trkpt><trkpt lat="44.68377005647171" lon="9.568030246256672"><ele>485.0</ele><time>2026-03-28T10:50:02Z</time></trkpt><trkpt lat="44.68369729563315" lon="9.567965251319007"><ele>484.99999999999994</ele><time>2026-03-28T10:50:03Z</time></trkpt><trkpt lat="44.68364721072406" lon="9.567877462022604"><ele>485.0</ele><time>2026-03-28T10:50:04Z</time></trkpt><trkpt lat="44.68359496876069" lon="9.567785467202171"><ele>485.66666666666663</ele><time>2026-03-28T10:50:05Z</time></trkpt><trkpt lat="44.6835404838453" lon="9.567696836151454"><ele>486.3333333333333</ele><time>2026-03-28T10:50:06Z</time></trkpt><trkpt lat="44.68348648328856" lon="9.567602844855458"><ele>487.0</ele><time>2026-03-28T10:50:07Z</time></trkpt><trkpt lat="44.68345567952193" lon="9.567484893427002"><ele>487.66666666666663</ele><time>2026-03-28T10:50:08Z</time></trkpt><trkpt lat="44.683411547294796" lon="9.56738456225042"><ele>488.3333333333333</ele><time>2026-03-28T10:50:09Z</time></trkpt><trkpt lat="44.68337810153947" lon="9.567279295891092"><ele>489.0</ele><time>2026-03-28T10:50:10Z</time></trkpt><trkpt lat="44.68334634204485" lon="9.5671676382512"><ele>489.0</ele><time>2026-03-28T10:50:11Z</time></trkpt><trkpt lat="44.683303649903486" lon="9.567063199229286"><ele>489.0</ele><time>2026-03-28T10:50:12Z</time></trkpt><trkpt lat="44.68328937214845" lon="9.566952294685068"><ele>489.0</ele><time>2026-03-28T10:50:13Z</time></trkpt><trkpt lat="44.68324832554324" lon="9.566852090022993"><ele>489.0</ele><time>2026-03-28T10:50:14Z</time></trkpt><trkpt lat="44.68317689164446" lon="9.566769277634945"><ele>489.0</ele><time>2026-03-28T10:50:15Z</time></trkpt><trkpt lat="44.6830825118338" lon="9.566754991398188"><ele>489.0</ele><time>2026-03-28T10:50:16Z</time></trkpt><trkpt lat="44.68299754635941" lon="9.566744136292618"><ele>489.6666666666667</ele><time>2026-03-28T10:50:17Z</time></trkpt><trkpt lat="44.682910946639836" lon="9.56678415085244"><ele>490.33333333333337</ele><time>2026-03-28T10:50:18Z</time></trkpt><trkpt lat="44.68283816150137" lon="9.566867262903758"><ele>491.0</ele><time>2026-03-28T10:50:19Z</time></trkpt><trkpt lat="44.68277616764323" lon="9.566959467015145"><ele>491.6666666666667</ele><time>2026-03-28T10:50:20Z</time></trkpt><trkpt lat="44.68271005820264" lon="9.567030716241856"><ele>492.33333333333337</ele><time>2026-03-28T10:50:21Z</time></trkpt><trkpt lat="44.6826329167285" lon="9.567073160294"><ele>493.0</ele><time>2026-03-28T10:50:22Z</time></trkpt><trkpt lat="44.68254891086421" lon="9.567079270190034"><ele>493.00000000000006</ele><time>2026-03-28T10:50:23Z</time></trkpt><trkpt lat="44.682472697485714" lon="9.567048408144604"><ele>493.0</ele><time>2026-03-28T10:50:24Z</time></trkpt><trkpt lat="44.68240689340971" lon="9.566974324069976"><ele>493.0</ele><time>2026-03-28T10:50:25Z</time></trkpt><trkpt lat="44.6823451587655" lon="9.56686124412784"><ele>493.0</ele><time>2026-03-28T10:50:26Z</time></trkpt><trkpt lat="44.68229730275873" lon="9.566782847425104"><ele>493.00000000000006</ele><time>2026-03-28T10:50:27Z</time></trkpt><trkpt lat="44.68222046371369" lon="9.566718281772987"><ele>493.0</ele><time>2026-03-28T10:50:27.999Z</time></trkpt><trkpt lat="44.68213669706992" lon="9.566681007743233"><ele>491.83333333333337</ele><time>2026-03-28T10:50:28.999Z</time></trkpt><trkpt lat="44.68204812126817" lon="9.566662029598184"><ele>490.6666666666667</ele><time>2026-03-28T10:50:29.999Z</time></trkpt><trkpt lat="44.681959855827536" lon="9.566651331059226"><ele>489.5</ele><time>2026-03-28T10:50:30.999Z</time></trkpt><trkpt lat="44.68187180453706" lon="9.566643360682475"><ele>488.33333333333337</ele><time>2026-03-28T10:50:31.999Z</time></trkpt><trkpt lat="44.68178594250172" lon="9.566637784228595"><ele>487.1666666666667</ele><time>2026-03-28T10:50:32.999Z</time></trkpt><trkpt lat="44.68169895580049" lon="9.566627184678374"><ele>486.0</ele><time>2026-03-28T10:50:33.999Z</time></trkpt><trkpt lat="44.681612036868124" lon="9.566620639121334"><ele>486.0</ele><time>2026-03-28T10:50:34.999Z</time></trkpt><trkpt lat="44.68152738544331" lon="9.56659555862059"><ele>486.0</ele><time>2026-03-28T10:50:35.999Z</time></trkpt><trkpt lat="44.68144538969822" lon="9.566548303180461"><ele>486.0</ele><time>2026-03-28T10:50:36.999Z</time></trkpt><trkpt lat="44.68136976659852" lon="9.566486823247844"><ele>486.0</ele><time>2026-03-28T10:50:37.999Z</time></trkpt><trkpt lat="44.68129993643985" lon="9.566419796128846"><ele>486.0</ele><time>2026-03-28T10:50:38.999Z</time></trkpt><trkpt lat="44.68123892761188" lon="9.566344102414662"><ele>486.0</ele><time>2026-03-28T10:50:39.999Z</time></trkpt><trkpt lat="44.68118629518218" lon="9.566257278757757"><ele>485.1666666666667</ele><time>2026-03-28T10:50:40.999Z</time></trkpt><trkpt lat="44.68114629378671" lon="9.56615819957907"><ele>484.33333333333337</ele><time>2026-03-28T10:50:41.999Z</time></trkpt><trkpt lat="44.681136955958955" lon="9.56603581494398"><ele>483.5</ele><time>2026-03-28T10:50:42.999Z</time></trkpt><trkpt lat="44.68109904958264" lon="9.56592907138249"><ele>482.6666666666667</ele><time>2026-03-28T10:50:43.999Z</time></trkpt><trkpt lat="44.681036194114256" lon="9.565842564446994"><ele>481.83333333333337</ele><time>2026-03-28T10:50:44.999Z</time></trkpt><trkpt lat="44.68096593084609" lon="9.565768920917519"><ele>481.0</ele><time>2026-03-28T10:50:45.999Z</time></trkpt><trkpt lat="44.6808871030786" lon="9.565702575811036"><ele>481.0</ele><time>2026-03-28T10:50:46.999Z</time></trkpt><trkpt lat="44.6807871395437" lon="9.56572297417623"><ele>481.0</ele><time>2026-03-28T10:50:47.999Z</time></trkpt><trkpt lat="44.68069702254142" lon="9.56574859310092"><ele>481.0</ele><time>2026-03-28T10:50:48.999Z</time></trkpt><trkpt lat="44.68061323306346" lon="9.56580348407286"><ele>481.0</ele><time>2026-03-28T10:50:49.999Z</time></trkpt><trkpt lat="44.6805308245078" lon="9.565852478004047"><ele>481.0</ele><time>2026-03-28T10:50:50.999Z</time></trkpt><trkpt lat="44.68044702472682" lon="9.5658839420947"><ele>481.00000000000006</ele><time>2026-03-28T10:50:51.999Z</time></trkpt><trkpt lat="44.68036150837999" lon="9.565870045585305"><ele>481.0</ele><time>2026-03-28T10:50:52.999Z</time></trkpt><trkpt lat="44.680282894580714" lon="9.565893792122921"><ele>481.0</ele><time>2026-03-28T10:50:53.999Z</time></trkpt><trkpt lat="44.680201612866384" lon="9.565900471467904"><ele>481.0</ele><time>2026-03-28T10:50:54.999Z</time></trkpt><trkpt lat="44.68012035297728" lon="9.565928575941554"><ele>481.00000000000006</ele><time>2026-03-28T10:50:55.999Z</time></trkpt><trkpt lat="44.68004242914458" lon="9.565974974931589"><ele>481.0</ele><time>2026-03-28T10:50:56.999Z</time></trkpt><trkpt lat="44.679972448736656" lon="9.566039127336147"><ele>480.1666666666667</ele><time>2026-03-28T10:50:57.999Z</time></trkpt><trkpt lat="44.67990363163033" lon="9.566105734224292"><ele>479.33333333333337</ele><time>2026-03-28T10:50:58.999Z</time></trkpt><trkpt lat="44.679840474087804" lon="9.566173011508361"><ele>478.5</ele><time>2026-03-28T10:50:59.999Z</time></trkpt><trkpt lat="44.67977300645689" lon="9.566245585112956"><ele>477.66666666666663</ele><time>2026-03-28T10:51:00.999Z</time></trkpt><trkpt lat="44.67970815758659" lon="9.566322127061762"><ele>476.8333333333333</ele><time>2026-03-28T10:51:01.999Z</time></trkpt><trkpt lat="44.6796441845816" lon="9.566394679209118"><ele>476.0</ele><time>2026-03-28T10:51:02.999Z</time></trkpt><trkpt lat="44.67958007549609" lon="9.566466594595221"><ele>476.8333333333333</ele><time>2026-03-28T10:51:03.999Z</time></trkpt><trkpt lat="44.67951353911912" lon="9.566537325082344"><ele>477.66666666666663</ele><time>2026-03-28T10:51:04.999Z</time></trkpt><trkpt lat="44.67945082753858" lon="9.56661060986539"><ele>478.5</ele><time>2026-03-28T10:51:05.999Z</time></trkpt><trkpt lat="44.679384549510694" lon="9.566682976112252"><ele>479.33333333333337</ele><time>2026-03-28T10:51:06.999Z</time></trkpt><trkpt lat="44.679320771090566" lon="9.566758384548804"><ele>480.1666666666667</ele><time>2026-03-28T10:51:07.999Z</time></trkpt><trkpt lat="44.67925740690618" lon="9.566831712358946"><ele>481.0</ele><time>2026-03-28T10:51:08.999Z</time></trkpt><trkpt lat="44.67919246492938" lon="9.566903506446879"><ele>481.00000000000006</ele><time>2026-03-28T10:51:09.999Z</time></trkpt><trkpt lat="44.679131529698985" lon="9.566978819246975"><ele>481.0</ele><time>2026-03-28T10:51:10.999Z</time></trkpt><trkpt lat="44.67906830562337" lon="9.567061880395796"><ele>481.0</ele><time>2026-03-28T10:51:11.999Z</time></trkpt><trkpt lat="44.67900645182542" lon="9.567150774952681"><ele>481.0</ele><time>2026-03-28T10:51:12.999Z</time></trkpt><trkpt lat="44.678953584215385" lon="9.567249009850741"><ele>481.00000000000006</ele><time>2026-03-28T10:51:13.999Z</time></trkpt><trkpt lat="44.67890636317631" lon="9.56734161740718"><ele>481.0</ele><time>2026-03-28T10:51:14.999Z</time></trkpt><trkpt lat="44.67886527391847" lon="9.567440510510558"><ele>482.50000000000006</ele><time>2026-03-28T10:51:15.999Z</time></trkpt><trkpt lat="44.67882835997185" lon="9.56753687879218"><ele>484.0</ele><time>2026-03-28T10:51:16.999Z</time></trkpt><trkpt lat="44.67879605528026" lon="9.56764644902718"><ele>485.5</ele><time>2026-03-28T10:51:17.999Z</time></trkpt><trkpt lat="44.678772706563976" lon="9.56775740925109"><ele>487.0</ele><time>2026-03-28T10:51:18.999Z</time></trkpt><trkpt lat="44.67875092659921" lon="9.56786390713662"><ele>488.50000000000006</ele><time>2026-03-28T10:51:19.998Z</time></trkpt><trkpt lat="44.67873362507545" lon="9.567971722974855"><ele>490.0</ele><time>2026-03-28T10:51:20.998Z</time></trkpt><trkpt lat="44.67871588952156" lon="9.568080368300665"><ele>489.50000000000006</ele><time>2026-03-28T10:51:21.998Z</time></trkpt><trkpt lat="44.678695023837115" lon="9.56818476883338"><ele>489.0</ele><time>2026-03-28T10:51:22.998Z</time></trkpt><trkpt lat="44.67866882934765" lon="9.568283964863154"><ele>488.5</ele><time>2026-03-28T10:51:23.998Z</time></trkpt><trkpt lat="44.67863326812735" lon="9.568375995821803"><ele>488.0</ele><time>2026-03-28T10:51:24.998Z</time></trkpt><trkpt lat="44.678580903315115" lon="9.568455649952716"><ele>487.50000000000006</ele><time>2026-03-28T10:51:25.998Z</time></trkpt><trkpt lat="44.678513684614956" lon="9.56851938805491"><ele>487.0</ele><time>2026-03-28T10:51:26.998Z</time></trkpt><trkpt lat="44.67844065710689" lon="9.56856304579995"><ele>487.00000000000006</ele><time>2026-03-28T10:51:27.998Z</time></trkpt><trkpt lat="44.67835879573293" lon="9.568586621505519"><ele>487.0</ele><time>2026-03-28T10:51:28.998Z</time></trkpt><trkpt lat="44.67827891020965" lon="9.568580784055486"><ele>487.0</ele><time>2026-03-28T10:51:29.998Z</time></trkpt><trkpt lat="44.67820576993369" lon="9.568530469444964"><ele>487.0</ele><time>2026-03-28T10:51:30.998Z</time></trkpt><trkpt lat="44.67815226759911" lon="9.568440298386758"><ele>487.00000000000006</ele><time>2026-03-28T10:51:31.998Z</time></trkpt><trkpt lat="44.67810810680711" lon="9.56833623946431"><ele>487.0</ele><time>2026-03-28T10:51:32.998Z</time></trkpt><trkpt lat="44.67806780767966" lon="9.568234698793374"><ele>487.00000000000006</ele><time>2026-03-28T10:51:33.998Z</time></trkpt><trkpt lat="44.67802247519626" lon="9.568139226159655"><ele>487.0</ele><time>2026-03-28T10:51:34.998Z</time></trkpt><trkpt lat="44.67799221181183" lon="9.56803293349088"><ele>487.0</ele><time>2026-03-28T10:51:35.998Z</time></trkpt><trkpt lat="44.677945635700745" lon="9.567945376966698"><ele>487.0</ele><time>2026-03-28T10:51:36.998Z</time></trkpt><trkpt lat="44.67790036107164" lon="9.567860266967635"><ele>487.00000000000006</ele><time>2026-03-28T10:51:37.998Z</time></trkpt><trkpt lat="44.677854593995306" lon="9.567773739212216"><ele>487.0</ele><time>2026-03-28T10:51:38.998Z</time></trkpt><trkpt lat="44.67780953847405" lon="9.567687969150418"><ele>484.83333333333337</ele><time>2026-03-28T10:51:39.998Z</time></trkpt><trkpt lat="44.677763411560946" lon="9.567600159309277"><ele>482.6666666666667</ele><time>2026-03-28T10:51:40.998Z</time></trkpt><trkpt lat="44.6777155690181" lon="9.567509083855729"><ele>480.5</ele><time>2026-03-28T10:51:41.998Z</time></trkpt><trkpt lat="44.677669027524686" lon="9.567420484795285"><ele>478.33333333333337</ele><time>2026-03-28T10:51:42.998Z</time></trkpt><trkpt lat="44.67762173108348" lon="9.567333457542125"><ele>476.1666666666667</ele><time>2026-03-28T10:51:43.998Z</time></trkpt><trkpt lat="44.67756262257266" lon="9.567258856234798"><ele>474.0</ele><time>2026-03-28T10:51:44.998Z</time></trkpt><trkpt lat="44.677517187055166" lon="9.56717321243055"><ele>474.0</ele><time>2026-03-28T10:51:45.998Z</time></trkpt><trkpt lat="44.67747304098304" lon="9.56708627140823"><ele>474.0</ele><time>2026-03-28T10:51:46.998Z</time></trkpt><trkpt lat="44.677428064814784" lon="9.566995334140314"><ele>474.0</ele><time>2026-03-28T10:51:48Z</time></trkpt><trkpt lat="44.67738110598301" lon="9.566906229844662"><ele>474.0</ele><time>2026-03-28T10:51:49Z</time></trkpt><trkpt lat="44.67733249259443" lon="9.56681482402823"><ele>474.0</ele><time>2026-03-28T10:51:50Z</time></trkpt><trkpt lat="44.67728438623539" lon="9.566725299904586"><ele>474.0</ele><time>2026-03-28T10:51:51Z</time></trkpt><trkpt lat="44.67722885510938" lon="9.566643400050092"><ele>474.6666666666667</ele><time>2026-03-28T10:51:52Z</time></trkpt><trkpt lat="44.67716093099376" lon="9.566574136347487"><ele>475.33333333333337</ele><time>2026-03-28T10:51:53Z</time></trkpt><trkpt lat="44.677092318564355" lon="9.566514457173247"><ele>476.0</ele><time>2026-03-28T10:51:54Z</time></trkpt><trkpt lat="44.67700068067643" lon="9.566542814413642"><ele>476.6666666666667</ele><time>2026-03-28T10:51:55Z</time></trkpt><trkpt lat="44.67691768600005" lon="9.566576562739558"><ele>477.33333333333337</ele><time>2026-03-28T10:51:56Z</time></trkpt><trkpt lat="44.67683631277293" lon="9.56663391339729"><ele>478.0</ele><time>2026-03-28T10:51:57Z</time></trkpt><trkpt lat="44.676760043912466" lon="9.566687619916209"><ele>479.83333333333337</ele><time>2026-03-28T10:51:58Z</time></trkpt><trkpt lat="44.6766888010737" lon="9.56672781198028"><ele>481.6666666666667</ele><time>2026-03-28T10:51:59Z</time></trkpt><trkpt lat="44.67661393797297" lon="9.566758628935496"><ele>483.5</ele><time>2026-03-28T10:52:00Z</time></trkpt><trkpt lat="44.676536084028285" lon="9.56678359920829"><ele>485.33333333333337</ele><time>2026-03-28T10:52:01Z</time></trkpt><trkpt lat="44.67645907345662" lon="9.566804334206486"><ele>487.1666666666667</ele><time>2026-03-28T10:52:02Z</time></trkpt><trkpt lat="44.6763816074455" lon="9.566816884058722"><ele>489.0</ele><time>2026-03-28T10:52:03Z</time></trkpt><trkpt lat="44.67630191068096" lon="9.566820546599489"><ele>489.0</ele><time>2026-03-28T10:52:04Z</time></trkpt><trkpt lat="44.6762189905497" lon="9.566820469206242"><ele>489.0</ele><time>2026-03-28T10:52:05Z</time></trkpt><trkpt lat="44.676134576152236" lon="9.56681988886549"><ele>489.0</ele><time>2026-03-28T10:52:06Z</time></trkpt><trkpt lat="44.676051166056034" lon="9.566839370506482"><ele>489.0</ele><time>2026-03-28T10:52:07Z</time></trkpt><trkpt lat="44.67596887148367" lon="9.56684158626892"><ele>489.0</ele><time>2026-03-28T10:52:08Z</time></trkpt><trkpt lat="44.67588729521399" lon="9.566841236184969"><ele>489.0</ele><time>2026-03-28T10:52:09Z</time></trkpt><trkpt lat="44.67581077072625" lon="9.56681786085804"><ele>489.28571428571433</ele><time>2026-03-28T10:52:10Z</time></trkpt><trkpt lat="44.67573491284579" lon="9.566838310701712"><ele>489.5714285714286</ele><time>2026-03-28T10:52:11Z</time></trkpt><trkpt lat="44.675659195351926" lon="9.566839416843038"><ele>489.8571428571429</ele><time>2026-03-28T10:52:12Z</time></trkpt><trkpt lat="44.675579957425306" lon="9.566850762965279"><ele>490.1428571428571</ele><time>2026-03-28T10:52:13Z</time></trkpt><trkpt lat="44.67550724791747" lon="9.56686651771959"><ele>490.4285714285714</ele><time>2026-03-28T10:52:14Z</time></trkpt><trkpt lat="44.67543618629242" lon="9.56688123772129"><ele>490.71428571428567</ele><time>2026-03-28T10:52:15Z</time></trkpt><trkpt lat="44.67537184266014" lon="9.566901010070042"><ele>491.0</ele><time>2026-03-28T10:52:16Z</time></trkpt><trkpt lat="44.67530972476302" lon="9.566924490326583"><ele>491.66666666666663</ele><time>2026-03-28T10:52:17Z</time></trkpt><trkpt lat="44.67524558374988" lon="9.566953248677851"><ele>492.3333333333333</ele><time>2026-03-28T10:52:18Z</time></trkpt><trkpt lat="44.67518199360607" lon="9.566985063886872"><ele>493.0</ele><time>2026-03-28T10:52:19Z</time></trkpt><trkpt lat="44.675120973937254" lon="9.567014106202336"><ele>493.66666666666663</ele><time>2026-03-28T10:52:20Z</time></trkpt><trkpt lat="44.67505896322891" lon="9.567036159031185"><ele>494.3333333333333</ele><time>2026-03-28T10:52:21Z</time></trkpt><trkpt lat="44.674997266156396" lon="9.56705559609226"><ele>495.0</ele><time>2026-03-28T10:52:22Z</time></trkpt><trkpt lat="44.67487186491877" lon="9.56709527018338"><ele>495.0</ele><time>2026-03-28T10:52:24Z</time></trkpt><trkpt lat="44.674750890892106" lon="9.5671302754645"><ele>495.0</ele><time>2026-03-28T10:52:26Z</time></trkpt><trkpt lat="44.67463405759708" lon="9.567173955906284"><ele>495.0</ele><time>2026-03-28T10:52:28Z</time></trkpt><trkpt lat="44.674527697190605" lon="9.567237359173982"><ele>495.0</ele><time>2026-03-28T10:52:30Z</time></trkpt><trkpt lat="44.674416381159986" lon="9.56729477627753"><ele>495.0</ele><time>2026-03-28T10:52:31.999Z</time></trkpt><trkpt lat="44.674356903730455" lon="9.567325465080907"><ele>495.0</ele><time>2026-03-28T10:52:32.999Z</time></trkpt><trkpt lat="44.67424244025114" lon="9.567384015730987"><ele>495.0</ele><time>2026-03-28T10:52:34.999Z</time></trkpt><trkpt lat="44.67413362654251" lon="9.567430443870272"><ele>495.0</ele><time>2026-03-28T10:52:36.999Z</time></trkpt><trkpt lat="44.67402627849278" lon="9.567483891253813"><ele>495.0</ele><time>2026-03-28T10:52:38.999Z</time></trkpt><trkpt lat="44.67392260490548" lon="9.567541024138487"><ele>495.0</ele><time>2026-03-28T10:52:40.999Z</time></trkpt><trkpt lat="44.67382506555449" lon="9.567602517956916"><ele>495.0</ele><time>2026-03-28T10:52:42.999Z</time></trkpt><trkpt lat="44.67373432157357" lon="9.567679022875556"><ele>495.0</ele><time>2026-03-28T10:52:44.999Z</time></trkpt><trkpt lat="44.673649244053394" lon="9.567765628548292"><ele>495.0</ele><time>2026-03-28T10:52:46.999Z</time></trkpt><trkpt lat="44.67356387181196" lon="9.567863169769975"><ele>495.0</ele><time>2026-03-28T10:52:48.999Z</time></trkpt><trkpt lat="44.67347702646474" lon="9.567953389637125"><ele>494.0</ele><time>2026-03-28T10:52:50.999Z</time></trkpt><trkpt lat="44.67338243963618" lon="9.56802236714613"><ele>493.0</ele><time>2026-03-28T10:52:52.999Z</time></trkpt><trkpt lat="44.67328306299636" lon="9.568083093556814"><ele>492.0</ele><time>2026-03-28T10:52:54.999Z</time></trkpt><trkpt lat="44.673182905034125" lon="9.56812339841488"><ele>491.0</ele><time>2026-03-28T10:52:56.999Z</time></trkpt><trkpt lat="44.6730787322996" lon="9.568130919979593"><ele>490.0</ele><time>2026-03-28T10:52:58.999Z</time></trkpt><trkpt lat="44.6729752129336" lon="9.56813335965226"><ele>490.0</ele><time>2026-03-28T10:53:00.999Z</time></trkpt><trkpt lat="44.67287752879003" lon="9.56812873825683"><ele>490.0</ele><time>2026-03-28T10:53:02.999Z</time></trkpt><trkpt lat="44.67277795460394" lon="9.568129942148063"><ele>490.0</ele><time>2026-03-28T10:53:04.999Z</time></trkpt><trkpt lat="44.67267746581488" lon="9.568119926872201"><ele>490.0</ele><time>2026-03-28T10:53:06.999Z</time></trkpt><trkpt lat="44.67257297527275" lon="9.568118896082217"><ele>490.0</ele><time>2026-03-28T10:53:08.999Z</time></trkpt><trkpt lat="44.672470401474094" lon="9.568120245745716"><ele>492.2</ele><time>2026-03-28T10:53:10.999Z</time></trkpt><trkpt lat="44.672366983772896" lon="9.568124235766174"><ele>494.4</ele><time>2026-03-28T10:53:12.999Z</time></trkpt><trkpt lat="44.67226502181972" lon="9.568113565135912"><ele>496.6</ele><time>2026-03-28T10:53:14.999Z</time></trkpt><trkpt lat="44.672162951222994" lon="9.568111735930735"><ele>498.8</ele><time>2026-03-28T10:53:16.999Z</time></trkpt><trkpt lat="44.672058551791054" lon="9.568097182303589"><ele>501.0</ele><time>2026-03-28T10:53:18.999Z</time></trkpt><trkpt lat="44.67195605680501" lon="9.568060641004045"><ele>499.8</ele><time>2026-03-28T10:53:20.999Z</time></trkpt><trkpt lat="44.67185399236198" lon="9.568011633135482"><ele>498.6</ele><time>2026-03-28T10:53:22.999Z</time></trkpt><trkpt lat="44.671754192422576" lon="9.56796029113941"><ele>497.4</ele><time>2026-03-28T10:53:24.998Z</time></trkpt><trkpt lat="44.67165568475906" lon="9.56790109112288"><ele>496.2</ele><time>2026-03-28T10:53:26.998Z</time></trkpt><trkpt lat="44.671553790591005" lon="9.567835191395856"><ele>495.0</ele><time>2026-03-28T10:53:28.998Z</time></trkpt><trkpt lat="44.671455806279404" lon="9.567756106053347"><ele>497.0</ele><time>2026-03-28T10:53:30.998Z</time></trkpt><trkpt lat="44.67142017809603" lon="9.567682363678935"><ele>499.0</ele><time>2026-03-28T10:53:31.998Z</time></trkpt><trkpt lat="44.671355813707656" lon="9.567681234075284"><ele>501.0</ele><time>2026-03-28T10:53:32.998Z</time></trkpt><trkpt lat="44.67125734983816" lon="9.56760044366739"><ele>503.0</ele><time>2026-03-28T10:53:34.998Z</time></trkpt><trkpt lat="44.671156560572555" lon="9.567524510485512"><ele>505.0</ele><time>2026-03-28T10:53:36.998Z</time></trkpt><trkpt lat="44.6710466627334" lon="9.567480849230451"><ele>505.0</ele><time>2026-03-28T10:53:38.998Z</time></trkpt><trkpt lat="44.67092903900954" lon="9.567469819613448"><ele>505.0</ele><time>2026-03-28T10:53:40.998Z</time></trkpt><trkpt lat="44.670808680791026" lon="9.567481757206973"><ele>505.0</ele><time>2026-03-28T10:53:42.998Z</time></trkpt><trkpt lat="44.67068968626787" lon="9.56749691871347"><ele>505.0</ele><time>2026-03-28T10:53:44.998Z</time></trkpt><trkpt lat="44.670566554537984" lon="9.567502636691243"><ele>505.0</ele><time>2026-03-28T10:53:46.998Z</time></trkpt><trkpt lat="44.670509621331185" lon="9.567449236233552"><ele>505.0</ele><time>2026-03-28T10:53:47.998Z</time></trkpt><trkpt lat="44.670399002060485" lon="9.567421314817887"><ele>505.0</ele><time>2026-03-28T10:53:49.998Z</time></trkpt><trkpt lat="44.67029470026738" lon="9.5673677920426"><ele>505.0</ele><time>2026-03-28T10:53:51.998Z</time></trkpt><trkpt lat="44.67018334446196" lon="9.567295822025981"><ele>505.0</ele><time>2026-03-28T10:53:54Z</time></trkpt><trkpt lat="44.670125604039974" lon="9.567259863146505"><ele>504.6666666666667</ele><time>2026-03-28T10:53:55Z</time></trkpt><trkpt lat="44.6700107554984" lon="9.567191645621266"><ele>504.33333333333337</ele><time>2026-03-28T10:53:57Z</time></trkpt><trkpt lat="44.669951642454734" lon="9.567160437024764"><ele>504.0</ele><time>2026-03-28T10:53:58Z</time></trkpt><trkpt lat="44.66989125942779" lon="9.567129882427645"><ele>503.66666666666663</ele><time>2026-03-28T10:53:59Z</time></trkpt><trkpt lat="44.669831071432924" lon="9.567102309290657"><ele>503.3333333333333</ele><time>2026-03-28T10:54:00Z</time></trkpt><trkpt lat="44.66971471566827" lon="9.567052619059842"><ele>503.0</ele><time>2026-03-28T10:54:02Z</time></trkpt><trkpt lat="44.669596884246836" lon="9.56700829414155"><ele>504.8571428571429</ele><time>2026-03-28T10:54:04Z</time></trkpt><trkpt lat="44.66953449154844" lon="9.566987929764425"><ele>506.7142857142858</ele><time>2026-03-28T10:54:05Z</time></trkpt><trkpt lat="44.66947033904153" lon="9.566970598235836"><ele>508.57142857142856</ele><time>2026-03-28T10:54:06Z</time></trkpt><trkpt lat="44.66940226750292" lon="9.56695272120856"><ele>510.42857142857144</ele><time>2026-03-28T10:54:07Z</time></trkpt><trkpt lat="44.66933801185363" lon="9.566936533074529"><ele>512.2857142857142</ele><time>2026-03-28T10:54:08Z</time></trkpt><trkpt lat="44.669270809319855" lon="9.566922191095932"><ele>514.1428571428571</ele><time>2026-03-28T10:54:09Z</time></trkpt><trkpt lat="44.669208655568376" lon="9.566904578857411"><ele>516.0</ele><time>2026-03-28T10:54:10Z</time></trkpt><trkpt lat="44.669146047074925" lon="9.566876591154532"><ele>516.0</ele><time>2026-03-28T10:54:11Z</time></trkpt><trkpt lat="44.66904785112609" lon="9.566793282551886"><ele>516.0</ele><time>2026-03-28T10:54:13Z</time></trkpt><trkpt lat="44.66896067753354" lon="9.566686420386892"><ele>516.0</ele><time>2026-03-28T10:54:15Z</time></trkpt><trkpt lat="44.668929761990114" lon="9.566527209445356"><ele>516.0</ele><time>2026-03-28T10:54:17Z</time></trkpt><trkpt lat="44.66888012354053" lon="9.566371649765752"><ele>516.0</ele><time>2026-03-28T10:54:19Z</time></trkpt><trkpt lat="44.66885363208865" lon="9.56628823261299"><ele>516.0</ele><time>2026-03-28T10:54:20Z</time></trkpt><trkpt lat="44.668768758527136" lon="9.56615293305736"><ele>516.0</ele><time>2026-03-28T10:54:22Z</time></trkpt><trkpt lat="44.668737879347695" lon="9.566074632475745"><ele>516.0</ele><time>2026-03-28T10:54:23Z</time></trkpt><trkpt lat="44.668696036865605" lon="9.566004185770476"><ele>516.0</ele><time>2026-03-28T10:54:24Z</time></trkpt><trkpt lat="44.6686568398115" lon="9.565934790803519"><ele>516.0</ele><time>2026-03-28T10:54:25Z</time></trkpt><trkpt lat="44.66860747926" lon="9.56587421631996"><ele>514.6666666666666</ele><time>2026-03-28T10:54:26Z</time></trkpt><trkpt lat="44.66856855922145" lon="9.565803764293879"><ele>513.3333333333334</ele><time>2026-03-28T10:54:27Z</time></trkpt><trkpt lat="44.668522327644574" lon="9.565735226061541"><ele>512.0</ele><time>2026-03-28T10:54:28Z</time></trkpt><trkpt lat="44.668479732679735" lon="9.565667493696507"><ele>510.6666666666667</ele><time>2026-03-28T10:54:29Z</time></trkpt><trkpt lat="44.66843361074628" lon="9.565604933428249"><ele>509.33333333333337</ele><time>2026-03-28T10:54:30Z</time></trkpt><trkpt lat="44.668346522857014" lon="9.565486019600717"><ele>508.0</ele><time>2026-03-28T10:54:32Z</time></trkpt><trkpt lat="44.668255386386356" lon="9.565375482599846"><ele>509.33333333333337</ele><time>2026-03-28T10:54:34Z</time></trkpt><trkpt lat="44.66815292645096" lon="9.565278275089927"><ele>510.6666666666667</ele><time>2026-03-28T10:54:35.999Z</time></trkpt><trkpt lat="44.66809971444178" lon="9.56523034990095"><ele>512.0</ele><time>2026-03-28T10:54:36.999Z</time></trkpt><trkpt lat="44.668039770725244" lon="9.565188189686488"><ele>513.3333333333334</ele><time>2026-03-28T10:54:37.999Z</time></trkpt><trkpt lat="44.66798197469556" lon="9.565149974711955"><ele>514.6666666666666</ele><time>2026-03-28T10:54:38.999Z</time></trkpt><trkpt lat="44.66792765896978" lon="9.565095201790092"><ele>516.0</ele><time>2026-03-28T10:54:39.999Z</time></trkpt><trkpt lat="44.66787465703547" lon="9.565041019447895"><ele>516.0</ele><time>2026-03-28T10:54:40.999Z</time></trkpt><trkpt lat="44.66782891647262" lon="9.56497634524787"><ele>516.0</ele><time>2026-03-28T10:54:41.999Z</time></trkpt><trkpt lat="44.66774985769983" lon="9.564836942879722"><ele>516.0</ele><time>2026-03-28T10:54:43.999Z</time></trkpt><trkpt lat="44.667719887546134" lon="9.56475825171931"><ele>516.0</ele><time>2026-03-28T10:54:44.999Z</time></trkpt><trkpt lat="44.667688957582115" lon="9.564673956704043"><ele>516.0</ele><time>2026-03-28T10:54:45.999Z</time></trkpt><trkpt lat="44.66765936815546" lon="9.564586996620243"><ele>516.0</ele><time>2026-03-28T10:54:46.999Z</time></trkpt><trkpt lat="44.66763315441983" lon="9.564502322439063"><ele>515.4285714285713</ele><time>2026-03-28T10:54:47.999Z</time></trkpt><trkpt lat="44.667605200634235" lon="9.56441240181212"><ele>514.8571428571429</ele><time>2026-03-28T10:54:48.999Z</time></trkpt><trkpt lat="44.66758580694502" lon="9.564323838102734"><ele>514.2857142857142</ele><time>2026-03-28T10:54:49.999Z</time></trkpt><trkpt lat="44.66756486969611" lon="9.564233550244017"><ele>513.7142857142857</ele><time>2026-03-28T10:54:50.999Z</time></trkpt><trkpt lat="44.66754338894023" lon="9.564148720804551"><ele>513.1428571428571</ele><time>2026-03-28T10:54:51.999Z</time></trkpt><trkpt lat="44.667524492084816" lon="9.564063833248502"><ele>512.5714285714286</ele><time>2026-03-28T10:54:52.999Z</time></trkpt><trkpt lat="44.66751056059812" lon="9.563976277248836"><ele>512.0</ele><time>2026-03-28T10:54:53.999Z</time></trkpt><trkpt lat="44.667477537347956" lon="9.56381525522776"><ele>513.6</ele><time>2026-03-28T10:54:55.999Z</time></trkpt><trkpt lat="44.66745913938989" lon="9.563653748104336"><ele>515.2</ele><time>2026-03-28T10:54:57.999Z</time></trkpt><trkpt lat="44.66743991600701" lon="9.563476831272888"><ele>516.8</ele><time>2026-03-28T10:54:59.999Z</time></trkpt><trkpt lat="44.66743666949894" lon="9.563380423472948"><ele>518.4</ele><time>2026-03-28T10:55:00.999Z</time></trkpt><trkpt lat="44.667427020973015" lon="9.563290329899981"><ele>520.0</ele><time>2026-03-28T10:55:01.999Z</time></trkpt><trkpt lat="44.66738632949682" lon="9.563124864994027"><ele>520.0</ele><time>2026-03-28T10:55:03.999Z</time></trkpt><trkpt lat="44.66735683741548" lon="9.563041567086898"><ele>520.0</ele><time>2026-03-28T10:55:04.999Z</time></trkpt><trkpt lat="44.667297968055394" lon="9.562878438602823"><ele>520.0</ele><time>2026-03-28T10:55:06.999Z</time></trkpt><trkpt lat="44.66727409948852" lon="9.562789702004043"><ele>520.0</ele><time>2026-03-28T10:55:07.999Z</time></trkpt><trkpt lat="44.667241604593904" lon="9.562709216601892"><ele>520.0</ele><time>2026-03-28T10:55:08.999Z</time></trkpt><trkpt lat="44.66720676931225" lon="9.562628937877228"><ele>520.0</ele><time>2026-03-28T10:55:09.999Z</time></trkpt><trkpt lat="44.667172917477885" lon="9.56254872600011"><ele>520.4285714285714</ele><time>2026-03-28T10:55:10.999Z</time></trkpt><trkpt lat="44.66713582279342" lon="9.562471504419872"><ele>520.8571428571429</ele><time>2026-03-28T10:55:11.999Z</time></trkpt><trkpt lat="44.66711391826413" lon="9.562372605011236"><ele>521.2857142857142</ele><time>2026-03-28T10:55:12.999Z</time></trkpt><trkpt lat="44.667078296450605" lon="9.562294001339728"><ele>521.7142857142858</ele><time>2026-03-28T10:55:13.999Z</time></trkpt><trkpt lat="44.667038661442334" lon="9.562216455356623"><ele>522.1428571428571</ele><time>2026-03-28T10:55:14.999Z</time></trkpt><trkpt lat="44.66698683375854" lon="9.562146429911003"><ele>522.5714285714286</ele><time>2026-03-28T10:55:15.999Z</time></trkpt><trkpt lat="44.66693095382343" lon="9.562082202905689"><ele>523.0</ele><time>2026-03-28T10:55:16.999Z</time></trkpt><trkpt lat="44.666868689495054" lon="9.562027843820866"><ele>522.9999999999999</ele><time>2026-03-28T10:55:17.999Z</time></trkpt><trkpt lat="44.666803651827045" lon="9.561980095505534"><ele>523.0</ele><time>2026-03-28T10:55:18.999Z</time></trkpt><trkpt lat="44.66673945975654" lon="9.56193505837199"><ele>523.0</ele><time>2026-03-28T10:55:19.999Z</time></trkpt><trkpt lat="44.666667878262935" lon="9.561901996468373"><ele>523.0</ele><time>2026-03-28T10:55:20.999Z</time></trkpt><trkpt lat="44.66659728309385" lon="9.561873173635341"><ele>523.0</ele><time>2026-03-28T10:55:21.999Z</time></trkpt><trkpt lat="44.66653353468795" lon="9.561847146171703"><ele>522.9999999999999</ele><time>2026-03-28T10:55:22.999Z</time></trkpt><trkpt lat="44.666469397751676" lon="9.561820960081125"><ele>523.0</ele><time>2026-03-28T10:55:23.999Z</time></trkpt><trkpt lat="44.666408453468435" lon="9.561789560700058"><ele>522.9999999999999</ele><time>2026-03-28T10:55:24.999Z</time></trkpt><trkpt lat="44.66635328213255" lon="9.561744008569809"><ele>523.0</ele><time>2026-03-28T10:55:25.999Z</time></trkpt><trkpt lat="44.66630264077797" lon="9.561682857063504"><ele>523.0</ele><time>2026-03-28T10:55:26.999Z</time></trkpt><trkpt lat="44.66625491620494" lon="9.561614012462844"><ele>523.0</ele><time>2026-03-28T10:55:27.998Z</time></trkpt><trkpt lat="44.666209353511825" lon="9.561543003404987"><ele>523.0</ele><time>2026-03-28T10:55:28.998Z</time></trkpt><trkpt lat="44.666161562511746" lon="9.561467337499979"><ele>522.9999999999999</ele><time>2026-03-28T10:55:29.998Z</time></trkpt><trkpt lat="44.6661165570318" lon="9.561395921609565"><ele>523.0</ele><time>2026-03-28T10:55:30.998Z</time></trkpt><trkpt lat="44.66607266656153" lon="9.5613233000806"><ele>521.9999999999999</ele><time>2026-03-28T10:55:31.998Z</time></trkpt><trkpt lat="44.66602968278803" lon="9.561246761931713"><ele>521.0</ele><time>2026-03-28T10:55:32.998Z</time></trkpt><trkpt lat="44.66598499139198" lon="9.56117631436377"><ele>520.0</ele><time>2026-03-28T10:55:33.998Z</time></trkpt><trkpt lat="44.665977754840746" lon="9.56107570403627"><ele>519.0</ele><time>2026-03-28T10:55:34.998Z</time></trkpt><trkpt lat="44.66598922436012" lon="9.560980528107004"><ele>518.0</ele><time>2026-03-28T10:55:35.998Z</time></trkpt><trkpt lat="44.666015885524395" lon="9.560884312231"><ele>516.9999999999999</ele><time>2026-03-28T10:55:36.998Z</time></trkpt><trkpt lat="44.66605544787512" lon="9.560802287186114"><ele>516.0</ele><time>2026-03-28T10:55:37.998Z</time></trkpt><trkpt lat="44.666098827552354" lon="9.560728768303841"><ele>518.2857142857142</ele><time>2026-03-28T10:55:38.998Z</time></trkpt><trkpt lat="44.66613510599872" lon="9.560655299185662"><ele>520.5714285714286</ele><time>2026-03-28T10:55:39.998Z</time></trkpt><trkpt lat="44.66617998322876" lon="9.560578352733467"><ele>522.8571428571429</ele><time>2026-03-28T10:55:40.998Z</time></trkpt><trkpt lat="44.6662166328716" lon="9.560496063362143"><ele>525.1428571428571</ele><time>2026-03-28T10:55:41.998Z</time></trkpt><trkpt lat="44.66626070967243" lon="9.560420709974547"><ele>527.4285714285714</ele><time>2026-03-28T10:55:42.998Z</time></trkpt><trkpt lat="44.6662884742956" lon="9.560337892373482"><ele>529.7142857142857</ele><time>2026-03-28T10:55:43.998Z</time></trkpt><trkpt lat="44.666318651235855" lon="9.560247053914678"><ele>532.0</ele><time>2026-03-28T10:55:44.998Z</time></trkpt><trkpt lat="44.66633264849399" lon="9.560149274584083"><ele>532.0</ele><time>2026-03-28T10:55:45.998Z</time></trkpt><trkpt lat="44.66633227772144" lon="9.560050363589232"><ele>532.0</ele><time>2026-03-28T10:55:46.998Z</time></trkpt><trkpt lat="44.6663232786527" lon="9.559949450410969"><ele>532.0</ele><time>2026-03-28T10:55:47.998Z</time></trkpt><trkpt lat="44.6663075500488" lon="9.559851144903327"><ele>532.0</ele><time>2026-03-28T10:55:48.998Z</time></trkpt><trkpt lat="44.66628632071158" lon="9.559760164662114"><ele>532.0</ele><time>2026-03-28T10:55:49.998Z</time></trkpt><trkpt lat="44.6662643162483" lon="9.559664611567081"><ele>532.0</ele><time>2026-03-28T10:55:50.998Z</time></trkpt><trkpt lat="44.66624555325128" lon="9.559571040159835"><ele>532.0</ele><time>2026-03-28T10:55:51.998Z</time></trkpt><trkpt lat="44.666225215623115" lon="9.559481529169162"><ele>532.2857142857143</ele><time>2026-03-28T10:55:52.998Z</time></trkpt><trkpt lat="44.66620594365961" lon="9.559389748963225"><ele>532.5714285714286</ele><time>2026-03-28T10:55:53.998Z</time></trkpt><trkpt lat="44.66619865503129" lon="9.559289145142099"><ele>532.8571428571429</ele><time>2026-03-28T10:55:54.998Z</time></trkpt><trkpt lat="44.66617152400581" lon="9.559198322067038"><ele>533.1428571428571</ele><time>2026-03-28T10:55:55.998Z</time></trkpt><trkpt lat="44.666150137584154" lon="9.559105373280756"><ele>533.4285714285714</ele><time>2026-03-28T10:55:56.998Z</time></trkpt><trkpt lat="44.66612767408234" lon="9.559014205243757"><ele>533.7142857142858</ele><time>2026-03-28T10:55:57.998Z</time></trkpt><trkpt lat="44.66610316411084" lon="9.558924198483538"><ele>534.0</ele><time>2026-03-28T10:55:58.998Z</time></trkpt><trkpt lat="44.666078255584345" lon="9.558829961731368"><ele>532.0000000000001</ele><time>2026-03-28T10:56:00Z</time></trkpt><trkpt lat="44.66605172663718" lon="9.55873578367525"><ele>530.0</ele><time>2026-03-28T10:56:01Z</time></trkpt><trkpt lat="44.666023297254654" lon="9.558641818576822"><ele>528.0</ele><time>2026-03-28T10:56:02Z</time></trkpt><trkpt lat="44.66600256135893" lon="9.558546910568927"><ele>526.0</ele><time>2026-03-28T10:56:03Z</time></trkpt><trkpt lat="44.66597721220636" lon="9.558460057182963"><ele>524.0</ele><time>2026-03-28T10:56:04Z</time></trkpt><trkpt lat="44.665954267636806" lon="9.558373674325637"><ele>522.0000000000001</ele><time>2026-03-28T10:56:05Z</time></trkpt><trkpt lat="44.66592895930705" lon="9.558289054777411"><ele>520.0</ele><time>2026-03-28T10:56:06Z</time></trkpt><trkpt lat="44.66589657007148" lon="9.558206749284814"><ele>520.0</ele><time>2026-03-28T10:56:07Z</time></trkpt><trkpt lat="44.66586894307088" lon="9.558117940020532"><ele>520.0</ele><time>2026-03-28T10:56:08Z</time></trkpt><trkpt lat="44.66584609623422" lon="9.558030159973772"><ele>520.0</ele><time>2026-03-28T10:56:09Z</time></trkpt><trkpt lat="44.66582181718586" lon="9.557940027675974"><ele>520.0</ele><time>2026-03-28T10:56:10Z</time></trkpt><trkpt lat="44.66578888961124" lon="9.557769915060582"><ele>520.0</ele><time>2026-03-28T10:56:12Z</time></trkpt><trkpt lat="44.665770857492234" lon="9.557679923824418"><ele>520.0</ele><time>2026-03-28T10:56:13Z</time></trkpt><trkpt lat="44.66574030929415" lon="9.557509708515486"><ele>520.8333333333334</ele><time>2026-03-28T10:56:15Z</time></trkpt><trkpt lat="44.66573290856297" lon="9.557413606137374"><ele>521.6666666666667</ele><time>2026-03-28T10:56:16Z</time></trkpt><trkpt lat="44.66572458929463" lon="9.557318683623535"><ele>522.5</ele><time>2026-03-28T10:56:17Z</time></trkpt><trkpt lat="44.66571571063938" lon="9.557219909228525"><ele>523.3333333333334</ele><time>2026-03-28T10:56:18Z</time></trkpt><trkpt lat="44.66570111792335" lon="9.557130109863687"><ele>524.1666666666666</ele><time>2026-03-28T10:56:19Z</time></trkpt><trkpt lat="44.66569133501964" lon="9.557030280093288"><ele>525.0</ele><time>2026-03-28T10:56:20Z</time></trkpt><trkpt lat="44.665664435712266" lon="9.55684761863318"><ele>526.4285714285714</ele><time>2026-03-28T10:56:22Z</time></trkpt><trkpt lat="44.665651878267" lon="9.556754530661957"><ele>527.8571428571429</ele><time>2026-03-28T10:56:23Z</time></trkpt><trkpt lat="44.665640552465646" lon="9.556660092566336"><ele>529.2857142857142</ele><time>2026-03-28T10:56:24Z</time></trkpt><trkpt lat="44.66562578444649" lon="9.556562475898545"><ele>530.7142857142858</ele><time>2026-03-28T10:56:25Z</time></trkpt><trkpt lat="44.66561340667046" lon="9.556470583472896"><ele>532.1428571428571</ele><time>2026-03-28T10:56:26Z</time></trkpt><trkpt lat="44.66559758751825" lon="9.55637820370483"><ele>533.5714285714286</ele><time>2026-03-28T10:56:27Z</time></trkpt><trkpt lat="44.66558759550262" lon="9.556280849780368"><ele>535.0</ele><time>2026-03-28T10:56:28Z</time></trkpt><trkpt lat="44.665552476815485" lon="9.556111513965956"><ele>537.3333333333334</ele><time>2026-03-28T10:56:30Z</time></trkpt><trkpt lat="44.665514267475544" lon="9.555943021662717"><ele>539.6666666666667</ele><time>2026-03-28T10:56:32Z</time></trkpt><trkpt lat="44.665494489859306" lon="9.555855270567754"><ele>542.0</ele><time>2026-03-28T10:56:33Z</time></trkpt><trkpt lat="44.66547542247627" lon="9.555768822124683"><ele>544.3333333333334</ele><time>2026-03-28T10:56:34Z</time></trkpt><trkpt lat="44.6654498693106" lon="9.555685789540206"><ele>546.6666666666666</ele><time>2026-03-28T10:56:34.999Z</time></trkpt><trkpt lat="44.66542723628329" lon="9.555595830094642"><ele>549.0</ele><time>2026-03-28T10:56:35.999Z</time></trkpt><trkpt lat="44.665406855796995" lon="9.555507019650168"><ele>551.1666666666666</ele><time>2026-03-28T10:56:36.999Z</time></trkpt><trkpt lat="44.665357462128526" lon="9.555345547024025"><ele>553.3333333333334</ele><time>2026-03-28T10:56:38.999Z</time></trkpt><trkpt lat="44.66533556831064" lon="9.55526036392707"><ele>555.5</ele><time>2026-03-28T10:56:39.999Z</time></trkpt><trkpt lat="44.665306542577035" lon="9.555178172253632"><ele>557.6666666666667</ele><time>2026-03-28T10:56:40.999Z</time></trkpt><trkpt lat="44.66528102100513" lon="9.555090781283578"><ele>559.8333333333334</ele><time>2026-03-28T10:56:41.999Z</time></trkpt><trkpt lat="44.665259861348076" lon="9.554998800823803"><ele>562.0</ele><time>2026-03-28T10:56:42.999Z</time></trkpt><trkpt lat="44.66523682633558" lon="9.5549071851466"><ele>558.1428571428572</ele><time>2026-03-28T10:56:43.999Z</time></trkpt><trkpt lat="44.665215224174304" lon="9.554816338029088"><ele>554.2857142857143</ele><time>2026-03-28T10:56:44.999Z</time></trkpt><trkpt lat="44.665196216144246" lon="9.554724622993222"><ele>550.4285714285714</ele><time>2026-03-28T10:56:45.999Z</time></trkpt><trkpt lat="44.66517612201482" lon="9.554635131161"><ele>546.5714285714287</ele><time>2026-03-28T10:56:46.999Z</time></trkpt><trkpt lat="44.66515298167497" lon="9.554547236795196"><ele>542.7142857142858</ele><time>2026-03-28T10:56:47.999Z</time></trkpt><trkpt lat="44.66512873110787" lon="9.554462943753377"><ele>538.8571428571429</ele><time>2026-03-28T10:56:48.999Z</time></trkpt><trkpt lat="44.6651034776193" lon="9.554373479060743"><ele>535.0</ele><time>2026-03-28T10:56:49.999Z</time></trkpt><trkpt lat="44.665077889387774" lon="9.554285523302298"><ele>535.0</ele><time>2026-03-28T10:56:50.999Z</time></trkpt><trkpt lat="44.665050827662895" lon="9.554195994358428"><ele>535.0</ele><time>2026-03-28T10:56:51.999Z</time></trkpt><trkpt lat="44.66502510012007" lon="9.55411493344389"><ele>535.0</ele><time>2026-03-28T10:56:52.999Z</time></trkpt><trkpt lat="44.664995212112565" lon="9.55402715268937"><ele>535.0</ele><time>2026-03-28T10:56:53.999Z</time></trkpt><trkpt lat="44.6649667955635" lon="9.553945978371639"><ele>535.0</ele><time>2026-03-28T10:56:54.999Z</time></trkpt><trkpt lat="44.66494417502225" lon="9.553862324407657"><ele>535.0</ele><time>2026-03-28T10:56:55.999Z</time></trkpt><trkpt lat="44.66492102558762" lon="9.553770395724369"><ele>535.0</ele><time>2026-03-28T10:56:56.999Z</time></trkpt><trkpt lat="44.66489188281181" lon="9.55368734982313"><ele>536.0</ele><time>2026-03-28T10:56:57.999Z</time></trkpt><trkpt lat="44.664863787317024" lon="9.55360371380351"><ele>537.0</ele><time>2026-03-28T10:56:58.999Z</time></trkpt><trkpt lat="44.66483699018506" lon="9.553521601253966"><ele>538.0</ele><time>2026-03-28T10:56:59.999Z</time></trkpt><trkpt lat="44.664811134778574" lon="9.55343567632235"><ele>539.0</ele><time>2026-03-28T10:57:00.999Z</time></trkpt><trkpt lat="44.664780960549116" lon="9.553352555594602"><ele>540.0</ele><time>2026-03-28T10:57:01.999Z</time></trkpt><trkpt lat="44.66475597528108" lon="9.553263281544158"><ele>541.0</ele><time>2026-03-28T10:57:02.999Z</time></trkpt><trkpt lat="44.66472374888022" lon="9.553180935529777"><ele>542.0</ele><time>2026-03-28T10:57:03.999Z</time></trkpt><trkpt lat="44.664702540010076" lon="9.553088795261035"><ele>542.0</ele><time>2026-03-28T10:57:04.999Z</time></trkpt><trkpt lat="44.664677336865076" lon="9.553005803108139"><ele>542.0</ele><time>2026-03-28T10:57:05.999Z</time></trkpt><trkpt lat="44.664654747415746" lon="9.552919272105262"><ele>542.0</ele><time>2026-03-28T10:57:06.999Z</time></trkpt><trkpt lat="44.66464000410598" lon="9.552828806501797"><ele>542.0</ele><time>2026-03-28T10:57:07.999Z</time></trkpt><trkpt lat="44.66461333204004" lon="9.55265510675908"><ele>542.0</ele><time>2026-03-28T10:57:09.999Z</time></trkpt><trkpt lat="44.66462060687612" lon="9.552557562040564"><ele>542.0</ele><time>2026-03-28T10:57:10.999Z</time></trkpt><trkpt lat="44.664631962778465" lon="9.552467479932206"><ele>542.3333333333333</ele><time>2026-03-28T10:57:11.999Z</time></trkpt><trkpt lat="44.66464511009743" lon="9.552378662101157"><ele>542.6666666666666</ele><time>2026-03-28T10:57:12.999Z</time></trkpt><trkpt lat="44.66468007975408" lon="9.552212017530763"><ele>543.0</ele><time>2026-03-28T10:57:14.999Z</time></trkpt><trkpt lat="44.66470462538523" lon="9.552122562188556"><ele>543.3333333333334</ele><time>2026-03-28T10:57:15.999Z</time></trkpt><trkpt lat="44.66472216825867" lon="9.55203460386752"><ele>543.6666666666667</ele><time>2026-03-28T10:57:16.999Z</time></trkpt><trkpt lat="44.66473999477845" lon="9.551946814875766"><ele>544.0</ele><time>2026-03-28T10:57:17.999Z</time></trkpt><trkpt lat="44.664770244579344" lon="9.551775741542203"><ele>543.9999999999999</ele><time>2026-03-28T10:57:19.999Z</time></trkpt><trkpt lat="44.66479589581221" lon="9.551687272625744"><ele>544.0</ele><time>2026-03-28T10:57:20.999Z</time></trkpt><trkpt lat="44.66480901291469" lon="9.551599420281153"><ele>544.0</ele><time>2026-03-28T10:57:21.999Z</time></trkpt><trkpt lat="44.664814060609935" lon="9.551507103763788"><ele>544.0</ele><time>2026-03-28T10:57:22.999Z</time></trkpt><trkpt lat="44.664812964579525" lon="9.551418329652082"><ele>544.0</ele><time>2026-03-28T10:57:23.999Z</time></trkpt><trkpt lat="44.66479382480683" lon="9.551326108560161"><ele>543.9999999999999</ele><time>2026-03-28T10:57:24.999Z</time></trkpt><trkpt lat="44.66476307952633" lon="9.551243209016128"><ele>544.0</ele><time>2026-03-28T10:57:25.998Z</time></trkpt><trkpt lat="44.66472449393699" lon="9.551166625666363"><ele>544.2857142857142</ele><time>2026-03-28T10:57:26.998Z</time></trkpt><trkpt lat="44.66468948325645" lon="9.551087470839098"><ele>544.5714285714286</ele><time>2026-03-28T10:57:27.998Z</time></trkpt><trkpt lat="44.66465565543143" lon="9.551004647366618"><ele>544.8571428571429</ele><time>2026-03-28T10:57:28.998Z</time></trkpt><trkpt lat="44.66462499972683" lon="9.550927298582542"><ele>545.1428571428571</ele><time>2026-03-28T10:57:29.998Z</time></trkpt><trkpt lat="44.664586080304716" lon="9.550856130911685"><ele>545.4285714285714</ele><time>2026-03-28T10:57:30.998Z</time></trkpt><trkpt lat="44.66454885103854" lon="9.550769645165738"><ele>545.7142857142857</ele><time>2026-03-28T10:57:31.998Z</time></trkpt><trkpt lat="44.66451083679379" lon="9.550692894051624"><ele>546.0</ele><time>2026-03-28T10:57:32.998Z</time></trkpt><trkpt lat="44.6644772382864" lon="9.55060706097081"><ele>544.4285714285714</ele><time>2026-03-28T10:57:33.998Z</time></trkpt><trkpt lat="44.664438645740375" lon="9.550525915869686"><ele>542.8571428571429</ele><time>2026-03-28T10:57:34.998Z</time></trkpt><trkpt lat="44.66440070587291" lon="9.550444140370477"><ele>541.2857142857142</ele><time>2026-03-28T10:57:35.998Z</time></trkpt><trkpt lat="44.66436196946614" lon="9.550363309811353"><ele>539.7142857142858</ele><time>2026-03-28T10:57:36.998Z</time></trkpt><trkpt lat="44.66434082285254" lon="9.550265498779204"><ele>538.1428571428571</ele><time>2026-03-28T10:57:37.998Z</time></trkpt><trkpt lat="44.66430364920735" lon="9.550180460398323"><ele>536.5714285714286</ele><time>2026-03-28T10:57:38.998Z</time></trkpt><trkpt lat="44.66426658871741" lon="9.550092594449684"><ele>535.0</ele><time>2026-03-28T10:57:39.998Z</time></trkpt><trkpt lat="44.664232752611845" lon="9.550008010278109"><ele>535.0</ele><time>2026-03-28T10:57:40.998Z</time></trkpt><trkpt lat="44.6641988055419" lon="9.549917140560833"><ele>535.0</ele><time>2026-03-28T10:57:41.998Z</time></trkpt><trkpt lat="44.66416771828756" lon="9.549827018334316"><ele>535.0</ele><time>2026-03-28T10:57:42.998Z</time></trkpt><trkpt lat="44.66413852617197" lon="9.549735981544"><ele>535.0</ele><time>2026-03-28T10:57:43.998Z</time></trkpt><trkpt lat="44.66410998292429" lon="9.54964696757934"><ele>535.0</ele><time>2026-03-28T10:57:44.998Z</time></trkpt><trkpt lat="44.66408265522794" lon="9.549555901868294"><ele>535.0</ele><time>2026-03-28T10:57:45.998Z</time></trkpt><trkpt lat="44.66405411829443" lon="9.549461441764517"><ele>535.0</ele><time>2026-03-28T10:57:46.998Z</time></trkpt><trkpt lat="44.664025243745705" lon="9.549365863955863"><ele>537.3333333333334</ele><time>2026-03-28T10:57:47.998Z</time></trkpt><trkpt lat="44.66399596388563" lon="9.54926894488027"><ele>539.6666666666667</ele><time>2026-03-28T10:57:48.998Z</time></trkpt><trkpt lat="44.66396777061541" lon="9.549175621934673"><ele>542.0</ele><time>2026-03-28T10:57:49.998Z</time></trkpt><trkpt lat="44.66393983703388" lon="9.549083159004194"><ele>544.3333333333334</ele><time>2026-03-28T10:57:50.998Z</time></trkpt><trkpt lat="44.66390838747523" lon="9.548981791887785"><ele>546.6666666666666</ele><time>2026-03-28T10:57:51.998Z</time></trkpt><trkpt lat="44.663875211144536" lon="9.548888581759961"><ele>549.0</ele><time>2026-03-28T10:57:52.998Z</time></trkpt><trkpt lat="44.663832188575846" lon="9.548794626806675"><ele>549.0</ele><time>2026-03-28T10:57:53.998Z</time></trkpt><trkpt lat="44.66378899010234" lon="9.548711967762227"><ele>549.0</ele><time>2026-03-28T10:57:54.998Z</time></trkpt><trkpt lat="44.66374293625587" lon="9.548627226196494"><ele>549.0</ele><time>2026-03-28T10:57:55.998Z</time></trkpt><trkpt lat="44.66369329583667" lon="9.548544142260797"><ele>549.0</ele><time>2026-03-28T10:57:56.998Z</time></trkpt><trkpt lat="44.663644563827894" lon="9.548461361000772"><ele>549.0</ele><time>2026-03-28T10:57:57.998Z</time></trkpt><trkpt lat="44.66360103739659" lon="9.548376226305315"><ele>549.0</ele><time>2026-03-28T10:57:58.998Z</time></trkpt><trkpt lat="44.6635622380107" lon="9.548288461803667"><ele>547.3333333333334</ele><time>2026-03-28T10:57:59.998Z</time></trkpt><trkpt lat="44.66352495212493" lon="9.548197630914398"><ele>545.6666666666666</ele><time>2026-03-28T10:58:00.998Z</time></trkpt><trkpt lat="44.66348919655854" lon="9.548106808664041"><ele>544.0</ele><time>2026-03-28T10:58:01.998Z</time></trkpt><trkpt lat="44.663452519905576" lon="9.548012102791782"><ele>542.3333333333333</ele><time>2026-03-28T10:58:02.998Z</time></trkpt><trkpt lat="44.66341586927322" lon="9.547917464106568"><ele>540.6666666666666</ele><time>2026-03-28T10:58:03.998Z</time></trkpt><trkpt lat="44.663379767643065" lon="9.54782424326846"><ele>539.0</ele><time>2026-03-28T10:58:05Z</time></trkpt><trkpt lat="44.66334211841294" lon="9.547727026146504"><ele>539.0</ele><time>2026-03-28T10:58:06Z</time></trkpt><trkpt lat="44.6633062437462" lon="9.547634391864083"><ele>539.0</ele><time>2026-03-28T10:58:07Z</time></trkpt><trkpt lat="44.66327038125264" lon="9.54753735514096"><ele>539.0</ele><time>2026-03-28T10:58:08Z</time></trkpt><trkpt lat="44.6632325751822" lon="9.547447531630922"><ele>539.0</ele><time>2026-03-28T10:58:09Z</time></trkpt><trkpt lat="44.66322116766331" lon="9.547341070728153"><ele>539.0</ele><time>2026-03-28T10:58:10Z</time></trkpt><trkpt lat="44.66323489445081" lon="9.54723165713726"><ele>539.0</ele><time>2026-03-28T10:58:11Z</time></trkpt><trkpt lat="44.6632740023426" lon="9.547135154183337"><ele>539.0</ele><time>2026-03-28T10:58:12Z</time></trkpt><trkpt lat="44.66331097845852" lon="9.547044555359403"><ele>539.0</ele><time>2026-03-28T10:58:13Z</time></trkpt><trkpt lat="44.66334814136864" lon="9.546960591783243"><ele>539.0</ele><time>2026-03-28T10:58:14Z</time></trkpt><trkpt lat="44.66337116965814" lon="9.546864585896655"><ele>539.0</ele><time>2026-03-28T10:58:15Z</time></trkpt><trkpt lat="44.66338954407105" lon="9.546764134529877"><ele>539.0</ele><time>2026-03-28T10:58:16Z</time></trkpt><trkpt lat="44.663384796550446" lon="9.546661408216474"><ele>539.0</ele><time>2026-03-28T10:58:17Z</time></trkpt><trkpt lat="44.663371548398594" lon="9.546566075521577"><ele>539.0</ele><time>2026-03-28T10:58:18Z</time></trkpt><trkpt lat="44.66335013647006" lon="9.546472286347301"><ele>538.8333333333333</ele><time>2026-03-28T10:58:19Z</time></trkpt><trkpt lat="44.66334216964627" lon="9.546365560287237"><ele>538.6666666666666</ele><time>2026-03-28T10:58:20Z</time></trkpt><trkpt lat="44.66328829424342" lon="9.546268913100455"><ele>538.5</ele><time>2026-03-28T10:58:21Z</time></trkpt><trkpt lat="44.66321745962209" lon="9.546200309259081"><ele>538.3333333333334</ele><time>2026-03-28T10:58:22Z</time></trkpt><trkpt lat="44.66314521617729" lon="9.546148193379699"><ele>538.1666666666667</ele><time>2026-03-28T10:58:23Z</time></trkpt><trkpt lat="44.6630586547328" lon="9.546118552509183"><ele>538.0</ele><time>2026-03-28T10:58:24Z</time></trkpt><trkpt lat="44.6629690660312" lon="9.54611537500606"><ele>539.1666666666667</ele><time>2026-03-28T10:58:25Z</time></trkpt><trkpt lat="44.662886673658484" lon="9.546127050207204"><ele>540.3333333333334</ele><time>2026-03-28T10:58:26Z</time></trkpt><trkpt lat="44.66280469499629" lon="9.546145988605149"><ele>541.5</ele><time>2026-03-28T10:58:27Z</time></trkpt><trkpt lat="44.66272506356134" lon="9.546167230700872"><ele>542.6666666666666</ele><time>2026-03-28T10:58:28Z</time></trkpt><trkpt lat="44.662647071863816" lon="9.54618886237966"><ele>543.8333333333333</ele><time>2026-03-28T10:58:29Z</time></trkpt><trkpt lat="44.66257024454971" lon="9.546210515243887"><ele>545.0</ele><time>2026-03-28T10:58:30Z</time></trkpt><trkpt lat="44.66249454473443" lon="9.546231850332672"><ele>542.0</ele><time>2026-03-28T10:58:31Z</time></trkpt><trkpt lat="44.662416897677346" lon="9.546253734238679"><ele>539.0</ele><time>2026-03-28T10:58:32Z</time></trkpt><trkpt lat="44.66234516594137" lon="9.546273950970246"><ele>536.0</ele><time>2026-03-28T10:58:33Z</time></trkpt><trkpt lat="44.662273785779206" lon="9.546294068616493"><ele>533.0</ele><time>2026-03-28T10:58:34Z</time></trkpt><trkpt lat="44.66220173220044" lon="9.54631437606662"><ele>530.0</ele><time>2026-03-28T10:58:35Z</time></trkpt><trkpt lat="44.66213095744395" lon="9.546334323068718"><ele>527.0</ele><time>2026-03-28T10:58:36Z</time></trkpt><trkpt lat="44.66205906660718" lon="9.546354584662772"><ele>524.0</ele><time>2026-03-28T10:58:37Z</time></trkpt><trkpt lat="44.66198485588178" lon="9.546375500044716"><ele>524.8571428571429</ele><time>2026-03-28T10:58:38Z</time></trkpt><trkpt lat="44.661908316993674" lon="9.54639707163408"><ele>525.7142857142858</ele><time>2026-03-28T10:58:39Z</time></trkpt><trkpt lat="44.66183534539708" lon="9.546417637805868"><ele>526.5714285714286</ele><time>2026-03-28T10:58:40Z</time></trkpt><trkpt lat="44.66176597744056" lon="9.546437011349251"><ele>527.4285714285714</ele><time>2026-03-28T10:58:41Z</time></trkpt><trkpt lat="44.661697606728005" lon="9.546455727885188"><ele>528.2857142857142</ele><time>2026-03-28T10:58:41.999Z</time></trkpt><trkpt lat="44.661630687567076" lon="9.546473357989642"><ele>529.1428571428571</ele><time>2026-03-28T10:58:42.999Z</time></trkpt><trkpt lat="44.661559352729675" lon="9.546489688622072"><ele>530.0</ele><time>2026-03-28T10:58:43.999Z</time></trkpt><trkpt lat="44.661488227761936" lon="9.546502363244079"><ele>529.9999999999999</ele><time>2026-03-28T10:58:44.999Z</time></trkpt><trkpt lat="44.661413190961994" lon="9.546506679832122"><ele>530.0</ele><time>2026-03-28T10:58:45.999Z</time></trkpt><trkpt lat="44.661340727607566" lon="9.546502001354556"><ele>530.0</ele><time>2026-03-28T10:58:46.999Z</time></trkpt><trkpt lat="44.661281899288255" lon="9.546467279563803"><ele>530.0</ele><time>2026-03-28T10:58:47.999Z</time></trkpt><trkpt lat="44.66122191762777" lon="9.546413138408697"><ele>530.0</ele><time>2026-03-28T10:58:48.999Z</time></trkpt><trkpt lat="44.66116990087602" lon="9.546352141521742"><ele>529.9999999999999</ele><time>2026-03-28T10:58:49.999Z</time></trkpt><trkpt lat="44.66111703437187" lon="9.546297582691043"><ele>530.0</ele><time>2026-03-28T10:58:50.999Z</time></trkpt><trkpt lat="44.661070142591505" lon="9.54623749926823"><ele>532.2</ele><time>2026-03-28T10:58:51.999Z</time></trkpt><trkpt lat="44.661026024018156" lon="9.54617353214793"><ele>534.4</ele><time>2026-03-28T10:58:52.999Z</time></trkpt><trkpt lat="44.66096185577092" lon="9.546034578808689"><ele>536.6</ele><time>2026-03-28T10:58:54.999Z</time></trkpt><trkpt lat="44.66091520230212" lon="9.545882814934"><ele>538.8</ele><time>2026-03-28T10:58:56.999Z</time></trkpt><trkpt lat="44.66089711421011" lon="9.545721094144406"><ele>541.0</ele><time>2026-03-28T10:58:58.999Z</time></trkpt><trkpt lat="44.66088706559925" lon="9.54556351242905"><ele>541.0</ele><time>2026-03-28T10:59:00.999Z</time></trkpt><trkpt lat="44.660889262325504" lon="9.545404116789587"><ele>541.0</ele><time>2026-03-28T10:59:02.999Z</time></trkpt><trkpt lat="44.66090075222242" lon="9.545236445559"><ele>541.0</ele><time>2026-03-28T10:59:04.999Z</time></trkpt><trkpt lat="44.66090718376064" lon="9.545080386468815"><ele>541.0</ele><time>2026-03-28T10:59:06.999Z</time></trkpt><trkpt lat="44.66091628923071" lon="9.544920103440296"><ele>541.6</ele><time>2026-03-28T10:59:08.999Z</time></trkpt><trkpt lat="44.660917670796536" lon="9.544771127236649"><ele>542.2</ele><time>2026-03-28T10:59:10.999Z</time></trkpt><trkpt lat="44.660922620260806" lon="9.544631004036015"><ele>542.8</ele><time>2026-03-28T10:59:12.999Z</time></trkpt><trkpt lat="44.66092777297173" lon="9.544485961851633"><ele>543.4</ele><time>2026-03-28T10:59:14.999Z</time></trkpt><trkpt lat="44.66093704171146" lon="9.544356832666464"><ele>544.0</ele><time>2026-03-28T10:59:16.999Z</time></trkpt><trkpt lat="44.66094176591788" lon="9.54419474676395"><ele>544.6</ele><time>2026-03-28T10:59:18.999Z</time></trkpt><trkpt lat="44.6609423108235" lon="9.544038766907143"><ele>545.2</ele><time>2026-03-28T10:59:20.999Z</time></trkpt><trkpt lat="44.66094321229842" lon="9.543871854220725"><ele>545.8000000000001</ele><time>2026-03-28T10:59:22.999Z</time></trkpt><trkpt lat="44.66093600668296" lon="9.543777758764213"><ele>546.4</ele><time>2026-03-28T10:59:23.999Z</time></trkpt><trkpt lat="44.66092161049351" lon="9.543625292480282"><ele>547.0</ele><time>2026-03-28T10:59:25.999Z</time></trkpt><trkpt lat="44.660897233606164" lon="9.543477715744887"><ele>547.0</ele><time>2026-03-28T10:59:27.999Z</time></trkpt><trkpt lat="44.66087201713888" lon="9.543325658109234"><ele>547.0</ele><time>2026-03-28T10:59:29.999Z</time></trkpt><trkpt lat="44.66084485927719" lon="9.543181655394157"><ele>547.0</ele><time>2026-03-28T10:59:31.999Z</time></trkpt><trkpt lat="44.66081958326761" lon="9.543031435410967"><ele>547.0</ele><time>2026-03-28T10:59:33.999Z</time></trkpt><trkpt lat="44.66078848165078" lon="9.54289147142157"><ele>547.0</ele><time>2026-03-28T10:59:35.998Z</time></trkpt><trkpt lat="44.6607556515968" lon="9.542754218189307"><ele>546.5</ele><time>2026-03-28T10:59:37.998Z</time></trkpt><trkpt lat="44.66070805473557" lon="9.542631300361139"><ele>546.0</ele><time>2026-03-28T10:59:39.998Z</time></trkpt><trkpt lat="44.66060678488083" lon="9.542459320971636"><ele>545.5</ele><time>2026-03-28T10:59:42.998Z</time></trkpt><trkpt lat="44.6605252427169" lon="9.542375441700367"><ele>545.0</ele><time>2026-03-28T10:59:44.998Z</time></trkpt><trkpt lat="44.660435041547544" lon="9.542300588730384"><ele>545.0</ele><time>2026-03-28T10:59:46.998Z</time></trkpt><trkpt lat="44.660339077755374" lon="9.542221752383497"><ele>545.0</ele><time>2026-03-28T10:59:48.998Z</time></trkpt><trkpt lat="44.660239329377696" lon="9.542149451418418"><ele>545.0</ele><time>2026-03-28T10:59:50.998Z</time></trkpt><trkpt lat="44.66014316750089" lon="9.542068713009346"><ele>545.0</ele><time>2026-03-28T10:59:52.998Z</time></trkpt><trkpt lat="44.66004962760607" lon="9.541978401648658"><ele>545.0</ele><time>2026-03-28T10:59:54.998Z</time></trkpt><trkpt lat="44.65996850335897" lon="9.541883115999148"><ele>546.2</ele><time>2026-03-28T10:59:56.998Z</time></trkpt><trkpt lat="44.65989391076528" lon="9.541767591548215"><ele>547.4</ele><time>2026-03-28T10:59:58.998Z</time></trkpt><trkpt lat="44.65982779990446" lon="9.541638179820055"><ele>548.6</ele><time>2026-03-28T11:00:00.998Z</time></trkpt><trkpt lat="44.65974682221475" lon="9.541547128662819"><ele>549.8</ele><time>2026-03-28T11:00:02.998Z</time></trkpt><trkpt lat="44.65966528042151" lon="9.541472414976743"><ele>551.0</ele><time>2026-03-28T11:00:04.998Z</time></trkpt><trkpt lat="44.659573875639474" lon="9.541402845956815"><ele>551.0</ele><time>2026-03-28T11:00:06.998Z</time></trkpt><trkpt lat="44.65948408594087" lon="9.541339374412518"><ele>551.0</ele><time>2026-03-28T11:00:08.998Z</time></trkpt><trkpt lat="44.65938701877849" lon="9.541285051819804"><ele>551.0</ele><time>2026-03-28T11:00:11Z</time></trkpt><trkpt lat="44.65929012017139" lon="9.541235349223482"><ele>551.0</ele><time>2026-03-28T11:00:13Z</time></trkpt><trkpt lat="44.659194061977566" lon="9.54119051243083"><ele>551.0</ele><time>2026-03-28T11:00:15Z</time></trkpt><trkpt lat="44.65909969977784" lon="9.541144326398644"><ele>551.2</ele><time>2026-03-28T11:00:17Z</time></trkpt><trkpt lat="44.65900618564612" lon="9.541099723046875"><ele>551.4000000000001</ele><time>2026-03-28T11:00:19Z</time></trkpt><trkpt lat="44.65891131788317" lon="9.541052646318292"><ele>551.6</ele><time>2026-03-28T11:00:21Z</time></trkpt><trkpt lat="44.65881906632545" lon="9.540997787084041"><ele>551.8000000000001</ele><time>2026-03-28T11:00:23Z</time></trkpt><trkpt lat="44.65872640651651" lon="9.54093934525567"><ele>552.0</ele><time>2026-03-28T11:00:25Z</time></trkpt><trkpt lat="44.65863762179158" lon="9.540885029499982"><ele>554.2</ele><time>2026-03-28T11:00:27Z</time></trkpt><trkpt lat="44.658550272199896" lon="9.540807709760498"><ele>556.4000000000001</ele><time>2026-03-28T11:00:29Z</time></trkpt><trkpt lat="44.6584821168562" lon="9.54070774553151"><ele>558.5999999999999</ele><time>2026-03-28T11:00:31Z</time></trkpt><trkpt lat="44.65843133824808" lon="9.540586998331646"><ele>560.8</ele><time>2026-03-28T11:00:33Z</time></trkpt><trkpt lat="44.658400249567954" lon="9.540461208553278"><ele>563.0</ele><time>2026-03-28T11:00:35Z</time></trkpt><trkpt lat="44.65838678814565" lon="9.540327991190779"><ele>563.0</ele><time>2026-03-28T11:00:37Z</time></trkpt><trkpt lat="44.65839593407009" lon="9.540194418896032"><ele>563.0</ele><time>2026-03-28T11:00:39Z</time></trkpt><trkpt lat="44.65840711276983" lon="9.540061352619333"><ele>563.0</ele><time>2026-03-28T11:00:41Z</time></trkpt><trkpt lat="44.658416526117385" lon="9.539932146531845"><ele>563.0</ele><time>2026-03-28T11:00:43Z</time></trkpt><trkpt lat="44.658430467920475" lon="9.539805791032936"><ele>563.0</ele><time>2026-03-28T11:00:45Z</time></trkpt><trkpt lat="44.65843016716935" lon="9.53967821339923"><ele>563.0</ele><time>2026-03-28T11:00:46.999Z</time></trkpt><trkpt lat="44.658410707309784" lon="9.53955181798836"><ele>563.0</ele><time>2026-03-28T11:00:48.999Z</time></trkpt><trkpt lat="44.65838016635555" lon="9.539427745982639"><ele>563.0</ele><time>2026-03-28T11:00:50.999Z</time></trkpt><trkpt lat="44.658343493681286" lon="9.539306593278132"><ele>563.0</ele><time>2026-03-28T11:00:52.999Z</time></trkpt><trkpt lat="44.65829773265263" lon="9.539183880154525"><ele>563.0</ele><time>2026-03-28T11:00:54.999Z</time></trkpt><trkpt lat="44.658255571522986" lon="9.539060549927548"><ele>562.8</ele><time>2026-03-28T11:00:56.999Z</time></trkpt><trkpt lat="44.658210248637694" lon="9.538937962719572"><ele>562.5999999999999</ele><time>2026-03-28T11:00:58.999Z</time></trkpt><trkpt lat="44.65816419397191" lon="9.538816663725813"><ele>562.4000000000001</ele><time>2026-03-28T11:01:00.999Z</time></trkpt><trkpt lat="44.65812382668234" lon="9.53869362500908"><ele>562.2</ele><time>2026-03-28T11:01:02.999Z</time></trkpt><trkpt lat="44.65808159189508" lon="9.53857605830245"><ele>562.0</ele><time>2026-03-28T11:01:04.999Z</time></trkpt><trkpt lat="44.65800334821599" lon="9.5384806709301"><ele>559.6</ele><time>2026-03-28T11:01:06.999Z</time></trkpt><trkpt lat="44.65791613553103" lon="9.538398172465854"><ele>557.2</ele><time>2026-03-28T11:01:08.999Z</time></trkpt><trkpt lat="44.65782047463573" lon="9.538320643302852"><ele>554.8</ele><time>2026-03-28T11:01:10.999Z</time></trkpt><trkpt lat="44.6577109639361" lon="9.53827326716274"><ele>552.4</ele><time>2026-03-28T11:01:12.999Z</time></trkpt><trkpt lat="44.657610165283096" lon="9.538199440831331"><ele>550.0</ele><time>2026-03-28T11:01:14.999Z</time></trkpt><trkpt lat="44.657522228362254" lon="9.538100699815672"><ele>549.6</ele><time>2026-03-28T11:01:16.999Z</time></trkpt><trkpt lat="44.65742586936877" lon="9.538014418988983"><ele>549.2</ele><time>2026-03-28T11:01:18.999Z</time></trkpt><trkpt lat="44.65732096925837" lon="9.537945940411866"><ele>548.8</ele><time>2026-03-28T11:01:20.999Z</time></trkpt><trkpt lat="44.65720375573701" lon="9.537899625337252"><ele>548.4</ele><time>2026-03-28T11:01:22.999Z</time></trkpt><trkpt lat="44.657141576175775" lon="9.53788524981584"><ele>548.0</ele><time>2026-03-28T11:01:23.999Z</time></trkpt><trkpt lat="44.65707761187537" lon="9.537875508691176"><ele>548.0000000000001</ele><time>2026-03-28T11:01:24.999Z</time></trkpt><trkpt lat="44.65701414134003" lon="9.537866682962749"><ele>548.0</ele><time>2026-03-28T11:01:25.999Z</time></trkpt><trkpt lat="44.65695025278613" lon="9.537860215933073"><ele>548.0</ele><time>2026-03-28T11:01:26.999Z</time></trkpt><trkpt lat="44.65688345002227" lon="9.537853807940474"><ele>548.0</ele><time>2026-03-28T11:01:27.999Z</time></trkpt><trkpt lat="44.65681633354624" lon="9.537843182317895"><ele>548.0</ele><time>2026-03-28T11:01:28.999Z</time></trkpt><trkpt lat="44.65675266838093" lon="9.537812138350777"><ele>548.0000000000001</ele><time>2026-03-28T11:01:29.999Z</time></trkpt><trkpt lat="44.6566897884111" lon="9.537769687022067"><ele>548.0</ele><time>2026-03-28T11:01:30.999Z</time></trkpt><trkpt lat="44.65663072380598" lon="9.537720444210711"><ele>551.1428571428572</ele><time>2026-03-28T11:01:31.999Z</time></trkpt><trkpt lat="44.6565755852345" lon="9.53766515790479"><ele>554.2857142857143</ele><time>2026-03-28T11:01:32.999Z</time></trkpt><trkpt lat="44.656522970304714" lon="9.537606036242979"><ele>557.4285714285714</ele><time>2026-03-28T11:01:33.999Z</time></trkpt><trkpt lat="44.65647552234005" lon="9.53754117643233"><ele>560.5714285714287</ele><time>2026-03-28T11:01:34.999Z</time></trkpt><trkpt lat="44.65643134681362" lon="9.53747538525211"><ele>563.7142857142858</ele><time>2026-03-28T11:01:35.999Z</time></trkpt><trkpt lat="44.65638603437625" lon="9.537404763728034"><ele>566.8571428571429</ele><time>2026-03-28T11:01:36.999Z</time></trkpt><trkpt lat="44.656340329860896" lon="9.537340416391435"><ele>570.0</ele><time>2026-03-28T11:01:37.999Z</time></trkpt><trkpt lat="44.65629331884502" lon="9.537272368775902"><ele>570.0</ele><time>2026-03-28T11:01:38.999Z</time></trkpt><trkpt lat="44.65625142029316" lon="9.537198345502121"><ele>570.0</ele><time>2026-03-28T11:01:39.998Z</time></trkpt><trkpt lat="44.65620486496945" lon="9.537120387641913"><ele>570.0</ele><time>2026-03-28T11:01:40.998Z</time></trkpt><trkpt lat="44.65616051378698" lon="9.53705061431075"><ele>570.0</ele><time>2026-03-28T11:01:41.998Z</time></trkpt><trkpt lat="44.65611826378297" lon="9.536978486801273"><ele>570.0</ele><time>2026-03-28T11:01:42.998Z</time></trkpt><trkpt lat="44.65607669903293" lon="9.536905454642017"><ele>570.0</ele><time>2026-03-28T11:01:43.998Z</time></trkpt><trkpt lat="44.656038987177645" lon="9.536826814254244"><ele>570.0</ele><time>2026-03-28T11:01:44.998Z</time></trkpt><trkpt lat="44.65601090594846" lon="9.536738498864283"><ele>569.8571428571429</ele><time>2026-03-28T11:01:45.998Z</time></trkpt><trkpt lat="44.655980817067274" lon="9.536653154803556"><ele>569.7142857142858</ele><time>2026-03-28T11:01:46.998Z</time></trkpt><trkpt lat="44.655952254597395" lon="9.536567281858828"><ele>569.5714285714287</ele><time>2026-03-28T11:01:47.998Z</time></trkpt><trkpt lat="44.65592532682235" lon="9.536484800641357"><ele>569.4285714285714</ele><time>2026-03-28T11:01:48.998Z</time></trkpt><trkpt lat="44.655897478848054" lon="9.536403684569745"><ele>569.2857142857143</ele><time>2026-03-28T11:01:49.998Z</time></trkpt><trkpt lat="44.65586830607255" lon="9.536321435748523"><ele>569.1428571428572</ele><time>2026-03-28T11:01:50.998Z</time></trkpt><trkpt lat="44.65583631711457" lon="9.536243878227255"><ele>569.0</ele><time>2026-03-28T11:01:51.998Z</time></trkpt><trkpt lat="44.65580450792834" lon="9.536164305549798"><ele>569.0000000000001</ele><time>2026-03-28T11:01:52.998Z</time></trkpt><trkpt lat="44.655769243855126" lon="9.536088353840185"><ele>569.0</ele><time>2026-03-28T11:01:53.998Z</time></trkpt><trkpt lat="44.655727741111605" lon="9.536018125921968"><ele>569.0</ele><time>2026-03-28T11:01:54.998Z</time></trkpt><trkpt lat="44.65568397392162" lon="9.535952433466468"><ele>569.0</ele><time>2026-03-28T11:01:55.998Z</time></trkpt><trkpt lat="44.65563793680082" lon="9.535891415557593"><ele>569.0</ele><time>2026-03-28T11:01:56.998Z</time></trkpt><trkpt lat="44.65558782939121" lon="9.53583300998785"><ele>569.0000000000001</ele><time>2026-03-28T11:01:57.998Z</time></trkpt><trkpt lat="44.65553600907548" lon="9.535776949090888"><ele>569.0</ele><time>2026-03-28T11:01:58.998Z</time></trkpt><trkpt lat="44.65548670211303" lon="9.535718058467767"><ele>569.0</ele><time>2026-03-28T11:01:59.998Z</time></trkpt><trkpt lat="44.65543498985721" lon="9.535662500204518"><ele>569.0</ele><time>2026-03-28T11:02:00.998Z</time></trkpt><trkpt lat="44.655387629597925" lon="9.535601263017258"><ele>569.0</ele><time>2026-03-28T11:02:01.998Z</time></trkpt><trkpt lat="44.65529700253616" lon="9.535480619997182"><ele>569.0</ele><time>2026-03-28T11:02:03.998Z</time></trkpt><trkpt lat="44.65523003564975" lon="9.53533251088191"><ele>569.0</ele><time>2026-03-28T11:02:05.998Z</time></trkpt><trkpt lat="44.65521028405842" lon="9.535241195553661"><ele>569.0</ele><time>2026-03-28T11:02:06.998Z</time></trkpt><trkpt lat="44.65519458159708" lon="9.535155307074906"><ele>566.8571428571429</ele><time>2026-03-28T11:02:07.998Z</time></trkpt><trkpt lat="44.655186386663274" lon="9.535065245945937"><ele>564.7142857142858</ele><time>2026-03-28T11:02:08.998Z</time></trkpt><trkpt lat="44.6551900897241" lon="9.534974746530576"><ele>562.5714285714286</ele><time>2026-03-28T11:02:09.998Z</time></trkpt><trkpt lat="44.655202230609845" lon="9.534887673535476"><ele>560.4285714285714</ele><time>2026-03-28T11:02:10.998Z</time></trkpt><trkpt lat="44.655222354127595" lon="9.534799065214091"><ele>558.2857142857142</ele><time>2026-03-28T11:02:11.998Z</time></trkpt><trkpt lat="44.65524119653554" lon="9.53471202743225"><ele>556.1428571428571</ele><time>2026-03-28T11:02:12.998Z</time></trkpt><trkpt lat="44.655276363331744" lon="9.534544116955335"><ele>554.0</ele><time>2026-03-28T11:02:14.998Z</time></trkpt><trkpt lat="44.65531691535185" lon="9.534386461809687"><ele>554.0</ele><time>2026-03-28T11:02:17Z</time></trkpt><trkpt lat="44.65534743282559" lon="9.534246716871698"><ele>554.0</ele><time>2026-03-28T11:02:19Z</time></trkpt><trkpt lat="44.655372934657585" lon="9.534097765663493"><ele>554.0</ele><time>2026-03-28T11:02:21Z</time></trkpt><trkpt lat="44.65538467576117" lon="9.533937564707687"><ele>554.0</ele><time>2026-03-28T11:02:23Z</time></trkpt><trkpt lat="44.65536543097026" lon="9.533780729220043"><ele>554.0</ele><time>2026-03-28T11:02:25Z</time></trkpt><trkpt lat="44.655310328212515" lon="9.533633813763563"><ele>557.1666666666666</ele><time>2026-03-28T11:02:27Z</time></trkpt><trkpt lat="44.6552191961122" lon="9.533507680437662"><ele>560.3333333333333</ele><time>2026-03-28T11:02:29Z</time></trkpt><trkpt lat="44.65516991737834" lon="9.533451639013593"><ele>563.5</ele><time>2026-03-28T11:02:30Z</time></trkpt><trkpt lat="44.65511585676398" lon="9.533395939213142"><ele>566.6666666666666</ele><time>2026-03-28T11:02:31Z</time></trkpt><trkpt lat="44.655058955906156" lon="9.53334401959293"><ele>569.8333333333334</ele><time>2026-03-28T11:02:32Z</time></trkpt><trkpt lat="44.65500086739183" lon="9.533291148808376"><ele>573.0</ele><time>2026-03-28T11:02:33Z</time></trkpt><trkpt lat="44.654941978202835" lon="9.533241936677927"><ele>573.0</ele><time>2026-03-28T11:02:34Z</time></trkpt><trkpt lat="44.65488577747952" lon="9.533187526306852"><ele>573.0</ele><time>2026-03-28T11:02:35Z</time></trkpt><trkpt lat="44.65482420350312" lon="9.533136214920024"><ele>573.0</ele><time>2026-03-28T11:02:36Z</time></trkpt><trkpt lat="44.654769074049916" lon="9.533075980913415"><ele>573.0</ele><time>2026-03-28T11:02:37Z</time></trkpt><trkpt lat="44.65471058232982" lon="9.533016020639856"><ele>573.0</ele><time>2026-03-28T11:02:38Z</time></trkpt><trkpt lat="44.65465360634886" lon="9.532945283351554"><ele>573.0</ele><time>2026-03-28T11:02:39Z</time></trkpt><trkpt lat="44.654598125978126" lon="9.532879362774938"><ele>573.0</ele><time>2026-03-28T11:02:40Z</time></trkpt><trkpt lat="44.65454548116242" lon="9.532807208802799"><ele>573.2857142857143</ele><time>2026-03-28T11:02:41Z</time></trkpt><trkpt lat="44.65449367536683" lon="9.532732064255047"><ele>573.5714285714287</ele><time>2026-03-28T11:02:42Z</time></trkpt><trkpt lat="44.654443600303146" lon="9.5326564821978"><ele>573.8571428571429</ele><time>2026-03-28T11:02:43Z</time></trkpt><trkpt lat="44.65440001705391" lon="9.53257589616335"><ele>574.1428571428571</ele><time>2026-03-28T11:02:44Z</time></trkpt><trkpt lat="44.65435874796389" lon="9.532493979819407"><ele>574.4285714285713</ele><time>2026-03-28T11:02:45Z</time></trkpt><trkpt lat="44.65432256129721" lon="9.532403972605564"><ele>574.7142857142857</ele><time>2026-03-28T11:02:46Z</time></trkpt><trkpt lat="44.65428389572062" lon="9.53231486824275"><ele>575.0</ele><time>2026-03-28T11:02:47Z</time></trkpt><trkpt lat="44.65424695198991" lon="9.53222600832578"><ele>575.0</ele><time>2026-03-28T11:02:48Z</time></trkpt><trkpt lat="44.65421414601434" lon="9.53214075014304"><ele>575.0</ele><time>2026-03-28T11:02:49Z</time></trkpt><trkpt lat="44.65418997557508" lon="9.532055275681815"><ele>575.0</ele><time>2026-03-28T11:02:49.999Z</time></trkpt><trkpt lat="44.65416618216497" lon="9.531963369233747"><ele>575.0</ele><time>2026-03-28T11:02:50.999Z</time></trkpt><trkpt lat="44.654140420137075" lon="9.531877707056916"><ele>575.0</ele><time>2026-03-28T11:02:51.999Z</time></trkpt><trkpt lat="44.65411955437069" lon="9.53179032721306"><ele>575.0</ele><time>2026-03-28T11:02:52.999Z</time></trkpt><trkpt lat="44.6540998811984" lon="9.5316998708855"><ele>575.0</ele><time>2026-03-28T11:02:53.999Z</time></trkpt><trkpt lat="44.654082449022546" lon="9.531607541397682"><ele>575.0</ele><time>2026-03-28T11:02:54.999Z</time></trkpt><trkpt lat="44.654062427656115" lon="9.531520576112378"><ele>575.0</ele><time>2026-03-28T11:02:55.999Z</time></trkpt><trkpt lat="44.654024771377" lon="9.531349965103058"><ele>575.0</ele><time>2026-03-28T11:02:57.999Z</time></trkpt><trkpt lat="44.65401064808222" lon="9.531262621402202"><ele>575.0</ele><time>2026-03-28T11:02:58.999Z</time></trkpt><trkpt lat="44.65397585091157" lon="9.531098692149346"><ele>575.0</ele><time>2026-03-28T11:03:00.999Z</time></trkpt><trkpt lat="44.65393695290253" lon="9.530944171401273"><ele>575.1666666666666</ele><time>2026-03-28T11:03:02.999Z</time></trkpt><trkpt lat="44.65391148664648" lon="9.530785231129473"><ele>575.3333333333333</ele><time>2026-03-28T11:03:04.999Z</time></trkpt><trkpt lat="44.653884153869775" lon="9.530618884131187"><ele>575.5</ele><time>2026-03-28T11:03:06.999Z</time></trkpt><trkpt lat="44.653877680119116" lon="9.530523775855215"><ele>575.6666666666666</ele><time>2026-03-28T11:03:07.999Z</time></trkpt><trkpt lat="44.653881706702144" lon="9.53042781079014"><ele>575.8333333333334</ele><time>2026-03-28T11:03:08.999Z</time></trkpt><trkpt lat="44.653898153217916" lon="9.530341681694187"><ele>576.0</ele><time>2026-03-28T11:03:09.999Z</time></trkpt><trkpt lat="44.65393333518925" lon="9.530174113601243"><ele>576.1428571428572</ele><time>2026-03-28T11:03:11.999Z</time></trkpt><trkpt lat="44.65394034287808" lon="9.530083889926502"><ele>576.2857142857143</ele><time>2026-03-28T11:03:12.999Z</time></trkpt><trkpt lat="44.65394233537341" lon="9.52999319586353"><ele>576.4285714285714</ele><time>2026-03-28T11:03:13.999Z</time></trkpt><trkpt lat="44.65394056298629" lon="9.529902621812585"><ele>576.5714285714287</ele><time>2026-03-28T11:03:14.999Z</time></trkpt><trkpt lat="44.65392608598594" lon="9.529813803945645"><ele>576.7142857142858</ele><time>2026-03-28T11:03:15.999Z</time></trkpt><trkpt lat="44.65390567525168" lon="9.529725882766748"><ele>576.8571428571429</ele><time>2026-03-28T11:03:16.999Z</time></trkpt><trkpt lat="44.653878691340076" lon="9.529643735492106"><ele>577.0</ele><time>2026-03-28T11:03:17.999Z</time></trkpt><trkpt lat="44.65384402858017" lon="9.52956279653294"><ele>576.4285714285714</ele><time>2026-03-28T11:03:18.999Z</time></trkpt><trkpt lat="44.65380196593565" lon="9.529492786558254"><ele>575.8571428571429</ele><time>2026-03-28T11:03:19.999Z</time></trkpt><trkpt lat="44.65375031355116" lon="9.529429296146308"><ele>575.2857142857143</ele><time>2026-03-28T11:03:20.999Z</time></trkpt><trkpt lat="44.65369370592495" lon="9.529372272783053"><ele>574.7142857142858</ele><time>2026-03-28T11:03:21.999Z</time></trkpt><trkpt lat="44.65363709583279" lon="9.529311668437407"><ele>574.1428571428572</ele><time>2026-03-28T11:03:22.999Z</time></trkpt><trkpt lat="44.6535827590274" lon="9.52924974647947"><ele>573.5714285714286</ele><time>2026-03-28T11:03:23.999Z</time></trkpt><trkpt lat="44.6535257221479" lon="9.529192536440453"><ele>573.0</ele><time>2026-03-28T11:03:24.999Z</time></trkpt><trkpt lat="44.65346644961659" lon="9.52913895261478"><ele>573.7142857142858</ele><time>2026-03-28T11:03:25.999Z</time></trkpt><trkpt lat="44.653411884548674" lon="9.529081589804605"><ele>574.4285714285714</ele><time>2026-03-28T11:03:26.999Z</time></trkpt><trkpt lat="44.65334960348291" lon="9.529027406823332"><ele>575.1428571428571</ele><time>2026-03-28T11:03:27.999Z</time></trkpt><trkpt lat="44.653289594202" lon="9.528968203004807"><ele>575.8571428571429</ele><time>2026-03-28T11:03:28.999Z</time></trkpt><trkpt lat="44.65323860640829" lon="9.52890082007075"><ele>576.5714285714286</ele><time>2026-03-28T11:03:29.999Z</time></trkpt><trkpt lat="44.65317428049362" lon="9.528841645806148"><ele>577.2857142857143</ele><time>2026-03-28T11:03:30.999Z</time></trkpt><trkpt lat="44.65312308724441" lon="9.528772450323647"><ele>578.0</ele><time>2026-03-28T11:03:31.999Z</time></trkpt><trkpt lat="44.65308533679693" lon="9.528687003643668"><ele>578.0</ele><time>2026-03-28T11:03:32.999Z</time></trkpt><trkpt lat="44.65306009343533" lon="9.528589319839204"><ele>578.0</ele><time>2026-03-28T11:03:33.999Z</time></trkpt><trkpt lat="44.65303146457544" lon="9.528486748477528"><ele>578.0</ele><time>2026-03-28T11:03:34.999Z</time></trkpt><trkpt lat="44.653006959057514" lon="9.528394566954"><ele>578.0</ele><time>2026-03-28T11:03:35.999Z</time></trkpt><trkpt lat="44.65297353375583" lon="9.528307946902688"><ele>578.0</ele><time>2026-03-28T11:03:36.999Z</time></trkpt><trkpt lat="44.65294258703067" lon="9.528225799208233"><ele>578.0</ele><time>2026-03-28T11:03:37.999Z</time></trkpt><trkpt lat="44.65290565223166" lon="9.528140764488125"><ele>578.0</ele><time>2026-03-28T11:03:38.999Z</time></trkpt><trkpt lat="44.652870811332555" lon="9.528060645841224"><ele>578.0</ele><time>2026-03-28T11:03:39.999Z</time></trkpt><trkpt lat="44.65283707085269" lon="9.527985031783476"><ele>578.0</ele><time>2026-03-28T11:03:40.999Z</time></trkpt><trkpt lat="44.65279998876972" lon="9.527912567445693"><ele>578.0</ele><time>2026-03-28T11:03:41.999Z</time></trkpt><trkpt lat="44.65276695523854" lon="9.527832407418803"><ele>578.0</ele><time>2026-03-28T11:03:42.999Z</time></trkpt><trkpt lat="44.652702796894225" lon="9.527677321167902"><ele>578.0</ele><time>2026-03-28T11:03:44.998Z</time></trkpt><trkpt lat="44.65267516985084" lon="9.527512789172967"><ele>578.0</ele><time>2026-03-28T11:03:46.998Z</time></trkpt><trkpt lat="44.65268218556506" lon="9.527350903615947"><ele>577.1999999999999</ele><time>2026-03-28T11:03:48.998Z</time></trkpt><trkpt lat="44.65272638426943" lon="9.527199587248356"><ele>576.4</ele><time>2026-03-28T11:03:50.998Z</time></trkpt><trkpt lat="44.652802533459926" lon="9.527088130095148"><ele>575.5999999999999</ele><time>2026-03-28T11:03:52.998Z</time></trkpt><trkpt lat="44.65287981087108" lon="9.526983446173633"><ele>574.8</ele><time>2026-03-28T11:03:54.998Z</time></trkpt><trkpt lat="44.65294085929183" lon="9.526867583886768"><ele>574.0</ele><time>2026-03-28T11:03:56.998Z</time></trkpt><trkpt lat="44.652971278275054" lon="9.526729564028676"><ele>573.4</ele><time>2026-03-28T11:03:58.998Z</time></trkpt><trkpt lat="44.652975613562454" lon="9.52658170711996"><ele>572.8</ele><time>2026-03-28T11:04:00.998Z</time></trkpt><trkpt lat="44.65294438029321" lon="9.52643370127067"><ele>572.2</ele><time>2026-03-28T11:04:02.998Z</time></trkpt><trkpt lat="44.65288137568855" lon="9.52630463082783"><ele>571.6</ele><time>2026-03-28T11:04:04.998Z</time></trkpt><trkpt lat="44.65281624222592" lon="9.526180436994197"><ele>571.0</ele><time>2026-03-28T11:04:06.998Z</time></trkpt><trkpt lat="44.65274096724" lon="9.526062880283192"><ele>576.0</ele><time>2026-03-28T11:04:08.998Z</time></trkpt><trkpt lat="44.65267584149577" lon="9.525946073837169"><ele>581.0</ele><time>2026-03-28T11:04:10.998Z</time></trkpt><trkpt lat="44.652603803425116" lon="9.525839970562748"><ele>586.0</ele><time>2026-03-28T11:04:12.998Z</time></trkpt><trkpt lat="44.65253541474202" lon="9.525715803807977"><ele>591.0</ele><time>2026-03-28T11:04:14.998Z</time></trkpt><trkpt lat="44.65247184863571" lon="9.525603831645968"><ele>596.0</ele><time>2026-03-28T11:04:16.998Z</time></trkpt><trkpt lat="44.652436922943835" lon="9.525468115952561"><ele>593.0</ele><time>2026-03-28T11:04:18.998Z</time></trkpt><trkpt lat="44.65240967952692" lon="9.525324893180123"><ele>590.0</ele><time>2026-03-28T11:04:20.998Z</time></trkpt><trkpt lat="44.652367874019006" lon="9.525179761949474"><ele>587.0</ele><time>2026-03-28T11:04:23Z</time></trkpt><trkpt lat="44.65229457037393" lon="9.52505495605424"><ele>584.0</ele><time>2026-03-28T11:04:25Z</time></trkpt><trkpt lat="44.652201773094035" lon="9.524962840421047"><ele>581.0</ele><time>2026-03-28T11:04:27Z</time></trkpt><trkpt lat="44.65209046004768" lon="9.524901972908486"><ele>581.0</ele><time>2026-03-28T11:04:29Z</time></trkpt><trkpt lat="44.65197643360512" lon="9.524857828576842"><ele>581.0</ele><time>2026-03-28T11:04:31Z</time></trkpt><trkpt lat="44.65187033195937" lon="9.524806933859253"><ele>581.0</ele><time>2026-03-28T11:04:33Z</time></trkpt><trkpt lat="44.65178381745988" lon="9.524704863127447"><ele>581.0</ele><time>2026-03-28T11:04:35Z</time></trkpt><trkpt lat="44.651723959572976" lon="9.52458201751038"><ele>581.0</ele><time>2026-03-28T11:04:37Z</time></trkpt><trkpt lat="44.65168982296534" lon="9.524443657039336"><ele>584.0</ele><time>2026-03-28T11:04:39Z</time></trkpt><trkpt lat="44.65169350343447" lon="9.52429034617469"><ele>587.0</ele><time>2026-03-28T11:04:41Z</time></trkpt><trkpt lat="44.65168269769809" lon="9.524139322640465"><ele>590.0</ele><time>2026-03-28T11:04:43Z</time></trkpt><trkpt lat="44.65164972183211" lon="9.524005243104385"><ele>593.0</ele><time>2026-03-28T11:04:45Z</time></trkpt><trkpt lat="44.65159910849653" lon="9.52388762456625"><ele>596.0</ele><time>2026-03-28T11:04:47Z</time></trkpt><trkpt lat="44.651536103879806" lon="9.523778115060633"><ele>594.0</ele><time>2026-03-28T11:04:49Z</time></trkpt><trkpt lat="44.651473956682075" lon="9.523664022917313"><ele>592.0</ele><time>2026-03-28T11:04:51Z</time></trkpt><trkpt lat="44.651418240218945" lon="9.52353550820977"><ele>590.0</ele><time>2026-03-28T11:04:52.999Z</time></trkpt><trkpt lat="44.65138415632811" lon="9.52339353932838"><ele>588.0</ele><time>2026-03-28T11:04:54.999Z</time></trkpt><trkpt lat="44.651366318756004" lon="9.52325479125936"><ele>586.0</ele><time>2026-03-28T11:04:56.999Z</time></trkpt><trkpt lat="44.65135160882925" lon="9.523115542352171"><ele>586.0</ele><time>2026-03-28T11:04:58.999Z</time></trkpt><trkpt lat="44.65133287410961" lon="9.52297349737158"><ele>586.0</ele><time>2026-03-28T11:05:00.999Z</time></trkpt><trkpt lat="44.65131798695759" lon="9.522830758326856"><ele>586.0</ele><time>2026-03-28T11:05:02.999Z</time></trkpt><trkpt lat="44.651305773499786" lon="9.522695899028438"><ele>586.0</ele><time>2026-03-28T11:05:04.999Z</time></trkpt><trkpt lat="44.65129306385631" lon="9.52256528387776"><ele>586.0</ele><time>2026-03-28T11:05:06.999Z</time></trkpt><trkpt lat="44.65128298677718" lon="9.522439499484102"><ele>584.6</ele><time>2026-03-28T11:05:08.999Z</time></trkpt><trkpt lat="44.65127959953914" lon="9.522306948607811"><ele>583.2</ele><time>2026-03-28T11:05:10.999Z</time></trkpt><trkpt lat="44.65126839206026" lon="9.522171397446836"><ele>581.8</ele><time>2026-03-28T11:05:12.999Z</time></trkpt><trkpt lat="44.651263774007795" lon="9.52204515798455"><ele>580.4</ele><time>2026-03-28T11:05:14.999Z</time></trkpt><trkpt lat="44.651232708097915" lon="9.521921712480465"><ele>579.0</ele><time>2026-03-28T11:05:16.999Z</time></trkpt><trkpt lat="44.65121339838815" lon="9.521804105848187"><ele>578.6</ele><time>2026-03-28T11:05:18.999Z</time></trkpt><trkpt lat="44.651177215877915" lon="9.521684499885122"><ele>578.2</ele><time>2026-03-28T11:05:20.999Z</time></trkpt><trkpt lat="44.65114721030561" lon="9.521553046960927"><ele>577.8000000000001</ele><time>2026-03-28T11:05:22.999Z</time></trkpt><trkpt lat="44.65111241382106" lon="9.521434188762841"><ele>577.4</ele><time>2026-03-28T11:05:24.999Z</time></trkpt><trkpt lat="44.65107696258738" lon="9.521314063824423"><ele>577.0</ele><time>2026-03-28T11:05:26.999Z</time></trkpt><trkpt lat="44.65103351315277" lon="9.521198138882257"><ele>582.3333333333334</ele><time>2026-03-28T11:05:28.999Z</time></trkpt><trkpt lat="44.65098402390687" lon="9.521089589079166"><ele>587.6666666666667</ele><time>2026-03-28T11:05:30.999Z</time></trkpt><trkpt lat="44.650935829208684" lon="9.520988784531546"><ele>593.0</ele><time>2026-03-28T11:05:32.999Z</time></trkpt><trkpt lat="44.65087854250044" lon="9.520891362959455"><ele>598.3333333333334</ele><time>2026-03-28T11:05:34.999Z</time></trkpt><trkpt lat="44.65084296140983" lon="9.52077702931701"><ele>603.6666666666666</ele><time>2026-03-28T11:05:36.999Z</time></trkpt><trkpt lat="44.650814371140136" lon="9.520662797808878"><ele>609.0</ele><time>2026-03-28T11:05:38.999Z</time></trkpt><trkpt lat="44.65078521193911" lon="9.520546417187303"><ele>609.0</ele><time>2026-03-28T11:05:40.999Z</time></trkpt><trkpt lat="44.65076651750574" lon="9.520428794345623"><ele>609.0</ele><time>2026-03-28T11:05:42.999Z</time></trkpt><trkpt lat="44.65075431239447" lon="9.520310845050625"><ele>609.0</ele><time>2026-03-28T11:05:44.999Z</time></trkpt><trkpt lat="44.65073565216778" lon="9.52019159167042"><ele>609.0</ele><time>2026-03-28T11:05:46.999Z</time></trkpt><trkpt lat="44.650720770559374" lon="9.520077963638236"><ele>609.0</ele><time>2026-03-28T11:05:48.998Z</time></trkpt><trkpt lat="44.650702061997684" lon="9.519963576788504"><ele>609.0</ele><time>2026-03-28T11:05:50.998Z</time></trkpt><trkpt lat="44.65067533948067" lon="9.519846619449552"><ele>607.8333333333334</ele><time>2026-03-28T11:05:52.998Z</time></trkpt><trkpt lat="44.65065092067403" lon="9.519736830379497"><ele>606.6666666666666</ele><time>2026-03-28T11:05:54.998Z</time></trkpt><trkpt lat="44.650623236142096" lon="9.51961935770744"><ele>605.5</ele><time>2026-03-28T11:05:56.998Z</time></trkpt><trkpt lat="44.65058926467242" lon="9.51950383949852"><ele>604.3333333333333</ele><time>2026-03-28T11:05:58.998Z</time></trkpt><trkpt lat="44.65055896435258" lon="9.519388044502865"><ele>603.1666666666666</ele><time>2026-03-28T11:06:00.998Z</time></trkpt><trkpt lat="44.65053609177642" lon="9.519270600079313"><ele>602.0</ele><time>2026-03-28T11:06:02.998Z</time></trkpt><trkpt lat="44.65051427664209" lon="9.519150936897757"><ele>602.0</ele><time>2026-03-28T11:06:04.998Z</time></trkpt><trkpt lat="44.650494690926415" lon="9.519034839175188"><ele>602.0</ele><time>2026-03-28T11:06:06.998Z</time></trkpt><trkpt lat="44.650483317516645" lon="9.518917489124073"><ele>602.0</ele><time>2026-03-28T11:06:08.998Z</time></trkpt><trkpt lat="44.65047651037971" lon="9.518799564596938"><ele>602.0</ele><time>2026-03-28T11:06:10.998Z</time></trkpt><trkpt lat="44.65046705658349" lon="9.518675468130533"><ele>602.0</ele><time>2026-03-28T11:06:12.998Z</time></trkpt><trkpt lat="44.650462803592596" lon="9.518556113354842"><ele>602.0</ele><time>2026-03-28T11:06:14.998Z</time></trkpt><trkpt lat="44.65046123314016" lon="9.518435760829636"><ele>601.8000000000001</ele><time>2026-03-28T11:06:16.998Z</time></trkpt><trkpt lat="44.650453882648" lon="9.518317776521167"><ele>601.6</ele><time>2026-03-28T11:06:18.998Z</time></trkpt><trkpt lat="44.65044941470262" lon="9.518192350853358"><ele>601.4000000000001</ele><time>2026-03-28T11:06:20.998Z</time></trkpt><trkpt lat="44.650438898623904" lon="9.518065951477382"><ele>601.2</ele><time>2026-03-28T11:06:22.998Z</time></trkpt><trkpt lat="44.650416130152266" lon="9.517929911049311"><ele>601.0</ele><time>2026-03-28T11:06:24.998Z</time></trkpt><trkpt lat="44.6503904906416" lon="9.517804801066902"><ele>601.6666666666667</ele><time>2026-03-28T11:06:26.998Z</time></trkpt><trkpt lat="44.650357072240304" lon="9.517680580425917"><ele>602.3333333333334</ele><time>2026-03-28T11:06:29Z</time></trkpt><trkpt lat="44.65031923999115" lon="9.517575522316857"><ele>603.0</ele><time>2026-03-28T11:06:31Z</time></trkpt><trkpt lat="44.65028660485941" lon="9.517470085841214"><ele>603.6666666666666</ele><time>2026-03-28T11:06:33Z</time></trkpt><trkpt lat="44.6502501312828" lon="9.517360187715994"><ele>604.3333333333333</ele><time>2026-03-28T11:06:35Z</time></trkpt><trkpt lat="44.65022113090073" lon="9.517240337573016"><ele>605.0</ele><time>2026-03-28T11:06:37Z</time></trkpt><trkpt lat="44.65020532242884" lon="9.517132638586697"><ele>608.6666666666666</ele><time>2026-03-28T11:06:39Z</time></trkpt><trkpt lat="44.65019337043149" lon="9.517024121439666"><ele>612.3333333333333</ele><time>2026-03-28T11:06:41Z</time></trkpt><trkpt lat="44.65017403573406" lon="9.516901452766756"><ele>616.0</ele><time>2026-03-28T11:06:43Z</time></trkpt><trkpt lat="44.65015531401886" lon="9.516801594979407"><ele>619.6666666666666</ele><time>2026-03-28T11:06:45Z</time></trkpt><trkpt lat="44.65014018250105" lon="9.516705937287776"><ele>623.3333333333334</ele><time>2026-03-28T11:06:46Z</time></trkpt><trkpt lat="44.65008608945317" lon="9.516591740214473"><ele>627.0</ele><time>2026-03-28T11:06:48Z</time></trkpt><trkpt lat="44.650047073052626" lon="9.516479518911096"><ele>627.0</ele><time>2026-03-28T11:06:50Z</time></trkpt><trkpt lat="44.650009475371476" lon="9.516370047319498"><ele>627.0</ele><time>2026-03-28T11:06:52Z</time></trkpt><trkpt lat="44.64998741833165" lon="9.516256596291543"><ele>627.0</ele><time>2026-03-28T11:06:54Z</time></trkpt><trkpt lat="44.64998278494553" lon="9.51613902907807"><ele>627.0</ele><time>2026-03-28T11:06:56Z</time></trkpt><trkpt lat="44.64998301780382" lon="9.516017312115025"><ele>627.0</ele><time>2026-03-28T11:06:57.999Z</time></trkpt><trkpt lat="44.65000101976919" lon="9.515887777736001"><ele>627.0</ele><time>2026-03-28T11:06:59.999Z</time></trkpt><trkpt lat="44.65002071624693" lon="9.515768422329968"><ele>627.0</ele><time>2026-03-28T11:07:01.999Z</time></trkpt><trkpt lat="44.65003807650437" lon="9.515655355909544"><ele>627.0</ele><time>2026-03-28T11:07:03.999Z</time></trkpt><trkpt lat="44.6500963282837" lon="9.515568485836782"><ele>627.0</ele><time>2026-03-28T11:07:04.999Z</time></trkpt><trkpt lat="44.650110643086315" lon="9.515452504805326"><ele>627.0</ele><time>2026-03-28T11:07:06.999Z</time></trkpt><trkpt lat="44.650115520313946" lon="9.515351581947977"><ele>627.0</ele><time>2026-03-28T11:07:08.999Z</time></trkpt><trkpt lat="44.65012222957538" lon="9.515225484897288"><ele>627.0</ele><time>2026-03-28T11:07:10.999Z</time></trkpt><trkpt lat="44.650121714597844" lon="9.51509900668157"><ele>626.8000000000001</ele><time>2026-03-28T11:07:12.999Z</time></trkpt><trkpt lat="44.650108220703785" lon="9.514972687834476"><ele>626.6</ele><time>2026-03-28T11:07:14.999Z</time></trkpt><trkpt lat="44.650058861731054" lon="9.514861296302481"><ele>626.4000000000001</ele><time>2026-03-28T11:07:16.999Z</time></trkpt><trkpt lat="44.649997634088706" lon="9.514766064628315"><ele>626.2</ele><time>2026-03-28T11:07:18.999Z</time></trkpt><trkpt lat="44.649915158123356" lon="9.514670637020096"><ele>626.0</ele><time>2026-03-28T11:07:20.999Z</time></trkpt><trkpt lat="44.649837661397925" lon="9.514604372575116"><ele>625.6</ele><time>2026-03-28T11:07:22.999Z</time></trkpt><trkpt lat="44.64975746944929" lon="9.51453760247414"><ele>625.2</ele><time>2026-03-28T11:07:24.999Z</time></trkpt><trkpt lat="44.6496775207565" lon="9.5144640475461"><ele>624.8</ele><time>2026-03-28T11:07:26.999Z</time></trkpt><trkpt lat="44.64960688653348" lon="9.514392873415819"><ele>624.4</ele><time>2026-03-28T11:07:28.999Z</time></trkpt><trkpt lat="44.64954216653115" lon="9.514298593450384"><ele>624.0</ele><time>2026-03-28T11:07:30.999Z</time></trkpt><trkpt lat="44.64950202994471" lon="9.51417893069706"><ele>624.0</ele><time>2026-03-28T11:07:32.999Z</time></trkpt><trkpt lat="44.649484531331986" lon="9.514044507861726"><ele>624.0</ele><time>2026-03-28T11:07:34.999Z</time></trkpt><trkpt lat="44.64948941046199" lon="9.513906534218096"><ele>624.0</ele><time>2026-03-28T11:07:36.999Z</time></trkpt><trkpt lat="44.6495266326407" lon="9.513759316599032"><ele>624.0</ele><time>2026-03-28T11:07:38.999Z</time></trkpt><trkpt lat="44.64957053924032" lon="9.513616140596607"><ele>624.0</ele><time>2026-03-28T11:07:40.999Z</time></trkpt><trkpt lat="44.64960881596386" lon="9.513466541084716"><ele>624.0</ele><time>2026-03-28T11:07:42.999Z</time></trkpt><trkpt lat="44.649658213032154" lon="9.513307067059579"><ele>624.0</ele><time>2026-03-28T11:07:44.999Z</time></trkpt><trkpt lat="44.64970619993091" lon="9.513143811099326"><ele>624.0</ele><time>2026-03-28T11:07:46.999Z</time></trkpt><trkpt lat="44.64972001923266" lon="9.513054087534542"><ele>624.0</ele><time>2026-03-28T11:07:47.999Z</time></trkpt><trkpt lat="44.64972398392617" lon="9.51288161061928"><ele>624.0</ele><time>2026-03-28T11:07:49.999Z</time></trkpt><trkpt lat="44.649679919318714" lon="9.512721982590007"><ele>623.5</ele><time>2026-03-28T11:07:51.999Z</time></trkpt><trkpt lat="44.64961514296284" lon="9.512570216097059"><ele>623.0</ele><time>2026-03-28T11:07:53.998Z</time></trkpt><trkpt lat="44.64958195044205" lon="9.512485495498899"><ele>622.5</ele><time>2026-03-28T11:07:54.998Z</time></trkpt><trkpt lat="44.649547348888284" lon="9.512402541703924"><ele>622.0</ele><time>2026-03-28T11:07:55.998Z</time></trkpt><trkpt lat="44.6495172704997" lon="9.512310596700784"><ele>621.5</ele><time>2026-03-28T11:07:56.998Z</time></trkpt><trkpt lat="44.64949317578381" lon="9.512222194869418"><ele>621.0</ele><time>2026-03-28T11:07:57.998Z</time></trkpt><trkpt lat="44.64947306756071" lon="9.512127749604716"><ele>620.0</ele><time>2026-03-28T11:07:58.998Z</time></trkpt><trkpt lat="44.64946017853345" lon="9.51203220368917"><ele>619.0</ele><time>2026-03-28T11:07:59.998Z</time></trkpt><trkpt lat="44.64945553262571" lon="9.51194014140177"><ele>618.0</ele><time>2026-03-28T11:08:00.998Z</time></trkpt><trkpt lat="44.64945404194206" lon="9.511851513583343"><ele>617.0</ele><time>2026-03-28T11:08:01.998Z</time></trkpt><trkpt lat="44.6494603711173" lon="9.511674075134097"><ele>616.0</ele><time>2026-03-28T11:08:03.998Z</time></trkpt><trkpt lat="44.64946576698756" lon="9.511582639501558"><ele>615.0</ele><time>2026-03-28T11:08:04.998Z</time></trkpt><trkpt lat="44.649467900846645" lon="9.51149379435015"><ele>615.0</ele><time>2026-03-28T11:08:05.998Z</time></trkpt><trkpt lat="44.649464484755065" lon="9.511401917762885"><ele>615.0</ele><time>2026-03-28T11:08:06.998Z</time></trkpt><trkpt lat="44.64944300616681" lon="9.511308894293752"><ele>615.0</ele><time>2026-03-28T11:08:07.998Z</time></trkpt><trkpt lat="44.64941167362098" lon="9.511216310095431"><ele>615.0</ele><time>2026-03-28T11:08:08.998Z</time></trkpt><trkpt lat="44.64937381421596" lon="9.511133644221896"><ele>615.0</ele><time>2026-03-28T11:08:09.998Z</time></trkpt><trkpt lat="44.6493322200587" lon="9.511053545938955"><ele>615.0</ele><time>2026-03-28T11:08:10.998Z</time></trkpt><trkpt lat="44.649286022668825" lon="9.510979638321112"><ele>615.0</ele><time>2026-03-28T11:08:11.998Z</time></trkpt><trkpt lat="44.64923885465441" lon="9.510904075092876"><ele>617.0</ele><time>2026-03-28T11:08:12.998Z</time></trkpt><trkpt lat="44.64919246443905" lon="9.510829512553396"><ele>619.0</ele><time>2026-03-28T11:08:13.998Z</time></trkpt><trkpt lat="44.64915849628165" lon="9.510747438813283"><ele>621.0</ele><time>2026-03-28T11:08:14.998Z</time></trkpt><trkpt lat="44.649133593757576" lon="9.51066190775106"><ele>623.0</ele><time>2026-03-28T11:08:15.998Z</time></trkpt><trkpt lat="44.64911136283773" lon="9.510576707528182"><ele>625.0</ele><time>2026-03-28T11:08:16.998Z</time></trkpt><trkpt lat="44.649092773419575" lon="9.510488467175259"><ele>627.0</ele><time>2026-03-28T11:08:17.998Z</time></trkpt><trkpt lat="44.64905222388999" lon="9.510323417584319"><ele>627.0</ele><time>2026-03-28T11:08:19.998Z</time></trkpt><trkpt lat="44.64903241722445" lon="9.510238657313526"><ele>627.0</ele><time>2026-03-28T11:08:20.998Z</time></trkpt><trkpt lat="44.648985767675725" lon="9.510076812086158"><ele>627.0</ele><time>2026-03-28T11:08:22.998Z</time></trkpt><trkpt lat="44.64896184140906" lon="9.50999323192212"><ele>627.0</ele><time>2026-03-28T11:08:23.998Z</time></trkpt><trkpt lat="44.64893315838378" lon="9.509911068869105"><ele>627.0</ele><time>2026-03-28T11:08:24.998Z</time></trkpt><trkpt lat="44.648905386867476" lon="9.509826741191587"><ele>627.0</ele><time>2026-03-28T11:08:25.998Z</time></trkpt><trkpt lat="44.64887831907982" lon="9.509743042339474"><ele>627.0</ele><time>2026-03-28T11:08:26.998Z</time></trkpt><trkpt lat="44.648853287105034" lon="9.509658340812186"><ele>625.4</ele><time>2026-03-28T11:08:27.998Z</time></trkpt><trkpt lat="44.648826673012394" lon="9.509569534124044"><ele>623.8000000000001</ele><time>2026-03-28T11:08:28.998Z</time></trkpt><trkpt lat="44.64877406130301" lon="9.50940658714988"><ele>622.2</ele><time>2026-03-28T11:08:30.998Z</time></trkpt><trkpt lat="44.64872579739029" lon="9.509244878977169"><ele>620.6</ele><time>2026-03-28T11:08:32.998Z</time></trkpt><trkpt lat="44.64870157402631" lon="9.5091607561357"><ele>619.0</ele><time>2026-03-28T11:08:34Z</time></trkpt><trkpt lat="44.64864776239547" lon="9.509001869545955"><ele>621.8333333333334</ele><time>2026-03-28T11:08:36Z</time></trkpt><trkpt lat="44.64862061546442" lon="9.508920636205522"><ele>624.6666666666667</ele><time>2026-03-28T11:08:37Z</time></trkpt><trkpt lat="44.64856048049498" lon="9.50876526738572"><ele>627.5</ele><time>2026-03-28T11:08:39Z</time></trkpt><trkpt lat="44.648521013816435" lon="9.508688249575288"><ele>630.3333333333334</ele><time>2026-03-28T11:08:40Z</time></trkpt><trkpt lat="44.64848790082912" lon="9.508609513856051"><ele>633.1666666666666</ele><time>2026-03-28T11:08:41Z</time></trkpt><trkpt lat="44.648456148457875" lon="9.508531029996066"><ele>636.0</ele><time>2026-03-28T11:08:42Z</time></trkpt><trkpt lat="44.648416463359126" lon="9.508450535418259"><ele>636.0</ele><time>2026-03-28T11:08:43Z</time></trkpt><trkpt lat="44.648378848172186" lon="9.508367148673306"><ele>636.0</ele><time>2026-03-28T11:08:44Z</time></trkpt><trkpt lat="44.64834131651597" lon="9.50829140402974"><ele>636.0</ele><time>2026-03-28T11:08:45Z</time></trkpt><trkpt lat="44.6482894707735" lon="9.508225879400564"><ele>636.0</ele><time>2026-03-28T11:08:46Z</time></trkpt><trkpt lat="44.648230383707386" lon="9.50817161338197"><ele>636.0</ele><time>2026-03-28T11:08:47Z</time></trkpt><trkpt lat="44.64817025085673" lon="9.508127789231994"><ele>636.0</ele><time>2026-03-28T11:08:48Z</time></trkpt><trkpt lat="44.64809908441759" lon="9.508107662170598"><ele>636.0</ele><time>2026-03-28T11:08:49Z</time></trkpt><trkpt lat="44.64803021921878" lon="9.508102111258056"><ele>636.0</ele><time>2026-03-28T11:08:50Z</time></trkpt><trkpt lat="44.647958239688045" lon="9.508103571394843"><ele>636.0</ele><time>2026-03-28T11:08:51Z</time></trkpt><trkpt lat="44.647889620049156" lon="9.508103370067953"><ele>636.0</ele><time>2026-03-28T11:08:52Z</time></trkpt><trkpt lat="44.64781861252836" lon="9.508105626789767"><ele>636.0</ele><time>2026-03-28T11:08:53Z</time></trkpt><trkpt lat="44.64775026806382" lon="9.508094581064062"><ele>636.0</ele><time>2026-03-28T11:08:54Z</time></trkpt><trkpt lat="44.64768802437415" lon="9.508072261827975"><ele>636.0</ele><time>2026-03-28T11:08:55Z</time></trkpt><trkpt lat="44.647583662980345" lon="9.507967311896007"><ele>636.1666666666666</ele><time>2026-03-28T11:08:57Z</time></trkpt><trkpt lat="44.64753406700725" lon="9.507900664918012"><ele>636.3333333333334</ele><time>2026-03-28T11:08:58Z</time></trkpt><trkpt lat="44.64748842758662" lon="9.507832071933924"><ele>636.5</ele><time>2026-03-28T11:08:59Z</time></trkpt><trkpt lat="44.647456766017974" lon="9.507751736807679"><ele>636.6666666666667</ele><time>2026-03-28T11:09:00Z</time></trkpt><trkpt lat="44.647424343162974" lon="9.507587001486499"><ele>636.8333333333334</ele><time>2026-03-28T11:09:01.999Z</time></trkpt><trkpt lat="44.64740776679998" lon="9.507500645835043"><ele>637.0</ele><time>2026-03-28T11:09:02.999Z</time></trkpt><trkpt lat="44.64737430075463" lon="9.507342861743746"><ele>637.0</ele><time>2026-03-28T11:09:04.999Z</time></trkpt><trkpt lat="44.647336372716055" lon="9.507179081798785"><ele>637.0</ele><time>2026-03-28T11:09:06.999Z</time></trkpt><trkpt lat="44.64730161717707" lon="9.507102568808357"><ele>637.0</ele><time>2026-03-28T11:09:07.999Z</time></trkpt><trkpt lat="44.64726252668093" lon="9.507023928538414"><ele>637.0</ele><time>2026-03-28T11:09:08.999Z</time></trkpt><trkpt lat="44.64721899239695" lon="9.506954175597732"><ele>637.0</ele><time>2026-03-28T11:09:09.999Z</time></trkpt><trkpt lat="44.647170719985304" lon="9.506893756176284"><ele>637.0</ele><time>2026-03-28T11:09:10.999Z</time></trkpt><trkpt lat="44.64713066083666" lon="9.506823216898823"><ele>639.3333333333334</ele><time>2026-03-28T11:09:11.999Z</time></trkpt><trkpt lat="44.64708298043456" lon="9.506763784992938"><ele>641.6666666666667</ele><time>2026-03-28T11:09:12.999Z</time></trkpt><trkpt lat="44.64703390572247" lon="9.50670351251038"><ele>644.0</ele><time>2026-03-28T11:09:13.999Z</time></trkpt><trkpt lat="44.64698706129234" lon="9.506642824448363"><ele>646.3333333333334</ele><time>2026-03-28T11:09:14.999Z</time></trkpt><trkpt lat="44.64689722629485" lon="9.506519878692115"><ele>648.6666666666666</ele><time>2026-03-28T11:09:16.999Z</time></trkpt><trkpt lat="44.646811199865354" lon="9.506393127835404"><ele>651.0</ele><time>2026-03-28T11:09:18.999Z</time></trkpt><trkpt lat="44.646766086324284" lon="9.506328637321909"><ele>651.0</ele><time>2026-03-28T11:09:19.999Z</time></trkpt><trkpt lat="44.6467163698025" lon="9.506269689479602"><ele>651.0</ele><time>2026-03-28T11:09:20.999Z</time></trkpt><trkpt lat="44.64663452801048" lon="9.50613869427572"><ele>651.0</ele><time>2026-03-28T11:09:22.999Z</time></trkpt><trkpt lat="44.64659093978741" lon="9.506070378529346"><ele>651.0</ele><time>2026-03-28T11:09:23.999Z</time></trkpt><trkpt lat="44.64654934852" lon="9.50600010768113"><ele>651.0</ele><time>2026-03-28T11:09:24.999Z</time></trkpt><trkpt lat="44.64650490554478" lon="9.50592886628012"><ele>651.0</ele><time>2026-03-28T11:09:25.999Z</time></trkpt><trkpt lat="44.64645620184493" lon="9.505858858335783"><ele>648.3333333333334</ele><time>2026-03-28T11:09:26.999Z</time></trkpt><trkpt lat="44.64641411062018" lon="9.505792844574016"><ele>645.6666666666666</ele><time>2026-03-28T11:09:27.999Z</time></trkpt><trkpt lat="44.64636572703225" lon="9.505725794219424"><ele>643.0</ele><time>2026-03-28T11:09:28.999Z</time></trkpt><trkpt lat="44.646320009860204" lon="9.50566288970764"><ele>640.3333333333333</ele><time>2026-03-28T11:09:29.999Z</time></trkpt><trkpt lat="44.64627291751978" lon="9.505603104605806"><ele>637.6666666666666</ele><time>2026-03-28T11:09:30.999Z</time></trkpt><trkpt lat="44.646229254276136" lon="9.505531716982967"><ele>635.0</ele><time>2026-03-28T11:09:31.999Z</time></trkpt><trkpt lat="44.646147955582165" lon="9.505392963147301"><ele>639.1666666666666</ele><time>2026-03-28T11:09:33.999Z</time></trkpt><trkpt lat="44.64611816290568" lon="9.505311940819729"><ele>643.3333333333333</ele><time>2026-03-28T11:09:34.999Z</time></trkpt><trkpt lat="44.64608707288028" lon="9.505229058587316"><ele>647.5</ele><time>2026-03-28T11:09:35.999Z</time></trkpt><trkpt lat="44.646077512650464" lon="9.50513895943556"><ele>651.6666666666666</ele><time>2026-03-28T11:09:36.999Z</time></trkpt><trkpt lat="44.64609108100094" lon="9.504956304125042"><ele>655.8333333333334</ele><time>2026-03-28T11:09:38.999Z</time></trkpt><trkpt lat="44.64610724470252" lon="9.504870343254952"><ele>660.0</ele><time>2026-03-28T11:09:39.999Z</time></trkpt><trkpt lat="44.64611709204165" lon="9.504779863477232"><ele>654.0</ele><time>2026-03-28T11:09:40.999Z</time></trkpt><trkpt lat="44.646146502570346" lon="9.50462458892038"><ele>648.0</ele><time>2026-03-28T11:09:42.999Z</time></trkpt><trkpt lat="44.64616916283455" lon="9.504534170012793"><ele>642.0</ele><time>2026-03-28T11:09:43.999Z</time></trkpt><trkpt lat="44.64618893155227" lon="9.504365128230987"><ele>636.0</ele><time>2026-03-28T11:09:45.999Z</time></trkpt><trkpt lat="44.64618706527088" lon="9.504269311663567"><ele>630.0</ele><time>2026-03-28T11:09:46.999Z</time></trkpt><trkpt lat="44.64617399115531" lon="9.504177231809532"><ele>624.0</ele><time>2026-03-28T11:09:47.999Z</time></trkpt><trkpt lat="44.64614713034445" lon="9.504083843583496"><ele>627.0</ele><time>2026-03-28T11:09:48.999Z</time></trkpt><trkpt lat="44.64612420026355" lon="9.503997668435543"><ele>630.0</ele><time>2026-03-28T11:09:49.999Z</time></trkpt><trkpt lat="44.64607776301011" lon="9.50390913099908"><ele>633.0</ele><time>2026-03-28T11:09:50.999Z</time></trkpt><trkpt lat="44.64603022251299" lon="9.50381592005535"><ele>636.0</ele><time>2026-03-28T11:09:51.999Z</time></trkpt><trkpt lat="44.64598771558478" lon="9.503716584539433"><ele>639.0</ele><time>2026-03-28T11:09:52.999Z</time></trkpt><trkpt lat="44.645957328370805" lon="9.503601847368975"><ele>642.0</ele><time>2026-03-28T11:09:53.999Z</time></trkpt><trkpt lat="44.645932443143884" lon="9.503486070436221"><ele>642.0</ele><time>2026-03-28T11:09:54.999Z</time></trkpt><trkpt lat="44.645912200713624" lon="9.50336880450787"><ele>642.0</ele><time>2026-03-28T11:09:55.999Z</time></trkpt><trkpt lat="44.64589904009351" lon="9.503252726569068"><ele>642.0</ele><time>2026-03-28T11:09:56.999Z</time></trkpt><trkpt lat="44.64587918115785" lon="9.503133287010467"><ele>642.0</ele><time>2026-03-28T11:09:57.998Z</time></trkpt><trkpt lat="44.645853833400274" lon="9.50300674356474"><ele>642.0</ele><time>2026-03-28T11:09:58.998Z</time></trkpt><trkpt lat="44.64582456398069" lon="9.502882306732076"><ele>642.0</ele><time>2026-03-28T11:09:59.998Z</time></trkpt><trkpt lat="44.6457880673652" lon="9.50276699155464"><ele>640.3333333333334</ele><time>2026-03-28T11:10:00.998Z</time></trkpt><trkpt lat="44.645748701870566" lon="9.50265689075747"><ele>638.6666666666666</ele><time>2026-03-28T11:10:01.998Z</time></trkpt><trkpt lat="44.64570183776077" lon="9.502548358985331"><ele>637.0</ele><time>2026-03-28T11:10:02.998Z</time></trkpt><trkpt lat="44.64565439098666" lon="9.502448411363794"><ele>635.3333333333333</ele><time>2026-03-28T11:10:03.998Z</time></trkpt><trkpt lat="44.6456083916633" lon="9.502346962443582"><ele>633.6666666666666</ele><time>2026-03-28T11:10:04.998Z</time></trkpt><trkpt lat="44.645565033691526" lon="9.502243702529384"><ele>632.0</ele><time>2026-03-28T11:10:05.998Z</time></trkpt><trkpt lat="44.6455276123844" lon="9.502134191309915"><ele>630.5</ele><time>2026-03-28T11:10:06.998Z</time></trkpt><trkpt lat="44.64549441120883" lon="9.502024222846714"><ele>629.0</ele><time>2026-03-28T11:10:07.998Z</time></trkpt><trkpt lat="44.645470979948996" lon="9.50191055224453"><ele>627.5</ele><time>2026-03-28T11:10:08.998Z</time></trkpt><trkpt lat="44.64544215087526" lon="9.50179730776229"><ele>626.0</ele><time>2026-03-28T11:10:09.998Z</time></trkpt><trkpt lat="44.64540669458624" lon="9.501689253164042"><ele>624.5</ele><time>2026-03-28T11:10:10.998Z</time></trkpt><trkpt lat="44.645369413833954" lon="9.501574153358684"><ele>623.0</ele><time>2026-03-28T11:10:11.998Z</time></trkpt><trkpt lat="44.64533803725989" lon="9.501469747115491"><ele>623.0</ele><time>2026-03-28T11:10:12.998Z</time></trkpt><trkpt lat="44.64529725412977" lon="9.501368259520667"><ele>623.0</ele><time>2026-03-28T11:10:13.998Z</time></trkpt><trkpt lat="44.6452609090911" lon="9.501269544157259"><ele>623.0</ele><time>2026-03-28T11:10:14.998Z</time></trkpt><trkpt lat="44.645218869499445" lon="9.501179615356689"><ele>623.0</ele><time>2026-03-28T11:10:15.998Z</time></trkpt><trkpt lat="44.64517422189813" lon="9.501084312873724"><ele>623.0</ele><time>2026-03-28T11:10:16.998Z</time></trkpt><trkpt lat="44.64512820032383" lon="9.500994106859709"><ele>623.0</ele><time>2026-03-28T11:10:17.998Z</time></trkpt><trkpt lat="44.645078715074206" lon="9.500899298385391"><ele>624.5</ele><time>2026-03-28T11:10:18.998Z</time></trkpt><trkpt lat="44.64502256856856" lon="9.50081187393547"><ele>626.0</ele><time>2026-03-28T11:10:19.998Z</time></trkpt><trkpt lat="44.644960782200506" lon="9.500730357916769"><ele>627.5</ele><time>2026-03-28T11:10:20.998Z</time></trkpt><trkpt lat="44.6448908944062" lon="9.500656600151677"><ele>629.0</ele><time>2026-03-28T11:10:21.998Z</time></trkpt><trkpt lat="44.64481702025841" lon="9.500587670042083"><ele>630.5</ele><time>2026-03-28T11:10:22.998Z</time></trkpt><trkpt lat="44.64474519616794" lon="9.500514462860517"><ele>632.0</ele><time>2026-03-28T11:10:23.998Z</time></trkpt><trkpt lat="44.64467202036773" lon="9.500443725658386"><ele>631.4</ele><time>2026-03-28T11:10:24.998Z</time></trkpt><trkpt lat="44.64459241417532" lon="9.50038364047784"><ele>630.8000000000001</ele><time>2026-03-28T11:10:25.998Z</time></trkpt><trkpt lat="44.644509398154476" lon="9.500329925407947"><ele>630.2</ele><time>2026-03-28T11:10:26.998Z</time></trkpt><trkpt lat="44.644423768470936" lon="9.500285023147729"><ele>629.6</ele><time>2026-03-28T11:10:27.998Z</time></trkpt><trkpt lat="44.64433927892653" lon="9.500239829371065"><ele>629.0</ele><time>2026-03-28T11:10:28.998Z</time></trkpt><trkpt lat="44.64424930224655" lon="9.50018273102037"><ele>629.0</ele><time>2026-03-28T11:10:29.998Z</time></trkpt><trkpt lat="44.6441649868003" lon="9.50011588734309"><ele>629.0</ele><time>2026-03-28T11:10:30.998Z</time></trkpt><trkpt lat="44.64407998488368" lon="9.500051153927156"><ele>629.0</ele><time>2026-03-28T11:10:31.998Z</time></trkpt><trkpt lat="44.643998259943245" lon="9.499983240382344"><ele>629.0</ele><time>2026-03-28T11:10:32.998Z</time></trkpt><trkpt lat="44.64391882228142" lon="9.499909154817264"><ele>629.0</ele><time>2026-03-28T11:10:33.998Z</time></trkpt><trkpt lat="44.64384342839164" lon="9.499836440052658"><ele>629.0</ele><time>2026-03-28T11:10:34.998Z</time></trkpt><trkpt lat="44.643768933934815" lon="9.499760585484388"><ele>629.0</ele><time>2026-03-28T11:10:35.998Z</time></trkpt><trkpt lat="44.64369647618266" lon="9.499680367023384"><ele>629.0</ele><time>2026-03-28T11:10:36.998Z</time></trkpt><trkpt lat="44.64362606071995" lon="9.499595857189952"><ele>629.0</ele><time>2026-03-28T11:10:37.998Z</time></trkpt><trkpt lat="44.643566589513085" lon="9.499493159321448"><ele>629.0</ele><time>2026-03-28T11:10:39Z</time></trkpt><trkpt lat="44.64351921449712" lon="9.49937517394713"><ele>628.2</ele><time>2026-03-28T11:10:40Z</time></trkpt><trkpt lat="44.64351114657406" lon="9.499244990029363"><ele>627.4</ele><time>2026-03-28T11:10:41Z</time></trkpt><trkpt lat="44.64353044106528" lon="9.499110724766739"><ele>626.6</ele><time>2026-03-28T11:10:42Z</time></trkpt><trkpt lat="44.64357096629825" lon="9.498993688051069"><ele>625.8</ele><time>2026-03-28T11:10:43Z</time></trkpt><trkpt lat="44.64363649692142" lon="9.498895916583567"><ele>625.0</ele><time>2026-03-28T11:10:44Z</time></trkpt><trkpt lat="44.643689802250854" lon="9.498804859258742"><ele>625.0000000000001</ele><time>2026-03-28T11:10:45Z</time></trkpt><trkpt lat="44.64374040124733" lon="9.498713442672983"><ele>625.0</ele><time>2026-03-28T11:10:46Z</time></trkpt><trkpt lat="44.64378743062883" lon="9.498625604615022"><ele>625.0</ele><time>2026-03-28T11:10:47Z</time></trkpt><trkpt lat="44.643831217516656" lon="9.498546042867725"><ele>625.0</ele><time>2026-03-28T11:10:48Z</time></trkpt><trkpt lat="44.64387172091249" lon="9.498467338511066"><ele>625.0</ele><time>2026-03-28T11:10:49Z</time></trkpt><trkpt lat="44.64390990162142" lon="9.49838919649037"><ele>625.0000000000001</ele><time>2026-03-28T11:10:50Z</time></trkpt><trkpt lat="44.64394360069874" lon="9.498313735674747"><ele>625.0</ele><time>2026-03-28T11:10:51Z</time></trkpt><trkpt lat="44.644002257189214" lon="9.498179524277157"><ele>625.0</ele><time>2026-03-28T11:10:53Z</time></trkpt><trkpt lat="44.644050014695964" lon="9.49808587088145"><ele>625.0</ele><time>2026-03-28T11:10:55Z</time></trkpt><trkpt lat="44.64408435836211" lon="9.49798732356986"><ele>625.0</ele><time>2026-03-28T11:10:57Z</time></trkpt><trkpt lat="44.64416650314968" lon="9.49798650046219"><ele>625.0</ele><time>2026-03-28T11:10:59Z</time></trkpt><trkpt lat="44.64423877216947" lon="9.498013339551221"><ele>625.0</ele><time>2026-03-28T11:11:01Z</time></trkpt><trkpt lat="44.64432601761602" lon="9.497952294882111"><ele>625.0</ele><time>2026-03-28T11:14:13.998Z</time></trkpt><trkpt lat="44.64439592750469" lon="9.497986411541945"><ele>625.0</ele><time>2026-03-28T11:14:20.998Z</time></trkpt><trkpt lat="44.64445500475633" lon="9.498035407589061"><ele>625.0</ele><time>2026-03-28T11:14:22.998Z</time></trkpt><trkpt lat="44.644531723529006" lon="9.498105532500267"><ele>625.0</ele><time>2026-03-28T11:14:25.998Z</time></trkpt><trkpt lat="44.64462989155693" lon="9.498120908615258"><ele>625.0</ele><time>2026-03-28T11:14:27.998Z</time></trkpt><trkpt lat="44.64469662093556" lon="9.49813524620832"><ele>625.0</ele><time>2026-03-28T11:14:29.998Z</time></trkpt><trkpt lat="44.64476681891087" lon="9.49814915057723"><ele>625.0</ele><time>2026-03-28T11:14:31.998Z</time></trkpt><trkpt lat="44.64483352032473" lon="9.498133932843025"><ele>625.3333333333334</ele><time>2026-03-28T11:14:33.998Z</time></trkpt><trkpt lat="44.64490728809908" lon="9.498153337517257"><ele>625.6666666666667</ele><time>2026-03-28T11:14:35.998Z</time></trkpt><trkpt lat="44.64499508664574" lon="9.498124440930937"><ele>626.0</ele><time>2026-03-28T11:14:37.998Z</time></trkpt><trkpt lat="44.64507508987595" lon="9.498035179085822"><ele>626.3333333333334</ele><time>2026-03-28T11:14:39.998Z</time></trkpt><trkpt lat="44.6451459843214" lon="9.49797162479576"><ele>626.6666666666666</ele><time>2026-03-28T11:14:42.998Z</time></trkpt><trkpt lat="44.64521633613196" lon="9.497912612064273"><ele>627.0</ele><time>2026-03-28T11:14:45.998Z</time></trkpt><trkpt lat="44.64546264162323" lon="9.497900045278302"><ele>627.0</ele><time>2026-03-28T11:14:48.998Z</time></trkpt><trkpt lat="44.64554577723685" lon="9.497882198370645"><ele>627.0</ele><time>2026-03-28T11:14:51Z</time></trkpt><trkpt lat="44.64563393860328" lon="9.497810762474371"><ele>627.0</ele><time>2026-03-28T11:14:53Z</time></trkpt><trkpt lat="44.64573336649417" lon="9.497747729991385"><ele>627.0</ele><time>2026-03-28T11:14:55Z</time></trkpt><trkpt lat="44.645791286912534" lon="9.497670608665636"><ele>627.0</ele><time>2026-03-28T11:14:57Z</time></trkpt><trkpt lat="44.645875968038006" lon="9.49760561067372"><ele>627.0</ele><time>2026-03-28T11:14:59Z</time></trkpt><trkpt lat="44.64594237688784" lon="9.497560356657102"><ele>627.0</ele><time>2026-03-28T11:15:01Z</time></trkpt><trkpt lat="44.64601857219457" lon="9.497534243951522"><ele>627.0</ele><time>2026-03-28T11:15:03Z</time></trkpt><trkpt lat="44.64609647137957" lon="9.497492923158845"><ele>627.0</ele><time>2026-03-28T11:15:05Z</time></trkpt><trkpt lat="44.64615563715678" lon="9.497419744521325"><ele>627.0</ele><time>2026-03-28T11:15:07Z</time></trkpt><trkpt lat="44.646193614209686" lon="9.497338322535544"><ele>627.0</ele><time>2026-03-28T11:15:09Z</time></trkpt><trkpt lat="44.6462119532892" lon="9.497208775712286"><ele>629.1666666666666</ele><time>2026-03-28T11:15:12Z</time></trkpt><trkpt lat="44.646220657538294" lon="9.497120833409173"><ele>631.3333333333334</ele><time>2026-03-28T11:15:14Z</time></trkpt><trkpt lat="44.6462259791348" lon="9.497032507579469"><ele>633.5</ele><time>2026-03-28T11:15:16Z</time></trkpt><trkpt lat="44.646247115913454" lon="9.496910828857981"><ele>635.6666666666667</ele><time>2026-03-28T11:15:19Z</time></trkpt><trkpt lat="44.646274403408114" lon="9.496780290771586"><ele>637.8333333333334</ele><time>2026-03-28T11:15:21.999Z</time></trkpt><trkpt lat="44.64630352710111" lon="9.496661029135396"><ele>640.0</ele><time>2026-03-28T11:15:24.999Z</time></trkpt><trkpt lat="44.64634652717983" lon="9.496553325224701"><ele>639.6666666666667</ele><time>2026-03-28T11:15:27.999Z</time></trkpt><trkpt lat="44.64639117796872" lon="9.496446322621589"><ele>639.3333333333334</ele><time>2026-03-28T11:15:30.999Z</time></trkpt><trkpt lat="44.6464314449141" lon="9.496364352611934"><ele>639.0</ele><time>2026-03-28T11:15:33.999Z</time></trkpt><trkpt lat="44.64649184925352" lon="9.49627314539926"><ele>638.6666666666666</ele><time>2026-03-28T11:15:36.999Z</time></trkpt><trkpt lat="44.6465425969471" lon="9.496185963043542"><ele>638.3333333333333</ele><time>2026-03-28T11:15:39.999Z</time></trkpt><trkpt lat="44.64659357289679" lon="9.496118911191324"><ele>638.0</ele><time>2026-03-28T11:15:41.999Z</time></trkpt><trkpt lat="44.646653554454595" lon="9.496039117832149"><ele>638.0</ele><time>2026-03-28T11:15:44.999Z</time></trkpt><trkpt lat="44.646703799775814" lon="9.495951088204324"><ele>638.0</ele><time>2026-03-28T11:15:47.999Z</time></trkpt><trkpt lat="44.64676694764151" lon="9.49587692710027"><ele>638.0</ele><time>2026-03-28T11:15:49.999Z</time></trkpt><trkpt lat="44.646832457683345" lon="9.495789840354897"><ele>638.0</ele><time>2026-03-28T11:15:52.999Z</time></trkpt><trkpt lat="44.64689263685238" lon="9.49570267120739"><ele>638.0</ele><time>2026-03-28T11:15:55.999Z</time></trkpt><trkpt lat="44.646937858191144" lon="9.49560337677735"><ele>638.0</ele><time>2026-03-28T11:15:58.999Z</time></trkpt><trkpt lat="44.6469857783335" lon="9.49551263580576"><ele>641.8333333333333</ele><time>2026-03-28T11:16:01.999Z</time></trkpt><trkpt lat="44.6470223228283" lon="9.495414534140322"><ele>645.6666666666666</ele><time>2026-03-28T11:16:04.999Z</time></trkpt><trkpt lat="44.64706195824639" lon="9.4953098221759"><ele>649.5</ele><time>2026-03-28T11:16:07.999Z</time></trkpt><trkpt lat="44.647100464181975" lon="9.495198236594165"><ele>653.3333333333334</ele><time>2026-03-28T11:16:10.999Z</time></trkpt><trkpt lat="44.64713064139014" lon="9.49508245528388"><ele>657.1666666666667</ele><time>2026-03-28T11:16:13.999Z</time></trkpt><trkpt lat="44.64715825198967" lon="9.494968205132889"><ele>661.0</ele><time>2026-03-28T11:16:16.999Z</time></trkpt><trkpt lat="44.64719243266542" lon="9.494863948524273"><ele>661.0</ele><time>2026-03-28T11:16:19.998Z</time></trkpt><trkpt lat="44.64725410521284" lon="9.494793561850239"><ele>661.0</ele><time>2026-03-28T11:16:22.998Z</time></trkpt><trkpt lat="44.64730718890549" lon="9.494856146129834"><ele>661.0</ele><time>2026-03-28T11:16:25.998Z</time></trkpt><trkpt lat="44.64728353738686" lon="9.494976508730135"><ele>661.0</ele><time>2026-03-28T11:16:28.998Z</time></trkpt><trkpt lat="44.64725928369772" lon="9.495087137440889"><ele>661.0</ele><time>2026-03-28T11:16:31.998Z</time></trkpt><trkpt lat="44.64722676987107" lon="9.495183151876478"><ele>661.0</ele><time>2026-03-28T11:16:34.998Z</time></trkpt><trkpt lat="44.64720692381855" lon="9.495284757641876"><ele>661.0</ele><time>2026-03-28T11:16:37.998Z</time></trkpt><trkpt lat="44.64718371618141" lon="9.495390588784007"><ele>661.0</ele><time>2026-03-28T11:16:40.998Z</time></trkpt><trkpt lat="44.647169963796074" lon="9.495492757766609"><ele>661.0</ele><time>2026-03-28T11:16:43.998Z</time></trkpt><trkpt lat="44.64718663971206" lon="9.495606777827158"><ele>661.0</ele><time>2026-03-28T11:16:46.998Z</time></trkpt><trkpt lat="44.64720747602327" lon="9.495723832165455"><ele>661.0</ele><time>2026-03-28T11:16:49.998Z</time></trkpt><trkpt lat="44.647230549039804" lon="9.495840675860418"><ele>661.0</ele><time>2026-03-28T11:16:52.998Z</time></trkpt><trkpt lat="44.64726240711831" lon="9.495963882553193"><ele>661.3333333333334</ele><time>2026-03-28T11:16:55.998Z</time></trkpt><trkpt lat="44.64726676810982" lon="9.4960817158038"><ele>661.6666666666667</ele><time>2026-03-28T11:16:59Z</time></trkpt><trkpt lat="44.64726444618941" lon="9.496201332692321"><ele>662.0</ele><time>2026-03-28T11:17:02Z</time></trkpt><trkpt lat="44.6472266647125" lon="9.496312358650465"><ele>662.3333333333334</ele><time>2026-03-28T11:17:05Z</time></trkpt><trkpt lat="44.64718563228344" lon="9.496425063772563"><ele>662.6666666666666</ele><time>2026-03-28T11:17:08Z</time></trkpt><trkpt lat="44.64714902395457" lon="9.496497852113057"><ele>663.0</ele><time>2026-03-28T11:17:10Z</time></trkpt><trkpt lat="44.64711628603159" lon="9.496583148013537"><ele>663.0</ele><time>2026-03-28T11:17:12Z</time></trkpt><trkpt lat="44.64707229959589" lon="9.496659036630836"><ele>663.0</ele><time>2026-03-28T11:17:14Z</time></trkpt><trkpt lat="44.64702946308127" lon="9.49672991806243"><ele>663.0</ele><time>2026-03-28T11:17:16Z</time></trkpt><trkpt lat="44.646963219750745" lon="9.496820159678819"><ele>663.0</ele><time>2026-03-28T11:17:19Z</time></trkpt><trkpt lat="44.64690345168734" lon="9.496913034342803"><ele>663.0</ele><time>2026-03-28T11:17:22Z</time></trkpt><trkpt lat="44.64687223424873" lon="9.497021586749403"><ele>663.0</ele><time>2026-03-28T11:17:25.999Z</time></trkpt><trkpt lat="44.64688591312831" lon="9.497117960362198"><ele>662.0</ele><time>2026-03-28T11:17:27.999Z</time></trkpt><trkpt lat="44.64693342746773" lon="9.497208848367924"><ele>661.0</ele><time>2026-03-28T11:17:29.999Z</time></trkpt><trkpt lat="44.6469967897868" lon="9.49722519541002"><ele>660.0</ele><time>2026-03-28T11:17:31.999Z</time></trkpt><trkpt lat="44.64707032604687" lon="9.49720968528071"><ele>659.0</ele><time>2026-03-28T11:17:34.999Z</time></trkpt><trkpt lat="44.64714605007895" lon="9.497187362397014"><ele>658.0</ele><time>2026-03-28T11:17:36.999Z</time></trkpt><trkpt lat="44.647246537057434" lon="9.497135595084636"><ele>657.0</ele><time>2026-03-28T11:17:39.999Z</time></trkpt><trkpt lat="44.64731212318225" lon="9.497101577279961"><ele>657.0</ele><time>2026-03-28T11:17:41.999Z</time></trkpt><trkpt lat="44.647386834237366" lon="9.497066091164847"><ele>657.0</ele><time>2026-03-28T11:17:43.999Z</time></trkpt><trkpt lat="44.64745758961728" lon="9.497054989355629"><ele>657.0</ele><time>2026-03-28T11:17:45.999Z</time></trkpt><trkpt lat="44.64755007719818" lon="9.497091642517981"><ele>657.0</ele><time>2026-03-28T11:17:48.999Z</time></trkpt><trkpt lat="44.647623408438484" lon="9.49715740583527"><ele>657.0</ele><time>2026-03-28T11:17:50.999Z</time></trkpt><trkpt lat="44.647677866522365" lon="9.497238244339057"><ele>657.0</ele><time>2026-03-28T11:17:52.999Z</time></trkpt><trkpt lat="44.64771768028309" lon="9.497327484015592"><ele>657.0</ele><time>2026-03-28T11:17:54.999Z</time></trkpt><trkpt lat="44.647751587494575" lon="9.497421439902752"><ele>657.0</ele><time>2026-03-28T11:17:56.999Z</time></trkpt><trkpt lat="44.64777711857866" lon="9.497522946109303"><ele>657.0</ele><time>2026-03-28T11:17:58.999Z</time></trkpt><trkpt lat="44.64780494996636" lon="9.497631980386283"><ele>657.0</ele><time>2026-03-28T11:18:00.999Z</time></trkpt><trkpt lat="44.64783803267946" lon="9.497739118848564"><ele>657.0</ele><time>2026-03-28T11:18:02.999Z</time></trkpt><trkpt lat="44.647867480844184" lon="9.4978459798268"><ele>657.0</ele><time>2026-03-28T11:18:04.999Z</time></trkpt><trkpt lat="44.647900349279055" lon="9.497955209607671"><ele>658.3333333333334</ele><time>2026-03-28T11:18:06.999Z</time></trkpt><trkpt lat="44.64793306768409" lon="9.498068352222264"><ele>659.6666666666666</ele><time>2026-03-28T11:18:08.999Z</time></trkpt><trkpt lat="44.647966054790764" lon="9.498174671879447"><ele>661.0</ele><time>2026-03-28T11:18:10.999Z</time></trkpt><trkpt lat="44.64800634002958" lon="9.49827371153569"><ele>662.3333333333333</ele><time>2026-03-28T11:18:12.999Z</time></trkpt><trkpt lat="44.64805516481183" lon="9.498364120406018"><ele>663.6666666666666</ele><time>2026-03-28T11:18:14.999Z</time></trkpt><trkpt lat="44.648114617279006" lon="9.498449514864378"><ele>665.0</ele><time>2026-03-28T11:18:16.999Z</time></trkpt><trkpt lat="44.64818635149812" lon="9.498507270106431"><ele>665.0</ele><time>2026-03-28T11:18:18.999Z</time></trkpt><trkpt lat="44.64825603720131" lon="9.498546974138966"><ele>665.0</ele><time>2026-03-28T11:18:20.999Z</time></trkpt><trkpt lat="44.6483221983098" lon="9.498582789468747"><ele>665.0</ele><time>2026-03-28T11:18:22.998Z</time></trkpt><trkpt lat="44.648392434597575" lon="9.498613405351616"><ele>665.0</ele><time>2026-03-28T11:18:24.998Z</time></trkpt><trkpt lat="44.648460636310496" lon="9.498640655398823"><ele>665.0</ele><time>2026-03-28T11:18:26.998Z</time></trkpt><trkpt lat="44.64852873252988" lon="9.498664487468142"><ele>665.0</ele><time>2026-03-28T11:18:28.998Z</time></trkpt><trkpt lat="44.64859547056064" lon="9.498687313035328"><ele>665.0</ele><time>2026-03-28T11:18:30.998Z</time></trkpt><trkpt lat="44.648663555889115" lon="9.498704667900654"><ele>666.0</ele><time>2026-03-28T11:18:32.998Z</time></trkpt><trkpt lat="44.64872856296605" lon="9.498724383755864"><ele>667.0</ele><time>2026-03-28T11:18:34.998Z</time></trkpt><trkpt lat="44.64879316600577" lon="9.498752465351622"><ele>668.0</ele><time>2026-03-28T11:18:36.998Z</time></trkpt><trkpt lat="44.6488572688078" lon="9.49878824312168"><ele>669.0</ele><time>2026-03-28T11:18:38.998Z</time></trkpt><trkpt lat="44.64891558426657" lon="9.49884269250675"><ele>670.0</ele><time>2026-03-28T11:18:40.998Z</time></trkpt><trkpt lat="44.648972744369914" lon="9.49890889854713"><ele>671.0</ele><time>2026-03-28T11:18:43.998Z</time></trkpt><trkpt lat="44.64903795883133" lon="9.498996955306312"><ele>672.0</ele><time>2026-03-28T11:18:46.998Z</time></trkpt><trkpt lat="44.64909254235999" lon="9.499085921784147"><ele>672.0</ele><time>2026-03-28T11:18:49.998Z</time></trkpt><trkpt lat="44.64916223427617" lon="9.499263342776201"><ele>672.0</ele><time>2026-03-28T11:18:52.998Z</time></trkpt><trkpt lat="44.649198061713726" lon="9.49933637366074"><ele>672.0</ele><time>2026-03-28T11:18:54.998Z</time></trkpt><trkpt lat="44.6492512315184" lon="9.499441503471843"><ele>672.0</ele><time>2026-03-28T11:18:57.998Z</time></trkpt><trkpt lat="44.64930286566434" lon="9.499530997845072"><ele>672.0</ele><time>2026-03-28T11:19:00.998Z</time></trkpt><trkpt lat="44.649364661513914" lon="9.499620057467688"><ele>673.3333333333334</ele><time>2026-03-28T11:19:04Z</time></trkpt><trkpt lat="44.6494383484576" lon="9.499688814655935"><ele>674.6666666666666</ele><time>2026-03-28T11:19:07Z</time></trkpt><trkpt lat="44.64951583496159" lon="9.499656844108609"><ele>676.0</ele><time>2026-03-28T11:19:10Z</time></trkpt><trkpt lat="44.649570128252236" lon="9.499609315622521"><ele>677.3333333333333</ele><time>2026-03-28T11:19:12Z</time></trkpt><trkpt lat="44.64960139155627" lon="9.499519574467644"><ele>678.6666666666666</ele><time>2026-03-28T11:19:14Z</time></trkpt><trkpt lat="44.64959048970347" lon="9.499396195399664"><ele>680.0</ele><time>2026-03-28T11:19:17Z</time></trkpt><trkpt lat="44.64957099673197" lon="9.499305554839856"><ele>682.1666666666666</ele><time>2026-03-28T11:19:19Z</time></trkpt><trkpt lat="44.6495430891449" lon="9.49921156938016"><ele>684.3333333333333</ele><time>2026-03-28T11:19:21Z</time></trkpt><trkpt lat="44.649521484147236" lon="9.499119794141462"><ele>686.5</ele><time>2026-03-28T11:19:23Z</time></trkpt><trkpt lat="44.64949988488069" lon="9.499024856979073"><ele>688.6666666666666</ele><time>2026-03-28T11:19:25Z</time></trkpt><trkpt lat="44.64947714814963" lon="9.49890513643339"><ele>690.8333333333334</ele><time>2026-03-28T11:19:28Z</time></trkpt><trkpt lat="44.649459712946424" lon="9.498775089796347"><ele>693.0</ele><time>2026-03-28T11:19:31Z</time></trkpt><trkpt lat="44.64946074844905" lon="9.498645403795207"><ele>693.5</ele><time>2026-03-28T11:19:33.999Z</time></trkpt><trkpt lat="44.64946410430808" lon="9.498551408348494"><ele>694.0</ele><time>2026-03-28T11:19:35.999Z</time></trkpt><trkpt lat="44.64946517798419" lon="9.4984592909279"><ele>694.5</ele><time>2026-03-28T11:19:37.999Z</time></trkpt><trkpt lat="44.64946353512646" lon="9.498329450132989"><ele>695.0</ele><time>2026-03-28T11:19:40.999Z</time></trkpt><trkpt lat="44.64946700371136" lon="9.498190560269864"><ele>695.5</ele><time>2026-03-28T11:19:43.999Z</time></trkpt><trkpt lat="44.649466805387206" lon="9.49805799136155"><ele>696.0</ele><time>2026-03-28T11:19:46.999Z</time></trkpt><trkpt lat="44.64946785951334" lon="9.497936038032194"><ele>697.5</ele><time>2026-03-28T11:19:49.999Z</time></trkpt><trkpt lat="44.649463024435605" lon="9.497846738911083"><ele>699.0</ele><time>2026-03-28T11:19:51.999Z</time></trkpt><trkpt lat="44.64944186643736" lon="9.497763011584835"><ele>700.5</ele><time>2026-03-28T11:19:53.999Z</time></trkpt><trkpt lat="44.64941722487564" lon="9.497648988365054"><ele>702.0</ele><time>2026-03-28T11:19:56.999Z</time></trkpt><trkpt lat="44.649370998048276" lon="9.497545131912789"><ele>703.5</ele><time>2026-03-28T11:19:59.999Z</time></trkpt><trkpt lat="44.64932204725661" lon="9.497470245559072"><ele>705.0</ele><time>2026-03-28T11:20:02.999Z</time></trkpt><trkpt lat="44.64926384273651" lon="9.497389762435763"><ele>702.5</ele><time>2026-03-28T11:20:05.999Z</time></trkpt><trkpt lat="44.64920850010286" lon="9.497308309565948"><ele>700.0</ele><time>2026-03-28T11:20:08.999Z</time></trkpt><trkpt lat="44.64914462238575" lon="9.497213843934132"><ele>697.5</ele><time>2026-03-28T11:20:11.999Z</time></trkpt><trkpt lat="44.64908068228691" lon="9.497100568056585"><ele>695.0</ele><time>2026-03-28T11:20:14.999Z</time></trkpt><trkpt lat="44.6490406864676" lon="9.496987645468595"><ele>692.5</ele><time>2026-03-28T11:20:17.999Z</time></trkpt><trkpt lat="44.64901319358948" lon="9.496876193658663"><ele>690.0</ele><time>2026-03-28T11:20:20.999Z</time></trkpt><trkpt lat="44.649004176709624" lon="9.496774215822436"><ele>690.0</ele><time>2026-03-28T11:20:22.999Z</time></trkpt><trkpt lat="44.649015097514805" lon="9.49668085605495"><ele>690.0</ele><time>2026-03-28T11:20:24.999Z</time></trkpt><trkpt lat="44.64903819397498" lon="9.496556937201603"><ele>690.0</ele><time>2026-03-28T11:20:27.998Z</time></trkpt><trkpt lat="44.649059163272675" lon="9.496470786289205"><ele>690.0</ele><time>2026-03-28T11:20:30.998Z</time></trkpt><trkpt lat="44.649091754003834" lon="9.496377129365293"><ele>690.0</ele><time>2026-03-28T11:20:33.998Z</time></trkpt><trkpt lat="44.64913332685671" lon="9.496287536585523"><ele>690.0</ele><time>2026-03-28T11:20:36.998Z</time></trkpt><trkpt lat="44.64918811260436" lon="9.496204841593812"><ele>690.3333333333334</ele><time>2026-03-28T11:20:39.998Z</time></trkpt><trkpt lat="44.64924914841247" lon="9.496128952383707"><ele>690.6666666666666</ele><time>2026-03-28T11:20:42.998Z</time></trkpt><trkpt lat="44.64930944662895" lon="9.496037419945202"><ele>691.0</ele><time>2026-03-28T11:20:45.998Z</time></trkpt><trkpt lat="44.649341809082145" lon="9.495932037654915"><ele>691.3333333333333</ele><time>2026-03-28T11:20:48.998Z</time></trkpt><trkpt lat="44.649348422003875" lon="9.495813663623068"><ele>691.6666666666666</ele><time>2026-03-28T11:20:51.998Z</time></trkpt><trkpt lat="44.649339669695806" lon="9.495697371295995"><ele>692.0</ele><time>2026-03-28T11:20:54.998Z</time></trkpt><trkpt lat="44.649321138358076" lon="9.495577394798502"><ele>692.0</ele><time>2026-03-28T11:20:57.998Z</time></trkpt><trkpt lat="44.64929382594003" lon="9.4954641556574"><ele>692.0</ele><time>2026-03-28T11:21:00.998Z</time></trkpt><trkpt lat="44.64927257747093" lon="9.495364133364497"><ele>692.0</ele><time>2026-03-28T11:21:02.998Z</time></trkpt><trkpt lat="44.64925508941116" lon="9.495243179879624"><ele>692.0</ele><time>2026-03-28T11:21:05.998Z</time></trkpt><trkpt lat="44.64925840277592" lon="9.495115446070313"><ele>692.0</ele><time>2026-03-28T11:21:09Z</time></trkpt><trkpt lat="44.64927602037244" lon="9.495001607442997"><ele>692.0</ele><time>2026-03-28T11:21:12Z</time></trkpt><trkpt lat="44.64931496201133" lon="9.494927057870214"><ele>692.8333333333333</ele><time>2026-03-28T11:21:14Z</time></trkpt><trkpt lat="44.64937213990474" lon="9.494833903113062"><ele>693.6666666666666</ele><time>2026-03-28T11:21:17Z</time></trkpt><trkpt lat="44.649442542000614" lon="9.494758548207127"><ele>694.5</ele><time>2026-03-28T11:21:20Z</time></trkpt><trkpt lat="44.6495118137094" lon="9.49467009044025"><ele>695.3333333333334</ele><time>2026-03-28T11:21:23Z</time></trkpt><trkpt lat="44.649582871130995" lon="9.494594521986317"><ele>696.1666666666667</ele><time>2026-03-28T11:21:26Z</time></trkpt><trkpt lat="44.64965954885065" lon="9.494530310290525"><ele>697.0</ele><time>2026-03-28T11:21:29Z</time></trkpt><trkpt lat="44.649717822847094" lon="9.494484534213791"><ele>698.3333333333334</ele><time>2026-03-28T11:21:32Z</time></trkpt><trkpt lat="44.649778740261624" lon="9.494436366359292"><ele>699.6666666666667</ele><time>2026-03-28T11:21:34Z</time></trkpt><trkpt lat="44.64984912828908" lon="9.494380084720905"><ele>701.0</ele><time>2026-03-28T11:21:36.999Z</time></trkpt><trkpt lat="44.64992605102459" lon="9.49431493955946"><ele>702.3333333333334</ele><time>2026-03-28T11:21:39.999Z</time></trkpt><trkpt lat="44.64999479082446" lon="9.494257016011872"><ele>703.6666666666666</ele><time>2026-03-28T11:21:42.999Z</time></trkpt><trkpt lat="44.65006151530388" lon="9.49420612043628"><ele>705.0</ele><time>2026-03-28T11:21:44.999Z</time></trkpt><trkpt lat="44.65012487889181" lon="9.494151499360598"><ele>705.0</ele><time>2026-03-28T11:21:47.999Z</time></trkpt><trkpt lat="44.650195544008696" lon="9.494075670507058"><ele>705.0</ele><time>2026-03-28T11:21:50.999Z</time></trkpt><trkpt lat="44.65025103272116" lon="9.493988074071877"><ele>705.0</ele><time>2026-03-28T11:21:53.999Z</time></trkpt><trkpt lat="44.65029245737346" lon="9.493912140156572"><ele>705.0</ele><time>2026-03-28T11:21:55.999Z</time></trkpt><trkpt lat="44.65034618126502" lon="9.493810263350044"><ele>705.0</ele><time>2026-03-28T11:21:58.999Z</time></trkpt><trkpt lat="44.65038945047662" lon="9.49372494716664"><ele>705.0</ele><time>2026-03-28T11:22:00.999Z</time></trkpt><trkpt lat="44.65042868084185" lon="9.493650240186254"><ele>706.6666666666666</ele><time>2026-03-28T11:22:02.999Z</time></trkpt><trkpt lat="44.65048249573661" lon="9.4935465293826"><ele>708.3333333333334</ele><time>2026-03-28T11:22:05.999Z</time></trkpt><trkpt lat="44.65053231504229" lon="9.493439595672376"><ele>710.0</ele><time>2026-03-28T11:22:08.999Z</time></trkpt><trkpt lat="44.650573211063666" lon="9.493327417804785"><ele>711.6666666666667</ele><time>2026-03-28T11:22:11.999Z</time></trkpt><trkpt lat="44.65060534937869" lon="9.493204226982334"><ele>713.3333333333334</ele><time>2026-03-28T11:22:14.999Z</time></trkpt><trkpt lat="44.65062365410636" lon="9.493118923916972"><ele>715.0</ele><time>2026-03-28T11:22:16.999Z</time></trkpt><trkpt lat="44.650654344126785" lon="9.493000189661224"><ele>715.0</ele><time>2026-03-28T11:22:19.999Z</time></trkpt><trkpt lat="44.650677120815914" lon="9.492876320426477"><ele>715.0</ele><time>2026-03-28T11:22:22.999Z</time></trkpt><trkpt lat="44.65071121259596" lon="9.492761095898096"><ele>715.0</ele><time>2026-03-28T11:22:25.999Z</time></trkpt><trkpt lat="44.650764547122" lon="9.492664448626172"><ele>715.0</ele><time>2026-03-28T11:22:28.999Z</time></trkpt><trkpt lat="44.650841726347906" lon="9.492615860204335"><ele>715.0</ele><time>2026-03-28T11:22:31.998Z</time></trkpt><trkpt lat="44.65092546894325" lon="9.492597753772309"><ele>715.0</ele><time>2026-03-28T11:22:34.998Z</time></trkpt><trkpt lat="44.65100498617518" lon="9.492625586299567"><ele>715.0</ele><time>2026-03-28T11:22:37.998Z</time></trkpt><trkpt lat="44.651068125782935" lon="9.492698963454927"><ele>715.0</ele><time>2026-03-28T11:22:40.998Z</time></trkpt><trkpt lat="44.651113510903706" lon="9.49279725547773"><ele>715.0</ele><time>2026-03-28T11:22:43.998Z</time></trkpt><trkpt lat="44.651143975689685" lon="9.492905401674676"><ele>715.0</ele><time>2026-03-28T11:22:46.998Z</time></trkpt><trkpt lat="44.651156232199384" lon="9.493028555035325"><ele>715.0</ele><time>2026-03-28T11:22:49.998Z</time></trkpt><trkpt lat="44.651168318808566" lon="9.49315697910123"><ele>715.0</ele><time>2026-03-28T11:22:52.998Z</time></trkpt><trkpt lat="44.65116775794073" lon="9.493245505789801"><ele>715.6666666666667</ele><time>2026-03-28T11:22:54.998Z</time></trkpt><trkpt lat="44.651163375861145" lon="9.493364993165091"><ele>716.3333333333334</ele><time>2026-03-28T11:22:57.998Z</time></trkpt><trkpt lat="44.65115376869544" lon="9.49348259687543"><ele>717.0</ele><time>2026-03-28T11:23:00.998Z</time></trkpt><trkpt lat="44.651147338337665" lon="9.493596568339573"><ele>717.6666666666666</ele><time>2026-03-28T11:23:03.998Z</time></trkpt><trkpt lat="44.651135906252556" lon="9.4937062439554"><ele>718.3333333333333</ele><time>2026-03-28T11:23:06.998Z</time></trkpt><trkpt lat="44.65112377627971" lon="9.493821955176443"><ele>719.0</ele><time>2026-03-28T11:23:09.998Z</time></trkpt><trkpt lat="44.65112043061014" lon="9.49393630164224"><ele>721.5</ele><time>2026-03-28T11:23:13Z</time></trkpt><trkpt lat="44.651131386619944" lon="9.494049982178224"><ele>724.0</ele><time>2026-03-28T11:23:16Z</time></trkpt><trkpt lat="44.651158529545626" lon="9.494164725313862"><ele>726.5</ele><time>2026-03-28T11:23:19Z</time></trkpt><trkpt lat="44.651200116898096" lon="9.494270988839046"><ele>729.0</ele><time>2026-03-28T11:23:22Z</time></trkpt><trkpt lat="44.65125314889436" lon="9.494374483112454"><ele>731.5</ele><time>2026-03-28T11:23:25Z</time></trkpt><trkpt lat="44.65130740204132" lon="9.494473935094343"><ele>734.0</ele><time>2026-03-28T11:23:28Z</time></trkpt><trkpt lat="44.65134738133788" lon="9.494543695531265"><ele>733.6666666666666</ele><time>2026-03-28T11:23:30Z</time></trkpt><trkpt lat="44.651403168791575" lon="9.494639004945965"><ele>733.3333333333333</ele><time>2026-03-28T11:23:33Z</time></trkpt><trkpt lat="44.65145414299205" lon="9.494739881439966"><ele>733.0</ele><time>2026-03-28T11:23:36Z</time></trkpt><trkpt lat="44.651499952037206" lon="9.494844067991153"><ele>732.6666666666666</ele><time>2026-03-28T11:23:39.999Z</time></trkpt><trkpt lat="44.651537796527094" lon="9.494950984493721"><ele>732.3333333333334</ele><time>2026-03-28T11:23:42.999Z</time></trkpt><trkpt lat="44.651574703191116" lon="9.495082547325213"><ele>732.0</ele><time>2026-03-28T11:23:45.999Z</time></trkpt><trkpt lat="44.65160127035607" lon="9.495190791951481"><ele>732.0</ele><time>2026-03-28T11:23:48.999Z</time></trkpt><trkpt lat="44.651625158088514" lon="9.495295338911246"><ele>732.0</ele><time>2026-03-28T11:23:51.999Z</time></trkpt><trkpt lat="44.65163925440303" lon="9.495392438137038"><ele>732.0</ele><time>2026-03-28T11:23:54.999Z</time></trkpt><trkpt lat="44.6516613795396" lon="9.49553144214983"><ele>732.0</ele><time>2026-03-28T11:23:57.999Z</time></trkpt><trkpt lat="44.65166073215393" lon="9.495659258153497"><ele>732.0</ele><time>2026-03-28T11:24:00.999Z</time></trkpt><trkpt lat="44.651659347582346" lon="9.495776735456351"><ele>732.0</ele><time>2026-03-28T11:24:03.999Z</time></trkpt><trkpt lat="44.651665295663086" lon="9.495902705200427"><ele>732.1666666666666</ele><time>2026-03-28T11:24:06.999Z</time></trkpt><trkpt lat="44.651666348669494" lon="9.496025052414666"><ele>732.3333333333334</ele><time>2026-03-28T11:24:09.999Z</time></trkpt><trkpt lat="44.651666274468816" lon="9.4961430368862"><ele>732.5</ele><time>2026-03-28T11:24:12.999Z</time></trkpt><trkpt lat="44.65167227222998" lon="9.496262962947517"><ele>732.6666666666667</ele><time>2026-03-28T11:24:15.999Z</time></trkpt><trkpt lat="44.65167422609579" lon="9.49635759783894"><ele>732.8333333333334</ele><time>2026-03-28T11:24:18.999Z</time></trkpt><trkpt lat="44.65169742554273" lon="9.496464494701891"><ele>733.0</ele><time>2026-03-28T11:24:21.999Z</time></trkpt><trkpt lat="44.65174681112504" lon="9.496596039528802"><ele>733.8333333333334</ele><time>2026-03-28T11:24:24.999Z</time></trkpt><trkpt lat="44.65180957477482" lon="9.49667760363725"><ele>734.6666666666667</ele><time>2026-03-28T11:24:27.999Z</time></trkpt><trkpt lat="44.651880642634346" lon="9.496718657928147"><ele>735.5</ele><time>2026-03-28T11:24:30.999Z</time></trkpt><trkpt lat="44.65196413700214" lon="9.496735384781083"><ele>736.3333333333334</ele><time>2026-03-28T11:24:33.998Z</time></trkpt><trkpt lat="44.652035779632875" lon="9.496722990211087"><ele>737.1666666666666</ele><time>2026-03-28T11:24:35.998Z</time></trkpt><trkpt lat="44.65210835371487" lon="9.49667820075467"><ele>738.0</ele><time>2026-03-28T11:24:37.998Z</time></trkpt><trkpt lat="44.65216650298377" lon="9.496610086666438"><ele>740.1666666666666</ele><time>2026-03-28T11:24:40.998Z</time></trkpt><trkpt lat="44.65220861628901" lon="9.496515743035435"><ele>742.3333333333334</ele><time>2026-03-28T11:24:42.998Z</time></trkpt><trkpt lat="44.65223150968613" lon="9.49639790010436"><ele>744.5</ele><time>2026-03-28T11:24:45.998Z</time></trkpt><trkpt lat="44.65224397634786" lon="9.496271601537936"><ele>746.6666666666667</ele><time>2026-03-28T11:24:48.998Z</time></trkpt><trkpt lat="44.65224758766704" lon="9.49615236097708"><ele>748.8333333333334</ele><time>2026-03-28T11:24:51.998Z</time></trkpt><trkpt lat="44.65225026142291" lon="9.49605362742701"><ele>751.0</ele><time>2026-03-28T11:24:53.998Z</time></trkpt><trkpt lat="44.65224731689596" lon="9.495937105909558"><ele>751.0</ele><time>2026-03-28T11:24:56.998Z</time></trkpt><trkpt lat="44.65224661778149" lon="9.495834836463539"><ele>751.0</ele><time>2026-03-28T11:24:58.998Z</time></trkpt><trkpt lat="44.65225079135238" lon="9.495715902654226"><ele>751.0</ele><time>2026-03-28T11:25:01.998Z</time></trkpt><trkpt lat="44.652249414386866" lon="9.495604183648371"><ele>751.0</ele><time>2026-03-28T11:25:04.998Z</time></trkpt><trkpt lat="44.65224567478553" lon="9.495488791238618"><ele>751.0</ele><time>2026-03-28T11:25:06.998Z</time></trkpt><trkpt lat="44.65224393292149" lon="9.495384420865786"><ele>751.0</ele><time>2026-03-28T11:25:09.998Z</time></trkpt><trkpt lat="44.65224031893697" lon="9.495260029552767"><ele>751.6666666666667</ele><time>2026-03-28T11:25:12.998Z</time></trkpt><trkpt lat="44.652239239784535" lon="9.495165228767725"><ele>752.3333333333334</ele><time>2026-03-28T11:25:14.998Z</time></trkpt><trkpt lat="44.652238642101985" lon="9.495031214116638"><ele>753.0</ele><time>2026-03-28T11:25:17.998Z</time></trkpt><trkpt lat="44.65223642657468" lon="9.49490454617621"><ele>753.6666666666666</ele><time>2026-03-28T11:25:21Z</time></trkpt><trkpt lat="44.65223258311569" lon="9.494802136813046"><ele>754.3333333333333</ele><time>2026-03-28T11:25:23Z</time></trkpt><trkpt lat="44.652221153437125" lon="9.494674004365018"><ele>755.0</ele><time>2026-03-28T11:25:26Z</time></trkpt><trkpt lat="44.652206068774944" lon="9.494553856783584"><ele>755.1666666666666</ele><time>2026-03-28T11:25:29Z</time></trkpt><trkpt lat="44.65220687390872" lon="9.49445528510139"><ele>755.3333333333333</ele><time>2026-03-28T11:25:32Z</time></trkpt><trkpt lat="44.65214330816025" lon="9.494292085928334"><ele>755.5</ele><time>2026-03-28T11:25:33Z</time></trkpt><trkpt lat="44.652124225659165" lon="9.494201498314274"><ele>755.6666666666666</ele><time>2026-03-28T11:25:35Z</time></trkpt><trkpt lat="44.65210466136696" lon="9.494107131527477"><ele>755.8333333333334</ele><time>2026-03-28T11:25:37Z</time></trkpt><trkpt lat="44.652090360097226" lon="9.494009918892152"><ele>756.0</ele><time>2026-03-28T11:25:39Z</time></trkpt><trkpt lat="44.652082965895936" lon="9.493914117771068"><ele>756.0</ele><time>2026-03-28T11:25:41Z</time></trkpt><trkpt lat="44.65209014015726" lon="9.493817412932545"><ele>756.0</ele><time>2026-03-28T11:25:42.999Z</time></trkpt><trkpt lat="44.65210584342379" lon="9.493724206708197"><ele>756.0</ele><time>2026-03-28T11:25:44.999Z</time></trkpt><trkpt lat="44.65213211254264" lon="9.493639477117727"><ele>756.0</ele><time>2026-03-28T11:25:46.999Z</time></trkpt><trkpt lat="44.65217918612135" lon="9.493535713854964"><ele>756.0</ele><time>2026-03-28T11:25:49.999Z</time></trkpt><trkpt lat="44.6522423932614" lon="9.493464693181611"><ele>756.0</ele><time>2026-03-28T11:25:51.999Z</time></trkpt><trkpt lat="44.652290698597625" lon="9.49339442854578"><ele>756.0</ele><time>2026-03-28T11:25:53.999Z</time></trkpt><trkpt lat="44.6523527549341" lon="9.493305676219297"><ele>756.1666666666666</ele><time>2026-03-28T11:25:56.999Z</time></trkpt><trkpt lat="44.6524115175423" lon="9.493215177030503"><ele>756.3333333333334</ele><time>2026-03-28T11:25:59.999Z</time></trkpt><trkpt lat="44.65247598226766" lon="9.49312997815783"><ele>756.5</ele><time>2026-03-28T11:26:02.999Z</time></trkpt><trkpt lat="44.652538908953346" lon="9.49303912284052"><ele>756.6666666666667</ele><time>2026-03-28T11:26:05.999Z</time></trkpt><trkpt lat="44.65260515832948" lon="9.492945487850555"><ele>756.8333333333334</ele><time>2026-03-28T11:26:08.999Z</time></trkpt><trkpt lat="44.652648042725914" lon="9.492880565739599"><ele>757.0</ele><time>2026-03-28T11:26:10.999Z</time></trkpt><trkpt lat="44.652691988150444" lon="9.492810379664112"><ele>756.3333333333334</ele><time>2026-03-28T11:26:12.999Z</time></trkpt><trkpt lat="44.652755341450714" lon="9.492722872127455"><ele>755.6666666666667</ele><time>2026-03-28T11:26:15.999Z</time></trkpt><trkpt lat="44.65281666676123" lon="9.492632929485756"><ele>755.0</ele><time>2026-03-28T11:26:18.999Z</time></trkpt><trkpt lat="44.652876137938414" lon="9.492549278286708"><ele>754.3333333333334</ele><time>2026-03-28T11:26:21.999Z</time></trkpt><trkpt lat="44.65292265787584" lon="9.492455636177919"><ele>753.6666666666666</ele><time>2026-03-28T11:26:24.999Z</time></trkpt><trkpt lat="44.6529587405992" lon="9.49236778379937"><ele>753.0</ele><time>2026-03-28T11:26:26.999Z</time></trkpt><trkpt lat="44.65298075494831" lon="9.492284194651445"><ele>756.1666666666666</ele><time>2026-03-28T11:26:28.999Z</time></trkpt><trkpt lat="44.65298754321707" lon="9.492158266034476"><ele>759.3333333333333</ele><time>2026-03-28T11:26:31.999Z</time></trkpt><trkpt lat="44.65298164682485" lon="9.49203854808909"><ele>762.5</ele><time>2026-03-28T11:26:34.999Z</time></trkpt><trkpt lat="44.65295229690205" lon="9.491919168877995"><ele>765.6666666666666</ele><time>2026-03-28T11:26:37.998Z</time></trkpt><trkpt lat="44.65290921272013" lon="9.49180809563185"><ele>768.8333333333333</ele><time>2026-03-28T11:26:40.998Z</time></trkpt><trkpt lat="44.65287165210225" lon="9.491735468794493"><ele>772.0</ele><time>2026-03-28T11:26:42.998Z</time></trkpt><trkpt lat="44.65281541951381" lon="9.491629980047371"><ele>770.8333333333333</ele><time>2026-03-28T11:26:45.998Z</time></trkpt><trkpt lat="44.65274435796996" lon="9.491544952192775"><ele>769.6666666666666</ele><time>2026-03-28T11:26:48.998Z</time></trkpt><trkpt lat="44.65269071295263" lon="9.49149047871575"><ele>768.5</ele><time>2026-03-28T11:26:50.998Z</time></trkpt><trkpt lat="44.652613961987726" lon="9.491412750299064"><ele>767.3333333333333</ele><time>2026-03-28T11:26:53.998Z</time></trkpt><trkpt lat="44.65255897209464" lon="9.491364904755217"><ele>766.1666666666666</ele><time>2026-03-28T11:26:55.998Z</time></trkpt><trkpt lat="44.652481512447046" lon="9.491290572761196"><ele>765.0</ele><time>2026-03-28T11:26:58.998Z</time></trkpt><trkpt lat="44.65241548913923" lon="9.491195656182748"><ele>765.0</ele><time>2026-03-28T11:27:01.998Z</time></trkpt><trkpt lat="44.652375710628135" lon="9.491074411964751"><ele>765.0</ele><time>2026-03-28T11:27:05.998Z</time></trkpt><trkpt lat="44.6523626268814" lon="9.490950643117793"><ele>765.0</ele><time>2026-03-28T11:27:08.998Z</time></trkpt><trkpt lat="44.65238206704624" lon="9.490821248685227"><ele>765.0</ele><time>2026-03-28T11:27:11.998Z</time></trkpt><trkpt lat="44.6524221376862" lon="9.490707418573624"><ele>765.0</ele><time>2026-03-28T11:27:14.998Z</time></trkpt><trkpt lat="44.65247913385551" lon="9.490601583960846"><ele>765.0</ele><time>2026-03-28T11:27:16.998Z</time></trkpt><trkpt lat="44.65253013685083" lon="9.490540767277013"><ele>765.0</ele><time>2026-03-28T11:27:18.998Z</time></trkpt><trkpt lat="44.65260144379131" lon="9.490457578661802"><ele>765.0</ele><time>2026-03-28T11:27:21.998Z</time></trkpt><trkpt lat="44.652671396055936" lon="9.49038489439735"><ele>765.0</ele><time>2026-03-28T11:27:25Z</time></trkpt><trkpt lat="44.65274857991554" lon="9.490314293892544"><ele>765.0</ele><time>2026-03-28T11:27:28Z</time></trkpt><trkpt lat="44.65281929826639" lon="9.49023146103945"><ele>765.0</ele><time>2026-03-28T11:27:31Z</time></trkpt><trkpt lat="44.652891259164484" lon="9.490151829542379"><ele>766.0</ele><time>2026-03-28T11:27:34Z</time></trkpt><trkpt lat="44.652955519496956" lon="9.49006510428194"><ele>767.0</ele><time>2026-03-28T11:27:37Z</time></trkpt><trkpt lat="44.65301601579636" lon="9.489964257164342"><ele>768.0</ele><time>2026-03-28T11:27:40Z</time></trkpt><trkpt lat="44.653056489862884" lon="9.489857796150384"><ele>769.0</ele><time>2026-03-28T11:27:43Z</time></trkpt><trkpt lat="44.653080436410185" lon="9.489739072874576"><ele>770.0</ele><time>2026-03-28T11:27:45.999Z</time></trkpt><trkpt lat="44.65310908673094" lon="9.489620519506836"><ele>771.0</ele><time>2026-03-28T11:27:48.999Z</time></trkpt><trkpt lat="44.653127135895566" lon="9.489503194772494"><ele>771.0</ele><time>2026-03-28T11:27:51.999Z</time></trkpt><trkpt lat="44.65315838759836" lon="9.48938663445679"><ele>771.0</ele><time>2026-03-28T11:27:54.999Z</time></trkpt><trkpt lat="44.65321264756294" lon="9.48928353583894"><ele>771.0</ele><time>2026-03-28T11:27:57.999Z</time></trkpt><trkpt lat="44.65328679192728" lon="9.489208844024377"><ele>771.0</ele><time>2026-03-28T11:28:00.999Z</time></trkpt><trkpt lat="44.65336473730803" lon="9.48916294690278"><ele>771.0</ele><time>2026-03-28T11:28:03.999Z</time></trkpt><trkpt lat="44.65342443789572" lon="9.489130862649427"><ele>771.0</ele><time>2026-03-28T11:28:05.999Z</time></trkpt><trkpt lat="44.65348673312715" lon="9.489086656208238"><ele>771.0</ele><time>2026-03-28T11:28:07.999Z</time></trkpt><trkpt lat="44.653542085118396" lon="9.489031601134306"><ele>771.0</ele><time>2026-03-28T11:28:09.999Z</time></trkpt><trkpt lat="44.65360772707313" lon="9.48895358286861"><ele>771.0</ele><time>2026-03-28T11:28:12.999Z</time></trkpt><trkpt lat="44.6536704359148" lon="9.488859961122927"><ele>771.0</ele><time>2026-03-28T11:28:15.999Z</time></trkpt><trkpt lat="44.653727114390364" lon="9.488762931173603"><ele>771.0</ele><time>2026-03-28T11:28:18.999Z</time></trkpt><trkpt lat="44.653788706838625" lon="9.488669170262307"><ele>771.0</ele><time>2026-03-28T11:28:21.999Z</time></trkpt><trkpt lat="44.65385428241351" lon="9.488588633846753"><ele>772.3333333333334</ele><time>2026-03-28T11:28:24.999Z</time></trkpt><trkpt lat="44.653934474272816" lon="9.48853717660423"><ele>773.6666666666667</ele><time>2026-03-28T11:28:27.999Z</time></trkpt><trkpt lat="44.65402053358133" lon="9.488513666066394"><ele>775.0</ele><time>2026-03-28T11:28:30.999Z</time></trkpt><trkpt lat="44.65410286331686" lon="9.488486975418779"><ele>776.3333333333334</ele><time>2026-03-28T11:28:33.999Z</time></trkpt><trkpt lat="44.65418536837368" lon="9.488463590126292"><ele>777.6666666666667</ele><time>2026-03-28T11:28:36.999Z</time></trkpt><trkpt lat="44.654262328564435" lon="9.488418710003888"><ele>779.0</ele><time>2026-03-28T11:28:39.998Z</time></trkpt><trkpt lat="44.65433760436901" lon="9.488357093776807"><ele>779.0000000000001</ele><time>2026-03-28T11:28:42.998Z</time></trkpt><trkpt lat="44.65440677637723" lon="9.488276217001445"><ele>779.0</ele><time>2026-03-28T11:28:45.998Z</time></trkpt><trkpt lat="44.65444942602376" lon="9.488209224904436"><ele>779.0</ele><time>2026-03-28T11:28:48.998Z</time></trkpt><trkpt lat="44.65451223986473" lon="9.488128661473079"><ele>779.0</ele><time>2026-03-28T11:28:51.998Z</time></trkpt><trkpt lat="44.654580614185335" lon="9.488048436551683"><ele>779.0000000000001</ele><time>2026-03-28T11:28:54.998Z</time></trkpt><trkpt lat="44.65465832676538" lon="9.487995229230723"><ele>779.0</ele><time>2026-03-28T11:28:57.998Z</time></trkpt><trkpt lat="44.654743195920496" lon="9.48797540615916"><ele>781.1666666666667</ele><time>2026-03-28T11:29:00.998Z</time></trkpt><trkpt lat="44.65484291719748" lon="9.488009482211437"><ele>783.3333333333334</ele><time>2026-03-28T11:29:03.998Z</time></trkpt><trkpt lat="44.654909861450285" lon="9.488075748201512"><ele>785.5</ele><time>2026-03-28T11:29:06.998Z</time></trkpt><trkpt lat="44.654972777104035" lon="9.48815146968658"><ele>787.6666666666667</ele><time>2026-03-28T11:29:09.998Z</time></trkpt><trkpt lat="44.65503478947458" lon="9.488233753676031"><ele>789.8333333333334</ele><time>2026-03-28T11:29:11.998Z</time></trkpt><trkpt lat="44.65510796048462" lon="9.488314803614266"><ele>792.0</ele><time>2026-03-28T11:29:14.998Z</time></trkpt><trkpt lat="44.655161849845" lon="9.488375007136154"><ele>792.0</ele><time>2026-03-28T11:29:17.998Z</time></trkpt><trkpt lat="44.65523039526643" lon="9.488436474051804"><ele>792.0</ele><time>2026-03-28T11:29:20.998Z</time></trkpt><trkpt lat="44.655290477320406" lon="9.48847288627744"><ele>792.0</ele><time>2026-03-28T11:29:22.998Z</time></trkpt><trkpt lat="44.65537388502276" lon="9.488503259432218"><ele>792.0</ele><time>2026-03-28T11:29:24.998Z</time></trkpt><trkpt lat="44.65543687359264" lon="9.488500646158965"><ele>792.0</ele><time>2026-03-28T11:29:26.998Z</time></trkpt><trkpt lat="44.6555262484908" lon="9.488477996206047"><ele>792.0</ele><time>2026-03-28T11:29:29.998Z</time></trkpt><trkpt lat="44.65559968820992" lon="9.488436321300497"><ele>793.0</ele><time>2026-03-28T11:29:34Z</time></trkpt><trkpt lat="44.655676413335314" lon="9.488396404278415"><ele>794.0</ele><time>2026-03-28T11:29:37Z</time></trkpt><trkpt lat="44.65575681795772" lon="9.488347141243752"><ele>795.0</ele><time>2026-03-28T11:29:40Z</time></trkpt><trkpt lat="44.65581469411429" lon="9.48830811436686"><ele>796.0</ele><time>2026-03-28T11:29:42Z</time></trkpt><trkpt lat="44.655897596056334" lon="9.488258001542027"><ele>797.0</ele><time>2026-03-28T11:29:45Z</time></trkpt><trkpt lat="44.65596530295968" lon="9.48821478486858"><ele>798.0</ele><time>2026-03-28T11:29:48Z</time></trkpt><trkpt lat="44.65604213244065" lon="9.488165919668957"><ele>798.0</ele><time>2026-03-28T11:29:50.999Z</time></trkpt><trkpt lat="44.65610822004078" lon="9.488167672780104"><ele>798.0</ele><time>2026-03-28T11:29:54.999Z</time></trkpt><trkpt lat="44.65619196794975" lon="9.488133749398044"><ele>798.0</ele><time>2026-03-28T11:29:57.999Z</time></trkpt><trkpt lat="44.656262990209434" lon="9.488090933233611"><ele>798.0</ele><time>2026-03-28T11:30:00.999Z</time></trkpt><trkpt lat="44.65634063943623" lon="9.488048658408083"><ele>798.0</ele><time>2026-03-28T11:30:03.999Z</time></trkpt><trkpt lat="44.65643936857046" lon="9.488021544900253"><ele>798.0</ele><time>2026-03-28T11:30:06.999Z</time></trkpt><trkpt lat="44.6565427432613" lon="9.487992010490647"><ele>800.6666666666666</ele><time>2026-03-28T11:30:10.999Z</time></trkpt><trkpt lat="44.65663205816741" lon="9.487984569381698"><ele>803.3333333333333</ele><time>2026-03-28T11:30:12.999Z</time></trkpt><trkpt lat="44.65674111278353" lon="9.487970503496193"><ele>806.0</ele><time>2026-03-28T11:30:14.999Z</time></trkpt><trkpt lat="44.656842572065045" lon="9.487945325704509"><ele>808.6666666666666</ele><time>2026-03-28T11:30:16.999Z</time></trkpt><trkpt lat="44.65690574648667" lon="9.487960705169682"><ele>811.3333333333333</ele><time>2026-03-28T11:30:20.999Z</time></trkpt><trkpt lat="44.65697415770538" lon="9.48792897690164"><ele>814.0</ele><time>2026-03-28T11:30:22.999Z</time></trkpt><trkpt lat="44.65703724810481" lon="9.487892629203538"><ele>814.0</ele><time>2026-03-28T11:30:24.999Z</time></trkpt><trkpt lat="44.657288199772786" lon="9.48770364520076"><ele>814.0</ele><time>2026-03-28T11:30:27.999Z</time></trkpt><trkpt lat="44.6573462030386" lon="9.487655383202993"><ele>814.0</ele><time>2026-03-28T11:30:29.999Z</time></trkpt><trkpt lat="44.65740781532102" lon="9.487602247256287"><ele>814.0</ele><time>2026-03-28T11:30:31.999Z</time></trkpt><trkpt lat="44.657461623499714" lon="9.487545489663624"><ele>813.9999999999999</ele><time>2026-03-28T11:30:33.999Z</time></trkpt><trkpt lat="44.65750937372503" lon="9.487486014012466"><ele>814.0</ele><time>2026-03-28T11:30:35.999Z</time></trkpt><trkpt lat="44.65755323217035" lon="9.48742019094767"><ele>814.0</ele><time>2026-03-28T11:30:37.999Z</time></trkpt><trkpt lat="44.65761219561561" lon="9.487320514202485"><ele>814.0</ele><time>2026-03-28T11:30:40.999Z</time></trkpt><trkpt lat="44.6576733651192" lon="9.487222683323656"><ele>813.9999999999999</ele><time>2026-03-28T11:30:43.998Z</time></trkpt><trkpt lat="44.65771549683982" lon="9.487128043957497"><ele>814.0</ele><time>2026-03-28T11:30:46.998Z</time></trkpt><trkpt lat="44.657754475456606" lon="9.48703607147488"><ele>814.5714285714287</ele><time>2026-03-28T11:30:48.998Z</time></trkpt><trkpt lat="44.65769417671341" lon="9.487079319392809"><ele>815.1428571428571</ele><time>2026-03-28T11:30:49.998Z</time></trkpt><trkpt lat="44.65774974111946" lon="9.487007531209365"><ele>815.7142857142858</ele><time>2026-03-28T11:30:51.998Z</time></trkpt><trkpt lat="44.657806070402046" lon="9.486948003082729"><ele>816.2857142857143</ele><time>2026-03-28T11:30:53.998Z</time></trkpt><trkpt lat="44.65786500295395" lon="9.486901326696254"><ele>816.8571428571429</ele><time>2026-03-28T11:30:55.998Z</time></trkpt><trkpt lat="44.657925688492995" lon="9.486863018773851"><ele>817.4285714285714</ele><time>2026-03-28T11:30:57.998Z</time></trkpt><trkpt lat="44.65800860516107" lon="9.486814978954795"><ele>818.0</ele><time>2026-03-28T11:31:00.998Z</time></trkpt><trkpt lat="44.658100482916026" lon="9.48677089957136"><ele>818.0</ele><time>2026-03-28T11:31:03.998Z</time></trkpt><trkpt lat="44.6581917961303" lon="9.486730405017397"><ele>818.0</ele><time>2026-03-28T11:31:06.998Z</time></trkpt><trkpt lat="44.658252902860134" lon="9.486703316760192"><ele>818.0</ele><time>2026-03-28T11:31:08.998Z</time></trkpt><trkpt lat="44.6583151652406" lon="9.48667733404375"><ele>818.0</ele><time>2026-03-28T11:31:10.998Z</time></trkpt><trkpt lat="44.65837688105498" lon="9.486646090279304"><ele>818.0</ele><time>2026-03-28T11:31:12.998Z</time></trkpt><trkpt lat="44.658437317467644" lon="9.48661850104923"><ele>818.0</ele><time>2026-03-28T11:31:14.998Z</time></trkpt><trkpt lat="44.65852744573892" lon="9.486576972779831"><ele>818.0</ele><time>2026-03-28T11:31:17.998Z</time></trkpt><trkpt lat="44.65858807302744" lon="9.486548186215675"><ele>818.3333333333334</ele><time>2026-03-28T11:31:19.998Z</time></trkpt><trkpt lat="44.658674692611925" lon="9.48650094298708"><ele>818.6666666666667</ele><time>2026-03-28T11:31:22.998Z</time></trkpt><trkpt lat="44.658756445289775" lon="9.486463576409134"><ele>819.0</ele><time>2026-03-28T11:31:25.998Z</time></trkpt><trkpt lat="44.65884312754567" lon="9.48640703161178"><ele>819.3333333333333</ele><time>2026-03-28T11:31:28.998Z</time></trkpt><trkpt lat="44.65890435406365" lon="9.486354018531035"><ele>819.6666666666666</ele><time>2026-03-28T11:31:30.998Z</time></trkpt><trkpt lat="44.65896085515062" lon="9.48628079048855"><ele>820.0</ele><time>2026-03-28T11:31:32.998Z</time></trkpt><trkpt lat="44.65900406153211" lon="9.486196053917196"><ele>820.0</ele><time>2026-03-28T11:31:34.998Z</time></trkpt><trkpt lat="44.659036873044755" lon="9.486104187085209"><ele>820.0</ele><time>2026-03-28T11:31:37Z</time></trkpt><trkpt lat="44.65905884288147" lon="9.485999720783877"><ele>820.0</ele><time>2026-03-28T11:31:39Z</time></trkpt><trkpt lat="44.65907738077063" lon="9.485903869310834"><ele>820.0</ele><time>2026-03-28T11:31:41Z</time></trkpt><trkpt lat="44.65909332453441" lon="9.485811501971513"><ele>820.0</ele><time>2026-03-28T11:31:43Z</time></trkpt><trkpt lat="44.659109975526015" lon="9.485718380582341"><ele>820.0</ele><time>2026-03-28T11:31:45Z</time></trkpt><trkpt lat="44.65912904170506" lon="9.48561900302623"><ele>820.0</ele><time>2026-03-28T11:31:47Z</time></trkpt><trkpt lat="44.659143246038255" lon="9.485523086429334"><ele>819.9999999999999</ele><time>2026-03-28T11:31:49Z</time></trkpt><trkpt lat="44.65916354333976" lon="9.485437845158662"><ele>820.0</ele><time>2026-03-28T11:31:51Z</time></trkpt><trkpt lat="44.659186286778606" lon="9.485309271072685"><ele>820.0</ele><time>2026-03-28T11:31:53.999Z</time></trkpt><trkpt lat="44.659200110092115" lon="9.485219622030735"><ele>820.0</ele><time>2026-03-28T11:31:55.999Z</time></trkpt><trkpt lat="44.65922171162015" lon="9.485092825261173"><ele>819.9999999999999</ele><time>2026-03-28T11:31:58.999Z</time></trkpt><trkpt lat="44.65924257533468" lon="9.484972127731242"><ele>820.0</ele><time>2026-03-28T11:32:01.999Z</time></trkpt><trkpt lat="44.65927087889933" lon="9.484848710721131"><ele>819.8571428571429</ele><time>2026-03-28T11:32:04.999Z</time></trkpt><trkpt lat="44.659306824829045" lon="9.484732795827489"><ele>819.7142857142857</ele><time>2026-03-28T11:32:07.999Z</time></trkpt><trkpt lat="44.65933980784661" lon="9.484655487653534"><ele>819.5714285714286</ele><time>2026-03-28T11:32:09.999Z</time></trkpt><trkpt lat="44.6593745590979" lon="9.484575854453064"><ele>819.4285714285714</ele><time>2026-03-28T11:32:11.999Z</time></trkpt><trkpt lat="44.659418405090584" lon="9.484505973909485"><ele>819.2857142857142</ele><time>2026-03-28T11:32:13.999Z</time></trkpt><trkpt lat="44.6594605094858" lon="9.484437857967334"><ele>819.1428571428571</ele><time>2026-03-28T11:32:15.999Z</time></trkpt><trkpt lat="44.65949783254525" lon="9.4843631196821"><ele>819.0</ele><time>2026-03-28T11:32:17.999Z</time></trkpt><trkpt lat="44.65956436195668" lon="9.484266976349414"><ele>820.3333333333334</ele><time>2026-03-28T11:32:20.999Z</time></trkpt><trkpt lat="44.65963722871662" lon="9.484182675742982"><ele>821.6666666666667</ele><time>2026-03-28T11:32:23.999Z</time></trkpt><trkpt lat="44.65969457987484" lon="9.484136298970284"><ele>823.0</ele><time>2026-03-28T11:32:25.999Z</time></trkpt><trkpt lat="44.659751555389924" lon="9.484095938254564"><ele>824.3333333333334</ele><time>2026-03-28T11:32:27.999Z</time></trkpt><trkpt lat="44.65980904421483" lon="9.484057393050147"><ele>825.6666666666667</ele><time>2026-03-28T11:32:29.999Z</time></trkpt><trkpt lat="44.659898269135525" lon="9.484024631467943"><ele>827.0</ele><time>2026-03-28T11:32:32.999Z</time></trkpt><trkpt lat="44.65998470498492" lon="9.484012346414818"><ele>827.0000000000001</ele><time>2026-03-28T11:32:35.999Z</time></trkpt><trkpt lat="44.6600586883092" lon="9.484001991772816"><ele>827.0</ele><time>2026-03-28T11:32:38.999Z</time></trkpt><trkpt lat="44.66014010339925" lon="9.484002182869084"><ele>827.0</ele><time>2026-03-28T11:32:41.999Z</time></trkpt><trkpt lat="44.66024426862377" lon="9.484006844298237"><ele>827.0</ele><time>2026-03-28T11:32:44.999Z</time></trkpt><trkpt lat="44.66032453592504" lon="9.484013941119606"><ele>827.0000000000001</ele><time>2026-03-28T11:32:47.998Z</time></trkpt><trkpt lat="44.66040372940588" lon="9.484021679213798"><ele>827.0</ele><time>2026-03-28T11:32:50.998Z</time></trkpt><trkpt lat="44.660480995029644" lon="9.484029996515048"><ele>828.1666666666667</ele><time>2026-03-28T11:32:53.998Z</time></trkpt><trkpt lat="44.66056057861045" lon="9.484038123683781"><ele>829.3333333333334</ele><time>2026-03-28T11:32:56.998Z</time></trkpt><trkpt lat="44.66066250580453" lon="9.484053040277589"><ele>830.5</ele><time>2026-03-28T11:32:59.998Z</time></trkpt><trkpt lat="44.66074908557527" lon="9.484059102202092"><ele>831.6666666666667</ele><time>2026-03-28T11:33:02.998Z</time></trkpt><trkpt lat="44.660841082889704" lon="9.484061073597639"><ele>832.8333333333334</ele><time>2026-03-28T11:33:05.998Z</time></trkpt><trkpt lat="44.6609256313112" lon="9.484047609958589"><ele>834.0</ele><time>2026-03-28T11:33:08.998Z</time></trkpt><trkpt lat="44.661013791532405" lon="9.484031797918744"><ele>834.0</ele><time>2026-03-28T11:33:11.998Z</time></trkpt><trkpt lat="44.66110521187892" lon="9.484010918203138"><ele>834.0</ele><time>2026-03-28T11:33:14.998Z</time></trkpt><trkpt lat="44.661189729165606" lon="9.483983960847885"><ele>834.0</ele><time>2026-03-28T11:33:17.998Z</time></trkpt><trkpt lat="44.66128063901192" lon="9.483957773338119"><ele>834.0</ele><time>2026-03-28T11:33:20.998Z</time></trkpt><trkpt lat="44.66137213680081" lon="9.483928605426208"><ele>834.0</ele><time>2026-03-28T11:33:23.998Z</time></trkpt><trkpt lat="44.661433741817056" lon="9.483905435742049"><ele>834.0</ele><time>2026-03-28T11:33:25.998Z</time></trkpt><trkpt lat="44.661524889860594" lon="9.483896569623006"><ele>834.3333333333334</ele><time>2026-03-28T11:33:28.998Z</time></trkpt><trkpt lat="44.661594530378125" lon="9.483880628225789"><ele>834.6666666666667</ele><time>2026-03-28T11:33:31.998Z</time></trkpt><trkpt lat="44.66165846119034" lon="9.483866521656697"><ele>835.0</ele><time>2026-03-28T11:33:33.998Z</time></trkpt><trkpt lat="44.66174029662708" lon="9.48383242377951"><ele>835.3333333333334</ele><time>2026-03-28T11:33:36.998Z</time></trkpt><trkpt lat="44.661807796801924" lon="9.483797787573142"><ele>835.6666666666667</ele><time>2026-03-28T11:33:38.998Z</time></trkpt><trkpt lat="44.66188400371214" lon="9.48374811385045"><ele>836.0</ele><time>2026-03-28T11:33:41.997Z</time></trkpt><trkpt lat="44.66195058506425" lon="9.483700101170447"><ele>838.1666666666667</ele><time>2026-03-28T11:33:43.999Z</time></trkpt><trkpt lat="44.662013188454" lon="9.483638652483652"><ele>840.3333333333334</ele><time>2026-03-28T11:33:46.999Z</time></trkpt><trkpt lat="44.66208228877804" lon="9.483572008969572"><ele>842.5</ele><time>2026-03-28T11:33:49.999Z</time></trkpt><trkpt lat="44.66213281810437" lon="9.483503958424183"><ele>844.6666666666667</ele><time>2026-03-28T11:33:51.999Z</time></trkpt><trkpt lat="44.662197080357764" lon="9.483437728145075"><ele>846.8333333333334</ele><time>2026-03-28T11:33:54.999Z</time></trkpt><trkpt lat="44.662267681715356" lon="9.483364819513412"><ele>849.0</ele><time>2026-03-28T11:33:57.999Z</time></trkpt><trkpt lat="44.66233914943285" lon="9.483286575633395"><ele>849.0</ele><time>2026-03-28T11:33:59.999Z</time></trkpt><trkpt lat="44.66238890960123" lon="9.48323221064426"><ele>849.0</ele><time>2026-03-28T11:34:01.999Z</time></trkpt><trkpt lat="44.66243880765505" lon="9.483173006531391"><ele>849.0</ele><time>2026-03-28T11:34:03.999Z</time></trkpt><trkpt lat="44.662492334079765" lon="9.483083048149966"><ele>849.0</ele><time>2026-03-28T11:34:06.999Z</time></trkpt><trkpt lat="44.66255455804228" lon="9.48297865776837"><ele>849.0</ele><time>2026-03-28T11:34:09.999Z</time></trkpt><trkpt lat="44.662614480876435" lon="9.482893082356993"><ele>849.0</ele><time>2026-03-28T11:34:11.999Z</time></trkpt><trkpt lat="44.66265563485971" lon="9.482825213444753"><ele>847.8333333333334</ele><time>2026-03-28T11:34:13.999Z</time></trkpt><trkpt lat="44.66271427688377" lon="9.482740050907083"><ele>846.6666666666667</ele><time>2026-03-28T11:34:16.999Z</time></trkpt><trkpt lat="44.66277701098583" lon="9.482645516705656"><ele>845.5</ele><time>2026-03-28T11:34:19.999Z</time></trkpt><trkpt lat="44.6628445502425" lon="9.482559325786333"><ele>844.3333333333334</ele><time>2026-03-28T11:34:22.999Z</time></trkpt><trkpt lat="44.66289710560977" lon="9.482482074461378"><ele>843.1666666666667</ele><time>2026-03-28T11:34:24.999Z</time></trkpt><trkpt lat="44.66294358779858" lon="9.482417008980216"><ele>842.0</ele><time>2026-03-28T11:34:26.999Z</time></trkpt><trkpt lat="44.66298803600402" lon="9.482349415643222"><ele>843.5000000000001</ele><time>2026-03-28T11:34:28.999Z</time></trkpt><trkpt lat="44.663030972278925" lon="9.482280080896096"><ele>845.0</ele><time>2026-03-28T11:34:30.999Z</time></trkpt><trkpt lat="44.663076886366376" lon="9.482216743816066"><ele>846.5</ele><time>2026-03-28T11:34:32.999Z</time></trkpt><trkpt lat="44.66314362683934" lon="9.482124091765993"><ele>848.0</ele><time>2026-03-28T11:34:35.999Z</time></trkpt><trkpt lat="44.66320742115685" lon="9.482033413814095"><ele>849.5000000000001</ele><time>2026-03-28T11:34:38.999Z</time></trkpt><trkpt lat="44.66326639194801" lon="9.481935168019037"><ele>851.0</ele><time>2026-03-28T11:34:41.999Z</time></trkpt><trkpt lat="44.6633287643213" lon="9.4818348209663"><ele>851.0000000000001</ele><time>2026-03-28T11:34:44.999Z</time></trkpt><trkpt lat="44.66337684751624" lon="9.481764141276145"><ele>851.0</ele><time>2026-03-28T11:34:47.999Z</time></trkpt><trkpt lat="44.663440548082775" lon="9.481681810803396"><ele>851.0</ele><time>2026-03-28T11:34:50.998Z</time></trkpt><trkpt lat="44.66351001803028" lon="9.481609598774082"><ele>851.0</ele><time>2026-03-28T11:34:53.998Z</time></trkpt><trkpt lat="44.663583177677374" lon="9.481551503605596"><ele>851.0000000000001</ele><time>2026-03-28T11:34:56.998Z</time></trkpt><trkpt lat="44.66366402250271" lon="9.481496934236297"><ele>851.0</ele><time>2026-03-28T11:34:59.998Z</time></trkpt><trkpt lat="44.663742608413706" lon="9.481455691230025"><ele>852.8571428571429</ele><time>2026-03-28T11:35:02.998Z</time></trkpt><trkpt lat="44.66380843543642" lon="9.481421263846094"><ele>854.7142857142858</ele><time>2026-03-28T11:35:04.999Z</time></trkpt><trkpt lat="44.663867628429976" lon="9.481381356280455"><ele>856.5714285714286</ele><time>2026-03-28T11:35:06.999Z</time></trkpt><trkpt lat="44.66392624605496" lon="9.481341297972214"><ele>858.4285714285714</ele><time>2026-03-28T11:35:09.999Z</time></trkpt><trkpt lat="44.66397923851002" lon="9.481292307348959"><ele>860.2857142857142</ele><time>2026-03-28T11:35:11.999Z</time></trkpt><trkpt lat="44.664033456378846" lon="9.481213305054066"><ele>862.1428571428571</ele><time>2026-03-28T11:35:14.999Z</time></trkpt><trkpt lat="44.66406934254106" lon="9.481103526193872"><ele>864.0</ele><time>2026-03-28T11:35:17.999Z</time></trkpt><trkpt lat="44.66407606575826" lon="9.481000313436695"><ele>864.0</ele><time>2026-03-28T11:35:19.999Z</time></trkpt><trkpt lat="44.66406048374924" lon="9.480850767184815"><ele>864.0</ele><time>2026-03-28T11:35:22.999Z</time></trkpt><trkpt lat="44.66404226046079" lon="9.480758316608934"><ele>864.0</ele><time>2026-03-28T11:35:24.999Z</time></trkpt><trkpt lat="44.66400537400714" lon="9.480643651338157"><ele>864.0</ele><time>2026-03-28T11:35:27.999Z</time></trkpt><trkpt lat="44.66397017949275" lon="9.480526120833701"><ele>864.0</ele><time>2026-03-28T11:35:30.999Z</time></trkpt><trkpt lat="44.663934776138426" lon="9.480408540747133"><ele>864.0</ele><time>2026-03-28T11:35:33.999Z</time></trkpt><trkpt lat="44.663900522563594" lon="9.480296833324584"><ele>864.8333333333334</ele><time>2026-03-28T11:35:36.999Z</time></trkpt><trkpt lat="44.663860339423834" lon="9.48018700679131"><ele>865.6666666666667</ele><time>2026-03-28T11:35:39.999Z</time></trkpt><trkpt lat="44.663807090191135" lon="9.48008460233871"><ele>866.5</ele><time>2026-03-28T11:35:42.999Z</time></trkpt><trkpt lat="44.66375529518419" lon="9.479984952523333"><ele>867.3333333333334</ele><time>2026-03-28T11:35:45.998Z</time></trkpt><trkpt lat="44.66370517776198" lon="9.479883671393807"><ele>868.1666666666667</ele><time>2026-03-28T11:35:49Z</time></trkpt><trkpt lat="44.66365084287756" lon="9.479788805842889"><ele>869.0</ele><time>2026-03-28T11:35:52Z</time></trkpt><trkpt lat="44.66360734308929" lon="9.47968686134237"><ele>867.6666666666667</ele><time>2026-03-28T11:35:55Z</time></trkpt><trkpt lat="44.663585280362874" lon="9.47957451098103"><ele>866.3333333333334</ele><time>2026-03-28T11:35:58Z</time></trkpt><trkpt lat="44.6635907603355" lon="9.479456869072107"><ele>865.0</ele><time>2026-03-28T11:36:01Z</time></trkpt><trkpt lat="44.663617198216805" lon="9.479350394631862"><ele>863.6666666666667</ele><time>2026-03-28T11:36:04Z</time></trkpt><trkpt lat="44.66364795229805" lon="9.479247358520105"><ele>862.3333333333334</ele><time>2026-03-28T11:36:08Z</time></trkpt><trkpt lat="44.66368406101806" lon="9.479146464108117"><ele>861.0</ele><time>2026-03-28T11:36:13Z</time></trkpt><trkpt lat="44.6637196800312" lon="9.479240553202581"><ele>862.1428571428571</ele><time>2026-03-28T11:37:22.999Z</time></trkpt><trkpt lat="44.66371390803543" lon="9.479351599329119"><ele>863.2857142857142</ele><time>2026-03-28T11:37:26.999Z</time></trkpt><trkpt lat="44.66370724196716" lon="9.47944943144971"><ele>864.4285714285714</ele><time>2026-03-28T11:37:29.999Z</time></trkpt><trkpt lat="44.66370863916894" lon="9.479541750985463"><ele>865.5714285714286</ele><time>2026-03-28T11:37:32.999Z</time></trkpt><trkpt lat="44.663736568895004" lon="9.479628097921587"><ele>866.7142857142857</ele><time>2026-03-28T11:37:35.999Z</time></trkpt><trkpt lat="44.663796032937775" lon="9.479690268233103"><ele>867.8571428571429</ele><time>2026-03-28T11:37:38.999Z</time></trkpt><trkpt lat="44.66385834273042" lon="9.47972358386071"><ele>869.0</ele><time>2026-03-28T11:37:41.999Z</time></trkpt><trkpt lat="44.663928183913505" lon="9.479741154180351"><ele>869.0</ele><time>2026-03-28T11:37:44.999Z</time></trkpt><trkpt lat="44.663993551603404" lon="9.479754625117545"><ele>869.0</ele><time>2026-03-28T11:37:47.999Z</time></trkpt><trkpt lat="44.66405904144619" lon="9.479752789782918"><ele>869.0</ele><time>2026-03-28T11:37:50.998Z</time></trkpt><trkpt lat="44.66414433061319" lon="9.479761863129289"><ele>869.0</ele><time>2026-03-28T11:37:55Z</time></trkpt><trkpt lat="44.664219291946246" lon="9.479761478044926"><ele>869.0</ele><time>2026-03-28T11:37:59Z</time></trkpt><trkpt lat="44.664289583401676" lon="9.479764559175887"><ele>869.0</ele><time>2026-03-28T11:38:02Z</time></trkpt><trkpt lat="44.664367204051366" lon="9.47975630297417"><ele>869.0</ele><time>2026-03-28T11:38:05Z</time></trkpt><trkpt lat="44.664442445435604" lon="9.47976746149115"><ele>870.8571428571429</ele><time>2026-03-28T11:38:09Z</time></trkpt><trkpt lat="44.66451074288436" lon="9.479782173614913"><ele>872.7142857142857</ele><time>2026-03-28T11:38:12Z</time></trkpt><trkpt lat="44.66457877910553" lon="9.479815499437859"><ele>874.5714285714286</ele><time>2026-03-28T11:38:15Z</time></trkpt><trkpt lat="44.66464590861779" lon="9.47985477926042"><ele>876.4285714285714</ele><time>2026-03-28T11:38:18Z</time></trkpt><trkpt lat="44.66471872499903" lon="9.479901407450354"><ele>878.2857142857142</ele><time>2026-03-28T11:38:21Z</time></trkpt><trkpt lat="44.66478074058693" lon="9.479932982872134"><ele>880.1428571428571</ele><time>2026-03-28T11:38:24Z</time></trkpt><trkpt lat="44.66484601143794" lon="9.479965987205336"><ele>882.0</ele><time>2026-03-28T11:38:27Z</time></trkpt><trkpt lat="44.6649115487108" lon="9.479980220572392"><ele>882.0</ele><time>2026-03-28T11:38:30Z</time></trkpt><trkpt lat="44.66497758808437" lon="9.479973928851365"><ele>882.0</ele><time>2026-03-28T11:38:33Z</time></trkpt><trkpt lat="44.665038798622454" lon="9.479933072224597"><ele>882.0</ele><time>2026-03-28T11:38:36Z</time></trkpt><trkpt lat="44.66509488313123" lon="9.479860732331888"><ele>882.0</ele><time>2026-03-28T11:38:39Z</time></trkpt><trkpt lat="44.66512008999847" lon="9.479757228178734"><ele>882.0</ele><time>2026-03-28T11:38:43Z</time></trkpt><trkpt lat="44.66511107007199" lon="9.479667007911006"><ele>882.0</ele><time>2026-03-28T11:38:45Z</time></trkpt><trkpt lat="44.665080065578444" lon="9.479562726367073"><ele>882.0</ele><time>2026-03-28T11:38:49Z</time></trkpt><trkpt lat="44.66504616346657" lon="9.47948480614632"><ele>883.1428571428571</ele><time>2026-03-28T11:38:52Z</time></trkpt><trkpt lat="44.66501397391984" lon="9.479406621846541"><ele>884.2857142857142</ele><time>2026-03-28T11:38:55Z</time></trkpt><trkpt lat="44.66497938885251" lon="9.479330353662686"><ele>885.4285714285714</ele><time>2026-03-28T11:38:58Z</time></trkpt><trkpt lat="44.66493772006553" lon="9.479248627020448"><ele>886.5714285714286</ele><time>2026-03-28T11:39:00.999Z</time></trkpt><trkpt lat="44.66489834573781" lon="9.4791564946441"><ele>887.7142857142857</ele><time>2026-03-28T11:39:03.999Z</time></trkpt><trkpt lat="44.66485598852652" lon="9.47907453331387"><ele>888.8571428571429</ele><time>2026-03-28T11:39:07.999Z</time></trkpt><trkpt lat="44.66482124637751" lon="9.478987591091464"><ele>890.0</ele><time>2026-03-28T11:39:10.999Z</time></trkpt><trkpt lat="44.66478486441644" lon="9.478903604147908"><ele>890.0</ele><time>2026-03-28T11:39:12.999Z</time></trkpt><trkpt lat="44.664749640206395" lon="9.478822850346988"><ele>890.0</ele><time>2026-03-28T11:39:15.999Z</time></trkpt><trkpt lat="44.66471243354569" lon="9.478725802976903"><ele>890.0</ele><time>2026-03-28T11:39:18.999Z</time></trkpt><trkpt lat="44.66467810033392" lon="9.478649555128523"><ele>890.0</ele><time>2026-03-28T11:39:20.999Z</time></trkpt><trkpt lat="44.6646637091654" lon="9.47854104189684"><ele>890.0</ele><time>2026-03-28T11:39:23.999Z</time></trkpt><trkpt lat="44.66466446782288" lon="9.478433174737042"><ele>890.0</ele><time>2026-03-28T11:39:26.999Z</time></trkpt><trkpt lat="44.664683500365385" lon="9.478319722146079"><ele>890.0</ele><time>2026-03-28T11:39:29.999Z</time></trkpt><trkpt lat="44.664709092825646" lon="9.478216881739673"><ele>891.0</ele><time>2026-03-28T11:39:32.999Z</time></trkpt><trkpt lat="44.66474060144616" lon="9.478078578741226"><ele>892.0</ele><time>2026-03-28T11:39:36.999Z</time></trkpt><trkpt lat="44.66477083204979" lon="9.47796725387378"><ele>893.0</ele><time>2026-03-28T11:39:39.999Z</time></trkpt><trkpt lat="44.664804403469134" lon="9.477861485912532"><ele>894.0</ele><time>2026-03-28T11:39:43.999Z</time></trkpt><trkpt lat="44.66485064984619" lon="9.477776992275917"><ele>895.0</ele><time>2026-03-28T11:39:46.999Z</time></trkpt><trkpt lat="44.66492327366346" lon="9.47766522571463"><ele>895.1666666666666</ele><time>2026-03-28T11:39:49.999Z</time></trkpt><trkpt lat="44.66498944220153" lon="9.477607629771306"><ele>895.3333333333333</ele><time>2026-03-28T11:39:52.999Z</time></trkpt><trkpt lat="44.665050131095995" lon="9.477541398817301"><ele>895.5</ele><time>2026-03-28T11:39:55.998Z</time></trkpt><trkpt lat="44.665121962494915" lon="9.477489618774428"><ele>895.6666666666667</ele><time>2026-03-28T11:39:59.998Z</time></trkpt><trkpt lat="44.665200878367195" lon="9.477430011933768"><ele>895.8333333333334</ele><time>2026-03-28T11:40:03Z</time></trkpt><trkpt lat="44.66527357363162" lon="9.477387369482587"><ele>896.0</ele><time>2026-03-28T11:40:06Z</time></trkpt><trkpt lat="44.66534709045149" lon="9.47736557380137"><ele>898.1666666666667</ele><time>2026-03-28T11:40:09Z</time></trkpt><trkpt lat="44.665422196770606" lon="9.477347092860876"><ele>900.3333333333334</ele><time>2026-03-28T11:40:12Z</time></trkpt><trkpt lat="44.66549857232074" lon="9.477323212123903"><ele>902.5</ele><time>2026-03-28T11:40:15Z</time></trkpt><trkpt lat="44.665574275362694" lon="9.477300177592161"><ele>904.6666666666667</ele><time>2026-03-28T11:40:18Z</time></trkpt><trkpt lat="44.66565467791767" lon="9.477288872650094"><ele>906.8333333333334</ele><time>2026-03-28T11:40:21Z</time></trkpt><trkpt lat="44.665735226980146" lon="9.477248141480683"><ele>909.0</ele><time>2026-03-28T11:40:25Z</time></trkpt><trkpt lat="44.66579462268546" lon="9.477206264804398"><ele>909.0</ele><time>2026-03-28T11:40:28Z</time></trkpt><trkpt lat="44.66584204756039" lon="9.477144079316556"><ele>909.0</ele><time>2026-03-28T11:40:31Z</time></trkpt><trkpt lat="44.66588721025281" lon="9.477063038963708"><ele>909.0</ele><time>2026-03-28T11:40:34Z</time></trkpt><trkpt lat="44.66593804169773" lon="9.47698130048298"><ele>909.0</ele><time>2026-03-28T11:40:37Z</time></trkpt><trkpt lat="44.66598341369871" lon="9.476882837159506"><ele>909.0</ele><time>2026-03-28T11:40:40Z</time></trkpt><trkpt lat="44.66603430312935" lon="9.47678805088524"><ele>909.0</ele><time>2026-03-28T11:40:43Z</time></trkpt><trkpt lat="44.666089561684565" lon="9.476684502659538"><ele>911.1666666666666</ele><time>2026-03-28T11:40:46Z</time></trkpt><trkpt lat="44.666150610379376" lon="9.476602686682462"><ele>913.3333333333333</ele><time>2026-03-28T11:40:49Z</time></trkpt><trkpt lat="44.66620951419039" lon="9.476520088224925"><ele>915.5</ele><time>2026-03-28T11:40:52Z</time></trkpt><trkpt lat="44.66627685995564" lon="9.476462906289862"><ele>917.6666666666666</ele><time>2026-03-28T11:40:55Z</time></trkpt><trkpt lat="44.666348953791776" lon="9.476405721411972"><ele>919.8333333333333</ele><time>2026-03-28T11:40:58Z</time></trkpt><trkpt lat="44.666430257724905" lon="9.476350744883847"><ele>922.0</ele><time>2026-03-28T11:41:02Z</time></trkpt><trkpt lat="44.66648945942816" lon="9.476291885136568"><ele>920.4999999999999</ele><time>2026-03-28T11:41:05Z</time></trkpt><trkpt lat="44.66655642248406" lon="9.476236819564821"><ele>919.0</ele><time>2026-03-28T11:41:07.999Z</time></trkpt><trkpt lat="44.66661433912449" lon="9.47619884754432"><ele>917.5</ele><time>2026-03-28T11:41:09.999Z</time></trkpt><trkpt lat="44.66668267385535" lon="9.47616143305866"><ele>916.0</ele><time>2026-03-28T11:41:12.999Z</time></trkpt><trkpt lat="44.666746885424004" lon="9.47612443346596"><ele>914.4999999999999</ele><time>2026-03-28T11:41:14.999Z</time></trkpt><trkpt lat="44.666827713905256" lon="9.476078605860856"><ele>913.0</ele><time>2026-03-28T11:41:17.999Z</time></trkpt><trkpt lat="44.666901289580856" lon="9.476034147100421"><ele>916.6666666666666</ele><time>2026-03-28T11:41:20.999Z</time></trkpt><trkpt lat="44.6669734058235" lon="9.475979906979548"><ele>920.3333333333333</ele><time>2026-03-28T11:41:23.999Z</time></trkpt><trkpt lat="44.66703147635265" lon="9.475920047916448"><ele>924.0</ele><time>2026-03-28T11:41:26.999Z</time></trkpt><trkpt lat="44.667083811972596" lon="9.475836976286855"><ele>927.6666666666667</ele><time>2026-03-28T11:41:30.999Z</time></trkpt><trkpt lat="44.66713002511245" lon="9.475749225991127"><ele>931.3333333333334</ele><time>2026-03-28T11:41:33.999Z</time></trkpt><trkpt lat="44.6671683530755" lon="9.475638905587322"><ele>935.0</ele><time>2026-03-28T11:41:36.999Z</time></trkpt><trkpt lat="44.667208375911734" lon="9.475523551104395"><ele>935.0000000000001</ele><time>2026-03-28T11:41:39.999Z</time></trkpt><trkpt lat="44.66723256736521" lon="9.475439662805586"><ele>935.0</ele><time>2026-03-28T11:41:41.999Z</time></trkpt><trkpt lat="44.667256431651396" lon="9.475333236515944"><ele>935.0000000000001</ele><time>2026-03-28T11:41:44.999Z</time></trkpt><trkpt lat="44.66727943322031" lon="9.47523950168659"><ele>935.0000000000001</ele><time>2026-03-28T11:41:47.999Z</time></trkpt><trkpt lat="44.66729978369373" lon="9.475147497980528"><ele>935.0</ele><time>2026-03-28T11:41:49.999Z</time></trkpt><trkpt lat="44.66731792455447" lon="9.475062132931281"><ele>935.0000000000001</ele><time>2026-03-28T11:41:52.999Z</time></trkpt><trkpt lat="44.66733879954173" lon="9.474944815281424"><ele>935.0000000000001</ele><time>2026-03-28T11:41:55.999Z</time></trkpt><trkpt lat="44.66735971780971" lon="9.474855630183875"><ele>933.3333333333334</ele><time>2026-03-28T11:41:57.999Z</time></trkpt><trkpt lat="44.66738897476933" lon="9.474748376688726"><ele>931.6666666666667</ele><time>2026-03-28T11:42:00.998Z</time></trkpt><trkpt lat="44.66742917897219" lon="9.474642943367181"><ele>930.0</ele><time>2026-03-28T11:42:03.998Z</time></trkpt><trkpt lat="44.66748313778782" lon="9.474570153580451"><ele>928.3333333333333</ele><time>2026-03-28T11:42:07Z</time></trkpt><trkpt lat="44.66756092627869" lon="9.474545338105427"><ele>926.6666666666666</ele><time>2026-03-28T11:42:11Z</time></trkpt><trkpt lat="44.66762321550072" lon="9.474561497633346"><ele>925.0</ele><time>2026-03-28T11:42:14Z</time></trkpt><trkpt lat="44.667687868128205" lon="9.474636906229406"><ele>925.0</ele><time>2026-03-28T11:42:18Z</time></trkpt><trkpt lat="44.66771121524974" lon="9.47472102302947"><ele>925.0</ele><time>2026-03-28T11:42:21Z</time></trkpt><trkpt lat="44.66771121652653" lon="9.474812637745302"><ele>925.0</ele><time>2026-03-28T11:42:24Z</time></trkpt><trkpt lat="44.66770820818636" lon="9.474909139905714"><ele>925.0</ele><time>2026-03-28T11:42:27Z</time></trkpt><trkpt lat="44.6677044888157" lon="9.475005975763212"><ele>925.0</ele><time>2026-03-28T11:42:29Z</time></trkpt><trkpt lat="44.667700012452435" lon="9.475104027664377"><ele>925.0</ele><time>2026-03-28T11:42:33Z</time></trkpt><trkpt lat="44.6676884619857" lon="9.475228694819615"><ele>925.0</ele><time>2026-03-28T11:42:37Z</time></trkpt><trkpt lat="44.66767921702716" lon="9.47533283987972"><ele>925.0</ele><time>2026-03-28T11:42:40Z</time></trkpt><trkpt lat="44.667661734296736" lon="9.475425061354514"><ele>925.0</ele><time>2026-03-28T11:42:43Z</time></trkpt><trkpt lat="44.66764857191657" lon="9.475516792781082"><ele>925.0</ele><time>2026-03-28T11:42:46Z</time></trkpt><trkpt lat="44.667630529202874" lon="9.475603583194525"><ele>925.0</ele><time>2026-03-28T11:42:49Z</time></trkpt><trkpt lat="44.667607545095116" lon="9.475693400690682"><ele>925.0</ele><time>2026-03-28T11:42:52Z</time></trkpt><trkpt lat="44.667568491737626" lon="9.475790071110431"><ele>925.0</ele><time>2026-03-28T11:42:54Z</time></trkpt><trkpt lat="44.66753381617031" lon="9.475886169312941"><ele>925.0</ele><time>2026-03-28T11:42:57Z</time></trkpt><trkpt lat="44.667496172721215" lon="9.475977356909816"><ele>926.6666666666666</ele><time>2026-03-28T11:43:00Z</time></trkpt><trkpt lat="44.66746028455758" lon="9.476075408524908"><ele>928.3333333333333</ele><time>2026-03-28T11:43:03Z</time></trkpt><trkpt lat="44.66743477533487" lon="9.47617327918749"><ele>930.0</ele><time>2026-03-28T11:43:06Z</time></trkpt><trkpt lat="44.6673982052957" lon="9.476275053380366"><ele>931.6666666666667</ele><time>2026-03-28T11:43:09Z</time></trkpt><trkpt lat="44.6673814387104" lon="9.476379407656946"><ele>933.3333333333334</ele><time>2026-03-28T11:43:11.999Z</time></trkpt><trkpt lat="44.66736598708187" lon="9.476470474376804"><ele>935.0</ele><time>2026-03-28T11:43:14.999Z</time></trkpt><trkpt lat="44.66734608356881" lon="9.476583307774716"><ele>937.1666666666667</ele><time>2026-03-28T11:43:17.999Z</time></trkpt><trkpt lat="44.667312356225864" lon="9.476666260807935"><ele>939.3333333333334</ele><time>2026-03-28T11:43:20.999Z</time></trkpt><trkpt lat="44.66728177096071" lon="9.476787834735841"><ele>941.5</ele><time>2026-03-28T11:43:24.999Z</time></trkpt><trkpt lat="44.66725712880275" lon="9.47688734429764"><ele>943.6666666666667</ele><time>2026-03-28T11:43:27.999Z</time></trkpt><trkpt lat="44.6672240852963" lon="9.476989935320448"><ele>945.8333333333334</ele><time>2026-03-28T11:43:30.999Z</time></trkpt><trkpt lat="44.66718146153543" lon="9.477096122450847"><ele>948.0</ele><time>2026-03-28T11:43:33.999Z</time></trkpt><trkpt lat="44.66713376928648" lon="9.477175769530897"><ele>950.1666666666666</ele><time>2026-03-28T11:43:36.999Z</time></trkpt><trkpt lat="44.66710174626113" lon="9.477270121216549"><ele>952.3333333333333</ele><time>2026-03-28T11:43:39.999Z</time></trkpt><trkpt lat="44.667055909578515" lon="9.477337516402178"><ele>954.5</ele><time>2026-03-28T11:43:41.999Z</time></trkpt><trkpt lat="44.66700169748188" lon="9.477429239304817"><ele>956.6666666666666</ele><time>2026-03-28T11:43:44.999Z</time></trkpt><trkpt lat="44.666941622047446" lon="9.477508102216456"><ele>958.8333333333333</ele><time>2026-03-28T11:43:47.999Z</time></trkpt><trkpt lat="44.66688910881181" lon="9.477604251190892"><ele>961.0</ele><time>2026-03-28T11:43:50.999Z</time></trkpt><trkpt lat="44.66685799564309" lon="9.477703734962228"><ele>961.8333333333333</ele><time>2026-03-28T11:43:53.999Z</time></trkpt><trkpt lat="44.66685043823439" lon="9.477824789623872"><ele>962.6666666666666</ele><time>2026-03-28T11:43:56.999Z</time></trkpt><trkpt lat="44.666851761164075" lon="9.477936195486341"><ele>963.5</ele><time>2026-03-28T11:43:59.999Z</time></trkpt><trkpt lat="44.666854882548115" lon="9.47805739318663"><ele>964.3333333333333</ele><time>2026-03-28T11:44:02.999Z</time></trkpt><trkpt lat="44.66687810017893" lon="9.478156375058314"><ele>965.1666666666666</ele><time>2026-03-28T11:44:05.998Z</time></trkpt><trkpt lat="44.666923726642" lon="9.478227546791937"><ele>966.0</ele><time>2026-03-28T11:44:08.998Z</time></trkpt><trkpt lat="44.666993545640956" lon="9.478235909316341"><ele>966.0</ele><time>2026-03-28T11:44:13Z</time></trkpt><trkpt lat="44.66704145744333" lon="9.47816847570961"><ele>966.0</ele><time>2026-03-28T11:44:16Z</time></trkpt><trkpt lat="44.66706715079993" lon="9.478080617041446"><ele>966.0</ele><time>2026-03-28T11:44:18Z</time></trkpt><trkpt lat="44.66707070821225" lon="9.477972430255427"><ele>966.0</ele><time>2026-03-28T11:44:21Z</time></trkpt><trkpt lat="44.667081901312244" lon="9.477862714112588"><ele>966.0</ele><time>2026-03-28T11:44:24Z</time></trkpt><trkpt lat="44.66709907946843" lon="9.477757183709315"><ele>966.0</ele><time>2026-03-28T11:44:27Z</time></trkpt><trkpt lat="44.66713499171392" lon="9.477657205123807"><ele>966.0</ele><time>2026-03-28T11:44:30Z</time></trkpt><trkpt lat="44.66717844042283" lon="9.477564029073005"><ele>965.1666666666666</ele><time>2026-03-28T11:44:33Z</time></trkpt><trkpt lat="44.66723101626194" lon="9.47748219980383"><ele>964.3333333333333</ele><time>2026-03-28T11:44:36Z</time></trkpt><trkpt lat="44.66727926130016" lon="9.477396261694752"><ele>963.5</ele><time>2026-03-28T11:44:39Z</time></trkpt><trkpt lat="44.66732820138838" lon="9.477310978875192"><ele>962.6666666666666</ele><time>2026-03-28T11:44:42Z</time></trkpt><trkpt lat="44.667383121916664" lon="9.477228945761413"><ele>961.8333333333333</ele><time>2026-03-28T11:44:45Z</time></trkpt><trkpt lat="44.66743366797412" lon="9.477150475211802"><ele>961.0</ele><time>2026-03-28T11:44:48Z</time></trkpt><trkpt lat="44.667478685716894" lon="9.477075122540281"><ele>962.8333333333333</ele><time>2026-03-28T11:44:51Z</time></trkpt><trkpt lat="44.66753211967161" lon="9.477011224210404"><ele>964.6666666666666</ele><time>2026-03-28T11:44:54Z</time></trkpt><trkpt lat="44.66759384339956" lon="9.47696421165624"><ele>966.5</ele><time>2026-03-28T11:44:57Z</time></trkpt><trkpt lat="44.66764789992473" lon="9.4769125508284"><ele>968.3333333333333</ele><time>2026-03-28T11:45:00Z</time></trkpt><trkpt lat="44.66769771580791" lon="9.4768483311309"><ele>970.1666666666666</ele><time>2026-03-28T11:45:03Z</time></trkpt><trkpt lat="44.667780617035646" lon="9.47677239752745"><ele>972.0</ele><time>2026-03-28T11:45:06Z</time></trkpt><trkpt lat="44.66784914073245" lon="9.476716546217851"><ele>972.0</ele><time>2026-03-28T11:45:09Z</time></trkpt><trkpt lat="44.66792415830671" lon="9.476662967714761"><ele>972.0</ele><time>2026-03-28T11:45:11.999Z</time></trkpt><trkpt lat="44.66799956415691" lon="9.476622355334595"><ele>972.0</ele><time>2026-03-28T11:45:14.999Z</time></trkpt><trkpt lat="44.66807295717054" lon="9.476575126553206"><ele>972.0</ele><time>2026-03-28T11:45:17.999Z</time></trkpt><trkpt lat="44.66813787559047" lon="9.476515383046184"><ele>972.0</ele><time>2026-03-28T11:45:20.999Z</time></trkpt><trkpt lat="44.668195590524824" lon="9.47644634403523"><ele>972.0</ele><time>2026-03-28T11:45:23.999Z</time></trkpt><trkpt lat="44.66823937000531" lon="9.476358501037627"><ele>969.8333333333334</ele><time>2026-03-28T11:45:26.999Z</time></trkpt><trkpt lat="44.66828473843279" lon="9.476269414259049"><ele>967.6666666666667</ele><time>2026-03-28T11:45:29.999Z</time></trkpt><trkpt lat="44.66833422061619" lon="9.476178874051035"><ele>965.5</ele><time>2026-03-28T11:45:32.999Z</time></trkpt><trkpt lat="44.66839587816447" lon="9.476105738350947"><ele>963.3333333333334</ele><time>2026-03-28T11:45:35.999Z</time></trkpt><trkpt lat="44.668458146911654" lon="9.476050746276144"><ele>961.1666666666667</ele><time>2026-03-28T11:45:38.999Z</time></trkpt><trkpt lat="44.66852648677424" lon="9.47599451214495"><ele>959.0</ele><time>2026-03-28T11:45:41.999Z</time></trkpt><trkpt lat="44.66858994309258" lon="9.47593486478675"><ele>961.8571428571429</ele><time>2026-03-28T11:45:44.999Z</time></trkpt><trkpt lat="44.668650986068435" lon="9.475863027266042"><ele>964.7142857142858</ele><time>2026-03-28T11:45:47.999Z</time></trkpt><trkpt lat="44.66870665896776" lon="9.475786613761423"><ele>967.5714285714286</ele><time>2026-03-28T11:45:50.999Z</time></trkpt><trkpt lat="44.66876626309359" lon="9.475713833178242"><ele>970.4285714285714</ele><time>2026-03-28T11:45:53.999Z</time></trkpt><trkpt lat="44.66883135550913" lon="9.47565089560445"><ele>973.2857142857143</ele><time>2026-03-28T11:45:56.999Z</time></trkpt><trkpt lat="44.66889365453026" lon="9.475614669271902"><ele>976.1428571428571</ele><time>2026-03-28T11:45:59.999Z</time></trkpt><trkpt lat="44.66895815270998" lon="9.475591619853956"><ele>979.0</ele><time>2026-03-28T11:46:02.999Z</time></trkpt><trkpt lat="44.669021828733904" lon="9.475581358177838"><ele>979.0</ele><time>2026-03-28T11:46:05.998Z</time></trkpt><trkpt lat="44.66908537109861" lon="9.475571667732858"><ele>979.0</ele><time>2026-03-28T11:46:08.998Z</time></trkpt><trkpt lat="44.669147752447955" lon="9.475548027267894"><ele>979.0</ele><time>2026-03-28T11:46:11.998Z</time></trkpt><trkpt lat="44.66921292944344" lon="9.475532608659991"><ele>979.0</ele><time>2026-03-28T11:46:15.998Z</time></trkpt><trkpt lat="44.66928073258635" lon="9.475518525365413"><ele>979.0</ele><time>2026-03-28T11:46:19Z</time></trkpt><trkpt lat="44.669359967222384" lon="9.475512730892117"><ele>979.0</ele><time>2026-03-28T11:46:23Z</time></trkpt><trkpt lat="44.66944121806873" lon="9.47549789339863"><ele>979.0</ele><time>2026-03-28T11:46:27Z</time></trkpt><trkpt lat="44.66952113986174" lon="9.475482013002866"><ele>979.5714285714286</ele><time>2026-03-28T11:46:31Z</time></trkpt><trkpt lat="44.66959642374275" lon="9.475459306455319"><ele>980.1428571428571</ele><time>2026-03-28T11:46:35Z</time></trkpt><trkpt lat="44.669672353035516" lon="9.475423168430284"><ele>980.7142857142857</ele><time>2026-03-28T11:46:39Z</time></trkpt><trkpt lat="44.66975036819922" lon="9.475382383503133"><ele>981.2857142857142</ele><time>2026-03-28T11:46:43Z</time></trkpt><trkpt lat="44.66981249849757" lon="9.475346953269007"><ele>981.8571428571429</ele><time>2026-03-28T11:46:46Z</time></trkpt><trkpt lat="44.66987625301743" lon="9.4753129685762"><ele>982.4285714285713</ele><time>2026-03-28T11:46:49Z</time></trkpt><trkpt lat="44.669937057632936" lon="9.47527784646541"><ele>982.9999999999999</ele><time>2026-03-28T11:46:52Z</time></trkpt><trkpt lat="44.669998463667284" lon="9.475239396299655"><ele>983.0000000000001</ele><time>2026-03-28T11:46:55Z</time></trkpt><trkpt lat="44.67005822073913" lon="9.47518970861229"><ele>983.0</ele><time>2026-03-28T11:46:58Z</time></trkpt><trkpt lat="44.67011869156923" lon="9.475132569035853"><ele>983.0</ele><time>2026-03-28T11:47:01Z</time></trkpt><trkpt lat="44.670177146288275" lon="9.47505256098726"><ele>983.0</ele><time>2026-03-28T11:47:04Z</time></trkpt><trkpt lat="44.67021628253014" lon="9.47494330251001"><ele>983.0000000000001</ele><time>2026-03-28T11:47:07Z</time></trkpt><trkpt lat="44.670232961101405" lon="9.474851857147192"><ele>983.0</ele><time>2026-03-28T11:47:09Z</time></trkpt><trkpt lat="44.67024044420063" lon="9.474748516322492"><ele>983.0000000000001</ele><time>2026-03-28T11:47:11Z</time></trkpt><trkpt lat="44.670240878688624" lon="9.474641819238878"><ele>983.0</ele><time>2026-03-28T11:47:13Z</time></trkpt><trkpt lat="44.67024475178587" lon="9.474532645933024"><ele>983.0</ele><time>2026-03-28T11:47:15Z</time></trkpt><trkpt lat="44.670254103012354" lon="9.474421331977874"><ele>983.0</ele><time>2026-03-28T11:47:17Z</time></trkpt><trkpt lat="44.67028081971876" lon="9.474305420779968"><ele>983.0000000000001</ele><time>2026-03-28T11:47:18.999Z</time></trkpt><trkpt lat="44.670337152466544" lon="9.474194859294897"><ele>983.0</ele><time>2026-03-28T11:47:20.999Z</time></trkpt><trkpt lat="44.67041710954092" lon="9.474105465482037"><ele>984.1666666666667</ele><time>2026-03-28T11:47:22.999Z</time></trkpt><trkpt lat="44.67050912541498" lon="9.474063169388128"><ele>985.3333333333334</ele><time>2026-03-28T11:47:24.999Z</time></trkpt><trkpt lat="44.67058852520249" lon="9.474023530851623"><ele>986.5</ele><time>2026-03-28T11:47:26.999Z</time></trkpt><trkpt lat="44.67066412645832" lon="9.473995416957507"><ele>987.6666666666667</ele><time>2026-03-28T11:47:28.999Z</time></trkpt><trkpt lat="44.67074005165152" lon="9.473973467362217"><ele>988.8333333333334</ele><time>2026-03-28T11:47:30.999Z</time></trkpt><trkpt lat="44.67081407649272" lon="9.473948998772766"><ele>990.0</ele><time>2026-03-28T11:47:32.999Z</time></trkpt><trkpt lat="44.67088377475145" lon="9.473931508563448"><ele>989.9999999999999</ele><time>2026-03-28T11:47:34.999Z</time></trkpt><trkpt lat="44.67094976544774" lon="9.473906188240338"><ele>990.0</ele><time>2026-03-28T11:47:36.999Z</time></trkpt><trkpt lat="44.671016345655566" lon="9.473898185694605"><ele>989.9999999999999</ele><time>2026-03-28T11:47:38.999Z</time></trkpt><trkpt lat="44.671082527288746" lon="9.473891284375132"><ele>989.9999999999999</ele><time>2026-03-28T11:47:40.999Z</time></trkpt><trkpt lat="44.67117182603877" lon="9.473902627971523"><ele>990.0</ele><time>2026-03-28T11:47:43.999Z</time></trkpt><trkpt lat="44.67123566134532" lon="9.47393514783215"><ele>989.9999999999999</ele><time>2026-03-28T11:47:46.999Z</time></trkpt><trkpt lat="44.67130525464464" lon="9.473949126432585"><ele>989.9999999999999</ele><time>2026-03-28T11:47:49.999Z</time></trkpt><trkpt lat="44.67137362795531" lon="9.473976590200284"><ele>991.6666666666666</ele><time>2026-03-28T11:47:52.999Z</time></trkpt><trkpt lat="44.67144473687971" lon="9.473991198299192"><ele>993.3333333333333</ele><time>2026-03-28T11:47:55.999Z</time></trkpt><trkpt lat="44.671513304533086" lon="9.4740154188601"><ele>995.0</ele><time>2026-03-28T11:47:58.999Z</time></trkpt><trkpt lat="44.67161840108224" lon="9.474044759837554"><ele>996.6666666666666</ele><time>2026-03-28T11:48:01.999Z</time></trkpt><trkpt lat="44.671705177193886" lon="9.474062824186188"><ele>998.3333333333333</ele><time>2026-03-28T11:48:04.999Z</time></trkpt><trkpt lat="44.671794052571464" lon="9.474089248290557"><ele>1000.0</ele><time>2026-03-28T11:48:07.999Z</time></trkpt><trkpt lat="44.67187866919189" lon="9.474105443251375"><ele>1000.8333333333333</ele><time>2026-03-28T11:48:10.999Z</time></trkpt><trkpt lat="44.671954545365786" lon="9.474074196676117"><ele>1001.6666666666666</ele><time>2026-03-28T11:48:13.998Z</time></trkpt><trkpt lat="44.67203063940574" lon="9.4740357556211"><ele>1002.5</ele><time>2026-03-28T11:48:16.998Z</time></trkpt><trkpt lat="44.67209681522926" lon="9.473977837826341"><ele>1003.3333333333333</ele><time>2026-03-28T11:48:19.998Z</time></trkpt><trkpt lat="44.67216131950258" lon="9.473904061077082"><ele>1004.1666666666666</ele><time>2026-03-28T11:48:22.998Z</time></trkpt><trkpt lat="44.67222083240928" lon="9.473828899879766"><ele>1005.0</ele><time>2026-03-28T11:48:26Z</time></trkpt><trkpt lat="44.67228278870195" lon="9.473749181550742"><ele>1003.1666666666666</ele><time>2026-03-28T11:48:29Z</time></trkpt><trkpt lat="44.67233925692301" lon="9.47366795826133"><ele>1001.3333333333333</ele><time>2026-03-28T11:48:32Z</time></trkpt><trkpt lat="44.67241060724493" lon="9.473612708952503"><ele>999.5</ele><time>2026-03-28T11:48:35Z</time></trkpt><trkpt lat="44.67248696967856" lon="9.47360106841309"><ele>997.6666666666666</ele><time>2026-03-28T11:48:38Z</time></trkpt><trkpt lat="44.67255991924932" lon="9.473609618349032"><ele>995.8333333333333</ele><time>2026-03-28T11:48:41Z</time></trkpt><trkpt lat="44.67262733176007" lon="9.473649644947887"><ele>994.0</ele><time>2026-03-28T11:48:44Z</time></trkpt><trkpt lat="44.672687076502044" lon="9.47371214829313"><ele>995.5714285714286</ele><time>2026-03-28T11:48:47Z</time></trkpt><trkpt lat="44.67272681157422" lon="9.473798411513393"><ele>997.1428571428571</ele><time>2026-03-28T11:48:50Z</time></trkpt><trkpt lat="44.67273961114692" lon="9.473895216739535"><ele>998.7142857142858</ele><time>2026-03-28T11:48:53Z</time></trkpt><trkpt lat="44.672742267364576" lon="9.474001743052945"><ele>1000.2857142857143</ele><time>2026-03-28T11:48:56Z</time></trkpt><trkpt lat="44.67273437186858" lon="9.474101246783748"><ele>1001.8571428571429</ele><time>2026-03-28T11:48:59Z</time></trkpt><trkpt lat="44.67273486843066" lon="9.47419642926954"><ele>1003.4285714285716</ele><time>2026-03-28T11:49:02Z</time></trkpt><trkpt lat="44.67273664284098" lon="9.47429671930133"><ele>1005.0000000000001</ele><time>2026-03-28T11:49:05Z</time></trkpt><trkpt lat="44.67271916600521" lon="9.474395251180589"><ele>1005.0000000000001</ele><time>2026-03-28T11:49:08Z</time></trkpt><trkpt lat="44.67269124523323" lon="9.474491492370202"><ele>1005.0</ele><time>2026-03-28T11:49:11Z</time></trkpt><trkpt lat="44.67264352583748" lon="9.474566449269034"><ele>1005.0000000000001</ele><time>2026-03-28T11:49:14Z</time></trkpt><trkpt lat="44.672580332083456" lon="9.474617561966557"><ele>1005.0000000000001</ele><time>2026-03-28T11:49:18Z</time></trkpt><trkpt lat="44.67251278404716" lon="9.474646627509538"><ele>1005.0</ele><time>2026-03-28T11:49:21Z</time></trkpt><trkpt lat="44.672440248950096" lon="9.47467078749742"><ele>1005.0000000000001</ele><time>2026-03-28T11:49:23.999Z</time></trkpt><trkpt lat="44.672365135912905" lon="9.474697861607737"><ele>1005.0000000000001</ele><time>2026-03-28T11:49:26.999Z</time></trkpt><trkpt lat="44.67228654047531" lon="9.4747221893602"><ele>1006.6666666666666</ele><time>2026-03-28T11:49:29.999Z</time></trkpt><trkpt lat="44.67220900320032" lon="9.474745921903187"><ele>1008.3333333333333</ele><time>2026-03-28T11:49:32.999Z</time></trkpt><trkpt lat="44.67212251671927" lon="9.47476600266661"><ele>1010.0</ele><time>2026-03-28T11:49:35.999Z</time></trkpt><trkpt lat="44.672042902592" lon="9.474803302363847"><ele>1011.6666666666666</ele><time>2026-03-28T11:49:38.999Z</time></trkpt><trkpt lat="44.67198378755108" lon="9.474846673971442"><ele>1013.3333333333333</ele><time>2026-03-28T11:49:40.999Z</time></trkpt><trkpt lat="44.6719027846586" lon="9.474897110422022"><ele>1015.0</ele><time>2026-03-28T11:49:43.999Z</time></trkpt><trkpt lat="44.67183572969046" lon="9.474976867662342"><ele>1015.0</ele><time>2026-03-28T11:49:46.999Z</time></trkpt><trkpt lat="44.671755500197946" lon="9.47503670321095"><ele>1015.0</ele><time>2026-03-28T11:49:49.999Z</time></trkpt><trkpt lat="44.67168030370002" lon="9.475110755355484"><ele>1015.0</ele><time>2026-03-28T11:49:52.999Z</time></trkpt><trkpt lat="44.6715943476805" lon="9.47516580973446"><ele>1015.0</ele><time>2026-03-28T11:49:55.999Z</time></trkpt><trkpt lat="44.671507120946835" lon="9.475211368118304"><ele>1015.0</ele><time>2026-03-28T11:49:58.999Z</time></trkpt><trkpt lat="44.671425426742815" lon="9.475266449753956"><ele>1015.0</ele><time>2026-03-28T11:50:01.999Z</time></trkpt><trkpt lat="44.67136960075183" lon="9.475309681793975"><ele>1015.0</ele><time>2026-03-28T11:50:03.999Z</time></trkpt><trkpt lat="44.67132153991849" lon="9.475367367114073"><ele>1015.0</ele><time>2026-03-28T11:50:05.999Z</time></trkpt><trkpt lat="44.67127848537343" lon="9.47543390138152"><ele>1015.0</ele><time>2026-03-28T11:50:07.999Z</time></trkpt><trkpt lat="44.671229612020575" lon="9.47553840907676"><ele>1015.0</ele><time>2026-03-28T11:50:10.999Z</time></trkpt><trkpt lat="44.671192169537534" lon="9.475624650011987"><ele>1015.0</ele><time>2026-03-28T11:50:13.999Z</time></trkpt><trkpt lat="44.67115332052434" lon="9.475713872578375"><ele>1015.0</ele><time>2026-03-28T11:50:15.998Z</time></trkpt><trkpt lat="44.67110238431061" lon="9.475812879431624"><ele>1014.8571428571429</ele><time>2026-03-28T11:50:18.998Z</time></trkpt><trkpt lat="44.67104709438034" lon="9.475903503673756"><ele>1014.7142857142858</ele><time>2026-03-28T11:50:21.998Z</time></trkpt><trkpt lat="44.67100342080087" lon="9.475984119106826"><ele>1014.5714285714286</ele><time>2026-03-28T11:50:23.998Z</time></trkpt><trkpt lat="44.67095296379861" lon="9.476064590078982"><ele>1014.4285714285714</ele><time>2026-03-28T11:50:26.998Z</time></trkpt><trkpt lat="44.670917375399355" lon="9.476152471933657"><ele>1014.2857142857143</ele><time>2026-03-28T11:50:29.998Z</time></trkpt><trkpt lat="44.67090856789521" lon="9.476249361486786"><ele>1014.1428571428571</ele><time>2026-03-28T11:50:33Z</time></trkpt><trkpt lat="44.670919877290565" lon="9.476346443819525"><ele>1014.0</ele><time>2026-03-28T11:50:36Z</time></trkpt><trkpt lat="44.67092879648157" lon="9.476441837185863"><ele>1015.5714285714286</ele><time>2026-03-28T11:50:39Z</time></trkpt><trkpt lat="44.670942250837165" lon="9.476556206615069"><ele>1017.1428571428571</ele><time>2026-03-28T11:50:42Z</time></trkpt><trkpt lat="44.67094668924721" lon="9.476650235221577"><ele>1018.7142857142857</ele><time>2026-03-28T11:50:45Z</time></trkpt><trkpt lat="44.67096759516998" lon="9.476748385136393"><ele>1020.2857142857142</ele><time>2026-03-28T11:50:48Z</time></trkpt><trkpt lat="44.670988724770496" lon="9.476836575727951"><ele>1021.8571428571429</ele><time>2026-03-28T11:50:51Z</time></trkpt><trkpt lat="44.67102818904102" lon="9.47690880184203"><ele>1023.4285714285713</ele><time>2026-03-28T11:50:54Z</time></trkpt><trkpt lat="44.67108856581581" lon="9.476955783638237"><ele>1025.0</ele><time>2026-03-28T11:50:57Z</time></trkpt><trkpt lat="44.67114741404286" lon="9.476995028420163"><ele>1025.7142857142856</ele><time>2026-03-28T11:51:00Z</time></trkpt><trkpt lat="44.67121247889797" lon="9.477044022016079"><ele>1026.4285714285713</ele><time>2026-03-28T11:51:03Z</time></trkpt><trkpt lat="44.67124609857673" lon="9.477124299831198"><ele>1027.142857142857</ele><time>2026-03-28T11:51:06Z</time></trkpt><trkpt lat="44.67120072120604" lon="9.477212983079966"><ele>1027.8571428571427</ele><time>2026-03-28T11:51:09Z</time></trkpt><trkpt lat="44.67114551489091" lon="9.477277422289522"><ele>1028.5714285714284</ele><time>2026-03-28T11:51:12Z</time></trkpt><trkpt lat="44.67109515768957" lon="9.477345550033615"><ele>1029.2857142857142</ele><time>2026-03-28T11:51:15Z</time></trkpt><trkpt lat="44.67105460863942" lon="9.477417709690082"><ele>1030.0</ele><time>2026-03-28T11:51:18Z</time></trkpt><trkpt lat="44.6710128428216" lon="9.477490398387268"><ele>1030.0</ele><time>2026-03-28T11:51:21Z</time></trkpt><trkpt lat="44.6709698594656" lon="9.477565234477938"><ele>1030.0</ele><time>2026-03-28T11:51:24Z</time></trkpt><trkpt lat="44.670910676495986" lon="9.477633001551473"><ele>1030.0</ele><time>2026-03-28T11:51:26.999Z</time></trkpt><trkpt lat="44.67082008414328" lon="9.477675627103492"><ele>1030.0</ele><time>2026-03-28T11:51:29.999Z</time></trkpt><trkpt lat="44.67075646914857" lon="9.477715651203493"><ele>1030.0</ele><time>2026-03-28T11:51:31.999Z</time></trkpt><trkpt lat="44.67070201148405" lon="9.477776438616289"><ele>1030.0</ele><time>2026-03-28T11:51:33.999Z</time></trkpt><trkpt lat="44.67064987679859" lon="9.477844974511545"><ele>1030.6666666666665</ele><time>2026-03-28T11:51:35.999Z</time></trkpt><trkpt lat="44.670603691636614" lon="9.47794679010203"><ele>1031.3333333333333</ele><time>2026-03-28T11:51:38.999Z</time></trkpt><trkpt lat="44.670577425272576" lon="9.478058760453766"><ele>1032.0</ele><time>2026-03-28T11:51:41.999Z</time></trkpt><trkpt lat="44.67054813662609" lon="9.478166987682695"><ele>1032.6666666666667</ele><time>2026-03-28T11:51:44.999Z</time></trkpt><trkpt lat="44.67052626173032" lon="9.478263935259479"><ele>1033.3333333333335</ele><time>2026-03-28T11:51:47.999Z</time></trkpt><trkpt lat="44.670504784486965" lon="9.478366472440646"><ele>1034.0</ele><time>2026-03-28T11:51:50.999Z</time></trkpt><trkpt lat="44.6704841690304" lon="9.47846249012381"><ele>1034.0</ele><time>2026-03-28T11:51:53.999Z</time></trkpt><trkpt lat="44.67047488545333" lon="9.47856021503303"><ele>1034.0</ele><time>2026-03-28T11:51:56.999Z</time></trkpt><trkpt lat="44.670473491054175" lon="9.478658801128509"><ele>1034.0</ele><time>2026-03-28T11:51:59.999Z</time></trkpt><trkpt lat="44.67047434510926" lon="9.478768317183597"><ele>1034.0</ele><time>2026-03-28T11:52:03.999Z</time></trkpt><trkpt lat="44.67048094261066" lon="9.478861855448631"><ele>1034.0</ele><time>2026-03-28T11:52:06.999Z</time></trkpt><trkpt lat="44.670479818004075" lon="9.478958001844985"><ele>1034.0</ele><time>2026-03-28T11:52:09.999Z</time></trkpt><trkpt lat="44.670479753156535" lon="9.479076185401519"><ele>1034.0</ele><time>2026-03-28T11:52:13.999Z</time></trkpt><trkpt lat="44.67048796777558" lon="9.47917861687229"><ele>1035.0</ele><time>2026-03-28T11:52:17.999Z</time></trkpt><trkpt lat="44.67049993702301" lon="9.479280161808381"><ele>1036.0</ele><time>2026-03-28T11:52:22.998Z</time></trkpt><trkpt lat="44.67049281726302" lon="9.479372230267824"><ele>1037.0</ele><time>2026-03-28T11:52:29.998Z</time></trkpt><trkpt lat="44.670557427596805" lon="9.4793768551878"><ele>1038.0</ele><time>2026-03-28T11:54:56Z</time></trkpt><trkpt lat="44.670633670338496" lon="9.479413374380654"><ele>1039.0</ele><time>2026-03-28T11:55:01Z</time></trkpt><trkpt lat="44.67069078053835" lon="9.479454318371959"><ele>1040.0</ele><time>2026-03-28T11:55:05Z</time></trkpt><trkpt lat="44.67074945482049" lon="9.47949315862637"><ele>1041.0</ele><time>2026-03-28T11:55:09Z</time></trkpt><trkpt lat="44.67080648527409" lon="9.479541158519645"><ele>1042.2857142857142</ele><time>2026-03-28T11:55:13Z</time></trkpt><trkpt lat="44.670854533702034" lon="9.479604801932984"><ele>1043.5714285714287</ele><time>2026-03-28T11:55:17Z</time></trkpt><trkpt lat="44.67088525155715" lon="9.479707467330986"><ele>1044.857142857143</ele><time>2026-03-28T11:55:22Z</time></trkpt><trkpt lat="44.67089613119928" lon="9.479794962832273"><ele>1046.142857142857</ele><time>2026-03-28T11:55:26Z</time></trkpt><trkpt lat="44.670923985576316" lon="9.47988597951487"><ele>1047.4285714285716</ele><time>2026-03-28T11:55:31Z</time></trkpt><trkpt lat="44.6709318009242" lon="9.479990686935142"><ele>1048.7142857142858</ele><time>2026-03-28T11:55:34.999Z</time></trkpt><trkpt lat="44.67095318266693" lon="9.480109297513827"><ele>1050.0</ele><time>2026-03-28T11:55:39.999Z</time></trkpt><trkpt lat="44.670967307020895" lon="9.480235684947631"><ele>1050.0</ele><time>2026-03-28T11:55:44.999Z</time></trkpt><trkpt lat="44.67096940296089" lon="9.480330085657279"><ele>1050.0</ele><time>2026-03-28T11:55:48.999Z</time></trkpt><trkpt lat="44.671001369434336" lon="9.480431441804688"><ele>1050.0</ele><time>2026-03-28T11:55:52.999Z</time></trkpt><trkpt lat="44.67103339106821" lon="9.480518540699151"><ele>1050.0</ele><time>2026-03-28T11:55:56.999Z</time></trkpt><trkpt lat="44.67106822986402" lon="9.4806002999381"><ele>1050.0</ele><time>2026-03-28T11:56:00.999Z</time></trkpt><trkpt lat="44.671111744811896" lon="9.48067716451949"><ele>1050.0</ele><time>2026-03-28T11:56:03.999Z</time></trkpt><trkpt lat="44.67115814810162" lon="9.480751147553676"><ele>1050.0</ele><time>2026-03-28T11:56:07.999Z</time></trkpt><trkpt lat="44.67121234576972" lon="9.480823244652557"><ele>1052.5</ele><time>2026-03-28T11:56:11.999Z</time></trkpt><trkpt lat="44.671274775870984" lon="9.48086384765843"><ele>1055.0</ele><time>2026-03-28T11:56:14.999Z</time></trkpt><trkpt lat="44.67135358275571" lon="9.48089995747801"><ele>1057.5</ele><time>2026-03-28T11:56:18.999Z</time></trkpt><trkpt lat="44.671420337404875" lon="9.48092030220558"><ele>1060.0</ele><time>2026-03-28T11:56:21.999Z</time></trkpt><trkpt lat="44.671491042325705" lon="9.480959679962856"><ele>1062.5</ele><time>2026-03-28T11:56:24.999Z</time></trkpt><trkpt lat="44.67156474901752" lon="9.481034020258296"><ele>1065.0</ele><time>2026-03-28T11:56:28.998Z</time></trkpt><trkpt lat="44.671622230558846" lon="9.481132223015237"><ele>1065.0</ele><time>2026-03-28T11:56:30.998Z</time></trkpt><trkpt lat="44.6716591622691" lon="9.481205906742147"><ele>1065.0</ele><time>2026-03-28T11:56:32.998Z</time></trkpt><trkpt lat="44.67170976899507" lon="9.481278492489714"><ele>1065.0</ele><time>2026-03-28T11:56:34.998Z</time></trkpt><trkpt lat="44.671759064561385" lon="9.481354363659905"><ele>1065.0</ele><time>2026-03-28T11:56:36.998Z</time></trkpt><trkpt lat="44.67181335816251" lon="9.481402808791914"><ele>1065.0</ele><time>2026-03-28T11:56:38.998Z</time></trkpt><trkpt lat="44.67187403491411" lon="9.481474171568056"><ele>1065.0</ele><time>2026-03-28T11:56:41.998Z</time></trkpt><trkpt lat="44.671941757332036" lon="9.481538649368613"><ele>1065.0</ele><time>2026-03-28T11:56:45.998Z</time></trkpt><trkpt lat="44.672000734767124" lon="9.481591628760947"><ele>1066.142857142857</ele><time>2026-03-28T11:56:50Z</time></trkpt><trkpt lat="44.67205678041498" lon="9.481637364968591"><ele>1067.2857142857142</ele><time>2026-03-28T11:56:53Z</time></trkpt><trkpt lat="44.672124395170634" lon="9.481692024223623"><ele>1068.4285714285713</ele><time>2026-03-28T11:56:57Z</time></trkpt><trkpt lat="44.67218805339808" lon="9.481760671384814"><ele>1069.5714285714284</ele><time>2026-03-28T11:57:01Z</time></trkpt><trkpt lat="44.67224236073024" lon="9.481808666368822"><ele>1070.7142857142856</ele><time>2026-03-28T11:57:04Z</time></trkpt><trkpt lat="44.672288156143644" lon="9.481871066124148"><ele>1071.857142857143</ele><time>2026-03-28T11:57:07Z</time></trkpt><trkpt lat="44.672341349712255" lon="9.481948127673615"><ele>1073.0</ele><time>2026-03-28T11:57:10Z</time></trkpt><trkpt lat="44.67239055720483" lon="9.482037135831089"><ele>1071.5714285714284</ele><time>2026-03-28T11:57:13Z</time></trkpt><trkpt lat="44.672433825524855" lon="9.482125788370249"><ele>1070.142857142857</ele><time>2026-03-28T11:57:16Z</time></trkpt><trkpt lat="44.67247851575518" lon="9.482203895501163"><ele>1068.7142857142858</ele><time>2026-03-28T11:57:19Z</time></trkpt><trkpt lat="44.672516356319676" lon="9.482281652852974"><ele>1067.2857142857142</ele><time>2026-03-28T11:57:22Z</time></trkpt><trkpt lat="44.67256260140452" lon="9.482353686411171"><ele>1065.857142857143</ele><time>2026-03-28T11:57:25Z</time></trkpt><trkpt lat="44.67262494382803" lon="9.482409357657435"><ele>1064.4285714285713</ele><time>2026-03-28T11:57:28Z</time></trkpt><trkpt lat="44.67269456931858" lon="9.482455130125443"><ele>1063.0</ele><time>2026-03-28T11:57:31Z</time></trkpt><trkpt lat="44.67276535769201" lon="9.482500965185082"><ele>1065.7142857142858</ele><time>2026-03-28T11:57:34Z</time></trkpt><trkpt lat="44.672842995402874" lon="9.482539461412342"><ele>1068.4285714285716</ele><time>2026-03-28T11:57:37Z</time></trkpt><trkpt lat="44.6729211928921" lon="9.482574392115454"><ele>1071.1428571428573</ele><time>2026-03-28T11:57:40.999Z</time></trkpt><trkpt lat="44.672992622463816" lon="9.482602947009127"><ele>1073.857142857143</ele><time>2026-03-28T11:57:43.999Z</time></trkpt><trkpt lat="44.673060834167224" lon="9.482627304471487"><ele>1076.5714285714287</ele><time>2026-03-28T11:57:46.999Z</time></trkpt><trkpt lat="44.67312399857975" lon="9.482644738406647"><ele>1079.2857142857144</ele><time>2026-03-28T11:57:49.999Z</time></trkpt><trkpt lat="44.67318789495914" lon="9.482656683051259"><ele>1082.0</ele><time>2026-03-28T11:57:52.999Z</time></trkpt><trkpt lat="44.673258956810756" lon="9.482679299046064"><ele>1082.0000000000002</ele><time>2026-03-28T11:57:56.999Z</time></trkpt><trkpt lat="44.67332968668032" lon="9.482740395853702"><ele>1082.0</ele><time>2026-03-28T11:58:00.999Z</time></trkpt><trkpt lat="44.67338294280246" lon="9.482811106293429"><ele>1082.0</ele><time>2026-03-28T11:58:04.999Z</time></trkpt><trkpt lat="44.673442905022675" lon="9.482882066457062"><ele>1082.0</ele><time>2026-03-28T11:58:08.999Z</time></trkpt><trkpt lat="44.67350931751587" lon="9.482937127876824"><ele>1082.0</ele><time>2026-03-28T11:58:12.999Z</time></trkpt><trkpt lat="44.67356878143326" lon="9.482967126687948"><ele>1082.0000000000002</ele><time>2026-03-28T11:58:15.999Z</time></trkpt><trkpt lat="44.6736352143159" lon="9.482997412551294"><ele>1082.0</ele><time>2026-03-28T11:58:18.999Z</time></trkpt><trkpt lat="44.67370023355288" lon="9.483034572139264"><ele>1085.1666666666667</ele><time>2026-03-28T11:58:21.999Z</time></trkpt><trkpt lat="44.67376307294451" lon="9.483072439937036"><ele>1088.3333333333335</ele><time>2026-03-28T11:58:24.999Z</time></trkpt><trkpt lat="44.67384300949027" lon="9.483113884774095"><ele>1091.5</ele><time>2026-03-28T11:58:28.999Z</time></trkpt><trkpt lat="44.67392132672505" lon="9.483124133109145"><ele>1094.6666666666667</ele><time>2026-03-28T11:58:32.998Z</time></trkpt><trkpt lat="44.67399483989176" lon="9.483127482156199"><ele>1097.8333333333333</ele><time>2026-03-28T11:58:36.998Z</time></trkpt><trkpt lat="44.67406684076217" lon="9.48311969070217"><ele>1101.0</ele><time>2026-03-28T11:58:40.998Z</time></trkpt><trkpt lat="44.674142009030106" lon="9.483103403833994"><ele>1101.0</ele><time>2026-03-28T11:58:44.998Z</time></trkpt><trkpt lat="44.674211788456375" lon="9.483086025866305"><ele>1101.0</ele><time>2026-03-28T11:58:48.998Z</time></trkpt><trkpt lat="44.67428047215512" lon="9.483095341474973"><ele>1101.0</ele><time>2026-03-28T11:58:52.998Z</time></trkpt><trkpt lat="44.67434882855072" lon="9.483102617961322"><ele>1101.0</ele><time>2026-03-28T11:58:57Z</time></trkpt><trkpt lat="44.6744219592941" lon="9.483105073910492"><ele>1101.0</ele><time>2026-03-28T11:59:01Z</time></trkpt><trkpt lat="44.67449199347914" lon="9.4831140404156"><ele>1101.0</ele><time>2026-03-28T11:59:05Z</time></trkpt><trkpt lat="44.67456005896248" lon="9.483116949992754"><ele>1101.0</ele><time>2026-03-28T11:59:09Z</time></trkpt><trkpt lat="44.67462638313148" lon="9.483123353170376"><ele>1102.0</ele><time>2026-03-28T11:59:13Z</time></trkpt><trkpt lat="44.67469804288573" lon="9.4831021099699"><ele>1103.0</ele><time>2026-03-28T11:59:17Z</time></trkpt><trkpt lat="44.674771384154646" lon="9.483072830870118"><ele>1104.0</ele><time>2026-03-28T11:59:21Z</time></trkpt><trkpt lat="44.67483413606862" lon="9.48304755337559"><ele>1105.0</ele><time>2026-03-28T11:59:24Z</time></trkpt><trkpt lat="44.6748957529932" lon="9.482999636719557"><ele>1106.0</ele><time>2026-03-28T11:59:27Z</time></trkpt><trkpt lat="44.67495952392908" lon="9.482967830332043"><ele>1107.0</ele><time>2026-03-28T11:59:30Z</time></trkpt><trkpt lat="44.675026806911404" lon="9.482933872679073"><ele>1108.0</ele><time>2026-03-28T11:59:33Z</time></trkpt><trkpt lat="44.67509394017094" lon="9.482924014009146"><ele>1108.3333333333333</ele><time>2026-03-28T11:59:36Z</time></trkpt><trkpt lat="44.675171019020894" lon="9.4829415753587"><ele>1108.6666666666665</ele><time>2026-03-28T11:59:39Z</time></trkpt><trkpt lat="44.67524601352963" lon="9.48298134139993"><ele>1109.0</ele><time>2026-03-28T11:59:42Z</time></trkpt><trkpt lat="44.6753129583918" lon="9.483027055317477"><ele>1109.3333333333333</ele><time>2026-03-28T11:59:44.999Z</time></trkpt><trkpt lat="44.6753847987053" lon="9.48307032943666"><ele>1109.6666666666667</ele><time>2026-03-28T11:59:48.999Z</time></trkpt><trkpt lat="44.67544994863484" lon="9.483105419151455"><ele>1110.0</ele><time>2026-03-28T11:59:51.999Z</time></trkpt><trkpt lat="44.675516805905716" lon="9.483130747334533"><ele>1110.7142857142858</ele><time>2026-03-28T11:59:54.999Z</time></trkpt><trkpt lat="44.67559091852103" lon="9.483156990728531"><ele>1111.4285714285716</ele><time>2026-03-28T11:59:58.999Z</time></trkpt><trkpt lat="44.67565400050522" lon="9.483173199061017"><ele>1112.142857142857</ele><time>2026-03-28T12:00:01.999Z</time></trkpt><trkpt lat="44.67571726464825" lon="9.483184078533668"><ele>1112.857142857143</ele><time>2026-03-28T12:00:04.999Z</time></trkpt><trkpt lat="44.67577942061463" lon="9.483213042408911"><ele>1113.5714285714284</ele><time>2026-03-28T12:00:07.999Z</time></trkpt><trkpt lat="44.675858309880134" lon="9.483228494543736"><ele>1114.2857142857142</ele><time>2026-03-28T12:00:10.999Z</time></trkpt><trkpt lat="44.67594027008337" lon="9.483251129562905"><ele>1115.0</ele><time>2026-03-28T12:00:13.999Z</time></trkpt><trkpt lat="44.676026833637685" lon="9.48327050706963"><ele>1116.0</ele><time>2026-03-28T12:00:16.999Z</time></trkpt><trkpt lat="44.67611376627733" lon="9.483291488850817"><ele>1117.0</ele><time>2026-03-28T12:00:19.999Z</time></trkpt><trkpt lat="44.676186855547634" lon="9.483314811271232"><ele>1118.0</ele><time>2026-03-28T12:00:22.999Z</time></trkpt><trkpt lat="44.67625706011046" lon="9.483333472891118"><ele>1119.0</ele><time>2026-03-28T12:00:25.999Z</time></trkpt><trkpt lat="44.676327379091205" lon="9.48335038163418"><ele>1120.0</ele><time>2026-03-28T12:00:28.999Z</time></trkpt><trkpt lat="44.6764133405759" lon="9.483367109334388"><ele>1121.0</ele><time>2026-03-28T12:00:32.999Z</time></trkpt><trkpt lat="44.67648825756057" lon="9.483392283933977"><ele>1121.0</ele><time>2026-03-28T12:00:36.998Z</time></trkpt><trkpt lat="44.67655677263286" lon="9.483399330640854"><ele>1121.0</ele><time>2026-03-28T12:00:39.998Z</time></trkpt><trkpt lat="44.676626413271656" lon="9.483405255703842"><ele>1121.0</ele><time>2026-03-28T12:00:42.998Z</time></trkpt><trkpt lat="44.6767103241586" lon="9.483411170608637"><ele>1121.0</ele><time>2026-03-28T12:00:45.998Z</time></trkpt><trkpt lat="44.67679039309906" lon="9.483421476737758"><ele>1121.0</ele><time>2026-03-28T12:00:49.998Z</time></trkpt><trkpt lat="44.67686982098998" lon="9.48342655258985"><ele>1121.0</ele><time>2026-03-28T12:00:52.998Z</time></trkpt><trkpt lat="44.67695508808592" lon="9.4834347161473"><ele>1122.2857142857142</ele><time>2026-03-28T12:00:55.998Z</time></trkpt><trkpt lat="44.677040725807196" lon="9.483463353545622"><ele>1123.5714285714284</ele><time>2026-03-28T12:00:58.998Z</time></trkpt><trkpt lat="44.67710160214913" lon="9.4834963931185"><ele>1124.8571428571427</ele><time>2026-03-28T12:01:01Z</time></trkpt><trkpt lat="44.67716387207038" lon="9.483526243238204"><ele>1126.142857142857</ele><time>2026-03-28T12:01:02Z</time></trkpt><trkpt lat="44.6772342900174" lon="9.483541811045493"><ele>1127.4285714285713</ele><time>2026-03-28T12:01:05Z</time></trkpt><trkpt lat="44.67730776932186" lon="9.483554675209401"><ele>1128.7142857142856</ele><time>2026-03-28T12:01:07Z</time></trkpt><trkpt lat="44.677370966272264" lon="9.483564790143332"><ele>1130.0</ele><time>2026-03-28T12:01:08Z</time></trkpt><trkpt lat="44.67743458566849" lon="9.48358215292214"><ele>1130.0</ele><time>2026-03-28T12:01:10Z</time></trkpt><trkpt lat="44.67750465975625" lon="9.483601910288376"><ele>1130.0</ele><time>2026-03-28T12:01:12Z</time></trkpt><trkpt lat="44.67757449310218" lon="9.483615529217312"><ele>1130.0</ele><time>2026-03-28T12:01:14Z</time></trkpt><trkpt lat="44.67764068428023" lon="9.48364032315272"><ele>1130.0</ele><time>2026-03-28T12:01:17Z</time></trkpt><trkpt lat="44.6777272841346" lon="9.483678287305304"><ele>1130.0</ele><time>2026-03-28T12:01:20Z</time></trkpt><trkpt lat="44.67779700000861" lon="9.483716627650429"><ele>1130.0</ele><time>2026-03-28T12:01:22Z</time></trkpt><trkpt lat="44.677860993166846" lon="9.483771023279468"><ele>1131.0</ele><time>2026-03-28T12:01:25Z</time></trkpt><trkpt lat="44.67791733378511" lon="9.483828030777548"><ele>1132.0</ele><time>2026-03-28T12:01:28Z</time></trkpt><trkpt lat="44.67797948502672" lon="9.48389436085569"><ele>1133.0</ele><time>2026-03-28T12:01:32Z</time></trkpt><trkpt lat="44.678043525638174" lon="9.483978478322273"><ele>1134.0</ele><time>2026-03-28T12:01:36Z</time></trkpt><trkpt lat="44.67809403391232" lon="9.484048822358009"><ele>1135.0</ele><time>2026-03-28T12:01:40Z</time></trkpt><trkpt lat="44.67813657388195" lon="9.484118793467228"><ele>1136.0</ele><time>2026-03-28T12:01:43Z</time></trkpt><trkpt lat="44.678198285314984" lon="9.48421214995268"><ele>1136.0</ele><time>2026-03-28T12:01:47.999Z</time></trkpt><trkpt lat="44.678253494235655" lon="9.484292027185727"><ele>1136.0</ele><time>2026-03-28T12:01:51.999Z</time></trkpt><trkpt lat="44.6783042737847" lon="9.484376771405044"><ele>1136.0</ele><time>2026-03-28T12:01:55.999Z</time></trkpt><trkpt lat="44.67836614962488" lon="9.484439592666225"><ele>1136.0</ele><time>2026-03-28T12:01:59.999Z</time></trkpt><trkpt lat="44.678434951841595" lon="9.484486187696161"><ele>1136.0</ele><time>2026-03-28T12:02:03.999Z</time></trkpt><trkpt lat="44.678508278092856" lon="9.48452749079717"><ele>1136.0</ele><time>2026-03-28T12:02:07.999Z</time></trkpt><trkpt lat="44.67858403704244" lon="9.484561606037076"><ele>1136.142857142857</ele><time>2026-03-28T12:02:11.999Z</time></trkpt><trkpt lat="44.67866336302279" lon="9.484580261770454"><ele>1136.2857142857142</ele><time>2026-03-28T12:02:15.999Z</time></trkpt><trkpt lat="44.67873953281035" lon="9.484603801290636"><ele>1136.4285714285713</ele><time>2026-03-28T12:02:19.999Z</time></trkpt><trkpt lat="44.67881732528977" lon="9.484639506973062"><ele>1136.5714285714284</ele><time>2026-03-28T12:02:23.999Z</time></trkpt><trkpt lat="44.67887714081053" lon="9.48467026710369"><ele>1136.7142857142858</ele><time>2026-03-28T12:02:26.999Z</time></trkpt><trkpt lat="44.67893373894709" lon="9.484709651673345"><ele>1136.8571428571427</ele><time>2026-03-28T12:02:29.999Z</time></trkpt><trkpt lat="44.678999520394456" lon="9.484778869384048"><ele>1137.0</ele><time>2026-03-28T12:02:33.999Z</time></trkpt><trkpt lat="44.67904746156333" lon="9.484841793927568"><ele>1138.142857142857</ele><time>2026-03-28T12:02:36.999Z</time></trkpt><trkpt lat="44.679095049954825" lon="9.484907589018981"><ele>1139.2857142857142</ele><time>2026-03-28T12:02:39.998Z</time></trkpt><trkpt lat="44.67914102921244" lon="9.484974932687564"><ele>1140.4285714285716</ele><time>2026-03-28T12:02:42.998Z</time></trkpt><trkpt lat="44.6791845392911" lon="9.485047820815021"><ele>1141.5714285714284</ele><time>2026-03-28T12:02:45.998Z</time></trkpt><trkpt lat="44.67923514167172" lon="9.4851356717466"><ele>1142.7142857142858</ele><time>2026-03-28T12:02:49.998Z</time></trkpt><trkpt lat="44.679276139547966" lon="9.485208528169123"><ele>1143.857142857143</ele><time>2026-03-28T12:02:52.998Z</time></trkpt><trkpt lat="44.67931974694237" lon="9.485298964269893"><ele>1145.0</ele><time>2026-03-28T12:02:56.998Z</time></trkpt><trkpt lat="44.67936642237547" lon="9.485386100289523"><ele>1146.5</ele><time>2026-03-28T12:03:00.998Z</time></trkpt><trkpt lat="44.67941185377194" lon="9.485481049628643"><ele>1148.0</ele><time>2026-03-28T12:03:04.998Z</time></trkpt><trkpt lat="44.67945511094518" lon="9.485571208695916"><ele>1149.5</ele><time>2026-03-28T12:03:09Z</time></trkpt><trkpt lat="44.67950254932104" lon="9.485661776377778"><ele>1151.0</ele><time>2026-03-28T12:03:13Z</time></trkpt><trkpt lat="44.67954507515442" lon="9.485761104261071"><ele>1152.5</ele><time>2026-03-28T12:03:17Z</time></trkpt><trkpt lat="44.67958364117775" lon="9.485854904358787"><ele>1154.0</ele><time>2026-03-28T12:03:21Z</time></trkpt><trkpt lat="44.679624013226274" lon="9.485947607749468"><ele>1154.8333333333335</ele><time>2026-03-28T12:03:25Z</time></trkpt><trkpt lat="44.67967562521081" lon="9.48603335565944"><ele>1155.6666666666667</ele><time>2026-03-28T12:03:29Z</time></trkpt><trkpt lat="44.67971692508843" lon="9.486128640438052"><ele>1156.5</ele><time>2026-03-28T12:03:33Z</time></trkpt><trkpt lat="44.67975438899328" lon="9.486221550349715"><ele>1157.3333333333333</ele><time>2026-03-28T12:03:37Z</time></trkpt><trkpt lat="44.67979842681755" lon="9.486317945363318"><ele>1158.1666666666665</ele><time>2026-03-28T12:03:41Z</time></trkpt><trkpt lat="44.67983737832497" lon="9.486415088259971"><ele>1159.0</ele><time>2026-03-28T12:03:45Z</time></trkpt><trkpt lat="44.67988145788472" lon="9.486500257380909"><ele>1159.857142857143</ele><time>2026-03-28T12:03:48.999Z</time></trkpt><trkpt lat="44.679919210901176" lon="9.486584216143127"><ele>1160.7142857142858</ele><time>2026-03-28T12:03:52.999Z</time></trkpt><trkpt lat="44.67995773807844" lon="9.486668752235156"><ele>1161.5714285714284</ele><time>2026-03-28T12:03:56.999Z</time></trkpt><trkpt lat="44.67999972996426" lon="9.486757641583274"><ele>1162.4285714285716</ele><time>2026-03-28T12:04:00.999Z</time></trkpt><trkpt lat="44.68004396191695" lon="9.486840571983764"><ele>1163.2857142857142</ele><time>2026-03-28T12:04:04.999Z</time></trkpt><trkpt lat="44.68009144185553" lon="9.486925642573913"><ele>1164.142857142857</ele><time>2026-03-28T12:04:08.999Z</time></trkpt><trkpt lat="44.680139743181186" lon="9.487012243009994"><ele>1165.0</ele><time>2026-03-28T12:04:12.999Z</time></trkpt><trkpt lat="44.68019447217122" lon="9.487087436400687"><ele>1165.8571428571427</ele><time>2026-03-28T12:04:16.999Z</time></trkpt><trkpt lat="44.680251447244686" lon="9.487153347851626"><ele>1166.7142857142858</ele><time>2026-03-28T12:04:20.999Z</time></trkpt><trkpt lat="44.680304829812826" lon="9.487229957457396"><ele>1167.5714285714284</ele><time>2026-03-28T12:04:24.999Z</time></trkpt><trkpt lat="44.68034448783186" lon="9.487312405383992"><ele>1168.4285714285713</ele><time>2026-03-28T12:04:28.999Z</time></trkpt><trkpt lat="44.680385142703855" lon="9.487389226263375"><ele>1169.2857142857142</ele><time>2026-03-28T12:04:32.999Z</time></trkpt><trkpt lat="44.680433489956876" lon="9.487458361577495"><ele>1170.142857142857</ele><time>2026-03-28T12:04:36.999Z</time></trkpt><trkpt lat="44.6804726977292" lon="9.487536494578665"><ele>1171.0</ele><time>2026-03-28T12:04:40.998Z</time></trkpt><trkpt lat="44.68050204611939" lon="9.487615828024092"><ele>1173.0</ele><time>2026-03-28T12:04:44.998Z</time></trkpt><trkpt lat="44.68053367977494" lon="9.48769288987664"><ele>1175.0</ele><time>2026-03-28T12:04:48.998Z</time></trkpt><trkpt lat="44.680577640952535" lon="9.487785287312796"><ele>1177.0</ele><time>2026-03-28T12:04:53.998Z</time></trkpt><trkpt lat="44.68060546381411" lon="9.487865239420135"><ele>1179.0</ele><time>2026-03-28T12:04:57.998Z</time></trkpt><trkpt lat="44.68062193349386" lon="9.487953666351872"><ele>1181.0</ele><time>2026-03-28T12:05:01.998Z</time></trkpt><trkpt lat="44.680626231866704" lon="9.488042917515967"><ele>1183.0</ele><time>2026-03-28T12:05:05.998Z</time></trkpt><trkpt lat="44.68062290147404" lon="9.48814639677441"><ele>1185.0</ele><time>2026-03-28T12:05:10.998Z</time></trkpt><trkpt lat="44.68059626805091" lon="9.488238494807668"><ele>1186.142857142857</ele><time>2026-03-28T12:05:16Z</time></trkpt><trkpt lat="44.6805689009539" lon="9.48831835690267"><ele>1187.2857142857142</ele><time>2026-03-28T12:05:20Z</time></trkpt><trkpt lat="44.68053881911465" lon="9.488422872524469"><ele>1188.4285714285713</ele><time>2026-03-28T12:05:25Z</time></trkpt><trkpt lat="44.68053198763972" lon="9.488514901694778"><ele>1189.5714285714284</ele><time>2026-03-28T12:05:29Z</time></trkpt><trkpt lat="44.6805559805935" lon="9.488612696637839"><ele>1190.7142857142858</ele><time>2026-03-28T12:05:33Z</time></trkpt><trkpt lat="44.68059720185968" lon="9.488679756167933"><ele>1191.8571428571427</ele><time>2026-03-28T12:05:36Z</time></trkpt><trkpt lat="44.680659372519074" lon="9.488731592733016"><ele>1193.0</ele><time>2026-03-28T12:05:39Z</time></trkpt><trkpt lat="44.68072451338319" lon="9.48878032967789"><ele>1192.9999999999998</ele><time>2026-03-28T12:05:43Z</time></trkpt><trkpt lat="44.68079308842722" lon="9.48881412402599"><ele>1193.0</ele><time>2026-03-28T12:05:47Z</time></trkpt><trkpt lat="44.680856107823914" lon="9.48884225429877"><ele>1193.0</ele><time>2026-03-28T12:05:51Z</time></trkpt><trkpt lat="44.68091173655663" lon="9.488897420745047"><ele>1193.0</ele><time>2026-03-28T12:05:54.999Z</time></trkpt><trkpt lat="44.680893700044685" lon="9.488782561934777"><ele>1193.0</ele><time>2026-03-28T12:08:09.999Z</time></trkpt><trkpt lat="44.680825669891014" lon="9.48873595992878"><ele>1192.9999999999998</ele><time>2026-03-28T12:08:13.999Z</time></trkpt><trkpt lat="44.6808790931644" lon="9.48879812817771"><ele>1193.0</ele><time>2026-03-28T12:11:11.998Z</time></trkpt><trkpt lat="44.68092477759656" lon="9.488875008412093"><ele>1193.6</ele><time>2026-03-28T12:11:16.998Z</time></trkpt><trkpt lat="44.68095406877495" lon="9.488957764742127"><ele>1194.1999999999998</ele><time>2026-03-28T12:16:30.999Z</time></trkpt><trkpt lat="44.68100753660457" lon="9.489072972736988"><ele>1194.8</ele><time>2026-03-28T12:16:33.999Z</time></trkpt><trkpt lat="44.681082059282424" lon="9.489155408535577"><ele>1195.3999999999999</ele><time>2026-03-28T12:16:35.999Z</time></trkpt><trkpt lat="44.68117064341208" lon="9.489163940380923"><ele>1196.0</ele><time>2026-03-28T12:16:37.999Z</time></trkpt><trkpt lat="44.681276527117966" lon="9.489123645379795"><ele>1193.8</ele><time>2026-03-28T12:16:39.999Z</time></trkpt><trkpt lat="44.681369178679965" lon="9.489060802257603"><ele>1191.6</ele><time>2026-03-28T12:16:41.999Z</time></trkpt><trkpt lat="44.68145613738049" lon="9.489042421484648"><ele>1189.4</ele><time>2026-03-28T12:16:43.999Z</time></trkpt><trkpt lat="44.68155406847233" lon="9.489093192038744"><ele>1187.2</ele><time>2026-03-28T12:16:45.999Z</time></trkpt><trkpt lat="44.681621438433076" lon="9.489206518835394"><ele>1185.0</ele><time>2026-03-28T12:16:47.999Z</time></trkpt><trkpt lat="44.681687288008206" lon="9.489315090729795"><ele>1185.0</ele><time>2026-03-28T12:16:49.999Z</time></trkpt><trkpt lat="44.681751365661455" lon="9.489422603614095"><ele>1185.0</ele><time>2026-03-28T12:16:51.999Z</time></trkpt><trkpt lat="44.681834049949174" lon="9.489538746994139"><ele>1185.0</ele><time>2026-03-28T12:16:53.999Z</time></trkpt><trkpt lat="44.681944579595815" lon="9.489606324355035"><ele>1185.0</ele><time>2026-03-28T12:16:55.999Z</time></trkpt><trkpt lat="44.68200959345451" lon="9.489616302880629"><ele>1185.0</ele><time>2026-03-28T12:16:56.999Z</time></trkpt><trkpt lat="44.68207788569336" lon="9.489628383425716"><ele>1181.6666666666667</ele><time>2026-03-28T12:16:57.999Z</time></trkpt><trkpt lat="44.68214639661165" lon="9.489649080651713"><ele>1178.3333333333333</ele><time>2026-03-28T12:16:58.999Z</time></trkpt><trkpt lat="44.68220622807417" lon="9.48969403335082"><ele>1175.0</ele><time>2026-03-28T12:16:59.999Z</time></trkpt><trkpt lat="44.682258099881864" lon="9.489754138841272"><ele>1171.6666666666665</ele><time>2026-03-28T12:17:00.999Z</time></trkpt><trkpt lat="44.68234117879969" lon="9.489892561387045"><ele>1168.3333333333333</ele><time>2026-03-28T12:17:02.999Z</time></trkpt><trkpt lat="44.68238655126952" lon="9.48995785660127"><ele>1165.0</ele><time>2026-03-28T12:17:03.999Z</time></trkpt><trkpt lat="44.68249759162356" lon="9.490021737666336"><ele>1165.0</ele><time>2026-03-28T12:17:05.999Z</time></trkpt><trkpt lat="44.68256302268801" lon="9.49002907049134"><ele>1165.0</ele><time>2026-03-28T12:17:06.999Z</time></trkpt><trkpt lat="44.682630488107236" lon="9.490034361772725"><ele>1165.0</ele><time>2026-03-28T12:17:07.999Z</time></trkpt><trkpt lat="44.68270248449819" lon="9.490018392822245"><ele>1165.0</ele><time>2026-03-28T12:17:08.998Z</time></trkpt><trkpt lat="44.68276993010435" lon="9.49006117596752"><ele>1165.0</ele><time>2026-03-28T12:17:09.998Z</time></trkpt><trkpt lat="44.68281138091395" lon="9.49014013510717"><ele>1165.0</ele><time>2026-03-28T12:17:10.998Z</time></trkpt><trkpt lat="44.68286878947336" lon="9.490275704573568"><ele>1164.8571428571427</ele><time>2026-03-28T12:17:12.998Z</time></trkpt><trkpt lat="44.68289867714003" lon="9.490421750929613"><ele>1164.7142857142858</ele><time>2026-03-28T12:17:14.998Z</time></trkpt><trkpt lat="44.68292518539407" lon="9.490503438981161"><ele>1164.5714285714284</ele><time>2026-03-28T12:17:15.998Z</time></trkpt><trkpt lat="44.68295630386032" lon="9.490584139731121"><ele>1164.4285714285713</ele><time>2026-03-28T12:17:16.998Z</time></trkpt><trkpt lat="44.68299959225725" lon="9.490655834857721"><ele>1164.2857142857142</ele><time>2026-03-28T12:17:17.998Z</time></trkpt><trkpt lat="44.68304630512318" lon="9.490720238900375"><ele>1164.142857142857</ele><time>2026-03-28T12:17:18.998Z</time></trkpt><trkpt lat="44.68309679760595" lon="9.490775282779477"><ele>1164.0</ele><time>2026-03-28T12:17:19.998Z</time></trkpt><trkpt lat="44.68314564887041" lon="9.490831383098218"><ele>1161.3333333333333</ele><time>2026-03-28T12:17:20.998Z</time></trkpt><trkpt lat="44.68319515707078" lon="9.490887688352505"><ele>1158.6666666666667</ele><time>2026-03-28T12:17:21.998Z</time></trkpt><trkpt lat="44.68324919420058" lon="9.490947842014828"><ele>1156.0</ele><time>2026-03-28T12:17:22.998Z</time></trkpt><trkpt lat="44.683300599754794" lon="9.491008118901123"><ele>1153.3333333333335</ele><time>2026-03-28T12:17:23.998Z</time></trkpt><trkpt lat="44.68340927576692" lon="9.491075783857042"><ele>1150.6666666666667</ele><time>2026-03-28T12:17:25.998Z</time></trkpt><trkpt lat="44.68351657731804" lon="9.491077579860411"><ele>1148.0</ele><time>2026-03-28T12:17:27.998Z</time></trkpt><trkpt lat="44.6835822835968" lon="9.491052308590918"><ele>1147.0</ele><time>2026-03-28T12:17:28.998Z</time></trkpt><trkpt lat="44.68365154397437" lon="9.491033519322356"><ele>1146.0</ele><time>2026-03-28T12:17:29.998Z</time></trkpt><trkpt lat="44.68371908695735" lon="9.491039407752984"><ele>1145.0</ele><time>2026-03-28T12:17:30.998Z</time></trkpt><trkpt lat="44.68378073626605" lon="9.49114041739216"><ele>1144.0</ele><time>2026-03-28T12:17:31.998Z</time></trkpt><trkpt lat="44.68382894623729" lon="9.491211412145846"><ele>1143.0</ele><time>2026-03-28T12:17:32.998Z</time></trkpt><trkpt lat="44.68385130773888" lon="9.491300696079664"><ele>1142.0</ele><time>2026-03-28T12:17:33.998Z</time></trkpt><trkpt lat="44.68389558243077" lon="9.491444748924131"><ele>1142.0</ele><time>2026-03-28T12:17:35.998Z</time></trkpt><trkpt lat="44.68394184407308" lon="9.49157786819362"><ele>1142.0</ele><time>2026-03-28T12:17:37.998Z</time></trkpt><trkpt lat="44.683996008342795" lon="9.491687728548069"><ele>1142.0</ele><time>2026-03-28T12:17:39.998Z</time></trkpt><trkpt lat="44.68405532363587" lon="9.491779209061946"><ele>1142.0</ele><time>2026-03-28T12:17:41.998Z</time></trkpt><trkpt lat="44.68411795964133" lon="9.491846503090882"><ele>1142.0</ele><time>2026-03-28T12:17:43.998Z</time></trkpt><trkpt lat="44.68420125722051" lon="9.491927441028471"><ele>1142.0</ele><time>2026-03-28T12:17:45.998Z</time></trkpt><trkpt lat="44.68430471036882" lon="9.492028600198628"><ele>1142.0</ele><time>2026-03-28T12:17:48Z</time></trkpt><trkpt lat="44.68435271852721" lon="9.492104361275983"><ele>1142.0</ele><time>2026-03-28T12:17:49Z</time></trkpt><trkpt lat="44.684395561530415" lon="9.492185952055989"><ele>1142.0</ele><time>2026-03-28T12:17:50Z</time></trkpt><trkpt lat="44.68443219327508" lon="9.492278056236474"><ele>1142.0</ele><time>2026-03-28T12:17:51Z</time></trkpt><trkpt lat="44.684470384298564" lon="9.492349983770968"><ele>1142.0</ele><time>2026-03-28T12:17:52Z</time></trkpt><trkpt lat="44.684550624837115" lon="9.49246116393874"><ele>1139.3333333333335</ele><time>2026-03-28T12:17:54Z</time></trkpt><trkpt lat="44.68458286616886" lon="9.492571742248575"><ele>1136.6666666666667</ele><time>2026-03-28T12:17:56Z</time></trkpt><trkpt lat="44.68448639307933" lon="9.492651913015504"><ele>1134.0</ele><time>2026-03-28T12:17:57Z</time></trkpt><trkpt lat="44.68448719288501" lon="9.492777324661967"><ele>1131.3333333333333</ele><time>2026-03-28T12:17:59Z</time></trkpt><trkpt lat="44.684503780362" lon="9.492885145758791"><ele>1128.6666666666665</ele><time>2026-03-28T12:18:00Z</time></trkpt><trkpt lat="44.68455581691828" lon="9.492975892358812"><ele>1126.0</ele><time>2026-03-28T12:18:01Z</time></trkpt><trkpt lat="44.68458593159381" lon="9.493059980707102"><ele>1124.1666666666665</ele><time>2026-03-28T12:18:02Z</time></trkpt><trkpt lat="44.68461558789712" lon="9.493146841120028"><ele>1122.3333333333333</ele><time>2026-03-28T12:18:03Z</time></trkpt><trkpt lat="44.6846503698105" lon="9.493222912393705"><ele>1120.5</ele><time>2026-03-28T12:18:04Z</time></trkpt><trkpt lat="44.68470373963831" lon="9.493274572284022"><ele>1118.6666666666667</ele><time>2026-03-28T12:18:05Z</time></trkpt><trkpt lat="44.684774554434" lon="9.493261109268907"><ele>1116.8333333333335</ele><time>2026-03-28T12:18:06Z</time></trkpt><trkpt lat="44.68487003849828" lon="9.493154747191923"><ele>1115.0</ele><time>2026-03-28T12:18:08Z</time></trkpt><trkpt lat="44.684918178748525" lon="9.493082306541277"><ele>1115.0</ele><time>2026-03-28T12:18:09Z</time></trkpt><trkpt lat="44.6849692856689" lon="9.493018533840381"><ele>1115.0</ele><time>2026-03-28T12:18:10Z</time></trkpt><trkpt lat="44.68500414632996" lon="9.492920069776686"><ele>1115.0</ele><time>2026-03-28T12:18:11Z</time></trkpt><trkpt lat="44.68503594331565" lon="9.492818064298296"><ele>1115.0</ele><time>2026-03-28T12:18:12Z</time></trkpt><trkpt lat="44.68505795112991" lon="9.492718195677368"><ele>1115.0</ele><time>2026-03-28T12:18:13Z</time></trkpt><trkpt lat="44.685114298381116" lon="9.492575875046986"><ele>1115.0</ele><time>2026-03-28T12:18:14.999Z</time></trkpt><trkpt lat="44.685238924259366" lon="9.492549958718255"><ele>1113.6</ele><time>2026-03-28T12:18:16.999Z</time></trkpt><trkpt lat="44.685323520252325" lon="9.492588895612577"><ele>1112.2</ele><time>2026-03-28T12:18:17.999Z</time></trkpt><trkpt lat="44.685414971174275" lon="9.49259846792405"><ele>1110.8</ele><time>2026-03-28T12:18:18.999Z</time></trkpt><trkpt lat="44.685517917677075" lon="9.492610434166657"><ele>1109.4</ele><time>2026-03-28T12:18:19.999Z</time></trkpt><trkpt lat="44.685624683873755" lon="9.49262945579208"><ele>1108.0</ele><time>2026-03-28T12:18:20.999Z</time></trkpt><trkpt lat="44.685737186146696" lon="9.492631585768923"><ele>1108.0</ele><time>2026-03-28T12:18:21.999Z</time></trkpt><trkpt lat="44.68584363312816" lon="9.492624363398823"><ele>1108.0</ele><time>2026-03-28T12:18:22.999Z</time></trkpt><trkpt lat="44.68594833105345" lon="9.492618578968116"><ele>1108.0</ele><time>2026-03-28T12:18:23.999Z</time></trkpt><trkpt lat="44.68604833120038" lon="9.492620335083982"><ele>1108.0</ele><time>2026-03-28T12:18:24.999Z</time></trkpt><trkpt lat="44.68614324402024" lon="9.492618286216647"><ele>1108.0</ele><time>2026-03-28T12:18:25.999Z</time></trkpt><trkpt lat="44.68624132782491" lon="9.492608621807673"><ele>1107.2</ele><time>2026-03-28T12:18:26.999Z</time></trkpt><trkpt lat="44.68634566104597" lon="9.49259425488142"><ele>1106.4</ele><time>2026-03-28T12:18:27.999Z</time></trkpt><trkpt lat="44.686447928734225" lon="9.492582983751474"><ele>1105.6000000000001</ele><time>2026-03-28T12:18:28.999Z</time></trkpt><trkpt lat="44.68654672176485" lon="9.49257074294657"><ele>1104.8</ele><time>2026-03-28T12:18:29.999Z</time></trkpt><trkpt lat="44.686641935065786" lon="9.492567916108902"><ele>1104.0</ele><time>2026-03-28T12:18:30.999Z</time></trkpt><trkpt lat="44.68673026305065" lon="9.492574557260227"><ele>1104.0</ele><time>2026-03-28T12:18:31.999Z</time></trkpt><trkpt lat="44.686815609581934" lon="9.49259085132937"><ele>1104.0</ele><time>2026-03-28T12:18:32.999Z</time></trkpt><trkpt lat="44.6869007147357" lon="9.492613893339152"><ele>1104.0</ele><time>2026-03-28T12:18:33.999Z</time></trkpt><trkpt lat="44.68698815402163" lon="9.492630233254793"><ele>1104.0</ele><time>2026-03-28T12:18:34.999Z</time></trkpt><trkpt lat="44.68707243209258" lon="9.492639075252322"><ele>1104.0</ele><time>2026-03-28T12:18:35.999Z</time></trkpt><trkpt lat="44.687158954487664" lon="9.492639603717889"><ele>1104.0</ele><time>2026-03-28T12:18:36.999Z</time></trkpt><trkpt lat="44.68724114311375" lon="9.492663813299744"><ele>1104.3333333333333</ele><time>2026-03-28T12:18:37.999Z</time></trkpt><trkpt lat="44.687318274702164" lon="9.492709031834034"><ele>1104.6666666666667</ele><time>2026-03-28T12:18:38.999Z</time></trkpt><trkpt lat="44.687394990768446" lon="9.492754205486824"><ele>1105.0</ele><time>2026-03-28T12:18:39.999Z</time></trkpt><trkpt lat="44.687477756599385" lon="9.49278155178283"><ele>1105.3333333333335</ele><time>2026-03-28T12:18:40.999Z</time></trkpt><trkpt lat="44.68756098801619" lon="9.492792461804871"><ele>1105.6666666666667</ele><time>2026-03-28T12:18:41.999Z</time></trkpt><trkpt lat="44.68764385120933" lon="9.492803500301047"><ele>1106.0</ele><time>2026-03-28T12:18:42.999Z</time></trkpt><trkpt lat="44.68772523928694" lon="9.492790949141856"><ele>1105.0</ele><time>2026-03-28T12:18:43.999Z</time></trkpt><trkpt lat="44.68780453708085" lon="9.4927901998316"><ele>1104.0</ele><time>2026-03-28T12:18:44.999Z</time></trkpt><trkpt lat="44.687883237803504" lon="9.49277988855575"><ele>1103.0</ele><time>2026-03-28T12:18:45.999Z</time></trkpt><trkpt lat="44.68795038744754" lon="9.492743625909547"><ele>1102.0</ele><time>2026-03-28T12:18:46.999Z</time></trkpt><trkpt lat="44.68801571426323" lon="9.492702665904059"><ele>1101.0</ele><time>2026-03-28T12:18:47.999Z</time></trkpt><trkpt lat="44.68808415561025" lon="9.492658725578655"><ele>1100.0</ele><time>2026-03-28T12:18:48.999Z</time></trkpt><trkpt lat="44.688160503325484" lon="9.492638560322527"><ele>1100.0</ele><time>2026-03-28T12:18:49.999Z</time></trkpt><trkpt lat="44.68822615314712" lon="9.49257554826164"><ele>1100.0</ele><time>2026-03-28T12:18:50.999Z</time></trkpt><trkpt lat="44.68829718674117" lon="9.492534703301352"><ele>1100.0</ele><time>2026-03-28T12:18:51.999Z</time></trkpt><trkpt lat="44.68836243928079" lon="9.492497292533226"><ele>1100.0</ele><time>2026-03-28T12:18:52.999Z</time></trkpt><trkpt lat="44.68843718231102" lon="9.492532077480337"><ele>1100.0</ele><time>2026-03-28T12:18:53.999Z</time></trkpt><trkpt lat="44.688505744386056" lon="9.492588478577268"><ele>1100.0</ele><time>2026-03-28T12:18:54.999Z</time></trkpt><trkpt lat="44.68856988012469" lon="9.492672410636066"><ele>1099.2</ele><time>2026-03-28T12:18:55.999Z</time></trkpt><trkpt lat="44.6886482919547" lon="9.492744345648063"><ele>1098.4</ele><time>2026-03-28T12:18:56.999Z</time></trkpt><trkpt lat="44.68873222542185" lon="9.492796395505877"><ele>1097.6</ele><time>2026-03-28T12:18:57.999Z</time></trkpt><trkpt lat="44.68882514213451" lon="9.492796091026088"><ele>1096.8</ele><time>2026-03-28T12:18:58.999Z</time></trkpt><trkpt lat="44.68891440292548" lon="9.492776092672289"><ele>1096.0</ele><time>2026-03-28T12:18:59.999Z</time></trkpt><trkpt lat="44.689000801953405" lon="9.492767419967754"><ele>1096.0</ele><time>2026-03-28T12:19:00.999Z</time></trkpt><trkpt lat="44.689080448723765" lon="9.492773538225336"><ele>1096.0</ele><time>2026-03-28T12:19:01.999Z</time></trkpt><trkpt lat="44.689140512493914" lon="9.492898302718253"><ele>1096.0</ele><time>2026-03-28T12:19:02.999Z</time></trkpt><trkpt lat="44.68918423011514" lon="9.493007229921131"><ele>1096.0</ele><time>2026-03-28T12:19:03.999Z</time></trkpt><trkpt lat="44.68922547864511" lon="9.493113077388797"><ele>1096.0</ele><time>2026-03-28T12:19:04.999Z</time></trkpt><trkpt lat="44.68927783027973" lon="9.493193917737365"><ele>1096.0</ele><time>2026-03-28T12:19:05.999Z</time></trkpt><trkpt lat="44.68934091930039" lon="9.493256190577133"><ele>1094.1666666666665</ele><time>2026-03-28T12:19:06.999Z</time></trkpt><trkpt lat="44.68941902396892" lon="9.493288633500185"><ele>1092.3333333333333</ele><time>2026-03-28T12:19:07.999Z</time></trkpt><trkpt lat="44.6895047322202" lon="9.493278627263718"><ele>1090.5</ele><time>2026-03-28T12:19:08.999Z</time></trkpt><trkpt lat="44.689582873716375" lon="9.49329953652698"><ele>1088.6666666666667</ele><time>2026-03-28T12:19:09.999Z</time></trkpt><trkpt lat="44.68964911984897" lon="9.49336364624147"><ele>1086.8333333333335</ele><time>2026-03-28T12:19:10.999Z</time></trkpt><trkpt lat="44.68970839198086" lon="9.493431477532036"><ele>1085.0</ele><time>2026-03-28T12:19:11.999Z</time></trkpt><trkpt lat="44.68974906279733" lon="9.493535967306054"><ele>1084.8333333333335</ele><time>2026-03-28T12:19:12.999Z</time></trkpt><trkpt lat="44.68979650580443" lon="9.49363575763728"><ele>1084.6666666666667</ele><time>2026-03-28T12:19:13.999Z</time></trkpt><trkpt lat="44.689861457834375" lon="9.493690335020265"><ele>1084.5</ele><time>2026-03-28T12:19:14.999Z</time></trkpt><trkpt lat="44.68993509062497" lon="9.493647865419057"><ele>1084.3333333333333</ele><time>2026-03-28T12:19:15.999Z</time></trkpt><trkpt lat="44.6900087490001" lon="9.493631337059853"><ele>1084.1666666666665</ele><time>2026-03-28T12:19:16.998Z</time></trkpt><trkpt lat="44.69008071370127" lon="9.493616595248797"><ele>1084.0</ele><time>2026-03-28T12:19:17.998Z</time></trkpt><trkpt lat="44.69015293070495" lon="9.493599210515564"><ele>1084.0</ele><time>2026-03-28T12:19:18.998Z</time></trkpt><trkpt lat="44.69022340006317" lon="9.493578655880528"><ele>1084.0</ele><time>2026-03-28T12:19:19.998Z</time></trkpt><trkpt lat="44.69029224388366" lon="9.493552789360496"><ele>1084.0</ele><time>2026-03-28T12:19:20.998Z</time></trkpt><trkpt lat="44.6903625407752" lon="9.493523834577106"><ele>1084.0</ele><time>2026-03-28T12:19:21.998Z</time></trkpt><trkpt lat="44.69043509896244" lon="9.4934937318408"><ele>1084.0</ele><time>2026-03-28T12:19:22.998Z</time></trkpt><trkpt lat="44.69050758780869" lon="9.493463293622845"><ele>1084.0</ele><time>2026-03-28T12:19:23.998Z</time></trkpt><trkpt lat="44.690580624710925" lon="9.493428211551253"><ele>1084.0</ele><time>2026-03-28T12:19:24.998Z</time></trkpt><trkpt lat="44.69065016479652" lon="9.493390636852146"><ele>1083.1666666666665</ele><time>2026-03-28T12:19:25.998Z</time></trkpt><trkpt lat="44.69071750286293" lon="9.493349985622018"><ele>1082.3333333333333</ele><time>2026-03-28T12:19:26.998Z</time></trkpt><trkpt lat="44.69078701926141" lon="9.493307564382242"><ele>1081.5</ele><time>2026-03-28T12:19:27.998Z</time></trkpt><trkpt lat="44.690861849579775" lon="9.493264823057498"><ele>1080.6666666666667</ele><time>2026-03-28T12:19:28.998Z</time></trkpt><trkpt lat="44.690939385266745" lon="9.493225459530992"><ele>1079.8333333333335</ele><time>2026-03-28T12:19:29.998Z</time></trkpt><trkpt lat="44.69102575760998" lon="9.493208607648333"><ele>1079.0</ele><time>2026-03-28T12:19:30.998Z</time></trkpt><trkpt lat="44.69110945960568" lon="9.493233162371858"><ele>1079.0</ele><time>2026-03-28T12:19:31.998Z</time></trkpt><trkpt lat="44.69117127379029" lon="9.493317991890907"><ele>1079.0</ele><time>2026-03-28T12:19:32.998Z</time></trkpt><trkpt lat="44.69122073539632" lon="9.493394474830568"><ele>1079.0</ele><time>2026-03-28T12:19:33.998Z</time></trkpt><trkpt lat="44.69127047941535" lon="9.493474696787812"><ele>1079.0</ele><time>2026-03-28T12:19:34.998Z</time></trkpt><trkpt lat="44.69131965656405" lon="9.493550041855562"><ele>1079.0</ele><time>2026-03-28T12:19:35.998Z</time></trkpt><trkpt lat="44.691368822167966" lon="9.49362602858343"><ele>1079.0</ele><time>2026-03-28T12:19:36.998Z</time></trkpt><trkpt lat="44.69141766793759" lon="9.493698583714117"><ele>1077.7142857142858</ele><time>2026-03-28T12:19:37.998Z</time></trkpt><trkpt lat="44.69146528550499" lon="9.49376778138626"><ele>1076.4285714285713</ele><time>2026-03-28T12:19:38.998Z</time></trkpt><trkpt lat="44.69151424258651" lon="9.493831894844588"><ele>1075.142857142857</ele><time>2026-03-28T12:19:39.998Z</time></trkpt><trkpt lat="44.69156825309707" lon="9.493888640103913"><ele>1073.857142857143</ele><time>2026-03-28T12:19:40.998Z</time></trkpt><trkpt lat="44.69163185305099" lon="9.493933637307356"><ele>1072.5714285714287</ele><time>2026-03-28T12:19:41.998Z</time></trkpt><trkpt lat="44.69171097280899" lon="9.493923923100756"><ele>1071.2857142857142</ele><time>2026-03-28T12:19:42.998Z</time></trkpt><trkpt lat="44.69179121100288" lon="9.493907789976936"><ele>1070.0</ele><time>2026-03-28T12:19:43.998Z</time></trkpt><trkpt lat="44.69188314062996" lon="9.49388914785827"><ele>1069.4</ele><time>2026-03-28T12:19:44.998Z</time></trkpt><trkpt lat="44.69198423727161" lon="9.493866383465017"><ele>1068.8</ele><time>2026-03-28T12:19:45.998Z</time></trkpt><trkpt lat="44.69209406797613" lon="9.493868428892803"><ele>1068.2</ele><time>2026-03-28T12:19:46.998Z</time></trkpt><trkpt lat="44.692199771041196" lon="9.49389764421294"><ele>1067.6</ele><time>2026-03-28T12:19:47.998Z</time></trkpt><trkpt lat="44.69229901636562" lon="9.49389824574194"><ele>1067.0</ele><time>2026-03-28T12:19:48.998Z</time></trkpt><trkpt lat="44.69240193537391" lon="9.49388099666901"><ele>1067.0</ele><time>2026-03-28T12:19:49.998Z</time></trkpt><trkpt lat="44.69249983541434" lon="9.493857931462873"><ele>1067.0</ele><time>2026-03-28T12:19:50.998Z</time></trkpt><trkpt lat="44.69258501246448" lon="9.493841357543864"><ele>1067.0</ele><time>2026-03-28T12:19:51.998Z</time></trkpt><trkpt lat="44.69266777593612" lon="9.493871270904792"><ele>1067.0</ele><time>2026-03-28T12:19:53Z</time></trkpt><trkpt lat="44.69271714023596" lon="9.493946353359737"><ele>1067.0</ele><time>2026-03-28T12:19:54Z</time></trkpt><trkpt lat="44.69273239592417" lon="9.49408077611278"><ele>1067.0</ele><time>2026-03-28T12:19:56Z</time></trkpt><trkpt lat="44.69265031014368" lon="9.494135123252367"><ele>1067.0</ele><time>2026-03-28T12:19:58Z</time></trkpt><trkpt lat="44.69259827893092" lon="9.494279632222094"><ele>1067.0</ele><time>2026-03-28T12:20:00Z</time></trkpt><trkpt lat="44.69261890774864" lon="9.494382590807392"><ele>1067.0</ele><time>2026-03-28T12:20:01Z</time></trkpt><trkpt lat="44.69263842634951" lon="9.49450746568692"><ele>1067.0</ele><time>2026-03-28T12:20:03Z</time></trkpt><trkpt lat="44.692657626394556" lon="9.494617820565741"><ele>1067.0</ele><time>2026-03-28T12:20:05Z</time></trkpt><trkpt lat="44.69267720588508" lon="9.494730356873099"><ele>1067.0</ele><time>2026-03-28T12:20:07Z</time></trkpt><trkpt lat="44.69270214025913" lon="9.4948603079743"><ele>1066.6</ele><time>2026-03-28T12:20:09Z</time></trkpt><trkpt lat="44.69275283019188" lon="9.495006182580493"><ele>1066.2</ele><time>2026-03-28T12:20:11Z</time></trkpt><trkpt lat="44.69279749894472" lon="9.495178307726217"><ele>1065.8</ele><time>2026-03-28T12:20:13Z</time></trkpt><trkpt lat="44.69282738022542" lon="9.495264488607521"><ele>1065.4</ele><time>2026-03-28T12:20:14Z</time></trkpt><trkpt lat="44.69285979049509" lon="9.495357324610293"><ele>1065.0</ele><time>2026-03-28T12:20:15Z</time></trkpt><trkpt lat="44.69289768326258" lon="9.495452128139474"><ele>1066.3333333333333</ele><time>2026-03-28T12:20:16Z</time></trkpt><trkpt lat="44.69293437479531" lon="9.495544547088597"><ele>1067.6666666666667</ele><time>2026-03-28T12:20:17Z</time></trkpt><trkpt lat="44.69296054701929" lon="9.495641846385109"><ele>1069.0</ele><time>2026-03-28T12:20:18Z</time></trkpt><trkpt lat="44.69296613460373" lon="9.49574637394082"><ele>1070.3333333333335</ele><time>2026-03-28T12:20:19Z</time></trkpt><trkpt lat="44.69294275421887" lon="9.495841598417764"><ele>1071.6666666666667</ele><time>2026-03-28T12:20:20Z</time></trkpt><trkpt lat="44.692896502681585" lon="9.495929270853187"><ele>1073.0</ele><time>2026-03-28T12:20:21Z</time></trkpt><trkpt lat="44.692847192187976" lon="9.496014714679424"><ele>1073.0</ele><time>2026-03-28T12:20:21.999Z</time></trkpt><trkpt lat="44.69279420110051" lon="9.496101303987292"><ele>1073.0</ele><time>2026-03-28T12:20:22.999Z</time></trkpt><trkpt lat="44.69273921010517" lon="9.496186574968128"><ele>1073.0</ele><time>2026-03-28T12:20:23.999Z</time></trkpt><trkpt lat="44.6926472756712" lon="9.496250285969245"><ele>1073.0</ele><time>2026-03-28T12:20:24.999Z</time></trkpt><trkpt lat="44.692620613065" lon="9.496374038486717"><ele>1073.0</ele><time>2026-03-28T12:20:25.999Z</time></trkpt><trkpt lat="44.69265315254074" lon="9.496514438279574"><ele>1070.5</ele><time>2026-03-28T12:20:26.999Z</time></trkpt><trkpt lat="44.69262539934242" lon="9.496626777859916"><ele>1068.0</ele><time>2026-03-28T12:20:27.999Z</time></trkpt><trkpt lat="44.69261227745365" lon="9.496736424384219"><ele>1065.5</ele><time>2026-03-28T12:20:28.999Z</time></trkpt><trkpt lat="44.692604365551084" lon="9.496855034794573"><ele>1063.0</ele><time>2026-03-28T12:20:29.999Z</time></trkpt><trkpt lat="44.69260446497991" lon="9.49696795384402"><ele>1060.5</ele><time>2026-03-28T12:20:30.999Z</time></trkpt><trkpt lat="44.692621487066596" lon="9.497069939966345"><ele>1058.0</ele><time>2026-03-28T12:20:31.999Z</time></trkpt><trkpt lat="44.69261898764803" lon="9.497168420716514"><ele>1057.0</ele><time>2026-03-28T12:20:32.999Z</time></trkpt><trkpt lat="44.69262164404363" lon="9.49726594779872"><ele>1056.0</ele><time>2026-03-28T12:20:33.999Z</time></trkpt><trkpt lat="44.69263691488297" lon="9.497366727480939"><ele>1055.0</ele><time>2026-03-28T12:20:34.999Z</time></trkpt><trkpt lat="44.692658653392044" lon="9.497474612533662"><ele>1054.0</ele><time>2026-03-28T12:20:35.999Z</time></trkpt><trkpt lat="44.69268063080554" lon="9.497591801183827"><ele>1053.0</ele><time>2026-03-28T12:20:36.999Z</time></trkpt><trkpt lat="44.69269322868709" lon="9.497702298350193"><ele>1052.0</ele><time>2026-03-28T12:20:37.999Z</time></trkpt><trkpt lat="44.692714017542606" lon="9.497803755787023"><ele>1052.0</ele><time>2026-03-28T12:20:38.999Z</time></trkpt><trkpt lat="44.692741284652314" lon="9.497898553615752"><ele>1052.0</ele><time>2026-03-28T12:20:39.999Z</time></trkpt><trkpt lat="44.69277710435268" lon="9.497979244874337"><ele>1052.0</ele><time>2026-03-28T12:20:40.999Z</time></trkpt><trkpt lat="44.692844258601646" lon="9.498016011117103"><ele>1052.0</ele><time>2026-03-28T12:20:41.999Z</time></trkpt><trkpt lat="44.69292578350761" lon="9.498024644130679"><ele>1052.0</ele><time>2026-03-28T12:20:42.999Z</time></trkpt><trkpt lat="44.6930009367423" lon="9.498074282687881"><ele>1052.0</ele><time>2026-03-28T12:20:43.999Z</time></trkpt><trkpt lat="44.69306081196971" lon="9.498165041951868"><ele>1052.5</ele><time>2026-03-28T12:20:44.999Z</time></trkpt><trkpt lat="44.69312201056412" lon="9.498232345206857"><ele>1053.0</ele><time>2026-03-28T12:20:45.999Z</time></trkpt><trkpt lat="44.693173736173016" lon="9.498302946844095"><ele>1053.5</ele><time>2026-03-28T12:20:46.999Z</time></trkpt><trkpt lat="44.69323478035736" lon="9.498345146093254"><ele>1054.0</ele><time>2026-03-28T12:20:47.999Z</time></trkpt><trkpt lat="44.6932859124595" lon="9.498404490824862"><ele>1054.5</ele><time>2026-03-28T12:20:48.999Z</time></trkpt><trkpt lat="44.69337834948341" lon="9.498530072917953"><ele>1055.0</ele><time>2026-03-28T12:20:50.999Z</time></trkpt><trkpt lat="44.69344459165214" lon="9.498562153811182"><ele>1055.0</ele><time>2026-03-28T12:20:51.999Z</time></trkpt><trkpt lat="44.69350518140821" lon="9.498614394947296"><ele>1055.0</ele><time>2026-03-28T12:20:52.999Z</time></trkpt><trkpt lat="44.69356647346282" lon="9.498667241637104"><ele>1055.0</ele><time>2026-03-28T12:20:53.999Z</time></trkpt><trkpt lat="44.693628015498945" lon="9.49872193836829"><ele>1055.0</ele><time>2026-03-28T12:20:54.999Z</time></trkpt><trkpt lat="44.693681101378466" lon="9.49879819239132"><ele>1055.0</ele><time>2026-03-28T12:20:55.999Z</time></trkpt><trkpt lat="44.693748975792026" lon="9.498850180122991"><ele>1055.0</ele><time>2026-03-28T12:20:56.999Z</time></trkpt><trkpt lat="44.6938146675185" lon="9.498911392384734"><ele>1055.0</ele><time>2026-03-28T12:20:57.999Z</time></trkpt><trkpt lat="44.69388233445508" lon="9.49897031901922"><ele>1054.3333333333335</ele><time>2026-03-28T12:20:58.999Z</time></trkpt><trkpt lat="44.693949918766855" lon="9.499031031581831"><ele>1053.6666666666667</ele><time>2026-03-28T12:20:59.999Z</time></trkpt><trkpt lat="44.6940264762544" lon="9.499070062777719"><ele>1053.0</ele><time>2026-03-28T12:21:00.999Z</time></trkpt><trkpt lat="44.69409748033255" lon="9.499116352618431"><ele>1052.3333333333333</ele><time>2026-03-28T12:21:01.999Z</time></trkpt><trkpt lat="44.694170266800086" lon="9.499159559524642"><ele>1051.6666666666665</ele><time>2026-03-28T12:21:02.999Z</time></trkpt><trkpt lat="44.69424401139359" lon="9.499197395531555"><ele>1051.0</ele><time>2026-03-28T12:21:03.999Z</time></trkpt><trkpt lat="44.69431841440842" lon="9.499226515419133"><ele>1051.0</ele><time>2026-03-28T12:21:04.999Z</time></trkpt><trkpt lat="44.69439570037508" lon="9.4992496241175"><ele>1051.0</ele><time>2026-03-28T12:21:05.999Z</time></trkpt><trkpt lat="44.694473234646594" lon="9.499267918335468"><ele>1051.0</ele><time>2026-03-28T12:21:06.999Z</time></trkpt><trkpt lat="44.694553431575386" lon="9.49927914437308"><ele>1051.0</ele><time>2026-03-28T12:21:07.999Z</time></trkpt><trkpt lat="44.694636629106256" lon="9.49928968870574"><ele>1051.0</ele><time>2026-03-28T12:21:08.999Z</time></trkpt><trkpt lat="44.694721239119716" lon="9.499310708412265"><ele>1051.0</ele><time>2026-03-28T12:21:09.999Z</time></trkpt><trkpt lat="44.694801539000835" lon="9.499337580659402"><ele>1050.8333333333333</ele><time>2026-03-28T12:21:10.999Z</time></trkpt><trkpt lat="44.69488004254908" lon="9.499361826335997"><ele>1050.6666666666665</ele><time>2026-03-28T12:21:11.999Z</time></trkpt><trkpt lat="44.694954866322014" lon="9.499372453798248"><ele>1050.5</ele><time>2026-03-28T12:21:12.999Z</time></trkpt><trkpt lat="44.69502376152081" lon="9.499364204204426"><ele>1050.3333333333333</ele><time>2026-03-28T12:21:13.999Z</time></trkpt><trkpt lat="44.695092881742994" lon="9.499350189548181"><ele>1050.1666666666667</ele><time>2026-03-28T12:21:14.999Z</time></trkpt><trkpt lat="44.69515718583205" lon="9.499332218429183"><ele>1050.0</ele><time>2026-03-28T12:21:15.999Z</time></trkpt><trkpt lat="44.69526401151157" lon="9.499280074172663"><ele>1049.0</ele><time>2026-03-28T12:21:17.999Z</time></trkpt><trkpt lat="44.695374162749275" lon="9.499220666533528"><ele>1048.0</ele><time>2026-03-28T12:21:19.999Z</time></trkpt><trkpt lat="44.69547924357005" lon="9.499309193765152"><ele>1047.0</ele><time>2026-03-28T12:21:20.999Z</time></trkpt><trkpt lat="44.695550039249696" lon="9.499332786370893"><ele>1046.0</ele><time>2026-03-28T12:21:21.999Z</time></trkpt><trkpt lat="44.69562740928671" lon="9.499358475055068"><ele>1045.0</ele><time>2026-03-28T12:21:22.999Z</time></trkpt><trkpt lat="44.69570901305312" lon="9.499385569433882"><ele>1045.0</ele><time>2026-03-28T12:21:23.999Z</time></trkpt><trkpt lat="44.69579140858773" lon="9.499410117092372"><ele>1045.0</ele><time>2026-03-28T12:21:24.998Z</time></trkpt><trkpt lat="44.695878536440624" lon="9.499435010766849"><ele>1045.0</ele><time>2026-03-28T12:21:25.998Z</time></trkpt><trkpt lat="44.69596690486866" lon="9.499460206096385"><ele>1045.0</ele><time>2026-03-28T12:21:26.998Z</time></trkpt><trkpt lat="44.69605681266703" lon="9.499487218765774"><ele>1045.0</ele><time>2026-03-28T12:21:27.998Z</time></trkpt><trkpt lat="44.6961432158184" lon="9.499514195028068"><ele>1045.0</ele><time>2026-03-28T12:21:28.998Z</time></trkpt><trkpt lat="44.69622777575962" lon="9.499540996980098"><ele>1043.4</ele><time>2026-03-28T12:21:29.998Z</time></trkpt><trkpt lat="44.69630988155938" lon="9.499589350443012"><ele>1041.8</ele><time>2026-03-28T12:21:30.998Z</time></trkpt><trkpt lat="44.69639735578784" lon="9.499611071048848"><ele>1040.2</ele><time>2026-03-28T12:21:31.998Z</time></trkpt><trkpt lat="44.69648554538651" lon="9.499640471541243"><ele>1038.6</ele><time>2026-03-28T12:21:32.998Z</time></trkpt><trkpt lat="44.6965773540893" lon="9.499674544515011"><ele>1037.0</ele><time>2026-03-28T12:21:33.998Z</time></trkpt><trkpt lat="44.69666360454582" lon="9.49973295401168"><ele>1037.0</ele><time>2026-03-28T12:21:34.998Z</time></trkpt><trkpt lat="44.696741586468185" lon="9.499812519461344"><ele>1037.0</ele><time>2026-03-28T12:21:35.998Z</time></trkpt><trkpt lat="44.69680957792303" lon="9.499913716541403"><ele>1037.0</ele><time>2026-03-28T12:21:36.998Z</time></trkpt><trkpt lat="44.69686028670617" lon="9.500032184390811"><ele>1037.0</ele><time>2026-03-28T12:21:37.998Z</time></trkpt><trkpt lat="44.69691190445317" lon="9.500160364753636"><ele>1037.0</ele><time>2026-03-28T12:21:38.998Z</time></trkpt><trkpt lat="44.696967854701555" lon="9.500287672270137"><ele>1033.8</ele><time>2026-03-28T12:21:39.998Z</time></trkpt><trkpt lat="44.69702221651142" lon="9.500416817393168"><ele>1030.6</ele><time>2026-03-28T12:21:40.998Z</time></trkpt><trkpt lat="44.697079895729935" lon="9.500539411078892"><ele>1027.3999999999999</ele><time>2026-03-28T12:21:41.998Z</time></trkpt><trkpt lat="44.6971343420569" lon="9.500666537018214"><ele>1024.2</ele><time>2026-03-28T12:21:42.998Z</time></trkpt><trkpt lat="44.69718750606601" lon="9.500801153019152"><ele>1021.0</ele><time>2026-03-28T12:21:43.998Z</time></trkpt><trkpt lat="44.697236280065354" lon="9.500936424811623"><ele>1021.0</ele><time>2026-03-28T12:21:44.998Z</time></trkpt><trkpt lat="44.69725335615589" lon="9.501078068478941"><ele>1020.9999999999999</ele><time>2026-03-28T12:21:45.998Z</time></trkpt><trkpt lat="44.69728226170579" lon="9.501211781056938"><ele>1020.9999999999999</ele><time>2026-03-28T12:21:46.998Z</time></trkpt><trkpt lat="44.69730474012152" lon="9.501338591332805"><ele>1021.0</ele><time>2026-03-28T12:21:47.998Z</time></trkpt><trkpt lat="44.69731902913557" lon="9.501457996011302"><ele>1021.0</ele><time>2026-03-28T12:21:48.998Z</time></trkpt><trkpt lat="44.697315494800925" lon="9.501557987489152"><ele>1020.3333333333333</ele><time>2026-03-28T12:21:49.998Z</time></trkpt><trkpt lat="44.69729535929074" lon="9.501650238606823"><ele>1019.6666666666666</ele><time>2026-03-28T12:21:50.998Z</time></trkpt><trkpt lat="44.69720197780617" lon="9.501751184585983"><ele>1019.0</ele><time>2026-03-28T12:21:52.998Z</time></trkpt><trkpt lat="44.69713552147095" lon="9.501779211455956"><ele>1018.3333333333333</ele><time>2026-03-28T12:21:53.998Z</time></trkpt><trkpt lat="44.69706635151831" lon="9.501784721056774"><ele>1017.6666666666666</ele><time>2026-03-28T12:21:54.998Z</time></trkpt><trkpt lat="44.69700066812592" lon="9.50175081300495"><ele>1017.0</ele><time>2026-03-28T12:21:55.998Z</time></trkpt><trkpt lat="44.696917241814596" lon="9.501712422981912"><ele>1016.5</ele><time>2026-03-28T12:21:56.998Z</time></trkpt><trkpt lat="44.6968344118378" lon="9.501669985549398"><ele>1016.0</ele><time>2026-03-28T12:21:57.998Z</time></trkpt><trkpt lat="44.69675553819372" lon="9.50162695701"><ele>1015.5</ele><time>2026-03-28T12:21:59Z</time></trkpt><trkpt lat="44.69667796330128" lon="9.501582515306756"><ele>1015.0</ele><time>2026-03-28T12:22:00Z</time></trkpt><trkpt lat="44.69659565548058" lon="9.50154056166799"><ele>1014.5</ele><time>2026-03-28T12:22:01Z</time></trkpt><trkpt lat="44.69651546269874" lon="9.501510189706702"><ele>1014.0</ele><time>2026-03-28T12:22:02Z</time></trkpt><trkpt lat="44.696419661939395" lon="9.501501664467488"><ele>1014.0</ele><time>2026-03-28T12:22:03Z</time></trkpt><trkpt lat="44.696311254916566" lon="9.501572012722725"><ele>1014.0</ele><time>2026-03-28T12:22:04Z</time></trkpt><trkpt lat="44.69624090024931" lon="9.50169074553978"><ele>1014.0</ele><time>2026-03-28T12:22:05Z</time></trkpt><trkpt lat="44.69623303286332" lon="9.5018672560809"><ele>1014.0</ele><time>2026-03-28T12:22:06Z</time></trkpt><trkpt lat="44.69629985076965" lon="9.501998064840333"><ele>1012.2</ele><time>2026-03-28T12:22:07Z</time></trkpt><trkpt lat="44.69634082554346" lon="9.502108471825542"><ele>1010.4000000000001</ele><time>2026-03-28T12:22:08Z</time></trkpt><trkpt lat="44.696401125862884" lon="9.502207977269414"><ele>1008.6</ele><time>2026-03-28T12:22:09Z</time></trkpt><trkpt lat="44.69647241230171" lon="9.502301023558974"><ele>1006.8</ele><time>2026-03-28T12:22:10Z</time></trkpt><trkpt lat="44.696546396628555" lon="9.502399108440786"><ele>1005.0</ele><time>2026-03-28T12:22:11Z</time></trkpt><trkpt lat="44.69661933545204" lon="9.50251210435874"><ele>1005.0</ele><time>2026-03-28T12:22:12Z</time></trkpt><trkpt lat="44.6966905750951" lon="9.502632078090805"><ele>1005.0</ele><time>2026-03-28T12:22:13Z</time></trkpt><trkpt lat="44.69676090524844" lon="9.502750619621583"><ele>1005.0</ele><time>2026-03-28T12:22:14Z</time></trkpt><trkpt lat="44.696839912107016" lon="9.502864571696668"><ele>1005.0</ele><time>2026-03-28T12:22:15Z</time></trkpt><trkpt lat="44.69693030838587" lon="9.502972020612116"><ele>1003.0</ele><time>2026-03-28T12:22:16Z</time></trkpt><trkpt lat="44.697026165365095" lon="9.503074009008037"><ele>1001.0</ele><time>2026-03-28T12:22:17Z</time></trkpt><trkpt lat="44.69712651343115" lon="9.503174075215323"><ele>999.0</ele><time>2026-03-28T12:22:18Z</time></trkpt><trkpt lat="44.69722840490627" lon="9.503268020783098"><ele>997.0</ele><time>2026-03-28T12:22:19Z</time></trkpt><trkpt lat="44.697343554308375" lon="9.503327543617914"><ele>997.0</ele><time>2026-03-28T12:22:20Z</time></trkpt><trkpt lat="44.697450808230336" lon="9.5033857527884"><ele>997.0</ele><time>2026-03-28T12:22:21Z</time></trkpt><trkpt lat="44.69755671080816" lon="9.503435036769629"><ele>997.0</ele><time>2026-03-28T12:22:22Z</time></trkpt><trkpt lat="44.69766186899978" lon="9.503467585529107"><ele>997.0</ele><time>2026-03-28T12:22:23Z</time></trkpt><trkpt lat="44.697771794281394" lon="9.503489898019689"><ele>997.0</ele><time>2026-03-28T12:22:24Z</time></trkpt><trkpt lat="44.69788431221463" lon="9.503497698708022"><ele>995.0</ele><time>2026-03-28T12:22:25Z</time></trkpt><trkpt lat="44.698001278919506" lon="9.503499324070402"><ele>993.0</ele><time>2026-03-28T12:22:26Z</time></trkpt><trkpt lat="44.698115623571056" lon="9.503494803165198"><ele>991.0</ele><time>2026-03-28T12:22:27Z</time></trkpt><trkpt lat="44.698216975242666" lon="9.503473124450649"><ele>989.0</ele><time>2026-03-28T12:22:28Z</time></trkpt><trkpt lat="44.698321084138854" lon="9.503437175113117"><ele>987.0</ele><time>2026-03-28T12:22:29Z</time></trkpt><trkpt lat="44.6984249976231" lon="9.503386086084735"><ele>987.0</ele><time>2026-03-28T12:22:30Z</time></trkpt><trkpt lat="44.69853202006305" lon="9.503322831803343"><ele>987.0</ele><time>2026-03-28T12:22:31Z</time></trkpt><trkpt lat="44.69863669883507" lon="9.503247571105224"><ele>987.0</ele><time>2026-03-28T12:22:32Z</time></trkpt><trkpt lat="44.69873260958511" lon="9.503154001724871"><ele>987.0</ele><time>2026-03-28T12:22:33Z</time></trkpt><trkpt lat="44.6988310147056" lon="9.503052269285403"><ele>986.0</ele><time>2026-03-28T12:22:34Z</time></trkpt><trkpt lat="44.69892699651364" lon="9.502948798304256"><ele>985.0</ele><time>2026-03-28T12:22:34.999Z</time></trkpt><trkpt lat="44.6990281036051" lon="9.50286674242988"><ele>984.0</ele><time>2026-03-28T12:22:35.999Z</time></trkpt><trkpt lat="44.69914303005845" lon="9.50282381066191"><ele>983.0</ele><time>2026-03-28T12:22:36.999Z</time></trkpt><trkpt lat="44.699261470353704" lon="9.502845748586289"><ele>983.0</ele><time>2026-03-28T12:22:37.999Z</time></trkpt><trkpt lat="44.69937433702158" lon="9.502822024956847"><ele>983.0</ele><time>2026-03-28T12:22:38.999Z</time></trkpt><trkpt lat="44.69948766043488" lon="9.502815111845798"><ele>983.0</ele><time>2026-03-28T12:22:39.999Z</time></trkpt><trkpt lat="44.69959942265421" lon="9.502806062270905"><ele>983.0</ele><time>2026-03-28T12:22:40.999Z</time></trkpt><trkpt lat="44.699698555108654" lon="9.502785251221372"><ele>983.0</ele><time>2026-03-28T12:22:41.999Z</time></trkpt><trkpt lat="44.69977945061049" lon="9.502735685705916"><ele>980.8333333333334</ele><time>2026-03-28T12:22:42.999Z</time></trkpt><trkpt lat="44.69984377977524" lon="9.502657923636626"><ele>978.6666666666667</ele><time>2026-03-28T12:22:43.999Z</time></trkpt><trkpt lat="44.699895611669525" lon="9.502556111457618"><ele>976.5</ele><time>2026-03-28T12:22:44.999Z</time></trkpt><trkpt lat="44.69993718599626" lon="9.502448356791046"><ele>974.3333333333333</ele><time>2026-03-28T12:22:45.999Z</time></trkpt><trkpt lat="44.69998307565638" lon="9.50234739878573"><ele>972.1666666666666</ele><time>2026-03-28T12:22:46.999Z</time></trkpt><trkpt lat="44.7000110841289" lon="9.50223525850034"><ele>970.0</ele><time>2026-03-28T12:22:47.999Z</time></trkpt><trkpt lat="44.70007019925523" lon="9.50213784405695"><ele>969.9999999999999</ele><time>2026-03-28T12:22:48.999Z</time></trkpt><trkpt lat="44.700154378313606" lon="9.502088523300928"><ele>970.0</ele><time>2026-03-28T12:22:49.999Z</time></trkpt><trkpt lat="44.70024537315701" lon="9.502160979862552"><ele>970.0</ele><time>2026-03-28T12:22:50.999Z</time></trkpt><trkpt lat="44.700309196573485" lon="9.502231923931628"><ele>970.0</ele><time>2026-03-28T12:22:51.999Z</time></trkpt><trkpt lat="44.700353470971244" lon="9.502333786995989"><ele>969.9999999999999</ele><time>2026-03-28T12:22:52.999Z</time></trkpt><trkpt lat="44.70039885327621" lon="9.502435375408671"><ele>970.0</ele><time>2026-03-28T12:22:53.999Z</time></trkpt><trkpt lat="44.70045064264572" lon="9.502539270791264"><ele>969.2</ele><time>2026-03-28T12:22:54.999Z</time></trkpt><trkpt lat="44.70050763296499" lon="9.502650903100957"><ele>968.4</ele><time>2026-03-28T12:22:55.999Z</time></trkpt><trkpt lat="44.70057230986636" lon="9.502765673499407"><ele>967.5999999999999</ele><time>2026-03-28T12:22:56.999Z</time></trkpt><trkpt lat="44.70064692813774" lon="9.502879281624907"><ele>966.8</ele><time>2026-03-28T12:22:57.999Z</time></trkpt><trkpt lat="44.70072825710971" lon="9.50299234196084"><ele>966.0</ele><time>2026-03-28T12:22:58.999Z</time></trkpt><trkpt lat="44.7008063166164" lon="9.503108836811922"><ele>965.8333333333334</ele><time>2026-03-28T12:22:59.999Z</time></trkpt><trkpt lat="44.70088525723849" lon="9.503209213680856"><ele>965.6666666666667</ele><time>2026-03-28T12:23:00.999Z</time></trkpt><trkpt lat="44.700960810507105" lon="9.503295611848602"><ele>965.5</ele><time>2026-03-28T12:23:01.999Z</time></trkpt><trkpt lat="44.70102725027345" lon="9.503376537111139"><ele>965.3333333333334</ele><time>2026-03-28T12:23:02.999Z</time></trkpt><trkpt lat="44.70108019514358" lon="9.503456444042177"><ele>965.1666666666667</ele><time>2026-03-28T12:23:03.999Z</time></trkpt><trkpt lat="44.70110269629362" lon="9.503558903142551"><ele>965.0</ele><time>2026-03-28T12:23:04.999Z</time></trkpt><trkpt lat="44.70110680194784" lon="9.503664545008037"><ele>965.0</ele><time>2026-03-28T12:23:05.999Z</time></trkpt><trkpt lat="44.7011000133011" lon="9.503768821652306"><ele>965.0</ele><time>2026-03-28T12:23:06.999Z</time></trkpt><trkpt lat="44.70108716179459" lon="9.503863849058524"><ele>965.0</ele><time>2026-03-28T12:23:07.999Z</time></trkpt><trkpt lat="44.701069503905224" lon="9.50396139042003"><ele>965.0</ele><time>2026-03-28T12:23:08.999Z</time></trkpt><trkpt lat="44.70100270875278" lon="9.504031032671165"><ele>965.0</ele><time>2026-03-28T12:23:09.999Z</time></trkpt><trkpt lat="44.70097637000889" lon="9.504121015598054"><ele>965.0</ele><time>2026-03-28T12:23:10.999Z</time></trkpt><trkpt lat="44.70094867199734" lon="9.504207605230372"><ele>965.0</ele><time>2026-03-28T12:23:11.999Z</time></trkpt><trkpt lat="44.700921936646324" lon="9.504288323907264"><ele>964.1428571428571</ele><time>2026-03-28T12:23:12.999Z</time></trkpt><trkpt lat="44.70089249117218" lon="9.504369144529996"><ele>963.2857142857143</ele><time>2026-03-28T12:23:13.999Z</time></trkpt><trkpt lat="44.70086223538256" lon="9.504454128243896"><ele>962.4285714285714</ele><time>2026-03-28T12:23:14.999Z</time></trkpt><trkpt lat="44.70083405929647" lon="9.504547608826055"><ele>961.5714285714286</ele><time>2026-03-28T12:23:15.999Z</time></trkpt><trkpt lat="44.70081888456008" lon="9.504657381643561"><ele>960.7142857142858</ele><time>2026-03-28T12:23:16.999Z</time></trkpt><trkpt lat="44.70083374166419" lon="9.504770689236368"><ele>959.8571428571429</ele><time>2026-03-28T12:23:17.999Z</time></trkpt><trkpt lat="44.70086910239683" lon="9.504862973189516"><ele>959.0</ele><time>2026-03-28T12:23:18.999Z</time></trkpt><trkpt lat="44.70089721077453" lon="9.504955246712013"><ele>958.8571428571429</ele><time>2026-03-28T12:23:19.999Z</time></trkpt><trkpt lat="44.70093556958028" lon="9.505040562486256"><ele>958.7142857142858</ele><time>2026-03-28T12:23:20.999Z</time></trkpt><trkpt lat="44.700983805300616" lon="9.505115001957368"><ele>958.5714285714286</ele><time>2026-03-28T12:23:21.999Z</time></trkpt><trkpt lat="44.70103396175782" lon="9.505184621215799"><ele>958.4285714285714</ele><time>2026-03-28T12:23:22.999Z</time></trkpt><trkpt lat="44.70108886779081" lon="9.505249400795746"><ele>958.2857142857143</ele><time>2026-03-28T12:23:23.999Z</time></trkpt><trkpt lat="44.7011455838054" lon="9.505307562831582"><ele>958.1428571428571</ele><time>2026-03-28T12:23:24.999Z</time></trkpt><trkpt lat="44.70121047699022" lon="9.505350604871445"><ele>958.0</ele><time>2026-03-28T12:23:25.999Z</time></trkpt><trkpt lat="44.701270854428415" lon="9.505412772057529"><ele>957.8333333333333</ele><time>2026-03-28T12:23:26.999Z</time></trkpt><trkpt lat="44.701320967797216" lon="9.505484769433743"><ele>957.6666666666666</ele><time>2026-03-28T12:23:27.999Z</time></trkpt><trkpt lat="44.701370781051025" lon="9.505540742064248"><ele>957.5</ele><time>2026-03-28T12:23:28.999Z</time></trkpt><trkpt lat="44.7014371310833" lon="9.505648751346726"><ele>957.3333333333333</ele><time>2026-03-28T12:23:30.999Z</time></trkpt><trkpt lat="44.701421316087085" lon="9.50576020208416"><ele>957.1666666666666</ele><time>2026-03-28T12:23:32.998Z</time></trkpt><trkpt lat="44.70137670177938" lon="9.505878343197319"><ele>957.0</ele><time>2026-03-28T12:23:34.998Z</time></trkpt><trkpt lat="44.70131121057916" lon="9.505995257954638"><ele>957.0</ele><time>2026-03-28T12:23:36.998Z</time></trkpt><trkpt lat="44.701255811924746" lon="9.506133146697806"><ele>957.0</ele><time>2026-03-28T12:23:38.998Z</time></trkpt><trkpt lat="44.701197907697996" lon="9.506287968171412"><ele>957.0</ele><time>2026-03-28T12:23:40.998Z</time></trkpt><trkpt lat="44.70110704833233" lon="9.506319246337872"><ele>957.0</ele><time>2026-03-28T12:23:41.998Z</time></trkpt><trkpt lat="44.70106901201574" lon="9.506391225009258"><ele>957.0</ele><time>2026-03-28T12:23:42.998Z</time></trkpt><trkpt lat="44.701024979761506" lon="9.506459918925552"><ele>955.3333333333334</ele><time>2026-03-28T12:23:43.998Z</time></trkpt><trkpt lat="44.7009709812495" lon="9.506532948828887"><ele>953.6666666666667</ele><time>2026-03-28T12:23:44.998Z</time></trkpt><trkpt lat="44.70091553035299" lon="9.506596768146"><ele>952.0</ele><time>2026-03-28T12:23:45.998Z</time></trkpt><trkpt lat="44.700861955342376" lon="9.50664863542111"><ele>950.3333333333334</ele><time>2026-03-28T12:23:46.998Z</time></trkpt><trkpt lat="44.700762676480636" lon="9.506737449478837"><ele>948.6666666666667</ele><time>2026-03-28T12:23:48.998Z</time></trkpt><trkpt lat="44.700721571417596" lon="9.506818251105512"><ele>947.0</ele><time>2026-03-28T12:23:49.998Z</time></trkpt><trkpt lat="44.70071248215494" lon="9.506951344372105"><ele>947.0</ele><time>2026-03-28T12:23:50.998Z</time></trkpt><trkpt lat="44.70073352627506" lon="9.50707740216672"><ele>947.0</ele><time>2026-03-28T12:23:51.998Z</time></trkpt><trkpt lat="44.70074220805375" lon="9.507191509752975"><ele>947.0</ele><time>2026-03-28T12:23:52.998Z</time></trkpt><trkpt lat="44.70078230699712" lon="9.507300266395744"><ele>947.0</ele><time>2026-03-28T12:23:53.998Z</time></trkpt><trkpt lat="44.700870424164656" lon="9.507352073523359"><ele>947.0</ele><time>2026-03-28T12:23:54.998Z</time></trkpt><trkpt lat="44.70096027666202" lon="9.507400641367912"><ele>945.2</ele><time>2026-03-28T12:23:55.998Z</time></trkpt><trkpt lat="44.70105406012201" lon="9.50745989940877"><ele>943.4000000000001</ele><time>2026-03-28T12:23:56.998Z</time></trkpt><trkpt lat="44.70114781624543" lon="9.507526718537578"><ele>941.5999999999999</ele><time>2026-03-28T12:23:57.998Z</time></trkpt><trkpt lat="44.70124216534018" lon="9.507603842487518"><ele>939.8</ele><time>2026-03-28T12:23:58.998Z</time></trkpt><trkpt lat="44.70132474443407" lon="9.507708216544549"><ele>938.0</ele><time>2026-03-28T12:23:59.998Z</time></trkpt><trkpt lat="44.7014162202298" lon="9.507790516242606"><ele>938.0</ele><time>2026-03-28T12:24:00.998Z</time></trkpt><trkpt lat="44.70150362464609" lon="9.50787511691722"><ele>938.0</ele><time>2026-03-28T12:24:01.998Z</time></trkpt><trkpt lat="44.701591871827354" lon="9.507927413169948"><ele>938.0</ele><time>2026-03-28T12:24:02.998Z</time></trkpt><trkpt lat="44.70167332126821" lon="9.507966774627576"><ele>938.0</ele><time>2026-03-28T12:24:03.998Z</time></trkpt><trkpt lat="44.70175448707846" lon="9.507956736715931"><ele>938.0</ele><time>2026-03-28T12:24:05Z</time></trkpt><trkpt lat="44.70181722998067" lon="9.507884925979797"><ele>938.0</ele><time>2026-03-28T12:24:06Z</time></trkpt><trkpt lat="44.70188213731052" lon="9.50781718768125"><ele>938.0</ele><time>2026-03-28T12:24:07Z</time></trkpt><trkpt lat="44.70191556692382" lon="9.507711396800728"><ele>938.0</ele><time>2026-03-28T12:24:08Z</time></trkpt><trkpt lat="44.70195749056691" lon="9.507597609898536"><ele>938.0</ele><time>2026-03-28T12:24:09Z</time></trkpt><trkpt lat="44.70199977957692" lon="9.507479760692807"><ele>938.0</ele><time>2026-03-28T12:24:10Z</time></trkpt><trkpt lat="44.70206858297928" lon="9.507363302920554"><ele>936.2</ele><time>2026-03-28T12:24:11Z</time></trkpt><trkpt lat="44.70215491563281" lon="9.507283295704475"><ele>934.4</ele><time>2026-03-28T12:24:12Z</time></trkpt><trkpt lat="44.702247780193645" lon="9.507221147047954"><ele>932.6000000000001</ele><time>2026-03-28T12:24:13Z</time></trkpt><trkpt lat="44.70234926150155" lon="9.50717288173106"><ele>930.8000000000001</ele><time>2026-03-28T12:24:14Z</time></trkpt><trkpt lat="44.70245735341995" lon="9.507165178205723"><ele>929.0</ele><time>2026-03-28T12:24:15Z</time></trkpt><trkpt lat="44.702547516673185" lon="9.50722864154466"><ele>929.0000000000001</ele><time>2026-03-28T12:24:16Z</time></trkpt><trkpt lat="44.70261911143952" lon="9.50730627939571"><ele>929.0</ele><time>2026-03-28T12:24:17Z</time></trkpt><trkpt lat="44.702673925450306" lon="9.507405652723394"><ele>929.0</ele><time>2026-03-28T12:24:18Z</time></trkpt><trkpt lat="44.702726959786204" lon="9.507506468301951"><ele>929.0</ele><time>2026-03-28T12:24:19Z</time></trkpt><trkpt lat="44.70278409789973" lon="9.507602266528112"><ele>929.0000000000001</ele><time>2026-03-28T12:24:20Z</time></trkpt><trkpt lat="44.70284639779141" lon="9.507690200905909"><ele>929.0</ele><time>2026-03-28T12:24:21Z</time></trkpt><trkpt lat="44.70293593457591" lon="9.507720408702799"><ele>928.8000000000001</ele><time>2026-03-28T12:24:22Z</time></trkpt><trkpt lat="44.70302316372082" lon="9.507737824249805"><ele>928.6000000000001</ele><time>2026-03-28T12:24:23Z</time></trkpt><trkpt lat="44.703115213798675" lon="9.50773261424926"><ele>928.4</ele><time>2026-03-28T12:24:24Z</time></trkpt><trkpt lat="44.7032041165172" lon="9.50769864489856"><ele>928.2</ele><time>2026-03-28T12:24:25Z</time></trkpt><trkpt lat="44.70330518948434" lon="9.507661074552233"><ele>928.0</ele><time>2026-03-28T12:24:26Z</time></trkpt><trkpt lat="44.70341399626275" lon="9.507636903615975"><ele>928.0</ele><time>2026-03-28T12:24:27Z</time></trkpt><trkpt lat="44.703527931706574" lon="9.507670786051623"><ele>928.0</ele><time>2026-03-28T12:24:28Z</time></trkpt><trkpt lat="44.703631150443364" lon="9.50769905692325"><ele>928.0</ele><time>2026-03-28T12:24:29Z</time></trkpt><trkpt lat="44.70373523535978" lon="9.507718498376773"><ele>928.0</ele><time>2026-03-28T12:24:30Z</time></trkpt><trkpt lat="44.70383839875879" lon="9.507712933995212"><ele>928.0</ele><time>2026-03-28T12:24:31Z</time></trkpt><trkpt lat="44.70394488986702" lon="9.507699357260769"><ele>927.0</ele><time>2026-03-28T12:24:32Z</time></trkpt><trkpt lat="44.704053010662165" lon="9.507681707670361"><ele>926.0</ele><time>2026-03-28T12:24:33Z</time></trkpt><trkpt lat="44.70416160956122" lon="9.50766398003573"><ele>925.0</ele><time>2026-03-28T12:24:34Z</time></trkpt><trkpt lat="44.70426770911386" lon="9.507643873583456"><ele>924.0</ele><time>2026-03-28T12:24:35Z</time></trkpt><trkpt lat="44.70436897323283" lon="9.507623258458011"><ele>923.0</ele><time>2026-03-28T12:24:36Z</time></trkpt><trkpt lat="44.704471357799896" lon="9.507595633858896"><ele>922.4</ele><time>2026-03-28T12:24:37Z</time></trkpt><trkpt lat="44.704577738925174" lon="9.50756303196874"><ele>921.8</ele><time>2026-03-28T12:24:38Z</time></trkpt><trkpt lat="44.704680378748435" lon="9.507533635139504"><ele>921.2</ele><time>2026-03-28T12:24:39Z</time></trkpt><trkpt lat="44.70479182241677" lon="9.507524493972063"><ele>920.6</ele><time>2026-03-28T12:24:40Z</time></trkpt><trkpt lat="44.704891173560654" lon="9.507512718038537"><ele>920.0</ele><time>2026-03-28T12:24:41Z</time></trkpt><trkpt lat="44.70498426066858" lon="9.507484020166256"><ele>920.0000000000001</ele><time>2026-03-28T12:24:41.999Z</time></trkpt><trkpt lat="44.705064987582276" lon="9.507436563439327"><ele>920.0</ele><time>2026-03-28T12:24:42.999Z</time></trkpt><trkpt lat="44.70514696163244" lon="9.507380146574778"><ele>920.0</ele><time>2026-03-28T12:24:43.999Z</time></trkpt><trkpt lat="44.705229400075225" lon="9.507325446580062"><ele>920.0</ele><time>2026-03-28T12:24:44.999Z</time></trkpt><trkpt lat="44.70531067036122" lon="9.507287539609207"><ele>920.0000000000001</ele><time>2026-03-28T12:24:45.999Z</time></trkpt><trkpt lat="44.70540138509155" lon="9.507282485791043"><ele>920.0</ele><time>2026-03-28T12:24:46.999Z</time></trkpt><trkpt lat="44.705481424257" lon="9.507365287029755"><ele>920.3333333333334</ele><time>2026-03-28T12:24:47.999Z</time></trkpt><trkpt lat="44.70554251971149" lon="9.507449410974546"><ele>920.6666666666667</ele><time>2026-03-28T12:24:48.999Z</time></trkpt><trkpt lat="44.70554782008894" lon="9.507566951010755"><ele>921.0</ele><time>2026-03-28T12:24:49.999Z</time></trkpt><trkpt lat="44.7055289522007" lon="9.507669577557941"><ele>921.3333333333333</ele><time>2026-03-28T12:24:50.999Z</time></trkpt><trkpt lat="44.705517279457695" lon="9.507795404952729"><ele>921.6666666666666</ele><time>2026-03-28T12:24:51.999Z</time></trkpt><trkpt lat="44.70550023743647" lon="9.507914571336752"><ele>922.0</ele><time>2026-03-28T12:24:52.999Z</time></trkpt><trkpt lat="44.705481271545835" lon="9.508033778736664"><ele>921.9999999999999</ele><time>2026-03-28T12:24:53.999Z</time></trkpt><trkpt lat="44.70546344925956" lon="9.508150985820393"><ele>922.0</ele><time>2026-03-28T12:24:54.999Z</time></trkpt><trkpt lat="44.70544808223359" lon="9.508271790710337"><ele>922.0</ele><time>2026-03-28T12:24:55.999Z</time></trkpt><trkpt lat="44.70544899379142" lon="9.508394948925112"><ele>922.0</ele><time>2026-03-28T12:24:56.999Z</time></trkpt><trkpt lat="44.70546385868266" lon="9.50851637410916"><ele>921.9999999999999</ele><time>2026-03-28T12:24:57.999Z</time></trkpt><trkpt lat="44.705492920273414" lon="9.50863069910011"><ele>922.0</ele><time>2026-03-28T12:24:58.999Z</time></trkpt><trkpt lat="44.70550536645821" lon="9.508752126913802"><ele>921.3333333333333</ele><time>2026-03-28T12:24:59.999Z</time></trkpt><trkpt lat="44.705516699876526" lon="9.508863221346534"><ele>920.6666666666666</ele><time>2026-03-28T12:25:00.999Z</time></trkpt><trkpt lat="44.7055288484929" lon="9.508971648517807"><ele>920.0</ele><time>2026-03-28T12:25:01.999Z</time></trkpt><trkpt lat="44.70554598814343" lon="9.509082836016333"><ele>919.3333333333333</ele><time>2026-03-28T12:25:02.999Z</time></trkpt><trkpt lat="44.7055597592156" lon="9.509194405877654"><ele>918.6666666666666</ele><time>2026-03-28T12:25:03.999Z</time></trkpt><trkpt lat="44.7055725542831" lon="9.509308656612095"><ele>918.0</ele><time>2026-03-28T12:25:04.999Z</time></trkpt><trkpt lat="44.705583081618414" lon="9.509424232141596"><ele>918.0</ele><time>2026-03-28T12:25:05.999Z</time></trkpt><trkpt lat="44.705595446573525" lon="9.50954072142247"><ele>918.0</ele><time>2026-03-28T12:25:06.999Z</time></trkpt><trkpt lat="44.70560737086509" lon="9.509657396293406"><ele>918.0</ele><time>2026-03-28T12:25:07.999Z</time></trkpt><trkpt lat="44.70562639080962" lon="9.509774697189435"><ele>918.0</ele><time>2026-03-28T12:25:08.999Z</time></trkpt><trkpt lat="44.70565676856179" lon="9.509887879541703"><ele>918.0</ele><time>2026-03-28T12:25:09.999Z</time></trkpt><trkpt lat="44.70569667646479" lon="9.509993459548607"><ele>918.0</ele><time>2026-03-28T12:25:10.999Z</time></trkpt><trkpt lat="44.70573963509711" lon="9.510101918925953"><ele>917.8</ele><time>2026-03-28T12:25:11.999Z</time></trkpt><trkpt lat="44.70576051500549" lon="9.510222109861573"><ele>917.5999999999999</ele><time>2026-03-28T12:25:12.999Z</time></trkpt><trkpt lat="44.705786314957145" lon="9.510346071030547"><ele>917.4000000000001</ele><time>2026-03-28T12:25:13.999Z</time></trkpt><trkpt lat="44.70582169995777" lon="9.510468224802368"><ele>917.2</ele><time>2026-03-28T12:25:14.999Z</time></trkpt><trkpt lat="44.70582983406428" lon="9.510604591222247"><ele>917.0</ele><time>2026-03-28T12:25:15.999Z</time></trkpt><trkpt lat="44.705851759976255" lon="9.510747779905442"><ele>916.6</ele><time>2026-03-28T12:25:16.999Z</time></trkpt><trkpt lat="44.70586756039287" lon="9.510892318104341"><ele>916.2</ele><time>2026-03-28T12:25:17.999Z</time></trkpt><trkpt lat="44.70585897457387" lon="9.511035694807155"><ele>915.8</ele><time>2026-03-28T12:25:18.999Z</time></trkpt><trkpt lat="44.70582568275071" lon="9.511166187683788"><ele>915.4</ele><time>2026-03-28T12:25:19.999Z</time></trkpt><trkpt lat="44.70575800404086" lon="9.511275353595778"><ele>915.0</ele><time>2026-03-28T12:25:20.999Z</time></trkpt><trkpt lat="44.70569615482697" lon="9.511394175802181"><ele>914.2</ele><time>2026-03-28T12:25:21.999Z</time></trkpt><trkpt lat="44.70564479202349" lon="9.511517750083554"><ele>913.4</ele><time>2026-03-28T12:25:22.999Z</time></trkpt><trkpt lat="44.70568369037862" lon="9.51169194685287"><ele>912.5999999999999</ele><time>2026-03-28T12:25:23.999Z</time></trkpt><trkpt lat="44.70572458629897" lon="9.511830218206102"><ele>911.8</ele><time>2026-03-28T12:25:24.999Z</time></trkpt><trkpt lat="44.70576445472143" lon="9.511952627287174"><ele>911.0</ele><time>2026-03-28T12:25:25.999Z</time></trkpt><trkpt lat="44.70578242637341" lon="9.512087861314056"><ele>910.0</ele><time>2026-03-28T12:25:26.999Z</time></trkpt><trkpt lat="44.70579717991463" lon="9.512226292286078"><ele>908.9999999999999</ele><time>2026-03-28T12:25:27.999Z</time></trkpt><trkpt lat="44.70580374434568" lon="9.51236733093852"><ele>907.9999999999999</ele><time>2026-03-28T12:25:28.999Z</time></trkpt><trkpt lat="44.705799695187046" lon="9.512509372870875"><ele>907.0</ele><time>2026-03-28T12:25:29.999Z</time></trkpt><trkpt lat="44.70578015576755" lon="9.512644846011813"><ele>906.0</ele><time>2026-03-28T12:25:30.999Z</time></trkpt><trkpt lat="44.70572646863119" lon="9.512744660506364"><ele>906.0</ele><time>2026-03-28T12:25:31.999Z</time></trkpt><trkpt lat="44.70565625926813" lon="9.512836907412963"><ele>905.9999999999999</ele><time>2026-03-28T12:25:32.999Z</time></trkpt><trkpt lat="44.70558707610432" lon="9.512942588990036"><ele>905.9999999999999</ele><time>2026-03-28T12:25:33.999Z</time></trkpt><trkpt lat="44.70554801888696" lon="9.513104441795774"><ele>906.0</ele><time>2026-03-28T12:25:34.999Z</time></trkpt><trkpt lat="44.705568152252994" lon="9.513275402558522"><ele>906.0</ele><time>2026-03-28T12:25:35.999Z</time></trkpt><trkpt lat="44.705583523039486" lon="9.513423086759111"><ele>905.8</ele><time>2026-03-28T12:25:36.999Z</time></trkpt><trkpt lat="44.70559929192224" lon="9.513570954070271"><ele>905.5999999999999</ele><time>2026-03-28T12:25:37.999Z</time></trkpt><trkpt lat="44.70561572028885" lon="9.513720982784626"><ele>905.4</ele><time>2026-03-28T12:25:38.998Z</time></trkpt><trkpt lat="44.70563424437532" lon="9.513873298012605"><ele>905.2</ele><time>2026-03-28T12:25:39.998Z</time></trkpt><trkpt lat="44.70565183047437" lon="9.514028210216514"><ele>905.0</ele><time>2026-03-28T12:25:40.998Z</time></trkpt><trkpt lat="44.70566081163595" lon="9.514184442769952"><ele>904.25</ele><time>2026-03-28T12:25:41.998Z</time></trkpt><trkpt lat="44.70564332074066" lon="9.514336376104652"><ele>903.5</ele><time>2026-03-28T12:25:42.998Z</time></trkpt><trkpt lat="44.70561972455301" lon="9.514495068016322"><ele>902.75</ele><time>2026-03-28T12:25:43.998Z</time></trkpt><trkpt lat="44.70559073615358" lon="9.51465793783866"><ele>902.0</ele><time>2026-03-28T12:25:44.998Z</time></trkpt><trkpt lat="44.70555631281733" lon="9.514817152841749"><ele>901.25</ele><time>2026-03-28T12:25:45.998Z</time></trkpt><trkpt lat="44.70549790677698" lon="9.514952105374332"><ele>900.5</ele><time>2026-03-28T12:25:46.998Z</time></trkpt><trkpt lat="44.70541330359103" lon="9.51503473184867"><ele>899.75</ele><time>2026-03-28T12:25:47.998Z</time></trkpt><trkpt lat="44.7053124348623" lon="9.515096949155566"><ele>899.0</ele><time>2026-03-28T12:25:48.998Z</time></trkpt><trkpt lat="44.705200625403954" lon="9.515177602416363"><ele>896.25</ele><time>2026-03-28T12:25:49.998Z</time></trkpt><trkpt lat="44.705092236754965" lon="9.515270292037334"><ele>893.5</ele><time>2026-03-28T12:25:50.998Z</time></trkpt><trkpt lat="44.70499408777594" lon="9.515366123305554"><ele>890.75</ele><time>2026-03-28T12:25:51.998Z</time></trkpt><trkpt lat="44.70490589840753" lon="9.515464121528032"><ele>888.0</ele><time>2026-03-28T12:25:52.998Z</time></trkpt><trkpt lat="44.704829242631135" lon="9.515577577771328"><ele>888.0</ele><time>2026-03-28T12:25:53.998Z</time></trkpt><trkpt lat="44.70477771565185" lon="9.515736234904042"><ele>888.0</ele><time>2026-03-28T12:25:54.998Z</time></trkpt><trkpt lat="44.70478305456205" lon="9.515920853915855"><ele>888.0</ele><time>2026-03-28T12:25:55.998Z</time></trkpt><trkpt lat="44.70480508762092" lon="9.516084984668904"><ele>888.0</ele><time>2026-03-28T12:25:56.998Z</time></trkpt><trkpt lat="44.704800107111595" lon="9.516251307351522"><ele>887.4</ele><time>2026-03-28T12:25:57.998Z</time></trkpt><trkpt lat="44.7048340234924" lon="9.516402253793105"><ele>886.8</ele><time>2026-03-28T12:25:58.998Z</time></trkpt><trkpt lat="44.704868228910975" lon="9.516541013182794"><ele>886.2</ele><time>2026-03-28T12:25:59.998Z</time></trkpt><trkpt lat="44.704945681357025" lon="9.51664510960092"><ele>885.6</ele><time>2026-03-28T12:26:00.998Z</time></trkpt><trkpt lat="44.70504921844184" lon="9.516680207633646"><ele>885.0</ele><time>2026-03-28T12:26:01.998Z</time></trkpt><trkpt lat="44.70514963128978" lon="9.516728597308896"><ele>885.2</ele><time>2026-03-28T12:26:02.998Z</time></trkpt><trkpt lat="44.70524784657839" lon="9.51678895633559"><ele>885.4</ele><time>2026-03-28T12:26:03.998Z</time></trkpt><trkpt lat="44.705340611616606" lon="9.516841885977838"><ele>885.5999999999999</ele><time>2026-03-28T12:26:04.998Z</time></trkpt><trkpt lat="44.70543248473437" lon="9.516870919748976"><ele>885.8</ele><time>2026-03-28T12:26:05.998Z</time></trkpt><trkpt lat="44.705523898317495" lon="9.516875689496125"><ele>886.0</ele><time>2026-03-28T12:26:06.998Z</time></trkpt><trkpt lat="44.70561313534559" lon="9.516864821989298"><ele>886.0</ele><time>2026-03-28T12:26:07.998Z</time></trkpt><trkpt lat="44.70570455951647" lon="9.516854358245562"><ele>885.9999999999999</ele><time>2026-03-28T12:26:08.998Z</time></trkpt><trkpt lat="44.70580183533947" lon="9.516857229738328"><ele>885.9999999999999</ele><time>2026-03-28T12:26:09.998Z</time></trkpt><trkpt lat="44.70589654193931" lon="9.516919337209206"><ele>886.0</ele><time>2026-03-28T12:26:11Z</time></trkpt><trkpt lat="44.705953811326566" lon="9.517043045435504"><ele>886.0</ele><time>2026-03-28T12:26:12Z</time></trkpt><trkpt lat="44.705934859579216" lon="9.517170812420682"><ele>884.8</ele><time>2026-03-28T12:26:13Z</time></trkpt><trkpt lat="44.70588696834438" lon="9.517249990049985"><ele>883.5999999999999</ele><time>2026-03-28T12:26:14Z</time></trkpt><trkpt lat="44.70583123603884" lon="9.517313417656043"><ele>882.4</ele><time>2026-03-28T12:26:15Z</time></trkpt><trkpt lat="44.705764806276996" lon="9.517404417916588"><ele>881.2</ele><time>2026-03-28T12:26:16Z</time></trkpt><trkpt lat="44.705703743890666" lon="9.517498363072496"><ele>880.0</ele><time>2026-03-28T12:26:17Z</time></trkpt><trkpt lat="44.70567133383875" lon="9.517665012937224"><ele>880.0</ele><time>2026-03-28T12:26:18Z</time></trkpt><trkpt lat="44.7057030818878" lon="9.517818468238932"><ele>880.0</ele><time>2026-03-28T12:26:19Z</time></trkpt><trkpt lat="44.70575017680428" lon="9.51793973137718"><ele>880.0</ele><time>2026-03-28T12:26:20Z</time></trkpt><trkpt lat="44.705785884690265" lon="9.51805973777025"><ele>880.0</ele><time>2026-03-28T12:26:21Z</time></trkpt><trkpt lat="44.70581621531039" lon="9.51818452172086"><ele>880.0</ele><time>2026-03-28T12:26:22Z</time></trkpt><trkpt lat="44.70582319813772" lon="9.518318671128675"><ele>879.8</ele><time>2026-03-28T12:26:23Z</time></trkpt><trkpt lat="44.705828836162446" lon="9.518449617997684"><ele>879.6</ele><time>2026-03-28T12:26:24Z</time></trkpt><trkpt lat="44.70581434271602" lon="9.518578400999091"><ele>879.4000000000001</ele><time>2026-03-28T12:26:25Z</time></trkpt><trkpt lat="44.7057727266122" lon="9.51869410852648"><ele>879.2</ele><time>2026-03-28T12:26:26Z</time></trkpt><trkpt lat="44.70573891478267" lon="9.518828335656377"><ele>879.0</ele><time>2026-03-28T12:26:27Z</time></trkpt><trkpt lat="44.705712064107196" lon="9.518974494112317"><ele>879.0</ele><time>2026-03-28T12:26:28Z</time></trkpt><trkpt lat="44.70569490945661" lon="9.519125478722886"><ele>879.0000000000001</ele><time>2026-03-28T12:26:29Z</time></trkpt><trkpt lat="44.705682502085764" lon="9.519274791315635"><ele>879.0000000000001</ele><time>2026-03-28T12:26:30Z</time></trkpt><trkpt lat="44.70568010595399" lon="9.519431543946961"><ele>879.0</ele><time>2026-03-28T12:26:31Z</time></trkpt><trkpt lat="44.70571141384024" lon="9.519576625916788"><ele>879.0</ele><time>2026-03-28T12:26:32Z</time></trkpt><trkpt lat="44.70573790221318" lon="9.51971687768383"><ele>879.0</ele><time>2026-03-28T12:26:33Z</time></trkpt><trkpt lat="44.70578329959359" lon="9.519839614849735"><ele>879.0000000000001</ele><time>2026-03-28T12:26:34Z</time></trkpt><trkpt lat="44.705823845819076" lon="9.519961308853365"><ele>879.0000000000001</ele><time>2026-03-28T12:26:35Z</time></trkpt><trkpt lat="44.705823940061556" lon="9.520095324558595"><ele>879.0</ele><time>2026-03-28T12:26:36Z</time></trkpt><trkpt lat="44.70581408650824" lon="9.520222219483188"><ele>879.0</ele><time>2026-03-28T12:26:37Z</time></trkpt><trkpt lat="44.705795391168344" lon="9.52034741128266"><ele>879.3333333333334</ele><time>2026-03-28T12:26:38Z</time></trkpt><trkpt lat="44.70575881695984" lon="9.520448909127554"><ele>879.6666666666667</ele><time>2026-03-28T12:26:39Z</time></trkpt><trkpt lat="44.705713217456974" lon="9.520543552642565"><ele>880.0</ele><time>2026-03-28T12:26:40Z</time></trkpt><trkpt lat="44.7056623666285" lon="9.520639898401724"><ele>880.3333333333334</ele><time>2026-03-28T12:26:41Z</time></trkpt><trkpt lat="44.70560708398238" lon="9.520735097524506"><ele>880.6666666666667</ele><time>2026-03-28T12:26:42Z</time></trkpt><trkpt lat="44.70554918890081" lon="9.520831405264346"><ele>881.0</ele><time>2026-03-28T12:26:43Z</time></trkpt><trkpt lat="44.705489067740025" lon="9.520923306644878"><ele>881.0000000000001</ele><time>2026-03-28T12:26:44Z</time></trkpt><trkpt lat="44.70542831558719" lon="9.521017164395403"><ele>881.0</ele><time>2026-03-28T12:26:45Z</time></trkpt><trkpt lat="44.70536613012874" lon="9.521098771657508"><ele>881.0</ele><time>2026-03-28T12:26:46Z</time></trkpt><trkpt lat="44.705301843286335" lon="9.521185302238502"><ele>881.0</ele><time>2026-03-28T12:26:46.999Z</time></trkpt><trkpt lat="44.70523718728258" lon="9.521279309569088"><ele>881.0000000000001</ele><time>2026-03-28T12:26:47.999Z</time></trkpt><trkpt lat="44.705178167984464" lon="9.521378848468245"><ele>881.0</ele><time>2026-03-28T12:26:48.999Z</time></trkpt><trkpt lat="44.70512207218064" lon="9.52147683072121"><ele>879.4</ele><time>2026-03-28T12:26:49.999Z</time></trkpt><trkpt lat="44.70506697249348" lon="9.521574100035092"><ele>877.8</ele><time>2026-03-28T12:26:50.999Z</time></trkpt><trkpt lat="44.705011963033066" lon="9.521667183907189"><ele>876.1999999999999</ele><time>2026-03-28T12:26:51.999Z</time></trkpt><trkpt lat="44.704997876120515" lon="9.521813050281512"><ele>874.5999999999999</ele><time>2026-03-28T12:26:52.999Z</time></trkpt><trkpt lat="44.704941501895924" lon="9.52190665453997"><ele>873.0</ele><time>2026-03-28T12:26:53.999Z</time></trkpt><trkpt lat="44.7048833048844" lon="9.521997036590607"><ele>874.8333333333334</ele><time>2026-03-28T12:26:54.999Z</time></trkpt><trkpt lat="44.704822218454574" lon="9.522085117566178"><ele>876.6666666666667</ele><time>2026-03-28T12:26:55.999Z</time></trkpt><trkpt lat="44.70476140785301" lon="9.522174616877246"><ele>878.5</ele><time>2026-03-28T12:26:56.999Z</time></trkpt><trkpt lat="44.704702831219514" lon="9.522265514544403"><ele>880.3333333333334</ele><time>2026-03-28T12:26:57.999Z</time></trkpt><trkpt lat="44.70463494270794" lon="9.522352959295207"><ele>882.1666666666667</ele><time>2026-03-28T12:26:58.999Z</time></trkpt><trkpt lat="44.704566308470405" lon="9.522435554888075"><ele>884.0</ele><time>2026-03-28T12:26:59.999Z</time></trkpt><trkpt lat="44.70449143837047" lon="9.5225040761118"><ele>884.0</ele><time>2026-03-28T12:27:00.999Z</time></trkpt><trkpt lat="44.70441340910734" lon="9.52256559481547"><ele>884.0000000000001</ele><time>2026-03-28T12:27:01.999Z</time></trkpt><trkpt lat="44.70433048746661" lon="9.52262415089814"><ele>884.0000000000001</ele><time>2026-03-28T12:27:02.999Z</time></trkpt><trkpt lat="44.70424643016607" lon="9.522681660032916"><ele>884.0</ele><time>2026-03-28T12:27:03.999Z</time></trkpt><trkpt lat="44.704154989765215" lon="9.522728792533357"><ele>884.0</ele><time>2026-03-28T12:27:04.999Z</time></trkpt><trkpt lat="44.704057065946" lon="9.522744765103008"><ele>882.2</ele><time>2026-03-28T12:27:05.999Z</time></trkpt><trkpt lat="44.703959340828355" lon="9.522750525937498"><ele>880.4000000000001</ele><time>2026-03-28T12:27:06.999Z</time></trkpt><trkpt lat="44.70387917888582" lon="9.52278064967581"><ele>878.6</ele><time>2026-03-28T12:27:07.999Z</time></trkpt><trkpt lat="44.70381866010442" lon="9.522863366150187"><ele>876.8</ele><time>2026-03-28T12:27:08.999Z</time></trkpt><trkpt lat="44.70374641745139" lon="9.522958923837203"><ele>875.0</ele><time>2026-03-28T12:27:09.999Z</time></trkpt><trkpt lat="44.70378543343066" lon="9.523131025129603"><ele>875.0</ele><time>2026-03-28T12:27:10.999Z</time></trkpt><trkpt lat="44.70389453599799" lon="9.523231426063719"><ele>875.0</ele><time>2026-03-28T12:27:11.999Z</time></trkpt><trkpt lat="44.70395549603355" lon="9.523324342134872"><ele>875.0</ele><time>2026-03-28T12:27:12.999Z</time></trkpt><trkpt lat="44.70402405353499" lon="9.523418850742058"><ele>875.0</ele><time>2026-03-28T12:27:13.999Z</time></trkpt><trkpt lat="44.7040866975756" lon="9.52352419457321"><ele>875.0</ele><time>2026-03-28T12:27:14.999Z</time></trkpt><trkpt lat="44.704148176090705" lon="9.52363407650607"><ele>873.2</ele><time>2026-03-28T12:27:15.999Z</time></trkpt><trkpt lat="44.70419903949307" lon="9.523763058117837"><ele>871.4</ele><time>2026-03-28T12:27:16.999Z</time></trkpt><trkpt lat="44.70424006860938" lon="9.52389109426601"><ele>869.5999999999999</ele><time>2026-03-28T12:27:17.999Z</time></trkpt><trkpt lat="44.70426986465825" lon="9.524028865582796"><ele>867.8</ele><time>2026-03-28T12:27:18.999Z</time></trkpt><trkpt lat="44.70428837923256" lon="9.524171875104551"><ele>866.0</ele><time>2026-03-28T12:27:19.999Z</time></trkpt><trkpt lat="44.704311518155016" lon="9.524317294983332"><ele>866.0</ele><time>2026-03-28T12:27:20.999Z</time></trkpt><trkpt lat="44.704347782978495" lon="9.524449919484363"><ele>865.9999999999999</ele><time>2026-03-28T12:27:21.999Z</time></trkpt><trkpt lat="44.704394291313356" lon="9.524576757781555"><ele>865.9999999999999</ele><time>2026-03-28T12:27:22.999Z</time></trkpt><trkpt lat="44.70445296079757" lon="9.524696200749695"><ele>866.0</ele><time>2026-03-28T12:27:23.999Z</time></trkpt><trkpt lat="44.704507701429876" lon="9.524821161653938"><ele>866.0</ele><time>2026-03-28T12:27:24.999Z</time></trkpt><trkpt lat="44.70454636446515" lon="9.524953695430348"><ele>864.8</ele><time>2026-03-28T12:27:25.999Z</time></trkpt><trkpt lat="44.704581445128156" lon="9.525087407335482"><ele>863.5999999999999</ele><time>2026-03-28T12:27:26.999Z</time></trkpt><trkpt lat="44.70460949012805" lon="9.525223089511794"><ele>862.4</ele><time>2026-03-28T12:27:27.999Z</time></trkpt><trkpt lat="44.704624929148544" lon="9.525360482936"><ele>861.2</ele><time>2026-03-28T12:27:28.999Z</time></trkpt><trkpt lat="44.704642271040235" lon="9.525495945532308"><ele>860.0</ele><time>2026-03-28T12:27:29.999Z</time></trkpt><trkpt lat="44.704669276838" lon="9.525626946806588"><ele>860.0</ele><time>2026-03-28T12:27:30.999Z</time></trkpt><trkpt lat="44.70471215860332" lon="9.525751241359309"><ele>860.0</ele><time>2026-03-28T12:27:31.999Z</time></trkpt><trkpt lat="44.704773742485216" lon="9.525863822060948"><ele>860.0</ele><time>2026-03-28T12:27:32.999Z</time></trkpt><trkpt lat="44.70485369573362" lon="9.525957874513708"><ele>860.0</ele><time>2026-03-28T12:27:33.999Z</time></trkpt><trkpt lat="44.70495541851347" lon="9.525995596925355"><ele>860.0</ele><time>2026-03-28T12:27:34.999Z</time></trkpt><trkpt lat="44.705053559459586" lon="9.526038400339573"><ele>860.0</ele><time>2026-03-28T12:27:35.999Z</time></trkpt><trkpt lat="44.70515728661185" lon="9.52607466090778"><ele>860.0</ele><time>2026-03-28T12:27:36.999Z</time></trkpt><trkpt lat="44.70526169615118" lon="9.526119254283087"><ele>860.0</ele><time>2026-03-28T12:27:37.999Z</time></trkpt><trkpt lat="44.70536200694451" lon="9.526179706463246"><ele>860.0</ele><time>2026-03-28T12:27:38.999Z</time></trkpt><trkpt lat="44.70544271241182" lon="9.526289491667768"><ele>860.0</ele><time>2026-03-28T12:27:39.999Z</time></trkpt><trkpt lat="44.70551367243069" lon="9.52640986243942"><ele>860.8</ele><time>2026-03-28T12:27:40.999Z</time></trkpt><trkpt lat="44.70553675047651" lon="9.526563461909305"><ele>861.6</ele><time>2026-03-28T12:27:41.998Z</time></trkpt><trkpt lat="44.705545285962515" lon="9.526717310171891"><ele>862.4000000000001</ele><time>2026-03-28T12:27:42.998Z</time></trkpt><trkpt lat="44.70555506469673" lon="9.526872099143342"><ele>863.2</ele><time>2026-03-28T12:27:43.998Z</time></trkpt><trkpt lat="44.7055924662252" lon="9.52701662845384"><ele>864.0</ele><time>2026-03-28T12:27:44.998Z</time></trkpt><trkpt lat="44.70564130468865" lon="9.527151116624907"><ele>861.4000000000001</ele><time>2026-03-28T12:27:45.998Z</time></trkpt><trkpt lat="44.70573116781534" lon="9.527236968881663"><ele>858.8000000000001</ele><time>2026-03-28T12:27:46.998Z</time></trkpt><trkpt lat="44.705819616530995" lon="9.527325490350576"><ele>856.2</ele><time>2026-03-28T12:27:47.998Z</time></trkpt><trkpt lat="44.70589557896842" lon="9.527436135036062"><ele>853.5999999999999</ele><time>2026-03-28T12:27:48.998Z</time></trkpt><trkpt lat="44.70597395358088" lon="9.527539962826294"><ele>851.0</ele><time>2026-03-28T12:27:49.998Z</time></trkpt><trkpt lat="44.70604722034865" lon="9.527648485634202"><ele>851.4</ele><time>2026-03-28T12:27:50.998Z</time></trkpt><trkpt lat="44.70614567422483" lon="9.52769204168188"><ele>851.8</ele><time>2026-03-28T12:27:51.998Z</time></trkpt><trkpt lat="44.7062370301464" lon="9.52771727992338"><ele>852.1999999999999</ele><time>2026-03-28T12:27:52.998Z</time></trkpt><trkpt lat="44.706324250929434" lon="9.527713617020874"><ele>852.5999999999999</ele><time>2026-03-28T12:27:53.998Z</time></trkpt><trkpt lat="44.70641174369812" lon="9.527696990475738"><ele>853.0</ele><time>2026-03-28T12:27:54.998Z</time></trkpt><trkpt lat="44.70649949075278" lon="9.527673612494032"><ele>853.0</ele><time>2026-03-28T12:27:55.998Z</time></trkpt><trkpt lat="44.70658723176005" lon="9.527646280915365"><ele>853.0</ele><time>2026-03-28T12:27:56.998Z</time></trkpt><trkpt lat="44.70667186742352" lon="9.5276112799299"><ele>853.0</ele><time>2026-03-28T12:27:57.998Z</time></trkpt><trkpt lat="44.70676943098481" lon="9.527576603728026"><ele>853.0</ele><time>2026-03-28T12:27:58.998Z</time></trkpt><trkpt lat="44.70687735471482" lon="9.527575290459342"><ele>853.0</ele><time>2026-03-28T12:27:59.998Z</time></trkpt><trkpt lat="44.70697748454876" lon="9.527613686131986"><ele>853.0</ele><time>2026-03-28T12:28:00.998Z</time></trkpt><trkpt lat="44.707069343157976" lon="9.527657264035575"><ele>853.0</ele><time>2026-03-28T12:28:01.998Z</time></trkpt><trkpt lat="44.70715772627717" lon="9.527701508035634"><ele>853.0</ele><time>2026-03-28T12:28:02.998Z</time></trkpt><trkpt lat="44.70724078531139" lon="9.527717427177874"><ele>853.0</ele><time>2026-03-28T12:28:03.998Z</time></trkpt><trkpt lat="44.707328486516914" lon="9.527708084481358"><ele>853.0</ele><time>2026-03-28T12:28:04.998Z</time></trkpt><trkpt lat="44.707414658170336" lon="9.527686607263236"><ele>853.0</ele><time>2026-03-28T12:28:05.998Z</time></trkpt><trkpt lat="44.70750857174232" lon="9.527652896788636"><ele>853.0</ele><time>2026-03-28T12:28:06.998Z</time></trkpt><trkpt lat="44.70760842721742" lon="9.52763859259815"><ele>853.0</ele><time>2026-03-28T12:28:07.998Z</time></trkpt><trkpt lat="44.70770780968902" lon="9.527634236252972"><ele>853.0</ele><time>2026-03-28T12:28:08.998Z</time></trkpt><trkpt lat="44.707807894443036" lon="9.527640434215852"><ele>853.0</ele><time>2026-03-28T12:28:09.998Z</time></trkpt><trkpt lat="44.70790566467953" lon="9.527654976984442"><ele>853.5999999999999</ele><time>2026-03-28T12:28:10.998Z</time></trkpt><trkpt lat="44.708005817265075" lon="9.527680251753722"><ele>854.1999999999999</ele><time>2026-03-28T12:28:11.998Z</time></trkpt><trkpt lat="44.708099539263316" lon="9.527704515021396"><ele>854.8</ele><time>2026-03-28T12:28:12.998Z</time></trkpt><trkpt lat="44.708191910721766" lon="9.527728792576639"><ele>855.4</ele><time>2026-03-28T12:28:13.998Z</time></trkpt><trkpt lat="44.70828206268888" lon="9.527755488651074"><ele>856.0</ele><time>2026-03-28T12:28:14.998Z</time></trkpt><trkpt lat="44.708371785346934" lon="9.527783899952658"><ele>856.0</ele><time>2026-03-28T12:28:16Z</time></trkpt><trkpt lat="44.70846109743732" lon="9.527816076479308"><ele>855.9999999999999</ele><time>2026-03-28T12:28:17Z</time></trkpt><trkpt lat="44.70854880727874" lon="9.527852460357003"><ele>855.9999999999999</ele><time>2026-03-28T12:28:18Z</time></trkpt><trkpt lat="44.708632204952536" lon="9.527888123092954"><ele>856.0</ele><time>2026-03-28T12:28:19Z</time></trkpt><trkpt lat="44.70871898350257" lon="9.527927767627109"><ele>856.0</ele><time>2026-03-28T12:28:20Z</time></trkpt><trkpt lat="44.70880377394565" lon="9.527969503982504"><ele>854.5999999999999</ele><time>2026-03-28T12:28:21Z</time></trkpt><trkpt lat="44.70888273118958" lon="9.528038073263453"><ele>853.1999999999999</ele><time>2026-03-28T12:28:22Z</time></trkpt><trkpt lat="44.708966544944126" lon="9.52808878926561"><ele>851.8</ele><time>2026-03-28T12:28:23Z</time></trkpt><trkpt lat="44.709044889128755" lon="9.528157799122356"><ele>850.4000000000001</ele><time>2026-03-28T12:28:24Z</time></trkpt><trkpt lat="44.7091123953915" lon="9.52825364977209"><ele>849.0</ele><time>2026-03-28T12:28:25Z</time></trkpt><trkpt lat="44.70916567487758" lon="9.528355765294556"><ele>849.0</ele><time>2026-03-28T12:28:26Z</time></trkpt><trkpt lat="44.709209500330104" lon="9.528466238301377"><ele>849.0</ele><time>2026-03-28T12:28:27Z</time></trkpt><trkpt lat="44.70925345787681" lon="9.528571427307371"><ele>849.0</ele><time>2026-03-28T12:28:28Z</time></trkpt><trkpt lat="44.70930308638537" lon="9.528669398590186"><ele>849.0</ele><time>2026-03-28T12:28:29Z</time></trkpt><trkpt lat="44.709357352250386" lon="9.528760395411947"><ele>849.0</ele><time>2026-03-28T12:28:30Z</time></trkpt><trkpt lat="44.70942162506034" lon="9.528839837149087"><ele>849.0</ele><time>2026-03-28T12:28:31Z</time></trkpt><trkpt lat="44.709490820857376" lon="9.528912928017267"><ele>849.1666666666666</ele><time>2026-03-28T12:28:32Z</time></trkpt><trkpt lat="44.709563726893826" lon="9.528990307342044"><ele>849.3333333333333</ele><time>2026-03-28T12:28:33Z</time></trkpt><trkpt lat="44.70962979754056" lon="9.529069706932924"><ele>849.5</ele><time>2026-03-28T12:28:34Z</time></trkpt><trkpt lat="44.70969574082105" lon="9.529149640785036"><ele>849.6666666666666</ele><time>2026-03-28T12:28:35Z</time></trkpt><trkpt lat="44.7097608900968" lon="9.529227214849914"><ele>849.8333333333333</ele><time>2026-03-28T12:28:36Z</time></trkpt><trkpt lat="44.7098174271772" lon="9.529313517704143"><ele>850.0</ele><time>2026-03-28T12:28:37Z</time></trkpt><trkpt lat="44.7098394627656" lon="9.529436699168183"><ele>849.0</ele><time>2026-03-28T12:28:38Z</time></trkpt><trkpt lat="44.709845855773686" lon="9.52956738334857"><ele>848.0</ele><time>2026-03-28T12:28:39Z</time></trkpt><trkpt lat="44.7098487530492" lon="9.529700078601476"><ele>847.0</ele><time>2026-03-28T12:28:40Z</time></trkpt><trkpt lat="44.70983905917961" lon="9.529837206087615"><ele>846.0</ele><time>2026-03-28T12:28:41Z</time></trkpt><trkpt lat="44.709814403213606" lon="9.529968419364748"><ele>845.0</ele><time>2026-03-28T12:28:42Z</time></trkpt><trkpt lat="44.70978273883631" lon="9.530103154223905"><ele>845.0</ele><time>2026-03-28T12:28:43Z</time></trkpt><trkpt lat="44.709747803419035" lon="9.530252468936272"><ele>845.0</ele><time>2026-03-28T12:28:44Z</time></trkpt><trkpt lat="44.70972081004814" lon="9.5304050511532"><ele>845.0</ele><time>2026-03-28T12:28:45Z</time></trkpt><trkpt lat="44.70970179836224" lon="9.530570825920353"><ele>845.0</ele><time>2026-03-28T12:28:46Z</time></trkpt><trkpt lat="44.709695505891254" lon="9.530732994049963"><ele>844.25</ele><time>2026-03-28T12:28:47Z</time></trkpt><trkpt lat="44.70969924530391" lon="9.530900704292657"><ele>843.5</ele><time>2026-03-28T12:28:47.999Z</time></trkpt><trkpt lat="44.709730108762" lon="9.531057535857286"><ele>842.75</ele><time>2026-03-28T12:28:48.999Z</time></trkpt><trkpt lat="44.70977144205109" lon="9.531215888496067"><ele>842.0</ele><time>2026-03-28T12:28:49.999Z</time></trkpt><trkpt lat="44.709832841697136" lon="9.531359122269611"><ele>840.2</ele><time>2026-03-28T12:28:50.999Z</time></trkpt><trkpt lat="44.70989872866644" lon="9.531490779246523"><ele>838.4000000000001</ele><time>2026-03-28T12:28:51.999Z</time></trkpt><trkpt lat="44.70997657847513" lon="9.531608365704525"><ele>836.5999999999999</ele><time>2026-03-28T12:28:52.999Z</time></trkpt><trkpt lat="44.71005682511084" lon="9.531710871130915"><ele>834.8</ele><time>2026-03-28T12:28:53.999Z</time></trkpt><trkpt lat="44.71013615388739" lon="9.531812340281695"><ele>833.0</ele><time>2026-03-28T12:28:54.999Z</time></trkpt><trkpt lat="44.71019564902807" lon="9.531943704794891"><ele>832.0</ele><time>2026-03-28T12:28:55.999Z</time></trkpt><trkpt lat="44.710208885510774" lon="9.532100960372407"><ele>831.0</ele><time>2026-03-28T12:28:56.999Z</time></trkpt><trkpt lat="44.71019971376162" lon="9.532253914584944"><ele>830.0</ele><time>2026-03-28T12:28:57.999Z</time></trkpt><trkpt lat="44.710156680235045" lon="9.532391982802999"><ele>829.0</ele><time>2026-03-28T12:28:58.999Z</time></trkpt><trkpt lat="44.71007656516521" lon="9.53246439972221"><ele>828.0</ele><time>2026-03-28T12:28:59.999Z</time></trkpt><trkpt lat="44.710001803887394" lon="9.532572372314482"><ele>828.0</ele><time>2026-03-28T12:29:00.999Z</time></trkpt><trkpt lat="44.70993938618048" lon="9.53270323129393"><ele>828.0</ele><time>2026-03-28T12:29:01.999Z</time></trkpt><trkpt lat="44.709898088775624" lon="9.532848670934452"><ele>828.0</ele><time>2026-03-28T12:29:02.999Z</time></trkpt><trkpt lat="44.70986967717596" lon="9.53299319510683"><ele>828.0</ele><time>2026-03-28T12:29:03.999Z</time></trkpt><trkpt lat="44.709842175909884" lon="9.533130736219555"><ele>828.0</ele><time>2026-03-28T12:29:04.999Z</time></trkpt><trkpt lat="44.70981515556602" lon="9.533265872084169"><ele>828.0</ele><time>2026-03-28T12:29:05.999Z</time></trkpt><trkpt lat="44.709790897101904" lon="9.533404262692336"><ele>828.0</ele><time>2026-03-28T12:29:06.999Z</time></trkpt><trkpt lat="44.709776861971534" lon="9.533542083431756"><ele>828.0</ele><time>2026-03-28T12:29:07.999Z</time></trkpt><trkpt lat="44.70978926139756" lon="9.533688489987131"><ele>828.0</ele><time>2026-03-28T12:29:08.999Z</time></trkpt><trkpt lat="44.70984147861072" lon="9.53381705137583"><ele>828.0</ele><time>2026-03-28T12:29:09.999Z</time></trkpt><trkpt lat="44.709897760391" lon="9.533929751831558"><ele>828.0</ele><time>2026-03-28T12:29:10.999Z</time></trkpt><trkpt lat="44.70996296207847" lon="9.534028052460252"><ele>828.0</ele><time>2026-03-28T12:29:11.999Z</time></trkpt><trkpt lat="44.71003330154785" lon="9.534117316526938"><ele>828.0</ele><time>2026-03-28T12:29:12.999Z</time></trkpt><trkpt lat="44.71010585406223" lon="9.534207212061844"><ele>828.0</ele><time>2026-03-28T12:29:13.999Z</time></trkpt><trkpt lat="44.71017310979631" lon="9.534305257542409"><ele>828.0</ele><time>2026-03-28T12:29:14.999Z</time></trkpt><trkpt lat="44.71022773878196" lon="9.534416579212808"><ele>830.4</ele><time>2026-03-28T12:29:15.999Z</time></trkpt><trkpt lat="44.71026304899505" lon="9.534544302614924"><ele>832.8</ele><time>2026-03-28T12:29:16.999Z</time></trkpt><trkpt lat="44.71029462071188" lon="9.534669956170472"><ele>835.2</ele><time>2026-03-28T12:29:17.999Z</time></trkpt><trkpt lat="44.710329588801926" lon="9.534792576463273"><ele>837.6</ele><time>2026-03-28T12:29:18.999Z</time></trkpt><trkpt lat="44.71036888036845" lon="9.534912444225323"><ele>840.0</ele><time>2026-03-28T12:29:19.999Z</time></trkpt><trkpt lat="44.71040992483688" lon="9.535031285956968"><ele>840.0</ele><time>2026-03-28T12:29:20.999Z</time></trkpt><trkpt lat="44.7104495035255" lon="9.53515042984637"><ele>840.0</ele><time>2026-03-28T12:29:21.999Z</time></trkpt><trkpt lat="44.710486222722714" lon="9.535273917094667"><ele>840.0</ele><time>2026-03-28T12:29:22.999Z</time></trkpt><trkpt lat="44.71051520359698" lon="9.535397541942931"><ele>840.0</ele><time>2026-03-28T12:29:23.999Z</time></trkpt><trkpt lat="44.71051354633683" lon="9.535529631449055"><ele>840.0</ele><time>2026-03-28T12:29:24.999Z</time></trkpt><trkpt lat="44.71051395442762" lon="9.535658116183438"><ele>839.5</ele><time>2026-03-28T12:29:25.999Z</time></trkpt><trkpt lat="44.71050676970101" lon="9.535785047510359"><ele>839.0</ele><time>2026-03-28T12:29:26.999Z</time></trkpt><trkpt lat="44.710496168503404" lon="9.53591190909171"><ele>838.5</ele><time>2026-03-28T12:29:27.999Z</time></trkpt><trkpt lat="44.71047955843476" lon="9.536037154519803"><ele>838.0</ele><time>2026-03-28T12:29:28.999Z</time></trkpt><trkpt lat="44.71044642824314" lon="9.536149603927715"><ele>837.5</ele><time>2026-03-28T12:29:29.999Z</time></trkpt><trkpt lat="44.710386794072996" lon="9.536229051444352"><ele>837.0</ele><time>2026-03-28T12:29:30.999Z</time></trkpt><trkpt lat="44.7103144995799" lon="9.536296487566355"><ele>834.8</ele><time>2026-03-28T12:29:31.999Z</time></trkpt><trkpt lat="44.71023792946807" lon="9.536348454270044"><ele>832.6</ele><time>2026-03-28T12:29:32.999Z</time></trkpt><trkpt lat="44.710157454615754" lon="9.536408007641304"><ele>830.4</ele><time>2026-03-28T12:29:33.999Z</time></trkpt><trkpt lat="44.71007364227293" lon="9.536490699088478"><ele>828.1999999999999</ele><time>2026-03-28T12:29:34.999Z</time></trkpt><trkpt lat="44.7100055183773" lon="9.536602366057823"><ele>826.0</ele><time>2026-03-28T12:29:35.999Z</time></trkpt><trkpt lat="44.70997921005074" lon="9.536760324160063"><ele>826.0</ele><time>2026-03-28T12:29:36.999Z</time></trkpt><trkpt lat="44.70995983857382" lon="9.536887361562837"><ele>826.0</ele><time>2026-03-28T12:29:37.999Z</time></trkpt><trkpt lat="44.70994254308924" lon="9.537014342570702"><ele>826.0</ele><time>2026-03-28T12:29:38.999Z</time></trkpt><trkpt lat="44.70991543748328" lon="9.53713407872722"><ele>826.0</ele><time>2026-03-28T12:29:39.999Z</time></trkpt><trkpt lat="44.709872907866334" lon="9.53724090326485"><ele>826.0</ele><time>2026-03-28T12:29:40.999Z</time></trkpt><trkpt lat="44.70981585366867" lon="9.537340083153934"><ele>826.4</ele><time>2026-03-28T12:29:41.998Z</time></trkpt><trkpt lat="44.7097680622586" lon="9.53744468924"><ele>826.8</ele><time>2026-03-28T12:29:42.998Z</time></trkpt><trkpt lat="44.709724503050175" lon="9.5375608602801"><ele>827.1999999999999</ele><time>2026-03-28T12:29:43.998Z</time></trkpt><trkpt lat="44.709706722218456" lon="9.537693568626576"><ele>827.5999999999999</ele><time>2026-03-28T12:29:44.998Z</time></trkpt><trkpt lat="44.7097232800049" lon="9.53783019719721"><ele>828.0</ele><time>2026-03-28T12:29:45.998Z</time></trkpt><trkpt lat="44.70975610376065" lon="9.537947288828152"><ele>828.0</ele><time>2026-03-28T12:29:46.998Z</time></trkpt><trkpt lat="44.70976815147968" lon="9.538066801772105"><ele>828.0</ele><time>2026-03-28T12:29:47.998Z</time></trkpt><trkpt lat="44.709758144507546" lon="9.538182916471495"><ele>828.0</ele><time>2026-03-28T12:29:48.998Z</time></trkpt><trkpt lat="44.709743373143525" lon="9.538283433738991"><ele>828.0</ele><time>2026-03-28T12:29:49.998Z</time></trkpt><trkpt lat="44.709711279002356" lon="9.53836600499028"><ele>828.0</ele><time>2026-03-28T12:29:50.998Z</time></trkpt><trkpt lat="44.70967251302881" lon="9.538443274863779"><ele>828.0</ele><time>2026-03-28T12:29:51.998Z</time></trkpt><trkpt lat="44.70958122792443" lon="9.53855274711312"><ele>828.0000000000001</ele><time>2026-03-28T12:29:53.998Z</time></trkpt><trkpt lat="44.709526064950985" lon="9.5386059712248"><ele>828.0</ele><time>2026-03-28T12:29:54.998Z</time></trkpt><trkpt lat="44.709469912331286" lon="9.538660006714986"><ele>828.0</ele><time>2026-03-28T12:29:55.998Z</time></trkpt><trkpt lat="44.70941301977143" lon="9.538703148208379"><ele>828.0</ele><time>2026-03-28T12:29:56.998Z</time></trkpt><trkpt lat="44.709348388396286" lon="9.538736293834807"><ele>828.0</ele><time>2026-03-28T12:29:57.998Z</time></trkpt><trkpt lat="44.70928312455582" lon="9.538758338521196"><ele>828.0000000000001</ele><time>2026-03-28T12:29:58.998Z</time></trkpt><trkpt lat="44.70921502938327" lon="9.538771563406616"><ele>828.0</ele><time>2026-03-28T12:29:59.998Z</time></trkpt><trkpt lat="44.709139340855415" lon="9.538782769703053"><ele>827.8333333333334</ele><time>2026-03-28T12:30:00.998Z</time></trkpt><trkpt lat="44.70906596348449" lon="9.538798918013805"><ele>827.6666666666667</ele><time>2026-03-28T12:30:01.998Z</time></trkpt><trkpt lat="44.708987590665075" lon="9.538834348302542"><ele>827.5</ele><time>2026-03-28T12:30:02.998Z</time></trkpt><trkpt lat="44.70891505083089" lon="9.538936098252314"><ele>827.3333333333334</ele><time>2026-03-28T12:30:03.998Z</time></trkpt><trkpt lat="44.70889347482335" lon="9.539067738054111"><ele>827.1666666666667</ele><time>2026-03-28T12:30:04.998Z</time></trkpt><trkpt lat="44.70891461548456" lon="9.539192496283999"><ele>827.0</ele><time>2026-03-28T12:30:05.998Z</time></trkpt><trkpt lat="44.70894538175228" lon="9.53929034142415"><ele>827.0000000000001</ele><time>2026-03-28T12:30:06.998Z</time></trkpt><trkpt lat="44.70896437929476" lon="9.539393742781726"><ele>827.0</ele><time>2026-03-28T12:30:07.998Z</time></trkpt><trkpt lat="44.70898945823592" lon="9.53949582736004"><ele>827.0</ele><time>2026-03-28T12:30:08.998Z</time></trkpt><trkpt lat="44.70900902184422" lon="9.539608106480404"><ele>827.0</ele><time>2026-03-28T12:30:09.998Z</time></trkpt><trkpt lat="44.70901701738986" lon="9.539721815482158"><ele>827.0000000000001</ele><time>2026-03-28T12:30:10.998Z</time></trkpt><trkpt lat="44.70897936444936" lon="9.539824885745324"><ele>827.0</ele><time>2026-03-28T12:30:11.998Z</time></trkpt><trkpt lat="44.708951627102245" lon="9.539919944298122"><ele>826.8333333333334</ele><time>2026-03-28T12:30:12.998Z</time></trkpt><trkpt lat="44.708915811331444" lon="9.540015836298641"><ele>826.6666666666667</ele><time>2026-03-28T12:30:13.998Z</time></trkpt><trkpt lat="44.70887430229591" lon="9.54010409096719"><ele>826.5</ele><time>2026-03-28T12:30:14.998Z</time></trkpt><trkpt lat="44.70882669607242" lon="9.540193645470818"><ele>826.3333333333333</ele><time>2026-03-28T12:30:15.998Z</time></trkpt><trkpt lat="44.70880950204369" lon="9.540314748924802"><ele>826.1666666666666</ele><time>2026-03-28T12:30:16.998Z</time></trkpt><trkpt lat="44.70874943175264" lon="9.540386109497222"><ele>826.0</ele><time>2026-03-28T12:30:17.998Z</time></trkpt><trkpt lat="44.70865615531377" lon="9.540399665592716"><ele>826.4</ele><time>2026-03-28T12:30:18.998Z</time></trkpt><trkpt lat="44.708620163485584" lon="9.540517239704796"><ele>826.8</ele><time>2026-03-28T12:30:19.998Z</time></trkpt><trkpt lat="44.7086148643218" lon="9.540646959822638"><ele>827.1999999999999</ele><time>2026-03-28T12:30:20.998Z</time></trkpt><trkpt lat="44.708702742185274" lon="9.540776273978068"><ele>827.5999999999999</ele><time>2026-03-28T12:30:22Z</time></trkpt><trkpt lat="44.70879569157607" lon="9.540824595574339"><ele>828.0</ele><time>2026-03-28T12:30:23Z</time></trkpt><trkpt lat="44.708883850796695" lon="9.540831560673038"><ele>828.0</ele><time>2026-03-28T12:30:24Z</time></trkpt><trkpt lat="44.708967315996674" lon="9.540865869136388"><ele>828.0</ele><time>2026-03-28T12:30:25Z</time></trkpt><trkpt lat="44.70905207674357" lon="9.540897864539266"><ele>828.0</ele><time>2026-03-28T12:30:26Z</time></trkpt><trkpt lat="44.709133902232566" lon="9.540929462249409"><ele>828.0</ele><time>2026-03-28T12:30:27Z</time></trkpt><trkpt lat="44.709208913202296" lon="9.54098091438086"><ele>828.0</ele><time>2026-03-28T12:30:28Z</time></trkpt><trkpt lat="44.70928736716436" lon="9.54100697743089"><ele>828.0</ele><time>2026-03-28T12:30:29Z</time></trkpt><trkpt lat="44.70936482788727" lon="9.541043811952456"><ele>827.5</ele><time>2026-03-28T12:30:30Z</time></trkpt><trkpt lat="44.70943878330749" lon="9.541092652625897"><ele>827.0</ele><time>2026-03-28T12:30:31Z</time></trkpt><trkpt lat="44.70950948313224" lon="9.541147587667716"><ele>826.5</ele><time>2026-03-28T12:30:32Z</time></trkpt><trkpt lat="44.709577098996" lon="9.541217268854275"><ele>826.0</ele><time>2026-03-28T12:30:33Z</time></trkpt><trkpt lat="44.7096414934834" lon="9.541291567496826"><ele>825.5</ele><time>2026-03-28T12:30:34Z</time></trkpt><trkpt lat="44.70969295536135" lon="9.541381218385098"><ele>825.0</ele><time>2026-03-28T12:30:35Z</time></trkpt><trkpt lat="44.70971687022204" lon="9.541466170004112"><ele>825.0</ele><time>2026-03-28T12:30:36Z</time></trkpt><trkpt lat="44.70968119332587" lon="9.541600645982168"><ele>825.0</ele><time>2026-03-28T12:30:38Z</time></trkpt><trkpt lat="44.70957517523882" lon="9.541560426653898"><ele>825.0</ele><time>2026-03-28T12:30:40Z</time></trkpt><trkpt lat="44.70950474958083" lon="9.541523229157466"><ele>825.0</ele><time>2026-03-28T12:30:41Z</time></trkpt><trkpt lat="44.709426721745025" lon="9.541478331612423"><ele>825.0</ele><time>2026-03-28T12:30:42Z</time></trkpt><trkpt lat="44.709348755798004" lon="9.541424109243108"><ele>823.4</ele><time>2026-03-28T12:30:43Z</time></trkpt><trkpt lat="44.70926117372401" lon="9.541367298081868"><ele>821.8</ele><time>2026-03-28T12:30:44Z</time></trkpt><trkpt lat="44.709167780843" lon="9.541333563476083"><ele>820.2</ele><time>2026-03-28T12:30:45Z</time></trkpt><trkpt lat="44.70906659979176" lon="9.54130629809303"><ele>818.6</ele><time>2026-03-28T12:30:46Z</time></trkpt><trkpt lat="44.708950698787966" lon="9.541304693974702"><ele>817.0</ele><time>2026-03-28T12:30:47Z</time></trkpt><trkpt lat="44.70884427975916" lon="9.541324007386137"><ele>817.0</ele><time>2026-03-28T12:30:48Z</time></trkpt><trkpt lat="44.70873765171038" lon="9.541357463883601"><ele>817.0</ele><time>2026-03-28T12:30:49Z</time></trkpt><trkpt lat="44.708648004718306" lon="9.541373843745548"><ele>817.0</ele><time>2026-03-28T12:30:49.999Z</time></trkpt><trkpt lat="44.708561225357265" lon="9.541378962782703"><ele>817.0</ele><time>2026-03-28T12:30:50.999Z</time></trkpt><trkpt lat="44.708478254323" lon="9.541379986954821"><ele>817.0</ele><time>2026-03-28T12:30:51.999Z</time></trkpt><trkpt lat="44.708393345697885" lon="9.541420261980786"><ele>817.0</ele><time>2026-03-28T12:30:52.999Z</time></trkpt><trkpt lat="44.70835826070503" lon="9.54159604277696"><ele>817.0</ele><time>2026-03-28T12:30:53.999Z</time></trkpt><trkpt lat="44.70846521913644" lon="9.54171995239642"><ele>817.0</ele><time>2026-03-28T12:30:54.999Z</time></trkpt><trkpt lat="44.70854480299241" lon="9.541776690071314"><ele>817.0</ele><time>2026-03-28T12:30:55.999Z</time></trkpt><trkpt lat="44.708633990242326" lon="9.541791518841105"><ele>817.0</ele><time>2026-03-28T12:30:56.999Z</time></trkpt><trkpt lat="44.70871067705977" lon="9.541848787140756"><ele>817.0</ele><time>2026-03-28T12:30:57.999Z</time></trkpt><trkpt lat="44.70879496099996" lon="9.541886066846244"><ele>817.0</ele><time>2026-03-28T12:30:58.999Z</time></trkpt><trkpt lat="44.70887729934494" lon="9.541937950721994"><ele>817.0</ele><time>2026-03-28T12:30:59.999Z</time></trkpt><trkpt lat="44.708955613029175" lon="9.54200918683484"><ele>817.0</ele><time>2026-03-28T12:31:00.999Z</time></trkpt><trkpt lat="44.70903171288875" lon="9.54208990841501"><ele>817.0</ele><time>2026-03-28T12:31:01.999Z</time></trkpt><trkpt lat="44.70910490621037" lon="9.542172578908216"><ele>817.8</ele><time>2026-03-28T12:31:02.999Z</time></trkpt><trkpt lat="44.70916864038517" lon="9.542270022005512"><ele>818.6</ele><time>2026-03-28T12:31:03.999Z</time></trkpt><trkpt lat="44.709231085347376" lon="9.542373843336748"><ele>819.4</ele><time>2026-03-28T12:31:04.999Z</time></trkpt><trkpt lat="44.70929720555172" lon="9.54247515980151"><ele>820.1999999999999</ele><time>2026-03-28T12:31:05.999Z</time></trkpt><trkpt lat="44.70936226479145" lon="9.542586555901696"><ele>821.0</ele><time>2026-03-28T12:31:06.999Z</time></trkpt><trkpt lat="44.70941548499312" lon="9.542715222217113"><ele>821.0</ele><time>2026-03-28T12:31:07.999Z</time></trkpt><trkpt lat="44.70945952049766" lon="9.542855647878726"><ele>821.0</ele><time>2026-03-28T12:31:08.999Z</time></trkpt><trkpt lat="44.70948978904253" lon="9.5430075546672"><ele>821.0</ele><time>2026-03-28T12:31:09.999Z</time></trkpt><trkpt lat="44.70953302639865" lon="9.543157381378286"><ele>821.0</ele><time>2026-03-28T12:31:10.999Z</time></trkpt><trkpt lat="44.709577329686645" lon="9.543302072172837"><ele>821.0</ele><time>2026-03-28T12:31:11.999Z</time></trkpt><trkpt lat="44.70961814517457" lon="9.543449124662207"><ele>818.0</ele><time>2026-03-28T12:31:12.999Z</time></trkpt><trkpt lat="44.709646495086155" lon="9.543603359708202"><ele>815.0</ele><time>2026-03-28T12:31:13.999Z</time></trkpt><trkpt lat="44.70967286122688" lon="9.54376344254041"><ele>812.0</ele><time>2026-03-28T12:31:14.999Z</time></trkpt><trkpt lat="44.70969381427913" lon="9.543924144417701"><ele>809.0</ele><time>2026-03-28T12:31:15.999Z</time></trkpt><trkpt lat="44.709702632678045" lon="9.544077676178567"><ele>808.2</ele><time>2026-03-28T12:31:16.999Z</time></trkpt><trkpt lat="44.70969454140147" lon="9.544221117385968"><ele>807.4000000000001</ele><time>2026-03-28T12:31:17.999Z</time></trkpt><trkpt lat="44.70966780964063" lon="9.544364568990122"><ele>806.6</ele><time>2026-03-28T12:31:18.999Z</time></trkpt><trkpt lat="44.70961133276358" lon="9.544482798461685"><ele>805.8</ele><time>2026-03-28T12:31:19.999Z</time></trkpt><trkpt lat="44.70953754007283" lon="9.544580175658458"><ele>805.0</ele><time>2026-03-28T12:31:20.999Z</time></trkpt><trkpt lat="44.70945155111356" lon="9.54468011486858"><ele>801.0</ele><time>2026-03-28T12:31:21.999Z</time></trkpt><trkpt lat="44.709363173797676" lon="9.544778112446334"><ele>797.0</ele><time>2026-03-28T12:31:22.999Z</time></trkpt><trkpt lat="44.70927506275288" lon="9.544887027116172"><ele>793.0</ele><time>2026-03-28T12:31:23.999Z</time></trkpt><trkpt lat="44.70920881422639" lon="9.545046085852013"><ele>789.0</ele><time>2026-03-28T12:31:24.999Z</time></trkpt><trkpt lat="44.7091743485741" lon="9.545181530230824"><ele>789.0</ele><time>2026-03-28T12:31:25.999Z</time></trkpt><trkpt lat="44.70917468957989" lon="9.545321165656373"><ele>789.0</ele><time>2026-03-28T12:31:26.999Z</time></trkpt><trkpt lat="44.709228008605805" lon="9.545443490619062"><ele>789.0</ele><time>2026-03-28T12:31:27.999Z</time></trkpt><trkpt lat="44.70932396360508" lon="9.545484100854654"><ele>789.0</ele><time>2026-03-28T12:31:28.999Z</time></trkpt><trkpt lat="44.70941069111108" lon="9.54550660536976"><ele>789.0</ele><time>2026-03-28T12:31:29.999Z</time></trkpt><trkpt lat="44.70950702194065" lon="9.545542171946263"><ele>787.4000000000001</ele><time>2026-03-28T12:31:30.999Z</time></trkpt><trkpt lat="44.709603824884965" lon="9.545599821322202"><ele>785.8</ele><time>2026-03-28T12:31:31.999Z</time></trkpt><trkpt lat="44.70969216499535" lon="9.545689326587052"><ele>784.2</ele><time>2026-03-28T12:31:32.999Z</time></trkpt><trkpt lat="44.709788055903765" lon="9.545761082591747"><ele>782.5999999999999</ele><time>2026-03-28T12:31:33.999Z</time></trkpt><trkpt lat="44.70988797385591" lon="9.54582800893316"><ele>781.0</ele><time>2026-03-28T12:31:34.999Z</time></trkpt><trkpt lat="44.70999619123172" lon="9.545850704601552"><ele>781.0</ele><time>2026-03-28T12:31:35.999Z</time></trkpt><trkpt lat="44.71009568365716" lon="9.545912854248392"><ele>781.0</ele><time>2026-03-28T12:31:36.999Z</time></trkpt><trkpt lat="44.71018968247954" lon="9.545988334258201"><ele>781.0</ele><time>2026-03-28T12:31:37.999Z</time></trkpt><trkpt lat="44.71026080884432" lon="9.546105166736163"><ele>781.0</ele><time>2026-03-28T12:31:38.999Z</time></trkpt><trkpt lat="44.710307269871876" lon="9.546236369507756"><ele>781.0</ele><time>2026-03-28T12:31:39.999Z</time></trkpt><trkpt lat="44.710340840947005" lon="9.546365201976265"><ele>776.5999999999999</ele><time>2026-03-28T12:31:40.999Z</time></trkpt><trkpt lat="44.710400774702435" lon="9.546468281470009"><ele>772.2</ele><time>2026-03-28T12:31:41.998Z</time></trkpt><trkpt lat="44.710494451159285" lon="9.546485125313112"><ele>767.8</ele><time>2026-03-28T12:31:42.998Z</time></trkpt><trkpt lat="44.71057452185701" lon="9.546447913070686"><ele>763.4000000000001</ele><time>2026-03-28T12:31:43.998Z</time></trkpt><trkpt lat="44.71064297083962" lon="9.546372311759903"><ele>759.0</ele><time>2026-03-28T12:31:44.998Z</time></trkpt><trkpt lat="44.71070359123723" lon="9.546271493732306"><ele>758.0</ele><time>2026-03-28T12:31:45.998Z</time></trkpt><trkpt lat="44.71077465143572" lon="9.546164288397183"><ele>757.0</ele><time>2026-03-28T12:31:46.998Z</time></trkpt><trkpt lat="44.71086721791987" lon="9.546072425671545"><ele>756.0</ele><time>2026-03-28T12:31:47.998Z</time></trkpt><trkpt lat="44.710952539441735" lon="9.54599943497642"><ele>755.0</ele><time>2026-03-28T12:31:48.998Z</time></trkpt><trkpt lat="44.711029657367305" lon="9.545938097558944"><ele>754.0</ele><time>2026-03-28T12:31:49.998Z</time></trkpt><trkpt lat="44.71110114741417" lon="9.545891312829632"><ele>754.0</ele><time>2026-03-28T12:31:50.998Z</time></trkpt><trkpt lat="44.71118010827245" lon="9.545898424536063"><ele>754.0</ele><time>2026-03-28T12:31:51.998Z</time></trkpt><trkpt lat="44.71122816529979" lon="9.545994666862704"><ele>754.0</ele><time>2026-03-28T12:31:52.998Z</time></trkpt><trkpt lat="44.711175758506485" lon="9.546089516235025"><ele>754.0</ele><time>2026-03-28T12:31:53.998Z</time></trkpt><trkpt lat="44.71110510963227" lon="9.546089699550341"><ele>754.0</ele><time>2026-03-28T12:31:54.998Z</time></trkpt><trkpt lat="44.71104899032844" lon="9.546135597112356"><ele>754.0</ele><time>2026-03-28T12:31:55.998Z</time></trkpt><trkpt lat="44.71097845547013" lon="9.54619108454226"><ele>755.0</ele><time>2026-03-28T12:31:56.998Z</time></trkpt><trkpt lat="44.71090012372276" lon="9.546268977025308"><ele>756.0</ele><time>2026-03-28T12:31:57.998Z</time></trkpt><trkpt lat="44.710833483899485" lon="9.546363444051181"><ele>757.0</ele><time>2026-03-28T12:31:58.998Z</time></trkpt><trkpt lat="44.710782780222885" lon="9.546501157075173"><ele>758.0</ele><time>2026-03-28T12:31:59.998Z</time></trkpt><trkpt lat="44.71076684129013" lon="9.546651478467234"><ele>759.0</ele><time>2026-03-28T12:32:00.998Z</time></trkpt><trkpt lat="44.710769693977966" lon="9.546790199649301"><ele>759.0</ele><time>2026-03-28T12:32:01.998Z</time></trkpt><trkpt lat="44.710770354234114" lon="9.546908496179176"><ele>759.0</ele><time>2026-03-28T12:32:02.998Z</time></trkpt><trkpt lat="44.710748326094965" lon="9.546992151285744"><ele>759.0</ele><time>2026-03-28T12:32:03.998Z</time></trkpt><trkpt lat="44.71063998180781" lon="9.547053436607"><ele>759.0</ele><time>2026-03-28T12:32:05.998Z</time></trkpt><trkpt lat="44.7105607582353" lon="9.547039375049692"><ele>759.0</ele><time>2026-03-28T12:32:06.998Z</time></trkpt><trkpt lat="44.710477909549724" lon="9.546991541097311"><ele>759.0</ele><time>2026-03-28T12:32:07.998Z</time></trkpt><trkpt lat="44.71037895734519" lon="9.546949634673348"><ele>759.0</ele><time>2026-03-28T12:32:08.998Z</time></trkpt><trkpt lat="44.71028096539615" lon="9.546911931686637"><ele>759.0</ele><time>2026-03-28T12:32:09.998Z</time></trkpt><trkpt lat="44.7101789934566" lon="9.546875902068594"><ele>759.0</ele><time>2026-03-28T12:32:10.998Z</time></trkpt><trkpt lat="44.71007533888891" lon="9.546840012713611"><ele>759.0</ele><time>2026-03-28T12:32:11.998Z</time></trkpt><trkpt lat="44.70997506351289" lon="9.54679250828035"><ele>759.0</ele><time>2026-03-28T12:32:12.998Z</time></trkpt><trkpt lat="44.70986447746836" lon="9.546744354880449"><ele>758.75</ele><time>2026-03-28T12:32:13.998Z</time></trkpt><trkpt lat="44.70974130906033" lon="9.546713840426891"><ele>758.5</ele><time>2026-03-28T12:32:14.998Z</time></trkpt><trkpt lat="44.70962171309719" lon="9.546706938854395"><ele>758.25</ele><time>2026-03-28T12:32:15.998Z</time></trkpt><trkpt lat="44.70950379936504" lon="9.54670351489004"><ele>758.0</ele><time>2026-03-28T12:32:16.998Z</time></trkpt><trkpt lat="44.70938631888219" lon="9.546695272006623"><ele>756.5</ele><time>2026-03-28T12:32:17.998Z</time></trkpt><trkpt lat="44.70927249407712" lon="9.54668801095157"><ele>755.0</ele><time>2026-03-28T12:32:18.998Z</time></trkpt><trkpt lat="44.709157142604035" lon="9.546686537305233"><ele>753.5</ele><time>2026-03-28T12:32:19.998Z</time></trkpt><trkpt lat="44.709033228000905" lon="9.546721421551652"><ele>752.0</ele><time>2026-03-28T12:32:20.998Z</time></trkpt><trkpt lat="44.708920514469256" lon="9.546833012942974"><ele>752.0</ele><time>2026-03-28T12:32:21.998Z</time></trkpt><trkpt lat="44.708858538296454" lon="9.54700011694533"><ele>752.0</ele><time>2026-03-28T12:32:22.998Z</time></trkpt><trkpt lat="44.70882423772282" lon="9.547156736368317"><ele>752.0</ele><time>2026-03-28T12:32:23.998Z</time></trkpt><trkpt lat="44.708793721758774" lon="9.547302339171594"><ele>752.0</ele><time>2026-03-28T12:32:24.998Z</time></trkpt><trkpt lat="44.70876894887183" lon="9.547456583391366"><ele>749.0</ele><time>2026-03-28T12:32:25.998Z</time></trkpt><trkpt lat="44.708757208026434" lon="9.547622304591401"><ele>746.0</ele><time>2026-03-28T12:32:26.998Z</time></trkpt><trkpt lat="44.70874673304887" lon="9.547779816143981"><ele>743.0</ele><time>2026-03-28T12:32:28Z</time></trkpt><trkpt lat="44.70872052575604" lon="9.547931949454329"><ele>740.0</ele><time>2026-03-28T12:32:29Z</time></trkpt><trkpt lat="44.70867711598504" lon="9.548077857552062"><ele>740.2</ele><time>2026-03-28T12:32:30Z</time></trkpt><trkpt lat="44.708632031962274" lon="9.548232681933671"><ele>740.4</ele><time>2026-03-28T12:32:31Z</time></trkpt><trkpt lat="44.7086065976881" lon="9.548391886605781"><ele>740.5999999999999</ele><time>2026-03-28T12:32:32Z</time></trkpt><trkpt lat="44.7085891867319" lon="9.548524471213979"><ele>740.8</ele><time>2026-03-28T12:32:33Z</time></trkpt><trkpt lat="44.708558315310945" lon="9.548621273938934"><ele>741.0</ele><time>2026-03-28T12:32:34Z</time></trkpt><trkpt lat="44.70850354681907" lon="9.548692514604904"><ele>741.0</ele><time>2026-03-28T12:32:35Z</time></trkpt><trkpt lat="44.708432166389024" lon="9.548704046153142"><ele>741.0</ele><time>2026-03-28T12:32:36Z</time></trkpt><trkpt lat="44.70833909409952" lon="9.548720312658707"><ele>741.0</ele><time>2026-03-28T12:32:37Z</time></trkpt><trkpt lat="44.70823317757854" lon="9.548734527405873"><ele>741.0</ele><time>2026-03-28T12:32:38Z</time></trkpt><trkpt lat="44.708122492302024" lon="9.548746653701876"><ele>741.0</ele><time>2026-03-28T12:32:39Z</time></trkpt><trkpt lat="44.70800824919803" lon="9.548760771971056"><ele>736.5</ele><time>2026-03-28T12:32:40Z</time></trkpt><trkpt lat="44.70789552479522" lon="9.548778098524453"><ele>732.0</ele><time>2026-03-28T12:32:41Z</time></trkpt><trkpt lat="44.70778360789586" lon="9.548809877919863"><ele>727.5</ele><time>2026-03-28T12:32:42Z</time></trkpt><trkpt lat="44.70767461980121" lon="9.548898364629169"><ele>723.0</ele><time>2026-03-28T12:32:43Z</time></trkpt><trkpt lat="44.70760896713853" lon="9.54903325091024"><ele>722.2</ele><time>2026-03-28T12:32:44Z</time></trkpt><trkpt lat="44.707556325647154" lon="9.549119823849248"><ele>721.4</ele><time>2026-03-28T12:32:45Z</time></trkpt><trkpt lat="44.7074496572743" lon="9.54913411512228"><ele>720.6</ele><time>2026-03-28T12:32:47Z</time></trkpt><trkpt lat="44.707425090073684" lon="9.549018305491952"><ele>719.8000000000001</ele><time>2026-03-28T12:32:48Z</time></trkpt><trkpt lat="44.70742586267355" lon="9.548893437153971"><ele>719.0</ele><time>2026-03-28T12:32:49Z</time></trkpt><trkpt lat="44.70741256119328" lon="9.548771614244114"><ele>720.8000000000001</ele><time>2026-03-28T12:32:50Z</time></trkpt><trkpt lat="44.7073788769776" lon="9.548651755260769"><ele>722.6</ele><time>2026-03-28T12:32:51Z</time></trkpt><trkpt lat="44.70732956764713" lon="9.548535009857073"><ele>724.4</ele><time>2026-03-28T12:32:51.999Z</time></trkpt><trkpt lat="44.70726090409828" lon="9.548434540118949"><ele>726.2</ele><time>2026-03-28T12:32:52.999Z</time></trkpt><trkpt lat="44.70717691800262" lon="9.548343890948225"><ele>728.0</ele><time>2026-03-28T12:32:53.999Z</time></trkpt><trkpt lat="44.707074546733" lon="9.54830412197069"><ele>728.0</ele><time>2026-03-28T12:32:54.999Z</time></trkpt><trkpt lat="44.70696338121306" lon="9.548296877537306"><ele>728.0</ele><time>2026-03-28T12:32:55.999Z</time></trkpt><trkpt lat="44.70685132940668" lon="9.548335925419671"><ele>728.0</ele><time>2026-03-28T12:32:56.999Z</time></trkpt><trkpt lat="44.70674986274921" lon="9.548404218616502"><ele>728.0</ele><time>2026-03-28T12:32:57.999Z</time></trkpt><trkpt lat="44.70665751326074" lon="9.54849220431242"><ele>726.5999999999999</ele><time>2026-03-28T12:32:58.999Z</time></trkpt><trkpt lat="44.706584292512616" lon="9.548631441029421"><ele>725.1999999999999</ele><time>2026-03-28T12:32:59.999Z</time></trkpt><trkpt lat="44.70653174754548" lon="9.548768954530592"><ele>723.8</ele><time>2026-03-28T12:33:00.999Z</time></trkpt><trkpt lat="44.70648727973209" lon="9.548903086835141"><ele>722.4</ele><time>2026-03-28T12:33:01.999Z</time></trkpt><trkpt lat="44.70643490863574" lon="9.549013340495858"><ele>721.0</ele><time>2026-03-28T12:33:02.999Z</time></trkpt><trkpt lat="44.70636296635923" lon="9.549081222151129"><ele>718.25</ele><time>2026-03-28T12:33:03.999Z</time></trkpt><trkpt lat="44.706268602420046" lon="9.549099460724944"><ele>715.5</ele><time>2026-03-28T12:33:04.999Z</time></trkpt><trkpt lat="44.70615721672185" lon="9.54911255457982"><ele>712.75</ele><time>2026-03-28T12:33:05.999Z</time></trkpt><trkpt lat="44.70603948836114" lon="9.549140941266211"><ele>710.0</ele><time>2026-03-28T12:33:06.999Z</time></trkpt><trkpt lat="44.70591811399184" lon="9.549229079776175"><ele>710.0</ele><time>2026-03-28T12:33:07.999Z</time></trkpt><trkpt lat="44.70582121430178" lon="9.5493349144403"><ele>710.0</ele><time>2026-03-28T12:33:08.999Z</time></trkpt><trkpt lat="44.705735043517514" lon="9.549443457970066"><ele>710.0</ele><time>2026-03-28T12:33:09.999Z</time></trkpt><trkpt lat="44.705643321673826" lon="9.549515965194885"><ele>710.0</ele><time>2026-03-28T12:33:10.999Z</time></trkpt><trkpt lat="44.70554310197562" lon="9.54956469935521"><ele>707.0</ele><time>2026-03-28T12:33:11.999Z</time></trkpt><trkpt lat="44.70543460954283" lon="9.549627354340721"><ele>704.0</ele><time>2026-03-28T12:33:12.999Z</time></trkpt><trkpt lat="44.70534141576599" lon="9.54974115914915"><ele>701.0</ele><time>2026-03-28T12:33:13.999Z</time></trkpt><trkpt lat="44.70529375086634" lon="9.549922778301479"><ele>698.0</ele><time>2026-03-28T12:33:14.999Z</time></trkpt><trkpt lat="44.70530513711811" lon="9.550099650537193"><ele>698.0</ele><time>2026-03-28T12:33:15.999Z</time></trkpt><trkpt lat="44.705320580191" lon="9.5502567134348"><ele>698.0</ele><time>2026-03-28T12:33:16.999Z</time></trkpt><trkpt lat="44.705326308342684" lon="9.550405297966112"><ele>698.0</ele><time>2026-03-28T12:33:17.999Z</time></trkpt><trkpt lat="44.7052989910275" lon="9.550542616535612"><ele>698.0</ele><time>2026-03-28T12:33:18.999Z</time></trkpt><trkpt lat="44.70526597812228" lon="9.550694624105661"><ele>698.0</ele><time>2026-03-28T12:33:19.999Z</time></trkpt><trkpt lat="44.70524133326173" lon="9.550856868639723"><ele>697.8333333333333</ele><time>2026-03-28T12:33:20.999Z</time></trkpt><trkpt lat="44.7052203924011" lon="9.55100289050565"><ele>697.6666666666666</ele><time>2026-03-28T12:33:21.999Z</time></trkpt><trkpt lat="44.7051925152036" lon="9.551124342469313"><ele>697.5</ele><time>2026-03-28T12:33:22.999Z</time></trkpt><trkpt lat="44.7051558134165" lon="9.551202002951717"><ele>697.3333333333334</ele><time>2026-03-28T12:33:23.999Z</time></trkpt><trkpt lat="44.705097784047986" lon="9.551255065427252"><ele>697.1666666666667</ele><time>2026-03-28T12:33:24.999Z</time></trkpt><trkpt lat="44.705034339118434" lon="9.551236258611288"><ele>697.0</ele><time>2026-03-28T12:33:25.999Z</time></trkpt><trkpt lat="44.70495481420664" lon="9.55120866716412"><ele>697.0</ele><time>2026-03-28T12:33:26.999Z</time></trkpt><trkpt lat="44.70486258825788" lon="9.551166091179992"><ele>697.0</ele><time>2026-03-28T12:33:27.999Z</time></trkpt><trkpt lat="44.7047671394162" lon="9.551123851913232"><ele>697.0</ele><time>2026-03-28T12:33:28.999Z</time></trkpt><trkpt lat="44.70465915709715" lon="9.551083395087229"><ele>697.0</ele><time>2026-03-28T12:33:29.999Z</time></trkpt><trkpt lat="44.704548777133674" lon="9.551059640084691"><ele>697.0</ele><time>2026-03-28T12:33:30.999Z</time></trkpt><trkpt lat="44.704428635442966" lon="9.551052558593062"><ele>694.75</ele><time>2026-03-28T12:33:31.999Z</time></trkpt><trkpt lat="44.704302560195636" lon="9.551072339161923"><ele>692.5</ele><time>2026-03-28T12:33:32.999Z</time></trkpt><trkpt lat="44.70419234695943" lon="9.551095503055258"><ele>690.25</ele><time>2026-03-28T12:33:33.999Z</time></trkpt><trkpt lat="44.70408718205219" lon="9.551091057114245"><ele>688.0</ele><time>2026-03-28T12:33:34.999Z</time></trkpt><trkpt lat="44.7039838784018" lon="9.55105311516929"><ele>688.0</ele><time>2026-03-28T12:33:35.999Z</time></trkpt><trkpt lat="44.7038830886859" lon="9.550993473531673"><ele>688.0</ele><time>2026-03-28T12:33:36.999Z</time></trkpt><trkpt lat="44.70380269599866" lon="9.550928124132385"><ele>688.0</ele><time>2026-03-28T12:33:37.999Z</time></trkpt><trkpt lat="44.703726674017524" lon="9.550865431909678"><ele>688.0</ele><time>2026-03-28T12:33:38.999Z</time></trkpt><trkpt lat="44.70369796859439" lon="9.550740808476059"><ele>688.0</ele><time>2026-03-28T12:33:39.999Z</time></trkpt><trkpt lat="44.70369926046984" lon="9.550603570042965"><ele>688.0</ele><time>2026-03-28T12:33:40.999Z</time></trkpt><trkpt lat="44.703730945763695" lon="9.550465956722256"><ele>688.0</ele><time>2026-03-28T12:33:41.999Z</time></trkpt><trkpt lat="44.70374962959095" lon="9.550323629639639"><ele>688.0</ele><time>2026-03-28T12:33:42.999Z</time></trkpt><trkpt lat="44.70377689217071" lon="9.550194162243097"><ele>688.0</ele><time>2026-03-28T12:33:43.999Z</time></trkpt><trkpt lat="44.70379632978775" lon="9.550077270002639"><ele>688.0</ele><time>2026-03-28T12:33:44.998Z</time></trkpt><trkpt lat="44.70379892014376" lon="9.549978161491453"><ele>687.4</ele><time>2026-03-28T12:33:45.998Z</time></trkpt><trkpt lat="44.70376878164159" lon="9.549878274788409"><ele>686.8</ele><time>2026-03-28T12:33:46.998Z</time></trkpt><trkpt lat="44.70368703627506" lon="9.549791881323888"><ele>686.2</ele><time>2026-03-28T12:33:47.998Z</time></trkpt><trkpt lat="44.70356532031376" lon="9.549801760876248"><ele>685.6</ele><time>2026-03-28T12:33:48.998Z</time></trkpt><trkpt lat="44.70346753500332" lon="9.54984149639767"><ele>685.0</ele><time>2026-03-28T12:33:49.998Z</time></trkpt><trkpt lat="44.70337416857971" lon="9.549892811595614"><ele>681.0</ele><time>2026-03-28T12:33:50.998Z</time></trkpt><trkpt lat="44.70328446302188" lon="9.549986575185914"><ele>677.0</ele><time>2026-03-28T12:33:51.998Z</time></trkpt><trkpt lat="44.70322940707873" lon="9.550139157712444"><ele>673.0</ele><time>2026-03-28T12:33:52.998Z</time></trkpt><trkpt lat="44.70321962150369" lon="9.550303529428827"><ele>669.0</ele><time>2026-03-28T12:33:53.998Z</time></trkpt><trkpt lat="44.703199784400304" lon="9.55044404535144"><ele>668.75</ele><time>2026-03-28T12:33:54.998Z</time></trkpt><trkpt lat="44.703180986486295" lon="9.550595433309132"><ele>668.5</ele><time>2026-03-28T12:33:55.998Z</time></trkpt><trkpt lat="44.7031669362573" lon="9.550755711299125"><ele>668.25</ele><time>2026-03-28T12:33:56.998Z</time></trkpt><trkpt lat="44.70318471901609" lon="9.550932242372266"><ele>668.0</ele><time>2026-03-28T12:33:57.998Z</time></trkpt><trkpt lat="44.703216286043656" lon="9.551100145237527"><ele>665.75</ele><time>2026-03-28T12:33:58.998Z</time></trkpt><trkpt lat="44.703262320142066" lon="9.55125881048818"><ele>663.5</ele><time>2026-03-28T12:33:59.998Z</time></trkpt><trkpt lat="44.70330757885535" lon="9.551413740473745"><ele>661.25</ele><time>2026-03-28T12:34:00.998Z</time></trkpt><trkpt lat="44.703345720581936" lon="9.551570929585395"><ele>659.0</ele><time>2026-03-28T12:34:01.998Z</time></trkpt><trkpt lat="44.703366857896626" lon="9.551731655602426"><ele>659.0</ele><time>2026-03-28T12:34:02.998Z</time></trkpt><trkpt lat="44.703390212046365" lon="9.551897584599994"><ele>659.0</ele><time>2026-03-28T12:34:03.998Z</time></trkpt><trkpt lat="44.70341392676007" lon="9.552067217079948"><ele>659.0</ele><time>2026-03-28T12:34:04.998Z</time></trkpt><trkpt lat="44.70343788229225" lon="9.55224261217654"><ele>659.0</ele><time>2026-03-28T12:34:05.998Z</time></trkpt><trkpt lat="44.70346225771465" lon="9.552421081177577"><ele>657.25</ele><time>2026-03-28T12:34:06.998Z</time></trkpt><trkpt lat="44.70349075389338" lon="9.552599716696054"><ele>655.5</ele><time>2026-03-28T12:34:07.998Z</time></trkpt><trkpt lat="44.70351740961827" lon="9.552770213465614"><ele>653.75</ele><time>2026-03-28T12:34:08.998Z</time></trkpt><trkpt lat="44.703540439675095" lon="9.552931058196405"><ele>652.0</ele><time>2026-03-28T12:34:09.998Z</time></trkpt><trkpt lat="44.703548921772736" lon="9.553072448770532"><ele>651.6</ele><time>2026-03-28T12:34:10.998Z</time></trkpt><trkpt lat="44.70352774348562" lon="9.553201269478665"><ele>651.2</ele><time>2026-03-28T12:34:11.998Z</time></trkpt><trkpt lat="44.703466982629344" lon="9.55329618772582"><ele>650.8</ele><time>2026-03-28T12:34:12.998Z</time></trkpt><trkpt lat="44.703386890602566" lon="9.553390346836402"><ele>650.4</ele><time>2026-03-28T12:34:13.998Z</time></trkpt><trkpt lat="44.70329504875415" lon="9.55349812373546"><ele>650.0</ele><time>2026-03-28T12:34:14.998Z</time></trkpt><trkpt lat="44.7032037804701" lon="9.553602386265629"><ele>650.0</ele><time>2026-03-28T12:34:15.998Z</time></trkpt><trkpt lat="44.70311744172889" lon="9.553677991743534"><ele>650.0</ele><time>2026-03-28T12:34:16.998Z</time></trkpt><trkpt lat="44.703022613815016" lon="9.55371930023989"><ele>650.0</ele><time>2026-03-28T12:34:17.998Z</time></trkpt><trkpt lat="44.70292408750491" lon="9.553731253692469"><ele>650.0</ele><time>2026-03-28T12:34:18.998Z</time></trkpt><trkpt lat="44.70281652496369" lon="9.553753618687695"><ele>650.0</ele><time>2026-03-28T12:34:19.998Z</time></trkpt><trkpt lat="44.70271854718117" lon="9.553824423412298"><ele>650.0</ele><time>2026-03-28T12:34:20.998Z</time></trkpt><trkpt lat="44.702660341150974" lon="9.553982443746161"><ele>650.0</ele><time>2026-03-28T12:34:21.998Z</time></trkpt><trkpt lat="44.70268509018747" lon="9.554170407334404"><ele>650.0</ele><time>2026-03-28T12:34:22.998Z</time></trkpt><trkpt lat="44.70277341407647" lon="9.554284449508042"><ele>650.0</ele><time>2026-03-28T12:34:23.998Z</time></trkpt><trkpt lat="44.702826165722655" lon="9.554398312872282"><ele>650.0</ele><time>2026-03-28T12:34:24.998Z</time></trkpt><trkpt lat="44.70289799433883" lon="9.554497602255603"><ele>650.0</ele><time>2026-03-28T12:34:25.998Z</time></trkpt><trkpt lat="44.702984290156174" lon="9.554575817297119"><ele>650.0</ele><time>2026-03-28T12:34:26.998Z</time></trkpt><trkpt lat="44.70307491114295" lon="9.554657166414417"><ele>650.0</ele><time>2026-03-28T12:34:27.998Z</time></trkpt><trkpt lat="44.70316408580685" lon="9.554754364487719"><ele>650.0</ele><time>2026-03-28T12:34:28.998Z</time></trkpt><trkpt lat="44.703253108196996" lon="9.55485730497694"><ele>646.25</ele><time>2026-03-28T12:34:29.998Z</time></trkpt><trkpt lat="44.70333548298288" lon="9.554974695445766"><ele>642.5</ele><time>2026-03-28T12:34:30.998Z</time></trkpt><trkpt lat="44.703413276871245" lon="9.55510677060462"><ele>638.75</ele><time>2026-03-28T12:34:31.998Z</time></trkpt><trkpt lat="44.703477659865" lon="9.555252517217669"><ele>635.0</ele><time>2026-03-28T12:34:32.998Z</time></trkpt><trkpt lat="44.70353722359954" lon="9.555401838056833"><ele>634.8</ele><time>2026-03-28T12:34:34Z</time></trkpt><trkpt lat="44.70359514303508" lon="9.55554583973876"><ele>634.6</ele><time>2026-03-28T12:34:35Z</time></trkpt><trkpt lat="44.70362205263996" lon="9.555697687659933"><ele>634.4</ele><time>2026-03-28T12:34:36Z</time></trkpt><trkpt lat="44.70363098127767" lon="9.555836793010823"><ele>634.2</ele><time>2026-03-28T12:34:37Z</time></trkpt><trkpt lat="44.703592477775274" lon="9.555955397838058"><ele>634.0</ele><time>2026-03-28T12:34:38Z</time></trkpt><trkpt lat="44.70356096037765" lon="9.556101550099426"><ele>631.4</ele><time>2026-03-28T12:34:39Z</time></trkpt><trkpt lat="44.70357258813884" lon="9.556277402827575"><ele>628.8</ele><time>2026-03-28T12:34:40Z</time></trkpt><trkpt lat="44.70359948715222" lon="9.5564299740352"><ele>626.2</ele><time>2026-03-28T12:34:41Z</time></trkpt><trkpt lat="44.703662794984304" lon="9.556553218557795"><ele>623.6</ele><time>2026-03-28T12:34:42Z</time></trkpt><trkpt lat="44.703728676955365" lon="9.556641869024393"><ele>621.0</ele><time>2026-03-28T12:34:43Z</time></trkpt><trkpt lat="44.70381885059519" lon="9.556678629358432"><ele>621.0</ele><time>2026-03-28T12:34:44Z</time></trkpt><trkpt lat="44.70390697937415" lon="9.556605415766084"><ele>621.0</ele><time>2026-03-28T12:34:45Z</time></trkpt><trkpt lat="44.70400347511089" lon="9.5565768483456"><ele>621.0</ele><time>2026-03-28T12:34:46Z</time></trkpt><trkpt lat="44.70410478130011" lon="9.556572912570608"><ele>621.0</ele><time>2026-03-28T12:34:47Z</time></trkpt><trkpt lat="44.70419373183115" lon="9.556658629986536"><ele>621.0</ele><time>2026-03-28T12:34:48Z</time></trkpt><trkpt lat="44.704261614096055" lon="9.556752479533062"><ele>621.0</ele><time>2026-03-28T12:34:49Z</time></trkpt><trkpt lat="44.70429004064417" lon="9.556875433685734"><ele>621.0</ele><time>2026-03-28T12:34:50Z</time></trkpt><trkpt lat="44.70433961114125" lon="9.556983217100617"><ele>621.0</ele><time>2026-03-28T12:34:51Z</time></trkpt><trkpt lat="44.7043748653593" lon="9.55709946196749"><ele>621.0</ele><time>2026-03-28T12:34:52Z</time></trkpt><trkpt lat="44.70440895414519" lon="9.557226023821366"><ele>621.0</ele><time>2026-03-28T12:34:53Z</time></trkpt><trkpt lat="44.7044440497736" lon="9.557361008348723"><ele>617.6</ele><time>2026-03-28T12:34:54Z</time></trkpt><trkpt lat="44.704481194953864" lon="9.557493608549658"><ele>614.2</ele><time>2026-03-28T12:34:55Z</time></trkpt><trkpt lat="44.70451901071389" lon="9.557613368542757"><ele>610.8</ele><time>2026-03-28T12:34:55.999Z</time></trkpt><trkpt lat="44.70458242503996" lon="9.557687645537351"><ele>607.4</ele><time>2026-03-28T12:34:56.999Z</time></trkpt><trkpt lat="44.70466689457428" lon="9.557663883394348"><ele>604.0</ele><time>2026-03-28T12:34:57.999Z</time></trkpt><trkpt lat="44.70474382701061" lon="9.55760216445776"><ele>604.0</ele><time>2026-03-28T12:34:58.999Z</time></trkpt><trkpt lat="44.70479753843105" lon="9.557504112108067"><ele>604.0</ele><time>2026-03-28T12:34:59.999Z</time></trkpt><trkpt lat="44.70485416837011" lon="9.557376680256628"><ele>604.0</ele><time>2026-03-28T12:35:00.999Z</time></trkpt><trkpt lat="44.704937090114015" lon="9.557266732095908"><ele>604.0</ele><time>2026-03-28T12:35:01.999Z</time></trkpt><trkpt lat="44.70504121464233" lon="9.557198006982224"><ele>604.0</ele><time>2026-03-28T12:35:02.999Z</time></trkpt><trkpt lat="44.70514466084321" lon="9.55721681858079"><ele>602.6</ele><time>2026-03-28T12:35:03.999Z</time></trkpt><trkpt lat="44.7052594718487" lon="9.557257203283811"><ele>601.2</ele><time>2026-03-28T12:35:04.999Z</time></trkpt><trkpt lat="44.70536452810821" lon="9.557319030512497"><ele>599.8000000000001</ele><time>2026-03-28T12:35:05.999Z</time></trkpt><trkpt lat="44.705469206286125" lon="9.557362964403982"><ele>598.4</ele><time>2026-03-28T12:35:06.999Z</time></trkpt><trkpt lat="44.705575982444216" lon="9.557381335489124"><ele>597.0</ele><time>2026-03-28T12:35:07.999Z</time></trkpt><trkpt lat="44.705684602304494" lon="9.557399326325298"><ele>597.0</ele><time>2026-03-28T12:35:08.999Z</time></trkpt><trkpt lat="44.7057902605947" lon="9.557405083461026"><ele>597.0</ele><time>2026-03-28T12:35:09.999Z</time></trkpt><trkpt lat="44.70589185459319" lon="9.557377785942176"><ele>597.0</ele><time>2026-03-28T12:35:10.999Z</time></trkpt><trkpt lat="44.705980473867484" lon="9.557317296869291"><ele>597.0</ele><time>2026-03-28T12:35:11.999Z</time></trkpt><trkpt lat="44.70606029978528" lon="9.557230893478387"><ele>597.0</ele><time>2026-03-28T12:35:12.999Z</time></trkpt><trkpt lat="44.7061376438054" lon="9.557133593958136"><ele>597.4</ele><time>2026-03-28T12:35:13.999Z</time></trkpt><trkpt lat="44.70620952800036" lon="9.557036591402646"><ele>597.8000000000001</ele><time>2026-03-28T12:35:14.999Z</time></trkpt><trkpt lat="44.706290703123834" lon="9.556950686633671"><ele>598.2</ele><time>2026-03-28T12:35:15.999Z</time></trkpt><trkpt lat="44.70638877386472" lon="9.556909735056074"><ele>598.6</ele><time>2026-03-28T12:35:16.999Z</time></trkpt><trkpt lat="44.70649218683552" lon="9.556984591173626"><ele>599.0</ele><time>2026-03-28T12:35:17.999Z</time></trkpt><trkpt lat="44.706540406442805" lon="9.557118114357074"><ele>599.0</ele><time>2026-03-28T12:35:18.999Z</time></trkpt><trkpt lat="44.70660415275893" lon="9.557216502400491"><ele>599.0</ele><time>2026-03-28T12:35:19.999Z</time></trkpt><trkpt lat="44.70664812321967" lon="9.557334899349975"><ele>599.0</ele><time>2026-03-28T12:35:20.999Z</time></trkpt><trkpt lat="44.706704179809996" lon="9.557444664065118"><ele>599.0</ele><time>2026-03-28T12:35:21.999Z</time></trkpt><trkpt lat="44.70676236475496" lon="9.557535290664243"><ele>599.0</ele><time>2026-03-28T12:35:22.999Z</time></trkpt><trkpt lat="44.70680672793799" lon="9.557676789067102"><ele>599.0</ele><time>2026-03-28T12:35:23.999Z</time></trkpt><trkpt lat="44.70686253043541" lon="9.557800670149158"><ele>599.0</ele><time>2026-03-28T12:35:24.999Z</time></trkpt><trkpt lat="44.70689225577613" lon="9.557910226245255"><ele>599.0</ele><time>2026-03-28T12:35:25.999Z</time></trkpt><trkpt lat="44.706933161509745" lon="9.558020951217566"><ele>599.0</ele><time>2026-03-28T12:35:26.999Z</time></trkpt><trkpt lat="44.706978312070284" lon="9.558132004345863"><ele>599.0</ele><time>2026-03-28T12:35:27.999Z</time></trkpt><trkpt lat="44.70702571949701" lon="9.558250347066993"><ele>596.6</ele><time>2026-03-28T12:35:28.999Z</time></trkpt><trkpt lat="44.70707309813736" lon="9.558374652181946"><ele>594.2</ele><time>2026-03-28T12:35:29.999Z</time></trkpt><trkpt lat="44.70712113539803" lon="9.558491754233417"><ele>591.8000000000001</ele><time>2026-03-28T12:35:30.999Z</time></trkpt><trkpt lat="44.70719546604789" lon="9.558558589890108"><ele>589.4</ele><time>2026-03-28T12:35:31.999Z</time></trkpt><trkpt lat="44.707273922741656" lon="9.558568894794046"><ele>587.0</ele><time>2026-03-28T12:35:32.999Z</time></trkpt><trkpt lat="44.7073328899001" lon="9.558462599540448"><ele>587.0</ele><time>2026-03-28T12:35:33.999Z</time></trkpt><trkpt lat="44.707383676900385" lon="9.558374865078166"><ele>587.0</ele><time>2026-03-28T12:35:34.999Z</time></trkpt><trkpt lat="44.707461854001025" lon="9.558299476324818"><ele>587.0</ele><time>2026-03-28T12:35:35.999Z</time></trkpt><trkpt lat="44.707529939795414" lon="9.558206538452348"><ele>587.0</ele><time>2026-03-28T12:35:36.999Z</time></trkpt><trkpt lat="44.70759191741974" lon="9.558101769354836"><ele>587.0</ele><time>2026-03-28T12:35:37.999Z</time></trkpt><trkpt lat="44.707661263349685" lon="9.557999880268794"><ele>587.0</ele><time>2026-03-28T12:35:38.999Z</time></trkpt><trkpt lat="44.70772531280791" lon="9.557882552900944"><ele>587.0</ele><time>2026-03-28T12:35:39.999Z</time></trkpt><trkpt lat="44.707799409391676" lon="9.557765005560885"><ele>587.0</ele><time>2026-03-28T12:35:40.999Z</time></trkpt><trkpt lat="44.70786289349863" lon="9.557630418897547"><ele>587.0</ele><time>2026-03-28T12:35:41.999Z</time></trkpt><trkpt lat="44.707924098099774" lon="9.557493362019395"><ele>587.0</ele><time>2026-03-28T12:35:42.999Z</time></trkpt><trkpt lat="44.70801837504662" lon="9.55739269983852"><ele>585.0</ele><time>2026-03-28T12:35:43.999Z</time></trkpt><trkpt lat="44.70813933839984" lon="9.5573621800597"><ele>583.0</ele><time>2026-03-28T12:35:44.999Z</time></trkpt><trkpt lat="44.70826060503989" lon="9.557325806756078"><ele>581.0</ele><time>2026-03-28T12:35:45.999Z</time></trkpt><trkpt lat="44.708376197406054" lon="9.557298648293427"><ele>579.0</ele><time>2026-03-28T12:35:46.999Z</time></trkpt><trkpt lat="44.70847163815451" lon="9.557241401135602"><ele>579.0</ele><time>2026-03-28T12:35:47.999Z</time></trkpt><trkpt lat="44.708534542191316" lon="9.557129039620609"><ele>579.0</ele><time>2026-03-28T12:35:48.998Z</time></trkpt><trkpt lat="44.708622021282075" lon="9.557008065849589"><ele>579.0</ele><time>2026-03-28T12:35:49.998Z</time></trkpt><trkpt lat="44.70871087671614" lon="9.556901677142028"><ele>579.0</ele><time>2026-03-28T12:35:50.998Z</time></trkpt><trkpt lat="44.70883563524197" lon="9.556859738149882"><ele>577.0</ele><time>2026-03-28T12:35:51.998Z</time></trkpt><trkpt lat="44.70896674274227" lon="9.556926454459829"><ele>575.0</ele><time>2026-03-28T12:35:52.998Z</time></trkpt><trkpt lat="44.709081003663606" lon="9.557003085115102"><ele>573.0</ele><time>2026-03-28T12:35:53.998Z</time></trkpt><trkpt lat="44.709186963472966" lon="9.557090824608018"><ele>571.0</ele><time>2026-03-28T12:35:54.998Z</time></trkpt><trkpt lat="44.7092862119365" lon="9.557182669863458"><ele>571.0</ele><time>2026-03-28T12:35:55.998Z</time></trkpt><trkpt lat="44.70937523134254" lon="9.557302101804193"><ele>571.0</ele><time>2026-03-28T12:35:56.998Z</time></trkpt><trkpt lat="44.70945294467917" lon="9.55743886570138"><ele>571.0</ele><time>2026-03-28T12:35:57.998Z</time></trkpt><trkpt lat="44.70952473113158" lon="9.55758567642471"><ele>571.0</ele><time>2026-03-28T12:35:58.998Z</time></trkpt><trkpt lat="44.70958950139037" lon="9.557735523105347"><ele>571.0</ele><time>2026-03-28T12:35:59.998Z</time></trkpt><trkpt lat="44.70965221889168" lon="9.557887955144668"><ele>571.0</ele><time>2026-03-28T12:36:00.998Z</time></trkpt><trkpt lat="44.709721877327105" lon="9.558034850570884"><ele>571.0</ele><time>2026-03-28T12:36:01.998Z</time></trkpt><trkpt lat="44.70981062310395" lon="9.558163028731531"><ele>571.0</ele><time>2026-03-28T12:36:02.998Z</time></trkpt><trkpt lat="44.70991462591432" lon="9.55827136880508"><ele>571.0</ele><time>2026-03-28T12:36:03.998Z</time></trkpt><trkpt lat="44.710016154006944" lon="9.55837909326174"><ele>571.0</ele><time>2026-03-28T12:36:04.998Z</time></trkpt><trkpt lat="44.71009416035313" lon="9.558519613995772"><ele>571.0</ele><time>2026-03-28T12:36:05.998Z</time></trkpt><trkpt lat="44.710121905327824" lon="9.558698494707835"><ele>571.0</ele><time>2026-03-28T12:36:06.998Z</time></trkpt><trkpt lat="44.710139085439806" lon="9.55887958299165"><ele>568.25</ele><time>2026-03-28T12:36:07.998Z</time></trkpt><trkpt lat="44.71013419360788" lon="9.559064966970412"><ele>565.5</ele><time>2026-03-28T12:36:08.998Z</time></trkpt><trkpt lat="44.71013365371438" lon="9.559253057863081"><ele>562.75</ele><time>2026-03-28T12:36:09.998Z</time></trkpt><trkpt lat="44.7101347403597" lon="9.559433885153911"><ele>560.0</ele><time>2026-03-28T12:36:10.998Z</time></trkpt><trkpt lat="44.710163506391595" lon="9.559606076997431"><ele>561.25</ele><time>2026-03-28T12:36:11.998Z</time></trkpt><trkpt lat="44.710191256264395" lon="9.559769743977307"><ele>562.5</ele><time>2026-03-28T12:36:12.998Z</time></trkpt><trkpt lat="44.71027829776848" lon="9.559887650159691"><ele>563.75</ele><time>2026-03-28T12:36:13.998Z</time></trkpt><trkpt lat="44.7103901075912" lon="9.55998241732258"><ele>565.0</ele><time>2026-03-28T12:36:14.998Z</time></trkpt><trkpt lat="44.71047883740273" lon="9.560106028138884"><ele>565.0</ele><time>2026-03-28T12:36:15.998Z</time></trkpt><trkpt lat="44.71052459525145" lon="9.560258908589748"><ele>565.0</ele><time>2026-03-28T12:36:16.998Z</time></trkpt><trkpt lat="44.710530118575825" lon="9.560433650508465"><ele>565.0</ele><time>2026-03-28T12:36:17.998Z</time></trkpt><trkpt lat="44.710521332969336" lon="9.560600969498063"><ele>565.0</ele><time>2026-03-28T12:36:18.998Z</time></trkpt><trkpt lat="44.71050144408071" lon="9.560752049320136"><ele>562.0</ele><time>2026-03-28T12:36:19.998Z</time></trkpt><trkpt lat="44.7105018659602" lon="9.56090111178397"><ele>559.0</ele><time>2026-03-28T12:36:20.998Z</time></trkpt><trkpt lat="44.710538384796386" lon="9.561015446085019"><ele>556.0</ele><time>2026-03-28T12:36:21.998Z</time></trkpt><trkpt lat="44.71061026740956" lon="9.561091355646406"><ele>553.0</ele><time>2026-03-28T12:36:22.998Z</time></trkpt><trkpt lat="44.710717232755144" lon="9.561057194901432"><ele>550.0</ele><time>2026-03-28T12:36:23.998Z</time></trkpt><trkpt lat="44.71078271937471" lon="9.56097668344526"><ele>550.0</ele><time>2026-03-28T12:36:24.998Z</time></trkpt><trkpt lat="44.71082037716892" lon="9.560886587605506"><ele>550.0</ele><time>2026-03-28T12:36:25.998Z</time></trkpt><trkpt lat="44.71088649911953" lon="9.560784981563264"><ele>550.0</ele><time>2026-03-28T12:36:26.998Z</time></trkpt><trkpt lat="44.71096718219187" lon="9.560709572656338"><ele>550.0</ele><time>2026-03-28T12:36:27.998Z</time></trkpt><trkpt lat="44.711095691886975" lon="9.560730087857705"><ele>550.0</ele><time>2026-03-28T12:36:28.998Z</time></trkpt><trkpt lat="44.71119341029699" lon="9.560792534320885"><ele>547.4</ele><time>2026-03-28T12:36:29.998Z</time></trkpt><trkpt lat="44.7112903514398" lon="9.560807058223752"><ele>544.8</ele><time>2026-03-28T12:36:30.998Z</time></trkpt><trkpt lat="44.71136568126933" lon="9.560733157386244"><ele>542.2</ele><time>2026-03-28T12:36:31.998Z</time></trkpt><trkpt lat="44.71143476251766" lon="9.5606348001833"><ele>539.6</ele><time>2026-03-28T12:36:32.998Z</time></trkpt><trkpt lat="44.711529385192165" lon="9.560551389238"><ele>537.0</ele><time>2026-03-28T12:36:33.998Z</time></trkpt><trkpt lat="44.71162845402244" lon="9.560492750406327"><ele>537.0</ele><time>2026-03-28T12:36:34.998Z</time></trkpt><trkpt lat="44.711749430247785" lon="9.56052504198288"><ele>537.0</ele><time>2026-03-28T12:36:35.998Z</time></trkpt><trkpt lat="44.71185804823018" lon="9.560559233740557"><ele>537.0</ele><time>2026-03-28T12:36:36.998Z</time></trkpt><trkpt lat="44.711966067423894" lon="9.560571701773581"><ele>537.0</ele><time>2026-03-28T12:36:37.998Z</time></trkpt><trkpt lat="44.71206528494023" lon="9.56052969783199"><ele>537.0</ele><time>2026-03-28T12:36:38.998Z</time></trkpt><trkpt lat="44.71215818389563" lon="9.56044912123694"><ele>538.0</ele><time>2026-03-28T12:36:40Z</time></trkpt><trkpt lat="44.7122617103304" lon="9.560361451029339"><ele>539.0</ele><time>2026-03-28T12:36:41Z</time></trkpt><trkpt lat="44.71237340778948" lon="9.560288059524758"><ele>540.0</ele><time>2026-03-28T12:36:42Z</time></trkpt><trkpt lat="44.71247643466712" lon="9.560199171812569"><ele>541.0</ele><time>2026-03-28T12:36:43Z</time></trkpt><trkpt lat="44.71257851689007" lon="9.560134618813029"><ele>541.0</ele><time>2026-03-28T12:36:44Z</time></trkpt><trkpt lat="44.71269079372431" lon="9.560109028023332"><ele>541.0</ele><time>2026-03-28T12:36:45Z</time></trkpt><trkpt lat="44.71281052649068" lon="9.560110465575486"><ele>541.0</ele><time>2026-03-28T12:36:46Z</time></trkpt><trkpt lat="44.71292760818212" lon="9.560124786261051"><ele>541.0</ele><time>2026-03-28T12:36:47Z</time></trkpt><trkpt lat="44.713045642447554" lon="9.560142976243792"><ele>539.75</ele><time>2026-03-28T12:36:48Z</time></trkpt><trkpt lat="44.71316097697886" lon="9.560152537773371"><ele>538.5</ele><time>2026-03-28T12:36:49Z</time></trkpt><trkpt lat="44.71327976624035" lon="9.560164981548578"><ele>537.25</ele><time>2026-03-28T12:36:50Z</time></trkpt><trkpt lat="44.713389969021485" lon="9.560234710176202"><ele>536.0</ele><time>2026-03-28T12:36:51Z</time></trkpt><trkpt lat="44.71346261299714" lon="9.560370805578694"><ele>533.8</ele><time>2026-03-28T12:36:52Z</time></trkpt><trkpt lat="44.71353372481378" lon="9.560478357509881"><ele>531.6</ele><time>2026-03-28T12:36:53Z</time></trkpt><trkpt lat="44.71357751353199" lon="9.560597180419071"><ele>529.4</ele><time>2026-03-28T12:36:54Z</time></trkpt><trkpt lat="44.71357942711547" lon="9.560725005986253"><ele>527.2</ele><time>2026-03-28T12:36:55Z</time></trkpt><trkpt lat="44.71353589685021" lon="9.560855358524707"><ele>525.0</ele><time>2026-03-28T12:36:56Z</time></trkpt><trkpt lat="44.713531590735265" lon="9.560997254219672"><ele>525.0</ele><time>2026-03-28T12:36:57Z</time></trkpt><trkpt lat="44.71354767743386" lon="9.561106846426277"><ele>525.0</ele><time>2026-03-28T12:36:58Z</time></trkpt><trkpt lat="44.71362772601094" lon="9.56117024204676"><ele>525.0</ele><time>2026-03-28T12:36:59Z</time></trkpt><trkpt lat="44.71371707057632" lon="9.561172791640761"><ele>525.0</ele><time>2026-03-28T12:36:59.999Z</time></trkpt><trkpt lat="44.71378506321718" lon="9.561058795445733"><ele>525.0</ele><time>2026-03-28T12:37:00.999Z</time></trkpt><trkpt lat="44.71382283083681" lon="9.560941046978831"><ele>523.2</ele><time>2026-03-28T12:37:01.999Z</time></trkpt><trkpt lat="44.713895496759946" lon="9.560854712852368"><ele>521.4</ele><time>2026-03-28T12:37:02.999Z</time></trkpt><trkpt lat="44.713976286119305" lon="9.560764947034086"><ele>519.6</ele><time>2026-03-28T12:37:03.999Z</time></trkpt><trkpt lat="44.714074416084486" lon="9.560695066086494"><ele>517.8</ele><time>2026-03-28T12:37:04.999Z</time></trkpt><trkpt lat="44.71416063511769" lon="9.560668742811183"><ele>516.0</ele><time>2026-03-28T12:37:05.999Z</time></trkpt><trkpt lat="44.71423878074054" lon="9.560691955995752"><ele>516.0</ele><time>2026-03-28T12:37:06.999Z</time></trkpt><trkpt lat="44.71429702226725" lon="9.56076932636449"><ele>516.0</ele><time>2026-03-28T12:37:07.999Z</time></trkpt><trkpt lat="44.71430424602246" lon="9.56089390996616"><ele>516.0</ele><time>2026-03-28T12:37:08.999Z</time></trkpt><trkpt lat="44.71424769040472" lon="9.56100463674155"><ele>516.0</ele><time>2026-03-28T12:37:09.999Z</time></trkpt><trkpt lat="44.714167300324405" lon="9.56106849313087"><ele>516.0</ele><time>2026-03-28T12:37:10.999Z</time></trkpt><trkpt lat="44.71409982255355" lon="9.561065190269833"><ele>516.0</ele><time>2026-03-28T12:37:11.999Z</time></trkpt><trkpt lat="44.71401796001633" lon="9.561083740937013"><ele>516.0</ele><time>2026-03-28T12:37:12.999Z</time></trkpt><trkpt lat="44.713925371114385" lon="9.561130238220624"><ele>516.0</ele><time>2026-03-28T12:37:13.999Z</time></trkpt><trkpt lat="44.713841538821384" lon="9.561198145973057"><ele>516.0</ele><time>2026-03-28T12:37:14.999Z</time></trkpt><trkpt lat="44.71376540540483" lon="9.561287621384539"><ele>516.0</ele><time>2026-03-28T12:37:15.999Z</time></trkpt><trkpt lat="44.713702658643946" lon="9.561369329799897"><ele>516.0</ele><time>2026-03-28T12:37:16.999Z</time></trkpt><trkpt lat="44.7136350675147" lon="9.561438498044955"><ele>515.5</ele><time>2026-03-28T12:37:17.999Z</time></trkpt><trkpt lat="44.713564498718306" lon="9.561500907398164"><ele>515.0</ele><time>2026-03-28T12:37:18.999Z</time></trkpt><trkpt lat="44.71349995082463" lon="9.561537134553646"><ele>514.5</ele><time>2026-03-28T12:37:19.999Z</time></trkpt><trkpt lat="44.71343386882101" lon="9.561555650359692"><ele>514.0</ele><time>2026-03-28T12:37:20.999Z</time></trkpt><trkpt lat="44.71334601688187" lon="9.561570400074183"><ele>513.5</ele><time>2026-03-28T12:37:21.999Z</time></trkpt><trkpt lat="44.71322990767619" lon="9.561613420739699"><ele>513.0</ele><time>2026-03-28T12:37:22.999Z</time></trkpt><trkpt lat="44.71312684920318" lon="9.561699902086241"><ele>513.0</ele><time>2026-03-28T12:37:23.999Z</time></trkpt><trkpt lat="44.7130383821602" lon="9.561806143952072"><ele>513.0</ele><time>2026-03-28T12:37:24.999Z</time></trkpt><trkpt lat="44.71295931355288" lon="9.561915523370761"><ele>513.0</ele><time>2026-03-28T12:37:25.999Z</time></trkpt><trkpt lat="44.71288478561251" lon="9.562030980962566"><ele>513.0</ele><time>2026-03-28T12:37:26.999Z</time></trkpt><trkpt lat="44.71281555546663" lon="9.562161469248519"><ele>510.25</ele><time>2026-03-28T12:37:27.999Z</time></trkpt><trkpt lat="44.71275333050475" lon="9.562304557379612"><ele>507.5</ele><time>2026-03-28T12:37:28.999Z</time></trkpt><trkpt lat="44.71270298787137" lon="9.56246090631113"><ele>504.75</ele><time>2026-03-28T12:37:29.999Z</time></trkpt><trkpt lat="44.71266639244799" lon="9.562618096773745"><ele>502.0</ele><time>2026-03-28T12:37:30.999Z</time></trkpt><trkpt lat="44.712647586757335" lon="9.562773638482899"><ele>499.40000000000003</ele><time>2026-03-28T12:37:31.999Z</time></trkpt><trkpt lat="44.71263115454136" lon="9.562910152138807"><ele>496.80000000000007</ele><time>2026-03-28T12:37:32.999Z</time></trkpt><trkpt lat="44.712603361401946" lon="9.563017526203563"><ele>494.2</ele><time>2026-03-28T12:37:33.999Z</time></trkpt><trkpt lat="44.712560286907824" lon="9.563086929515125"><ele>491.6</ele><time>2026-03-28T12:37:34.999Z</time></trkpt><trkpt lat="44.71244111097926" lon="9.563074565824602"><ele>489.0</ele><time>2026-03-28T12:37:36.999Z</time></trkpt><trkpt lat="44.712375835976836" lon="9.56299626150924"><ele>489.0</ele><time>2026-03-28T12:37:37.999Z</time></trkpt><trkpt lat="44.71231370378199" lon="9.562920269383048"><ele>489.0</ele><time>2026-03-28T12:37:38.999Z</time></trkpt><trkpt lat="44.71225094574973" lon="9.5628275510296"><ele>489.0</ele><time>2026-03-28T12:37:39.999Z</time></trkpt><trkpt lat="44.71218321779556" lon="9.562769404459305"><ele>489.0</ele><time>2026-03-28T12:37:40.999Z</time></trkpt><trkpt lat="44.712116453623864" lon="9.56272599822999"><ele>489.0</ele><time>2026-03-28T12:37:41.999Z</time></trkpt><trkpt lat="44.71202006123232" lon="9.562737465448853"><ele>489.0</ele><time>2026-03-28T12:37:42.999Z</time></trkpt><trkpt lat="44.71195040304489" lon="9.56286209190637"><ele>489.0</ele><time>2026-03-28T12:37:43.999Z</time></trkpt><trkpt lat="44.71204583957177" lon="9.563033613635035"><ele>489.0</ele><time>2026-03-28T12:37:44.999Z</time></trkpt><trkpt lat="44.712107175521325" lon="9.563112610094526"><ele>489.0</ele><time>2026-03-28T12:37:45.999Z</time></trkpt><trkpt lat="44.712155634896455" lon="9.563200277991424"><ele>489.0</ele><time>2026-03-28T12:37:46.999Z</time></trkpt><trkpt lat="44.71219099832406" lon="9.563305894256782"><ele>489.0</ele><time>2026-03-28T12:37:47.999Z</time></trkpt><trkpt lat="44.71219600446738" lon="9.563428555985762"><ele>489.0</ele><time>2026-03-28T12:37:48.999Z</time></trkpt><trkpt lat="44.71222057169481" lon="9.563547738161887"><ele>489.0</ele><time>2026-03-28T12:37:49.999Z</time></trkpt><trkpt lat="44.712264533321346" lon="9.56366062860724"><ele>489.0</ele><time>2026-03-28T12:37:50.998Z</time></trkpt><trkpt lat="44.712331113633965" lon="9.563746530873994"><ele>489.0</ele><time>2026-03-28T12:37:51.998Z</time></trkpt><trkpt lat="44.71236328863284" lon="9.563840490995888"><ele>489.0</ele><time>2026-03-28T12:37:52.998Z</time></trkpt><trkpt lat="44.7123806058995" lon="9.563938331504033"><ele>489.0</ele><time>2026-03-28T12:37:53.998Z</time></trkpt><trkpt lat="44.712312058642944" lon="9.56400443685034"><ele>489.0</ele><time>2026-03-28T12:37:54.998Z</time></trkpt><trkpt lat="44.71222244661305" lon="9.564023529703173"><ele>489.0</ele><time>2026-03-28T12:37:56.998Z</time></trkpt><trkpt lat="44.71212740003158" lon="9.563951603413985"><ele>489.0</ele><time>2026-03-28T12:37:58.998Z</time></trkpt><trkpt lat="44.71207118101745" lon="9.563867708475543"><ele>489.0</ele><time>2026-03-28T12:37:59.998Z</time></trkpt><trkpt lat="44.712017616054645" lon="9.563773995039513"><ele>489.0</ele><time>2026-03-28T12:38:00.998Z</time></trkpt><trkpt lat="44.71197302947826" lon="9.563670483249142"><ele>489.0</ele><time>2026-03-28T12:38:01.998Z</time></trkpt><trkpt lat="44.711920175596404" lon="9.563601845528256"><ele>489.0</ele><time>2026-03-28T12:38:02.998Z</time></trkpt><trkpt lat="44.71185808684929" lon="9.563544914414596"><ele>489.0</ele><time>2026-03-28T12:38:03.998Z</time></trkpt><trkpt lat="44.71176123974484" lon="9.56354337728223"><ele>489.0</ele><time>2026-03-28T12:38:04.998Z</time></trkpt><trkpt lat="44.711684606569804" lon="9.56367657764269"><ele>489.0</ele><time>2026-03-28T12:38:05.998Z</time></trkpt><trkpt lat="44.7117223325256" lon="9.563872327255691"><ele>486.4</ele><time>2026-03-28T12:38:06.998Z</time></trkpt><trkpt lat="44.71172692901206" lon="9.563993465185648"><ele>483.79999999999995</ele><time>2026-03-28T12:38:07.998Z</time></trkpt><trkpt lat="44.711732440449595" lon="9.56412029636234"><ele>481.20000000000005</ele><time>2026-03-28T12:38:08.998Z</time></trkpt><trkpt lat="44.71173820000947" lon="9.564252837399495"><ele>478.6</ele><time>2026-03-28T12:38:09.998Z</time></trkpt><trkpt lat="44.71174417206376" lon="9.56439026679354"><ele>476.0</ele><time>2026-03-28T12:38:10.998Z</time></trkpt><trkpt lat="44.711743358850164" lon="9.564524758183433"><ele>474.8</ele><time>2026-03-28T12:38:11.998Z</time></trkpt><trkpt lat="44.71173020632897" lon="9.564657281741393"><ele>473.6</ele><time>2026-03-28T12:38:12.998Z</time></trkpt><trkpt lat="44.711694924036166" lon="9.564776386675586"><ele>472.4</ele><time>2026-03-28T12:38:13.998Z</time></trkpt><trkpt lat="44.711647085070766" lon="9.564888859026018"><ele>471.2</ele><time>2026-03-28T12:38:14.998Z</time></trkpt><trkpt lat="44.711593136256006" lon="9.564999961909008"><ele>470.0</ele><time>2026-03-28T12:38:15.998Z</time></trkpt><trkpt lat="44.71155583746783" lon="9.565119358171621"><ele>470.0</ele><time>2026-03-28T12:38:16.998Z</time></trkpt><trkpt lat="44.71156155349823" lon="9.565257130261527"><ele>470.0</ele><time>2026-03-28T12:38:17.998Z</time></trkpt><trkpt lat="44.71164582176242" lon="9.565367271978564"><ele>470.0</ele><time>2026-03-28T12:38:18.998Z</time></trkpt><trkpt lat="44.71170601795811" lon="9.56546364041294"><ele>470.0</ele><time>2026-03-28T12:38:19.998Z</time></trkpt><trkpt lat="44.711779137795176" lon="9.56552922145694"><ele>470.0</ele><time>2026-03-28T12:38:20.998Z</time></trkpt><trkpt lat="44.71186515122305" lon="9.565505698210513"><ele>468.4</ele><time>2026-03-28T12:38:21.998Z</time></trkpt><trkpt lat="44.71193980836707" lon="9.565444551314293"><ele>466.8</ele><time>2026-03-28T12:38:22.998Z</time></trkpt><trkpt lat="44.71200593116313" lon="9.56536109402053"><ele>465.20000000000005</ele><time>2026-03-28T12:38:23.998Z</time></trkpt><trkpt lat="44.71208834313963" lon="9.565266858997987"><ele>463.6</ele><time>2026-03-28T12:38:24.998Z</time></trkpt><trkpt lat="44.71219382768909" lon="9.56520378875564"><ele>462.0</ele><time>2026-03-28T12:38:25.998Z</time></trkpt><trkpt lat="44.71231332165815" lon="9.565180145362671"><ele>462.0</ele><time>2026-03-28T12:38:26.998Z</time></trkpt><trkpt lat="44.71243472944492" lon="9.565180729600051"><ele>462.0</ele><time>2026-03-28T12:38:27.998Z</time></trkpt><trkpt lat="44.71254819585049" lon="9.565174692351528"><ele>462.0</ele><time>2026-03-28T12:38:28.998Z</time></trkpt><trkpt lat="44.71266201676935" lon="9.565165090465774"><ele>462.0</ele><time>2026-03-28T12:38:29.998Z</time></trkpt><trkpt lat="44.71276932092234" lon="9.565159608263912"><ele>462.0</ele><time>2026-03-28T12:38:30.998Z</time></trkpt><trkpt lat="44.712869062617806" lon="9.565182014985146"><ele>462.00000000000006</ele><time>2026-03-28T12:38:31.998Z</time></trkpt><trkpt lat="44.71295526636529" lon="9.565225183214595"><ele>462.00000000000006</ele><time>2026-03-28T12:38:32.998Z</time></trkpt><trkpt lat="44.713018142019955" lon="9.565307052946036"><ele>462.0</ele><time>2026-03-28T12:38:33.998Z</time></trkpt><trkpt lat="44.713057766452664" lon="9.565413058439168"><ele>462.0</ele><time>2026-03-28T12:38:34.998Z</time></trkpt><trkpt lat="44.71302585628484" lon="9.565534819996115"><ele>460.6</ele><time>2026-03-28T12:38:35.998Z</time></trkpt><trkpt lat="44.712983075952174" lon="9.565637784977811"><ele>459.20000000000005</ele><time>2026-03-28T12:38:36.998Z</time></trkpt><trkpt lat="44.71294036920578" lon="9.56576638312749"><ele>457.8</ele><time>2026-03-28T12:38:37.998Z</time></trkpt><trkpt lat="44.71291297464962" lon="9.565912816986124"><ele>456.4</ele><time>2026-03-28T12:38:38.998Z</time></trkpt><trkpt lat="44.712907345971686" lon="9.566068610576497"><ele>455.0</ele><time>2026-03-28T12:38:39.998Z</time></trkpt><trkpt lat="44.71293495096179" lon="9.56622302737212"><ele>454.6</ele><time>2026-03-28T12:38:40.998Z</time></trkpt><trkpt lat="44.7129601448713" lon="9.566373040762665"><ele>454.2</ele><time>2026-03-28T12:38:41.998Z</time></trkpt><trkpt lat="44.71299241575334" lon="9.56652378983065"><ele>453.79999999999995</ele><time>2026-03-28T12:38:42.998Z</time></trkpt><trkpt lat="44.713027079918064" lon="9.566676274690114"><ele>453.4</ele><time>2026-03-28T12:38:43.997Z</time></trkpt><trkpt lat="44.713061205957395" lon="9.566828217916864"><ele>453.0</ele><time>2026-03-28T12:38:44.997Z</time></trkpt><trkpt lat="44.713098048355064" lon="9.566968466545108"><ele>454.0</ele><time>2026-03-28T12:38:46Z</time></trkpt><trkpt lat="44.7130979294662" lon="9.567103246719444"><ele>455.0</ele><time>2026-03-28T12:38:47Z</time></trkpt><trkpt lat="44.71306626329475" lon="9.567220963230135"><ele>456.0</ele><time>2026-03-28T12:38:48Z</time></trkpt><trkpt lat="44.71301350456829" lon="9.567315673015383"><ele>457.0</ele><time>2026-03-28T12:38:49Z</time></trkpt><trkpt lat="44.71295688329124" lon="9.567410698403744"><ele>458.0</ele><time>2026-03-28T12:38:50Z</time></trkpt><trkpt lat="44.71290043052486" lon="9.567494937343511"><ele>459.0</ele><time>2026-03-28T12:38:51Z</time></trkpt><trkpt lat="44.712845982664355" lon="9.567574824217386"><ele>459.0</ele><time>2026-03-28T12:38:52Z</time></trkpt><trkpt lat="44.71279578880937" lon="9.567648634057761"><ele>459.0</ele><time>2026-03-28T12:38:53Z</time></trkpt><trkpt lat="44.71275207184874" lon="9.567736777158949"><ele>459.0</ele><time>2026-03-28T12:38:54Z</time></trkpt><trkpt lat="44.71272625308516" lon="9.56784572530153"><ele>459.0</ele><time>2026-03-28T12:38:55Z</time></trkpt><trkpt lat="44.71279624720666" lon="9.567957589316869"><ele>459.0</ele><time>2026-03-28T12:38:56Z</time></trkpt><trkpt lat="44.712851174486225" lon="9.568027503904766"><ele>459.0</ele><time>2026-03-28T12:38:57Z</time></trkpt><trkpt lat="44.712917742478275" lon="9.568081712572923"><ele>457.6666666666667</ele><time>2026-03-28T12:38:58Z</time></trkpt><trkpt lat="44.712983580377866" lon="9.568130578333365"><ele>456.33333333333337</ele><time>2026-03-28T12:38:59Z</time></trkpt><trkpt lat="44.71303708790098" lon="9.568208162922904"><ele>455.0</ele><time>2026-03-28T12:39:00Z</time></trkpt><trkpt lat="44.713078908691855" lon="9.568299300829096"><ele>453.6666666666667</ele><time>2026-03-28T12:39:01Z</time></trkpt><trkpt lat="44.71311071259875" lon="9.568400983181457"><ele>452.33333333333337</ele><time>2026-03-28T12:39:02Z</time></trkpt><trkpt lat="44.7131247264985" lon="9.568502850561035"><ele>451.0</ele><time>2026-03-28T12:39:02.999Z</time></trkpt><trkpt lat="44.71314180005069" lon="9.568597403577657"><ele>448.83333333333337</ele><time>2026-03-28T12:39:03.999Z</time></trkpt><trkpt lat="44.71317324557292" lon="9.568752577156213"><ele>446.6666666666667</ele><time>2026-03-28T12:39:05.999Z</time></trkpt><trkpt lat="44.713197417443965" lon="9.568856473177437"><ele>444.5</ele><time>2026-03-28T12:39:07.999Z</time></trkpt><trkpt lat="44.71316657403693" lon="9.56895999311805"><ele>442.33333333333337</ele><time>2026-03-28T12:39:10.999Z</time></trkpt><trkpt lat="44.713250971607025" lon="9.569048206231786"><ele>440.1666666666667</ele><time>2026-03-28T12:39:13.999Z</time></trkpt><trkpt lat="44.71329539456246" lon="9.569126010513635"><ele>438.0</ele><time>2026-03-28T12:40:53Z</time></trkpt><trkpt lat="44.71336727019605" lon="9.569192863950978"><ele>438.0</ele><time>2026-03-28T12:40:56Z</time></trkpt><trkpt lat="44.713412414607916" lon="9.569255036988668"><ele>438.0</ele><time>2026-03-28T12:40:57.999Z</time></trkpt><trkpt lat="44.71345528109251" lon="9.569331268393695"><ele>438.0</ele><time>2026-03-28T12:40:59.999Z</time></trkpt><trkpt lat="44.713495899841455" lon="9.569419189648487"><ele>438.0</ele><time>2026-03-28T12:41:02Z</time></trkpt><trkpt lat="44.71354562351506" lon="9.569500421847367"><ele>438.0</ele><time>2026-03-28T12:41:03.999Z</time></trkpt><trkpt lat="44.71358139982136" lon="9.56958925629696"><ele>438.0</ele><time>2026-03-28T12:41:05.999Z</time></trkpt><trkpt lat="44.713620353366274" lon="9.569689615321035"><ele>438.0</ele><time>2026-03-28T12:41:08.999Z</time></trkpt><trkpt lat="44.713645041901" lon="9.569773249273664"><ele>438.8333333333333</ele><time>2026-03-28T12:41:11.999Z</time></trkpt><trkpt lat="44.71368838410724" lon="9.56985772954372"><ele>439.66666666666663</ele><time>2026-03-28T12:41:26Z</time></trkpt><trkpt lat="44.7137569014956" lon="9.56989579249214"><ele>440.5</ele><time>2026-03-28T12:41:29Z</time></trkpt><trkpt lat="44.713688364128764" lon="9.569754898457314"><ele>441.3333333333333</ele><time>2026-03-28T12:43:44.265Z</time></trkpt><trkpt lat="44.71374139884237" lon="9.569830112127743"><ele>442.16666666666663</ele><time>2026-03-28T12:45:46.567Z</time></trkpt><trkpt lat="44.71374489812663" lon="9.569933403182244"><ele>443.0</ele><time>2026-03-28T12:45:52.997Z</time></trkpt><trkpt lat="44.7137721721283" lon="9.57004349928397"><ele>442.99999999999994</ele><time>2026-03-28T13:05:02Z</time></trkpt><trkpt lat="44.713796647694" lon="9.570133617237138"><ele>443.0</ele><time>2026-03-28T13:05:05Z</time></trkpt><trkpt lat="44.71383855539534" lon="9.570216949034245"><ele>443.0</ele><time>2026-03-28T13:05:08Z</time></trkpt><trkpt lat="44.713867966308406" lon="9.570301411365595"><ele>443.0</ele><time>2026-03-28T13:05:11Z</time></trkpt><trkpt lat="44.71386232591838" lon="9.57039483874626"><ele>442.99999999999994</ele><time>2026-03-28T13:05:16Z</time></trkpt><trkpt lat="44.713961428624884" lon="9.57043323968065"><ele>443.0</ele><time>2026-03-28T13:08:19.999Z</time></trkpt><trkpt lat="44.71403065890294" lon="9.57048891693191"><ele>441.99999999999994</ele><time>2026-03-28T13:08:21.999Z</time></trkpt><trkpt lat="44.714098571160285" lon="9.570540026584554"><ele>441.0</ele><time>2026-03-28T13:08:23.999Z</time></trkpt><trkpt lat="44.71417719418795" lon="9.570579392951672"><ele>440.0</ele><time>2026-03-28T13:08:25.999Z</time></trkpt><trkpt lat="44.7142659857792" lon="9.570609581882547"><ele>439.0</ele><time>2026-03-28T13:08:27.999Z</time></trkpt><trkpt lat="44.71436292282449" lon="9.570632283299535"><ele>437.99999999999994</ele><time>2026-03-28T13:08:29.998Z</time></trkpt><trkpt lat="44.714460863731006" lon="9.570652877526323"><ele>437.0</ele><time>2026-03-28T13:08:31.998Z</time></trkpt><trkpt lat="44.7145537778453" lon="9.570680412335369"><ele>437.0</ele><time>2026-03-28T13:08:33.998Z</time></trkpt><trkpt lat="44.714644989470685" lon="9.570715406935994"><ele>437.00000000000006</ele><time>2026-03-28T13:08:35.998Z</time></trkpt><trkpt lat="44.714740512038624" lon="9.570748432669882"><ele>437.00000000000006</ele><time>2026-03-28T13:08:37.998Z</time></trkpt><trkpt lat="44.71483458584922" lon="9.570789897868345"><ele>437.0</ele><time>2026-03-28T13:08:39.998Z</time></trkpt><trkpt lat="44.714928191664" lon="9.570823724524764"><ele>437.0</ele><time>2026-03-28T13:08:41.998Z</time></trkpt><trkpt lat="44.715016336920414" lon="9.570864772723866"><ele>437.0</ele><time>2026-03-28T13:08:43.998Z</time></trkpt><trkpt lat="44.715108477986796" lon="9.570918025737"><ele>437.00000000000006</ele><time>2026-03-28T13:08:45.998Z</time></trkpt><trkpt lat="44.71520199601125" lon="9.570965255051318"><ele>437.00000000000006</ele><time>2026-03-28T13:08:47.998Z</time></trkpt><trkpt lat="44.71526544185496" lon="9.5709887488027"><ele>437.0</ele><time>2026-03-28T13:08:49.998Z</time></trkpt><trkpt lat="44.715351181474944" lon="9.5710355465059"><ele>437.0</ele><time>2026-03-28T13:08:50.998Z</time></trkpt><trkpt lat="44.71545158339209" lon="9.571061504589267"><ele>438.8</ele><time>2026-03-28T13:08:52.998Z</time></trkpt><trkpt lat="44.71555121909363" lon="9.57108447215811"><ele>440.6</ele><time>2026-03-28T13:08:54.998Z</time></trkpt><trkpt lat="44.71565572449057" lon="9.571112934905072"><ele>442.40000000000003</ele><time>2026-03-28T13:08:57Z</time></trkpt><trkpt lat="44.71576016271552" lon="9.571125474569286"><ele>444.20000000000005</ele><time>2026-03-28T13:08:59Z</time></trkpt><trkpt lat="44.715863672119276" lon="9.57114060731103"><ele>446.0</ele><time>2026-03-28T13:09:01Z</time></trkpt><trkpt lat="44.71596452452319" lon="9.571150659764447"><ele>446.0</ele><time>2026-03-28T13:09:03Z</time></trkpt><trkpt lat="44.71605939263269" lon="9.571182806452683"><ele>446.0</ele><time>2026-03-28T13:09:05Z</time></trkpt><trkpt lat="44.71615363233457" lon="9.571218911207756"><ele>446.0</ele><time>2026-03-28T13:09:07Z</time></trkpt><trkpt lat="44.71624235187535" lon="9.571252549844814"><ele>446.0</ele><time>2026-03-28T13:09:09Z</time></trkpt><trkpt lat="44.71632331524586" lon="9.571292978451543"><ele>446.0</ele><time>2026-03-28T13:09:11Z</time></trkpt><trkpt lat="44.716405146259724" lon="9.571331601184268"><ele>443.3333333333333</ele><time>2026-03-28T13:09:13Z</time></trkpt><trkpt lat="44.716483079823135" lon="9.571375568409872"><ele>440.66666666666663</ele><time>2026-03-28T13:09:15Z</time></trkpt><trkpt lat="44.716565865361304" lon="9.571419427896393"><ele>438.0</ele><time>2026-03-28T13:09:17Z</time></trkpt><trkpt lat="44.71665147572368" lon="9.571461807939462"><ele>435.33333333333337</ele><time>2026-03-28T13:09:19Z</time></trkpt><trkpt lat="44.7167257081287" lon="9.57149476793046"><ele>432.6666666666667</ele><time>2026-03-28T13:09:21Z</time></trkpt><trkpt lat="44.71680045757026" lon="9.571522435443429"><ele>430.0</ele><time>2026-03-28T13:09:23Z</time></trkpt><trkpt lat="44.716887136654236" lon="9.571534169736545"><ele>432.8</ele><time>2026-03-28T13:09:25Z</time></trkpt><trkpt lat="44.71698135016487" lon="9.571551629552754"><ele>435.6</ele><time>2026-03-28T13:09:27Z</time></trkpt><trkpt lat="44.717071289722824" lon="9.57158416351873"><ele>438.4</ele><time>2026-03-28T13:09:29Z</time></trkpt><trkpt lat="44.71715662150085" lon="9.571635492077977"><ele>441.2</ele><time>2026-03-28T13:09:31Z</time></trkpt><trkpt lat="44.71723732407014" lon="9.571709652794807"><ele>444.0</ele><time>2026-03-28T13:09:34Z</time></trkpt><trkpt lat="44.717342071578116" lon="9.571826619575036"><ele>444.0</ele><time>2026-03-28T13:09:36Z</time></trkpt><trkpt lat="44.71740854140422" lon="9.571929161233703"><ele>444.0</ele><time>2026-03-28T13:09:38Z</time></trkpt><trkpt lat="44.71747049707754" lon="9.572030416568856"><ele>444.0</ele><time>2026-03-28T13:09:40Z</time></trkpt><trkpt lat="44.717537693384834" lon="9.572127069911529"><ele>444.0</ele><time>2026-03-28T13:09:41.999Z</time></trkpt><trkpt lat="44.71760048863948" lon="9.572232625833863"><ele>444.0</ele><time>2026-03-28T13:09:43.999Z</time></trkpt><trkpt lat="44.717662130872974" lon="9.572339315979388"><ele>442.2</ele><time>2026-03-28T13:09:45.999Z</time></trkpt><trkpt lat="44.71772942813572" lon="9.57244341191697"><ele>440.4</ele><time>2026-03-28T13:09:47.999Z</time></trkpt><trkpt lat="44.71779590950436" lon="9.572554403209006"><ele>438.6</ele><time>2026-03-28T13:09:49.999Z</time></trkpt><trkpt lat="44.7178602892333" lon="9.57266306758727"><ele>436.8</ele><time>2026-03-28T13:09:51.999Z</time></trkpt><trkpt lat="44.71792852215956" lon="9.572772652106014"><ele>435.0</ele><time>2026-03-28T13:09:53.999Z</time></trkpt><trkpt lat="44.7179958546377" lon="9.572825675568042"><ele>436.4</ele><time>2026-03-28T13:09:54.999Z</time></trkpt><trkpt lat="44.71806114368073" lon="9.57293863461551"><ele>437.8</ele><time>2026-03-28T13:09:56.999Z</time></trkpt><trkpt lat="44.71813885177484" lon="9.573049685496317"><ele>439.20000000000005</ele><time>2026-03-28T13:09:58.999Z</time></trkpt><trkpt lat="44.71820904116123" lon="9.573154240900674"><ele>440.6</ele><time>2026-03-28T13:10:00.999Z</time></trkpt><trkpt lat="44.71828190683934" lon="9.573265613655153"><ele>442.0</ele><time>2026-03-28T13:10:02.999Z</time></trkpt><trkpt lat="44.71835570638869" lon="9.573380624864619"><ele>442.0</ele><time>2026-03-28T13:10:04.999Z</time></trkpt><trkpt lat="44.718420773114495" lon="9.573492282839615"><ele>442.00000000000006</ele><time>2026-03-28T13:10:06.999Z</time></trkpt><trkpt lat="44.71849222306868" lon="9.573609788285866"><ele>442.00000000000006</ele><time>2026-03-28T13:10:08.999Z</time></trkpt><trkpt lat="44.718563903932385" lon="9.573724594843524"><ele>442.0</ele><time>2026-03-28T13:10:10.999Z</time></trkpt><trkpt lat="44.718636569723735" lon="9.573839202275682"><ele>442.0</ele><time>2026-03-28T13:10:12.999Z</time></trkpt><trkpt lat="44.718710793205965" lon="9.573966080545967"><ele>444.25</ele><time>2026-03-28T13:10:14.999Z</time></trkpt><trkpt lat="44.71879286900342" lon="9.57408521990195"><ele>446.5</ele><time>2026-03-28T13:10:16.999Z</time></trkpt><trkpt lat="44.718864812729144" lon="9.574208948652542"><ele>448.75</ele><time>2026-03-28T13:10:18.999Z</time></trkpt><trkpt lat="44.71894122158548" lon="9.574329780440802"><ele>451.0</ele><time>2026-03-28T13:10:20.999Z</time></trkpt><trkpt lat="44.719013492217336" lon="9.574439206109574"><ele>449.20000000000005</ele><time>2026-03-28T13:10:22.999Z</time></trkpt><trkpt lat="44.7190890427338" lon="9.574554038840933"><ele>447.40000000000003</ele><time>2026-03-28T13:10:24.999Z</time></trkpt><trkpt lat="44.71917547176899" lon="9.574647474217874"><ele>445.6</ele><time>2026-03-28T13:10:26.999Z</time></trkpt><trkpt lat="44.71926936380144" lon="9.57472490927471"><ele>443.8</ele><time>2026-03-28T13:10:28.999Z</time></trkpt><trkpt lat="44.719361110750846" lon="9.574770623489655"><ele>442.0</ele><time>2026-03-28T13:10:30.999Z</time></trkpt><trkpt lat="44.719462469380375" lon="9.57480040812938"><ele>442.0</ele><time>2026-03-28T13:10:32.999Z</time></trkpt><trkpt lat="44.719568029105396" lon="9.574805139448305"><ele>442.00000000000006</ele><time>2026-03-28T13:10:34.998Z</time></trkpt><trkpt lat="44.71967238208427" lon="9.574792223149032"><ele>442.00000000000006</ele><time>2026-03-28T13:10:36.998Z</time></trkpt><trkpt lat="44.71978017357105" lon="9.574768286116528"><ele>442.0</ele><time>2026-03-28T13:10:38.998Z</time></trkpt><trkpt lat="44.71987404965943" lon="9.574740366795638"><ele>442.0</ele><time>2026-03-28T13:10:40.998Z</time></trkpt><trkpt lat="44.719936106464296" lon="9.574723219484904"><ele>442.0</ele><time>2026-03-28T13:10:41.998Z</time></trkpt><trkpt lat="44.720037964114326" lon="9.57468732600352"><ele>442.00000000000006</ele><time>2026-03-28T13:10:43.998Z</time></trkpt><trkpt lat="44.72014502960459" lon="9.574660591019855"><ele>442.00000000000006</ele><time>2026-03-28T13:10:45.998Z</time></trkpt><trkpt lat="44.7202473079474" lon="9.57462174810789"><ele>442.0</ele><time>2026-03-28T13:10:47.998Z</time></trkpt><trkpt lat="44.720347208177365" lon="9.574586099561762"><ele>442.0</ele><time>2026-03-28T13:10:49.998Z</time></trkpt><trkpt lat="44.72044525609592" lon="9.574550750472499"><ele>446.0</ele><time>2026-03-28T13:10:51.998Z</time></trkpt><trkpt lat="44.720544972279264" lon="9.574517704863503"><ele>450.00000000000006</ele><time>2026-03-28T13:10:53.998Z</time></trkpt><trkpt lat="44.72065347985586" lon="9.574485117370797"><ele>454.00000000000006</ele><time>2026-03-28T13:10:55.998Z</time></trkpt><trkpt lat="44.720759114875904" lon="9.574455243603445"><ele>458.0</ele><time>2026-03-28T13:10:57.998Z</time></trkpt><trkpt lat="44.72086567235284" lon="9.574423912101055"><ele>462.0</ele><time>2026-03-28T13:10:59.998Z</time></trkpt><trkpt lat="44.720984390708274" lon="9.574427363675317"><ele>461.5</ele><time>2026-03-28T13:11:01.998Z</time></trkpt><trkpt lat="44.72110037547941" lon="9.574472300331163"><ele>461.0</ele><time>2026-03-28T13:11:04Z</time></trkpt><trkpt lat="44.72120632068791" lon="9.574564242496038"><ele>460.5</ele><time>2026-03-28T13:11:06Z</time></trkpt><trkpt lat="44.72125621761919" lon="9.574622414148392"><ele>460.0</ele><time>2026-03-28T13:11:07Z</time></trkpt><trkpt lat="44.72130304546088" lon="9.574683583172169"><ele>459.5</ele><time>2026-03-28T13:11:08Z</time></trkpt><trkpt lat="44.72134923235959" lon="9.574747070019496"><ele>459.0</ele><time>2026-03-28T13:11:09Z</time></trkpt><trkpt lat="44.721395569990754" lon="9.574813200809723"><ele>459.0</ele><time>2026-03-28T13:11:10Z</time></trkpt><trkpt lat="44.72144110546594" lon="9.574877844575154"><ele>459.0</ele><time>2026-03-28T13:11:11Z</time></trkpt><trkpt lat="44.721487115093566" lon="9.574944414972162"><ele>459.0</ele><time>2026-03-28T13:11:12Z</time></trkpt><trkpt lat="44.721536815660315" lon="9.57501017288176"><ele>459.0</ele><time>2026-03-28T13:11:13Z</time></trkpt><trkpt lat="44.7215849621762" lon="9.57507426973074"><ele>459.0</ele><time>2026-03-28T13:11:14Z</time></trkpt><trkpt lat="44.7216416296849" lon="9.575129358373383"><ele>459.0</ele><time>2026-03-28T13:11:15Z</time></trkpt><trkpt lat="44.721699179381574" lon="9.575183433839596"><ele>459.0</ele><time>2026-03-28T13:11:16Z</time></trkpt><trkpt lat="44.721763503746075" lon="9.575225304022862"><ele>459.0</ele><time>2026-03-28T13:11:17Z</time></trkpt><trkpt lat="44.721828551181254" lon="9.57525906982121"><ele>459.0</ele><time>2026-03-28T13:11:18Z</time></trkpt><trkpt lat="44.721898226841624" lon="9.575292288108146"><ele>459.0</ele><time>2026-03-28T13:11:19Z</time></trkpt><trkpt lat="44.72196519228832" lon="9.575329972458007"><ele>459.0</ele><time>2026-03-28T13:11:20Z</time></trkpt><trkpt lat="44.72203233409935" lon="9.575367454152856"><ele>459.0</ele><time>2026-03-28T13:11:21Z</time></trkpt><trkpt lat="44.722102114304164" lon="9.575401493683236"><ele>459.0</ele><time>2026-03-28T13:11:22Z</time></trkpt><trkpt lat="44.72216924700401" lon="9.575436034833851"><ele>459.0</ele><time>2026-03-28T13:11:23Z</time></trkpt><trkpt lat="44.72223745454984" lon="9.575470187846626"><ele>458.14285714285717</ele><time>2026-03-28T13:11:24Z</time></trkpt><trkpt lat="44.72230782105814" lon="9.575502607832554"><ele>457.2857142857142</ele><time>2026-03-28T13:11:25Z</time></trkpt><trkpt lat="44.72237825294339" lon="9.575531358354114"><ele>456.4285714285714</ele><time>2026-03-28T13:11:26Z</time></trkpt><trkpt lat="44.72244956224871" lon="9.575558253085651"><ele>455.57142857142856</ele><time>2026-03-28T13:11:27Z</time></trkpt><trkpt lat="44.722518913509916" lon="9.57558132996723"><ele>454.71428571428567</ele><time>2026-03-28T13:11:28Z</time></trkpt><trkpt lat="44.72259257762658" lon="9.575593554544623"><ele>453.8571428571428</ele><time>2026-03-28T13:11:29Z</time></trkpt><trkpt lat="44.72266438889751" lon="9.575605934937425"><ele>452.99999999999994</ele><time>2026-03-28T13:11:30Z</time></trkpt><trkpt lat="44.72273735033188" lon="9.57561984784258"><ele>453.0</ele><time>2026-03-28T13:11:31Z</time></trkpt><trkpt lat="44.72281096384059" lon="9.575635328997533"><ele>453.0</ele><time>2026-03-28T13:11:32Z</time></trkpt><trkpt lat="44.7228849915183" lon="9.57565119917427"><ele>453.0</ele><time>2026-03-28T13:11:33Z</time></trkpt><trkpt lat="44.7229590805264" lon="9.575667771822042"><ele>453.0</ele><time>2026-03-28T13:11:34Z</time></trkpt><trkpt lat="44.72303421787109" lon="9.575684467907607"><ele>453.0</ele><time>2026-03-28T13:11:35Z</time></trkpt><trkpt lat="44.72310969874575" lon="9.575703926542754"><ele>453.0</ele><time>2026-03-28T13:11:36Z</time></trkpt><trkpt lat="44.723184902327006" lon="9.575726211685087"><ele>453.0</ele><time>2026-03-28T13:11:37Z</time></trkpt><trkpt lat="44.72325921975069" lon="9.575755622542818"><ele>453.0</ele><time>2026-03-28T13:11:38Z</time></trkpt><trkpt lat="44.72333271379883" lon="9.575790945189716"><ele>453.0</ele><time>2026-03-28T13:11:39Z</time></trkpt><trkpt lat="44.72340562704596" lon="9.57583272603112"><ele>453.0</ele><time>2026-03-28T13:11:40Z</time></trkpt><trkpt lat="44.7234776989243" lon="9.575872912920167"><ele>453.0</ele><time>2026-03-28T13:11:41Z</time></trkpt><trkpt lat="44.72355149653353" lon="9.575910618080513"><ele>453.0</ele><time>2026-03-28T13:11:42Z</time></trkpt><trkpt lat="44.723624548085326" lon="9.575946087239343"><ele>455.8333333333333</ele><time>2026-03-28T13:11:43Z</time></trkpt><trkpt lat="44.72369818812312" lon="9.575982766383975"><ele>458.66666666666663</ele><time>2026-03-28T13:11:44Z</time></trkpt><trkpt lat="44.72377189791981" lon="9.57602072406769"><ele>461.5</ele><time>2026-03-28T13:11:45Z</time></trkpt><trkpt lat="44.72384730622465" lon="9.57606070553783"><ele>464.3333333333333</ele><time>2026-03-28T13:11:45.999Z</time></trkpt><trkpt lat="44.723920594868964" lon="9.576097403928395"><ele>467.16666666666663</ele><time>2026-03-28T13:11:46.999Z</time></trkpt><trkpt lat="44.723991570909924" lon="9.576137231791131"><ele>470.0</ele><time>2026-03-28T13:11:47.999Z</time></trkpt><trkpt lat="44.72406443909403" lon="9.576176390956618"><ele>464.99999999999994</ele><time>2026-03-28T13:11:48.999Z</time></trkpt><trkpt lat="44.72413606817904" lon="9.576216405462283"><ele>460.0</ele><time>2026-03-28T13:11:49.999Z</time></trkpt><trkpt lat="44.72421075610389" lon="9.57625318838243"><ele>455.0</ele><time>2026-03-28T13:11:50.999Z</time></trkpt><trkpt lat="44.724283223949534" lon="9.576288998058853"><ele>450.0</ele><time>2026-03-28T13:11:51.999Z</time></trkpt><trkpt lat="44.72435877744579" lon="9.576317828388708"><ele>444.99999999999994</ele><time>2026-03-28T13:11:52.999Z</time></trkpt><trkpt lat="44.72443524274001" lon="9.576334245891648"><ele>440.0</ele><time>2026-03-28T13:11:53.999Z</time></trkpt><trkpt lat="44.72451371996649" lon="9.57634516757254"><ele>439.99999999999994</ele><time>2026-03-28T13:11:54.999Z</time></trkpt><trkpt lat="44.72459116844443" lon="9.576354949527524"><ele>440.0</ele><time>2026-03-28T13:11:55.999Z</time></trkpt><trkpt lat="44.72466815812604" lon="9.576363390980019"><ele>440.0</ele><time>2026-03-28T13:11:56.999Z</time></trkpt><trkpt lat="44.724747142880474" lon="9.576368998456857"><ele>440.0</ele><time>2026-03-28T13:11:57.999Z</time></trkpt><trkpt lat="44.72482319027079" lon="9.576374162812023"><ele>439.99999999999994</ele><time>2026-03-28T13:11:58.999Z</time></trkpt><trkpt lat="44.724902645449205" lon="9.576379030627502"><ele>440.0</ele><time>2026-03-28T13:11:59.999Z</time></trkpt><trkpt lat="44.72498206625216" lon="9.576385607060557"><ele>439.99999999999994</ele><time>2026-03-28T13:12:00.999Z</time></trkpt><trkpt lat="44.7250625357162" lon="9.576393709514765"><ele>440.0</ele><time>2026-03-28T13:12:01.999Z</time></trkpt><trkpt lat="44.72514127647397" lon="9.57639901844473"><ele>440.0</ele><time>2026-03-28T13:12:02.999Z</time></trkpt><trkpt lat="44.72522245128915" lon="9.576407298960053"><ele>440.0</ele><time>2026-03-28T13:12:03.999Z</time></trkpt><trkpt lat="44.72530306079901" lon="9.576423145788478"><ele>439.99999999999994</ele><time>2026-03-28T13:12:04.999Z</time></trkpt><trkpt lat="44.72537946808353" lon="9.576445890626648"><ele>440.0</ele><time>2026-03-28T13:12:05.999Z</time></trkpt><trkpt lat="44.72545760237719" lon="9.576483351324331"><ele>442.3333333333333</ele><time>2026-03-28T13:12:06.999Z</time></trkpt><trkpt lat="44.72553269925001" lon="9.576532596506345"><ele>444.66666666666663</ele><time>2026-03-28T13:12:07.999Z</time></trkpt><trkpt lat="44.72560643207112" lon="9.576588751080617"><ele>447.0</ele><time>2026-03-28T13:12:08.999Z</time></trkpt><trkpt lat="44.72567372914342" lon="9.576657061174556"><ele>449.33333333333337</ele><time>2026-03-28T13:12:09.999Z</time></trkpt><trkpt lat="44.7257427330992" lon="9.576723309845407"><ele>451.6666666666667</ele><time>2026-03-28T13:12:10.999Z</time></trkpt><trkpt lat="44.72580989131747" lon="9.57679193031458"><ele>454.0</ele><time>2026-03-28T13:12:11.999Z</time></trkpt><trkpt lat="44.72587880390105" lon="9.576853543506573"><ele>454.00000000000006</ele><time>2026-03-28T13:12:12.999Z</time></trkpt><trkpt lat="44.72594669888193" lon="9.576912982088059"><ele>454.0</ele><time>2026-03-28T13:12:13.999Z</time></trkpt><trkpt lat="44.726017582548415" lon="9.576971929471604"><ele>454.0</ele><time>2026-03-28T13:12:14.999Z</time></trkpt><trkpt lat="44.72608898509017" lon="9.577031486334104"><ele>454.0</ele><time>2026-03-28T13:12:15.999Z</time></trkpt><trkpt lat="44.72615808648627" lon="9.577105004691218"><ele>454.00000000000006</ele><time>2026-03-28T13:12:16.999Z</time></trkpt><trkpt lat="44.72623078052005" lon="9.57716356017313"><ele>454.0</ele><time>2026-03-28T13:12:17.999Z</time></trkpt><trkpt lat="44.726304586925195" lon="9.577219786430582"><ele>452.33333333333337</ele><time>2026-03-28T13:12:18.999Z</time></trkpt><trkpt lat="44.72638333629724" lon="9.577253174431894"><ele>450.6666666666667</ele><time>2026-03-28T13:12:19.999Z</time></trkpt><trkpt lat="44.72646880644213" lon="9.57725898372409"><ele>449.0</ele><time>2026-03-28T13:12:20.999Z</time></trkpt><trkpt lat="44.726551591204014" lon="9.5772412316582"><ele>447.33333333333337</ele><time>2026-03-28T13:12:21.999Z</time></trkpt><trkpt lat="44.72662967280795" lon="9.577200149087421"><ele>445.6666666666667</ele><time>2026-03-28T13:12:22.999Z</time></trkpt><trkpt lat="44.726692427371226" lon="9.577124285100604"><ele>444.0</ele><time>2026-03-28T13:12:23.999Z</time></trkpt><trkpt lat="44.726744141651366" lon="9.5770335000931"><ele>446.6666666666667</ele><time>2026-03-28T13:12:24.999Z</time></trkpt><trkpt lat="44.72679364472698" lon="9.576943713002661"><ele>449.33333333333337</ele><time>2026-03-28T13:12:25.999Z</time></trkpt><trkpt lat="44.726843339689346" lon="9.576852947255494"><ele>452.0</ele><time>2026-03-28T13:12:26.999Z</time></trkpt><trkpt lat="44.726890157546784" lon="9.576763229693828"><ele>454.6666666666667</ele><time>2026-03-28T13:12:27.999Z</time></trkpt><trkpt lat="44.72693415370612" lon="9.576670126121593"><ele>457.33333333333337</ele><time>2026-03-28T13:12:28.999Z</time></trkpt><trkpt lat="44.72698128129363" lon="9.576589986945411"><ele>460.0</ele><time>2026-03-28T13:12:29.999Z</time></trkpt><trkpt lat="44.7270428064371" lon="9.57654329986244"><ele>465.00000000000006</ele><time>2026-03-28T13:12:30.999Z</time></trkpt><trkpt lat="44.727113078751124" lon="9.576532448266198"><ele>470.0</ele><time>2026-03-28T13:12:31.999Z</time></trkpt><trkpt lat="44.727182406075684" lon="9.576573118006603"><ele>475.0</ele><time>2026-03-28T13:12:32.999Z</time></trkpt><trkpt lat="44.72724734763185" lon="9.576639169135879"><ele>480.0</ele><time>2026-03-28T13:12:33.999Z</time></trkpt><trkpt lat="44.727300610604864" lon="9.576716733124051"><ele>485.00000000000006</ele><time>2026-03-28T13:12:34.999Z</time></trkpt><trkpt lat="44.72732931362628" lon="9.5768184424308"><ele>490.0</ele><time>2026-03-28T13:12:35.999Z</time></trkpt><trkpt lat="44.72730384142129" lon="9.576941854858598"><ele>489.6666666666667</ele><time>2026-03-28T13:12:36.999Z</time></trkpt><trkpt lat="44.72723554168199" lon="9.577046340013123"><ele>489.33333333333337</ele><time>2026-03-28T13:12:37.999Z</time></trkpt><trkpt lat="44.72722248888108" lon="9.577157793667933"><ele>489.0</ele><time>2026-03-28T13:12:38.998Z</time></trkpt><trkpt lat="44.72720390826119" lon="9.577267376446622"><ele>488.66666666666663</ele><time>2026-03-28T13:12:39.998Z</time></trkpt><trkpt lat="44.727180345751876" lon="9.5773800120463"><ele>488.3333333333333</ele><time>2026-03-28T13:12:40.998Z</time></trkpt><trkpt lat="44.7271563221049" lon="9.577492947089082"><ele>488.0</ele><time>2026-03-28T13:12:41.998Z</time></trkpt><trkpt lat="44.72713419130712" lon="9.577605914357278"><ele>487.99999999999994</ele><time>2026-03-28T13:12:42.998Z</time></trkpt><trkpt lat="44.72711578400276" lon="9.577720912200844"><ele>488.0</ele><time>2026-03-28T13:12:43.998Z</time></trkpt><trkpt lat="44.72710041647821" lon="9.57783120622831"><ele>488.0</ele><time>2026-03-28T13:12:44.998Z</time></trkpt><trkpt lat="44.72708100599654" lon="9.577945259026526"><ele>488.0</ele><time>2026-03-28T13:12:45.998Z</time></trkpt><trkpt lat="44.72707728396476" lon="9.578073299146865"><ele>487.99999999999994</ele><time>2026-03-28T13:12:46.998Z</time></trkpt><trkpt lat="44.7271248087297" lon="9.578193939913412"><ele>488.0</ele><time>2026-03-28T13:12:47.998Z</time></trkpt><trkpt lat="44.72716422709346" lon="9.578308398616647"><ele>484.8333333333333</ele><time>2026-03-28T13:12:48.998Z</time></trkpt><trkpt lat="44.7271872561713" lon="9.578426263582477"><ele>481.66666666666663</ele><time>2026-03-28T13:12:49.998Z</time></trkpt><trkpt lat="44.72721718353652" lon="9.578532198525933"><ele>478.5</ele><time>2026-03-28T13:12:50.998Z</time></trkpt><trkpt lat="44.727245214929184" lon="9.57863939533871"><ele>475.33333333333337</ele><time>2026-03-28T13:12:51.998Z</time></trkpt><trkpt lat="44.72727083947677" lon="9.57874323764306"><ele>472.1666666666667</ele><time>2026-03-28T13:12:52.998Z</time></trkpt><trkpt lat="44.727294281706065" lon="9.57885045706676"><ele>469.0</ele><time>2026-03-28T13:12:53.998Z</time></trkpt><trkpt lat="44.72732337880312" lon="9.578959748398107"><ele>465.1666666666667</ele><time>2026-03-28T13:12:54.998Z</time></trkpt><trkpt lat="44.72737973132285" lon="9.579054350688283"><ele>461.33333333333337</ele><time>2026-03-28T13:12:55.998Z</time></trkpt><trkpt lat="44.72742113988393" lon="9.579154967833425"><ele>457.5</ele><time>2026-03-28T13:12:56.998Z</time></trkpt><trkpt lat="44.72746925798024" lon="9.579250065961128"><ele>453.66666666666663</ele><time>2026-03-28T13:12:57.998Z</time></trkpt><trkpt lat="44.72751952530096" lon="9.579338698415716"><ele>449.8333333333333</ele><time>2026-03-28T13:12:58.998Z</time></trkpt><trkpt lat="44.72756868801958" lon="9.57942911583504"><ele>446.0</ele><time>2026-03-28T13:12:59.998Z</time></trkpt><trkpt lat="44.72761445906242" lon="9.579527941265047"><ele>443.3333333333333</ele><time>2026-03-28T13:13:00.998Z</time></trkpt><trkpt lat="44.72765467068265" lon="9.579630179992305"><ele>440.66666666666663</ele><time>2026-03-28T13:13:01.998Z</time></trkpt><trkpt lat="44.72768690275999" lon="9.579740517808855"><ele>438.0</ele><time>2026-03-28T13:13:02.998Z</time></trkpt><trkpt lat="44.72771512223388" lon="9.579852678749399"><ele>435.33333333333337</ele><time>2026-03-28T13:13:03.998Z</time></trkpt><trkpt lat="44.727745543711066" lon="9.579961910157687"><ele>432.6666666666667</ele><time>2026-03-28T13:13:04.998Z</time></trkpt><trkpt lat="44.72776808325644" lon="9.580082794865191"><ele>430.0</ele><time>2026-03-28T13:13:05.998Z</time></trkpt><trkpt lat="44.72778180835937" lon="9.580204900347013"><ele>436.1666666666667</ele><time>2026-03-28T13:13:06.998Z</time></trkpt><trkpt lat="44.727797316389264" lon="9.580325890058864"><ele>442.33333333333337</ele><time>2026-03-28T13:13:07.998Z</time></trkpt><trkpt lat="44.72781361089434" lon="9.580452804288223"><ele>448.5</ele><time>2026-03-28T13:13:09Z</time></trkpt><trkpt lat="44.727831535159844" lon="9.580574208868251"><ele>454.66666666666663</ele><time>2026-03-28T13:13:10Z</time></trkpt><trkpt lat="44.72782250301683" lon="9.580705809342643"><ele>460.8333333333333</ele><time>2026-03-28T13:13:11Z</time></trkpt><trkpt lat="44.72784298265705" lon="9.58082390209549"><ele>467.0</ele><time>2026-03-28T13:13:12Z</time></trkpt><trkpt lat="44.727863563839705" lon="9.580940857796529"><ele>466.99999999999994</ele><time>2026-03-28T13:13:13Z</time></trkpt><trkpt lat="44.72788448629682" lon="9.581054846078835"><ele>467.0</ele><time>2026-03-28T13:13:14Z</time></trkpt><trkpt lat="44.72790490861777" lon="9.581166109176083"><ele>467.0</ele><time>2026-03-28T13:13:15Z</time></trkpt><trkpt lat="44.72792557421782" lon="9.581278698370797"><ele>467.0</ele><time>2026-03-28T13:13:16Z</time></trkpt><trkpt lat="44.72794609657956" lon="9.581390506510918"><ele>466.99999999999994</ele><time>2026-03-28T13:13:17Z</time></trkpt><trkpt lat="44.727965518015715" lon="9.581503865623494"><ele>467.0</ele><time>2026-03-28T13:13:18Z</time></trkpt><trkpt lat="44.72798263706543" lon="9.581614008139889"><ele>464.8333333333333</ele><time>2026-03-28T13:13:19Z</time></trkpt><trkpt lat="44.72799987233586" lon="9.581724899100761"><ele>462.66666666666663</ele><time>2026-03-28T13:13:20Z</time></trkpt><trkpt lat="44.72801966190295" lon="9.581835895016235"><ele>460.5</ele><time>2026-03-28T13:13:21Z</time></trkpt><trkpt lat="44.72804412980012" lon="9.581944731365088"><ele>458.33333333333337</ele><time>2026-03-28T13:13:22Z</time></trkpt><trkpt lat="44.72807494247809" lon="9.582050898615977"><ele>456.1666666666667</ele><time>2026-03-28T13:13:23Z</time></trkpt><trkpt lat="44.72812585137169" lon="9.58214097743668"><ele>454.0</ele><time>2026-03-28T13:13:24Z</time></trkpt><trkpt lat="44.72817199853561" lon="9.582236576836488"><ele>455.33333333333337</ele><time>2026-03-28T13:13:25Z</time></trkpt><trkpt lat="44.72823610494082" lon="9.582313062225504"><ele>456.6666666666667</ele><time>2026-03-28T13:13:26Z</time></trkpt><trkpt lat="44.72831153988184" lon="9.582369423437704"><ele>458.0</ele><time>2026-03-28T13:13:27Z</time></trkpt><trkpt lat="44.728392005356746" lon="9.58240624643118"><ele>459.33333333333337</ele><time>2026-03-28T13:13:28Z</time></trkpt><trkpt lat="44.728474930823104" lon="9.582434056317428"><ele>460.6666666666667</ele><time>2026-03-28T13:13:29Z</time></trkpt><trkpt lat="44.72855534617573" lon="9.582461061052365"><ele>462.0</ele><time>2026-03-28T13:13:30Z</time></trkpt><trkpt lat="44.72862758002928" lon="9.582512753085746"><ele>462.0</ele><time>2026-03-28T13:13:31Z</time></trkpt><trkpt lat="44.728692875594085" lon="9.582588243760993"><ele>462.0</ele><time>2026-03-28T13:13:32Z</time></trkpt><trkpt lat="44.72872827261423" lon="9.582692329978306"><ele>462.0</ele><time>2026-03-28T13:13:33Z</time></trkpt><trkpt lat="44.72878730065393" lon="9.582772707390154"><ele>462.0</ele><time>2026-03-28T13:13:34Z</time></trkpt><trkpt lat="44.72882479524424" lon="9.582877627172891"><ele>462.0</ele><time>2026-03-28T13:13:35Z</time></trkpt><trkpt lat="44.728868238092524" lon="9.582974851240543"><ele>462.0</ele><time>2026-03-28T13:13:36Z</time></trkpt><trkpt lat="44.72892692318761" lon="9.583058014042395"><ele>458.0</ele><time>2026-03-28T13:13:37Z</time></trkpt><trkpt lat="44.72898998123438" lon="9.583131888545802"><ele>454.0</ele><time>2026-03-28T13:13:38Z</time></trkpt><trkpt lat="44.72905915435964" lon="9.5832073851629"><ele>450.0</ele><time>2026-03-28T13:13:39Z</time></trkpt><trkpt lat="44.72912900818545" lon="9.583274368884016"><ele>446.0</ele><time>2026-03-28T13:13:40Z</time></trkpt><trkpt lat="44.72919832460124" lon="9.583340499170333"><ele>442.0</ele><time>2026-03-28T13:13:41Z</time></trkpt><trkpt lat="44.72926758510496" lon="9.583404697000422"><ele>438.0</ele><time>2026-03-28T13:13:42Z</time></trkpt><trkpt lat="44.729336884141425" lon="9.583469038789604"><ele>438.0</ele><time>2026-03-28T13:13:43Z</time></trkpt><trkpt lat="44.72940802846677" lon="9.583531704524873"><ele>438.0</ele><time>2026-03-28T13:13:44Z</time></trkpt><trkpt lat="44.729480466113884" lon="9.58359766197134"><ele>438.0</ele><time>2026-03-28T13:13:45Z</time></trkpt><trkpt lat="44.72955792757561" lon="9.583663127547245"><ele>438.0</ele><time>2026-03-28T13:13:46Z</time></trkpt><trkpt lat="44.729637243117686" lon="9.5837266655195"><ele>438.0</ele><time>2026-03-28T13:13:47Z</time></trkpt><trkpt lat="44.72971369171946" lon="9.583789349425437"><ele>438.0</ele><time>2026-03-28T13:13:48Z</time></trkpt><trkpt lat="44.72979093397594" lon="9.583851399694222"><ele>438.0</ele><time>2026-03-28T13:13:49Z</time></trkpt><trkpt lat="44.72986555516572" lon="9.58391143132172"><ele>438.0</ele><time>2026-03-28T13:13:49.999Z</time></trkpt><trkpt lat="44.7299385409175" lon="9.583969821180101"><ele>438.0</ele><time>2026-03-28T13:13:50.999Z</time></trkpt><trkpt lat="44.730008918274976" lon="9.584031385109606"><ele>438.0</ele><time>2026-03-28T13:13:51.999Z</time></trkpt><trkpt lat="44.73007748307317" lon="9.58409297814895"><ele>438.0</ele><time>2026-03-28T13:13:52.999Z</time></trkpt><trkpt lat="44.7301497863734" lon="9.584153670255965"><ele>438.0</ele><time>2026-03-28T13:13:53.999Z</time></trkpt><trkpt lat="44.73021722466733" lon="9.58422392577332"><ele>439.8333333333333</ele><time>2026-03-28T13:13:54.999Z</time></trkpt><trkpt lat="44.7302773527632" lon="9.58430721540204"><ele>441.66666666666663</ele><time>2026-03-28T13:13:55.999Z</time></trkpt><trkpt lat="44.73030466710827" lon="9.584417838369117"><ele>443.5</ele><time>2026-03-28T13:13:56.999Z</time></trkpt><trkpt lat="44.730335381727876" lon="9.584521795725893"><ele>445.3333333333333</ele><time>2026-03-28T13:13:57.999Z</time></trkpt><trkpt lat="44.73036486670862" lon="9.584625995081831"><ele>447.16666666666663</ele><time>2026-03-28T13:13:58.999Z</time></trkpt><trkpt lat="44.73039291539425" lon="9.584728891345135"><ele>449.0</ele><time>2026-03-28T13:13:59.999Z</time></trkpt><trkpt lat="44.73041939713819" lon="9.58483088544317"><ele>448.99999999999994</ele><time>2026-03-28T13:14:00.999Z</time></trkpt><trkpt lat="44.730464020401335" lon="9.584926647512406"><ele>449.0</ele><time>2026-03-28T13:14:01.999Z</time></trkpt><trkpt lat="44.73049414042561" lon="9.585027559448752"><ele>449.0</ele><time>2026-03-28T13:14:02.999Z</time></trkpt><trkpt lat="44.73053172207102" lon="9.585126878260164"><ele>449.0</ele><time>2026-03-28T13:14:03.999Z</time></trkpt><trkpt lat="44.73057543939044" lon="9.585223547152003"><ele>448.99999999999994</ele><time>2026-03-28T13:14:04.999Z</time></trkpt><trkpt lat="44.730619271329395" lon="9.585317989370727"><ele>449.0</ele><time>2026-03-28T13:14:05.999Z</time></trkpt><trkpt lat="44.73066060301473" lon="9.585412579182659"><ele>446.3333333333333</ele><time>2026-03-28T13:14:06.999Z</time></trkpt><trkpt lat="44.73070639575105" lon="9.58550141242663"><ele>443.66666666666663</ele><time>2026-03-28T13:14:07.999Z</time></trkpt><trkpt lat="44.73075278442501" lon="9.585589445226697"><ele>441.0</ele><time>2026-03-28T13:14:08.999Z</time></trkpt><trkpt lat="44.730798141047" lon="9.585678292796175"><ele>438.33333333333337</ele><time>2026-03-28T13:14:09.999Z</time></trkpt><trkpt lat="44.730843854074706" lon="9.58576725359112"><ele>435.6666666666667</ele><time>2026-03-28T13:14:10.999Z</time></trkpt><trkpt lat="44.73089890559454" lon="9.58584985537736"><ele>433.0</ele><time>2026-03-28T13:14:11.999Z</time></trkpt><trkpt lat="44.730964834894074" lon="9.585910357514035"><ele>433.00000000000006</ele><time>2026-03-28T13:14:12.999Z</time></trkpt><trkpt lat="44.731041455332665" lon="9.585949943730197"><ele>433.0</ele><time>2026-03-28T13:14:13.999Z</time></trkpt><trkpt lat="44.73112023211133" lon="9.58597571365799"><ele>433.0</ele><time>2026-03-28T13:14:14.999Z</time></trkpt><trkpt lat="44.731201765129605" lon="9.585994638778745"><ele>433.0</ele><time>2026-03-28T13:14:15.999Z</time></trkpt><trkpt lat="44.731282018231305" lon="9.586010088143977"><ele>433.00000000000006</ele><time>2026-03-28T13:14:16.999Z</time></trkpt><trkpt lat="44.73136164492381" lon="9.586024797536382"><ele>433.0</ele><time>2026-03-28T13:14:17.999Z</time></trkpt><trkpt lat="44.73144623309095" lon="9.586044789785843"><ele>433.33333333333337</ele><time>2026-03-28T13:14:18.999Z</time></trkpt><trkpt lat="44.73152914720843" lon="9.586067264841235"><ele>433.6666666666667</ele><time>2026-03-28T13:14:19.999Z</time></trkpt><trkpt lat="44.73161170254296" lon="9.586087423726953"><ele>434.0</ele><time>2026-03-28T13:14:20.999Z</time></trkpt><trkpt lat="44.731690144677444" lon="9.586111198759392"><ele>434.33333333333337</ele><time>2026-03-28T13:14:21.999Z</time></trkpt><trkpt lat="44.73176671236763" lon="9.586142483308143"><ele>434.6666666666667</ele><time>2026-03-28T13:14:22.999Z</time></trkpt><trkpt lat="44.73184318746874" lon="9.586177556545682"><ele>435.0</ele><time>2026-03-28T13:14:23.999Z</time></trkpt><trkpt lat="44.73192164103978" lon="9.586216523294963"><ele>435.0</ele><time>2026-03-28T13:14:24.999Z</time></trkpt><trkpt lat="44.73199804724529" lon="9.586256669987751"><ele>435.0</ele><time>2026-03-28T13:14:25.999Z</time></trkpt><trkpt lat="44.73207351118232" lon="9.5863073140745"><ele>435.0</ele><time>2026-03-28T13:14:26.999Z</time></trkpt><trkpt lat="44.73214683038305" lon="9.586365305048822"><ele>435.0</ele><time>2026-03-28T13:14:27.999Z</time></trkpt><trkpt lat="44.732215306470145" lon="9.586419932274664"><ele>435.0</ele><time>2026-03-28T13:14:28.999Z</time></trkpt><trkpt lat="44.73228771619799" lon="9.586485995515885"><ele>435.0</ele><time>2026-03-28T13:14:29.999Z</time></trkpt><trkpt lat="44.73235340814476" lon="9.586555448946859"><ele>435.0</ele><time>2026-03-28T13:14:30.999Z</time></trkpt><trkpt lat="44.73241790028196" lon="9.58662818898118"><ele>435.0</ele><time>2026-03-28T13:14:31.999Z</time></trkpt><trkpt lat="44.73248535987783" lon="9.586696232449263"><ele>435.0</ele><time>2026-03-28T13:14:32.999Z</time></trkpt><trkpt lat="44.73255108414418" lon="9.586770638710584"><ele>435.0</ele><time>2026-03-28T13:14:33.999Z</time></trkpt><trkpt lat="44.732616603554355" lon="9.586840675313173"><ele>435.0</ele><time>2026-03-28T13:14:34.999Z</time></trkpt><trkpt lat="44.732680025671236" lon="9.586909847627833"><ele>435.0</ele><time>2026-03-28T13:14:35.999Z</time></trkpt><trkpt lat="44.73274368454705" lon="9.586976861489614"><ele>433.6666666666667</ele><time>2026-03-28T13:14:36.999Z</time></trkpt><trkpt lat="44.73280856110121" lon="9.587041233128149"><ele>432.33333333333337</ele><time>2026-03-28T13:14:37.999Z</time></trkpt><trkpt lat="44.73287679814402" lon="9.587098009924395"><ele>431.0</ele><time>2026-03-28T13:14:38.999Z</time></trkpt><trkpt lat="44.73295159360619" lon="9.587141456071508"><ele>429.6666666666667</ele><time>2026-03-28T13:14:39.999Z</time></trkpt><trkpt lat="44.73302846445311" lon="9.587180290563335"><ele>428.33333333333337</ele><time>2026-03-28T13:14:40.999Z</time></trkpt><trkpt lat="44.73310466629782" lon="9.5872177452588"><ele>427.0</ele><time>2026-03-28T13:14:41.998Z</time></trkpt><trkpt lat="44.733183711599615" lon="9.587255092301195"><ele>427.00000000000006</ele><time>2026-03-28T13:14:42.998Z</time></trkpt><trkpt lat="44.73326081025386" lon="9.587288193973832"><ele>427.0</ele><time>2026-03-28T13:14:43.998Z</time></trkpt><trkpt lat="44.733338057916505" lon="9.587327312024225"><ele>427.0</ele><time>2026-03-28T13:14:44.998Z</time></trkpt><trkpt lat="44.73341410702135" lon="9.5873584140113"><ele>427.0</ele><time>2026-03-28T13:14:45.998Z</time></trkpt><trkpt lat="44.733494515832575" lon="9.587380929779888"><ele>427.00000000000006</ele><time>2026-03-28T13:14:46.998Z</time></trkpt><trkpt lat="44.733572915356625" lon="9.587390038529753"><ele>427.0</ele><time>2026-03-28T13:14:47.998Z</time></trkpt><trkpt lat="44.73365199710361" lon="9.587376768912033"><ele>426.83333333333337</ele><time>2026-03-28T13:14:48.998Z</time></trkpt><trkpt lat="44.733730723427776" lon="9.587351827590721"><ele>426.6666666666667</ele><time>2026-03-28T13:14:49.998Z</time></trkpt><trkpt lat="44.7338059697063" lon="9.587320450811896"><ele>426.5</ele><time>2026-03-28T13:14:50.998Z</time></trkpt><trkpt lat="44.73388367757419" lon="9.58728347383809"><ele>426.33333333333337</ele><time>2026-03-28T13:14:51.998Z</time></trkpt><trkpt lat="44.73395912068886" lon="9.587246017011697"><ele>426.1666666666667</ele><time>2026-03-28T13:14:52.998Z</time></trkpt><trkpt lat="44.73403737392594" lon="9.58721088089345"><ele>426.0</ele><time>2026-03-28T13:14:53.998Z</time></trkpt><trkpt lat="44.73411803896025" lon="9.587185617720165"><ele>426.0</ele><time>2026-03-28T13:14:54.998Z</time></trkpt><trkpt lat="44.734201807706974" lon="9.587174178739433"><ele>426.0</ele><time>2026-03-28T13:14:55.998Z</time></trkpt><trkpt lat="44.734286161774484" lon="9.58718481050592"><ele>426.0</ele><time>2026-03-28T13:14:56.998Z</time></trkpt><trkpt lat="44.73436790150817" lon="9.587208939043881"><ele>426.0</ele><time>2026-03-28T13:14:57.998Z</time></trkpt><trkpt lat="44.734445368527005" lon="9.587244364529612"><ele>426.0</ele><time>2026-03-28T13:14:58.998Z</time></trkpt><trkpt lat="44.73452374939851" lon="9.587279138849308"><ele>426.0</ele><time>2026-03-28T13:14:59.998Z</time></trkpt><trkpt lat="44.73460009566802" lon="9.587317745994753"><ele>426.8333333333333</ele><time>2026-03-28T13:15:00.998Z</time></trkpt><trkpt lat="44.73467421571489" lon="9.587351090206313"><ele>427.66666666666663</ele><time>2026-03-28T13:15:01.998Z</time></trkpt><trkpt lat="44.73474935448204" lon="9.587383350282801"><ele>428.5</ele><time>2026-03-28T13:15:02.998Z</time></trkpt><trkpt lat="44.734822827105646" lon="9.587419424123507"><ele>429.3333333333333</ele><time>2026-03-28T13:15:03.998Z</time></trkpt><trkpt lat="44.734897263596764" lon="9.587454714977762"><ele>430.16666666666663</ele><time>2026-03-28T13:15:04.998Z</time></trkpt><trkpt lat="44.73497716428196" lon="9.587486148222176"><ele>431.0</ele><time>2026-03-28T13:15:05.998Z</time></trkpt><trkpt lat="44.73505691558423" lon="9.58751007851557"><ele>430.99999999999994</ele><time>2026-03-28T13:15:06.998Z</time></trkpt><trkpt lat="44.73513944247176" lon="9.587533304406133"><ele>431.0</ele><time>2026-03-28T13:15:07.998Z</time></trkpt><trkpt lat="44.7352266695581" lon="9.587545736122342"><ele>431.0</ele><time>2026-03-28T13:15:08.998Z</time></trkpt><trkpt lat="44.73531188471916" lon="9.587550395785941"><ele>431.0</ele><time>2026-03-28T13:15:09.998Z</time></trkpt><trkpt lat="44.73539539920277" lon="9.587554290270745"><ele>430.99999999999994</ele><time>2026-03-28T13:15:10.998Z</time></trkpt><trkpt lat="44.73547509415461" lon="9.587554033137668"><ele>431.0</ele><time>2026-03-28T13:15:11.998Z</time></trkpt><trkpt lat="44.73555692867138" lon="9.587554136416765"><ele>432.16666666666663</ele><time>2026-03-28T13:15:12.998Z</time></trkpt><trkpt lat="44.73563780632312" lon="9.587560575330558"><ele>433.3333333333333</ele><time>2026-03-28T13:15:13.998Z</time></trkpt><trkpt lat="44.73571917716597" lon="9.587565615858919"><ele>434.5</ele><time>2026-03-28T13:15:15Z</time></trkpt><trkpt lat="44.73579951610679" lon="9.587563847367479"><ele>435.66666666666663</ele><time>2026-03-28T13:15:16Z</time></trkpt><trkpt lat="44.73587939033934" lon="9.587561596008765"><ele>436.8333333333333</ele><time>2026-03-28T13:15:17Z</time></trkpt><trkpt lat="44.73595767773725" lon="9.587561024189165"><ele>438.0</ele><time>2026-03-28T13:15:18Z</time></trkpt><trkpt lat="44.736038157138914" lon="9.587556009021373"><ele>437.1666666666667</ele><time>2026-03-28T13:15:19Z</time></trkpt><trkpt lat="44.73611687530741" lon="9.587557331276093"><ele>436.33333333333337</ele><time>2026-03-28T13:15:20Z</time></trkpt><trkpt lat="44.73619663187209" lon="9.58755197498659"><ele>435.5</ele><time>2026-03-28T13:15:21Z</time></trkpt><trkpt lat="44.73627361101509" lon="9.587533941164205"><ele>434.6666666666667</ele><time>2026-03-28T13:15:22Z</time></trkpt><trkpt lat="44.73635099167327" lon="9.587497605406085"><ele>433.83333333333337</ele><time>2026-03-28T13:15:23Z</time></trkpt><trkpt lat="44.73642244446918" lon="9.58745089428505"><ele>433.0</ele><time>2026-03-28T13:15:24Z</time></trkpt><trkpt lat="44.73648922321038" lon="9.58740007381219"><ele>433.00000000000006</ele><time>2026-03-28T13:15:25Z</time></trkpt><trkpt lat="44.73656444678864" lon="9.587377304322551"><ele>433.0</ele><time>2026-03-28T13:15:26Z</time></trkpt><trkpt lat="44.73664488968499" lon="9.587397862420675"><ele>433.0</ele><time>2026-03-28T13:15:27Z</time></trkpt><trkpt lat="44.73671618950519" lon="9.587458253698378"><ele>433.0</ele><time>2026-03-28T13:15:28Z</time></trkpt><trkpt lat="44.73678398212231" lon="9.587519990165317"><ele>433.00000000000006</ele><time>2026-03-28T13:15:29Z</time></trkpt><trkpt lat="44.736843179467705" lon="9.587592954269022"><ele>433.0</ele><time>2026-03-28T13:15:30Z</time></trkpt><trkpt lat="44.73688814394102" lon="9.58768947162991"><ele>431.1666666666667</ele><time>2026-03-28T13:15:31Z</time></trkpt><trkpt lat="44.73692694414434" lon="9.587800848081606"><ele>429.33333333333337</ele><time>2026-03-28T13:15:32Z</time></trkpt><trkpt lat="44.736977059882804" lon="9.587891391207048"><ele>427.5</ele><time>2026-03-28T13:15:33Z</time></trkpt><trkpt lat="44.73703611795628" lon="9.587971953573092"><ele>425.66666666666663</ele><time>2026-03-28T13:15:34Z</time></trkpt><trkpt lat="44.73710462199292" lon="9.588040160826424"><ele>423.8333333333333</ele><time>2026-03-28T13:15:35Z</time></trkpt><trkpt lat="44.73718100876601" lon="9.588094895170604"><ele>422.0</ele><time>2026-03-28T13:15:36Z</time></trkpt><trkpt lat="44.73726064667924" lon="9.588125176835401"><ele>421.99999999999994</ele><time>2026-03-28T13:15:37Z</time></trkpt><trkpt lat="44.737342109290566" lon="9.588145376970408"><ele>422.0</ele><time>2026-03-28T13:15:38Z</time></trkpt><trkpt lat="44.737426341522706" lon="9.588160483456281"><ele>422.0</ele><time>2026-03-28T13:15:39Z</time></trkpt><trkpt lat="44.73751278608107" lon="9.588168340932418"><ele>422.0</ele><time>2026-03-28T13:15:40Z</time></trkpt><trkpt lat="44.737598439126074" lon="9.588174664902512"><ele>421.99999999999994</ele><time>2026-03-28T13:15:41Z</time></trkpt><trkpt lat="44.73768654565289" lon="9.588179400996468"><ele>422.0</ele><time>2026-03-28T13:15:42Z</time></trkpt><trkpt lat="44.73777378113754" lon="9.58818648856365"><ele>423.3333333333333</ele><time>2026-03-28T13:15:43Z</time></trkpt><trkpt lat="44.73785695879537" lon="9.588192727132716"><ele>424.66666666666663</ele><time>2026-03-28T13:15:44Z</time></trkpt><trkpt lat="44.73793706488577" lon="9.588196986265846"><ele>426.0</ele><time>2026-03-28T13:15:45Z</time></trkpt><trkpt lat="44.73801425254819" lon="9.588203547815374"><ele>427.33333333333337</ele><time>2026-03-28T13:15:46Z</time></trkpt><trkpt lat="44.73808888426275" lon="9.58820863558871"><ele>428.6666666666667</ele><time>2026-03-28T13:15:47Z</time></trkpt><trkpt lat="44.73816469836601" lon="9.588224733352122"><ele>430.0</ele><time>2026-03-28T13:15:48Z</time></trkpt><trkpt lat="44.738242402256354" lon="9.588256422026104"><ele>430.00000000000006</ele><time>2026-03-28T13:15:49Z</time></trkpt><trkpt lat="44.73831527159073" lon="9.588311893876686"><ele>430.0</ele><time>2026-03-28T13:15:50Z</time></trkpt><trkpt lat="44.73838589510207" lon="9.588376880769816"><ele>430.0</ele><time>2026-03-28T13:15:51Z</time></trkpt><trkpt lat="44.73846258428892" lon="9.58843515786768"><ele>430.0</ele><time>2026-03-28T13:15:51.999Z</time></trkpt><trkpt lat="44.738534834436166" lon="9.588501102213094"><ele>430.00000000000006</ele><time>2026-03-28T13:15:52.999Z</time></trkpt><trkpt lat="44.73861073590715" lon="9.588563075897172"><ele>430.0</ele><time>2026-03-28T13:15:53.999Z</time></trkpt><trkpt lat="44.7386908285369" lon="9.588615290806631"><ele>430.50000000000006</ele><time>2026-03-28T13:15:54.999Z</time></trkpt><trkpt lat="44.73877305608518" lon="9.588646218932448"><ele>431.0</ele><time>2026-03-28T13:15:55.999Z</time></trkpt><trkpt lat="44.73885665200047" lon="9.588663003613712"><ele>431.5</ele><time>2026-03-28T13:15:56.999Z</time></trkpt><trkpt lat="44.7389376724914" lon="9.588668509730741"><ele>432.0</ele><time>2026-03-28T13:15:57.999Z</time></trkpt><trkpt lat="44.739017153683456" lon="9.588672132278207"><ele>432.50000000000006</ele><time>2026-03-28T13:15:58.999Z</time></trkpt><trkpt lat="44.73909888423161" lon="9.588666233862714"><ele>433.0</ele><time>2026-03-28T13:15:59.999Z</time></trkpt><trkpt lat="44.73918042096767" lon="9.588645097275041"><ele>433.00000000000006</ele><time>2026-03-28T13:16:00.999Z</time></trkpt><trkpt lat="44.73926166107298" lon="9.588609140354828"><ele>433.0</ele><time>2026-03-28T13:16:01.999Z</time></trkpt><trkpt lat="44.739339310651" lon="9.588559359336289"><ele>433.0</ele><time>2026-03-28T13:16:02.999Z</time></trkpt><trkpt lat="44.73941294403673" lon="9.588500744398493"><ele>433.0</ele><time>2026-03-28T13:16:03.999Z</time></trkpt><trkpt lat="44.739485352403925" lon="9.5884344721113"><ele>433.00000000000006</ele><time>2026-03-28T13:16:04.999Z</time></trkpt><trkpt lat="44.739560280090906" lon="9.588380705671106"><ele>433.0</ele><time>2026-03-28T13:16:05.999Z</time></trkpt><trkpt lat="44.739641912699035" lon="9.5883468634657"><ele>432.83333333333337</ele><time>2026-03-28T13:16:06.999Z</time></trkpt><trkpt lat="44.7397272498796" lon="9.588336221718619"><ele>432.6666666666667</ele><time>2026-03-28T13:16:07.999Z</time></trkpt><trkpt lat="44.73981268209771" lon="9.58835620795626"><ele>432.5</ele><time>2026-03-28T13:16:08.999Z</time></trkpt><trkpt lat="44.73989240842027" lon="9.588406412517182"><ele>432.33333333333337</ele><time>2026-03-28T13:16:09.999Z</time></trkpt><trkpt lat="44.739965223957334" lon="9.588467890539643"><ele>432.1666666666667</ele><time>2026-03-28T13:16:10.999Z</time></trkpt><trkpt lat="44.74003502903096" lon="9.588529266993309"><ele>432.0</ele><time>2026-03-28T13:16:11.999Z</time></trkpt><trkpt lat="44.740104084762514" lon="9.58858770856702"><ele>432.0</ele><time>2026-03-28T13:16:12.999Z</time></trkpt><trkpt lat="44.740175311301854" lon="9.588641055316305"><ele>432.0</ele><time>2026-03-28T13:16:13.999Z</time></trkpt><trkpt lat="44.74024476683393" lon="9.58869771053108"><ele>432.0</ele><time>2026-03-28T13:16:14.999Z</time></trkpt><trkpt lat="44.74031606812035" lon="9.588755520891675"><ele>432.0</ele><time>2026-03-28T13:16:15.999Z</time></trkpt><trkpt lat="44.74038832201777" lon="9.588811581119357"><ele>432.0</ele><time>2026-03-28T13:16:16.999Z</time></trkpt><trkpt lat="44.74046446456169" lon="9.588853752522194"><ele>432.0</ele><time>2026-03-28T13:16:17.999Z</time></trkpt><trkpt lat="44.74054843255819" lon="9.58888273374103"><ele>429.8333333333333</ele><time>2026-03-28T13:16:18.999Z</time></trkpt><trkpt lat="44.74063215635081" lon="9.588886887426433"><ele>427.66666666666663</ele><time>2026-03-28T13:16:19.999Z</time></trkpt><trkpt lat="44.74071770523244" lon="9.588869022315116"><ele>425.5</ele><time>2026-03-28T13:16:20.999Z</time></trkpt><trkpt lat="44.740800756048685" lon="9.588838570882789"><ele>423.3333333333333</ele><time>2026-03-28T13:16:21.999Z</time></trkpt><trkpt lat="44.74087753399817" lon="9.588793044770302"><ele>421.16666666666663</ele><time>2026-03-28T13:16:22.999Z</time></trkpt><trkpt lat="44.74095256980983" lon="9.58875183020668"><ele>419.0</ele><time>2026-03-28T13:16:23.999Z</time></trkpt><trkpt lat="44.74103388610186" lon="9.588749292231864"><ele>420.99999999999994</ele><time>2026-03-28T13:16:24.999Z</time></trkpt><trkpt lat="44.74111247356779" lon="9.588795216418909"><ele>423.0</ele><time>2026-03-28T13:16:25.999Z</time></trkpt><trkpt lat="44.74118303898355" lon="9.588871079928973"><ele>425.0</ele><time>2026-03-28T13:16:26.999Z</time></trkpt><trkpt lat="44.74124778146956" lon="9.588948820966758"><ele>427.0</ele><time>2026-03-28T13:16:27.999Z</time></trkpt><trkpt lat="44.74131649387956" lon="9.589012850823153"><ele>428.99999999999994</ele><time>2026-03-28T13:16:28.999Z</time></trkpt><trkpt lat="44.74137470435748" lon="9.589090939788676"><ele>431.0</ele><time>2026-03-28T13:16:29.999Z</time></trkpt><trkpt lat="44.74139964534873" lon="9.589202991265958"><ele>430.99999999999994</ele><time>2026-03-28T13:16:30.999Z</time></trkpt><trkpt lat="44.741383350620396" lon="9.589331771708046"><ele>431.0</ele><time>2026-03-28T13:16:31.999Z</time></trkpt><trkpt lat="44.74136518725563" lon="9.589445741989458"><ele>431.0</ele><time>2026-03-28T13:16:32.999Z</time></trkpt><trkpt lat="44.74135898808607" lon="9.589558286097727"><ele>431.0</ele><time>2026-03-28T13:16:33.999Z</time></trkpt><trkpt lat="44.74136737736631" lon="9.589665007470037"><ele>430.99999999999994</ele><time>2026-03-28T13:16:34.999Z</time></trkpt><trkpt lat="44.74140093083165" lon="9.589766694278257"><ele>431.0</ele><time>2026-03-28T13:16:35.999Z</time></trkpt><trkpt lat="44.741456693923375" lon="9.589852994186694"><ele>431.49999999999994</ele><time>2026-03-28T13:16:36.999Z</time></trkpt><trkpt lat="44.741527235277616" lon="9.589914904672092"><ele>432.0</ele><time>2026-03-28T13:16:37.999Z</time></trkpt><trkpt lat="44.741607417491366" lon="9.589948907919494"><ele>432.5</ele><time>2026-03-28T13:16:38.999Z</time></trkpt><trkpt lat="44.741690726190285" lon="9.589957533647988"><ele>433.0</ele><time>2026-03-28T13:16:39.999Z</time></trkpt><trkpt lat="44.74177262125414" lon="9.589940157283403"><ele>433.49999999999994</ele><time>2026-03-28T13:16:40.999Z</time></trkpt><trkpt lat="44.7418532542559" lon="9.589911513376695"><ele>434.0</ele><time>2026-03-28T13:16:41.999Z</time></trkpt><trkpt lat="44.74193483554616" lon="9.589885995728936"><ele>433.99999999999994</ele><time>2026-03-28T13:16:42.999Z</time></trkpt><trkpt lat="44.74201733985241" lon="9.589885876718082"><ele>434.0</ele><time>2026-03-28T13:16:43.999Z</time></trkpt><trkpt lat="44.74210197196172" lon="9.589918273172891"><ele>434.0</ele><time>2026-03-28T13:16:44.998Z</time></trkpt><trkpt lat="44.742186121332665" lon="9.589971592014182"><ele>434.0</ele><time>2026-03-28T13:16:45.998Z</time></trkpt><trkpt lat="44.7422648621961" lon="9.59002768141962"><ele>433.99999999999994</ele><time>2026-03-28T13:16:46.998Z</time></trkpt><trkpt lat="44.742334137234515" lon="9.59009857407547"><ele>434.0</ele><time>2026-03-28T13:16:47.998Z</time></trkpt><trkpt lat="44.74240098569887" lon="9.590165639416526"><ele>433.99999999999994</ele><time>2026-03-28T13:16:48.998Z</time></trkpt><trkpt lat="44.74246303016608" lon="9.590229511376885"><ele>434.0</ele><time>2026-03-28T13:16:49.998Z</time></trkpt><trkpt lat="44.74252414335327" lon="9.590295009326358"><ele>434.0</ele><time>2026-03-28T13:16:50.998Z</time></trkpt><trkpt lat="44.742582261685314" lon="9.59036257956791"><ele>434.0</ele><time>2026-03-28T13:16:51.998Z</time></trkpt><trkpt lat="44.74264479401302" lon="9.590430417797753"><ele>433.99999999999994</ele><time>2026-03-28T13:16:52.998Z</time></trkpt><trkpt lat="44.74271007246313" lon="9.590494493090569"><ele>434.0</ele><time>2026-03-28T13:16:53.998Z</time></trkpt><trkpt lat="44.74277615546939" lon="9.590559383240718"><ele>433.8333333333333</ele><time>2026-03-28T13:16:54.998Z</time></trkpt><trkpt lat="44.74284318272947" lon="9.590613134084492"><ele>433.66666666666663</ele><time>2026-03-28T13:16:55.998Z</time></trkpt><trkpt lat="44.74291251391578" lon="9.59066705170792"><ele>433.5</ele><time>2026-03-28T13:16:56.998Z</time></trkpt><trkpt lat="44.74298092060236" lon="9.590727592399048"><ele>433.33333333333337</ele><time>2026-03-28T13:16:57.998Z</time></trkpt><trkpt lat="44.74305311000885" lon="9.590780215722974"><ele>433.1666666666667</ele><time>2026-03-28T13:16:58.998Z</time></trkpt><trkpt lat="44.74312384236171" lon="9.590837391272872"><ele>433.0</ele><time>2026-03-28T13:16:59.998Z</time></trkpt><trkpt lat="44.74319239853383" lon="9.590897418616185"><ele>433.00000000000006</ele><time>2026-03-28T13:17:00.998Z</time></trkpt><trkpt lat="44.743260637945696" lon="9.590959698006333"><ele>433.0</ele><time>2026-03-28T13:17:01.998Z</time></trkpt><trkpt lat="44.743329545714566" lon="9.591015287552063"><ele>433.0</ele><time>2026-03-28T13:17:02.998Z</time></trkpt><trkpt lat="44.743400058523" lon="9.591071378928746"><ele>433.0</ele><time>2026-03-28T13:17:03.998Z</time></trkpt><trkpt lat="44.74346961606576" lon="9.591126211486564"><ele>433.00000000000006</ele><time>2026-03-28T13:17:04.998Z</time></trkpt><trkpt lat="44.743541172995485" lon="9.591179077117618"><ele>433.0</ele><time>2026-03-28T13:17:05.998Z</time></trkpt><trkpt lat="44.743611448195395" lon="9.591231463304002"><ele>431.33333333333337</ele><time>2026-03-28T13:17:06.998Z</time></trkpt><trkpt lat="44.743683049880865" lon="9.591280638498327"><ele>429.6666666666667</ele><time>2026-03-28T13:17:07.998Z</time></trkpt><trkpt lat="44.74375635239273" lon="9.591328499731564"><ele>428.0</ele><time>2026-03-28T13:17:08.998Z</time></trkpt><trkpt lat="44.74382655323962" lon="9.59137783619573"><ele>426.33333333333337</ele><time>2026-03-28T13:17:09.998Z</time></trkpt><trkpt lat="44.743898627182176" lon="9.591431374864788"><ele>424.6666666666667</ele><time>2026-03-28T13:17:10.998Z</time></trkpt><trkpt lat="44.74396893309794" lon="9.591483122873568"><ele>423.0</ele><time>2026-03-28T13:17:11.998Z</time></trkpt><trkpt lat="44.74404238631518" lon="9.591532184971268"><ele>423.0</ele><time>2026-03-28T13:17:12.998Z</time></trkpt><trkpt lat="44.74411457342017" lon="9.591585248120758"><ele>423.0</ele><time>2026-03-28T13:17:13.998Z</time></trkpt><trkpt lat="44.74418546307206" lon="9.591639428167603"><ele>423.0</ele><time>2026-03-28T13:17:14.998Z</time></trkpt><trkpt lat="44.74425954114038" lon="9.591689435547664"><ele>423.0</ele><time>2026-03-28T13:17:15.998Z</time></trkpt><trkpt lat="44.74433029942484" lon="9.591740788703472"><ele>423.0</ele><time>2026-03-28T13:17:16.998Z</time></trkpt><trkpt lat="44.74440305415322" lon="9.5917927738589"><ele>423.0</ele><time>2026-03-28T13:17:17.998Z</time></trkpt><trkpt lat="44.74447260817365" lon="9.591851336153526"><ele>419.8333333333333</ele><time>2026-03-28T13:17:18.998Z</time></trkpt><trkpt lat="44.744542914441155" lon="9.591912012245082"><ele>416.66666666666663</ele><time>2026-03-28T13:17:19.998Z</time></trkpt><trkpt lat="44.744611844168524" lon="9.591974394395566"><ele>413.5</ele><time>2026-03-28T13:17:21Z</time></trkpt><trkpt lat="44.74468132200664" lon="9.592039642718468"><ele>410.3333333333333</ele><time>2026-03-28T13:17:22Z</time></trkpt><trkpt lat="44.744752602584555" lon="9.592102030599394"><ele>407.16666666666663</ele><time>2026-03-28T13:17:23Z</time></trkpt><trkpt lat="44.74482286145689" lon="9.592166044989366"><ele>404.0</ele><time>2026-03-28T13:17:24Z</time></trkpt><trkpt lat="44.744892975204905" lon="9.592228311237136"><ele>403.99999999999994</ele><time>2026-03-28T13:17:25Z</time></trkpt><trkpt lat="44.74496549277187" lon="9.592291680318608"><ele>404.0</ele><time>2026-03-28T13:17:26Z</time></trkpt><trkpt lat="44.74503942558425" lon="9.592349454355093"><ele>404.0</ele><time>2026-03-28T13:17:27Z</time></trkpt><trkpt lat="44.74511567996059" lon="9.59240308107887"><ele>404.0</ele><time>2026-03-28T13:17:28Z</time></trkpt><trkpt lat="44.74519300759049" lon="9.592448869182979"><ele>403.99999999999994</ele><time>2026-03-28T13:17:29Z</time></trkpt><trkpt lat="44.74527155267916" lon="9.59249224903519"><ele>404.0</ele><time>2026-03-28T13:17:30Z</time></trkpt><trkpt lat="44.745348684513274" lon="9.592538267822434"><ele>402.3333333333333</ele><time>2026-03-28T13:17:31Z</time></trkpt><trkpt lat="44.74542681282509" lon="9.592582291231736"><ele>400.66666666666663</ele><time>2026-03-28T13:17:32Z</time></trkpt><trkpt lat="44.74550537066761" lon="9.59262761811586"><ele>399.0</ele><time>2026-03-28T13:17:33Z</time></trkpt><trkpt lat="44.745580817099494" lon="9.592683248436241"><ele>397.33333333333337</ele><time>2026-03-28T13:17:34Z</time></trkpt><trkpt lat="44.74565146136998" lon="9.592742066456271"><ele>395.6666666666667</ele><time>2026-03-28T13:17:35Z</time></trkpt><trkpt lat="44.745721582079945" lon="9.59280825713976"><ele>394.0</ele><time>2026-03-28T13:17:36Z</time></trkpt><trkpt lat="44.74579027621586" lon="9.592874359346498"><ele>394.00000000000006</ele><time>2026-03-28T13:17:37Z</time></trkpt><trkpt lat="44.74586040292094" lon="9.592938422317449"><ele>394.0</ele><time>2026-03-28T13:17:38Z</time></trkpt><trkpt lat="44.74592839977253" lon="9.59300217176315"><ele>394.0</ele><time>2026-03-28T13:17:39Z</time></trkpt><trkpt lat="44.7460010742502" lon="9.59306004737228"><ele>394.0</ele><time>2026-03-28T13:17:40Z</time></trkpt><trkpt lat="44.74607467828512" lon="9.59311625887342"><ele>394.00000000000006</ele><time>2026-03-28T13:17:41Z</time></trkpt><trkpt lat="44.74614946386903" lon="9.59316831038199"><ele>394.0</ele><time>2026-03-28T13:17:42Z</time></trkpt><trkpt lat="44.74622337937151" lon="9.593218003965289"><ele>399.83333333333337</ele><time>2026-03-28T13:17:43Z</time></trkpt><trkpt lat="44.74629296094199" lon="9.593278492499513"><ele>405.6666666666667</ele><time>2026-03-28T13:17:44Z</time></trkpt><trkpt lat="44.74636149336681" lon="9.593331842620383"><ele>411.5</ele><time>2026-03-28T13:17:45Z</time></trkpt><trkpt lat="44.74643283353014" lon="9.59337929877464"><ele>417.33333333333337</ele><time>2026-03-28T13:17:46Z</time></trkpt><trkpt lat="44.74650360061641" lon="9.593437413807825"><ele>423.1666666666667</ele><time>2026-03-28T13:17:47Z</time></trkpt><trkpt lat="44.74657384192985" lon="9.593492287792955"><ele>429.0</ele><time>2026-03-28T13:17:48Z</time></trkpt><trkpt lat="44.74664460480872" lon="9.593538259942344"><ele>429.0</ele><time>2026-03-28T13:17:49Z</time></trkpt><trkpt lat="44.7467180361531" lon="9.59358607661105"><ele>429.0</ele><time>2026-03-28T13:17:50Z</time></trkpt><trkpt lat="44.74679140894502" lon="9.593624717813647"><ele>429.0</ele><time>2026-03-28T13:17:51Z</time></trkpt><trkpt lat="44.7468643591372" lon="9.593667525960706"><ele>429.0</ele><time>2026-03-28T13:17:52Z</time></trkpt><trkpt lat="44.746944389641726" lon="9.593679110798938"><ele>429.0</ele><time>2026-03-28T13:17:53Z</time></trkpt><trkpt lat="44.747022537439484" lon="9.593708329627109"><ele>429.0</ele><time>2026-03-28T13:17:54Z</time></trkpt><trkpt lat="44.74709664781376" lon="9.593736036769162"><ele>428.3333333333333</ele><time>2026-03-28T13:17:55Z</time></trkpt><trkpt lat="44.74717169864604" lon="9.593755114374723"><ele>427.66666666666663</ele><time>2026-03-28T13:17:56Z</time></trkpt><trkpt lat="44.747250138388665" lon="9.593757008345065"><ele>427.0</ele><time>2026-03-28T13:17:57Z</time></trkpt><trkpt lat="44.74732491977124" lon="9.593729924178978"><ele>426.3333333333333</ele><time>2026-03-28T13:17:57.999Z</time></trkpt><trkpt lat="44.74738932324065" lon="9.59364798104521"><ele>425.66666666666663</ele><time>2026-03-28T13:17:58.999Z</time></trkpt><trkpt lat="44.74743131716475" lon="9.59354540033768"><ele>425.0</ele><time>2026-03-28T13:17:59.999Z</time></trkpt><trkpt lat="44.74745968454829" lon="9.593431010569336"><ele>424.99999999999994</ele><time>2026-03-28T13:18:00.999Z</time></trkpt><trkpt lat="44.74748043026222" lon="9.593315158739532"><ele>425.0</ele><time>2026-03-28T13:18:01.999Z</time></trkpt><trkpt lat="44.74750677648575" lon="9.593204483112299"><ele>425.0</ele><time>2026-03-28T13:18:02.999Z</time></trkpt><trkpt lat="44.74754721018875" lon="9.5930989699681"><ele>425.0</ele><time>2026-03-28T13:18:03.999Z</time></trkpt><trkpt lat="44.747612406246986" lon="9.593013378902898"><ele>424.99999999999994</ele><time>2026-03-28T13:18:04.999Z</time></trkpt><trkpt lat="44.747695723592166" lon="9.592958109858236"><ele>425.0</ele><time>2026-03-28T13:18:05.999Z</time></trkpt><trkpt lat="44.747788914547435" lon="9.592928428170893"><ele>424.16666666666663</ele><time>2026-03-28T13:18:06.999Z</time></trkpt><trkpt lat="44.74788009762727" lon="9.592930036057808"><ele>423.3333333333333</ele><time>2026-03-28T13:18:07.999Z</time></trkpt><trkpt lat="44.74796640527715" lon="9.592957080964746"><ele>422.5</ele><time>2026-03-28T13:18:08.999Z</time></trkpt><trkpt lat="44.7480499772978" lon="9.59298708126943"><ele>421.66666666666663</ele><time>2026-03-28T13:18:09.999Z</time></trkpt><trkpt lat="44.748132951452554" lon="9.593027883582275"><ele>420.8333333333333</ele><time>2026-03-28T13:18:10.999Z</time></trkpt><trkpt lat="44.74821599666459" lon="9.593078200675238"><ele>420.0</ele><time>2026-03-28T13:18:11.999Z</time></trkpt><trkpt lat="44.74829949760118" lon="9.593134761845272"><ele>420.0</ele><time>2026-03-28T13:18:12.999Z</time></trkpt><trkpt lat="44.748381550754026" lon="9.593197605520848"><ele>420.0</ele><time>2026-03-28T13:18:13.999Z</time></trkpt><trkpt lat="44.748458574741875" lon="9.593269430943213"><ele>420.0</ele><time>2026-03-28T13:18:14.999Z</time></trkpt><trkpt lat="44.74853131603767" lon="9.593350138673072"><ele>420.0</ele><time>2026-03-28T13:18:15.999Z</time></trkpt><trkpt lat="44.74860454232606" lon="9.593427620932102"><ele>420.0</ele><time>2026-03-28T13:18:16.999Z</time></trkpt><trkpt lat="44.7486804597153" lon="9.593501807018308"><ele>420.2</ele><time>2026-03-28T13:18:17.999Z</time></trkpt><trkpt lat="44.74876066163624" lon="9.593566466335426"><ele>420.4</ele><time>2026-03-28T13:18:18.999Z</time></trkpt><trkpt lat="44.748851110380826" lon="9.593610653400805"><ele>420.6</ele><time>2026-03-28T13:18:19.999Z</time></trkpt><trkpt lat="44.74893901593068" lon="9.593656268835359"><ele>420.8</ele><time>2026-03-28T13:18:20.999Z</time></trkpt><trkpt lat="44.74902684896062" lon="9.5936985787844"><ele>421.0</ele><time>2026-03-28T13:18:21.999Z</time></trkpt><trkpt lat="44.749119112054586" lon="9.593728071654004"><ele>418.6</ele><time>2026-03-28T13:18:22.999Z</time></trkpt><trkpt lat="44.7492109830083" lon="9.59375641069974"><ele>416.20000000000005</ele><time>2026-03-28T13:18:23.999Z</time></trkpt><trkpt lat="44.74930272267746" lon="9.593773002854988"><ele>413.79999999999995</ele><time>2026-03-28T13:18:24.999Z</time></trkpt><trkpt lat="44.749395236752285" lon="9.593765259569714"><ele>411.4</ele><time>2026-03-28T13:18:25.999Z</time></trkpt><trkpt lat="44.74948645955468" lon="9.593733923316869"><ele>409.0</ele><time>2026-03-28T13:18:26.999Z</time></trkpt><trkpt lat="44.749576165797166" lon="9.593692542966341"><ele>409.2</ele><time>2026-03-28T13:18:27.999Z</time></trkpt><trkpt lat="44.7496600891225" lon="9.59363729396456"><ele>409.4</ele><time>2026-03-28T13:18:28.999Z</time></trkpt><trkpt lat="44.74973802792891" lon="9.59356409064042"><ele>409.6</ele><time>2026-03-28T13:18:29.999Z</time></trkpt><trkpt lat="44.74980500596846" lon="9.593470238710621"><ele>409.8</ele><time>2026-03-28T13:18:30.999Z</time></trkpt><trkpt lat="44.7498672397412" lon="9.59336977369854"><ele>410.0</ele><time>2026-03-28T13:18:31.999Z</time></trkpt><trkpt lat="44.74993085741196" lon="9.593271515949251"><ele>410.0</ele><time>2026-03-28T13:18:32.999Z</time></trkpt><trkpt lat="44.74999663824247" lon="9.593171982787151"><ele>410.0</ele><time>2026-03-28T13:18:33.999Z</time></trkpt><trkpt lat="44.75005959435742" lon="9.593073192248431"><ele>410.0</ele><time>2026-03-28T13:18:34.999Z</time></trkpt><trkpt lat="44.75012074035465" lon="9.592974205005678"><ele>410.0</ele><time>2026-03-28T13:18:35.999Z</time></trkpt><trkpt lat="44.750179417974756" lon="9.592873546944794"><ele>410.0</ele><time>2026-03-28T13:18:36.999Z</time></trkpt><trkpt lat="44.750241091297966" lon="9.592774904492666"><ele>410.4</ele><time>2026-03-28T13:18:37.999Z</time></trkpt><trkpt lat="44.750305347632" lon="9.592677535528201"><ele>410.8</ele><time>2026-03-28T13:18:38.999Z</time></trkpt><trkpt lat="44.750374170522036" lon="9.592590389429361"><ele>411.20000000000005</ele><time>2026-03-28T13:18:39.999Z</time></trkpt><trkpt lat="44.750448839030916" lon="9.592511125165181"><ele>411.6</ele><time>2026-03-28T13:18:40.999Z</time></trkpt><trkpt lat="44.75053286895741" lon="9.59245906979498"><ele>412.0</ele><time>2026-03-28T13:18:41.999Z</time></trkpt><trkpt lat="44.7506251017032" lon="9.592418765879993"><ele>412.0</ele><time>2026-03-28T13:18:42.999Z</time></trkpt><trkpt lat="44.75072063823611" lon="9.592396650601255"><ele>412.0</ele><time>2026-03-28T13:18:43.999Z</time></trkpt><trkpt lat="44.7508171086033" lon="9.592383565622184"><ele>412.0</ele><time>2026-03-28T13:18:44.999Z</time></trkpt><trkpt lat="44.75091306483274" lon="9.592376748751004"><ele>412.0</ele><time>2026-03-28T13:18:45.999Z</time></trkpt><trkpt lat="44.75100925720784" lon="9.59237009984699"><ele>412.0</ele><time>2026-03-28T13:18:46.999Z</time></trkpt><trkpt lat="44.751103491839906" lon="9.592380491455971"><ele>411.20000000000005</ele><time>2026-03-28T13:18:47.999Z</time></trkpt><trkpt lat="44.751197346209885" lon="9.592399759850087"><ele>410.4</ele><time>2026-03-28T13:18:48.999Z</time></trkpt><trkpt lat="44.7512883214144" lon="9.592424079475206"><ele>409.6</ele><time>2026-03-28T13:18:49.999Z</time></trkpt><trkpt lat="44.75137766618308" lon="9.592445921610235"><ele>408.79999999999995</ele><time>2026-03-28T13:18:50.998Z</time></trkpt><trkpt lat="44.75146809909021" lon="9.592451545324856"><ele>408.0</ele><time>2026-03-28T13:18:51.998Z</time></trkpt><trkpt lat="44.7515582660415" lon="9.592442695743241"><ele>408.0</ele><time>2026-03-28T13:18:52.998Z</time></trkpt><trkpt lat="44.75164996974673" lon="9.592428913561958"><ele>408.0</ele><time>2026-03-28T13:18:53.998Z</time></trkpt><trkpt lat="44.75173885555915" lon="9.592405088870033"><ele>408.0</ele><time>2026-03-28T13:18:54.998Z</time></trkpt><trkpt lat="44.75182553831239" lon="9.592367727028638"><ele>408.0</ele><time>2026-03-28T13:18:55.998Z</time></trkpt><trkpt lat="44.751907937720155" lon="9.592317162633071"><ele>408.0</ele><time>2026-03-28T13:18:56.998Z</time></trkpt><trkpt lat="44.7519931255569" lon="9.592266504962245"><ele>408.79999999999995</ele><time>2026-03-28T13:18:57.998Z</time></trkpt><trkpt lat="44.75208227307402" lon="9.59223098006919"><ele>409.6</ele><time>2026-03-28T13:18:58.998Z</time></trkpt><trkpt lat="44.75217915310018" lon="9.592233393661806"><ele>410.4</ele><time>2026-03-28T13:18:59.998Z</time></trkpt><trkpt lat="44.75227372121874" lon="9.592261902719255"><ele>411.20000000000005</ele><time>2026-03-28T13:19:00.998Z</time></trkpt><trkpt lat="44.75236416064768" lon="9.592313270959094"><ele>412.0</ele><time>2026-03-28T13:19:01.998Z</time></trkpt><trkpt lat="44.75245070406237" lon="9.59237129368209"><ele>412.00000000000006</ele><time>2026-03-28T13:19:02.998Z</time></trkpt><trkpt lat="44.75253518830675" lon="9.59242673265538"><ele>412.0</ele><time>2026-03-28T13:19:03.998Z</time></trkpt><trkpt lat="44.7526199369802" lon="9.592478138850664"><ele>412.0</ele><time>2026-03-28T13:19:04.998Z</time></trkpt><trkpt lat="44.75270241514252" lon="9.592530193996978"><ele>412.0</ele><time>2026-03-28T13:19:05.998Z</time></trkpt><trkpt lat="44.75277593108608" lon="9.592593348379246"><ele>412.00000000000006</ele><time>2026-03-28T13:19:06.998Z</time></trkpt><trkpt lat="44.75284469473183" lon="9.592663776461917"><ele>412.0</ele><time>2026-03-28T13:19:07.998Z</time></trkpt><trkpt lat="44.752910483707396" lon="9.592738626074455"><ele>412.0</ele><time>2026-03-28T13:19:08.998Z</time></trkpt><trkpt lat="44.75298219051944" lon="9.592808756308782"><ele>412.0</ele><time>2026-03-28T13:19:09.998Z</time></trkpt><trkpt lat="44.75305858989457" lon="9.592868934734373"><ele>412.0</ele><time>2026-03-28T13:19:10.998Z</time></trkpt><trkpt lat="44.753143301455836" lon="9.592916006327416"><ele>412.0</ele><time>2026-03-28T13:19:11.998Z</time></trkpt><trkpt lat="44.75323458551198" lon="9.59294135044098"><ele>412.0</ele><time>2026-03-28T13:19:12.998Z</time></trkpt><trkpt lat="44.75333209878098" lon="9.592957839264312"><ele>410.0</ele><time>2026-03-28T13:19:13.998Z</time></trkpt><trkpt lat="44.75342186555607" lon="9.592951685038026"><ele>408.0</ele><time>2026-03-28T13:19:14.998Z</time></trkpt><trkpt lat="44.753513853806595" lon="9.5929304897813"><ele>406.0</ele><time>2026-03-28T13:19:15.998Z</time></trkpt><trkpt lat="44.753597894555114" lon="9.592884860933486"><ele>404.0</ele><time>2026-03-28T13:19:16.998Z</time></trkpt><trkpt lat="44.753674465419515" lon="9.592812080554614"><ele>402.0</ele><time>2026-03-28T13:19:17.998Z</time></trkpt><trkpt lat="44.753738654342996" lon="9.592720294085483"><ele>401.6</ele><time>2026-03-28T13:19:18.998Z</time></trkpt><trkpt lat="44.75379656340036" lon="9.592615438964263"><ele>401.20000000000005</ele><time>2026-03-28T13:19:19.998Z</time></trkpt><trkpt lat="44.75384296415092" lon="9.592492784838567"><ele>400.8</ele><time>2026-03-28T13:19:20.998Z</time></trkpt><trkpt lat="44.75388478962159" lon="9.592366177433224"><ele>400.4</ele><time>2026-03-28T13:19:21.998Z</time></trkpt><trkpt lat="44.753932899135954" lon="9.592242249462185"><ele>400.0</ele><time>2026-03-28T13:19:22.998Z</time></trkpt><trkpt lat="44.75399011613038" lon="9.592127509991874"><ele>400.0</ele><time>2026-03-28T13:19:23.998Z</time></trkpt><trkpt lat="44.75405357241191" lon="9.592015823028209"><ele>400.0</ele><time>2026-03-28T13:19:24.998Z</time></trkpt><trkpt lat="44.75411595578715" lon="9.591901460997798"><ele>400.0</ele><time>2026-03-28T13:19:25.998Z</time></trkpt><trkpt lat="44.75418178818346" lon="9.591788778090784"><ele>400.0</ele><time>2026-03-28T13:19:27Z</time></trkpt><trkpt lat="44.754248660649374" lon="9.591683950156225"><ele>400.0</ele><time>2026-03-28T13:19:28Z</time></trkpt><trkpt lat="44.75431623042266" lon="9.591579295504271"><ele>400.8</ele><time>2026-03-28T13:19:29Z</time></trkpt><trkpt lat="44.754381166343336" lon="9.591472262637996"><ele>401.6</ele><time>2026-03-28T13:19:30Z</time></trkpt><trkpt lat="44.754447996218325" lon="9.591370399844456"><ele>402.4</ele><time>2026-03-28T13:19:31Z</time></trkpt><trkpt lat="44.75452175802088" lon="9.591276965622821"><ele>403.2</ele><time>2026-03-28T13:19:32Z</time></trkpt><trkpt lat="44.754606054591136" lon="9.591197584026666"><ele>404.0</ele><time>2026-03-28T13:19:33Z</time></trkpt><trkpt lat="44.754696844083455" lon="9.591143721747507"><ele>404.0</ele><time>2026-03-28T13:19:34Z</time></trkpt><trkpt lat="44.75478908485817" lon="9.59110488244318"><ele>404.0</ele><time>2026-03-28T13:19:35Z</time></trkpt><trkpt lat="44.7548822414604" lon="9.591084154990059"><ele>404.0</ele><time>2026-03-28T13:19:36Z</time></trkpt><trkpt lat="44.75497011920617" lon="9.5910767930923"><ele>404.0</ele><time>2026-03-28T13:19:37Z</time></trkpt><trkpt lat="44.75505578370164" lon="9.591068601723231"><ele>404.0</ele><time>2026-03-28T13:19:38Z</time></trkpt><trkpt lat="44.7551411360841" lon="9.591057179315586"><ele>404.3333333333333</ele><time>2026-03-28T13:19:39Z</time></trkpt><trkpt lat="44.755223759545814" lon="9.591045796016806"><ele>404.66666666666663</ele><time>2026-03-28T13:19:40Z</time></trkpt><trkpt lat="44.755305184219" lon="9.591038947221463"><ele>405.0</ele><time>2026-03-28T13:19:41Z</time></trkpt><trkpt lat="44.75538476880931" lon="9.591047540013717"><ele>405.33333333333337</ele><time>2026-03-28T13:19:42Z</time></trkpt><trkpt lat="44.75546214658742" lon="9.59107917994445"><ele>405.6666666666667</ele><time>2026-03-28T13:19:43Z</time></trkpt><trkpt lat="44.75552586095564" lon="9.591136130097075"><ele>406.0</ele><time>2026-03-28T13:19:44Z</time></trkpt><trkpt lat="44.75556955341271" lon="9.591214416237657"><ele>406.00000000000006</ele><time>2026-03-28T13:19:45Z</time></trkpt><trkpt lat="44.7555985437613" lon="9.591297923104667"><ele>406.0</ele><time>2026-03-28T13:19:46Z</time></trkpt><trkpt lat="44.75563382420297" lon="9.591372816700451"><ele>406.0</ele><time>2026-03-28T13:19:47Z</time></trkpt><trkpt lat="44.75568329159734" lon="9.591428676791333"><ele>406.0</ele><time>2026-03-28T13:19:48Z</time></trkpt><trkpt lat="44.75579732492048" lon="9.591493116180382"><ele>406.00000000000006</ele><time>2026-03-28T13:19:50Z</time></trkpt><trkpt lat="44.75591879706474" lon="9.591498058201193"><ele>406.0</ele><time>2026-03-28T13:19:52Z</time></trkpt><trkpt lat="44.756032208788106" lon="9.59153675199989"><ele>406.4</ele><time>2026-03-28T13:19:54Z</time></trkpt><trkpt lat="44.75612074534274" lon="9.591647601923775"><ele>406.8</ele><time>2026-03-28T13:19:56Z</time></trkpt><trkpt lat="44.756176140120054" lon="9.591790920590894"><ele>407.2</ele><time>2026-03-28T13:19:58Z</time></trkpt><trkpt lat="44.75621885396053" lon="9.591922892553715"><ele>407.59999999999997</ele><time>2026-03-28T13:20:00Z</time></trkpt><trkpt lat="44.75626321248427" lon="9.592038405287052"><ele>408.0</ele><time>2026-03-28T13:20:01.999Z</time></trkpt><trkpt lat="44.75629860847919" lon="9.59215565040951"><ele>408.0</ele><time>2026-03-28T13:20:03.999Z</time></trkpt><trkpt lat="44.756345871729074" lon="9.592266005205692"><ele>408.0</ele><time>2026-03-28T13:20:05.999Z</time></trkpt><trkpt lat="44.75639886205665" lon="9.592368538007545"><ele>408.0</ele><time>2026-03-28T13:20:07.999Z</time></trkpt><trkpt lat="44.75647347329562" lon="9.592432868753395"><ele>408.0</ele><time>2026-03-28T13:20:09.999Z</time></trkpt><trkpt lat="44.75655940579139" lon="9.592448287236648"><ele>408.0</ele><time>2026-03-28T13:20:11.999Z</time></trkpt><trkpt lat="44.75665148657093" lon="9.592411815225942"><ele>408.0</ele><time>2026-03-28T13:20:13.999Z</time></trkpt><trkpt lat="44.75672649533032" lon="9.592344372807597"><ele>408.0</ele><time>2026-03-28T13:20:15.999Z</time></trkpt><trkpt lat="44.75678840715968" lon="9.592261147190175"><ele>408.0</ele><time>2026-03-28T13:20:17.999Z</time></trkpt><trkpt lat="44.75683407591568" lon="9.592160448678996"><ele>408.0</ele><time>2026-03-28T13:20:19.999Z</time></trkpt><trkpt lat="44.75684199430983" lon="9.592040433322289"><ele>408.0</ele><time>2026-03-28T13:20:21.999Z</time></trkpt><trkpt lat="44.75683225701146" lon="9.591916092319115"><ele>408.0</ele><time>2026-03-28T13:20:23.999Z</time></trkpt><trkpt lat="44.756789886096676" lon="9.591817588922211"><ele>410.0</ele><time>2026-03-28T13:20:25.999Z</time></trkpt><trkpt lat="44.75673039701939" lon="9.591737402471178"><ele>412.0</ele><time>2026-03-28T13:20:27.999Z</time></trkpt><trkpt lat="44.75665324986654" lon="9.591671466519465"><ele>414.0</ele><time>2026-03-28T13:20:29.999Z</time></trkpt><trkpt lat="44.756578434905016" lon="9.591610244018101"><ele>416.0</ele><time>2026-03-28T13:20:31.999Z</time></trkpt><trkpt lat="44.756505572365" lon="9.591539069158786"><ele>418.0</ele><time>2026-03-28T13:20:33.999Z</time></trkpt><trkpt lat="44.75645177699845" lon="9.591440851617786"><ele>420.0</ele><time>2026-03-28T13:20:35.999Z</time></trkpt><trkpt lat="44.756417487342326" lon="9.59133205691127"><ele>420.0</ele><time>2026-03-28T13:20:37.999Z</time></trkpt><trkpt lat="44.7564025748674" lon="9.591209996357264"><ele>420.0</ele><time>2026-03-28T13:20:39.999Z</time></trkpt><trkpt lat="44.756392320250214" lon="9.591093137859533"><ele>420.0</ele><time>2026-03-28T13:20:41.999Z</time></trkpt><trkpt lat="44.75637915368146" lon="9.590975963518854"><ele>420.0</ele><time>2026-03-28T13:20:43.999Z</time></trkpt><trkpt lat="44.75636528982338" lon="9.590859031403603"><ele>420.0</ele><time>2026-03-28T13:20:45.999Z</time></trkpt><trkpt lat="44.756327233349595" lon="9.590747381279302"><ele>420.0</ele><time>2026-03-28T13:20:47.999Z</time></trkpt><trkpt lat="44.75627155656259" lon="9.590657757262353"><ele>419.1666666666667</ele><time>2026-03-28T13:20:49.999Z</time></trkpt><trkpt lat="44.75619795376279" lon="9.590589130713772"><ele>418.33333333333337</ele><time>2026-03-28T13:20:51.999Z</time></trkpt><trkpt lat="44.75612053784244" lon="9.590546494067505"><ele>417.5</ele><time>2026-03-28T13:20:53.999Z</time></trkpt><trkpt lat="44.75604339270845" lon="9.590503158467218"><ele>416.6666666666667</ele><time>2026-03-28T13:20:55.998Z</time></trkpt><trkpt lat="44.755962655146924" lon="9.590460636562256"><ele>415.83333333333337</ele><time>2026-03-28T13:20:57.998Z</time></trkpt><trkpt lat="44.7558896578794" lon="9.590400463186123"><ele>415.0</ele><time>2026-03-28T13:20:59.998Z</time></trkpt><trkpt lat="44.755845909660984" lon="9.590312953791281"><ele>416.83333333333337</ele><time>2026-03-28T13:21:01.998Z</time></trkpt><trkpt lat="44.75585091266021" lon="9.590207749629101"><ele>418.6666666666667</ele><time>2026-03-28T13:21:03.998Z</time></trkpt><trkpt lat="44.75589820310108" lon="9.5901387932892"><ele>420.5</ele><time>2026-03-28T13:21:05.998Z</time></trkpt><trkpt lat="44.755978707581725" lon="9.590137192831456"><ele>422.33333333333337</ele><time>2026-03-28T13:21:07.998Z</time></trkpt><trkpt lat="44.75605271246517" lon="9.590203736861946"><ele>424.1666666666667</ele><time>2026-03-28T13:21:09.998Z</time></trkpt><trkpt lat="44.75611063913283" lon="9.590282668139071"><ele>426.0</ele><time>2026-03-28T13:21:11.998Z</time></trkpt><trkpt lat="44.75617150123617" lon="9.590357853372192"><ele>426.3333333333333</ele><time>2026-03-28T13:21:13.998Z</time></trkpt><trkpt lat="44.75623691496125" lon="9.590433006222915"><ele>426.66666666666663</ele><time>2026-03-28T13:21:15.998Z</time></trkpt><trkpt lat="44.756308928133436" lon="9.590509360436556"><ele>427.0</ele><time>2026-03-28T13:21:17.998Z</time></trkpt><trkpt lat="44.75638454485329" lon="9.590579576523426"><ele>427.3333333333333</ele><time>2026-03-28T13:21:19.998Z</time></trkpt><trkpt lat="44.756457832037725" lon="9.590647890078854"><ele>427.66666666666663</ele><time>2026-03-28T13:21:21.998Z</time></trkpt><trkpt lat="44.756529875228594" lon="9.590713136026439"><ele>428.0</ele><time>2026-03-28T13:21:23.998Z</time></trkpt><trkpt lat="44.75660240424436" lon="9.59078138984219"><ele>427.99999999999994</ele><time>2026-03-28T13:21:25.998Z</time></trkpt><trkpt lat="44.75667631689414" lon="9.59084847925979"><ele>428.0</ele><time>2026-03-28T13:21:27.998Z</time></trkpt><trkpt lat="44.75675716515893" lon="9.59089595464643"><ele>428.0</ele><time>2026-03-28T13:21:29.998Z</time></trkpt><trkpt lat="44.7568427240047" lon="9.590902353655144"><ele>428.0</ele><time>2026-03-28T13:21:32Z</time></trkpt><trkpt lat="44.756924367042586" lon="9.590871590377583"><ele>427.99999999999994</ele><time>2026-03-28T13:21:34Z</time></trkpt><trkpt lat="44.756992035137465" lon="9.59080434764346"><ele>428.0</ele><time>2026-03-28T13:21:36Z</time></trkpt><trkpt lat="44.75705162676926" lon="9.590728520195272"><ele>427.8333333333333</ele><time>2026-03-28T13:21:38Z</time></trkpt><trkpt lat="44.75710841430277" lon="9.590648027149683"><ele>427.66666666666663</ele><time>2026-03-28T13:21:40Z</time></trkpt><trkpt lat="44.757162394893584" lon="9.590563432077483"><ele>427.5</ele><time>2026-03-28T13:21:42Z</time></trkpt><trkpt lat="44.75722003948322" lon="9.590480447859502"><ele>427.33333333333337</ele><time>2026-03-28T13:21:44Z</time></trkpt><trkpt lat="44.75727320978392" lon="9.59038825506903"><ele>427.1666666666667</ele><time>2026-03-28T13:21:46Z</time></trkpt><trkpt lat="44.75732293472605" lon="9.590296635836452"><ele>427.0</ele><time>2026-03-28T13:21:48Z</time></trkpt><trkpt lat="44.75736819481922" lon="9.590192524276222"><ele>428.83333333333337</ele><time>2026-03-28T13:21:50Z</time></trkpt><trkpt lat="44.75741286484578" lon="9.590092718882962"><ele>430.6666666666667</ele><time>2026-03-28T13:21:52Z</time></trkpt><trkpt lat="44.75745683710998" lon="9.589991777026302"><ele>432.5</ele><time>2026-03-28T13:21:54Z</time></trkpt><trkpt lat="44.75751370218625" lon="9.589896689668599"><ele>434.33333333333337</ele><time>2026-03-28T13:21:56Z</time></trkpt><trkpt lat="44.75758123192382" lon="9.589809684558231"><ele>436.1666666666667</ele><time>2026-03-28T13:21:58Z</time></trkpt><trkpt lat="44.75765810180915" lon="9.589734777712385"><ele>438.0</ele><time>2026-03-28T13:22:00Z</time></trkpt><trkpt lat="44.75774563306544" lon="9.589663349963848"><ele>438.0</ele><time>2026-03-28T13:22:02Z</time></trkpt><trkpt lat="44.7578377624801" lon="9.589610445389068"><ele>437.99999999999994</ele><time>2026-03-28T13:22:04Z</time></trkpt><trkpt lat="44.75794322303445" lon="9.589597513340278"><ele>437.99999999999994</ele><time>2026-03-28T13:22:05.999Z</time></trkpt><trkpt lat="44.75804636578877" lon="9.589631872203936"><ele>438.0</ele><time>2026-03-28T13:22:07.999Z</time></trkpt><trkpt lat="44.75814551403816" lon="9.589699979085824"><ele>438.0</ele><time>2026-03-28T13:22:09.999Z</time></trkpt><trkpt lat="44.75824706814957" lon="9.589765156005512"><ele>438.0</ele><time>2026-03-28T13:22:11.999Z</time></trkpt><trkpt lat="44.758349967438946" lon="9.589836002549296"><ele>438.0</ele><time>2026-03-28T13:22:13.999Z</time></trkpt><trkpt lat="44.758445153545836" lon="9.58992548255251"><ele>438.0</ele><time>2026-03-28T13:22:15.999Z</time></trkpt><trkpt lat="44.758529398155616" lon="9.590034457429105"><ele>438.0</ele><time>2026-03-28T13:22:17.999Z</time></trkpt><trkpt lat="44.758606664226" lon="9.59015008270067"><ele>438.4</ele><time>2026-03-28T13:22:19.999Z</time></trkpt><trkpt lat="44.75868694733426" lon="9.59026075950383"><ele>438.79999999999995</ele><time>2026-03-28T13:22:21.999Z</time></trkpt><trkpt lat="44.75878012359993" lon="9.590355895941288"><ele>439.2</ele><time>2026-03-28T13:22:23.999Z</time></trkpt><trkpt lat="44.758887169417925" lon="9.590423130110231"><ele>439.6</ele><time>2026-03-28T13:22:25.999Z</time></trkpt><trkpt lat="44.75894614970546" lon="9.590454821420213"><ele>440.0</ele><time>2026-03-28T13:22:26.999Z</time></trkpt><trkpt lat="44.75900541399041" lon="9.590492018783664"><ele>439.99999999999994</ele><time>2026-03-28T13:22:27.999Z</time></trkpt><trkpt lat="44.75906486835113" lon="9.590537954995622"><ele>440.0</ele><time>2026-03-28T13:22:28.999Z</time></trkpt><trkpt lat="44.759121748664384" lon="9.590592716996792"><ele>440.0</ele><time>2026-03-28T13:22:29.999Z</time></trkpt><trkpt lat="44.75917352301751" lon="9.5906662103671"><ele>440.0</ele><time>2026-03-28T13:22:30.999Z</time></trkpt><trkpt lat="44.759220091475434" lon="9.59074166280543"><ele>440.0</ele><time>2026-03-28T13:22:31.999Z</time></trkpt><trkpt lat="44.75926680728455" lon="9.590818219409178"><ele>439.99999999999994</ele><time>2026-03-28T13:22:32.999Z</time></trkpt><trkpt lat="44.75931110649537" lon="9.59088833670952"><ele>440.0</ele><time>2026-03-28T13:22:33.999Z</time></trkpt><trkpt lat="44.75935307547291" lon="9.590962183884743"><ele>440.1428571428571</ele><time>2026-03-28T13:22:34.999Z</time></trkpt><trkpt lat="44.75939307729522" lon="9.591039225426186"><ele>440.2857142857143</ele><time>2026-03-28T13:22:35.999Z</time></trkpt><trkpt lat="44.75943475342613" lon="9.591115123486425"><ele>440.42857142857144</ele><time>2026-03-28T13:22:36.999Z</time></trkpt><trkpt lat="44.75947262453592" lon="9.591195835509348"><ele>440.57142857142856</ele><time>2026-03-28T13:22:37.999Z</time></trkpt><trkpt lat="44.75951526581607" lon="9.59127469377374"><ele>440.7142857142857</ele><time>2026-03-28T13:22:38.999Z</time></trkpt><trkpt lat="44.759559019351265" lon="9.591351350761785"><ele>440.85714285714283</ele><time>2026-03-28T13:22:39.999Z</time></trkpt><trkpt lat="44.75960572333419" lon="9.59142808522591"><ele>441.0</ele><time>2026-03-28T13:22:40.999Z</time></trkpt><trkpt lat="44.75965441989159" lon="9.591508759083007"><ele>441.0</ele><time>2026-03-28T13:22:41.999Z</time></trkpt><trkpt lat="44.759709105918446" lon="9.591584411308656"><ele>441.0</ele><time>2026-03-28T13:22:42.999Z</time></trkpt><trkpt lat="44.759767139579345" lon="9.591659718814974"><ele>441.0</ele><time>2026-03-28T13:22:43.999Z</time></trkpt><trkpt lat="44.7598272024364" lon="9.59173884755888"><ele>441.0</ele><time>2026-03-28T13:22:44.999Z</time></trkpt><trkpt lat="44.75988441308991" lon="9.59182876057512"><ele>441.0</ele><time>2026-03-28T13:22:45.999Z</time></trkpt><trkpt lat="44.759947997058184" lon="9.59192178843366"><ele>441.0</ele><time>2026-03-28T13:22:46.999Z</time></trkpt><trkpt lat="44.76001615091583" lon="9.59202001885799"><ele>440.8</ele><time>2026-03-28T13:22:47.999Z</time></trkpt><trkpt lat="44.76008969777997" lon="9.592119393729735"><ele>440.6</ele><time>2026-03-28T13:22:48.999Z</time></trkpt><trkpt lat="44.76016525487372" lon="9.592223094771935"><ele>440.4</ele><time>2026-03-28T13:22:49.999Z</time></trkpt><trkpt lat="44.76024232033712" lon="9.592325449815778"><ele>440.2</ele><time>2026-03-28T13:22:50.999Z</time></trkpt><trkpt lat="44.76032049985859" lon="9.592430331152453"><ele>440.0</ele><time>2026-03-28T13:22:51.999Z</time></trkpt><trkpt lat="44.76040078291979" lon="9.59253632409743"><ele>440.0</ele><time>2026-03-28T13:22:52.999Z</time></trkpt><trkpt lat="44.76048217911722" lon="9.592642100569389"><ele>440.0</ele><time>2026-03-28T13:22:53.999Z</time></trkpt><trkpt lat="44.76056281594276" lon="9.592745826161508"><ele>440.0</ele><time>2026-03-28T13:22:54.999Z</time></trkpt><trkpt lat="44.760641059478466" lon="9.592852387372655"><ele>440.0</ele><time>2026-03-28T13:22:55.999Z</time></trkpt><trkpt lat="44.76071534659153" lon="9.592966536227033"><ele>440.0</ele><time>2026-03-28T13:22:56.999Z</time></trkpt><trkpt lat="44.76078832778543" lon="9.593083904279379"><ele>437.0</ele><time>2026-03-28T13:22:57.998Z</time></trkpt><trkpt lat="44.7608404665254" lon="9.593217457848569"><ele>434.0</ele><time>2026-03-28T13:22:58.998Z</time></trkpt><trkpt lat="44.760869419948314" lon="9.593373503596808"><ele>431.0</ele><time>2026-03-28T13:22:59.998Z</time></trkpt><trkpt lat="44.76085770468478" lon="9.593536567667531"><ele>428.0</ele><time>2026-03-28T13:23:00.998Z</time></trkpt><trkpt lat="44.760870479566414" lon="9.593695770750674"><ele>428.25</ele><time>2026-03-28T13:23:01.998Z</time></trkpt><trkpt lat="44.76088930473237" lon="9.593849493951563"><ele>428.5</ele><time>2026-03-28T13:23:02.998Z</time></trkpt><trkpt lat="44.76093510317143" lon="9.593993599450046"><ele>428.75</ele><time>2026-03-28T13:23:03.998Z</time></trkpt><trkpt lat="44.76099879952219" lon="9.594126206146607"><ele>429.0</ele><time>2026-03-28T13:23:04.998Z</time></trkpt><trkpt lat="44.76107111646442" lon="9.594249767112318"><ele>429.0</ele><time>2026-03-28T13:23:05.998Z</time></trkpt><trkpt lat="44.76114889452554" lon="9.59436765391461"><ele>429.0</ele><time>2026-03-28T13:23:06.998Z</time></trkpt><trkpt lat="44.761235744741874" lon="9.594473258659727"><ele>429.0</ele><time>2026-03-28T13:23:07.998Z</time></trkpt><trkpt lat="44.761340568706196" lon="9.594535081614572"><ele>429.0</ele><time>2026-03-28T13:23:08.998Z</time></trkpt><trkpt lat="44.76145148357175" lon="9.594569766148492"><ele>426.25</ele><time>2026-03-28T13:23:09.998Z</time></trkpt><trkpt lat="44.761549902852344" lon="9.59466059132671"><ele>423.5</ele><time>2026-03-28T13:23:10.998Z</time></trkpt><trkpt lat="44.761617642615164" lon="9.594804497435607"><ele>420.75</ele><time>2026-03-28T13:23:11.998Z</time></trkpt><trkpt lat="44.76165369131963" lon="9.594964810503361"><ele>418.0</ele><time>2026-03-28T13:23:12.998Z</time></trkpt><trkpt lat="44.7616859890873" lon="9.595127850171801"><ele>418.0</ele><time>2026-03-28T13:23:13.998Z</time></trkpt><trkpt lat="44.7617253477344" lon="9.595287751085152"><ele>418.0</ele><time>2026-03-28T13:23:14.998Z</time></trkpt><trkpt lat="44.76177614993413" lon="9.595444991097153"><ele>418.0</ele><time>2026-03-28T13:23:15.998Z</time></trkpt><trkpt lat="44.7618379340867" lon="9.59559365632462"><ele>418.0</ele><time>2026-03-28T13:23:16.998Z</time></trkpt><trkpt lat="44.76190427264835" lon="9.595741367087639"><ele>420.5</ele><time>2026-03-28T13:23:17.998Z</time></trkpt><trkpt lat="44.76197105562788" lon="9.595888584126902"><ele>423.0</ele><time>2026-03-28T13:23:18.998Z</time></trkpt><trkpt lat="44.76203428857608" lon="9.59603675393506"><ele>425.5</ele><time>2026-03-28T13:23:19.998Z</time></trkpt><trkpt lat="44.76209569291376" lon="9.596176866700123"><ele>428.0</ele><time>2026-03-28T13:23:20.998Z</time></trkpt><trkpt lat="44.762167474056696" lon="9.59630600506386"><ele>423.59999999999997</ele><time>2026-03-28T13:23:21.998Z</time></trkpt><trkpt lat="44.76225529006034" lon="9.596410819710465"><ele>419.19999999999993</ele><time>2026-03-28T13:23:22.998Z</time></trkpt><trkpt lat="44.76235461073397" lon="9.596485896241486"><ele>414.8</ele><time>2026-03-28T13:23:23.998Z</time></trkpt><trkpt lat="44.76245740314669" lon="9.59653680830975"><ele>410.4</ele><time>2026-03-28T13:23:24.998Z</time></trkpt><trkpt lat="44.76256168465598" lon="9.59657723695675"><ele>406.0</ele><time>2026-03-28T13:23:25.998Z</time></trkpt><trkpt lat="44.76266770435537" lon="9.596612349821793"><ele>407.0</ele><time>2026-03-28T13:23:26.998Z</time></trkpt><trkpt lat="44.76277190244713" lon="9.59665471135416"><ele>408.0</ele><time>2026-03-28T13:23:27.998Z</time></trkpt><trkpt lat="44.76287317233117" lon="9.596702716322564"><ele>409.0</ele><time>2026-03-28T13:23:28.998Z</time></trkpt><trkpt lat="44.76297022225553" lon="9.596754043353398"><ele>410.0</ele><time>2026-03-28T13:23:29.998Z</time></trkpt><trkpt lat="44.76306183418403" lon="9.596815925492212"><ele>411.0</ele><time>2026-03-28T13:23:30.998Z</time></trkpt><trkpt lat="44.76315097392877" lon="9.596894603550338"><ele>411.0</ele><time>2026-03-28T13:23:31.998Z</time></trkpt><trkpt lat="44.76323300790989" lon="9.596994484583627"><ele>411.0</ele><time>2026-03-28T13:23:32.998Z</time></trkpt><trkpt lat="44.763303439664625" lon="9.597111583228447"><ele>411.0</ele><time>2026-03-28T13:23:33.998Z</time></trkpt><trkpt lat="44.76335287748395" lon="9.597245981684333"><ele>411.0</ele><time>2026-03-28T13:23:34.998Z</time></trkpt><trkpt lat="44.76339561268155" lon="9.597384976499228"><ele>411.0</ele><time>2026-03-28T13:23:35.998Z</time></trkpt><trkpt lat="44.763428455446174" lon="9.59752324371481"><ele>408.4</ele><time>2026-03-28T13:23:36.998Z</time></trkpt><trkpt lat="44.763441514716924" lon="9.597668104096565"><ele>405.8</ele><time>2026-03-28T13:23:38Z</time></trkpt><trkpt lat="44.76344803901512" lon="9.597814215696475"><ele>403.2</ele><time>2026-03-28T13:23:39Z</time></trkpt><trkpt lat="44.7634471114212" lon="9.597960667775721"><ele>400.59999999999997</ele><time>2026-03-28T13:23:40Z</time></trkpt><trkpt lat="44.76345700860125" lon="9.598095573639004"><ele>398.0</ele><time>2026-03-28T13:23:41Z</time></trkpt><trkpt lat="44.763502510164905" lon="9.598216671739388"><ele>397.0</ele><time>2026-03-28T13:23:42Z</time></trkpt><trkpt lat="44.76358706338207" lon="9.598302348231535"><ele>396.0</ele><time>2026-03-28T13:23:43Z</time></trkpt><trkpt lat="44.76368924506869" lon="9.598336282490925"><ele>395.0</ele><time>2026-03-28T13:23:44Z</time></trkpt><trkpt lat="44.763794531983535" lon="9.598348630546383"><ele>394.0</ele><time>2026-03-28T13:23:45Z</time></trkpt><trkpt lat="44.76390046511793" lon="9.598354672092595"><ele>393.0</ele><time>2026-03-28T13:23:46Z</time></trkpt><trkpt lat="44.764008457229345" lon="9.598352624142848"><ele>393.0</ele><time>2026-03-28T13:23:47Z</time></trkpt><trkpt lat="44.764117455485255" lon="9.598342733599495"><ele>393.0</ele><time>2026-03-28T13:23:48Z</time></trkpt><trkpt lat="44.76422679904364" lon="9.598323438374688"><ele>393.0</ele><time>2026-03-28T13:23:49Z</time></trkpt><trkpt lat="44.76433628484068" lon="9.598298334949282"><ele>393.0</ele><time>2026-03-28T13:23:50Z</time></trkpt><trkpt lat="44.7644433866101" lon="9.598264297020206"><ele>393.0</ele><time>2026-03-28T13:23:51Z</time></trkpt><trkpt lat="44.76454906619096" lon="9.598227741662967"><ele>392.79999999999995</ele><time>2026-03-28T13:23:52Z</time></trkpt><trkpt lat="44.76465563701857" lon="9.598204154747918"><ele>392.6</ele><time>2026-03-28T13:23:53Z</time></trkpt><trkpt lat="44.76476445281216" lon="9.598209524663723"><ele>392.4</ele><time>2026-03-28T13:23:54Z</time></trkpt><trkpt lat="44.7648711662207" lon="9.598225173216646"><ele>392.20000000000005</ele><time>2026-03-28T13:23:55Z</time></trkpt><trkpt lat="44.76497428327589" lon="9.59824324017514"><ele>392.0</ele><time>2026-03-28T13:23:56Z</time></trkpt><trkpt lat="44.76507384119848" lon="9.598269368959693"><ele>392.0</ele><time>2026-03-28T13:23:57Z</time></trkpt><trkpt lat="44.76517099790026" lon="9.598300668079293"><ele>392.0</ele><time>2026-03-28T13:23:58Z</time></trkpt><trkpt lat="44.76526464572062" lon="9.598336887160903"><ele>392.0</ele><time>2026-03-28T13:23:59Z</time></trkpt><trkpt lat="44.7653562394967" lon="9.598389925882943"><ele>392.0</ele><time>2026-03-28T13:24:00Z</time></trkpt><trkpt lat="44.765448836544486" lon="9.598446693699572"><ele>392.0</ele><time>2026-03-28T13:24:01Z</time></trkpt><trkpt lat="44.765544781750386" lon="9.598493844210074"><ele>390.6</ele><time>2026-03-28T13:24:02Z</time></trkpt><trkpt lat="44.76564074333572" lon="9.598541165157208"><ele>389.20000000000005</ele><time>2026-03-28T13:24:03Z</time></trkpt><trkpt lat="44.76573713254268" lon="9.598589899600746"><ele>387.8</ele><time>2026-03-28T13:24:04Z</time></trkpt><trkpt lat="44.76583140402884" lon="9.59864188428991"><ele>386.4</ele><time>2026-03-28T13:24:05Z</time></trkpt><trkpt lat="44.76592823450948" lon="9.598687010099662"><ele>385.0</ele><time>2026-03-28T13:24:06Z</time></trkpt><trkpt lat="44.76602807862003" lon="9.598725841526173"><ele>386.4</ele><time>2026-03-28T13:24:07Z</time></trkpt><trkpt lat="44.76613046125614" lon="9.598760606348309"><ele>387.8</ele><time>2026-03-28T13:24:07.999Z</time></trkpt><trkpt lat="44.766230380986194" lon="9.598795963280962"><ele>389.20000000000005</ele><time>2026-03-28T13:24:08.999Z</time></trkpt><trkpt lat="44.76633230472084" lon="9.59882977433696"><ele>390.6</ele><time>2026-03-28T13:24:09.999Z</time></trkpt><trkpt lat="44.76643272351495" lon="9.59886799219165"><ele>392.0</ele><time>2026-03-28T13:24:10.999Z</time></trkpt><trkpt lat="44.766533579089426" lon="9.5989130661793"><ele>392.0</ele><time>2026-03-28T13:24:11.999Z</time></trkpt><trkpt lat="44.766632241870724" lon="9.598970319020948"><ele>392.0</ele><time>2026-03-28T13:24:12.999Z</time></trkpt><trkpt lat="44.76671976856124" lon="9.599050294843043"><ele>392.0</ele><time>2026-03-28T13:24:13.999Z</time></trkpt><trkpt lat="44.76679639918333" lon="9.599144986567257"><ele>392.0</ele><time>2026-03-28T13:24:14.999Z</time></trkpt><trkpt lat="44.76687545567737" lon="9.599236322899372"><ele>392.0</ele><time>2026-03-28T13:24:15.999Z</time></trkpt><trkpt lat="44.76695635595507" lon="9.599322877019208"><ele>393.40000000000003</ele><time>2026-03-28T13:24:16.999Z</time></trkpt><trkpt lat="44.76703709044576" lon="9.599409039521662"><ele>394.8</ele><time>2026-03-28T13:24:17.999Z</time></trkpt><trkpt lat="44.76711627333739" lon="9.599496581112325"><ele>396.2</ele><time>2026-03-28T13:24:18.999Z</time></trkpt><trkpt lat="44.76719577365208" lon="9.599580981902795"><ele>397.6</ele><time>2026-03-28T13:24:19.999Z</time></trkpt><trkpt lat="44.76727348638852" lon="9.59966631727365"><ele>399.0</ele><time>2026-03-28T13:24:20.999Z</time></trkpt><trkpt lat="44.76735278914557" lon="9.59974058377309"><ele>395.6</ele><time>2026-03-28T13:24:21.999Z</time></trkpt><trkpt lat="44.76744053137379" lon="9.599792496799472"><ele>392.2</ele><time>2026-03-28T13:24:22.999Z</time></trkpt><trkpt lat="44.76753433585258" lon="9.599824522368618"><ele>388.8</ele><time>2026-03-28T13:24:23.999Z</time></trkpt><trkpt lat="44.7676316058675" lon="9.599844837779049"><ele>385.40000000000003</ele><time>2026-03-28T13:24:24.999Z</time></trkpt><trkpt lat="44.76773289135651" lon="9.599857456686061"><ele>382.0</ele><time>2026-03-28T13:24:25.999Z</time></trkpt><trkpt lat="44.767836109490204" lon="9.599877930415085"><ele>382.0</ele><time>2026-03-28T13:24:26.999Z</time></trkpt><trkpt lat="44.76793755229311" lon="9.599918599036638"><ele>382.0</ele><time>2026-03-28T13:24:27.999Z</time></trkpt><trkpt lat="44.76803575422405" lon="9.59997222496681"><ele>382.0</ele><time>2026-03-28T13:24:28.999Z</time></trkpt><trkpt lat="44.768134298936225" lon="9.600023272096488"><ele>382.0</ele><time>2026-03-28T13:24:29.999Z</time></trkpt><trkpt lat="44.768234493596" lon="9.60006109430307"><ele>382.0</ele><time>2026-03-28T13:24:30.999Z</time></trkpt><trkpt lat="44.76833731381782" lon="9.60008157636643"><ele>382.0</ele><time>2026-03-28T13:24:31.999Z</time></trkpt><trkpt lat="44.76844003770352" lon="9.600093428243923"><ele>382.0</ele><time>2026-03-28T13:24:32.999Z</time></trkpt><trkpt lat="44.76854629714946" lon="9.600108264097333"><ele>382.0</ele><time>2026-03-28T13:24:33.999Z</time></trkpt><trkpt lat="44.76865416133032" lon="9.600135727484075"><ele>382.0</ele><time>2026-03-28T13:24:34.999Z</time></trkpt><trkpt lat="44.768759341376224" lon="9.600179395807432"><ele>382.0</ele><time>2026-03-28T13:24:35.999Z</time></trkpt><trkpt lat="44.768862047875814" lon="9.600226269933636"><ele>381.8</ele><time>2026-03-28T13:24:36.999Z</time></trkpt><trkpt lat="44.768957726611994" lon="9.600274411346694"><ele>381.6</ele><time>2026-03-28T13:24:37.999Z</time></trkpt><trkpt lat="44.769049664698265" lon="9.600328114498621"><ele>381.40000000000003</ele><time>2026-03-28T13:24:38.999Z</time></trkpt><trkpt lat="44.76913899272757" lon="9.60039492561236"><ele>381.20000000000005</ele><time>2026-03-28T13:24:39.999Z</time></trkpt><trkpt lat="44.76923101103426" lon="9.60045551851124"><ele>381.0</ele><time>2026-03-28T13:24:40.999Z</time></trkpt><trkpt lat="44.76932585429838" lon="9.600511648840351"><ele>379.8</ele><time>2026-03-28T13:24:41.999Z</time></trkpt><trkpt lat="44.769417892063146" lon="9.60056282677916"><ele>378.6</ele><time>2026-03-28T13:24:42.999Z</time></trkpt><trkpt lat="44.76950762308397" lon="9.600628551873296"><ele>377.4</ele><time>2026-03-28T13:24:43.999Z</time></trkpt><trkpt lat="44.76959086824228" lon="9.600716998918111"><ele>376.2</ele><time>2026-03-28T13:24:44.999Z</time></trkpt><trkpt lat="44.76965686132511" lon="9.600835779075329"><ele>375.0</ele><time>2026-03-28T13:24:45.999Z</time></trkpt><trkpt lat="44.769707941312085" lon="9.600967928928172"><ele>375.0</ele><time>2026-03-28T13:24:46.999Z</time></trkpt><trkpt lat="44.76975570356839" lon="9.60110231641936"><ele>375.0</ele><time>2026-03-28T13:24:47.999Z</time></trkpt><trkpt lat="44.76980143150202" lon="9.601238359055067"><ele>375.0</ele><time>2026-03-28T13:24:48.999Z</time></trkpt><trkpt lat="44.769842023211915" lon="9.60138035245438"><ele>375.0</ele><time>2026-03-28T13:24:49.999Z</time></trkpt><trkpt lat="44.7698747860073" lon="9.601528895129931"><ele>375.0</ele><time>2026-03-28T13:24:50.999Z</time></trkpt><trkpt lat="44.76990288284039" lon="9.60167737708853"><ele>373.8</ele><time>2026-03-28T13:24:51.999Z</time></trkpt><trkpt lat="44.76992838028357" lon="9.601817200597353"><ele>372.6</ele><time>2026-03-28T13:24:52.999Z</time></trkpt><trkpt lat="44.769950901525114" lon="9.601957004058201"><ele>371.4</ele><time>2026-03-28T13:24:53.999Z</time></trkpt><trkpt lat="44.76999805626061" lon="9.60208174548595"><ele>370.2</ele><time>2026-03-28T13:24:54.999Z</time></trkpt><trkpt lat="44.77007539344432" lon="9.602173806782456"><ele>369.0</ele><time>2026-03-28T13:24:55.999Z</time></trkpt><trkpt lat="44.77016517318644" lon="9.602238672434888"><ele>367.4</ele><time>2026-03-28T13:24:56.999Z</time></trkpt><trkpt lat="44.77025947885666" lon="9.602286585147121"><ele>365.79999999999995</ele><time>2026-03-28T13:24:57.999Z</time></trkpt><trkpt lat="44.77035659557617" lon="9.602322615514797"><ele>364.20000000000005</ele><time>2026-03-28T13:24:58.999Z</time></trkpt><trkpt lat="44.77045834023185" lon="9.602344089520708"><ele>362.6</ele><time>2026-03-28T13:24:59.999Z</time></trkpt><trkpt lat="44.770563095860716" lon="9.602336218623408"><ele>361.0</ele><time>2026-03-28T13:25:00.999Z</time></trkpt><trkpt lat="44.77066204036569" lon="9.602287116442819"><ele>361.0</ele><time>2026-03-28T13:25:01.998Z</time></trkpt><trkpt lat="44.770752759188156" lon="9.602205983175857"><ele>361.0</ele><time>2026-03-28T13:25:02.998Z</time></trkpt><trkpt lat="44.7708473556256" lon="9.602130074736365"><ele>361.0</ele><time>2026-03-28T13:25:03.998Z</time></trkpt><trkpt lat="44.77095767069525" lon="9.602116711094617"><ele>361.0</ele><time>2026-03-28T13:25:04.998Z</time></trkpt><trkpt lat="44.77106445689904" lon="9.602187826083814"><ele>361.0</ele><time>2026-03-28T13:25:05.998Z</time></trkpt><trkpt lat="44.771142505754696" lon="9.602310801333221"><ele>360.25</ele><time>2026-03-28T13:25:06.998Z</time></trkpt><trkpt lat="44.771196533225975" lon="9.602454949784308"><ele>359.5</ele><time>2026-03-28T13:25:07.998Z</time></trkpt><trkpt lat="44.771245513211845" lon="9.602602931110008"><ele>358.75</ele><time>2026-03-28T13:25:08.998Z</time></trkpt><trkpt lat="44.77130623503208" lon="9.602742003229856"><ele>358.0</ele><time>2026-03-28T13:25:09.998Z</time></trkpt><trkpt lat="44.77139384986703" lon="9.602846018964174"><ele>355.0</ele><time>2026-03-28T13:25:10.998Z</time></trkpt><trkpt lat="44.771503076848724" lon="9.602900234424684"><ele>352.0</ele><time>2026-03-28T13:25:11.998Z</time></trkpt><trkpt lat="44.771618110574344" lon="9.60291217202702"><ele>349.0</ele><time>2026-03-28T13:25:12.998Z</time></trkpt><trkpt lat="44.77173208022366" lon="9.602919537684976"><ele>346.0</ele><time>2026-03-28T13:25:13.998Z</time></trkpt><trkpt lat="44.771848561553604" lon="9.602933665086558"><ele>346.25</ele><time>2026-03-28T13:25:14.998Z</time></trkpt><trkpt lat="44.77196348786417" lon="9.602967991988704"><ele>346.5</ele><time>2026-03-28T13:25:15.998Z</time></trkpt><trkpt lat="44.7720768511108" lon="9.603022036414316"><ele>346.75</ele><time>2026-03-28T13:25:16.998Z</time></trkpt><trkpt lat="44.77218929382548" lon="9.603086307253342"><ele>347.0</ele><time>2026-03-28T13:25:17.998Z</time></trkpt><trkpt lat="44.77228456312069" lon="9.60319831312447"><ele>347.0</ele><time>2026-03-28T13:25:18.998Z</time></trkpt><trkpt lat="44.77234857645586" lon="9.603343980110358"><ele>347.0</ele><time>2026-03-28T13:25:19.998Z</time></trkpt><trkpt lat="44.772361682109604" lon="9.60351574709812"><ele>347.0</ele><time>2026-03-28T13:25:20.998Z</time></trkpt><trkpt lat="44.77236553657417" lon="9.603689473507888"><ele>347.0</ele><time>2026-03-28T13:25:21.998Z</time></trkpt><trkpt lat="44.7723879513728" lon="9.603861489395905"><ele>345.25</ele><time>2026-03-28T13:25:22.998Z</time></trkpt><trkpt lat="44.772414921073086" lon="9.60403421583291"><ele>343.5</ele><time>2026-03-28T13:25:23.998Z</time></trkpt><trkpt lat="44.772476477729114" lon="9.604193000487145"><ele>341.75</ele><time>2026-03-28T13:25:24.998Z</time></trkpt><trkpt lat="44.772562005677905" lon="9.604327800074593"><ele>340.0</ele><time>2026-03-28T13:25:25.998Z</time></trkpt><trkpt lat="44.77266833473915" lon="9.604433927691309"><ele>338.0</ele><time>2026-03-28T13:25:26.998Z</time></trkpt><trkpt lat="44.77278714927135" lon="9.60451619312099"><ele>336.0</ele><time>2026-03-28T13:25:27.998Z</time></trkpt><trkpt lat="44.77290766452984" lon="9.60459271560364"><ele>334.0</ele><time>2026-03-28T13:25:28.998Z</time></trkpt><trkpt lat="44.773029388917585" lon="9.604666054191794"><ele>332.0</ele><time>2026-03-28T13:25:29.998Z</time></trkpt><trkpt lat="44.77315326115159" lon="9.604737088025114"><ele>332.0</ele><time>2026-03-28T13:25:30.998Z</time></trkpt><trkpt lat="44.773276440271594" lon="9.604802603648146"><ele>332.0</ele><time>2026-03-28T13:25:31.998Z</time></trkpt><trkpt lat="44.77339756999021" lon="9.604871486211534"><ele>332.0</ele><time>2026-03-28T13:25:32.998Z</time></trkpt><trkpt lat="44.7735191307335" lon="9.604941363988265"><ele>332.0</ele><time>2026-03-28T13:25:33.998Z</time></trkpt><trkpt lat="44.773642756690094" lon="9.6050095058312"><ele>331.5</ele><time>2026-03-28T13:25:34.998Z</time></trkpt><trkpt lat="44.77376935862457" lon="9.60507121278711"><ele>331.0</ele><time>2026-03-28T13:25:35.998Z</time></trkpt><trkpt lat="44.77389607233693" lon="9.605129419113732"><ele>330.5</ele><time>2026-03-28T13:25:36.998Z</time></trkpt><trkpt lat="44.77402145035994" lon="9.605187900569941"><ele>330.0</ele><time>2026-03-28T13:25:37.998Z</time></trkpt><trkpt lat="44.774148271286315" lon="9.605235171132785"><ele>330.0</ele><time>2026-03-28T13:25:38.998Z</time></trkpt><trkpt lat="44.774277471777054" lon="9.605268488689097"><ele>330.0</ele><time>2026-03-28T13:25:39.998Z</time></trkpt><trkpt lat="44.7744024332937" lon="9.605299583378825"><ele>330.0</ele><time>2026-03-28T13:25:40.998Z</time></trkpt><trkpt lat="44.77452323386846" lon="9.605329814495917"><ele>330.0</ele><time>2026-03-28T13:25:41.998Z</time></trkpt><trkpt lat="44.77463810577488" lon="9.605362706783966"><ele>329.2</ele><time>2026-03-28T13:25:42.998Z</time></trkpt><trkpt lat="44.7747501276676" lon="9.60539812937031"><ele>328.4</ele><time>2026-03-28T13:25:44Z</time></trkpt><trkpt lat="44.77485592519908" lon="9.605429644286726"><ele>327.6</ele><time>2026-03-28T13:25:45Z</time></trkpt><trkpt lat="44.77495834137185" lon="9.605457707408364"><ele>326.8</ele><time>2026-03-28T13:25:46Z</time></trkpt><trkpt lat="44.77505829632319" lon="9.605486565348405"><ele>326.0</ele><time>2026-03-28T13:25:47Z</time></trkpt><trkpt lat="44.77515616644199" lon="9.60550881576103"><ele>326.20000000000005</ele><time>2026-03-28T13:25:48Z</time></trkpt><trkpt lat="44.775251544966956" lon="9.60553418148045"><ele>326.40000000000003</ele><time>2026-03-28T13:25:49Z</time></trkpt><trkpt lat="44.77534427253983" lon="9.605560179009096"><ele>326.6</ele><time>2026-03-28T13:25:50Z</time></trkpt><trkpt lat="44.775432046038695" lon="9.605583147285344"><ele>326.8</ele><time>2026-03-28T13:25:51Z</time></trkpt><trkpt lat="44.77551732793946" lon="9.605602197951008"><ele>327.0</ele><time>2026-03-28T13:25:52Z</time></trkpt><trkpt lat="44.775601838577515" lon="9.605612176208101"><ele>327.0</ele><time>2026-03-28T13:25:53Z</time></trkpt><trkpt lat="44.77568562303033" lon="9.605616438775192"><ele>327.0</ele><time>2026-03-28T13:25:54Z</time></trkpt><trkpt lat="44.77576588027541" lon="9.6056229582867"><ele>327.0</ele><time>2026-03-28T13:25:55Z</time></trkpt><trkpt lat="44.77584302854246" lon="9.605630671692026"><ele>327.0</ele><time>2026-03-28T13:25:56Z</time></trkpt><trkpt lat="44.77591719686227" lon="9.605633794594501"><ele>327.0</ele><time>2026-03-28T13:25:57Z</time></trkpt><trkpt lat="44.77598827460406" lon="9.605639430985304"><ele>327.0</ele><time>2026-03-28T13:25:58Z</time></trkpt><trkpt lat="44.776054855159785" lon="9.605643684725976"><ele>326.6</ele><time>2026-03-28T13:25:59Z</time></trkpt><trkpt lat="44.77617377679991" lon="9.605642108894395"><ele>326.20000000000005</ele><time>2026-03-28T13:26:01Z</time></trkpt><trkpt lat="44.77627237723149" lon="9.60567978612394"><ele>325.8</ele><time>2026-03-28T13:26:03Z</time></trkpt><trkpt lat="44.7762514569528" lon="9.605823795570812"><ele>325.4</ele><time>2026-03-28T13:26:05Z</time></trkpt><trkpt lat="44.77624354478714" lon="9.605981013153013"><ele>325.0</ele><time>2026-03-28T13:26:07Z</time></trkpt><trkpt lat="44.77623536972409" lon="9.606142661045961"><ele>325.0</ele><time>2026-03-28T13:26:09Z</time></trkpt><trkpt lat="44.77624900673074" lon="9.60631674666709"><ele>325.0</ele><time>2026-03-28T13:26:11Z</time></trkpt><trkpt lat="44.776239099488166" lon="9.606492625030734"><ele>325.0</ele><time>2026-03-28T13:26:13Z</time></trkpt><trkpt lat="44.77623217858895" lon="9.606584071696568"><ele>325.0</ele><time>2026-03-28T13:26:13.999Z</time></trkpt><trkpt lat="44.77622629360561" lon="9.606675489620114"><ele>325.0</ele><time>2026-03-28T13:26:14.999Z</time></trkpt><trkpt lat="44.776221965580845" lon="9.60676492682087"><ele>325.0</ele><time>2026-03-28T13:26:15.999Z</time></trkpt><trkpt lat="44.776199684399856" lon="9.606853967641788"><ele>325.0</ele><time>2026-03-28T13:26:16.999Z</time></trkpt><trkpt lat="44.77619603056189" lon="9.606946385885848"><ele>325.0</ele><time>2026-03-28T13:26:17.999Z</time></trkpt><trkpt lat="44.7762107260148" lon="9.607118170863096"><ele>325.0</ele><time>2026-03-28T13:26:19.999Z</time></trkpt><trkpt lat="44.77628314446604" lon="9.607184265289376"><ele>325.0</ele><time>2026-03-28T13:26:20.999Z</time></trkpt><trkpt lat="44.77636337924687" lon="9.607310257306304"><ele>325.0</ele><time>2026-03-28T13:26:22.999Z</time></trkpt><trkpt lat="44.776474700025695" lon="9.607283725409657"><ele>325.4285714285714</ele><time>2026-03-28T13:26:23.999Z</time></trkpt><trkpt lat="44.77659014770178" lon="9.607358509825747"><ele>325.8571428571429</ele><time>2026-03-28T13:26:25.999Z</time></trkpt><trkpt lat="44.77664907012996" lon="9.607392243361843"><ele>326.2857142857143</ele><time>2026-03-28T13:26:26.999Z</time></trkpt><trkpt lat="44.77670672187612" lon="9.607431690516389"><ele>326.71428571428567</ele><time>2026-03-28T13:26:27.999Z</time></trkpt><trkpt lat="44.77676531451479" lon="9.607468571977002"><ele>327.1428571428571</ele><time>2026-03-28T13:26:28.999Z</time></trkpt><trkpt lat="44.77682350257869" lon="9.607504123882501"><ele>327.57142857142856</ele><time>2026-03-28T13:26:29.999Z</time></trkpt><trkpt lat="44.77688298106679" lon="9.607540543314299"><ele>328.0</ele><time>2026-03-28T13:26:30.999Z</time></trkpt><trkpt lat="44.77694107347155" lon="9.607575152656459"><ele>327.99999999999994</ele><time>2026-03-28T13:26:31.999Z</time></trkpt><trkpt lat="44.77700049306484" lon="9.607610476739962"><ele>328.0</ele><time>2026-03-28T13:26:32.999Z</time></trkpt><trkpt lat="44.7770630939889" lon="9.607646530037847"><ele>328.0</ele><time>2026-03-28T13:26:33.999Z</time></trkpt><trkpt lat="44.7771242262247" lon="9.607682752585674"><ele>328.0</ele><time>2026-03-28T13:26:34.999Z</time></trkpt><trkpt lat="44.777182696431126" lon="9.607716673759095"><ele>328.0</ele><time>2026-03-28T13:26:35.999Z</time></trkpt><trkpt lat="44.77724111594369" lon="9.60775276559305"><ele>327.99999999999994</ele><time>2026-03-28T13:26:36.999Z</time></trkpt><trkpt lat="44.77735217052612" lon="9.607825512763634"><ele>328.0</ele><time>2026-03-28T13:26:38.999Z</time></trkpt><trkpt lat="44.77746266715591" lon="9.60789266763765"><ele>328.0</ele><time>2026-03-28T13:26:40.999Z</time></trkpt><trkpt lat="44.77756998072611" lon="9.607957576827268"><ele>328.0</ele><time>2026-03-28T13:26:42.999Z</time></trkpt><trkpt lat="44.77767625543965" lon="9.608020315318655"><ele>328.0</ele><time>2026-03-28T13:26:44.999Z</time></trkpt><trkpt lat="44.77778265324236" lon="9.608083007345078"><ele>328.0</ele><time>2026-03-28T13:26:46.999Z</time></trkpt><trkpt lat="44.77788510154817" lon="9.6081400111127"><ele>328.0</ele><time>2026-03-28T13:26:48.999Z</time></trkpt><trkpt lat="44.77798367542627" lon="9.60819852910017"><ele>328.0</ele><time>2026-03-28T13:26:50.999Z</time></trkpt><trkpt lat="44.77808221238068" lon="9.608256422931728"><ele>328.0</ele><time>2026-03-28T13:26:52.999Z</time></trkpt><trkpt lat="44.77817743077041" lon="9.60831623259256"><ele>328.0</ele><time>2026-03-28T13:26:54.999Z</time></trkpt><trkpt lat="44.77827357627935" lon="9.608372375537819"><ele>328.0</ele><time>2026-03-28T13:26:56.999Z</time></trkpt><trkpt lat="44.77837153040972" lon="9.608426637068517"><ele>328.0</ele><time>2026-03-28T13:26:58.999Z</time></trkpt><trkpt lat="44.77846909234101" lon="9.608485522379059"><ele>328.0</ele><time>2026-03-28T13:27:00.999Z</time></trkpt><trkpt lat="44.778570551000826" lon="9.608547385757973"><ele>328.0</ele><time>2026-03-28T13:27:02.999Z</time></trkpt><trkpt lat="44.77868031595666" lon="9.608612069617303"><ele>328.0</ele><time>2026-03-28T13:27:04.999Z</time></trkpt><trkpt lat="44.77879192223916" lon="9.608670991312128"><ele>327.4</ele><time>2026-03-28T13:27:06.998Z</time></trkpt><trkpt lat="44.778897241641026" lon="9.608726139608544"><ele>326.79999999999995</ele><time>2026-03-28T13:27:08.998Z</time></trkpt><trkpt lat="44.77899753343152" lon="9.608786605641459"><ele>326.2</ele><time>2026-03-28T13:27:10.998Z</time></trkpt><trkpt lat="44.77908808776446" lon="9.608837532072695"><ele>325.6</ele><time>2026-03-28T13:27:12.998Z</time></trkpt><trkpt lat="44.77916230674343" lon="9.60887269045669"><ele>325.0</ele><time>2026-03-28T13:27:15.998Z</time></trkpt><trkpt lat="44.77922653252174" lon="9.608906385585803"><ele>325.0</ele><time>2026-03-28T13:27:21.998Z</time></trkpt><trkpt lat="44.77933786441018" lon="9.608523727230486"><ele>325.0</ele><time>2026-03-28T13:27:31.998Z</time></trkpt><trkpt lat="44.77937148836319" lon="9.608406418691708"><ele>325.0</ele><time>2026-03-28T13:27:33.998Z</time></trkpt><trkpt lat="44.77938336162765" lon="9.608311145293989"><ele>325.0</ele><time>2026-03-28T13:27:35.998Z</time></trkpt><trkpt lat="44.7793544011368" lon="9.608403429653803"><ele>325.0</ele><time>2026-03-28T13:30:48.999Z</time></trkpt><trkpt lat="44.779326668183394" lon="9.608500184783711"><ele>325.0</ele><time>2026-03-28T13:30:51.999Z</time></trkpt><trkpt lat="44.77929841945393" lon="9.608598740221552"><ele>325.0</ele><time>2026-03-28T13:30:54.999Z</time></trkpt><trkpt lat="44.779272675347805" lon="9.608688555857949"><ele>325.0</ele><time>2026-03-28T13:30:57.999Z</time></trkpt><trkpt lat="44.779240315359246" lon="9.608801455354792"><ele>325.0</ele><time>2026-03-28T13:31:01.999Z</time></trkpt><trkpt lat="44.77914705386197" lon="9.608763154098927"><ele>325.0</ele><time>2026-03-28T13:31:02.999Z</time></trkpt><trkpt lat="44.77905278063969" lon="9.608715718143815"><ele>325.0</ele><time>2026-03-28T13:31:05.999Z</time></trkpt><trkpt lat="44.778979884438726" lon="9.608656224687351"><ele>325.0</ele><time>2026-03-28T13:31:07.999Z</time></trkpt><trkpt lat="44.77890430401845" lon="9.608613060202938"><ele>325.0</ele><time>2026-03-28T13:31:09.999Z</time></trkpt><trkpt lat="44.778823620834736" lon="9.608572834737673"><ele>325.0</ele><time>2026-03-28T13:31:11.999Z</time></trkpt><trkpt lat="44.778741989390056" lon="9.608519691207043"><ele>325.0</ele><time>2026-03-28T13:31:13.999Z</time></trkpt><trkpt lat="44.778651928111294" lon="9.608469308076815"><ele>325.0</ele><time>2026-03-28T13:31:15.998Z</time></trkpt><trkpt lat="44.77856285749069" lon="9.608419380492006"><ele>325.0</ele><time>2026-03-28T13:31:17.998Z</time></trkpt><trkpt lat="44.77846823597542" lon="9.608378974055906"><ele>325.0</ele><time>2026-03-28T13:31:19.998Z</time></trkpt><trkpt lat="44.77837406445971" lon="9.608334927188054"><ele>325.0</ele><time>2026-03-28T13:31:21.998Z</time></trkpt><trkpt lat="44.778279267137606" lon="9.608278835433582"><ele>325.0</ele><time>2026-03-28T13:31:23.998Z</time></trkpt><trkpt lat="44.77818826782091" lon="9.608193912777296"><ele>325.6</ele><time>2026-03-28T13:31:25.998Z</time></trkpt><trkpt lat="44.778085230351856" lon="9.608133678961048"><ele>326.2</ele><time>2026-03-28T13:31:27.998Z</time></trkpt><trkpt lat="44.77797623099413" lon="9.608096244601953"><ele>326.79999999999995</ele><time>2026-03-28T13:31:29.998Z</time></trkpt><trkpt lat="44.77787585110931" lon="9.608030210801848"><ele>327.4</ele><time>2026-03-28T13:31:31.998Z</time></trkpt><trkpt lat="44.77777233969832" lon="9.607968492169231"><ele>328.0</ele><time>2026-03-28T13:31:33.998Z</time></trkpt><trkpt lat="44.777670598497615" lon="9.607902450688764"><ele>328.0</ele><time>2026-03-28T13:31:35.998Z</time></trkpt><trkpt lat="44.77756771272945" lon="9.607845913168239"><ele>328.0</ele><time>2026-03-28T13:31:37.998Z</time></trkpt><trkpt lat="44.77746411603411" lon="9.607782105906509"><ele>328.0</ele><time>2026-03-28T13:31:39.998Z</time></trkpt><trkpt lat="44.777357089090025" lon="9.607725493977975"><ele>328.0</ele><time>2026-03-28T13:31:41.998Z</time></trkpt><trkpt lat="44.777253127110555" lon="9.607661154539086"><ele>328.0</ele><time>2026-03-28T13:31:43.998Z</time></trkpt><trkpt lat="44.777148616183304" lon="9.607602635107947"><ele>328.0</ele><time>2026-03-28T13:31:45.998Z</time></trkpt><trkpt lat="44.77704757831551" lon="9.607549650698832"><ele>328.0</ele><time>2026-03-28T13:31:47.998Z</time></trkpt><trkpt lat="44.77694880536656" lon="9.607488593276859"><ele>328.0</ele><time>2026-03-28T13:31:49.998Z</time></trkpt><trkpt lat="44.77684814917717" lon="9.607431180337503"><ele>328.0</ele><time>2026-03-28T13:31:51.998Z</time></trkpt><trkpt lat="44.77674887181772" lon="9.60737705584541"><ele>328.2</ele><time>2026-03-28T13:31:53.998Z</time></trkpt><trkpt lat="44.77664811086028" lon="9.60732649051375"><ele>328.4</ele><time>2026-03-28T13:31:55.998Z</time></trkpt><trkpt lat="44.7765480551687" lon="9.607275610130078"><ele>328.59999999999997</ele><time>2026-03-28T13:31:57.998Z</time></trkpt><trkpt lat="44.776451744983824" lon="9.607214314211332"><ele>328.79999999999995</ele><time>2026-03-28T13:31:59.998Z</time></trkpt><trkpt lat="44.77636541020479" lon="9.607154985127666"><ele>329.0</ele><time>2026-03-28T13:32:02Z</time></trkpt><trkpt lat="44.7762849845482" lon="9.607117417299765"><ele>329.0</ele><time>2026-03-28T13:32:04Z</time></trkpt><trkpt lat="44.77621333882574" lon="9.607184248561753"><ele>329.0</ele><time>2026-03-28T13:32:06Z</time></trkpt><trkpt lat="44.77621078274219" lon="9.607317956903406"><ele>329.0</ele><time>2026-03-28T13:32:08Z</time></trkpt><trkpt lat="44.77620489203578" lon="9.607434438772318"><ele>329.0</ele><time>2026-03-28T13:32:10Z</time></trkpt><trkpt lat="44.77618487728094" lon="9.607564534593402"><ele>329.0</ele><time>2026-03-28T13:32:12Z</time></trkpt><trkpt lat="44.77617245330684" lon="9.607691002198818"><ele>329.0</ele><time>2026-03-28T13:32:14Z</time></trkpt><trkpt lat="44.77615213514654" lon="9.607816962590052"><ele>329.5</ele><time>2026-03-28T13:32:16Z</time></trkpt><trkpt lat="44.77612024171883" lon="9.607926357631321"><ele>330.0</ele><time>2026-03-28T13:32:18Z</time></trkpt><trkpt lat="44.776080994030366" lon="9.608020002114117"><ele>330.5</ele><time>2026-03-28T13:32:20Z</time></trkpt><trkpt lat="44.77604164799725" lon="9.608101277075665"><ele>331.0</ele><time>2026-03-28T13:32:22Z</time></trkpt><trkpt lat="44.77599452306523" lon="9.60821630563656"><ele>331.5</ele><time>2026-03-28T13:32:25Z</time></trkpt><trkpt lat="44.77596109839381" lon="9.608293026550179"><ele>332.0</ele><time>2026-03-28T13:32:26.999Z</time></trkpt><trkpt lat="44.77591905204615" lon="9.608364452032564"><ele>333.1666666666667</ele><time>2026-03-28T13:32:28.999Z</time></trkpt><trkpt lat="44.77588492423689" lon="9.608446543863877"><ele>334.33333333333337</ele><time>2026-03-28T13:32:30.999Z</time></trkpt><trkpt lat="44.77584518050131" lon="9.60852100922237"><ele>335.5</ele><time>2026-03-28T13:32:32.999Z</time></trkpt><trkpt lat="44.775807534344295" lon="9.608596840032504"><ele>336.6666666666667</ele><time>2026-03-28T13:32:34.999Z</time></trkpt><trkpt lat="44.775767390990595" lon="9.608670401943552"><ele>337.8333333333333</ele><time>2026-03-28T13:32:36.999Z</time></trkpt><trkpt lat="44.775687433243355" lon="9.608812442388977"><ele>339.0</ele><time>2026-03-28T13:32:40.999Z</time></trkpt><trkpt lat="44.775625827440926" lon="9.60892476659998"><ele>339.0</ele><time>2026-03-28T13:32:43.999Z</time></trkpt><trkpt lat="44.775564111208816" lon="9.608954792263791"><ele>339.0</ele><time>2026-03-28T13:32:45.999Z</time></trkpt><trkpt lat="44.77549266595816" lon="9.608940531576993"><ele>339.0</ele><time>2026-03-28T13:32:47.999Z</time></trkpt><trkpt lat="44.77543148802957" lon="9.608898525314094"><ele>339.0</ele><time>2026-03-28T13:32:49.999Z</time></trkpt><trkpt lat="44.775372673094296" lon="9.608815636402039"><ele>339.0</ele><time>2026-03-28T13:32:52.999Z</time></trkpt><trkpt lat="44.77533149437983" lon="9.608736915134429"><ele>339.0</ele><time>2026-03-28T13:32:54.999Z</time></trkpt><trkpt lat="44.775279737415985" lon="9.608673137678336"><ele>339.0</ele><time>2026-03-28T13:32:56.999Z</time></trkpt><trkpt lat="44.77521895526356" lon="9.608610990415112"><ele>340.0</ele><time>2026-03-28T13:32:58.999Z</time></trkpt><trkpt lat="44.77516235273254" lon="9.608548032986315"><ele>341.0</ele><time>2026-03-28T13:33:00.999Z</time></trkpt><trkpt lat="44.775101434526675" lon="9.608493471756885"><ele>342.0</ele><time>2026-03-28T13:33:02.999Z</time></trkpt><trkpt lat="44.77502934652181" lon="9.608431106784595"><ele>343.0</ele><time>2026-03-28T13:33:04.999Z</time></trkpt><trkpt lat="44.77494971164319" lon="9.608416604800356"><ele>344.0</ele><time>2026-03-28T13:33:06.999Z</time></trkpt><trkpt lat="44.77486982639893" lon="9.60841832825966"><ele>345.0</ele><time>2026-03-28T13:33:08.999Z</time></trkpt><trkpt lat="44.774782436583294" lon="9.608339862545288"><ele>345.0</ele><time>2026-03-28T13:33:10.999Z</time></trkpt><trkpt lat="44.77469558021419" lon="9.608295218946028"><ele>345.0</ele><time>2026-03-28T13:33:12.999Z</time></trkpt><trkpt lat="44.774605693612685" lon="9.608247328918623"><ele>345.0</ele><time>2026-03-28T13:33:14.999Z</time></trkpt><trkpt lat="44.77451540955522" lon="9.608199970959038"><ele>345.0</ele><time>2026-03-28T13:33:16.999Z</time></trkpt><trkpt lat="44.774425328356024" lon="9.608154821042408"><ele>345.0</ele><time>2026-03-28T13:33:18.999Z</time></trkpt><trkpt lat="44.77434333495533" lon="9.608115800595984"><ele>345.3333333333333</ele><time>2026-03-28T13:33:20.998Z</time></trkpt><trkpt lat="44.7742629365897" lon="9.608059532432858"><ele>345.6666666666667</ele><time>2026-03-28T13:33:22.998Z</time></trkpt><trkpt lat="44.774194031936084" lon="9.607999102083383"><ele>346.0</ele><time>2026-03-28T13:33:24.998Z</time></trkpt><trkpt lat="44.77412873655965" lon="9.60793755156718"><ele>346.33333333333337</ele><time>2026-03-28T13:33:26.998Z</time></trkpt><trkpt lat="44.774068772002586" lon="9.607885193645835"><ele>346.6666666666667</ele><time>2026-03-28T13:33:28.998Z</time></trkpt><trkpt lat="44.77400793838489" lon="9.607838809492456"><ele>347.0</ele><time>2026-03-28T13:33:30.998Z</time></trkpt><trkpt lat="44.77394904582703" lon="9.607799841419816"><ele>346.42857142857144</ele><time>2026-03-28T13:33:32.998Z</time></trkpt><trkpt lat="44.77389134245459" lon="9.60775629278401"><ele>345.85714285714283</ele><time>2026-03-28T13:33:34.998Z</time></trkpt><trkpt lat="44.77382989811669" lon="9.607722104163821"><ele>345.2857142857143</ele><time>2026-03-28T13:33:36.998Z</time></trkpt><trkpt lat="44.77376763129351" lon="9.607687384509674"><ele>344.7142857142857</ele><time>2026-03-28T13:33:38.998Z</time></trkpt><trkpt lat="44.77370630925645" lon="9.607655916754364"><ele>344.1428571428571</ele><time>2026-03-28T13:33:40.998Z</time></trkpt><trkpt lat="44.77364479416593" lon="9.60763072380943"><ele>343.57142857142856</ele><time>2026-03-28T13:33:42.998Z</time></trkpt><trkpt lat="44.7735827163753" lon="9.607598799742483"><ele>343.0</ele><time>2026-03-28T13:33:44.998Z</time></trkpt><trkpt lat="44.773519706902476" lon="9.607575151967529"><ele>344.14285714285717</ele><time>2026-03-28T13:33:46.998Z</time></trkpt><trkpt lat="44.77345854839592" lon="9.607553518644735"><ele>345.2857142857143</ele><time>2026-03-28T13:33:48.998Z</time></trkpt><trkpt lat="44.77339529244389" lon="9.607539507764702"><ele>346.42857142857144</ele><time>2026-03-28T13:33:50.998Z</time></trkpt><trkpt lat="44.77330937687725" lon="9.607549102358385"><ele>347.57142857142856</ele><time>2026-03-28T13:33:53.998Z</time></trkpt><trkpt lat="44.7732496831227" lon="9.607584167702093"><ele>348.7142857142857</ele><time>2026-03-28T13:33:55.998Z</time></trkpt><trkpt lat="44.77319850400988" lon="9.607638966086016"><ele>349.8571428571429</ele><time>2026-03-28T13:33:57.998Z</time></trkpt><trkpt lat="44.77315073818643" lon="9.60769931521034"><ele>351.0</ele><time>2026-03-28T13:33:59.998Z</time></trkpt><trkpt lat="44.77310701019186" lon="9.60776912412836"><ele>352.20000000000005</ele><time>2026-03-28T13:34:01.998Z</time></trkpt><trkpt lat="44.77305641859912" lon="9.607845210187376"><ele>353.40000000000003</ele><time>2026-03-28T13:34:03.998Z</time></trkpt><trkpt lat="44.77299783602214" lon="9.60791930819674"><ele>354.6</ele><time>2026-03-28T13:34:05.998Z</time></trkpt><trkpt lat="44.772909563372835" lon="9.608001406404906"><ele>355.8</ele><time>2026-03-28T13:34:08Z</time></trkpt><trkpt lat="44.772824821465335" lon="9.608071871969049"><ele>357.0</ele><time>2026-03-28T13:34:10Z</time></trkpt><trkpt lat="44.77273458818705" lon="9.608140208805407"><ele>356.25</ele><time>2026-03-28T13:34:12Z</time></trkpt><trkpt lat="44.77264039473341" lon="9.608216541980271"><ele>355.5</ele><time>2026-03-28T13:34:14Z</time></trkpt><trkpt lat="44.772548250212886" lon="9.608296942158798"><ele>354.75</ele><time>2026-03-28T13:34:16Z</time></trkpt><trkpt lat="44.77244827118645" lon="9.6083757524919"><ele>354.0</ele><time>2026-03-28T13:34:18Z</time></trkpt><trkpt lat="44.772343224114636" lon="9.608460605682804"><ele>354.0</ele><time>2026-03-28T13:34:20Z</time></trkpt><trkpt lat="44.77224134650892" lon="9.608538564498938"><ele>354.0</ele><time>2026-03-28T13:34:22Z</time></trkpt><trkpt lat="44.77212520276975" lon="9.608593638762994"><ele>354.0</ele><time>2026-03-28T13:34:24Z</time></trkpt><trkpt lat="44.77199856243524" lon="9.60860487443424"><ele>354.0</ele><time>2026-03-28T13:34:26Z</time></trkpt><trkpt lat="44.77193312509626" lon="9.608583413448518"><ele>354.0</ele><time>2026-03-28T13:34:27Z</time></trkpt><trkpt lat="44.77187246718099" lon="9.60855464145307"><ele>353.8333333333333</ele><time>2026-03-28T13:34:28Z</time></trkpt><trkpt lat="44.77181112508208" lon="9.60852784943211"><ele>353.6666666666667</ele><time>2026-03-28T13:34:29Z</time></trkpt><trkpt lat="44.7716909535881" lon="9.60847079302068"><ele>353.5</ele><time>2026-03-28T13:34:30.999Z</time></trkpt><trkpt lat="44.7716243446588" lon="9.608444043312762"><ele>353.33333333333337</ele><time>2026-03-28T13:34:31.999Z</time></trkpt><trkpt lat="44.77155612228559" lon="9.608416492934618"><ele>353.1666666666667</ele><time>2026-03-28T13:34:32.999Z</time></trkpt><trkpt lat="44.77148693379883" lon="9.6083885129951"><ele>353.0</ele><time>2026-03-28T13:34:33.999Z</time></trkpt><trkpt lat="44.771417943499884" lon="9.608357991525475"><ele>353.0</ele><time>2026-03-28T13:34:34.999Z</time></trkpt><trkpt lat="44.77134887561997" lon="9.60832826556668"><ele>353.0</ele><time>2026-03-28T13:34:35.999Z</time></trkpt><trkpt lat="44.77127933460111" lon="9.60829728635489"><ele>353.0</ele><time>2026-03-28T13:34:36.999Z</time></trkpt><trkpt lat="44.77120970201591" lon="9.608270340157494"><ele>353.0</ele><time>2026-03-28T13:34:37.999Z</time></trkpt><trkpt lat="44.77113992923815" lon="9.608240840580509"><ele>353.0</ele><time>2026-03-28T13:34:38.999Z</time></trkpt><trkpt lat="44.7710688319058" lon="9.608215139179999"><ele>353.0</ele><time>2026-03-28T13:34:39.999Z</time></trkpt><trkpt lat="44.77099745370918" lon="9.608186539324992"><ele>353.0</ele><time>2026-03-28T13:34:40.999Z</time></trkpt><trkpt lat="44.770924733994846" lon="9.608159304254986"><ele>353.1428571428571</ele><time>2026-03-28T13:34:41.999Z</time></trkpt><trkpt lat="44.77085144536506" lon="9.608135792162482"><ele>353.28571428571433</ele><time>2026-03-28T13:34:42.999Z</time></trkpt><trkpt lat="44.77077795947535" lon="9.60810932473767"><ele>353.42857142857144</ele><time>2026-03-28T13:34:43.999Z</time></trkpt><trkpt lat="44.770706674577454" lon="9.608083574743628"><ele>353.57142857142856</ele><time>2026-03-28T13:34:44.999Z</time></trkpt><trkpt lat="44.77063768422129" lon="9.608057556092067"><ele>353.71428571428567</ele><time>2026-03-28T13:34:45.999Z</time></trkpt><trkpt lat="44.77056927186146" lon="9.60803187659978"><ele>353.8571428571429</ele><time>2026-03-28T13:34:46.999Z</time></trkpt><trkpt lat="44.770504003704424" lon="9.608005510923617"><ele>354.0</ele><time>2026-03-28T13:34:47.999Z</time></trkpt><trkpt lat="44.77044339562659" lon="9.607972493827146"><ele>354.0</ele><time>2026-03-28T13:34:48.999Z</time></trkpt><trkpt lat="44.770337800727816" lon="9.607893862780136"><ele>354.0</ele><time>2026-03-28T13:34:50.999Z</time></trkpt><trkpt lat="44.77024538333703" lon="9.607804893653597"><ele>354.0</ele><time>2026-03-28T13:34:52.999Z</time></trkpt><trkpt lat="44.77016998588083" lon="9.607703556427547"><ele>354.0</ele><time>2026-03-28T13:34:54.999Z</time></trkpt><trkpt lat="44.770123729965206" lon="9.60757727600321"><ele>354.0</ele><time>2026-03-28T13:34:56.999Z</time></trkpt><trkpt lat="44.770103202287125" lon="9.607438486617907"><ele>353.6</ele><time>2026-03-28T13:34:58.999Z</time></trkpt><trkpt lat="44.77007364258057" lon="9.607298174694638"><ele>353.2</ele><time>2026-03-28T13:35:00.999Z</time></trkpt><trkpt lat="44.770051897330454" lon="9.60716839449474"><ele>352.8</ele><time>2026-03-28T13:35:02.999Z</time></trkpt><trkpt lat="44.77002485842798" lon="9.607032037791877"><ele>352.40000000000003</ele><time>2026-03-28T13:35:04.999Z</time></trkpt><trkpt lat="44.76999117010672" lon="9.606890322992562"><ele>352.0</ele><time>2026-03-28T13:35:06.999Z</time></trkpt><trkpt lat="44.76995026427856" lon="9.606764859044434"><ele>351.8333333333333</ele><time>2026-03-28T13:35:08.999Z</time></trkpt><trkpt lat="44.76990017942731" lon="9.606649439923125"><ele>351.66666666666663</ele><time>2026-03-28T13:35:10.999Z</time></trkpt><trkpt lat="44.769862546681296" lon="9.606545926804968"><ele>351.5</ele><time>2026-03-28T13:35:12.999Z</time></trkpt><trkpt lat="44.76982300948909" lon="9.606444123091388"><ele>351.3333333333333</ele><time>2026-03-28T13:35:14.999Z</time></trkpt><trkpt lat="44.76978191542052" lon="9.606343023336148"><ele>351.1666666666667</ele><time>2026-03-28T13:35:16.999Z</time></trkpt><trkpt lat="44.76974706198438" lon="9.606263979918955"><ele>351.0</ele><time>2026-03-28T13:35:18.999Z</time></trkpt><trkpt lat="44.769697469324974" lon="9.606183148479218"><ele>350.3333333333333</ele><time>2026-03-28T13:35:20.999Z</time></trkpt><trkpt lat="44.769639008277224" lon="9.606110923754395"><ele>349.6666666666667</ele><time>2026-03-28T13:35:22.999Z</time></trkpt><trkpt lat="44.769563058182094" lon="9.606049824583828"><ele>349.0</ele><time>2026-03-28T13:35:24.998Z</time></trkpt><trkpt lat="44.7694986200025" lon="9.60600804893517"><ele>348.33333333333337</ele><time>2026-03-28T13:35:26.998Z</time></trkpt><trkpt lat="44.76942898111411" lon="9.605973780252343"><ele>347.6666666666667</ele><time>2026-03-28T13:35:28.998Z</time></trkpt><trkpt lat="44.76935960479438" lon="9.605943296126204"><ele>347.0</ele><time>2026-03-28T13:35:30.998Z</time></trkpt><trkpt lat="44.769288570709236" lon="9.60592212202863"><ele>349.42857142857144</ele><time>2026-03-28T13:35:32.998Z</time></trkpt><trkpt lat="44.769221263968745" lon="9.605891799558263"><ele>351.85714285714283</ele><time>2026-03-28T13:35:34.998Z</time></trkpt><trkpt lat="44.7691532504976" lon="9.605869456266937"><ele>354.2857142857143</ele><time>2026-03-28T13:35:36.998Z</time></trkpt><trkpt lat="44.76908741344494" lon="9.605838803160147"><ele>356.7142857142857</ele><time>2026-03-28T13:35:38.998Z</time></trkpt><trkpt lat="44.76902081827919" lon="9.605814598285034"><ele>359.1428571428571</ele><time>2026-03-28T13:35:40.998Z</time></trkpt><trkpt lat="44.76895639719254" lon="9.60579324943291"><ele>361.57142857142856</ele><time>2026-03-28T13:35:42.998Z</time></trkpt><trkpt lat="44.76889372357341" lon="9.605769973716496"><ele>364.0</ele><time>2026-03-28T13:35:44.998Z</time></trkpt><trkpt lat="44.76879880300047" lon="9.60574758577474"><ele>364.0</ele><time>2026-03-28T13:35:47.998Z</time></trkpt><trkpt lat="44.76873279154484" lon="9.605743136785048"><ele>364.0</ele><time>2026-03-28T13:35:49.998Z</time></trkpt><trkpt lat="44.768638625266156" lon="9.605745085427355"><ele>364.0</ele><time>2026-03-28T13:35:52.998Z</time></trkpt><trkpt lat="44.76857470008463" lon="9.605746699094151"><ele>364.0</ele><time>2026-03-28T13:35:54.998Z</time></trkpt><trkpt lat="44.768481892527646" lon="9.605748746160756"><ele>364.0</ele><time>2026-03-28T13:35:57.998Z</time></trkpt><trkpt lat="44.76841865875051" lon="9.605746044791026"><ele>364.0</ele><time>2026-03-28T13:35:59.998Z</time></trkpt><trkpt lat="44.76835563002494" lon="9.605733916761439"><ele>364.0</ele><time>2026-03-28T13:36:01.998Z</time></trkpt><trkpt lat="44.76826839760016" lon="9.605709536357859"><ele>365.0</ele><time>2026-03-28T13:36:04.998Z</time></trkpt><trkpt lat="44.76818245902181" lon="9.605677308122656"><ele>366.0</ele><time>2026-03-28T13:36:07.998Z</time></trkpt><trkpt lat="44.768116804252145" lon="9.60564342268355"><ele>367.0</ele><time>2026-03-28T13:36:10.998Z</time></trkpt><trkpt lat="44.76800650957716" lon="9.605585588114128"><ele>368.0</ele><time>2026-03-28T13:36:13Z</time></trkpt><trkpt lat="44.767919093580325" lon="9.605611000878929"><ele>369.0</ele><time>2026-03-28T13:36:16Z</time></trkpt><trkpt lat="44.76787257242934" lon="9.605675366635893"><ele>370.0</ele><time>2026-03-28T13:36:18Z</time></trkpt><trkpt lat="44.76784071979162" lon="9.605751875257878"><ele>370.0</ele><time>2026-03-28T13:36:20Z</time></trkpt><trkpt lat="44.76784115019959" lon="9.605852220465136"><ele>370.0</ele><time>2026-03-28T13:36:22Z</time></trkpt><trkpt lat="44.767880827839036" lon="9.605936192168734"><ele>370.0</ele><time>2026-03-28T13:36:24Z</time></trkpt><trkpt lat="44.76794093037482" lon="9.605988852880536"><ele>370.0</ele><time>2026-03-28T13:36:26Z</time></trkpt><trkpt lat="44.76800705473273" lon="9.60603114679222"><ele>370.0</ele><time>2026-03-28T13:36:28Z</time></trkpt><trkpt lat="44.76808419715217" lon="9.606084562928286"><ele>370.0</ele><time>2026-03-28T13:36:31Z</time></trkpt><trkpt lat="44.768164180463245" lon="9.606132537191746"><ele>370.0</ele><time>2026-03-28T13:36:34Z</time></trkpt><trkpt lat="44.76822980075808" lon="9.606158986950875"><ele>370.0</ele><time>2026-03-28T13:36:35.999Z</time></trkpt><trkpt lat="44.768296062362424" lon="9.606257632941162"><ele>370.0</ele><time>2026-03-28T13:36:38.999Z</time></trkpt><trkpt lat="44.7682984184678" lon="9.606347989479081"><ele>370.0</ele><time>2026-03-28T13:36:40.999Z</time></trkpt><trkpt lat="44.76825264473721" lon="9.606463553258584"><ele>370.0</ele><time>2026-03-28T13:36:43.999Z</time></trkpt><trkpt lat="44.76816676338437" lon="9.606516743174911"><ele>370.0</ele><time>2026-03-28T13:36:46.999Z</time></trkpt><trkpt lat="44.76810370408285" lon="9.606535679367964"><ele>371.3333333333333</ele><time>2026-03-28T13:36:48.999Z</time></trkpt><trkpt lat="44.7680366141917" lon="9.606549977601741"><ele>372.66666666666663</ele><time>2026-03-28T13:36:50.999Z</time></trkpt><trkpt lat="44.76796839302131" lon="9.606560368585097"><ele>374.0</ele><time>2026-03-28T13:36:52.999Z</time></trkpt><trkpt lat="44.767886693279294" lon="9.60656963793958"><ele>375.3333333333333</ele><time>2026-03-28T13:36:54.999Z</time></trkpt><trkpt lat="44.767789076630606" lon="9.606577793595253"><ele>376.6666666666667</ele><time>2026-03-28T13:36:56.999Z</time></trkpt><trkpt lat="44.767697847621086" lon="9.606578472424236"><ele>378.0</ele><time>2026-03-28T13:36:58.999Z</time></trkpt><trkpt lat="44.76760019389835" lon="9.606596930297634"><ele>378.3333333333333</ele><time>2026-03-28T13:37:00.999Z</time></trkpt><trkpt lat="44.7675169350889" lon="9.606634273762227"><ele>378.6666666666667</ele><time>2026-03-28T13:37:02.999Z</time></trkpt><trkpt lat="44.76744045128059" lon="9.606682733052901"><ele>379.0</ele><time>2026-03-28T13:37:04.999Z</time></trkpt><trkpt lat="44.76736669644473" lon="9.606737131876212"><ele>379.33333333333337</ele><time>2026-03-28T13:37:06.999Z</time></trkpt><trkpt lat="44.76729239949364" lon="9.606796015357547"><ele>379.6666666666667</ele><time>2026-03-28T13:37:08.999Z</time></trkpt><trkpt lat="44.767221469579304" lon="9.606859676814048"><ele>380.0</ele><time>2026-03-28T13:37:10.999Z</time></trkpt><trkpt lat="44.76714545696246" lon="9.606929020216214"><ele>382.0</ele><time>2026-03-28T13:37:12.999Z</time></trkpt><trkpt lat="44.76706455623945" lon="9.606997093614067"><ele>384.0</ele><time>2026-03-28T13:37:14.999Z</time></trkpt><trkpt lat="44.76698132494396" lon="9.607056501774773"><ele>386.0</ele><time>2026-03-28T13:37:16.999Z</time></trkpt><trkpt lat="44.766882109071204" lon="9.607091882297569"><ele>388.0</ele><time>2026-03-28T13:37:18.999Z</time></trkpt><trkpt lat="44.7667908488328" lon="9.60707166598515"><ele>390.0</ele><time>2026-03-28T13:37:20.999Z</time></trkpt><trkpt lat="44.766732575042326" lon="9.607015256617547"><ele>388.3333333333333</ele><time>2026-03-28T13:37:22.999Z</time></trkpt><trkpt lat="44.766662088791506" lon="9.606927786080142"><ele>386.6666666666667</ele><time>2026-03-28T13:37:25.999Z</time></trkpt><trkpt lat="44.76659521328142" lon="9.606842417514198"><ele>385.0</ele><time>2026-03-28T13:37:28.998Z</time></trkpt><trkpt lat="44.766545336505764" lon="9.606781785985628"><ele>383.33333333333337</ele><time>2026-03-28T13:37:30.998Z</time></trkpt><trkpt lat="44.76648845509177" lon="9.606719954075967"><ele>381.6666666666667</ele><time>2026-03-28T13:37:32.998Z</time></trkpt><trkpt lat="44.7664194706348" lon="9.606661082552506"><ele>380.0</ele><time>2026-03-28T13:37:34.998Z</time></trkpt><trkpt lat="44.76634210897451" lon="9.606635264897298"><ele>380.0</ele><time>2026-03-28T13:37:36.998Z</time></trkpt><trkpt lat="44.76626757059208" lon="9.606643349579304"><ele>380.0</ele><time>2026-03-28T13:37:39.998Z</time></trkpt><trkpt lat="44.766202746041486" lon="9.606653946718483"><ele>380.0</ele><time>2026-03-28T13:37:41.998Z</time></trkpt><trkpt lat="44.766098413111386" lon="9.606681334339807"><ele>380.0</ele><time>2026-03-28T13:37:43.998Z</time></trkpt><trkpt lat="44.76603345027368" lon="9.606699051449054"><ele>380.0</ele><time>2026-03-28T13:37:45.998Z</time></trkpt><trkpt lat="44.765967013892464" lon="9.60672054399035"><ele>380.0</ele><time>2026-03-28T13:37:47.998Z</time></trkpt><trkpt lat="44.765891949423256" lon="9.606745341153173"><ele>380.7142857142857</ele><time>2026-03-28T13:37:50.998Z</time></trkpt><trkpt lat="44.7658235877456" lon="9.606772118039387"><ele>381.42857142857144</ele><time>2026-03-28T13:37:52.998Z</time></trkpt><trkpt lat="44.76574863370059" lon="9.606817747934674"><ele>382.1428571428571</ele><time>2026-03-28T13:37:55.998Z</time></trkpt><trkpt lat="44.7656752774214" lon="9.606851537428158"><ele>382.8571428571429</ele><time>2026-03-28T13:37:58.998Z</time></trkpt><trkpt lat="44.765612440517735" lon="9.606889607979763"><ele>383.57142857142856</ele><time>2026-03-28T13:38:01.998Z</time></trkpt><trkpt lat="44.765551007412896" lon="9.606922494623417"><ele>384.2857142857143</ele><time>2026-03-28T13:38:04.998Z</time></trkpt><trkpt lat="44.76548773296688" lon="9.606966663813294"><ele>385.0</ele><time>2026-03-28T13:38:07.998Z</time></trkpt><trkpt lat="44.765418208856545" lon="9.60701815177572"><ele>386.83333333333337</ele><time>2026-03-28T13:38:10.998Z</time></trkpt><trkpt lat="44.765361431258675" lon="9.607065588064655"><ele>388.6666666666667</ele><time>2026-03-28T13:38:13.998Z</time></trkpt><trkpt lat="44.765296797743396" lon="9.607109109867892"><ele>390.5</ele><time>2026-03-28T13:38:16.998Z</time></trkpt><trkpt lat="44.76522844691137" lon="9.607161084421229"><ele>392.33333333333337</ele><time>2026-03-28T13:38:20Z</time></trkpt><trkpt lat="44.765168160227084" lon="9.607211197021211"><ele>394.1666666666667</ele><time>2026-03-28T13:38:23Z</time></trkpt><trkpt lat="44.76509685684586" lon="9.607272158555011"><ele>396.0</ele><time>2026-03-28T13:38:26Z</time></trkpt><trkpt lat="44.76501854413787" lon="9.607348004259698"><ele>396.1666666666667</ele><time>2026-03-28T13:38:29Z</time></trkpt><trkpt lat="44.76496036414205" lon="9.607402816196547"><ele>396.33333333333337</ele><time>2026-03-28T13:38:31Z</time></trkpt><trkpt lat="44.7648939441021" lon="9.607472847616737"><ele>396.5</ele><time>2026-03-28T13:38:34Z</time></trkpt><trkpt lat="44.76483465118296" lon="9.607539773398356"><ele>396.6666666666667</ele><time>2026-03-28T13:38:37Z</time></trkpt><trkpt lat="44.764773147107064" lon="9.60760038505124"><ele>396.83333333333337</ele><time>2026-03-28T13:38:39.999Z</time></trkpt><trkpt lat="44.76470303949733" lon="9.607641177127205"><ele>397.0</ele><time>2026-03-28T13:38:42.999Z</time></trkpt><trkpt lat="44.764627249014886" lon="9.607630543038754"><ele>397.00000000000006</ele><time>2026-03-28T13:38:45.999Z</time></trkpt><trkpt lat="44.764547857854424" lon="9.607579299384115"><ele>397.0</ele><time>2026-03-28T13:38:48.999Z</time></trkpt><trkpt lat="44.76446302600482" lon="9.607534001937792"><ele>397.0</ele><time>2026-03-28T13:38:51.999Z</time></trkpt><trkpt lat="44.76437741114306" lon="9.60749204622835"><ele>397.0</ele><time>2026-03-28T13:38:54.999Z</time></trkpt><trkpt lat="44.764310212370575" lon="9.607468747380123"><ele>397.00000000000006</ele><time>2026-03-28T13:38:57.999Z</time></trkpt><trkpt lat="44.76423923959723" lon="9.607451981184923"><ele>397.0</ele><time>2026-03-28T13:39:00.999Z</time></trkpt><trkpt lat="44.764160328117796" lon="9.607436755207967"><ele>398.50000000000006</ele><time>2026-03-28T13:39:03.999Z</time></trkpt><trkpt lat="44.76407761710139" lon="9.607431230240024"><ele>400.0</ele><time>2026-03-28T13:39:06.999Z</time></trkpt><trkpt lat="44.76399636370221" lon="9.607434977545275"><ele>401.5</ele><time>2026-03-28T13:39:09.999Z</time></trkpt><trkpt lat="44.763912746277235" lon="9.607461143227686"><ele>403.0</ele><time>2026-03-28T13:39:12.999Z</time></trkpt><trkpt lat="44.76382867012429" lon="9.607504140422076"><ele>404.50000000000006</ele><time>2026-03-28T13:39:15.999Z</time></trkpt><trkpt lat="44.7637695171336" lon="9.607539634778814"><ele>406.0</ele><time>2026-03-28T13:39:16.999Z</time></trkpt><trkpt lat="44.76366687751095" lon="9.607600718793954"><ele>406.00000000000006</ele><time>2026-03-28T13:39:20.999Z</time></trkpt><trkpt lat="44.76360829374321" lon="9.607638301687693"><ele>406.0</ele><time>2026-03-28T13:39:22.999Z</time></trkpt><trkpt lat="44.763514769640516" lon="9.607668375748624"><ele>406.0</ele><time>2026-03-28T13:39:25.999Z</time></trkpt><trkpt lat="44.763442321131556" lon="9.607670601963953"><ele>406.0</ele><time>2026-03-28T13:39:27.999Z</time></trkpt><trkpt lat="44.76336506860873" lon="9.607680881423157"><ele>406.00000000000006</ele><time>2026-03-28T13:39:29.999Z</time></trkpt><trkpt lat="44.76329300023388" lon="9.607683233716818"><ele>406.0</ele><time>2026-03-28T13:39:31.998Z</time></trkpt><trkpt lat="44.76321854942808" lon="9.607703824379914"><ele>405.50000000000006</ele><time>2026-03-28T13:39:33.998Z</time></trkpt><trkpt lat="44.763134128042196" lon="9.607731627705315"><ele>405.0</ele><time>2026-03-28T13:39:35.998Z</time></trkpt><trkpt lat="44.76305242136749" lon="9.607789267073331"><ele>404.5</ele><time>2026-03-28T13:39:37.998Z</time></trkpt><trkpt lat="44.762995380879836" lon="9.607882399385645"><ele>404.0</ele><time>2026-03-28T13:39:39.998Z</time></trkpt><trkpt lat="44.76296110434152" lon="9.607997404907373"><ele>403.50000000000006</ele><time>2026-03-28T13:39:41.998Z</time></trkpt><trkpt lat="44.762936962642506" lon="9.6081127229269"><ele>403.0</ele><time>2026-03-28T13:39:43.998Z</time></trkpt><trkpt lat="44.762912908276036" lon="9.608228156698143"><ele>406.79999999999995</ele><time>2026-03-28T13:39:45.998Z</time></trkpt><trkpt lat="44.76288594653962" lon="9.608347115305715"><ele>410.6</ele><time>2026-03-28T13:39:47.998Z</time></trkpt><trkpt lat="44.762843728983924" lon="9.608450256022646"><ele>414.4</ele><time>2026-03-28T13:39:49.998Z</time></trkpt><trkpt lat="44.762777552889595" lon="9.608538210590575"><ele>418.20000000000005</ele><time>2026-03-28T13:39:51.998Z</time></trkpt><trkpt lat="44.762702905240964" lon="9.608613594715761"><ele>422.0</ele><time>2026-03-28T13:39:53.998Z</time></trkpt><trkpt lat="44.76261270103748" lon="9.60866136013092"><ele>422.40000000000003</ele><time>2026-03-28T13:39:55.998Z</time></trkpt><trkpt lat="44.76251128544066" lon="9.608678913914126"><ele>422.8</ele><time>2026-03-28T13:39:57.998Z</time></trkpt><trkpt lat="44.76241079883885" lon="9.608649694731605"><ele>423.2</ele><time>2026-03-28T13:39:59.998Z</time></trkpt><trkpt lat="44.762317745527916" lon="9.608596019366642"><ele>423.6</ele><time>2026-03-28T13:40:01.998Z</time></trkpt><trkpt lat="44.7622269156086" lon="9.608520959565121"><ele>424.0</ele><time>2026-03-28T13:40:03.998Z</time></trkpt><trkpt lat="44.76215409522379" lon="9.608412570345736"><ele>420.5</ele><time>2026-03-28T13:40:05.998Z</time></trkpt><trkpt lat="44.76211923076376" lon="9.608256079328944"><ele>417.0</ele><time>2026-03-28T13:40:07.998Z</time></trkpt><trkpt lat="44.76209093225329" lon="9.608099183745288"><ele>413.5</ele><time>2026-03-28T13:40:09.998Z</time></trkpt><trkpt lat="44.76205983699494" lon="9.607936137416477"><ele>410.0</ele><time>2026-03-28T13:40:11.998Z</time></trkpt><trkpt lat="44.76203305246484" lon="9.607783402376992"><ele>410.2</ele><time>2026-03-28T13:40:13.998Z</time></trkpt><trkpt lat="44.76202593116209" lon="9.607632509457451"><ele>410.4</ele><time>2026-03-28T13:40:15.998Z</time></trkpt><trkpt lat="44.76202278147884" lon="9.607480871591456"><ele>410.6</ele><time>2026-03-28T13:40:17.998Z</time></trkpt><trkpt lat="44.761982925504604" lon="9.607363526037345"><ele>410.8</ele><time>2026-03-28T13:40:19.998Z</time></trkpt><trkpt lat="44.761886298467694" lon="9.607330711405146"><ele>411.0</ele><time>2026-03-28T13:40:21.998Z</time></trkpt><trkpt lat="44.761784940548125" lon="9.607364421271093"><ele>411.0</ele><time>2026-03-28T13:40:24Z</time></trkpt><trkpt lat="44.76171574863762" lon="9.60743993710819"><ele>411.0</ele><time>2026-03-28T13:40:26Z</time></trkpt><trkpt lat="44.76165631445734" lon="9.607514323096266"><ele>411.0</ele><time>2026-03-28T13:40:28Z</time></trkpt><trkpt lat="44.76159675757417" lon="9.607588024015117"><ele>411.0</ele><time>2026-03-28T13:40:30Z</time></trkpt><trkpt lat="44.76155852777619" lon="9.607689130588257"><ele>411.0</ele><time>2026-03-28T13:40:32Z</time></trkpt><trkpt lat="44.76149666298516" lon="9.607749266161594"><ele>411.0</ele><time>2026-03-28T13:40:34Z</time></trkpt><trkpt lat="44.76143308698008" lon="9.607804459164146"><ele>412.57142857142856</ele><time>2026-03-28T13:40:36Z</time></trkpt><trkpt lat="44.761366843675724" lon="9.607837762181061"><ele>414.1428571428571</ele><time>2026-03-28T13:40:38Z</time></trkpt><trkpt lat="44.7612994694742" lon="9.607859838263808"><ele>415.7142857142857</ele><time>2026-03-28T13:40:40Z</time></trkpt><trkpt lat="44.76123468518322" lon="9.607869871666281"><ele>417.2857142857143</ele><time>2026-03-28T13:40:42Z</time></trkpt><trkpt lat="44.76116866856986" lon="9.607881440365635"><ele>418.8571428571429</ele><time>2026-03-28T13:40:43.999Z</time></trkpt><trkpt lat="44.76110022550178" lon="9.607903957032676"><ele>420.42857142857144</ele><time>2026-03-28T13:40:45.999Z</time></trkpt><trkpt lat="44.761029795597814" lon="9.607934423286505"><ele>422.0</ele><time>2026-03-28T13:40:47.999Z</time></trkpt><trkpt lat="44.76096527505194" lon="9.607971834159946"><ele>422.49999999999994</ele><time>2026-03-28T13:40:49.999Z</time></trkpt><trkpt lat="44.760897158531236" lon="9.608014185770367"><ele>423.0</ele><time>2026-03-28T13:40:51.999Z</time></trkpt><trkpt lat="44.76081743613936" lon="9.60803209026232"><ele>423.5</ele><time>2026-03-28T13:40:53.999Z</time></trkpt><trkpt lat="44.76073912721835" lon="9.608018576115546"><ele>424.0</ele><time>2026-03-28T13:40:55.999Z</time></trkpt><trkpt lat="44.76066101228788" lon="9.607972405543242"><ele>424.49999999999994</ele><time>2026-03-28T13:40:57.999Z</time></trkpt><trkpt lat="44.76060026334921" lon="9.607901228636706"><ele>425.0</ele><time>2026-03-28T13:40:59.999Z</time></trkpt><trkpt lat="44.76054226579332" lon="9.6078268136069"><ele>423.3333333333333</ele><time>2026-03-28T13:41:01.999Z</time></trkpt><trkpt lat="44.7604915825515" lon="9.607749117567185"><ele>421.66666666666663</ele><time>2026-03-28T13:41:03.999Z</time></trkpt><trkpt lat="44.76044094948935" lon="9.607672696221975"><ele>420.0</ele><time>2026-03-28T13:41:05.999Z</time></trkpt><trkpt lat="44.760389410781634" lon="9.607594536132488"><ele>418.33333333333337</ele><time>2026-03-28T13:41:07.999Z</time></trkpt><trkpt lat="44.76033921920563" lon="9.607515931581181"><ele>416.6666666666667</ele><time>2026-03-28T13:41:09.999Z</time></trkpt><trkpt lat="44.760285968105265" lon="9.60743918357937"><ele>415.0</ele><time>2026-03-28T13:41:11.999Z</time></trkpt><trkpt lat="44.760230073230645" lon="9.60736350534268"><ele>416.6</ele><time>2026-03-28T13:41:13.999Z</time></trkpt><trkpt lat="44.76016203105299" lon="9.607319217373963"><ele>418.2</ele><time>2026-03-28T13:41:16.999Z</time></trkpt><trkpt lat="44.76002334432039" lon="9.607285658674003"><ele>419.79999999999995</ele><time>2026-03-28T13:41:18.999Z</time></trkpt><trkpt lat="44.75996131259208" lon="9.60736737751057"><ele>421.4</ele><time>2026-03-28T13:41:20.999Z</time></trkpt><trkpt lat="44.75992466236361" lon="9.607466550185565"><ele>423.0</ele><time>2026-03-28T13:41:22.999Z</time></trkpt><trkpt lat="44.75990628675205" lon="9.607573489203851"><ele>423.0</ele><time>2026-03-28T13:41:24.999Z</time></trkpt><trkpt lat="44.75988773282282" lon="9.60767398456916"><ele>423.0</ele><time>2026-03-28T13:41:26.999Z</time></trkpt><trkpt lat="44.75986835723095" lon="9.607771118131723"><ele>423.0</ele><time>2026-03-28T13:41:28.999Z</time></trkpt><trkpt lat="44.75984999210691" lon="9.607860430756268"><ele>423.0</ele><time>2026-03-28T13:41:30.999Z</time></trkpt><trkpt lat="44.75982792584811" lon="9.607952094738879"><ele>423.0</ele><time>2026-03-28T13:41:32.999Z</time></trkpt><trkpt lat="44.759804159900064" lon="9.608044233359609"><ele>423.0</ele><time>2026-03-28T13:41:34.998Z</time></trkpt><trkpt lat="44.759783732575215" lon="9.608132718011866"><ele>423.0</ele><time>2026-03-28T13:41:36.998Z</time></trkpt><trkpt lat="44.75975420374994" lon="9.60825779016872"><ele>424.0</ele><time>2026-03-28T13:41:39.998Z</time></trkpt><trkpt lat="44.759735250799594" lon="9.608347834312728"><ele>425.0</ele><time>2026-03-28T13:41:41.998Z</time></trkpt><trkpt lat="44.75970967871861" lon="9.6084378749405"><ele>426.0</ele><time>2026-03-28T13:41:43.998Z</time></trkpt><trkpt lat="44.75968487482897" lon="9.608525626867879"><ele>427.0</ele><time>2026-03-28T13:41:45.998Z</time></trkpt><trkpt lat="44.75965965620579" lon="9.608615852398655"><ele>428.0</ele><time>2026-03-28T13:41:47.998Z</time></trkpt><trkpt lat="44.75963735423701" lon="9.60870071442611"><ele>429.0</ele><time>2026-03-28T13:41:49.998Z</time></trkpt><trkpt lat="44.75960598328287" lon="9.608782227958297"><ele>430.0</ele><time>2026-03-28T13:41:51.998Z</time></trkpt><trkpt lat="44.75956378050155" lon="9.608899487392742"><ele>430.6666666666667</ele><time>2026-03-28T13:41:54.998Z</time></trkpt><trkpt lat="44.759517112881625" lon="9.609015724548955"><ele>431.33333333333337</ele><time>2026-03-28T13:41:57.998Z</time></trkpt><trkpt lat="44.75946715700252" lon="9.609129445182393"><ele>432.0</ele><time>2026-03-28T13:42:00.998Z</time></trkpt><trkpt lat="44.75941047305629" lon="9.609243601513072"><ele>432.66666666666663</ele><time>2026-03-28T13:42:03.998Z</time></trkpt><trkpt lat="44.759368383182725" lon="9.60932138977276"><ele>433.3333333333333</ele><time>2026-03-28T13:42:05.998Z</time></trkpt><trkpt lat="44.75931398830795" lon="9.609379969222225"><ele>434.0</ele><time>2026-03-28T13:42:07.998Z</time></trkpt><trkpt lat="44.75925796469647" lon="9.609421833660644"><ele>433.99999999999994</ele><time>2026-03-28T13:42:09.998Z</time></trkpt><trkpt lat="44.75919794178207" lon="9.60945182556481"><ele>434.0</ele><time>2026-03-28T13:42:11.998Z</time></trkpt><trkpt lat="44.759134624388864" lon="9.609472635253503"><ele>434.0</ele><time>2026-03-28T13:42:13.998Z</time></trkpt><trkpt lat="44.759040294051374" lon="9.609461398006912"><ele>434.0</ele><time>2026-03-28T13:42:16.998Z</time></trkpt><trkpt lat="44.75898021594884" lon="9.60943253740256"><ele>433.99999999999994</ele><time>2026-03-28T13:42:18.998Z</time></trkpt><trkpt lat="44.75889095413923" lon="9.609405081755341"><ele>434.0</ele><time>2026-03-28T13:42:21.998Z</time></trkpt><trkpt lat="44.758807884853866" lon="9.609365261281365"><ele>433.99999999999994</ele><time>2026-03-28T13:42:24.998Z</time></trkpt><trkpt lat="44.758726295191764" lon="9.609338542583481"><ele>434.0</ele><time>2026-03-28T13:42:27.997Z</time></trkpt><trkpt lat="44.758647838612994" lon="9.609315724054015"><ele>434.0</ele><time>2026-03-28T13:42:31Z</time></trkpt><trkpt lat="44.75856113301404" lon="9.609289059796795"><ele>434.0</ele><time>2026-03-28T13:42:34Z</time></trkpt><trkpt lat="44.758472646723895" lon="9.609262173325986"><ele>433.99999999999994</ele><time>2026-03-28T13:42:37Z</time></trkpt><trkpt lat="44.75838990814636" lon="9.609235810939978"><ele>434.0</ele><time>2026-03-28T13:42:40Z</time></trkpt><trkpt lat="44.758304803283416" lon="9.609214714728122"><ele>435.16666666666663</ele><time>2026-03-28T13:42:43Z</time></trkpt><trkpt lat="44.75824210764822" lon="9.609201510505288"><ele>436.3333333333333</ele><time>2026-03-28T13:42:45Z</time></trkpt><trkpt lat="44.758175766412926" lon="9.609202673751016"><ele>437.5</ele><time>2026-03-28T13:42:46.999Z</time></trkpt><trkpt lat="44.75809678307731" lon="9.609235098823865"><ele>438.66666666666663</ele><time>2026-03-28T13:42:49.999Z</time></trkpt><trkpt lat="44.75802086360916" lon="9.60929812033971"><ele>439.8333333333333</ele><time>2026-03-28T13:42:52.999Z</time></trkpt><trkpt lat="44.75796858065607" lon="9.609390583097811"><ele>441.0</ele><time>2026-03-28T13:42:55.999Z</time></trkpt><trkpt lat="44.75793384491647" lon="9.609482779712776"><ele>442.42857142857144</ele><time>2026-03-28T13:42:58.999Z</time></trkpt><trkpt lat="44.75791077086144" lon="9.609577990501519"><ele>443.8571428571429</ele><time>2026-03-28T13:43:01.999Z</time></trkpt><trkpt lat="44.75787916572227" lon="9.609670273711398"><ele>445.2857142857143</ele><time>2026-03-28T13:43:04.999Z</time></trkpt><trkpt lat="44.75785523348293" lon="9.6097619310845"><ele>446.7142857142857</ele><time>2026-03-28T13:43:07.999Z</time></trkpt><trkpt lat="44.75782783169982" lon="9.60985191974424"><ele>448.14285714285717</ele><time>2026-03-28T13:43:10.999Z</time></trkpt><trkpt lat="44.75780338000509" lon="9.60994993825354"><ele>449.57142857142856</ele><time>2026-03-28T13:43:14.999Z</time></trkpt><trkpt lat="44.75778214872537" lon="9.610041615602485"><ele>451.0</ele><time>2026-03-28T13:43:17.999Z</time></trkpt><trkpt lat="44.75776244558584" lon="9.61013434734784"><ele>451.0</ele><time>2026-03-28T13:43:20.999Z</time></trkpt><trkpt lat="44.75774191314418" lon="9.610255710769618"><ele>451.0</ele><time>2026-03-28T13:43:24.999Z</time></trkpt><trkpt lat="44.7577279287304" lon="9.61034445437971"><ele>451.0</ele><time>2026-03-28T13:43:27.999Z</time></trkpt><trkpt lat="44.75772080347502" lon="9.610439471521817"><ele>451.0</ele><time>2026-03-28T13:43:30.999Z</time></trkpt><trkpt lat="44.757721519815036" lon="9.610533925691037"><ele>451.0</ele><time>2026-03-28T13:43:33.999Z</time></trkpt><trkpt lat="44.757725584619955" lon="9.610630129211318"><ele>451.0</ele><time>2026-03-28T13:43:36.999Z</time></trkpt><trkpt lat="44.75773290768153" lon="9.610723212109912"><ele>451.0</ele><time>2026-03-28T13:43:39.998Z</time></trkpt><trkpt lat="44.75774186592381" lon="9.610843381402743"><ele>452.1666666666667</ele><time>2026-03-28T13:43:43.998Z</time></trkpt><trkpt lat="44.75774800632584" lon="9.610949377934816"><ele>453.33333333333337</ele><time>2026-03-28T13:43:46.998Z</time></trkpt><trkpt lat="44.757748220233324" lon="9.611073704057658"><ele>454.5</ele><time>2026-03-28T13:43:49.998Z</time></trkpt><trkpt lat="44.75773572067102" lon="9.611163899991142"><ele>455.66666666666663</ele><time>2026-03-28T13:43:52.998Z</time></trkpt><trkpt lat="44.75771422909376" lon="9.611275641605683"><ele>456.8333333333333</ele><time>2026-03-28T13:43:55.998Z</time></trkpt><trkpt lat="44.75767808548362" lon="9.611375440280327"><ele>458.0</ele><time>2026-03-28T13:43:58.998Z</time></trkpt><trkpt lat="44.75764593225082" lon="9.61146912513142"><ele>459.16666666666663</ele><time>2026-03-28T13:44:01.998Z</time></trkpt><trkpt lat="44.75760879631704" lon="9.611561420707078"><ele>460.3333333333333</ele><time>2026-03-28T13:44:04.998Z</time></trkpt><trkpt lat="44.757569989830905" lon="9.611647900425988"><ele>461.5</ele><time>2026-03-28T13:44:07.998Z</time></trkpt><trkpt lat="44.75752683143473" lon="9.611735013701816"><ele>462.66666666666663</ele><time>2026-03-28T13:44:10.998Z</time></trkpt><trkpt lat="44.75748369375397" lon="9.611815688834994"><ele>463.8333333333333</ele><time>2026-03-28T13:44:13.998Z</time></trkpt><trkpt lat="44.75743802629189" lon="9.611900972265714"><ele>465.0</ele><time>2026-03-28T13:44:16.998Z</time></trkpt><trkpt lat="44.75738015666597" lon="9.611978779150142"><ele>465.85714285714283</ele><time>2026-03-28T13:44:19.998Z</time></trkpt><trkpt lat="44.75732072237535" lon="9.612040152890302"><ele>466.7142857142858</ele><time>2026-03-28T13:44:22.998Z</time></trkpt><trkpt lat="44.757259029068564" lon="9.6120945273545"><ele>467.5714285714286</ele><time>2026-03-28T13:44:25.998Z</time></trkpt><trkpt lat="44.75720655791935" lon="9.612175306290913"><ele>468.42857142857144</ele><time>2026-03-28T13:44:29.998Z</time></trkpt><trkpt lat="44.757193298972645" lon="9.612267050705519"><ele>469.28571428571433</ele><time>2026-03-28T13:44:31.997Z</time></trkpt><trkpt lat="44.75724163682407" lon="9.612350786287193"><ele>470.1428571428572</ele><time>2026-03-28T13:44:35Z</time></trkpt><trkpt lat="44.75730293388332" lon="9.612408471184088"><ele>471.00000000000006</ele><time>2026-03-28T13:44:38Z</time></trkpt><trkpt lat="44.757370978944614" lon="9.612460329367567"><ele>471.0</ele><time>2026-03-28T13:44:41Z</time></trkpt><trkpt lat="44.75744082828084" lon="9.612503289588782"><ele>471.0</ele><time>2026-03-28T13:44:44Z</time></trkpt><trkpt lat="44.757517441718484" lon="9.61254214776151"><ele>471.0</ele><time>2026-03-28T13:44:47Z</time></trkpt><trkpt lat="44.757597673832954" lon="9.612569676437602"><ele>471.0</ele><time>2026-03-28T13:44:50Z</time></trkpt><trkpt lat="44.75774256428656" lon="9.612567563914785"><ele>471.0</ele><time>2026-03-28T13:44:54.999Z</time></trkpt><trkpt lat="44.757826582957826" lon="9.612554526026138"><ele>472.1666666666667</ele><time>2026-03-28T13:44:57.999Z</time></trkpt><trkpt lat="44.757901580608824" lon="9.612523876309936"><ele>473.33333333333337</ele><time>2026-03-28T13:45:01.999Z</time></trkpt><trkpt lat="44.75797569338244" lon="9.612509653526505"><ele>474.5</ele><time>2026-03-28T13:45:04.999Z</time></trkpt><trkpt lat="44.758048603561114" lon="9.61248492734439"><ele>475.6666666666667</ele><time>2026-03-28T13:45:07.999Z</time></trkpt><trkpt lat="44.758116229603516" lon="9.61247617309286"><ele>476.83333333333337</ele><time>2026-03-28T13:45:10.999Z</time></trkpt><trkpt lat="44.75819759787329" lon="9.612497954289829"><ele>478.0</ele><time>2026-03-28T13:45:12.999Z</time></trkpt><trkpt lat="44.75825473287464" lon="9.612576426999023"><ele>478.00000000000006</ele><time>2026-03-28T13:45:15.999Z</time></trkpt><trkpt lat="44.75828710121778" lon="9.612675807869559"><ele>478.0</ele><time>2026-03-28T13:45:18.999Z</time></trkpt><trkpt lat="44.758303995373865" lon="9.612774941102623"><ele>478.00000000000006</ele><time>2026-03-28T13:45:21.999Z</time></trkpt><trkpt lat="44.758323321462484" lon="9.612868957753856"><ele>478.00000000000006</ele><time>2026-03-28T13:45:24.999Z</time></trkpt><trkpt lat="44.75834631600828" lon="9.612961678424563"><ele>478.0</ele><time>2026-03-28T13:45:27.999Z</time></trkpt><trkpt lat="44.75837007518722" lon="9.613046411980708"><ele>478.00000000000006</ele><time>2026-03-28T13:45:30.999Z</time></trkpt><trkpt lat="44.758387748437904" lon="9.613136591242391"><ele>478.00000000000006</ele><time>2026-03-28T13:45:33.999Z</time></trkpt><trkpt lat="44.75840782301041" lon="9.613224013958368"><ele>479.00000000000006</ele><time>2026-03-28T13:45:36.999Z</time></trkpt><trkpt lat="44.7584283624865" lon="9.613310961402467"><ele>480.0</ele><time>2026-03-28T13:45:39.999Z</time></trkpt><trkpt lat="44.758446620569586" lon="9.613401378943285"><ele>481.00000000000006</ele><time>2026-03-28T13:45:42.998Z</time></trkpt><trkpt lat="44.758467172124476" lon="9.613487826934517"><ele>482.00000000000006</ele><time>2026-03-28T13:45:45.998Z</time></trkpt><trkpt lat="44.758495606479464" lon="9.613598442281996"><ele>483.0</ele><time>2026-03-28T13:45:49.998Z</time></trkpt><trkpt lat="44.758522051935955" lon="9.613698254949668"><ele>484.00000000000006</ele><time>2026-03-28T13:45:53.998Z</time></trkpt><trkpt lat="44.75854543911393" lon="9.613784567670573"><ele>485.00000000000006</ele><time>2026-03-28T13:45:57.998Z</time></trkpt><trkpt lat="44.758565630882664" lon="9.613876975525933"><ele>488.7142857142858</ele><time>2026-03-28T13:46:01.998Z</time></trkpt><trkpt lat="44.758592834171544" lon="9.613975244728346"><ele>492.42857142857144</ele><time>2026-03-28T13:46:05.998Z</time></trkpt><trkpt lat="44.75861320020481" lon="9.614088858503932"><ele>496.14285714285717</ele><time>2026-03-28T13:46:10.998Z</time></trkpt><trkpt lat="44.758631711075594" lon="9.614195296077991"><ele>499.8571428571429</ele><time>2026-03-28T13:46:15.998Z</time></trkpt><trkpt lat="44.758639169633504" lon="9.614289491287469"><ele>503.57142857142856</ele><time>2026-03-28T13:46:19.998Z</time></trkpt><trkpt lat="44.75864586486319" lon="9.614397587216873"><ele>507.2857142857143</ele><time>2026-03-28T13:46:24.999Z</time></trkpt><trkpt lat="44.75865409651898" lon="9.614489577339128"><ele>511.0</ele><time>2026-03-28T13:46:28.999Z</time></trkpt><trkpt lat="44.75866505084334" lon="9.614588841878492"><ele>511.57142857142856</ele><time>2026-03-28T13:46:32.999Z</time></trkpt><trkpt lat="44.75867353046424" lon="9.61469365041896"><ele>512.1428571428571</ele><time>2026-03-28T13:46:36.998Z</time></trkpt><trkpt lat="44.75869602714911" lon="9.614778929588356"><ele>512.7142857142858</ele><time>2026-03-28T13:46:41Z</time></trkpt><trkpt lat="44.758717644191435" lon="9.614870054028808"><ele>513.2857142857142</ele><time>2026-03-28T13:46:45Z</time></trkpt><trkpt lat="44.758729946352595" lon="9.61495955490209"><ele>513.8571428571429</ele><time>2026-03-28T13:46:49Z</time></trkpt><trkpt lat="44.75872546160336" lon="9.615050183928489"><ele>514.4285714285714</ele><time>2026-03-28T13:46:53Z</time></trkpt><trkpt lat="44.75870967918534" lon="9.615145840463907"><ele>515.0</ele><time>2026-03-28T13:46:57Z</time></trkpt><trkpt lat="44.75868194138741" lon="9.615253077706187"><ele>515.8571428571429</ele><time>2026-03-28T13:47:02Z</time></trkpt><trkpt lat="44.758652001898625" lon="9.615342015102355"><ele>516.7142857142857</ele><time>2026-03-28T13:47:06Z</time></trkpt><trkpt lat="44.75862439645507" lon="9.615452786718112"><ele>517.5714285714286</ele><time>2026-03-28T13:47:10Z</time></trkpt><trkpt lat="44.75863488896045" lon="9.615542341683787"><ele>518.4285714285714</ele><time>2026-03-28T13:47:14Z</time></trkpt><trkpt lat="44.75868739028137" lon="9.615606773303783"><ele>519.2857142857143</ele><time>2026-03-28T13:47:17Z</time></trkpt><trkpt lat="44.75875606165344" lon="9.61561151040026"><ele>520.1428571428571</ele><time>2026-03-28T13:47:21Z</time></trkpt><trkpt lat="44.75882011733532" lon="9.615572341837558"><ele>521.0</ele><time>2026-03-28T13:47:24Z</time></trkpt><trkpt lat="44.75887855726581" lon="9.615521138333934"><ele>521.0</ele><time>2026-03-28T13:47:28Z</time></trkpt><trkpt lat="44.75893097244592" lon="9.615460432548963"><ele>521.0</ele><time>2026-03-28T13:47:31Z</time></trkpt><trkpt lat="44.75899625192277" lon="9.615394609820147"><ele>521.0</ele><time>2026-03-28T13:47:34Z</time></trkpt><trkpt lat="44.75906074617056" lon="9.6153435470255"><ele>521.0</ele><time>2026-03-28T13:47:38Z</time></trkpt><trkpt lat="44.75911905059559" lon="9.615293558080847"><ele>521.0</ele><time>2026-03-28T13:47:41Z</time></trkpt><trkpt lat="44.75917775611625" lon="9.61525159986655"><ele>521.0</ele><time>2026-03-28T13:47:44Z</time></trkpt><trkpt lat="44.75925553717482" lon="9.615224342871707"><ele>521.0</ele><time>2026-03-28T13:47:46.999Z</time></trkpt><trkpt lat="44.759320120461986" lon="9.615234133433102"><ele>521.0</ele><time>2026-03-28T13:47:49.999Z</time></trkpt><trkpt lat="44.75936746382957" lon="9.6152950702994"><ele>521.0</ele><time>2026-03-28T13:47:52.999Z</time></trkpt><trkpt lat="44.75937811266638" lon="9.615383125601138"><ele>521.0</ele><time>2026-03-28T13:47:55.999Z</time></trkpt><trkpt lat="44.759340067594984" lon="9.615470322885423"><ele>521.0</ele><time>2026-03-28T13:47:58.999Z</time></trkpt><trkpt lat="44.75927618762139" lon="9.615549190598955"><ele>521.0</ele><time>2026-03-28T13:48:01.999Z</time></trkpt><trkpt lat="44.75922354695361" lon="9.6156034622801"><ele>521.0</ele><time>2026-03-28T13:48:03.999Z</time></trkpt><trkpt lat="44.759166734411636" lon="9.615664530114554"><ele>521.0</ele><time>2026-03-28T13:48:05.999Z</time></trkpt><trkpt lat="44.759099296475995" lon="9.615734150131354"><ele>521.0</ele><time>2026-03-28T13:48:07.999Z</time></trkpt><trkpt lat="44.759037833612744" lon="9.615807626049218"><ele>521.0</ele><time>2026-03-28T13:48:10.999Z</time></trkpt><trkpt lat="44.75896457480312" lon="9.615892428315103"><ele>521.0</ele><time>2026-03-28T13:48:13.999Z</time></trkpt><trkpt lat="44.75889489722823" lon="9.615972869643725"><ele>521.0</ele><time>2026-03-28T13:48:15.999Z</time></trkpt><trkpt lat="44.758827097820586" lon="9.616058363889875"><ele>521.0</ele><time>2026-03-28T13:48:17.999Z</time></trkpt><trkpt lat="44.75877359889187" lon="9.616116142828947"><ele>521.0</ele><time>2026-03-28T13:48:19.999Z</time></trkpt><trkpt lat="44.75871337308275" lon="9.616165506036966"><ele>522.5714285714286</ele><time>2026-03-28T13:48:21.999Z</time></trkpt><trkpt lat="44.75865225591413" lon="9.616207210753375"><ele>524.1428571428571</ele><time>2026-03-28T13:48:23.999Z</time></trkpt><trkpt lat="44.75859344426179" lon="9.61624439773384"><ele>525.7142857142858</ele><time>2026-03-28T13:48:25.999Z</time></trkpt><trkpt lat="44.75853080906175" lon="9.616266436120814"><ele>527.2857142857142</ele><time>2026-03-28T13:48:27.999Z</time></trkpt><trkpt lat="44.758467200647765" lon="9.616280270095539"><ele>528.8571428571429</ele><time>2026-03-28T13:48:29.999Z</time></trkpt><trkpt lat="44.758403834581145" lon="9.61628113517613"><ele>530.4285714285714</ele><time>2026-03-28T13:48:31.999Z</time></trkpt><trkpt lat="44.75834030669951" lon="9.616277093860344"><ele>532.0</ele><time>2026-03-28T13:48:33.999Z</time></trkpt><trkpt lat="44.75827709376957" lon="9.616265427137819"><ele>532.6666666666667</ele><time>2026-03-28T13:48:35.999Z</time></trkpt><trkpt lat="44.75821158790326" lon="9.616244787003811"><ele>533.3333333333334</ele><time>2026-03-28T13:48:37.998Z</time></trkpt><trkpt lat="44.75814985011839" lon="9.616225494948244"><ele>534.0</ele><time>2026-03-28T13:48:39.998Z</time></trkpt><trkpt lat="44.758061514601444" lon="9.61617383650812"><ele>534.6666666666666</ele><time>2026-03-28T13:48:42.998Z</time></trkpt><trkpt lat="44.758003335876815" lon="9.616136686235356"><ele>535.3333333333333</ele><time>2026-03-28T13:48:44.998Z</time></trkpt><trkpt lat="44.75791242782536" lon="9.61609895346036"><ele>536.0</ele><time>2026-03-28T13:48:48Z</time></trkpt><trkpt lat="44.75784863780891" lon="9.616077951129489"><ele>534.7142857142858</ele><time>2026-03-28T13:48:50Z</time></trkpt><trkpt lat="44.75778576014971" lon="9.616068232766796"><ele>533.4285714285714</ele><time>2026-03-28T13:48:52Z</time></trkpt><trkpt lat="44.75769195185223" lon="9.616082151216993"><ele>532.1428571428571</ele><time>2026-03-28T13:48:55Z</time></trkpt><trkpt lat="44.75762709535752" lon="9.616093418113362"><ele>530.8571428571429</ele><time>2026-03-28T13:48:57Z</time></trkpt><trkpt lat="44.75756124940218" lon="9.616102367286945"><ele>529.5714285714286</ele><time>2026-03-28T13:48:59Z</time></trkpt><trkpt lat="44.757485986239764" lon="9.616099543086891"><ele>528.2857142857143</ele><time>2026-03-28T13:49:01Z</time></trkpt><trkpt lat="44.75741028084793" lon="9.61608716727268"><ele>527.0</ele><time>2026-03-28T13:49:03Z</time></trkpt><trkpt lat="44.75734786492882" lon="9.616064219073696"><ele>527.0</ele><time>2026-03-28T13:49:05Z</time></trkpt><trkpt lat="44.75726544072056" lon="9.615999676805556"><ele>527.0</ele><time>2026-03-28T13:49:08Z</time></trkpt><trkpt lat="44.75718899220713" lon="9.61592870129695"><ele>527.0</ele><time>2026-03-28T13:49:11Z</time></trkpt><trkpt lat="44.75709854614171" lon="9.615926598920295"><ele>527.0</ele><time>2026-03-28T13:49:14Z</time></trkpt><trkpt lat="44.757017077357894" lon="9.615991027011276"><ele>527.0</ele><time>2026-03-28T13:49:17Z</time></trkpt><trkpt lat="44.756951799337905" lon="9.616081355445486"><ele>530.3333333333333</ele><time>2026-03-28T13:49:20Z</time></trkpt><trkpt lat="44.75691213384082" lon="9.616155054672994"><ele>533.6666666666666</ele><time>2026-03-28T13:49:22Z</time></trkpt><trkpt lat="44.75687274069262" lon="9.616225734587779"><ele>537.0</ele><time>2026-03-28T13:49:24Z</time></trkpt><trkpt lat="44.75681432874838" lon="9.616327660616689"><ele>540.3333333333334</ele><time>2026-03-28T13:49:27Z</time></trkpt><trkpt lat="44.756755101802725" lon="9.616423492612226"><ele>543.6666666666667</ele><time>2026-03-28T13:49:30Z</time></trkpt><trkpt lat="44.75667537694004" lon="9.61649785531384"><ele>547.0</ele><time>2026-03-28T13:49:33Z</time></trkpt><trkpt lat="44.75661048410973" lon="9.616515556745618"><ele>547.1666666666667</ele><time>2026-03-28T13:49:35Z</time></trkpt><trkpt lat="44.756545657689834" lon="9.616506927555836"><ele>547.3333333333334</ele><time>2026-03-28T13:49:37Z</time></trkpt><trkpt lat="44.756477648654474" lon="9.6164614848372"><ele>547.5</ele><time>2026-03-28T13:49:40Z</time></trkpt><trkpt lat="44.75642095056254" lon="9.616372255567319"><ele>547.6666666666666</ele><time>2026-03-28T13:49:43Z</time></trkpt><trkpt lat="44.756365377337865" lon="9.616282678382273"><ele>547.8333333333333</ele><time>2026-03-28T13:49:46Z</time></trkpt><trkpt lat="44.756310714464945" lon="9.616190524215956"><ele>548.0</ele><time>2026-03-28T13:49:49Z</time></trkpt><trkpt lat="44.756246951977175" lon="9.616147398419312"><ele>549.1428571428572</ele><time>2026-03-28T13:49:51.999Z</time></trkpt><trkpt lat="44.75617603495344" lon="9.616134672754727"><ele>550.2857142857143</ele><time>2026-03-28T13:49:54.999Z</time></trkpt><trkpt lat="44.75609088715674" lon="9.616142407736673"><ele>551.4285714285714</ele><time>2026-03-28T13:49:57.999Z</time></trkpt><trkpt lat="44.756024182760754" lon="9.616190660733336"><ele>552.5714285714287</ele><time>2026-03-28T13:50:00.999Z</time></trkpt><trkpt lat="44.755985863467224" lon="9.616266745319892"><ele>553.7142857142858</ele><time>2026-03-28T13:50:03.999Z</time></trkpt><trkpt lat="44.75596439798842" lon="9.616357664413236"><ele>554.8571428571429</ele><time>2026-03-28T13:50:06.999Z</time></trkpt><trkpt lat="44.755991546695206" lon="9.616464653572557"><ele>556.0</ele><time>2026-03-28T13:50:10.999Z</time></trkpt><trkpt lat="44.75602378596152" lon="9.61655768526568"><ele>554.8571428571429</ele><time>2026-03-28T13:50:13.999Z</time></trkpt><trkpt lat="44.756051388127005" lon="9.616639948885245"><ele>553.7142857142858</ele><time>2026-03-28T13:50:16.999Z</time></trkpt><trkpt lat="44.75609501703079" lon="9.616708027724407"><ele>552.5714285714287</ele><time>2026-03-28T13:50:19.999Z</time></trkpt><trkpt lat="44.756161696985" lon="9.616807322044213"><ele>551.4285714285714</ele><time>2026-03-28T13:50:22.999Z</time></trkpt><trkpt lat="44.756216235315016" lon="9.616882587055057"><ele>550.2857142857143</ele><time>2026-03-28T13:50:25.999Z</time></trkpt><trkpt lat="44.75626911767226" lon="9.616934961008138"><ele>549.1428571428572</ele><time>2026-03-28T13:50:27.999Z</time></trkpt><trkpt lat="44.75632676260258" lon="9.616973041699838"><ele>548.0</ele><time>2026-03-28T13:50:29.999Z</time></trkpt><trkpt lat="44.75641745372402" lon="9.617011289504376"><ele>549.8333333333333</ele><time>2026-03-28T13:50:32.999Z</time></trkpt><trkpt lat="44.756508709645956" lon="9.617033966799582"><ele>551.6666666666666</ele><time>2026-03-28T13:50:35.999Z</time></trkpt><trkpt lat="44.756599613203406" lon="9.617039563602145"><ele>553.5</ele><time>2026-03-28T13:50:38.999Z</time></trkpt><trkpt lat="44.7566855116214" lon="9.617040481571742"><ele>555.3333333333334</ele><time>2026-03-28T13:50:41.999Z</time></trkpt><trkpt lat="44.756748685335644" lon="9.617042577437271"><ele>557.1666666666667</ele><time>2026-03-28T13:50:43.998Z</time></trkpt><trkpt lat="44.75684561244607" lon="9.617047467416326"><ele>559.0</ele><time>2026-03-28T13:50:46.998Z</time></trkpt><trkpt lat="44.756935649549696" lon="9.617076201752655"><ele>559.0</ele><time>2026-03-28T13:50:49.998Z</time></trkpt><trkpt lat="44.75699741425955" lon="9.617100730096237"><ele>559.0</ele><time>2026-03-28T13:50:52Z</time></trkpt><trkpt lat="44.75708783095001" lon="9.617138750225687"><ele>559.0</ele><time>2026-03-28T13:50:55Z</time></trkpt><trkpt lat="44.75717167274162" lon="9.617165059951414"><ele>559.0</ele><time>2026-03-28T13:50:58Z</time></trkpt><trkpt lat="44.757229580838" lon="9.617200876061307"><ele>559.0</ele><time>2026-03-28T13:51:00Z</time></trkpt><trkpt lat="44.75728858730491" lon="9.617293889230202"><ele>559.0</ele><time>2026-03-28T13:51:03Z</time></trkpt><trkpt lat="44.75730320839149" lon="9.617425637703118"><ele>559.0</ele><time>2026-03-28T13:51:06Z</time></trkpt><trkpt lat="44.75729455986515" lon="9.617517881285844"><ele>559.0</ele><time>2026-03-28T13:51:08Z</time></trkpt><trkpt lat="44.75728448263704" lon="9.61764883109732"><ele>559.0</ele><time>2026-03-28T13:51:11Z</time></trkpt><trkpt lat="44.75728979433781" lon="9.617784800487684"><ele>559.0</ele><time>2026-03-28T13:51:14Z</time></trkpt><trkpt lat="44.75730906087605" lon="9.617884846883825"><ele>559.0</ele><time>2026-03-28T13:51:17Z</time></trkpt><trkpt lat="44.757331953248475" lon="9.617996242995368"><ele>559.0</ele><time>2026-03-28T13:51:19Z</time></trkpt><trkpt lat="44.75736843776375" lon="9.618099069934317"><ele>560.5</ele><time>2026-03-28T13:51:22Z</time></trkpt><trkpt lat="44.757421045981246" lon="9.618200476399549"><ele>562.0</ele><time>2026-03-28T13:51:25Z</time></trkpt><trkpt lat="44.757469695690965" lon="9.618303600333325"><ele>563.5</ele><time>2026-03-28T13:51:28Z</time></trkpt><trkpt lat="44.7575173127485" lon="9.61840352121762"><ele>565.0</ele><time>2026-03-28T13:51:31Z</time></trkpt><trkpt lat="44.75756584373088" lon="9.61849678823566"><ele>566.5</ele><time>2026-03-28T13:51:34Z</time></trkpt><trkpt lat="44.75761760601557" lon="9.618587308843528"><ele>568.0</ele><time>2026-03-28T13:51:37Z</time></trkpt><trkpt lat="44.75767331807038" lon="9.618672516193687"><ele>567.0</ele><time>2026-03-28T13:51:40Z</time></trkpt><trkpt lat="44.757722629104364" lon="9.618778574579403"><ele>566.0</ele><time>2026-03-28T13:51:43Z</time></trkpt><trkpt lat="44.757762220358735" lon="9.618893382056582"><ele>565.0</ele><time>2026-03-28T13:51:46Z</time></trkpt><trkpt lat="44.7577951483137" lon="9.619008194383936"><ele>564.0</ele><time>2026-03-28T13:51:49Z</time></trkpt><trkpt lat="44.75781942966629" lon="9.619110621501973"><ele>563.0</ele><time>2026-03-28T13:51:52Z</time></trkpt><trkpt lat="44.75784058630948" lon="9.619219547167614"><ele>562.0</ele><time>2026-03-28T13:51:54.999Z</time></trkpt><trkpt lat="44.75787268948498" lon="9.61931860925907"><ele>562.0000000000001</ele><time>2026-03-28T13:51:57.999Z</time></trkpt><trkpt lat="44.757921578106256" lon="9.619414437063595"><ele>562.0</ele><time>2026-03-28T13:52:00.999Z</time></trkpt><trkpt lat="44.75796962561333" lon="9.61947494177592"><ele>562.0</ele><time>2026-03-28T13:52:02.999Z</time></trkpt><trkpt lat="44.75802340638238" lon="9.61954158355549"><ele>562.0</ele><time>2026-03-28T13:52:04.999Z</time></trkpt><trkpt lat="44.7580776372712" lon="9.61959963074757"><ele>562.0</ele><time>2026-03-28T13:52:06.999Z</time></trkpt><trkpt lat="44.75813647613924" lon="9.619665252665653"><ele>562.0000000000001</ele><time>2026-03-28T13:52:08.999Z</time></trkpt><trkpt lat="44.758193077622764" lon="9.619725808543874"><ele>562.0</ele><time>2026-03-28T13:52:10.999Z</time></trkpt><trkpt lat="44.758243835000975" lon="9.619792821911739"><ele>562.5714285714287</ele><time>2026-03-28T13:52:12.999Z</time></trkpt><trkpt lat="44.758299006984686" lon="9.619849571014367"><ele>563.1428571428571</ele><time>2026-03-28T13:52:14.999Z</time></trkpt><trkpt lat="44.758356551415815" lon="9.619906288740872"><ele>563.7142857142858</ele><time>2026-03-28T13:52:16.999Z</time></trkpt><trkpt lat="44.75841944573155" lon="9.619955144042535"><ele>564.2857142857143</ele><time>2026-03-28T13:52:18.999Z</time></trkpt><trkpt lat="44.75848451723655" lon="9.619992195639668"><ele>564.8571428571429</ele><time>2026-03-28T13:52:20.999Z</time></trkpt><trkpt lat="44.75855857225964" lon="9.620023967602133"><ele>565.4285714285714</ele><time>2026-03-28T13:52:22.999Z</time></trkpt><trkpt lat="44.75863320263554" lon="9.620055498560896"><ele>566.0</ele><time>2026-03-28T13:52:24.999Z</time></trkpt><trkpt lat="44.75870766431935" lon="9.6200925628968"><ele>566.0</ele><time>2026-03-28T13:52:26.999Z</time></trkpt><trkpt lat="44.758774885407746" lon="9.620141152559654"><ele>566.0</ele><time>2026-03-28T13:52:28.999Z</time></trkpt><trkpt lat="44.75883907780155" lon="9.62019162622296"><ele>566.0</ele><time>2026-03-28T13:52:30.999Z</time></trkpt><trkpt lat="44.75889879092024" lon="9.62024335840139"><ele>566.0</ele><time>2026-03-28T13:52:32.999Z</time></trkpt><trkpt lat="44.7589522416651" lon="9.62031870715498"><ele>566.0</ele><time>2026-03-28T13:52:34.999Z</time></trkpt><trkpt lat="44.75900363938402" lon="9.6203996453932"><ele>566.0</ele><time>2026-03-28T13:52:36.999Z</time></trkpt><trkpt lat="44.75905406473294" lon="9.620482725926282"><ele>567.5</ele><time>2026-03-28T13:52:38.999Z</time></trkpt><trkpt lat="44.759096715669436" lon="9.62057450888321"><ele>569.0</ele><time>2026-03-28T13:52:40.999Z</time></trkpt><trkpt lat="44.75913515801606" lon="9.620657103146605"><ele>570.5</ele><time>2026-03-28T13:52:42.999Z</time></trkpt><trkpt lat="44.759181245314785" lon="9.62076610797242"><ele>572.0</ele><time>2026-03-28T13:52:45.999Z</time></trkpt><trkpt lat="44.75921350738431" lon="9.620870000570603"><ele>573.5</ele><time>2026-03-28T13:52:48.998Z</time></trkpt><trkpt lat="44.75923985642287" lon="9.620963476451928"><ele>575.0</ele><time>2026-03-28T13:52:51.998Z</time></trkpt><trkpt lat="44.75927950397414" lon="9.621067381623376"><ele>576.0</ele><time>2026-03-28T13:52:54.998Z</time></trkpt><trkpt lat="44.75930357970085" lon="9.621189351298815"><ele>577.0</ele><time>2026-03-28T13:52:58Z</time></trkpt><trkpt lat="44.75930778728349" lon="9.621286269560482"><ele>578.0</ele><time>2026-03-28T13:53:01Z</time></trkpt><trkpt lat="44.75930495748172" lon="9.62140172759113"><ele>579.0</ele><time>2026-03-28T13:53:04Z</time></trkpt><trkpt lat="44.75930095940109" lon="9.621525680704643"><ele>580.0</ele><time>2026-03-28T13:53:07Z</time></trkpt><trkpt lat="44.75929233001309" lon="9.62164788067882"><ele>581.0</ele><time>2026-03-28T13:53:10Z</time></trkpt><trkpt lat="44.75927634569205" lon="9.621757103620597"><ele>581.0</ele><time>2026-03-28T13:53:13Z</time></trkpt><trkpt lat="44.759226736300995" lon="9.621933211298094"><ele>581.0</ele><time>2026-03-28T13:53:15Z</time></trkpt><trkpt lat="44.75920273473457" lon="9.622059565017478"><ele>581.0</ele><time>2026-03-28T13:53:18Z</time></trkpt><trkpt lat="44.75919047268209" lon="9.62215752923948"><ele>581.0</ele><time>2026-03-28T13:53:20Z</time></trkpt><trkpt lat="44.75919175288095" lon="9.622263239652236"><ele>581.0</ele><time>2026-03-28T13:53:22Z</time></trkpt><trkpt lat="44.75921004266465" lon="9.62236808172452"><ele>581.6666666666666</ele><time>2026-03-28T13:53:24Z</time></trkpt><trkpt lat="44.75924554038228" lon="9.622465093017437"><ele>582.3333333333333</ele><time>2026-03-28T13:53:26Z</time></trkpt><trkpt lat="44.75929884170827" lon="9.622547213800075"><ele>583.0</ele><time>2026-03-28T13:53:28Z</time></trkpt><trkpt lat="44.75935500345128" lon="9.622619251172468"><ele>583.6666666666666</ele><time>2026-03-28T13:53:30Z</time></trkpt><trkpt lat="44.759409443441" lon="9.622712606521544"><ele>584.3333333333334</ele><time>2026-03-28T13:53:32Z</time></trkpt><trkpt lat="44.75951735097658" lon="9.622727267045924"><ele>585.0</ele><time>2026-03-28T13:53:34Z</time></trkpt><trkpt lat="44.75959237264527" lon="9.622789731674679"><ele>584.8333333333334</ele><time>2026-03-28T13:53:36Z</time></trkpt><trkpt lat="44.75966813434778" lon="9.622859129856652"><ele>584.6666666666666</ele><time>2026-03-28T13:53:38Z</time></trkpt><trkpt lat="44.75973205710116" lon="9.622920398958437"><ele>584.5</ele><time>2026-03-28T13:53:40Z</time></trkpt><trkpt lat="44.75978969140699" lon="9.622979983877663"><ele>584.3333333333333</ele><time>2026-03-28T13:53:42Z</time></trkpt><trkpt lat="44.75985555662473" lon="9.623068432643143"><ele>584.1666666666666</ele><time>2026-03-28T13:53:45Z</time></trkpt><trkpt lat="44.759893173174795" lon="9.623140306503949"><ele>584.0</ele><time>2026-03-28T13:53:47Z</time></trkpt><trkpt lat="44.759916383472046" lon="9.6232257509211"><ele>584.0</ele><time>2026-03-28T13:53:49Z</time></trkpt><trkpt lat="44.75992659461346" lon="9.623326693297024"><ele>584.0</ele><time>2026-03-28T13:53:51Z</time></trkpt><trkpt lat="44.75990785642016" lon="9.623427463102606"><ele>584.0</ele><time>2026-03-28T13:53:53Z</time></trkpt><trkpt lat="44.75987210058356" lon="9.6235131311056"><ele>584.0</ele><time>2026-03-28T13:53:55Z</time></trkpt><trkpt lat="44.75982227425876" lon="9.623579926211315"><ele>584.0</ele><time>2026-03-28T13:53:57.999Z</time></trkpt><trkpt lat="44.759752030205554" lon="9.623654853383153"><ele>584.0</ele><time>2026-03-28T13:54:00.999Z</time></trkpt><trkpt lat="44.75968007848522" lon="9.623721809347513"><ele>584.6666666666666</ele><time>2026-03-28T13:54:03.999Z</time></trkpt><trkpt lat="44.75959026291649" lon="9.623800184932469"><ele>585.3333333333333</ele><time>2026-03-28T13:54:06.999Z</time></trkpt><trkpt lat="44.75951958330312" lon="9.623871648117584"><ele>586.0</ele><time>2026-03-28T13:54:09.999Z</time></trkpt><trkpt lat="44.75945602068537" lon="9.62394671748387"><ele>586.6666666666666</ele><time>2026-03-28T13:54:12.999Z</time></trkpt><trkpt lat="44.7594072039903" lon="9.62402889364211"><ele>587.3333333333334</ele><time>2026-03-28T13:54:15.999Z</time></trkpt><trkpt lat="44.75935849625521" lon="9.624115701150782"><ele>588.0</ele><time>2026-03-28T13:54:18.999Z</time></trkpt><trkpt lat="44.75931831805253" lon="9.62421132264853"><ele>589.3333333333334</ele><time>2026-03-28T13:54:21.999Z</time></trkpt><trkpt lat="44.75928277003755" lon="9.624309142003634"><ele>590.6666666666666</ele><time>2026-03-28T13:54:24.999Z</time></trkpt><trkpt lat="44.759252956291256" lon="9.624413184095399"><ele>592.0</ele><time>2026-03-28T13:54:27.999Z</time></trkpt><trkpt lat="44.759239354915984" lon="9.624520307757821"><ele>593.3333333333333</ele><time>2026-03-28T13:54:30.999Z</time></trkpt><trkpt lat="44.75923974360276" lon="9.624629008198422"><ele>594.6666666666666</ele><time>2026-03-28T13:54:33.999Z</time></trkpt><trkpt lat="44.759261632136685" lon="9.624755464922773"><ele>596.0</ele><time>2026-03-28T13:54:37.999Z</time></trkpt><trkpt lat="44.75928002574733" lon="9.62484698375464"><ele>595.7142857142857</ele><time>2026-03-28T13:54:40.999Z</time></trkpt><trkpt lat="44.75930782389774" lon="9.624939383887288"><ele>595.4285714285713</ele><time>2026-03-28T13:54:43.999Z</time></trkpt><trkpt lat="44.75933957459809" lon="9.625034374934408"><ele>595.1428571428571</ele><time>2026-03-28T13:54:46.999Z</time></trkpt><trkpt lat="44.759371966574854" lon="9.625125399302368"><ele>594.8571428571429</ele><time>2026-03-28T13:54:49.999Z</time></trkpt><trkpt lat="44.7594028702604" lon="9.625219789634166"><ele>594.5714285714287</ele><time>2026-03-28T13:54:52.998Z</time></trkpt><trkpt lat="44.75943494416467" lon="9.625312961292257"><ele>594.2857142857143</ele><time>2026-03-28T13:54:55.998Z</time></trkpt><trkpt lat="44.75947203243563" lon="9.625408334542302"><ele>594.0</ele><time>2026-03-28T13:54:58.998Z</time></trkpt><trkpt lat="44.75950907471422" lon="9.625500955934996"><ele>595.8333333333334</ele><time>2026-03-28T13:55:00.998Z</time></trkpt><trkpt lat="44.759546545379706" lon="9.625587554028055"><ele>597.6666666666666</ele><time>2026-03-28T13:55:04Z</time></trkpt><trkpt lat="44.759587536460074" lon="9.625686612147346"><ele>599.5</ele><time>2026-03-28T13:55:07Z</time></trkpt><trkpt lat="44.75962906020591" lon="9.625778263785042"><ele>601.3333333333333</ele><time>2026-03-28T13:55:10Z</time></trkpt><trkpt lat="44.75966701654334" lon="9.625875172301926"><ele>603.1666666666666</ele><time>2026-03-28T13:55:13Z</time></trkpt><trkpt lat="44.75970829138646" lon="9.62596273700316"><ele>605.0</ele><time>2026-03-28T13:55:16Z</time></trkpt><trkpt lat="44.75975522518509" lon="9.626046975408547"><ele>605.0</ele><time>2026-03-28T13:55:19Z</time></trkpt><trkpt lat="44.759805425935454" lon="9.626132728386821"><ele>605.0</ele><time>2026-03-28T13:55:22Z</time></trkpt><trkpt lat="44.75985804123654" lon="9.62620784274673"><ele>605.0</ele><time>2026-03-28T13:55:25Z</time></trkpt><trkpt lat="44.75991519921266" lon="9.626289802777585"><ele>605.0</ele><time>2026-03-28T13:55:28Z</time></trkpt><trkpt lat="44.7599765147673" lon="9.626366913423642"><ele>605.0</ele><time>2026-03-28T13:55:31Z</time></trkpt><trkpt lat="44.76004672553508" lon="9.626434552874148"><ele>605.0</ele><time>2026-03-28T13:55:34Z</time></trkpt><trkpt lat="44.76012388367051" lon="9.626514115328575"><ele>606.0</ele><time>2026-03-28T13:55:38Z</time></trkpt><trkpt lat="44.76018894063115" lon="9.626575205115936"><ele>607.0</ele><time>2026-03-28T13:55:41Z</time></trkpt><trkpt lat="44.76026122031228" lon="9.626648276216141"><ele>608.0</ele><time>2026-03-28T13:55:44Z</time></trkpt><trkpt lat="44.76032449027996" lon="9.626733745337697"><ele>609.0</ele><time>2026-03-28T13:55:47Z</time></trkpt><trkpt lat="44.760386564824785" lon="9.626824683485063"><ele>610.0</ele><time>2026-03-28T13:55:50Z</time></trkpt><trkpt lat="44.76044226499351" lon="9.626920020759773"><ele>611.0</ele><time>2026-03-28T13:55:53Z</time></trkpt><trkpt lat="44.760493077997815" lon="9.627022368170136"><ele>613.0</ele><time>2026-03-28T13:55:56Z</time></trkpt><trkpt lat="44.7605058193064" lon="9.627141543595519"><ele>615.0</ele><time>2026-03-28T13:55:59Z</time></trkpt><trkpt lat="44.76046183011725" lon="9.62724541517613"><ele>617.0</ele><time>2026-03-28T13:56:02Z</time></trkpt><trkpt lat="44.76040099787695" lon="9.627274933725975"><ele>619.0</ele><time>2026-03-28T13:56:03.999Z</time></trkpt><trkpt lat="44.760316971361206" lon="9.627243015226389"><ele>621.0</ele><time>2026-03-28T13:56:06.999Z</time></trkpt><trkpt lat="44.76024081715437" lon="9.6271750317849"><ele>623.0</ele><time>2026-03-28T13:56:09.999Z</time></trkpt><trkpt lat="44.76015784315759" lon="9.627130031848463"><ele>623.0</ele><time>2026-03-28T13:56:12.999Z</time></trkpt><trkpt lat="44.7600668420812" lon="9.627091855791535"><ele>623.0</ele><time>2026-03-28T13:56:15.999Z</time></trkpt><trkpt lat="44.75997480075878" lon="9.627076782426217"><ele>623.0</ele><time>2026-03-28T13:56:18.999Z</time></trkpt><trkpt lat="44.75988382685532" lon="9.627066480676667"><ele>623.0</ele><time>2026-03-28T13:56:21.999Z</time></trkpt><trkpt lat="44.759800323248356" lon="9.627071484738815"><ele>623.0</ele><time>2026-03-28T13:56:24.999Z</time></trkpt><trkpt lat="44.75971568519643" lon="9.627076772738807"><ele>623.0</ele><time>2026-03-28T13:56:27.999Z</time></trkpt><trkpt lat="44.75963366777543" lon="9.62707474661112"><ele>623.0</ele><time>2026-03-28T13:56:30.999Z</time></trkpt><trkpt lat="44.75954875851654" lon="9.62708202209835"><ele>623.0</ele><time>2026-03-28T13:56:33.999Z</time></trkpt><trkpt lat="44.759465805667766" lon="9.627107250793678"><ele>623.0</ele><time>2026-03-28T13:56:36.999Z</time></trkpt><trkpt lat="44.75937591260736" lon="9.627124691534323"><ele>623.0</ele><time>2026-03-28T13:56:39.999Z</time></trkpt><trkpt lat="44.759283053397574" lon="9.62713462773609"><ele>623.0</ele><time>2026-03-28T13:56:42.999Z</time></trkpt><trkpt lat="44.75921628896054" lon="9.627151380872597"><ele>623.0</ele><time>2026-03-28T13:56:44.999Z</time></trkpt><trkpt lat="44.75914727707028" lon="9.627153086690274"><ele>622.6666666666666</ele><time>2026-03-28T13:56:47.999Z</time></trkpt><trkpt lat="44.75906648360016" lon="9.6271061136459"><ele>622.3333333333333</ele><time>2026-03-28T13:56:50.999Z</time></trkpt><trkpt lat="44.75899486765726" lon="9.627011267109474"><ele>622.0</ele><time>2026-03-28T13:56:52.999Z</time></trkpt><trkpt lat="44.758946716539555" lon="9.626934455480646"><ele>621.6666666666666</ele><time>2026-03-28T13:56:54.998Z</time></trkpt><trkpt lat="44.75890168964365" lon="9.626864852632266"><ele>621.3333333333334</ele><time>2026-03-28T13:56:56.998Z</time></trkpt><trkpt lat="44.75884154709054" lon="9.626768764433864"><ele>621.0</ele><time>2026-03-28T13:56:59.998Z</time></trkpt><trkpt lat="44.75878115549379" lon="9.626697242604605"><ele>621.0</ele><time>2026-03-28T13:57:02.998Z</time></trkpt><trkpt lat="44.75870445188072" lon="9.626615639447898"><ele>621.0</ele><time>2026-03-28T13:57:05.998Z</time></trkpt><trkpt lat="44.75865386734926" lon="9.626557702697125"><ele>621.0</ele><time>2026-03-28T13:57:07.998Z</time></trkpt><trkpt lat="44.758588213954184" lon="9.62646341283057"><ele>621.0</ele><time>2026-03-28T13:57:11Z</time></trkpt><trkpt lat="44.75854021012283" lon="9.626345480308087"><ele>621.0</ele><time>2026-03-28T13:57:14Z</time></trkpt><trkpt lat="44.75851474922243" lon="9.626254619119248"><ele>621.0</ele><time>2026-03-28T13:57:16Z</time></trkpt><trkpt lat="44.758492427412754" lon="9.62617142168792"><ele>623.3333333333334</ele><time>2026-03-28T13:57:18Z</time></trkpt><trkpt lat="44.75846565011569" lon="9.626049184622197"><ele>625.6666666666666</ele><time>2026-03-28T13:57:21Z</time></trkpt><trkpt lat="44.75843724340749" lon="9.625937847674134"><ele>628.0</ele><time>2026-03-28T13:57:24Z</time></trkpt><trkpt lat="44.75841124650775" lon="9.625854777437324"><ele>630.3333333333333</ele><time>2026-03-28T13:57:26Z</time></trkpt><trkpt lat="44.758373991175986" lon="9.625730109826966"><ele>632.6666666666666</ele><time>2026-03-28T13:57:29Z</time></trkpt><trkpt lat="44.75832691250783" lon="9.625621729646427"><ele>635.0</ele><time>2026-03-28T13:57:32Z</time></trkpt><trkpt lat="44.75828109479771" lon="9.625551501993042"><ele>635.0</ele><time>2026-03-28T13:57:35Z</time></trkpt><trkpt lat="44.75821057394746" lon="9.625473546077025"><ele>635.0</ele><time>2026-03-28T13:57:38Z</time></trkpt><trkpt lat="44.758124827185384" lon="9.625433572015007"><ele>635.0</ele><time>2026-03-28T13:57:41Z</time></trkpt><trkpt lat="44.75805246011616" lon="9.625424544275297"><ele>635.0</ele><time>2026-03-28T13:57:43Z</time></trkpt><trkpt lat="44.7579699749927" lon="9.625435156159114"><ele>635.0</ele><time>2026-03-28T13:57:46Z</time></trkpt><trkpt lat="44.75788625480049" lon="9.625469349169347"><ele>635.0</ele><time>2026-03-28T13:57:49Z</time></trkpt><trkpt lat="44.75780491743083" lon="9.625518710108656"><ele>634.9999999999999</ele><time>2026-03-28T13:57:52Z</time></trkpt><trkpt lat="44.757728658626384" lon="9.625580308340753"><ele>635.0</ele><time>2026-03-28T13:57:55Z</time></trkpt><trkpt lat="44.757672337937116" lon="9.62562175606261"><ele>635.0</ele><time>2026-03-28T13:57:57Z</time></trkpt><trkpt lat="44.75759950181687" lon="9.625682671606349"><ele>635.0</ele><time>2026-03-28T13:57:59Z</time></trkpt><trkpt lat="44.757533393670606" lon="9.625717386153719"><ele>635.0</ele><time>2026-03-28T13:58:01Z</time></trkpt><trkpt lat="44.757472919668" lon="9.625747068998743"><ele>634.9999999999999</ele><time>2026-03-28T13:58:03Z</time></trkpt><trkpt lat="44.757410632111664" lon="9.625783964951086"><ele>635.0</ele><time>2026-03-28T13:58:05Z</time></trkpt><trkpt lat="44.75734203029087" lon="9.62581681788472"><ele>636.3333333333333</ele><time>2026-03-28T13:58:07Z</time></trkpt><trkpt lat="44.75727515050217" lon="9.625858604797255"><ele>637.6666666666666</ele><time>2026-03-28T13:58:08.999Z</time></trkpt><trkpt lat="44.75720957638357" lon="9.625896686186378"><ele>639.0</ele><time>2026-03-28T13:58:10.999Z</time></trkpt><trkpt lat="44.75714913172601" lon="9.625935948332103"><ele>640.3333333333334</ele><time>2026-03-28T13:58:12.999Z</time></trkpt><trkpt lat="44.75705805904734" lon="9.625956461955715"><ele>641.6666666666667</ele><time>2026-03-28T13:58:15.999Z</time></trkpt><trkpt lat="44.75696696197367" lon="9.625930776848397"><ele>643.0</ele><time>2026-03-28T13:58:18.999Z</time></trkpt><trkpt lat="44.75688710656392" lon="9.625873726483178"><ele>644.3333333333334</ele><time>2026-03-28T13:58:21.999Z</time></trkpt><trkpt lat="44.75681634665605" lon="9.625810540818772"><ele>645.6666666666667</ele><time>2026-03-28T13:58:24.999Z</time></trkpt><trkpt lat="44.7567577275211" lon="9.625720583739385"><ele>647.0</ele><time>2026-03-28T13:58:27.999Z</time></trkpt><trkpt lat="44.7567297565723" lon="9.625633166498348"><ele>648.3333333333334</ele><time>2026-03-28T13:58:30.999Z</time></trkpt><trkpt lat="44.75670240479636" lon="9.625536477448161"><ele>649.6666666666666</ele><time>2026-03-28T13:58:32.999Z</time></trkpt><trkpt lat="44.75666647687828" lon="9.6254166730703"><ele>651.0</ele><time>2026-03-28T13:58:35.999Z</time></trkpt><trkpt lat="44.75664293165394" lon="9.625332473069049"><ele>650.2857142857143</ele><time>2026-03-28T13:58:37.999Z</time></trkpt><trkpt lat="44.75661629300139" lon="9.62524828119928"><ele>649.5714285714286</ele><time>2026-03-28T13:58:39.999Z</time></trkpt><trkpt lat="44.75658325685532" lon="9.625169352475393"><ele>648.8571428571429</ele><time>2026-03-28T13:58:41.999Z</time></trkpt><trkpt lat="44.75655483320894" lon="9.625085363165123"><ele>648.1428571428571</ele><time>2026-03-28T13:58:43.999Z</time></trkpt><trkpt lat="44.75651926567432" lon="9.624973540869103"><ele>647.4285714285714</ele><time>2026-03-28T13:58:46.999Z</time></trkpt><trkpt lat="44.75648234379124" lon="9.624866772281651"><ele>646.7142857142858</ele><time>2026-03-28T13:58:49.999Z</time></trkpt><trkpt lat="44.756451555662885" lon="9.624763239151793"><ele>646.0</ele><time>2026-03-28T13:58:52.999Z</time></trkpt><trkpt lat="44.75641285095835" lon="9.624689021716591"><ele>646.0</ele><time>2026-03-28T13:58:55.999Z</time></trkpt><trkpt lat="44.75635683642618" lon="9.624608190841887"><ele>646.0</ele><time>2026-03-28T13:58:58.999Z</time></trkpt><trkpt lat="44.756293438271044" lon="9.62454909141865"><ele>646.0</ele><time>2026-03-28T13:59:01.998Z</time></trkpt><trkpt lat="44.75622941416342" lon="9.624491944516025"><ele>646.0</ele><time>2026-03-28T13:59:04.998Z</time></trkpt><trkpt lat="44.75616194037172" lon="9.624438547207394"><ele>646.0</ele><time>2026-03-28T13:59:07.998Z</time></trkpt><trkpt lat="44.756092978072175" lon="9.62439065440273"><ele>646.0</ele><time>2026-03-28T13:59:10.998Z</time></trkpt><trkpt lat="44.75602106535839" lon="9.62434811593128"><ele>647.5714285714287</ele><time>2026-03-28T13:59:13.998Z</time></trkpt><trkpt lat="44.755957357580456" lon="9.624325634806523"><ele>649.1428571428571</ele><time>2026-03-28T13:59:16Z</time></trkpt><trkpt lat="44.755870836672635" lon="9.624348451044208"><ele>650.7142857142858</ele><time>2026-03-28T13:59:19Z</time></trkpt><trkpt lat="44.75581543554292" lon="9.624417908336094"><ele>652.2857142857143</ele><time>2026-03-28T13:59:22Z</time></trkpt><trkpt lat="44.75581294821992" lon="9.624515207020073"><ele>653.8571428571429</ele><time>2026-03-28T13:59:25Z</time></trkpt><trkpt lat="44.75587123807649" lon="9.624574362879436"><ele>655.4285714285714</ele><time>2026-03-28T13:59:28Z</time></trkpt><trkpt lat="44.75592664031245" lon="9.62463931979587"><ele>657.0</ele><time>2026-03-28T13:59:31Z</time></trkpt><trkpt lat="44.75599870781531" lon="9.624686392109217"><ele>658.1666666666666</ele><time>2026-03-28T13:59:34Z</time></trkpt><trkpt lat="44.756064307340864" lon="9.624726196468886"><ele>659.3333333333334</ele><time>2026-03-28T13:59:37Z</time></trkpt><trkpt lat="44.7561313200349" lon="9.624803439625095"><ele>660.5</ele><time>2026-03-28T13:59:40Z</time></trkpt><trkpt lat="44.7561457962455" lon="9.624912953305316"><ele>661.6666666666667</ele><time>2026-03-28T13:59:43Z</time></trkpt><trkpt lat="44.756078827482376" lon="9.624977684460802"><ele>662.8333333333334</ele><time>2026-03-28T13:59:46Z</time></trkpt><trkpt lat="44.755997737814404" lon="9.624965286773369"><ele>664.0</ele><time>2026-03-28T13:59:49Z</time></trkpt><trkpt lat="44.75592119669049" lon="9.624925944875413"><ele>664.0</ele><time>2026-03-28T13:59:52Z</time></trkpt><trkpt lat="44.75585997109518" lon="9.624899556412313"><ele>664.0</ele><time>2026-03-28T13:59:55Z</time></trkpt><trkpt lat="44.75576957160944" lon="9.624897568488407"><ele>664.0</ele><time>2026-03-28T13:59:58Z</time></trkpt><trkpt lat="44.75569087534834" lon="9.624903108544403"><ele>664.0</ele><time>2026-03-28T14:00:01Z</time></trkpt><trkpt lat="44.75561624034323" lon="9.624903155991847"><ele>664.0</ele><time>2026-03-28T14:00:04Z</time></trkpt><trkpt lat="44.755544707008994" lon="9.624896800386345"><ele>664.0</ele><time>2026-03-28T14:00:07Z</time></trkpt><trkpt lat="44.75549117230907" lon="9.624841669424319"><ele>664.0</ele><time>2026-03-28T14:00:10Z</time></trkpt><trkpt lat="44.75545844370027" lon="9.624754278123133"><ele>664.0</ele><time>2026-03-28T14:00:12.999Z</time></trkpt><trkpt lat="44.75542625918884" lon="9.624655125146443"><ele>664.0</ele><time>2026-03-28T14:00:14.999Z</time></trkpt><trkpt lat="44.75539655169262" lon="9.624538532123983"><ele>664.0</ele><time>2026-03-28T14:00:18.999Z</time></trkpt><trkpt lat="44.75537103936388" lon="9.62445156656713"><ele>664.0</ele><time>2026-03-28T14:00:21.999Z</time></trkpt><trkpt lat="44.75534266227844" lon="9.624360245858288"><ele>664.0</ele><time>2026-03-28T14:00:24.999Z</time></trkpt><trkpt lat="44.75530233708251" lon="9.624267463963276"><ele>664.0</ele><time>2026-03-28T14:00:27.999Z</time></trkpt><trkpt lat="44.75525327210341" lon="9.62417351260316"><ele>665.8000000000001</ele><time>2026-03-28T14:00:30.999Z</time></trkpt><trkpt lat="44.755198723672606" lon="9.624076245486114"><ele>667.6</ele><time>2026-03-28T14:00:33.999Z</time></trkpt><trkpt lat="44.75514854558356" lon="9.62397276812577"><ele>669.4</ele><time>2026-03-28T14:00:36.999Z</time></trkpt><trkpt lat="44.75509694206247" lon="9.623863093920255"><ele>671.2</ele><time>2026-03-28T14:00:39.999Z</time></trkpt><trkpt lat="44.75503829972823" lon="9.623731653600837"><ele>673.0</ele><time>2026-03-28T14:00:42.999Z</time></trkpt><trkpt lat="44.754991765056815" lon="9.623614164599752"><ele>673.0</ele><time>2026-03-28T14:00:45.999Z</time></trkpt><trkpt lat="44.75494328455921" lon="9.623503770303897"><ele>673.0</ele><time>2026-03-28T14:00:48.999Z</time></trkpt><trkpt lat="44.754903666655466" lon="9.623429403584515"><ele>673.0</ele><time>2026-03-28T14:00:50.999Z</time></trkpt><trkpt lat="44.754858627203575" lon="9.623363647944114"><ele>673.0</ele><time>2026-03-28T14:00:52.999Z</time></trkpt><trkpt lat="44.75481866652407" lon="9.623292715485189"><ele>673.0</ele><time>2026-03-28T14:00:54.999Z</time></trkpt><trkpt lat="44.75475757458493" lon="9.62320156841995"><ele>673.0</ele><time>2026-03-28T14:00:57.999Z</time></trkpt><trkpt lat="44.75471190734851" lon="9.62313565456335"><ele>673.0</ele><time>2026-03-28T14:00:59.999Z</time></trkpt><trkpt lat="44.754655105684" lon="9.62308452707728"><ele>673.0</ele><time>2026-03-28T14:01:01.999Z</time></trkpt><trkpt lat="44.75458982134622" lon="9.623057881940271"><ele>673.0</ele><time>2026-03-28T14:01:03.999Z</time></trkpt><trkpt lat="44.75452429701841" lon="9.623052574870842"><ele>673.0</ele><time>2026-03-28T14:01:05.998Z</time></trkpt><trkpt lat="44.75443673552055" lon="9.623084611310453"><ele>673.0</ele><time>2026-03-28T14:01:08.998Z</time></trkpt><trkpt lat="44.7543502066322" lon="9.623131342034783"><ele>673.0</ele><time>2026-03-28T14:01:11.998Z</time></trkpt><trkpt lat="44.75428490044288" lon="9.623146616402638"><ele>673.0</ele><time>2026-03-28T14:01:13.998Z</time></trkpt><trkpt lat="44.75420557313252" lon="9.623145802757891"><ele>675.2857142857143</ele><time>2026-03-28T14:01:15.998Z</time></trkpt><trkpt lat="44.75413732689622" lon="9.623116664992956"><ele>677.5714285714286</ele><time>2026-03-28T14:01:17.998Z</time></trkpt><trkpt lat="44.754071561286864" lon="9.62308157802073"><ele>679.8571428571429</ele><time>2026-03-28T14:01:19.998Z</time></trkpt><trkpt lat="44.754009414330845" lon="9.62304443029246"><ele>682.1428571428571</ele><time>2026-03-28T14:01:22Z</time></trkpt><trkpt lat="44.75394875210936" lon="9.623005793298578"><ele>684.4285714285714</ele><time>2026-03-28T14:01:24Z</time></trkpt><trkpt lat="44.75388763229771" lon="9.62297017884495"><ele>686.7142857142857</ele><time>2026-03-28T14:01:26Z</time></trkpt><trkpt lat="44.753827085776905" lon="9.622923496035645"><ele>689.0</ele><time>2026-03-28T14:01:28Z</time></trkpt><trkpt lat="44.7537674698378" lon="9.62288273119814"><ele>689.0</ele><time>2026-03-28T14:01:30Z</time></trkpt><trkpt lat="44.75371150637203" lon="9.622841246524851"><ele>689.0</ele><time>2026-03-28T14:01:32Z</time></trkpt><trkpt lat="44.753630113143196" lon="9.622787910964464"><ele>689.0</ele><time>2026-03-28T14:01:35Z</time></trkpt><trkpt lat="44.7535498181547" lon="9.622824554551434"><ele>689.0</ele><time>2026-03-28T14:01:38Z</time></trkpt><trkpt lat="44.75355615212204" lon="9.622931059202948"><ele>689.0</ele><time>2026-03-28T14:01:41Z</time></trkpt><trkpt lat="44.75362225835458" lon="9.623012612354982"><ele>689.0</ele><time>2026-03-28T14:01:44Z</time></trkpt><trkpt lat="44.753692979595" lon="9.623074016842587"><ele>689.0</ele><time>2026-03-28T14:01:47Z</time></trkpt><trkpt lat="44.7537516800322" lon="9.623121844102355"><ele>689.0</ele><time>2026-03-28T14:01:49Z</time></trkpt><trkpt lat="44.7538126692854" lon="9.623153913612699"><ele>689.0</ele><time>2026-03-28T14:01:52Z</time></trkpt><trkpt lat="44.75387414846265" lon="9.623190330384656"><ele>689.0</ele><time>2026-03-28T14:01:54Z</time></trkpt><trkpt lat="44.75394544922009" lon="9.623243949965909"><ele>689.0</ele><time>2026-03-28T14:01:57Z</time></trkpt><trkpt lat="44.75402052298488" lon="9.623291728355042"><ele>689.0</ele><time>2026-03-28T14:01:59Z</time></trkpt><trkpt lat="44.75408509712067" lon="9.6233453592101"><ele>689.0</ele><time>2026-03-28T14:02:01Z</time></trkpt><trkpt lat="44.75414712487932" lon="9.623377884104952"><ele>689.0</ele><time>2026-03-28T14:02:03Z</time></trkpt><trkpt lat="44.75420439250141" lon="9.623436357150142"><ele>689.0</ele><time>2026-03-28T14:02:05Z</time></trkpt><trkpt lat="44.75426665841513" lon="9.623488051232304"><ele>689.0</ele><time>2026-03-28T14:02:07Z</time></trkpt><trkpt lat="44.75432043079393" lon="9.62354744028801"><ele>689.0</ele><time>2026-03-28T14:02:09Z</time></trkpt><trkpt lat="44.75436660108296" lon="9.623615903139717"><ele>689.0</ele><time>2026-03-28T14:02:11Z</time></trkpt><trkpt lat="44.75437749985734" lon="9.623707623628457"><ele>689.0</ele><time>2026-03-28T14:02:13Z</time></trkpt><trkpt lat="44.754377280783544" lon="9.623821795637676"><ele>689.0</ele><time>2026-03-28T14:02:15.999Z</time></trkpt><trkpt lat="44.75434983435214" lon="9.623905293905688"><ele>690.1666666666666</ele><time>2026-03-28T14:02:17.999Z</time></trkpt><trkpt lat="44.75431920086719" lon="9.624001747853798"><ele>691.3333333333333</ele><time>2026-03-28T14:02:20.999Z</time></trkpt><trkpt lat="44.75428641461508" lon="9.624120843575337"><ele>692.5</ele><time>2026-03-28T14:02:23.999Z</time></trkpt><trkpt lat="44.75426341227706" lon="9.62424747457464"><ele>693.6666666666666</ele><time>2026-03-28T14:02:26.999Z</time></trkpt><trkpt lat="44.75425004206396" lon="9.624369705012125"><ele>694.8333333333334</ele><time>2026-03-28T14:02:29.999Z</time></trkpt><trkpt lat="44.75424774927216" lon="9.624463513229017"><ele>696.0</ele><time>2026-03-28T14:02:31.999Z</time></trkpt><trkpt lat="44.754245691779204" lon="9.624553439907267"><ele>696.1666666666666</ele><time>2026-03-28T14:02:33.999Z</time></trkpt><trkpt lat="44.754248636023696" lon="9.624683026933885"><ele>696.3333333333334</ele><time>2026-03-28T14:02:36.999Z</time></trkpt><trkpt lat="44.75424114657566" lon="9.624808830184781"><ele>696.5</ele><time>2026-03-28T14:02:39.999Z</time></trkpt><trkpt lat="44.75423128035952" lon="9.624933557634145"><ele>696.6666666666667</ele><time>2026-03-28T14:02:42.999Z</time></trkpt><trkpt lat="44.754221412176676" lon="9.625021471749939"><ele>696.8333333333334</ele><time>2026-03-28T14:02:44.999Z</time></trkpt><trkpt lat="44.75419981485875" lon="9.625138894573514"><ele>697.0</ele><time>2026-03-28T14:02:47.999Z</time></trkpt><trkpt lat="44.75416854036809" lon="9.625256038266498"><ele>697.0</ele><time>2026-03-28T14:02:50.999Z</time></trkpt><trkpt lat="44.75413700594693" lon="9.625379549623485"><ele>697.0</ele><time>2026-03-28T14:02:53.999Z</time></trkpt><trkpt lat="44.75410599756136" lon="9.625498976485561"><ele>697.0</ele><time>2026-03-28T14:02:56.999Z</time></trkpt><trkpt lat="44.75407719124769" lon="9.625620516071688"><ele>697.0</ele><time>2026-03-28T14:02:59.999Z</time></trkpt><trkpt lat="44.75405799908163" lon="9.625745440944225"><ele>697.0</ele><time>2026-03-28T14:03:02.999Z</time></trkpt><trkpt lat="44.754047778692936" lon="9.62586981212281"><ele>697.0</ele><time>2026-03-28T14:03:05.999Z</time></trkpt><trkpt lat="44.75404449467968" lon="9.625997799132113"><ele>697.0</ele><time>2026-03-28T14:03:08.998Z</time></trkpt><trkpt lat="44.754060860949764" lon="9.626124651314099"><ele>697.0</ele><time>2026-03-28T14:03:11.998Z</time></trkpt><trkpt lat="44.754084776390144" lon="9.626208226670755"><ele>697.0</ele><time>2026-03-28T14:03:13.998Z</time></trkpt><trkpt lat="44.75413261803556" lon="9.626320058112594"><ele>697.0</ele><time>2026-03-28T14:03:16.998Z</time></trkpt><trkpt lat="44.754186707765214" lon="9.626427078613254"><ele>697.0</ele><time>2026-03-28T14:03:19.998Z</time></trkpt><trkpt lat="44.75422458659725" lon="9.626504001682793"><ele>697.8333333333334</ele><time>2026-03-28T14:03:21.998Z</time></trkpt><trkpt lat="44.754280039041994" lon="9.626609127908328"><ele>698.6666666666667</ele><time>2026-03-28T14:03:24.998Z</time></trkpt><trkpt lat="44.75429825243015" lon="9.626702232370336"><ele>699.5</ele><time>2026-03-28T14:03:27Z</time></trkpt><trkpt lat="44.75432202297884" lon="9.626828314991172"><ele>700.3333333333334</ele><time>2026-03-28T14:03:30Z</time></trkpt><trkpt lat="44.75433459511037" lon="9.626915928992432"><ele>701.1666666666666</ele><time>2026-03-28T14:03:32Z</time></trkpt><trkpt lat="44.75434161308142" lon="9.627010008161943"><ele>702.0</ele><time>2026-03-28T14:03:34Z</time></trkpt><trkpt lat="44.754344137271545" lon="9.627106252840123"><ele>703.3333333333334</ele><time>2026-03-28T14:03:36Z</time></trkpt><trkpt lat="44.754348779331394" lon="9.627211430547662"><ele>704.6666666666666</ele><time>2026-03-28T14:03:38Z</time></trkpt><trkpt lat="44.754349122919486" lon="9.627316725103194"><ele>706.0</ele><time>2026-03-28T14:03:40Z</time></trkpt><trkpt lat="44.75434814052556" lon="9.627413808417653"><ele>707.3333333333333</ele><time>2026-03-28T14:03:42Z</time></trkpt><trkpt lat="44.75434680213852" lon="9.62750345717423"><ele>708.6666666666666</ele><time>2026-03-28T14:03:44Z</time></trkpt><trkpt lat="44.75434706347081" lon="9.627626194452375"><ele>710.0</ele><time>2026-03-28T14:03:47Z</time></trkpt><trkpt lat="44.75434148785491" lon="9.627757556075531"><ele>710.4285714285714</ele><time>2026-03-28T14:03:50Z</time></trkpt><trkpt lat="44.75433106382201" lon="9.6278535828788"><ele>710.8571428571429</ele><time>2026-03-28T14:03:52Z</time></trkpt><trkpt lat="44.754319577355595" lon="9.627945447320839"><ele>711.2857142857142</ele><time>2026-03-28T14:03:54Z</time></trkpt><trkpt lat="44.754303983866855" lon="9.628032388859499"><ele>711.7142857142858</ele><time>2026-03-28T14:03:57Z</time></trkpt><trkpt lat="44.754282325803" lon="9.628155322969079"><ele>712.1428571428572</ele><time>2026-03-28T14:04:00Z</time></trkpt><trkpt lat="44.75426491731286" lon="9.628282362409294"><ele>712.5714285714286</ele><time>2026-03-28T14:04:03Z</time></trkpt><trkpt lat="44.75425357499717" lon="9.628369952833987"><ele>713.0</ele><time>2026-03-28T14:04:05Z</time></trkpt><trkpt lat="44.754203373898015" lon="9.628441858786406"><ele>713.0</ele><time>2026-03-28T14:04:08Z</time></trkpt><trkpt lat="44.75414520607428" lon="9.628484106732163"><ele>713.0</ele><time>2026-03-28T14:04:11Z</time></trkpt><trkpt lat="44.75411518348213" lon="9.628390699352495"><ele>713.0</ele><time>2026-03-28T14:04:16Z</time></trkpt><trkpt lat="44.75414804409302" lon="9.62827615094924"><ele>713.0</ele><time>2026-03-28T14:04:18.999Z</time></trkpt><trkpt lat="44.75419213824497" lon="9.628157306648294"><ele>713.0</ele><time>2026-03-28T14:04:21.999Z</time></trkpt><trkpt lat="44.754212737873615" lon="9.628067980720862"><ele>713.0</ele><time>2026-03-28T14:04:23.999Z</time></trkpt><trkpt lat="44.75423509514637" lon="9.627980646140402"><ele>713.0</ele><time>2026-03-28T14:04:25.999Z</time></trkpt><trkpt lat="44.75422642238426" lon="9.627845702934533"><ele>713.0</ele><time>2026-03-28T14:04:28.999Z</time></trkpt><trkpt lat="44.75417452463698" lon="9.627740677032879"><ele>713.0</ele><time>2026-03-28T14:04:30.999Z</time></trkpt><trkpt lat="44.75412055551854" lon="9.627678363282067"><ele>713.0</ele><time>2026-03-28T14:04:32.999Z</time></trkpt><trkpt lat="44.754056544218166" lon="9.627638555675288"><ele>713.0</ele><time>2026-03-28T14:04:34.999Z</time></trkpt><trkpt lat="44.75399429299433" lon="9.627612708194599"><ele>713.0</ele><time>2026-03-28T14:04:36.999Z</time></trkpt><trkpt lat="44.75392437122258" lon="9.627594822263928"><ele>712.5714285714286</ele><time>2026-03-28T14:04:38.999Z</time></trkpt><trkpt lat="44.75385062745987" lon="9.627583649816295"><ele>712.1428571428572</ele><time>2026-03-28T14:04:40.999Z</time></trkpt><trkpt lat="44.753781856047425" lon="9.627562802538543"><ele>711.7142857142858</ele><time>2026-03-28T14:04:42.999Z</time></trkpt><trkpt lat="44.753709019762574" lon="9.62753778531412"><ele>711.2857142857142</ele><time>2026-03-28T14:04:44.999Z</time></trkpt><trkpt lat="44.753639797706285" lon="9.627510208239768"><ele>710.8571428571429</ele><time>2026-03-28T14:04:46.999Z</time></trkpt><trkpt lat="44.75357492463528" lon="9.62747888429685"><ele>710.4285714285714</ele><time>2026-03-28T14:04:48.999Z</time></trkpt><trkpt lat="44.753505787948804" lon="9.62745656377566"><ele>710.0</ele><time>2026-03-28T14:04:50.999Z</time></trkpt><trkpt lat="44.753435779310486" lon="9.62742939858022"><ele>711.1666666666666</ele><time>2026-03-28T14:04:52.999Z</time></trkpt><trkpt lat="44.7533667729151" lon="9.627390273550605"><ele>712.3333333333333</ele><time>2026-03-28T14:04:54.999Z</time></trkpt><trkpt lat="44.753306555117646" lon="9.627342134263285"><ele>713.5</ele><time>2026-03-28T14:04:56.999Z</time></trkpt><trkpt lat="44.75325555044832" lon="9.627279089312143"><ele>714.6666666666666</ele><time>2026-03-28T14:04:58.999Z</time></trkpt><trkpt lat="44.75321715792264" lon="9.627205488538122"><ele>715.8333333333334</ele><time>2026-03-28T14:05:00.999Z</time></trkpt><trkpt lat="44.75318564384766" lon="9.627088717865975"><ele>717.0</ele><time>2026-03-28T14:05:03.999Z</time></trkpt><trkpt lat="44.75318472910519" lon="9.626965151644663"><ele>717.0</ele><time>2026-03-28T14:05:06.999Z</time></trkpt><trkpt lat="44.75319267574088" lon="9.626843302196017"><ele>717.0</ele><time>2026-03-28T14:05:09.999Z</time></trkpt><trkpt lat="44.75318470453129" lon="9.626722464121146"><ele>717.0</ele><time>2026-03-28T14:05:12.998Z</time></trkpt><trkpt lat="44.75314254514222" lon="9.626608880597304"><ele>717.0</ele><time>2026-03-28T14:05:15.998Z</time></trkpt><trkpt lat="44.75310060815353" lon="9.626499708616569"><ele>717.0</ele><time>2026-03-28T14:05:18.998Z</time></trkpt><trkpt lat="44.75307411303023" lon="9.626418124229192"><ele>717.0</ele><time>2026-03-28T14:05:20.998Z</time></trkpt><trkpt lat="44.75304403068524" lon="9.626339102240912"><ele>717.0</ele><time>2026-03-28T14:05:22.998Z</time></trkpt><trkpt lat="44.75300437367913" lon="9.626222825537477"><ele>717.0</ele><time>2026-03-28T14:05:25.998Z</time></trkpt><trkpt lat="44.75297206746464" lon="9.62610126029798"><ele>717.0</ele><time>2026-03-28T14:05:28.998Z</time></trkpt><trkpt lat="44.752940967533554" lon="9.62597606051992"><ele>717.0</ele><time>2026-03-28T14:05:32Z</time></trkpt><trkpt lat="44.752913768684785" lon="9.625858601174592"><ele>717.0</ele><time>2026-03-28T14:05:35Z</time></trkpt><trkpt lat="44.752889534790526" lon="9.625737945579584"><ele>716.8333333333334</ele><time>2026-03-28T14:05:38Z</time></trkpt><trkpt lat="44.752853617009634" lon="9.625619620686118"><ele>716.6666666666666</ele><time>2026-03-28T14:05:41Z</time></trkpt><trkpt lat="44.752828092597134" lon="9.625528681985777"><ele>716.5</ele><time>2026-03-28T14:05:44Z</time></trkpt><trkpt lat="44.7527984015175" lon="9.625423632008458"><ele>716.3333333333333</ele><time>2026-03-28T14:05:47Z</time></trkpt><trkpt lat="44.75275728630345" lon="9.625314571039869"><ele>716.1666666666666</ele><time>2026-03-28T14:05:50Z</time></trkpt><trkpt lat="44.752710636655806" lon="9.625201780418328"><ele>716.0</ele><time>2026-03-28T14:05:53Z</time></trkpt><trkpt lat="44.75266528286312" lon="9.625066512059666"><ele>718.1428571428572</ele><time>2026-03-28T14:05:56Z</time></trkpt><trkpt lat="44.752642439719054" lon="9.624962378356612"><ele>720.2857142857143</ele><time>2026-03-28T14:05:59Z</time></trkpt><trkpt lat="44.75262591637486" lon="9.624852115221467"><ele>722.4285714285714</ele><time>2026-03-28T14:06:01Z</time></trkpt><trkpt lat="44.75261710587746" lon="9.624753319458438"><ele>724.5714285714287</ele><time>2026-03-28T14:06:03Z</time></trkpt><trkpt lat="44.752605385463795" lon="9.624663074229856"><ele>726.7142857142857</ele><time>2026-03-28T14:06:05Z</time></trkpt><trkpt lat="44.75259001640467" lon="9.62457502269898"><ele>728.8571428571429</ele><time>2026-03-28T14:06:07Z</time></trkpt><trkpt lat="44.75257082318295" lon="9.624486825114978"><ele>731.0</ele><time>2026-03-28T14:06:09Z</time></trkpt><trkpt lat="44.752527606804634" lon="9.624369855976031"><ele>731.3333333333333</ele><time>2026-03-28T14:06:12Z</time></trkpt><trkpt lat="44.75246513648506" lon="9.624275282735454"><ele>731.6666666666666</ele><time>2026-03-28T14:06:15Z</time></trkpt><trkpt lat="44.75238665240602" lon="9.624221708128985"><ele>732.0</ele><time>2026-03-28T14:06:18Z</time></trkpt><trkpt lat="44.75230129880616" lon="9.624212270774263"><ele>732.3333333333334</ele><time>2026-03-28T14:06:21Z</time></trkpt><trkpt lat="44.75223852677704" lon="9.624242309980247"><ele>732.6666666666667</ele><time>2026-03-28T14:06:22.999Z</time></trkpt><trkpt lat="44.75215291908358" lon="9.624306799413507"><ele>733.0</ele><time>2026-03-28T14:06:25.999Z</time></trkpt><trkpt lat="44.75209599386249" lon="9.624411134197283"><ele>732.6666666666667</ele><time>2026-03-28T14:06:28.999Z</time></trkpt><trkpt lat="44.75207331095164" lon="9.6245245384604"><ele>732.3333333333334</ele><time>2026-03-28T14:06:31.999Z</time></trkpt><trkpt lat="44.752057383424415" lon="9.624615700609773"><ele>732.0</ele><time>2026-03-28T14:06:34.999Z</time></trkpt><trkpt lat="44.75204903203137" lon="9.624721961625157"><ele>731.6666666666666</ele><time>2026-03-28T14:06:37.999Z</time></trkpt><trkpt lat="44.75204595016284" lon="9.624832029591767"><ele>731.3333333333333</ele><time>2026-03-28T14:06:40.999Z</time></trkpt><trkpt lat="44.75206255707472" lon="9.624937127675757"><ele>731.0</ele><time>2026-03-28T14:06:43.999Z</time></trkpt><trkpt lat="44.75208859995819" lon="9.62504258394174"><ele>731.0</ele><time>2026-03-28T14:06:46.999Z</time></trkpt><trkpt lat="44.75210750142783" lon="9.625138852435011"><ele>731.0</ele><time>2026-03-28T14:06:49.999Z</time></trkpt><trkpt lat="44.75209704360215" lon="9.62525119105464"><ele>731.0</ele><time>2026-03-28T14:06:52.999Z</time></trkpt><trkpt lat="44.75204975367365" lon="9.625336088206396"><ele>731.0</ele><time>2026-03-28T14:06:55.999Z</time></trkpt><trkpt lat="44.751976834696016" lon="9.625430361706943"><ele>731.0</ele><time>2026-03-28T14:06:58.999Z</time></trkpt><trkpt lat="44.75192831220292" lon="9.625505278121077"><ele>731.0</ele><time>2026-03-28T14:07:01.999Z</time></trkpt><trkpt lat="44.7518800292269" lon="9.625579903759661"><ele>733.8333333333333</ele><time>2026-03-28T14:07:03.999Z</time></trkpt><trkpt lat="44.75182551790005" lon="9.625689985915521"><ele>736.6666666666666</ele><time>2026-03-28T14:07:06.999Z</time></trkpt><trkpt lat="44.751766107881934" lon="9.625783552278664"><ele>739.5</ele><time>2026-03-28T14:07:09.999Z</time></trkpt><trkpt lat="44.7517110517124" lon="9.625878638377348"><ele>742.3333333333334</ele><time>2026-03-28T14:07:12.999Z</time></trkpt><trkpt lat="44.751665198772834" lon="9.625952143260836"><ele>745.1666666666667</ele><time>2026-03-28T14:07:15.998Z</time></trkpt><trkpt lat="44.75162122747362" lon="9.626062142145553"><ele>748.0</ele><time>2026-03-28T14:07:18.998Z</time></trkpt><trkpt lat="44.75156425899674" lon="9.62615380819701"><ele>750.8333333333334</ele><time>2026-03-28T14:07:21.998Z</time></trkpt><trkpt lat="44.75151099780852" lon="9.626252508470802"><ele>753.6666666666667</ele><time>2026-03-28T14:07:24.998Z</time></trkpt><trkpt lat="44.75146142665548" lon="9.626320334902744"><ele>756.5</ele><time>2026-03-28T14:07:26.998Z</time></trkpt><trkpt lat="44.751386482377995" lon="9.626378998485242"><ele>759.3333333333334</ele><time>2026-03-28T14:07:29.998Z</time></trkpt><trkpt lat="44.75130119766431" lon="9.626405683473118"><ele>762.1666666666666</ele><time>2026-03-28T14:07:32.998Z</time></trkpt><trkpt lat="44.75121806429624" lon="9.626420832768353"><ele>765.0</ele><time>2026-03-28T14:07:35.998Z</time></trkpt><trkpt lat="44.75114313294703" lon="9.626460111240686"><ele>765.0</ele><time>2026-03-28T14:07:39Z</time></trkpt><trkpt lat="44.75107455253062" lon="9.626440712447593"><ele>765.0</ele><time>2026-03-28T14:07:41Z</time></trkpt><trkpt lat="44.75098664519395" lon="9.626444155422236"><ele>765.0</ele><time>2026-03-28T14:07:44Z</time></trkpt><trkpt lat="44.75089927418333" lon="9.62643279595761"><ele>765.0</ele><time>2026-03-28T14:07:47Z</time></trkpt><trkpt lat="44.75081529701396" lon="9.626417248691086"><ele>765.0</ele><time>2026-03-28T14:07:50Z</time></trkpt><trkpt lat="44.75073077743343" lon="9.626381929539935"><ele>765.0</ele><time>2026-03-28T14:07:53Z</time></trkpt><trkpt lat="44.750650586110275" lon="9.626345101378556"><ele>765.8333333333334</ele><time>2026-03-28T14:07:56Z</time></trkpt><trkpt lat="44.7505654223711" lon="9.62632150958036"><ele>766.6666666666667</ele><time>2026-03-28T14:07:59Z</time></trkpt><trkpt lat="44.750481600679194" lon="9.626310323921107"><ele>767.5</ele><time>2026-03-28T14:08:02Z</time></trkpt><trkpt lat="44.750398691283486" lon="9.626308772980458"><ele>768.3333333333334</ele><time>2026-03-28T14:08:05Z</time></trkpt><trkpt lat="44.750312017210355" lon="9.626303738573899"><ele>769.1666666666667</ele><time>2026-03-28T14:08:08Z</time></trkpt><trkpt lat="44.75022481992573" lon="9.62630853594359"><ele>770.0</ele><time>2026-03-28T14:08:11Z</time></trkpt><trkpt lat="44.750149559460844" lon="9.626307457392388"><ele>771.3333333333334</ele><time>2026-03-28T14:08:14Z</time></trkpt><trkpt lat="44.75005890586652" lon="9.626311420853945"><ele>772.6666666666667</ele><time>2026-03-28T14:08:17Z</time></trkpt><trkpt lat="44.749985482690164" lon="9.626311542848109"><ele>774.0</ele><time>2026-03-28T14:08:20Z</time></trkpt><trkpt lat="44.74989838347852" lon="9.626310546774587"><ele>775.3333333333333</ele><time>2026-03-28T14:08:23Z</time></trkpt><trkpt lat="44.7498104966024" lon="9.626322569474965"><ele>776.6666666666666</ele><time>2026-03-28T14:08:26Z</time></trkpt><trkpt lat="44.74972462527643" lon="9.626338019061032"><ele>778.0</ele><time>2026-03-28T14:08:28.999Z</time></trkpt><trkpt lat="44.74963992511182" lon="9.626382939975915"><ele>777.9999999999999</ele><time>2026-03-28T14:08:31.999Z</time></trkpt><trkpt lat="44.74955820022313" lon="9.626436092216409"><ele>778.0</ele><time>2026-03-28T14:08:34.999Z</time></trkpt><trkpt lat="44.749472714476696" lon="9.626483245617292"><ele>778.0</ele><time>2026-03-28T14:08:37.999Z</time></trkpt><trkpt lat="44.7493963992842" lon="9.626544393697811"><ele>778.0</ele><time>2026-03-28T14:08:40.999Z</time></trkpt><trkpt lat="44.74931052186934" lon="9.626595509446334"><ele>777.9999999999999</ele><time>2026-03-28T14:08:43.999Z</time></trkpt><trkpt lat="44.74923841222355" lon="9.62664268069778"><ele>778.0</ele><time>2026-03-28T14:08:46.999Z</time></trkpt><trkpt lat="44.74918118434956" lon="9.62668808660112"><ele>777.1666666666666</ele><time>2026-03-28T14:08:48.999Z</time></trkpt><trkpt lat="44.74913476583051" lon="9.626782528599055"><ele>776.3333333333333</ele><time>2026-03-28T14:08:51.999Z</time></trkpt><trkpt lat="44.749111257114286" lon="9.626895479889386"><ele>775.5</ele><time>2026-03-28T14:08:54.999Z</time></trkpt><trkpt lat="44.74912745465669" lon="9.627007849635294"><ele>774.6666666666667</ele><time>2026-03-28T14:08:57.999Z</time></trkpt><trkpt lat="44.74915333802488" lon="9.62710926242906"><ele>773.8333333333334</ele><time>2026-03-28T14:09:00.999Z</time></trkpt><trkpt lat="44.7492004213447" lon="9.6272101562565"><ele>773.0</ele><time>2026-03-28T14:09:03.999Z</time></trkpt><trkpt lat="44.749240500459415" lon="9.627310015320965"><ele>773.0000000000001</ele><time>2026-03-28T14:09:06.999Z</time></trkpt><trkpt lat="44.74929726192275" lon="9.627404775166509"><ele>773.0</ele><time>2026-03-28T14:09:09.999Z</time></trkpt><trkpt lat="44.74934362995403" lon="9.627481057175762"><ele>773.0</ele><time>2026-03-28T14:09:12.999Z</time></trkpt><trkpt lat="44.74939013568354" lon="9.627558067661049"><ele>773.0</ele><time>2026-03-28T14:09:15.999Z</time></trkpt><trkpt lat="44.74943859490926" lon="9.627656251834326"><ele>773.0000000000001</ele><time>2026-03-28T14:09:18.999Z</time></trkpt><trkpt lat="44.74948847551519" lon="9.62774291776716"><ele>773.0</ele><time>2026-03-28T14:09:21.998Z</time></trkpt><trkpt lat="44.749496367263895" lon="9.627856240422018"><ele>774.6666666666667</ele><time>2026-03-28T14:09:24.998Z</time></trkpt><trkpt lat="44.749447380706826" lon="9.627940221612116"><ele>776.3333333333334</ele><time>2026-03-28T14:09:27.998Z</time></trkpt><trkpt lat="44.74934428729928" lon="9.627967491703293"><ele>778.0</ele><time>2026-03-28T14:09:30.998Z</time></trkpt><trkpt lat="44.74928170605086" lon="9.627954152783122"><ele>779.6666666666667</ele><time>2026-03-28T14:09:32.998Z</time></trkpt><trkpt lat="44.74921130305494" lon="9.627958856102728"><ele>781.3333333333334</ele><time>2026-03-28T14:09:35.998Z</time></trkpt><trkpt lat="44.74913901493745" lon="9.627960898413681"><ele>783.0</ele><time>2026-03-28T14:09:38.998Z</time></trkpt><trkpt lat="44.749044093614195" lon="9.627969701486004"><ele>783.0</ele><time>2026-03-28T14:09:41.998Z</time></trkpt><trkpt lat="44.748958819292724" lon="9.627972569945134"><ele>783.0</ele><time>2026-03-28T14:09:45Z</time></trkpt><trkpt lat="44.74888154845912" lon="9.627981149082775"><ele>783.0</ele><time>2026-03-28T14:09:48Z</time></trkpt><trkpt lat="44.74881651694257" lon="9.627990957193857"><ele>783.0</ele><time>2026-03-28T14:09:50Z</time></trkpt><trkpt lat="44.74874837820247" lon="9.627993856471429"><ele>783.0</ele><time>2026-03-28T14:09:52Z</time></trkpt><trkpt lat="44.748682884758146" lon="9.62799879331875"><ele>783.0</ele><time>2026-03-28T14:09:54Z</time></trkpt><trkpt lat="44.748621636826854" lon="9.628026094356116"><ele>783.0</ele><time>2026-03-28T14:09:56Z</time></trkpt><trkpt lat="44.74855889661875" lon="9.628044651876738"><ele>782.2857142857142</ele><time>2026-03-28T14:09:58Z</time></trkpt><trkpt lat="44.74849258143933" lon="9.628063442865136"><ele>781.5714285714287</ele><time>2026-03-28T14:10:00Z</time></trkpt><trkpt lat="44.74843451942292" lon="9.62810225562593"><ele>780.8571428571429</ele><time>2026-03-28T14:10:02Z</time></trkpt><trkpt lat="44.748364118496546" lon="9.628133778762255"><ele>780.1428571428571</ele><time>2026-03-28T14:10:04Z</time></trkpt><trkpt lat="44.74829207358935" lon="9.628176971051833"><ele>779.4285714285713</ele><time>2026-03-28T14:10:06Z</time></trkpt><trkpt lat="44.74822106653534" lon="9.628226291721269"><ele>778.7142857142858</ele><time>2026-03-28T14:10:08Z</time></trkpt><trkpt lat="44.74815204934839" lon="9.628268923092492"><ele>778.0</ele><time>2026-03-28T14:10:10Z</time></trkpt><trkpt lat="44.74808565849409" lon="9.628311777886577"><ele>777.9999999999999</ele><time>2026-03-28T14:10:12Z</time></trkpt><trkpt lat="44.74801913290005" lon="9.628357908279895"><ele>778.0</ele><time>2026-03-28T14:10:14Z</time></trkpt><trkpt lat="44.747953961469904" lon="9.628408291365522"><ele>778.0</ele><time>2026-03-28T14:10:16Z</time></trkpt><trkpt lat="44.7478928183501" lon="9.628464278678022"><ele>778.0</ele><time>2026-03-28T14:10:18Z</time></trkpt><trkpt lat="44.74783644279118" lon="9.628533132754526"><ele>777.9999999999999</ele><time>2026-03-28T14:10:20Z</time></trkpt><trkpt lat="44.74778758368724" lon="9.628615635599791"><ele>778.0</ele><time>2026-03-28T14:10:22Z</time></trkpt><trkpt lat="44.747749707030025" lon="9.628715446876923"><ele>777.3333333333333</ele><time>2026-03-28T14:10:24Z</time></trkpt><trkpt lat="44.74771850497161" lon="9.628820992096845"><ele>776.6666666666666</ele><time>2026-03-28T14:10:26Z</time></trkpt><trkpt lat="44.74768914350362" lon="9.628933963363608"><ele>776.0</ele><time>2026-03-28T14:10:28Z</time></trkpt><trkpt lat="44.74766488295138" lon="9.629049680673846"><ele>775.3333333333333</ele><time>2026-03-28T14:10:30Z</time></trkpt><trkpt lat="44.747629166438024" lon="9.629171154451004"><ele>774.6666666666666</ele><time>2026-03-28T14:10:31.999Z</time></trkpt><trkpt lat="44.747603416748674" lon="9.629298050646936"><ele>774.0</ele><time>2026-03-28T14:10:33.999Z</time></trkpt><trkpt lat="44.74757908989318" lon="9.629424840974904"><ele>776.8000000000001</ele><time>2026-03-28T14:10:35.999Z</time></trkpt><trkpt lat="44.74755133753872" lon="9.629546718909198"><ele>779.6</ele><time>2026-03-28T14:10:37.999Z</time></trkpt><trkpt lat="44.74752182553599" lon="9.629674227630437"><ele>782.4</ele><time>2026-03-28T14:10:39.999Z</time></trkpt><trkpt lat="44.74749866170351" lon="9.629798703227657"><ele>785.2</ele><time>2026-03-28T14:10:41.999Z</time></trkpt><trkpt lat="44.74747126690137" lon="9.629925413160713"><ele>788.0</ele><time>2026-03-28T14:10:43.999Z</time></trkpt><trkpt lat="44.74744753746618" lon="9.630047897104964"><ele>788.0</ele><time>2026-03-28T14:10:45.999Z</time></trkpt><trkpt lat="44.74742293326137" lon="9.630177555772919"><ele>788.0</ele><time>2026-03-28T14:10:47.999Z</time></trkpt><trkpt lat="44.74739251466877" lon="9.630304362659176"><ele>788.0</ele><time>2026-03-28T14:10:49.999Z</time></trkpt><trkpt lat="44.747340749722724" lon="9.630423836691968"><ele>788.0</ele><time>2026-03-28T14:10:51.999Z</time></trkpt><trkpt lat="44.747265705886875" lon="9.630514274391777"><ele>788.0</ele><time>2026-03-28T14:10:53.999Z</time></trkpt><trkpt lat="44.747194625015034" lon="9.63058255050075"><ele>791.3333333333334</ele><time>2026-03-28T14:10:55.999Z</time></trkpt><trkpt lat="44.74713208059783" lon="9.630652194911256"><ele>794.6666666666667</ele><time>2026-03-28T14:10:57.999Z</time></trkpt><trkpt lat="44.74707386908707" lon="9.630729801878948"><ele>798.0</ele><time>2026-03-28T14:10:59.999Z</time></trkpt><trkpt lat="44.74701969524317" lon="9.630792080515219"><ele>801.3333333333333</ele><time>2026-03-28T14:11:01.999Z</time></trkpt><trkpt lat="44.74697389375803" lon="9.63087127345131"><ele>804.6666666666666</ele><time>2026-03-28T14:11:03.999Z</time></trkpt><trkpt lat="44.746931736112046" lon="9.630960208283406"><ele>808.0</ele><time>2026-03-28T14:11:05.999Z</time></trkpt><trkpt lat="44.74687968014005" lon="9.631040312737154"><ele>807.4285714285714</ele><time>2026-03-28T14:11:07.999Z</time></trkpt><trkpt lat="44.74682027107335" lon="9.631111744234584"><ele>806.8571428571429</ele><time>2026-03-28T14:11:09.999Z</time></trkpt><trkpt lat="44.7467611830826" lon="9.63117520101218"><ele>806.2857142857142</ele><time>2026-03-28T14:11:11.999Z</time></trkpt><trkpt lat="44.746704882479335" lon="9.631239211219475"><ele>805.7142857142858</ele><time>2026-03-28T14:11:13.999Z</time></trkpt><trkpt lat="44.74664835898741" lon="9.63129857047089"><ele>805.1428571428572</ele><time>2026-03-28T14:11:15.999Z</time></trkpt><trkpt lat="44.74659305900679" lon="9.631359058657376"><ele>804.5714285714286</ele><time>2026-03-28T14:11:17.999Z</time></trkpt><trkpt lat="44.74654272680044" lon="9.631422003178061"><ele>804.0</ele><time>2026-03-28T14:11:19.999Z</time></trkpt><trkpt lat="44.74649415292771" lon="9.631486949413581"><ele>804.0</ele><time>2026-03-28T14:11:21.999Z</time></trkpt><trkpt lat="44.746444879313415" lon="9.631550033289818"><ele>804.0</ele><time>2026-03-28T14:11:23.998Z</time></trkpt><trkpt lat="44.746395346237094" lon="9.631607977576461"><ele>804.0</ele><time>2026-03-28T14:11:25.998Z</time></trkpt><trkpt lat="44.74632241495045" lon="9.63168770608326"><ele>804.0</ele><time>2026-03-28T14:11:28.998Z</time></trkpt><trkpt lat="44.74623983677879" lon="9.631744338249662"><ele>804.0</ele><time>2026-03-28T14:11:31.998Z</time></trkpt><trkpt lat="44.74616333031121" lon="9.631780240750592"><ele>804.0</ele><time>2026-03-28T14:11:34.998Z</time></trkpt><trkpt lat="44.746078768580745" lon="9.631806888319423"><ele>804.5</ele><time>2026-03-28T14:11:37.998Z</time></trkpt><trkpt lat="44.74600652030062" lon="9.631854339485406"><ele>805.0</ele><time>2026-03-28T14:11:40.998Z</time></trkpt><trkpt lat="44.74593798360456" lon="9.631921950455563"><ele>805.5</ele><time>2026-03-28T14:11:43.998Z</time></trkpt><trkpt lat="44.745880246947515" lon="9.632008019847193"><ele>806.0</ele><time>2026-03-28T14:11:46.998Z</time></trkpt><trkpt lat="44.74584477478255" lon="9.63211670973679"><ele>806.5</ele><time>2026-03-28T14:11:50Z</time></trkpt><trkpt lat="44.745804497555184" lon="9.632217015969983"><ele>807.0</ele><time>2026-03-28T14:11:53Z</time></trkpt><trkpt lat="44.74576892007192" lon="9.632301841634565"><ele>807.0</ele><time>2026-03-28T14:11:56Z</time></trkpt><trkpt lat="44.74573754406549" lon="9.63240062799864"><ele>807.0</ele><time>2026-03-28T14:11:59Z</time></trkpt><trkpt lat="44.745688047637756" lon="9.63250085789985"><ele>807.0</ele><time>2026-03-28T14:12:02Z</time></trkpt><trkpt lat="44.745654663815515" lon="9.632602802588224"><ele>807.0</ele><time>2026-03-28T14:12:05Z</time></trkpt><trkpt lat="44.7456032453515" lon="9.632692433478923"><ele>807.0</ele><time>2026-03-28T14:12:08Z</time></trkpt><trkpt lat="44.74555035941641" lon="9.632771403507407"><ele>807.0</ele><time>2026-03-28T14:12:11Z</time></trkpt><trkpt lat="44.74550236727696" lon="9.63284059725009"><ele>807.3333333333334</ele><time>2026-03-28T14:12:13Z</time></trkpt><trkpt lat="44.7454451096037" lon="9.63289745409851"><ele>807.6666666666667</ele><time>2026-03-28T14:12:15Z</time></trkpt><trkpt lat="44.74537654935834" lon="9.632962003296873"><ele>808.0</ele><time>2026-03-28T14:12:18Z</time></trkpt><trkpt lat="44.745292090455536" lon="9.633021433550965"><ele>808.3333333333334</ele><time>2026-03-28T14:12:21Z</time></trkpt><trkpt lat="44.74523721048093" lon="9.633091495013934"><ele>808.6666666666667</ele><time>2026-03-28T14:12:24Z</time></trkpt><trkpt lat="44.745178095135216" lon="9.633144514329203"><ele>809.0</ele><time>2026-03-28T14:12:27Z</time></trkpt><trkpt lat="44.74513004524934" lon="9.633204538731562"><ele>809.0</ele><time>2026-03-28T14:12:29Z</time></trkpt><trkpt lat="44.745080134208806" lon="9.633307192739457"><ele>809.0</ele><time>2026-03-28T14:12:32Z</time></trkpt><trkpt lat="44.74507347263355" lon="9.63342898735855"><ele>809.0</ele><time>2026-03-28T14:12:34Z</time></trkpt><trkpt lat="44.74506799337658" lon="9.63355834953585"><ele>809.0</ele><time>2026-03-28T14:12:35.999Z</time></trkpt><trkpt lat="44.7449846226947" lon="9.633706541208621"><ele>809.0</ele><time>2026-03-28T14:12:36.999Z</time></trkpt><trkpt lat="44.744991561961854" lon="9.633813559763572"><ele>810.0</ele><time>2026-03-28T14:12:38.999Z</time></trkpt><trkpt lat="44.7450103721311" lon="9.633953207148442"><ele>811.0</ele><time>2026-03-28T14:12:40.999Z</time></trkpt><trkpt lat="44.74501569900147" lon="9.634102283056798"><ele>812.0</ele><time>2026-03-28T14:12:42.999Z</time></trkpt><trkpt lat="44.74500133047518" lon="9.634223767410079"><ele>813.0</ele><time>2026-03-28T14:12:44.999Z</time></trkpt><trkpt lat="44.7449545685773" lon="9.63434385747155"><ele>814.0</ele><time>2026-03-28T14:12:46.999Z</time></trkpt><trkpt lat="44.74489716046475" lon="9.634458327737134"><ele>813.2</ele><time>2026-03-28T14:12:48.999Z</time></trkpt><trkpt lat="44.74487809200997" lon="9.634576335569411"><ele>812.4000000000001</ele><time>2026-03-28T14:12:50.999Z</time></trkpt><trkpt lat="44.744885664848766" lon="9.63471200579256"><ele>811.6</ele><time>2026-03-28T14:12:52.999Z</time></trkpt><trkpt lat="44.74492625585428" lon="9.63483988306213"><ele>810.8</ele><time>2026-03-28T14:12:54.999Z</time></trkpt><trkpt lat="44.74500140688384" lon="9.634914419992672"><ele>810.0</ele><time>2026-03-28T14:12:56.999Z</time></trkpt><trkpt lat="44.74507846987509" lon="9.6349799671017"><ele>810.0</ele><time>2026-03-28T14:12:58.999Z</time></trkpt><trkpt lat="44.74515497617946" lon="9.635067213718488"><ele>810.0</ele><time>2026-03-28T14:13:00.999Z</time></trkpt><trkpt lat="44.74521809231628" lon="9.635179387944982"><ele>810.0</ele><time>2026-03-28T14:13:02.999Z</time></trkpt><trkpt lat="44.7452664469534" lon="9.635289915982709"><ele>810.0</ele><time>2026-03-28T14:13:04.999Z</time></trkpt><trkpt lat="44.745308669244295" lon="9.635415688416415"><ele>810.0</ele><time>2026-03-28T14:13:06.999Z</time></trkpt><trkpt lat="44.745351293355796" lon="9.635532193882428"><ele>816.0</ele><time>2026-03-28T14:13:08.999Z</time></trkpt><trkpt lat="44.745397215004516" lon="9.635654304984879"><ele>822.0</ele><time>2026-03-28T14:13:10.999Z</time></trkpt><trkpt lat="44.74545286311029" lon="9.635778200647808"><ele>828.0</ele><time>2026-03-28T14:13:12.999Z</time></trkpt><trkpt lat="44.74551958996562" lon="9.63588935969827"><ele>834.0</ele><time>2026-03-28T14:13:14.999Z</time></trkpt><trkpt lat="44.74558770096546" lon="9.636000308583638"><ele>840.0</ele><time>2026-03-28T14:13:16.999Z</time></trkpt><trkpt lat="44.74565018783329" lon="9.636105999509049"><ele>836.6</ele><time>2026-03-28T14:13:18.999Z</time></trkpt><trkpt lat="44.74571675539769" lon="9.636205933033148"><ele>833.2</ele><time>2026-03-28T14:13:20.999Z</time></trkpt><trkpt lat="44.745782867359246" lon="9.636310313066211"><ele>829.8</ele><time>2026-03-28T14:13:22.999Z</time></trkpt><trkpt lat="44.74584739834502" lon="9.636411392950771"><ele>826.4</ele><time>2026-03-28T14:13:24.999Z</time></trkpt><trkpt lat="44.74590911126052" lon="9.636505236686821"><ele>823.0</ele><time>2026-03-28T14:13:26.999Z</time></trkpt><trkpt lat="44.74597372485567" lon="9.636597137524086"><ele>823.0</ele><time>2026-03-28T14:13:28.999Z</time></trkpt><trkpt lat="44.746032415177254" lon="9.636688931401256"><ele>823.0</ele><time>2026-03-28T14:13:30.998Z</time></trkpt><trkpt lat="44.74609174043514" lon="9.636786301197704"><ele>823.0</ele><time>2026-03-28T14:13:32.998Z</time></trkpt><trkpt lat="44.74615490859487" lon="9.636883545901943"><ele>823.0</ele><time>2026-03-28T14:13:34.998Z</time></trkpt><trkpt lat="44.74621779408586" lon="9.636978501529585"><ele>823.0</ele><time>2026-03-28T14:13:36.998Z</time></trkpt><trkpt lat="44.746278463635505" lon="9.637071621031094"><ele>822.1666666666666</ele><time>2026-03-28T14:13:38.998Z</time></trkpt><trkpt lat="44.746336430845865" lon="9.637163066119014"><ele>821.3333333333333</ele><time>2026-03-28T14:13:40.998Z</time></trkpt><trkpt lat="44.74640063309244" lon="9.63724478961337"><ele>820.5</ele><time>2026-03-28T14:13:42.998Z</time></trkpt><trkpt lat="44.746485904371916" lon="9.637283203767058"><ele>819.6666666666667</ele><time>2026-03-28T14:13:45.998Z</time></trkpt><trkpt lat="44.74658472037687" lon="9.637280644412227"><ele>818.8333333333334</ele><time>2026-03-28T14:13:47.998Z</time></trkpt><trkpt lat="44.746656636750565" lon="9.637274809151876"><ele>818.0</ele><time>2026-03-28T14:13:49.998Z</time></trkpt><trkpt lat="44.746739298619254" lon="9.63725953435958"><ele>818.0000000000001</ele><time>2026-03-28T14:13:51.998Z</time></trkpt><trkpt lat="44.74681149726608" lon="9.63725198184119"><ele>818.0</ele><time>2026-03-28T14:13:53.998Z</time></trkpt><trkpt lat="44.74690087739083" lon="9.637244958733705"><ele>818.0</ele><time>2026-03-28T14:13:56Z</time></trkpt><trkpt lat="44.74697133752859" lon="9.63726515458115"><ele>818.0</ele><time>2026-03-28T14:13:58Z</time></trkpt><trkpt lat="44.74704837964476" lon="9.63727718846222"><ele>818.0000000000001</ele><time>2026-03-28T14:14:00Z</time></trkpt><trkpt lat="44.74712433985431" lon="9.63730291104591"><ele>818.0</ele><time>2026-03-28T14:14:02Z</time></trkpt><trkpt lat="44.747201221851014" lon="9.637330302853817"><ele>820.3333333333334</ele><time>2026-03-28T14:14:04Z</time></trkpt><trkpt lat="44.74727602361342" lon="9.63736300307775"><ele>822.6666666666667</ele><time>2026-03-28T14:14:06Z</time></trkpt><trkpt lat="44.74734733933081" lon="9.637417568808678"><ele>825.0</ele><time>2026-03-28T14:14:08Z</time></trkpt><trkpt lat="44.74741124504597" lon="9.63748771936981"><ele>827.3333333333333</ele><time>2026-03-28T14:14:10Z</time></trkpt><trkpt lat="44.74744486753229" lon="9.637593408887684"><ele>829.6666666666666</ele><time>2026-03-28T14:14:12Z</time></trkpt><trkpt lat="44.74747513671437" lon="9.637679867155342"><ele>832.0</ele><time>2026-03-28T14:14:14Z</time></trkpt><trkpt lat="44.747495766376325" lon="9.637783309953265"><ele>831.1428571428571</ele><time>2026-03-28T14:14:16Z</time></trkpt><trkpt lat="44.74750348429547" lon="9.637885280989353"><ele>830.2857142857143</ele><time>2026-03-28T14:14:18Z</time></trkpt><trkpt lat="44.74750912698215" lon="9.637999055515351"><ele>829.4285714285714</ele><time>2026-03-28T14:14:20Z</time></trkpt><trkpt lat="44.74750079021269" lon="9.638096886438102"><ele>828.5714285714286</ele><time>2026-03-28T14:14:22Z</time></trkpt><trkpt lat="44.74749546749833" lon="9.63820842026369"><ele>827.7142857142858</ele><time>2026-03-28T14:14:24Z</time></trkpt><trkpt lat="44.74749250697106" lon="9.638299923904938"><ele>826.8571428571429</ele><time>2026-03-28T14:14:26Z</time></trkpt><trkpt lat="44.747496090008575" lon="9.638408253343043"><ele>826.0</ele><time>2026-03-28T14:14:28Z</time></trkpt><trkpt lat="44.747551412908784" lon="9.638537227390838"><ele>825.9999999999999</ele><time>2026-03-28T14:14:31Z</time></trkpt><trkpt lat="44.74760894505396" lon="9.638629907961423"><ele>826.0</ele><time>2026-03-28T14:14:33Z</time></trkpt><trkpt lat="44.74767206648978" lon="9.638709129309786"><ele>826.0</ele><time>2026-03-28T14:14:35Z</time></trkpt><trkpt lat="44.747734460339665" lon="9.638778422947057"><ele>826.0</ele><time>2026-03-28T14:14:37Z</time></trkpt><trkpt lat="44.74780010221307" lon="9.638838290811185"><ele>825.9999999999999</ele><time>2026-03-28T14:14:39Z</time></trkpt><trkpt lat="44.74786475136147" lon="9.638906705220828"><ele>826.0</ele><time>2026-03-28T14:14:40.999Z</time></trkpt><trkpt lat="44.74792468297709" lon="9.638973517135135"><ele>827.8333333333333</ele><time>2026-03-28T14:14:42.999Z</time></trkpt><trkpt lat="44.74798974983731" lon="9.639035255533665"><ele>829.6666666666666</ele><time>2026-03-28T14:14:44.999Z</time></trkpt><trkpt lat="44.74804928254318" lon="9.639101742820161"><ele>831.5</ele><time>2026-03-28T14:14:46.999Z</time></trkpt><trkpt lat="44.748107398864256" lon="9.63917036730124"><ele>833.3333333333333</ele><time>2026-03-28T14:14:48.999Z</time></trkpt><trkpt lat="44.74815632920657" lon="9.639302518693748"><ele>835.1666666666666</ele><time>2026-03-28T14:14:50.999Z</time></trkpt><trkpt lat="44.748222434592435" lon="9.639364308360982"><ele>837.0</ele><time>2026-03-28T14:14:54.999Z</time></trkpt><trkpt lat="44.748369529068164" lon="9.639459401238861"><ele>835.7142857142858</ele><time>2026-03-28T14:14:57.999Z</time></trkpt><trkpt lat="44.74842105771916" lon="9.6395272661342"><ele>834.4285714285714</ele><time>2026-03-28T14:14:59.999Z</time></trkpt><trkpt lat="44.748468834308696" lon="9.63960150927371"><ele>833.1428571428571</ele><time>2026-03-28T14:15:01.999Z</time></trkpt><trkpt lat="44.748521181372816" lon="9.639664305207635"><ele>831.8571428571429</ele><time>2026-03-28T14:15:03.999Z</time></trkpt><trkpt lat="44.74856636407566" lon="9.639745386345732"><ele>830.5714285714286</ele><time>2026-03-28T14:15:05.999Z</time></trkpt><trkpt lat="44.74861208231126" lon="9.639821871298397"><ele>829.2857142857143</ele><time>2026-03-28T14:15:07.999Z</time></trkpt><trkpt lat="44.748656072548805" lon="9.63989373481003"><ele>828.0</ele><time>2026-03-28T14:15:09.999Z</time></trkpt><trkpt lat="44.748703185005034" lon="9.639967251745688"><ele>830.8571428571429</ele><time>2026-03-28T14:15:11.999Z</time></trkpt><trkpt lat="44.74874398357408" lon="9.640040059635185"><ele>833.7142857142858</ele><time>2026-03-28T14:15:13.999Z</time></trkpt><trkpt lat="44.74878668537366" lon="9.640110306660432"><ele>836.5714285714287</ele><time>2026-03-28T14:15:15.999Z</time></trkpt><trkpt lat="44.74883011560935" lon="9.640183425683809"><ele>839.4285714285714</ele><time>2026-03-28T14:15:17.999Z</time></trkpt><trkpt lat="44.748853573699" lon="9.64027941603764"><ele>842.2857142857142</ele><time>2026-03-28T14:15:20.999Z</time></trkpt><trkpt lat="44.748882992552595" lon="9.640378829958767"><ele>845.1428571428572</ele><time>2026-03-28T14:15:23.999Z</time></trkpt><trkpt lat="44.74890557044789" lon="9.640463217754856"><ele>848.0</ele><time>2026-03-28T14:15:25.999Z</time></trkpt><trkpt lat="44.74891530599721" lon="9.640574622143175"><ele>848.1666666666667</ele><time>2026-03-28T14:15:28.999Z</time></trkpt><trkpt lat="44.7489173490718" lon="9.640691754729039"><ele>848.3333333333334</ele><time>2026-03-28T14:15:30.999Z</time></trkpt><trkpt lat="44.748938662449895" lon="9.640805083187557"><ele>848.5</ele><time>2026-03-28T14:15:32.999Z</time></trkpt><trkpt lat="44.74894801288696" lon="9.640935319614359"><ele>848.6666666666667</ele><time>2026-03-28T14:15:34.998Z</time></trkpt><trkpt lat="44.748962207665876" lon="9.641054787050221"><ele>848.8333333333334</ele><time>2026-03-28T14:15:36.998Z</time></trkpt><trkpt lat="44.748985621115786" lon="9.641173782748476"><ele>849.0</ele><time>2026-03-28T14:15:38.998Z</time></trkpt><trkpt lat="44.748999533304634" lon="9.641288547155419"><ele>849.0</ele><time>2026-03-28T14:15:40.998Z</time></trkpt><trkpt lat="44.748997778801254" lon="9.641421511275523"><ele>849.0</ele><time>2026-03-28T14:15:42.998Z</time></trkpt><trkpt lat="44.749001413115344" lon="9.641545686433012"><ele>849.0</ele><time>2026-03-28T14:15:44.998Z</time></trkpt><trkpt lat="44.74900138988511" lon="9.64165813802045"><ele>849.0</ele><time>2026-03-28T14:15:46.998Z</time></trkpt><trkpt lat="44.7490157863389" lon="9.641769334039376"><ele>849.0</ele><time>2026-03-28T14:15:48.998Z</time></trkpt><trkpt lat="44.749024331800655" lon="9.641859251876008"><ele>849.0</ele><time>2026-03-28T14:15:50.998Z</time></trkpt><trkpt lat="44.749020422839386" lon="9.64199724765748"><ele>849.0000000000001</ele><time>2026-03-28T14:15:53.998Z</time></trkpt><trkpt lat="44.749023613691826" lon="9.642097593534977"><ele>849.0</ele><time>2026-03-28T14:15:55.998Z</time></trkpt><trkpt lat="44.74902504673846" lon="9.642195393309462"><ele>849.0</ele><time>2026-03-28T14:15:57.998Z</time></trkpt><trkpt lat="44.74902861277968" lon="9.64229720326963"><ele>849.0</ele><time>2026-03-28T14:16:00Z</time></trkpt><trkpt lat="44.749039684615376" lon="9.642397488143727"><ele>849.0</ele><time>2026-03-28T14:16:02Z</time></trkpt><trkpt lat="44.749061553746394" lon="9.642495390724486"><ele>849.0000000000001</ele><time>2026-03-28T14:16:04Z</time></trkpt><trkpt lat="44.74908293481747" lon="9.642591433243853"><ele>849.0</ele><time>2026-03-28T14:16:06Z</time></trkpt><trkpt lat="44.749103939905005" lon="9.642684781169443"><ele>849.0000000000001</ele><time>2026-03-28T14:16:08Z</time></trkpt><trkpt lat="44.749124986804254" lon="9.642780645735026"><ele>849.0</ele><time>2026-03-28T14:16:10Z</time></trkpt><trkpt lat="44.74914587063239" lon="9.64287009232122"><ele>849.0</ele><time>2026-03-28T14:16:12Z</time></trkpt><trkpt lat="44.7491584348561" lon="9.64296178523037"><ele>849.0</ele><time>2026-03-28T14:16:14Z</time></trkpt><trkpt lat="44.74916355020713" lon="9.643054789264673"><ele>849.0</ele><time>2026-03-28T14:16:16Z</time></trkpt><trkpt lat="44.74916163511984" lon="9.643149327611232"><ele>849.0000000000001</ele><time>2026-03-28T14:16:18Z</time></trkpt><trkpt lat="44.749164784746945" lon="9.643246530711881"><ele>849.0</ele><time>2026-03-28T14:16:20Z</time></trkpt><trkpt lat="44.749166231412886" lon="9.64334044818127"><ele>849.2857142857143</ele><time>2026-03-28T14:16:22Z</time></trkpt><trkpt lat="44.74916452254047" lon="9.643432580657644"><ele>849.5714285714286</ele><time>2026-03-28T14:16:24Z</time></trkpt><trkpt lat="44.74915993873582" lon="9.643521968178678"><ele>849.8571428571429</ele><time>2026-03-28T14:16:26Z</time></trkpt><trkpt lat="44.74915745079067" lon="9.643651300943425"><ele>850.1428571428571</ele><time>2026-03-28T14:16:29Z</time></trkpt><trkpt lat="44.749159824627235" lon="9.643744967465159"><ele>850.4285714285714</ele><time>2026-03-28T14:16:31Z</time></trkpt><trkpt lat="44.74915428565681" lon="9.64383804802953"><ele>850.7142857142858</ele><time>2026-03-28T14:16:33Z</time></trkpt><trkpt lat="44.74914799229707" lon="9.643929126213955"><ele>851.0</ele><time>2026-03-28T14:16:35Z</time></trkpt><trkpt lat="44.74913722603368" lon="9.644019007156606"><ele>851.7142857142858</ele><time>2026-03-28T14:16:37Z</time></trkpt><trkpt lat="44.74911981389544" lon="9.644106531402727"><ele>852.4285714285714</ele><time>2026-03-28T14:16:39Z</time></trkpt><trkpt lat="44.74910551930162" lon="9.644198482625782"><ele>853.1428571428571</ele><time>2026-03-28T14:16:41Z</time></trkpt><trkpt lat="44.74908898929359" lon="9.644284650285284"><ele>853.8571428571429</ele><time>2026-03-28T14:16:42.999Z</time></trkpt><trkpt lat="44.749066258473704" lon="9.644370305259661"><ele>854.5714285714286</ele><time>2026-03-28T14:16:44.999Z</time></trkpt><trkpt lat="44.74904211562213" lon="9.64445885418098"><ele>855.2857142857143</ele><time>2026-03-28T14:16:46.999Z</time></trkpt><trkpt lat="44.74901886390605" lon="9.64454391614519"><ele>856.0</ele><time>2026-03-28T14:16:48.999Z</time></trkpt><trkpt lat="44.74898850648509" lon="9.644632325861728"><ele>857.1428571428572</ele><time>2026-03-28T14:16:50.999Z</time></trkpt><trkpt lat="44.74895486371358" lon="9.644719174115268"><ele>858.2857142857143</ele><time>2026-03-28T14:16:52.999Z</time></trkpt><trkpt lat="44.748913909247555" lon="9.644794808998425"><ele>859.4285714285714</ele><time>2026-03-28T14:16:54.999Z</time></trkpt><trkpt lat="44.74886679547153" lon="9.644865281034356"><ele>860.5714285714287</ele><time>2026-03-28T14:16:56.999Z</time></trkpt><trkpt lat="44.74880299619923" lon="9.644930038928848"><ele>861.7142857142857</ele><time>2026-03-28T14:16:58.999Z</time></trkpt><trkpt lat="44.748739608269645" lon="9.644975905193709"><ele>862.8571428571429</ele><time>2026-03-28T14:17:00.999Z</time></trkpt><trkpt lat="44.74868476994672" lon="9.645033021933545"><ele>864.0</ele><time>2026-03-28T14:17:02.999Z</time></trkpt><trkpt lat="44.748631558077925" lon="9.645099336704309"><ele>864.0</ele><time>2026-03-28T14:17:04.999Z</time></trkpt><trkpt lat="44.74858643481619" lon="9.645171825764685"><ele>864.0</ele><time>2026-03-28T14:17:06.999Z</time></trkpt><trkpt lat="44.74854371432352" lon="9.64525135949553"><ele>864.0</ele><time>2026-03-28T14:17:08.999Z</time></trkpt><trkpt lat="44.74850971929643" lon="9.645326692152869"><ele>864.0</ele><time>2026-03-28T14:17:10.999Z</time></trkpt><trkpt lat="44.74846676823352" lon="9.645409670012162"><ele>864.0</ele><time>2026-03-28T14:17:12.999Z</time></trkpt><trkpt lat="44.7484282152288" lon="9.64548884501229"><ele>864.0</ele><time>2026-03-28T14:17:14.999Z</time></trkpt><trkpt lat="44.748381335421236" lon="9.64556329617936"><ele>864.0</ele><time>2026-03-28T14:17:16.999Z</time></trkpt><trkpt lat="44.74833253113642" lon="9.645626584282127"><ele>864.0</ele><time>2026-03-28T14:17:18.999Z</time></trkpt><trkpt lat="44.74828549718545" lon="9.645691734911567"><ele>864.0</ele><time>2026-03-28T14:17:20.999Z</time></trkpt><trkpt lat="44.7482350934631" lon="9.64575438044421"><ele>864.0</ele><time>2026-03-28T14:17:22.999Z</time></trkpt><trkpt lat="44.74815430436734" lon="9.64581764773624"><ele>864.0</ele><time>2026-03-28T14:17:25.999Z</time></trkpt><trkpt lat="44.748080749560636" lon="9.64588931212094"><ele>864.0</ele><time>2026-03-28T14:17:29.999Z</time></trkpt><trkpt lat="44.74799099451205" lon="9.646018546669655"><ele>864.0</ele><time>2026-03-28T14:17:31.999Z</time></trkpt><trkpt lat="44.74794593081677" lon="9.646106198703837"><ele>866.0</ele><time>2026-03-28T14:17:33.999Z</time></trkpt><trkpt lat="44.74790654431049" lon="9.646195086352382"><ele>868.0</ele><time>2026-03-28T14:17:35.999Z</time></trkpt><trkpt lat="44.74788487945876" lon="9.64627941326852"><ele>870.0</ele><time>2026-03-28T14:17:37.998Z</time></trkpt><trkpt lat="44.74785586296719" lon="9.646368566365467"><ele>872.0</ele><time>2026-03-28T14:17:39.998Z</time></trkpt><trkpt lat="44.747833543086855" lon="9.646478111991497"><ele>874.0</ele><time>2026-03-28T14:17:41.998Z</time></trkpt><trkpt lat="44.747803582828176" lon="9.64658159158042"><ele>876.0</ele><time>2026-03-28T14:17:43.998Z</time></trkpt><trkpt lat="44.747785899880505" lon="9.64668395873973"><ele>878.0</ele><time>2026-03-28T14:17:45.998Z</time></trkpt><trkpt lat="44.747773339744256" lon="9.64680126512536"><ele>878.0000000000001</ele><time>2026-03-28T14:17:47.998Z</time></trkpt><trkpt lat="44.74777397118159" lon="9.646902576962605"><ele>878.0</ele><time>2026-03-28T14:17:49.998Z</time></trkpt><trkpt lat="44.747773671150156" lon="9.647012109440764"><ele>878.0</ele><time>2026-03-28T14:17:52.998Z</time></trkpt><trkpt lat="44.74779081972115" lon="9.647141852010796"><ele>878.0</ele><time>2026-03-28T14:17:55.998Z</time></trkpt><trkpt lat="44.747763583871915" lon="9.647280868797536"><ele>878.0000000000001</ele><time>2026-03-28T14:17:58.998Z</time></trkpt><trkpt lat="44.747741833326295" lon="9.6474103182002"><ele>878.0</ele><time>2026-03-28T14:18:01.998Z</time></trkpt><trkpt lat="44.747723044700265" lon="9.647513638433916"><ele>875.8333333333334</ele><time>2026-03-28T14:18:03.998Z</time></trkpt><trkpt lat="44.74770713053192" lon="9.647625616415707"><ele>873.6666666666667</ele><time>2026-03-28T14:18:06Z</time></trkpt><trkpt lat="44.74768749667129" lon="9.647743996200427"><ele>871.5</ele><time>2026-03-28T14:18:08Z</time></trkpt><trkpt lat="44.74766706561318" lon="9.647860057302589"><ele>869.3333333333333</ele><time>2026-03-28T14:18:10Z</time></trkpt><trkpt lat="44.74765256175929" lon="9.647972380628904"><ele>867.1666666666666</ele><time>2026-03-28T14:18:12Z</time></trkpt><trkpt lat="44.74763905189955" lon="9.648071034588611"><ele>865.0</ele><time>2026-03-28T14:18:14Z</time></trkpt><trkpt lat="44.747630851019935" lon="9.64818409769807"><ele>864.9999999999999</ele><time>2026-03-28T14:18:16Z</time></trkpt><trkpt lat="44.74762688684031" lon="9.64830264893543"><ele>865.0</ele><time>2026-03-28T14:18:18Z</time></trkpt><trkpt lat="44.74762185189857" lon="9.648400436264675"><ele>865.0</ele><time>2026-03-28T14:18:20Z</time></trkpt><trkpt lat="44.74763190871535" lon="9.648506487894766"><ele>865.0</ele><time>2026-03-28T14:18:22Z</time></trkpt><trkpt lat="44.747641764221314" lon="9.648653003215816"><ele>864.9999999999999</ele><time>2026-03-28T14:18:24Z</time></trkpt><trkpt lat="44.74764085970468" lon="9.648773919778018"><ele>865.0</ele><time>2026-03-28T14:18:26Z</time></trkpt><trkpt lat="44.747631612476866" lon="9.64889815896192"><ele>866.1666666666666</ele><time>2026-03-28T14:18:28Z</time></trkpt><trkpt lat="44.74760306660235" lon="9.6490148865694"><ele>867.3333333333333</ele><time>2026-03-28T14:18:30Z</time></trkpt><trkpt lat="44.74756361065402" lon="9.649115272499985"><ele>868.5</ele><time>2026-03-28T14:18:32Z</time></trkpt><trkpt lat="44.747521311306365" lon="9.649224575044595"><ele>869.6666666666667</ele><time>2026-03-28T14:18:34Z</time></trkpt><trkpt lat="44.74748399713344" lon="9.649337749092838"><ele>870.8333333333334</ele><time>2026-03-28T14:18:36Z</time></trkpt><trkpt lat="44.74745902202436" lon="9.649456300142203"><ele>872.0</ele><time>2026-03-28T14:18:38Z</time></trkpt><trkpt lat="44.74742524775037" lon="9.649571620728858"><ele>874.0</ele><time>2026-03-28T14:18:40Z</time></trkpt><trkpt lat="44.747391800502015" lon="9.649693312876858"><ele>876.0</ele><time>2026-03-28T14:18:42Z</time></trkpt><trkpt lat="44.74736385469911" lon="9.649814475558447"><ele>878.0</ele><time>2026-03-28T14:18:44Z</time></trkpt><trkpt lat="44.74733565580963" lon="9.649932671854659"><ele>880.0</ele><time>2026-03-28T14:18:45.999Z</time></trkpt><trkpt lat="44.74730668544196" lon="9.6500548326108"><ele>882.0</ele><time>2026-03-28T14:18:47.999Z</time></trkpt><trkpt lat="44.747283115071085" lon="9.650180134872507"><ele>883.3333333333334</ele><time>2026-03-28T14:18:49.999Z</time></trkpt><trkpt lat="44.74725088845728" lon="9.650291867237465"><ele>884.6666666666667</ele><time>2026-03-28T14:18:51.999Z</time></trkpt><trkpt lat="44.74722575723368" lon="9.650407426922225"><ele>886.0</ele><time>2026-03-28T14:18:53.999Z</time></trkpt><trkpt lat="44.747183786943594" lon="9.650516335816732"><ele>887.3333333333334</ele><time>2026-03-28T14:18:55.999Z</time></trkpt><trkpt lat="44.74712636995519" lon="9.6506100096788"><ele>888.6666666666667</ele><time>2026-03-28T14:18:57.999Z</time></trkpt><trkpt lat="44.74706736765085" lon="9.65068825223178"><ele>890.0</ele><time>2026-03-28T14:18:59.999Z</time></trkpt><trkpt lat="44.74701424138387" lon="9.650750545263648"><ele>890.0000000000001</ele><time>2026-03-28T14:19:01.999Z</time></trkpt><trkpt lat="44.74694693876355" lon="9.650826180182836"><ele>890.0</ele><time>2026-03-28T14:19:03.999Z</time></trkpt><trkpt lat="44.74687317446653" lon="9.650914572814044"><ele>890.0</ele><time>2026-03-28T14:19:06.999Z</time></trkpt><trkpt lat="44.746821870811736" lon="9.650979637887247"><ele>890.0</ele><time>2026-03-28T14:19:08.999Z</time></trkpt><trkpt lat="44.74676015793432" lon="9.651056111256311"><ele>890.0000000000001</ele><time>2026-03-28T14:19:10.999Z</time></trkpt><trkpt lat="44.74670890361031" lon="9.651126211065575"><ele>890.0</ele><time>2026-03-28T14:19:12.999Z</time></trkpt><trkpt lat="44.74666088731917" lon="9.65119674139244"><ele>889.2</ele><time>2026-03-28T14:19:14.999Z</time></trkpt><trkpt lat="44.7465715377496" lon="9.651359245116721"><ele>888.4</ele><time>2026-03-28T14:19:17.999Z</time></trkpt><trkpt lat="44.74653490419602" lon="9.651453167603114"><ele>887.5999999999999</ele><time>2026-03-28T14:19:19.999Z</time></trkpt><trkpt lat="44.746501834194355" lon="9.651548507472638"><ele>886.8</ele><time>2026-03-28T14:19:21.999Z</time></trkpt><trkpt lat="44.746483546000505" lon="9.65165742113501"><ele>886.0</ele><time>2026-03-28T14:19:23.999Z</time></trkpt><trkpt lat="44.74647223021742" lon="9.651769626199233"><ele>885.9999999999999</ele><time>2026-03-28T14:19:25.999Z</time></trkpt><trkpt lat="44.74646154535128" lon="9.6518837007389"><ele>886.0</ele><time>2026-03-28T14:19:27.999Z</time></trkpt><trkpt lat="44.74645186259418" lon="9.652000201096076"><ele>886.0</ele><time>2026-03-28T14:19:29.999Z</time></trkpt><trkpt lat="44.746440892868634" lon="9.652117990365948"><ele>886.0</ele><time>2026-03-28T14:19:31.999Z</time></trkpt><trkpt lat="44.746428680308135" lon="9.652232170318388"><ele>885.9999999999999</ele><time>2026-03-28T14:19:33.999Z</time></trkpt><trkpt lat="44.7464305618645" lon="9.652346972613296"><ele>886.0</ele><time>2026-03-28T14:19:35.999Z</time></trkpt><trkpt lat="44.74642501367888" lon="9.652457653497892"><ele>886.6666666666666</ele><time>2026-03-28T14:19:37.999Z</time></trkpt><trkpt lat="44.746404990393785" lon="9.652588669374223"><ele>887.3333333333333</ele><time>2026-03-28T14:19:39.999Z</time></trkpt><trkpt lat="44.74635566256618" lon="9.652686848440098"><ele>888.0</ele><time>2026-03-28T14:19:41.998Z</time></trkpt><trkpt lat="44.74630441685782" lon="9.652780311056441"><ele>888.6666666666667</ele><time>2026-03-28T14:19:43.998Z</time></trkpt><trkpt lat="44.746252496088076" lon="9.652874133939868"><ele>889.3333333333334</ele><time>2026-03-28T14:19:45.998Z</time></trkpt><trkpt lat="44.746198883612124" lon="9.652963896975933"><ele>890.0</ele><time>2026-03-28T14:19:47.998Z</time></trkpt><trkpt lat="44.746153519704045" lon="9.653047484915762"><ele>888.4</ele><time>2026-03-28T14:19:49.998Z</time></trkpt><trkpt lat="44.74609978755047" lon="9.653154316389882"><ele>886.8</ele><time>2026-03-28T14:19:51.998Z</time></trkpt><trkpt lat="44.746040694083256" lon="9.653235421523664"><ele>885.2</ele><time>2026-03-28T14:19:53.998Z</time></trkpt><trkpt lat="44.74598007630865" lon="9.653322484309827"><ele>883.6</ele><time>2026-03-28T14:19:55.998Z</time></trkpt><trkpt lat="44.745924286839944" lon="9.653418259732444"><ele>882.0</ele><time>2026-03-28T14:19:57.998Z</time></trkpt><trkpt lat="44.74587173433911" lon="9.653538720720592"><ele>883.8</ele><time>2026-03-28T14:20:00.998Z</time></trkpt><trkpt lat="44.74581550242158" lon="9.653634089614068"><ele>885.6</ele><time>2026-03-28T14:20:01.998Z</time></trkpt><trkpt lat="44.745781152254594" lon="9.653756146581642"><ele>887.3999999999999</ele><time>2026-03-28T14:20:03.998Z</time></trkpt><trkpt lat="44.745751461244446" lon="9.653893292783852"><ele>889.1999999999999</ele><time>2026-03-28T14:20:05.998Z</time></trkpt><trkpt lat="44.745728738054815" lon="9.654028341094756"><ele>891.0</ele><time>2026-03-28T14:20:07.998Z</time></trkpt><trkpt lat="44.74569386705025" lon="9.65415961851343"><ele>891.0</ele><time>2026-03-28T14:20:09.998Z</time></trkpt><trkpt lat="44.745626481258505" lon="9.654259252739635"><ele>890.9999999999999</ele><time>2026-03-28T14:20:12Z</time></trkpt><trkpt lat="44.74553237877564" lon="9.654319980055192"><ele>890.9999999999999</ele><time>2026-03-28T14:20:14Z</time></trkpt><trkpt lat="44.74544324023387" lon="9.65436369569743"><ele>891.0</ele><time>2026-03-28T14:20:16Z</time></trkpt><trkpt lat="44.74535939314177" lon="9.6544081922751"><ele>891.0</ele><time>2026-03-28T14:20:18Z</time></trkpt><trkpt lat="44.7452771152815" lon="9.654473728225058"><ele>890.1999999999999</ele><time>2026-03-28T14:20:20Z</time></trkpt><trkpt lat="44.7451944847226" lon="9.654573065888764"><ele>889.3999999999999</ele><time>2026-03-28T14:20:22Z</time></trkpt><trkpt lat="44.745120884613144" lon="9.654638486553216"><ele>888.6</ele><time>2026-03-28T14:20:24Z</time></trkpt><trkpt lat="44.74506743613062" lon="9.65474332869952"><ele>887.8</ele><time>2026-03-28T14:20:26Z</time></trkpt><trkpt lat="44.74502222700823" lon="9.654860446872977"><ele>887.0</ele><time>2026-03-28T14:20:28Z</time></trkpt><trkpt lat="44.744984308217994" lon="9.654978925005691"><ele>887.0</ele><time>2026-03-28T14:20:30Z</time></trkpt><trkpt lat="44.74494135044983" lon="9.655100162004056"><ele>887.0</ele><time>2026-03-28T14:20:32Z</time></trkpt><trkpt lat="44.74488188792649" lon="9.655211175106313"><ele>887.0</ele><time>2026-03-28T14:20:34Z</time></trkpt><trkpt lat="44.74480749964316" lon="9.655304199453958"><ele>887.0</ele><time>2026-03-28T14:20:36Z</time></trkpt><trkpt lat="44.74471822318156" lon="9.655373509647339"><ele>887.0</ele><time>2026-03-28T14:20:38Z</time></trkpt><trkpt lat="44.74462797546903" lon="9.65543023029421"><ele>887.0</ele><time>2026-03-28T14:20:40Z</time></trkpt><trkpt lat="44.74453633829436" lon="9.655476558113284"><ele>887.0</ele><time>2026-03-28T14:20:42Z</time></trkpt><trkpt lat="44.74444974641976" lon="9.655530744760641"><ele>887.0</ele><time>2026-03-28T14:20:44Z</time></trkpt><trkpt lat="44.74437384220648" lon="9.65559719069439"><ele>887.0</ele><time>2026-03-28T14:20:46Z</time></trkpt><trkpt lat="44.74432705208142" lon="9.655712961657821"><ele>887.0</ele><time>2026-03-28T14:20:48Z</time></trkpt><trkpt lat="44.74432673428629" lon="9.655845418652696"><ele>887.0</ele><time>2026-03-28T14:20:50Z</time></trkpt><trkpt lat="44.744355845306174" lon="9.655973602173535"><ele>887.0</ele><time>2026-03-28T14:20:51.999Z</time></trkpt><trkpt lat="44.7443900580153" lon="9.65610606509424"><ele>887.0</ele><time>2026-03-28T14:20:53.999Z</time></trkpt><trkpt lat="44.74442229057348" lon="9.656229423940296"><ele>887.0</ele><time>2026-03-28T14:20:55.999Z</time></trkpt><trkpt lat="44.74445794687911" lon="9.656351900511593"><ele>887.0</ele><time>2026-03-28T14:20:57.999Z</time></trkpt><trkpt lat="44.74449599511316" lon="9.65646831840738"><ele>890.25</ele><time>2026-03-28T14:20:59.999Z</time></trkpt><trkpt lat="44.744541044664665" lon="9.656584582742447"><ele>893.5</ele><time>2026-03-28T14:21:01.999Z</time></trkpt><trkpt lat="44.74459695485267" lon="9.656734064659718"><ele>896.75</ele><time>2026-03-28T14:21:04.999Z</time></trkpt><trkpt lat="44.74468521769083" lon="9.656913262621265"><ele>900.0</ele><time>2026-03-28T14:21:07.999Z</time></trkpt><trkpt lat="44.74473114316607" lon="9.657028032498602"><ele>900.1666666666666</ele><time>2026-03-28T14:21:09.999Z</time></trkpt><trkpt lat="44.744776891626756" lon="9.657133572482385"><ele>900.3333333333333</ele><time>2026-03-28T14:21:11.999Z</time></trkpt><trkpt lat="44.74480348322473" lon="9.657252028015803"><ele>900.5</ele><time>2026-03-28T14:21:13.999Z</time></trkpt><trkpt lat="44.74482737696512" lon="9.657369045237097"><ele>900.6666666666666</ele><time>2026-03-28T14:21:15.999Z</time></trkpt><trkpt lat="44.744804339136294" lon="9.657484116263225"><ele>900.8333333333333</ele><time>2026-03-28T14:21:17.999Z</time></trkpt><trkpt lat="44.74477680299089" lon="9.657592984882688"><ele>901.0</ele><time>2026-03-28T14:21:19.999Z</time></trkpt><trkpt lat="44.744737881466364" lon="9.657699998201998"><ele>901.0</ele><time>2026-03-28T14:21:21.999Z</time></trkpt><trkpt lat="44.74469960552314" lon="9.657817314239146"><ele>900.9999999999999</ele><time>2026-03-28T14:21:23.999Z</time></trkpt><trkpt lat="44.74467841405886" lon="9.657935397263845"><ele>900.9999999999999</ele><time>2026-03-28T14:21:25.999Z</time></trkpt><trkpt lat="44.74467685073157" lon="9.658065407279587"><ele>901.0</ele><time>2026-03-28T14:21:27.999Z</time></trkpt><trkpt lat="44.74467974217021" lon="9.658230745243456"><ele>901.0</ele><time>2026-03-28T14:21:30.999Z</time></trkpt><trkpt lat="44.74468684951264" lon="9.65838063388227"><ele>901.0</ele><time>2026-03-28T14:21:32.999Z</time></trkpt><trkpt lat="44.744684362030256" lon="9.658538013598669"><ele>900.9999999999999</ele><time>2026-03-28T14:21:34.999Z</time></trkpt><trkpt lat="44.74469053657052" lon="9.658676579195431"><ele>900.9999999999999</ele><time>2026-03-28T14:21:36.999Z</time></trkpt><trkpt lat="44.74469197779493" lon="9.658803404100103"><ele>901.0</ele><time>2026-03-28T14:21:38.999Z</time></trkpt><trkpt lat="44.74469393854219" lon="9.658922541145568"><ele>901.0</ele><time>2026-03-28T14:21:40.999Z</time></trkpt><trkpt lat="44.74470125719677" lon="9.659037773947277"><ele>901.6666666666666</ele><time>2026-03-28T14:21:42.999Z</time></trkpt><trkpt lat="44.74469838707521" lon="9.659161439391097"><ele>902.3333333333333</ele><time>2026-03-28T14:21:44.999Z</time></trkpt><trkpt lat="44.744674617572244" lon="9.659295313909583"><ele>903.0</ele><time>2026-03-28T14:21:46.998Z</time></trkpt><trkpt lat="44.74465881808797" lon="9.659415339575315"><ele>903.6666666666667</ele><time>2026-03-28T14:21:48.998Z</time></trkpt><trkpt lat="44.74463916823136" lon="9.659528105027258"><ele>904.3333333333334</ele><time>2026-03-28T14:21:50.998Z</time></trkpt><trkpt lat="44.744604642684614" lon="9.659640861263876"><ele>905.0</ele><time>2026-03-28T14:21:52.998Z</time></trkpt><trkpt lat="44.74456939459462" lon="9.659741921174392"><ele>904.6666666666667</ele><time>2026-03-28T14:21:54.998Z</time></trkpt><trkpt lat="44.744513392654795" lon="9.6597924537603"><ele>904.3333333333334</ele><time>2026-03-28T14:21:56.998Z</time></trkpt><trkpt lat="44.74441294579114" lon="9.659860514314843"><ele>904.0</ele><time>2026-03-28T14:21:59.998Z</time></trkpt><trkpt lat="44.7443352408657" lon="9.659887027271271"><ele>903.6666666666667</ele><time>2026-03-28T14:22:01.998Z</time></trkpt><trkpt lat="44.7442689448576" lon="9.659905225777722"><ele>903.3333333333334</ele><time>2026-03-28T14:22:03.998Z</time></trkpt><trkpt lat="44.74419132173711" lon="9.659912534406462"><ele>903.0</ele><time>2026-03-28T14:22:05.998Z</time></trkpt><trkpt lat="44.7441012017483" lon="9.659959078275666"><ele>903.0</ele><time>2026-03-28T14:22:08.998Z</time></trkpt><trkpt lat="44.74402037549584" lon="9.660036084466064"><ele>903.0</ele><time>2026-03-28T14:22:10.998Z</time></trkpt><trkpt lat="44.74398662561469" lon="9.660133699227904"><ele>903.0</ele><time>2026-03-28T14:22:12.998Z</time></trkpt><trkpt lat="44.743959091917375" lon="9.66022182318673"><ele>903.0</ele><time>2026-03-28T14:22:14.998Z</time></trkpt><trkpt lat="44.743939034953726" lon="9.660400175699275"><ele>903.0</ele><time>2026-03-28T14:22:17Z</time></trkpt><trkpt lat="44.743931519707765" lon="9.660488269558385"><ele>903.0</ele><time>2026-03-28T14:22:19Z</time></trkpt><trkpt lat="44.74392381782568" lon="9.66061307692941"><ele>904.5</ele><time>2026-03-28T14:22:21Z</time></trkpt><trkpt lat="44.743903569714085" lon="9.66072126885659"><ele>906.0</ele><time>2026-03-28T14:22:23Z</time></trkpt><trkpt lat="44.74387364878973" lon="9.660809492013374"><ele>907.5</ele><time>2026-03-28T14:22:25Z</time></trkpt><trkpt lat="44.74382327481843" lon="9.660879490967892"><ele>909.0</ele><time>2026-03-28T14:22:27Z</time></trkpt><trkpt lat="44.7437210465614" lon="9.661000657015466"><ele>910.5</ele><time>2026-03-28T14:22:28Z</time></trkpt><trkpt lat="44.74364512661837" lon="9.66102969462988"><ele>912.0</ele><time>2026-03-28T14:22:30Z</time></trkpt><trkpt lat="44.743577511488944" lon="9.661057609484216"><ele>912.1666666666666</ele><time>2026-03-28T14:22:32Z</time></trkpt><trkpt lat="44.743511901743815" lon="9.661098701399167"><ele>912.3333333333333</ele><time>2026-03-28T14:22:34Z</time></trkpt><trkpt lat="44.743448239200085" lon="9.661170953171682"><ele>912.5</ele><time>2026-03-28T14:22:36Z</time></trkpt><trkpt lat="44.74338957357131" lon="9.661258879343976"><ele>912.6666666666666</ele><time>2026-03-28T14:22:38Z</time></trkpt><trkpt lat="44.74333984800101" lon="9.661360029349764"><ele>912.8333333333333</ele><time>2026-03-28T14:22:40Z</time></trkpt><trkpt lat="44.74331237014113" lon="9.66146388451265"><ele>913.0</ele><time>2026-03-28T14:22:42Z</time></trkpt><trkpt lat="44.743286684618695" lon="9.661567063732225"><ele>912.9999999999999</ele><time>2026-03-28T14:22:44Z</time></trkpt><trkpt lat="44.74328374737656" lon="9.661662211723165"><ele>913.0</ele><time>2026-03-28T14:22:47Z</time></trkpt><trkpt lat="44.743262832314805" lon="9.66174901464487"><ele>913.0</ele><time>2026-03-28T14:22:49Z</time></trkpt><trkpt lat="44.743217804049934" lon="9.661895819872655"><ele>913.0</ele><time>2026-03-28T14:22:50Z</time></trkpt><trkpt lat="44.74317361559636" lon="9.661995686026751"><ele>912.9999999999999</ele><time>2026-03-28T14:22:52Z</time></trkpt><trkpt lat="44.74311507737082" lon="9.662070489991866"><ele>913.0</ele><time>2026-03-28T14:22:54Z</time></trkpt><trkpt lat="44.743041749734196" lon="9.662143028249027"><ele>913.9999999999999</ele><time>2026-03-28T14:22:56.999Z</time></trkpt><trkpt lat="44.742974343137135" lon="9.66217942884018"><ele>915.0</ele><time>2026-03-28T14:22:58.999Z</time></trkpt><trkpt lat="44.742910688979826" lon="9.662212612149258"><ele>916.0</ele><time>2026-03-28T14:23:00.999Z</time></trkpt><trkpt lat="44.742840120682054" lon="9.662250823942928"><ele>917.0</ele><time>2026-03-28T14:23:02.999Z</time></trkpt><trkpt lat="44.742772671404985" lon="9.662296125296946"><ele>917.9999999999999</ele><time>2026-03-28T14:23:04.999Z</time></trkpt><trkpt lat="44.74269866334126" lon="9.662332641056134"><ele>919.0</ele><time>2026-03-28T14:23:06.999Z</time></trkpt><trkpt lat="44.74261783087855" lon="9.662371757916809"><ele>918.9999999999999</ele><time>2026-03-28T14:23:08.999Z</time></trkpt><trkpt lat="44.742559861635144" lon="9.662406532736142"><ele>919.0</ele><time>2026-03-28T14:23:10.999Z</time></trkpt><trkpt lat="44.74248699289274" lon="9.662450861252225"><ele>919.0</ele><time>2026-03-28T14:23:12.999Z</time></trkpt><trkpt lat="44.74241958542562" lon="9.66250180135499"><ele>919.0</ele><time>2026-03-28T14:23:14.999Z</time></trkpt><trkpt lat="44.742356104694466" lon="9.662541327189237"><ele>918.9999999999999</ele><time>2026-03-28T14:23:16.999Z</time></trkpt><trkpt lat="44.74227119396732" lon="9.662608847577035"><ele>919.0</ele><time>2026-03-28T14:23:18.999Z</time></trkpt><trkpt lat="44.74220497729427" lon="9.662658613880012"><ele>918.9999999999999</ele><time>2026-03-28T14:23:20.999Z</time></trkpt><trkpt lat="44.7421339086467" lon="9.662702036048213"><ele>919.0</ele><time>2026-03-28T14:23:22.999Z</time></trkpt><trkpt lat="44.74206228054963" lon="9.662742511207092"><ele>919.0</ele><time>2026-03-28T14:23:24.999Z</time></trkpt><trkpt lat="44.74200157630507" lon="9.662780801083393"><ele>919.0</ele><time>2026-03-28T14:23:26.999Z</time></trkpt><trkpt lat="44.741934077278536" lon="9.662809925428954"><ele>918.9999999999999</ele><time>2026-03-28T14:23:28.999Z</time></trkpt><trkpt lat="44.741849397655024" lon="9.662823520087345"><ele>919.0</ele><time>2026-03-28T14:23:30.999Z</time></trkpt><trkpt lat="44.74177570617915" lon="9.662827946849344"><ele>919.2</ele><time>2026-03-28T14:23:32.999Z</time></trkpt><trkpt lat="44.7416912658007" lon="9.662821824919755"><ele>919.4000000000001</ele><time>2026-03-28T14:23:34.999Z</time></trkpt><trkpt lat="44.74161375652182" lon="9.66281175397214"><ele>919.6</ele><time>2026-03-28T14:23:36.999Z</time></trkpt><trkpt lat="44.7415435930241" lon="9.662818218409207"><ele>919.8</ele><time>2026-03-28T14:23:38.999Z</time></trkpt><trkpt lat="44.741433989677034" lon="9.662882817669066"><ele>920.0</ele><time>2026-03-28T14:23:41.999Z</time></trkpt><trkpt lat="44.74134355654805" lon="9.662985459090855"><ele>920.0000000000001</ele><time>2026-03-28T14:23:43.999Z</time></trkpt><trkpt lat="44.74128907243357" lon="9.663075279309385"><ele>920.0</ele><time>2026-03-28T14:23:45.999Z</time></trkpt><trkpt lat="44.741263223781665" lon="9.663183335751127"><ele>920.0</ele><time>2026-03-28T14:23:47.999Z</time></trkpt><trkpt lat="44.74124925665867" lon="9.663297479581074"><ele>920.0</ele><time>2026-03-28T14:23:49.999Z</time></trkpt><trkpt lat="44.741228749728805" lon="9.663413063172843"><ele>920.0000000000001</ele><time>2026-03-28T14:23:51.998Z</time></trkpt><trkpt lat="44.74121682279537" lon="9.663534140844307"><ele>920.0</ele><time>2026-03-28T14:23:53.998Z</time></trkpt><trkpt lat="44.741202194845435" lon="9.663646571859436"><ele>920.5000000000001</ele><time>2026-03-28T14:23:55.998Z</time></trkpt><trkpt lat="44.74119331905282" lon="9.663762704917675"><ele>921.0</ele><time>2026-03-28T14:23:57.998Z</time></trkpt><trkpt lat="44.74117418558775" lon="9.663873946063875"><ele>921.5</ele><time>2026-03-28T14:23:59.998Z</time></trkpt><trkpt lat="44.7411486183426" lon="9.663957084308297"><ele>922.0</ele><time>2026-03-28T14:24:01.998Z</time></trkpt><trkpt lat="44.741123684512395" lon="9.664064710432033"><ele>922.5000000000001</ele><time>2026-03-28T14:24:04.998Z</time></trkpt><trkpt lat="44.74108752122494" lon="9.66417694299365"><ele>923.0</ele><time>2026-03-28T14:24:06.998Z</time></trkpt><trkpt lat="44.741047320524615" lon="9.664303865379976"><ele>923.0</ele><time>2026-03-28T14:24:08.998Z</time></trkpt><trkpt lat="44.741025555034184" lon="9.664398870215763"><ele>923.0</ele><time>2026-03-28T14:24:10.998Z</time></trkpt><trkpt lat="44.74098861310084" lon="9.664470945173203"><ele>923.0</ele><time>2026-03-28T14:24:12.998Z</time></trkpt><trkpt lat="44.740943373071545" lon="9.664538596911186"><ele>923.0</ele><time>2026-03-28T14:24:15.998Z</time></trkpt><trkpt lat="44.74087582346149" lon="9.664593941524073"><ele>923.0</ele><time>2026-03-28T14:24:19.998Z</time></trkpt><trkpt lat="44.74081836426669" lon="9.664637687797947"><ele>923.0</ele><time>2026-03-28T14:24:23Z</time></trkpt><trkpt lat="44.740751326816586" lon="9.66467028602362"><ele>923.0</ele><time>2026-03-28T14:24:26Z</time></trkpt><trkpt lat="44.7406754091454" lon="9.664739139462236"><ele>923.5000000000001</ele><time>2026-03-28T14:24:29Z</time></trkpt><trkpt lat="44.740604298724136" lon="9.664777367069046"><ele>924.0</ele><time>2026-03-28T14:24:32Z</time></trkpt><trkpt lat="44.74054038685557" lon="9.664813420952195"><ele>924.5</ele><time>2026-03-28T14:24:35Z</time></trkpt><trkpt lat="44.740476809902404" lon="9.664843454604162"><ele>925.0</ele><time>2026-03-28T14:24:38Z</time></trkpt><trkpt lat="44.740405161108356" lon="9.664885095888106"><ele>925.5000000000001</ele><time>2026-03-28T14:24:41Z</time></trkpt><trkpt lat="44.740323344833506" lon="9.664931848319892"><ele>926.0</ele><time>2026-03-28T14:24:44Z</time></trkpt><trkpt lat="44.74024098046959" lon="9.664974218145048"><ele>926.1666666666667</ele><time>2026-03-28T14:24:47Z</time></trkpt><trkpt lat="44.740172657019855" lon="9.665007238946645"><ele>926.3333333333334</ele><time>2026-03-28T14:24:50Z</time></trkpt><trkpt lat="44.740106690797106" lon="9.665013642604114"><ele>926.5</ele><time>2026-03-28T14:24:55Z</time></trkpt><trkpt lat="44.74013869106459" lon="9.665130597574276"><ele>926.6666666666667</ele><time>2026-03-28T14:25:50.999Z</time></trkpt><trkpt lat="44.7402013300114" lon="9.665103073778814"><ele>926.8333333333334</ele><time>2026-03-28T14:29:18.999Z</time></trkpt><trkpt lat="44.740122429634205" lon="9.665133208629202"><ele>927.0</ele><time>2026-03-28T14:30:42Z</time></trkpt><trkpt lat="44.740041457979764" lon="9.665115124707341"><ele>926.9999999999999</ele><time>2026-03-28T14:30:45Z</time></trkpt><trkpt lat="44.7399739552779" lon="9.665135320998175"><ele>927.0</ele><time>2026-03-28T14:30:54Z</time></trkpt><trkpt lat="44.73992315592978" lon="9.665221521110732"><ele>926.9999999999999</ele><time>2026-03-28T14:31:30.999Z</time></trkpt><trkpt lat="44.739861964752656" lon="9.665250208983727"><ele>926.9999999999999</ele><time>2026-03-28T14:42:26.999Z</time></trkpt><trkpt lat="44.739936103325725" lon="9.66527475237955"><ele>927.0</ele><time>2026-03-28T14:44:09.998Z</time></trkpt><trkpt lat="44.73998852573286" lon="9.665200629526439"><ele>926.9999999999999</ele><time>2026-03-28T14:44:51.998Z</time></trkpt><trkpt lat="44.74005131267155" lon="9.66517525381066"><ele>926.9999999999999</ele><time>2026-03-28T14:45:06.997Z</time></trkpt><trkpt lat="44.74008377004014" lon="9.665270070695819"><ele>926.8333333333334</ele><time>2026-03-28T14:45:09.997Z</time></trkpt><trkpt lat="44.740027654388285" lon="9.665366913605048"><ele>926.6666666666667</ele><time>2026-03-28T14:45:12.997Z</time></trkpt><trkpt lat="44.73997736249678" lon="9.665468215476505"><ele>926.5</ele><time>2026-03-28T14:45:15.997Z</time></trkpt><trkpt lat="44.73995283666476" lon="9.665570846482028"><ele>926.3333333333334</ele><time>2026-03-28T14:45:17.997Z</time></trkpt><trkpt lat="44.73993487498194" lon="9.66568604890311"><ele>926.1666666666667</ele><time>2026-03-28T14:45:19.999Z</time></trkpt><trkpt lat="44.739923693460455" lon="9.665809504946095"><ele>926.0</ele><time>2026-03-28T14:45:21.999Z</time></trkpt><trkpt lat="44.73990717480825" lon="9.665932038534832"><ele>926.0</ele><time>2026-03-28T14:45:23.999Z</time></trkpt><trkpt lat="44.739887925073354" lon="9.666051613439834"><ele>925.9999999999999</ele><time>2026-03-28T14:45:25.999Z</time></trkpt><trkpt lat="44.73985554055237" lon="9.666163577633727"><ele>925.9999999999999</ele><time>2026-03-28T14:45:27.999Z</time></trkpt><trkpt lat="44.73979444341287" lon="9.666283863916231"><ele>926.0</ele><time>2026-03-28T14:45:29.999Z</time></trkpt><trkpt lat="44.739731727679576" lon="9.666417422565177"><ele>926.0</ele><time>2026-03-28T14:45:31.999Z</time></trkpt><trkpt lat="44.739674351438886" lon="9.666566155301135"><ele>925.5999999999999</ele><time>2026-03-28T14:45:33.999Z</time></trkpt><trkpt lat="44.73964533446454" lon="9.666736188100504"><ele>925.1999999999999</ele><time>2026-03-28T14:45:35.999Z</time></trkpt><trkpt lat="44.7396390267648" lon="9.66682508803127"><ele>924.8000000000001</ele><time>2026-03-28T14:45:36.999Z</time></trkpt><trkpt lat="44.739631515258615" lon="9.666996105318166"><ele>924.4000000000001</ele><time>2026-03-28T14:45:38.999Z</time></trkpt><trkpt lat="44.7395990781478" lon="9.667156985114389"><ele>924.0</ele><time>2026-03-28T14:45:40.999Z</time></trkpt><trkpt lat="44.73953536596214" lon="9.66729773657043"><ele>923.0</ele><time>2026-03-28T14:45:42.999Z</time></trkpt><trkpt lat="44.73945731230488" lon="9.667418796305142"><ele>922.0</ele><time>2026-03-28T14:45:44.999Z</time></trkpt><trkpt lat="44.739361841622596" lon="9.667518588850902"><ele>921.0</ele><time>2026-03-28T14:45:46.999Z</time></trkpt><trkpt lat="44.73927250516091" lon="9.667629502792611"><ele>920.0</ele><time>2026-03-28T14:45:48.999Z</time></trkpt><trkpt lat="44.73920655378276" lon="9.667749372546668"><ele>921.4</ele><time>2026-03-28T14:45:50.999Z</time></trkpt><trkpt lat="44.73916186805456" lon="9.667878698137027"><ele>922.8</ele><time>2026-03-28T14:45:52.999Z</time></trkpt><trkpt lat="44.73913617483791" lon="9.668009171545355"><ele>924.2</ele><time>2026-03-28T14:45:54.999Z</time></trkpt><trkpt lat="44.739121012727345" lon="9.66813705109912"><ele>925.6</ele><time>2026-03-28T14:45:56.999Z</time></trkpt><trkpt lat="44.73910242124914" lon="9.668251343574495"><ele>927.0</ele><time>2026-03-28T14:45:58.999Z</time></trkpt><trkpt lat="44.73907893638014" lon="9.668364626821992"><ele>927.0</ele><time>2026-03-28T14:46:00.999Z</time></trkpt><trkpt lat="44.7390582474059" lon="9.668481828914631"><ele>927.0</ele><time>2026-03-28T14:46:02.999Z</time></trkpt><trkpt lat="44.73902545961427" lon="9.668591537568004"><ele>927.0</ele><time>2026-03-28T14:46:04.999Z</time></trkpt><trkpt lat="44.738974626329124" lon="9.668690648853518"><ele>927.0</ele><time>2026-03-28T14:46:06.999Z</time></trkpt><trkpt lat="44.73891340484691" lon="9.668770381454438"><ele>927.0</ele><time>2026-03-28T14:46:08.999Z</time></trkpt><trkpt lat="44.738841303052965" lon="9.668832547314418"><ele>927.0</ele><time>2026-03-28T14:46:10.999Z</time></trkpt><trkpt lat="44.73876932688918" lon="9.668904658564562"><ele>925.6</ele><time>2026-03-28T14:46:12.999Z</time></trkpt><trkpt lat="44.7387018306025" lon="9.66898722156651"><ele>924.2</ele><time>2026-03-28T14:46:14.999Z</time></trkpt><trkpt lat="44.73864731336836" lon="9.669085111358381"><ele>922.8</ele><time>2026-03-28T14:46:16.999Z</time></trkpt><trkpt lat="44.738618225046686" lon="9.669194578413736"><ele>921.4</ele><time>2026-03-28T14:46:19.999Z</time></trkpt><trkpt lat="44.738584883620945" lon="9.669323160529288"><ele>920.0</ele><time>2026-03-28T14:46:20.999Z</time></trkpt><trkpt lat="44.738562113060404" lon="9.669460635371145"><ele>922.4</ele><time>2026-03-28T14:46:22.999Z</time></trkpt><trkpt lat="44.738537039425886" lon="9.669602703049978"><ele>924.8</ele><time>2026-03-28T14:46:24.999Z</time></trkpt><trkpt lat="44.73851279774366" lon="9.669747667378095"><ele>927.2</ele><time>2026-03-28T14:46:26.999Z</time></trkpt><trkpt lat="44.738481368325345" lon="9.669884633463079"><ele>929.6</ele><time>2026-03-28T14:46:28.999Z</time></trkpt><trkpt lat="44.738427183496526" lon="9.670009925495288"><ele>932.0</ele><time>2026-03-28T14:46:30.999Z</time></trkpt><trkpt lat="44.738348454831296" lon="9.670114270718917"><ele>932.0</ele><time>2026-03-28T14:46:32.999Z</time></trkpt><trkpt lat="44.73825562922282" lon="9.670203482020536"><ele>932.0</ele><time>2026-03-28T14:46:34.999Z</time></trkpt><trkpt lat="44.738158170305454" lon="9.670283522538934"><ele>932.0</ele><time>2026-03-28T14:46:36.998Z</time></trkpt><trkpt lat="44.73807556041453" lon="9.670401237681078"><ele>932.0</ele><time>2026-03-28T14:46:38.998Z</time></trkpt><trkpt lat="44.738017613673044" lon="9.67054041415002"><ele>931.5000000000001</ele><time>2026-03-28T14:46:40.998Z</time></trkpt><trkpt lat="44.73801505549084" lon="9.670636779155535"><ele>931.0</ele><time>2026-03-28T14:46:41.998Z</time></trkpt><trkpt lat="44.738022260925646" lon="9.670733188131052"><ele>930.5</ele><time>2026-03-28T14:46:42.998Z</time></trkpt><trkpt lat="44.7380316706193" lon="9.670827615934385"><ele>930.0</ele><time>2026-03-28T14:46:43.998Z</time></trkpt><trkpt lat="44.738045108451246" lon="9.670918997053407"><ele>929.5000000000001</ele><time>2026-03-28T14:46:44.998Z</time></trkpt><trkpt lat="44.73805744664276" lon="9.67100652536389"><ele>929.0</ele><time>2026-03-28T14:46:45.998Z</time></trkpt><trkpt lat="44.73807622874633" lon="9.671179319858307"><ele>928.25</ele><time>2026-03-28T14:46:47.998Z</time></trkpt><trkpt lat="44.73808191501122" lon="9.671348686945777"><ele>927.5</ele><time>2026-03-28T14:46:49.998Z</time></trkpt><trkpt lat="44.73809011068795" lon="9.67149138937315"><ele>926.75</ele><time>2026-03-28T14:46:51.998Z</time></trkpt><trkpt lat="44.73810082294229" lon="9.671661130938055"><ele>926.0</ele><time>2026-03-28T14:46:53.998Z</time></trkpt><trkpt lat="44.738081226651104" lon="9.67183284497879"><ele>926.0</ele><time>2026-03-28T14:46:55.998Z</time></trkpt><trkpt lat="44.73804848072226" lon="9.671909425267065"><ele>925.9999999999999</ele><time>2026-03-28T14:46:56.998Z</time></trkpt><trkpt lat="44.73799548078221" lon="9.671974687992822"><ele>926.0</ele><time>2026-03-28T14:46:57.998Z</time></trkpt><trkpt lat="44.73792425256123" lon="9.671990019007165"><ele>926.0</ele><time>2026-03-28T14:46:58.998Z</time></trkpt><trkpt lat="44.73786086319044" lon="9.672020581674735"><ele>925.9999999999999</ele><time>2026-03-28T14:46:59.998Z</time></trkpt><trkpt lat="44.737806012920956" lon="9.672080192688242"><ele>926.0</ele><time>2026-03-28T14:47:00.998Z</time></trkpt><trkpt lat="44.73774812683463" lon="9.672132942418488"><ele>926.0</ele><time>2026-03-28T14:47:01.998Z</time></trkpt><trkpt lat="44.737700076851034" lon="9.67220025280657"><ele>926.5714285714286</ele><time>2026-03-28T14:47:02.998Z</time></trkpt><trkpt lat="44.737665628786075" lon="9.672291820763359"><ele>927.1428571428571</ele><time>2026-03-28T14:47:03.998Z</time></trkpt><trkpt lat="44.73764349752739" lon="9.672391161243514"><ele>927.7142857142857</ele><time>2026-03-28T14:47:04.998Z</time></trkpt><trkpt lat="44.73763085913233" lon="9.672490948978517"><ele>928.2857142857142</ele><time>2026-03-28T14:47:05.998Z</time></trkpt><trkpt lat="44.73762238683139" lon="9.672596191869465"><ele>928.8571428571429</ele><time>2026-03-28T14:47:06.998Z</time></trkpt><trkpt lat="44.73761864911958" lon="9.672698910394216"><ele>929.4285714285713</ele><time>2026-03-28T14:47:07.998Z</time></trkpt><trkpt lat="44.73760930972507" lon="9.672795104952"><ele>930.0</ele><time>2026-03-28T14:47:08.998Z</time></trkpt><trkpt lat="44.73760115094062" lon="9.672894399972803"><ele>930.0</ele><time>2026-03-28T14:47:09.998Z</time></trkpt><trkpt lat="44.73759216468921" lon="9.672993355917601"><ele>930.0</ele><time>2026-03-28T14:47:10.998Z</time></trkpt><trkpt lat="44.73758599675411" lon="9.673092555381485"><ele>930.0</ele><time>2026-03-28T14:47:11.998Z</time></trkpt><trkpt lat="44.73758539654711" lon="9.67319455215714"><ele>930.0</ele><time>2026-03-28T14:47:12.998Z</time></trkpt><trkpt lat="44.73759014364511" lon="9.673295070679183"><ele>930.0</ele><time>2026-03-28T14:47:13.998Z</time></trkpt><trkpt lat="44.737607647898216" lon="9.673399748323213"><ele>930.0</ele><time>2026-03-28T14:47:14.998Z</time></trkpt><trkpt lat="44.73762867139588" lon="9.67350383153983"><ele>930.0</ele><time>2026-03-28T14:47:15.998Z</time></trkpt><trkpt lat="44.73764768132734" lon="9.67360540142626"><ele>929.7142857142857</ele><time>2026-03-28T14:47:16.998Z</time></trkpt><trkpt lat="44.73766916113909" lon="9.673705539857654"><ele>929.4285714285716</ele><time>2026-03-28T14:47:17.998Z</time></trkpt><trkpt lat="44.73768826361645" lon="9.673807330892823"><ele>929.1428571428572</ele><time>2026-03-28T14:47:18.998Z</time></trkpt><trkpt lat="44.737696951289685" lon="9.673906186501302"><ele>928.8571428571429</ele><time>2026-03-28T14:47:19.998Z</time></trkpt><trkpt lat="44.7376791456148" lon="9.674004507103003"><ele>928.5714285714287</ele><time>2026-03-28T14:47:20.998Z</time></trkpt><trkpt lat="44.73764375573302" lon="9.67409076240017"><ele>928.2857142857144</ele><time>2026-03-28T14:47:21.998Z</time></trkpt><trkpt lat="44.737589574533445" lon="9.674159126608977"><ele>928.0000000000001</ele><time>2026-03-28T14:47:22.998Z</time></trkpt><trkpt lat="44.737541433649376" lon="9.674228116433756"><ele>928.0000000000001</ele><time>2026-03-28T14:47:23.998Z</time></trkpt><trkpt lat="44.737502880567725" lon="9.674301877934958"><ele>928.0</ele><time>2026-03-28T14:47:25Z</time></trkpt><trkpt lat="44.73746386194462" lon="9.674379448084851"><ele>928.0000000000001</ele><time>2026-03-28T14:47:26Z</time></trkpt><trkpt lat="44.73742217105722" lon="9.674453002033381"><ele>928.0000000000001</ele><time>2026-03-28T14:47:27Z</time></trkpt><trkpt lat="44.737386105146356" lon="9.67453447795653"><ele>928.0</ele><time>2026-03-28T14:47:28Z</time></trkpt><trkpt lat="44.73734210982746" lon="9.674607785136507"><ele>928.0000000000001</ele><time>2026-03-28T14:47:29Z</time></trkpt><trkpt lat="44.737306236371474" lon="9.674688880121435"><ele>928.0000000000001</ele><time>2026-03-28T14:47:30Z</time></trkpt><trkpt lat="44.73727749792529" lon="9.674782036742572"><ele>927.8333333333333</ele><time>2026-03-28T14:47:31Z</time></trkpt><trkpt lat="44.7372616261058" lon="9.67488681846443"><ele>927.6666666666666</ele><time>2026-03-28T14:47:32Z</time></trkpt><trkpt lat="44.737262416393925" lon="9.675001699305344"><ele>927.5</ele><time>2026-03-28T14:47:33Z</time></trkpt><trkpt lat="44.73727330576344" lon="9.675115710053166"><ele>927.3333333333333</ele><time>2026-03-28T14:47:34Z</time></trkpt><trkpt lat="44.737298362757855" lon="9.675228521970649"><ele>927.1666666666666</ele><time>2026-03-28T14:47:35Z</time></trkpt><trkpt lat="44.737333418837515" lon="9.675333220951776"><ele>927.0</ele><time>2026-03-28T14:47:36Z</time></trkpt><trkpt lat="44.73737529817991" lon="9.675426402521119"><ele>926.6666666666666</ele><time>2026-03-28T14:47:37Z</time></trkpt><trkpt lat="44.73743188343383" lon="9.675502005287775"><ele>926.3333333333333</ele><time>2026-03-28T14:47:38Z</time></trkpt><trkpt lat="44.73749915050263" lon="9.675563124980203"><ele>926.0</ele><time>2026-03-28T14:47:39Z</time></trkpt><trkpt lat="44.737565356372045" lon="9.675622097052123"><ele>925.6666666666666</ele><time>2026-03-28T14:47:40Z</time></trkpt><trkpt lat="44.737626716490155" lon="9.675686046709684"><ele>925.3333333333333</ele><time>2026-03-28T14:47:41Z</time></trkpt><trkpt lat="44.73768972122976" lon="9.675753039457115"><ele>925.0</ele><time>2026-03-28T14:47:42Z</time></trkpt><trkpt lat="44.73775114467523" lon="9.675827497898881"><ele>923.6666666666666</ele><time>2026-03-28T14:47:43Z</time></trkpt><trkpt lat="44.737802209421524" lon="9.675916894346303"><ele>922.3333333333333</ele><time>2026-03-28T14:47:44Z</time></trkpt><trkpt lat="44.737837026255" lon="9.676025466939459"><ele>921.0</ele><time>2026-03-28T14:47:45Z</time></trkpt><trkpt lat="44.7378623161283" lon="9.676139790832082"><ele>919.6666666666667</ele><time>2026-03-28T14:47:46Z</time></trkpt><trkpt lat="44.73788361279842" lon="9.676258223365982"><ele>918.3333333333334</ele><time>2026-03-28T14:47:47Z</time></trkpt><trkpt lat="44.73790731286135" lon="9.676374062601562"><ele>917.0</ele><time>2026-03-28T14:47:48Z</time></trkpt><trkpt lat="44.737935545616025" lon="9.676487397975425"><ele>917.0000000000001</ele><time>2026-03-28T14:47:48.999Z</time></trkpt><trkpt lat="44.7379695464012" lon="9.676594546067777"><ele>917.0</ele><time>2026-03-28T14:47:49.999Z</time></trkpt><trkpt lat="44.738016709935394" lon="9.676681796639791"><ele>917.0</ele><time>2026-03-28T14:47:50.999Z</time></trkpt><trkpt lat="44.73808056043119" lon="9.676747323887046"><ele>917.0</ele><time>2026-03-28T14:47:51.999Z</time></trkpt><trkpt lat="44.73814197640253" lon="9.676825138440787"><ele>917.0000000000001</ele><time>2026-03-28T14:47:52.999Z</time></trkpt><trkpt lat="44.738214927183265" lon="9.676889330597932"><ele>917.0</ele><time>2026-03-28T14:47:53.999Z</time></trkpt><trkpt lat="44.73833626431433" lon="9.67681660021693"><ele>917.0</ele><time>2026-03-28T14:47:54.999Z</time></trkpt><trkpt lat="44.73842747524441" lon="9.676830123000403"><ele>917.0</ele><time>2026-03-28T14:47:55.999Z</time></trkpt><trkpt lat="44.73852118226372" lon="9.676846137735438"><ele>917.0</ele><time>2026-03-28T14:47:56.999Z</time></trkpt><trkpt lat="44.73861892675874" lon="9.676856406524655"><ele>917.0</ele><time>2026-03-28T14:47:57.999Z</time></trkpt><trkpt lat="44.73872119808297" lon="9.67686553149827"><ele>917.0</ele><time>2026-03-28T14:47:58.999Z</time></trkpt><trkpt lat="44.7388262974232" lon="9.67687584265629"><ele>916.0</ele><time>2026-03-28T14:47:59.999Z</time></trkpt><trkpt lat="44.73893571339689" lon="9.676862666636538"><ele>915.0</ele><time>2026-03-28T14:48:00.999Z</time></trkpt><trkpt lat="44.73904220700215" lon="9.676858701567452"><ele>914.0</ele><time>2026-03-28T14:48:01.999Z</time></trkpt><trkpt lat="44.73915133902759" lon="9.676847959056056"><ele>913.0</ele><time>2026-03-28T14:48:02.999Z</time></trkpt><trkpt lat="44.739258997539395" lon="9.676822909144509"><ele>912.0</ele><time>2026-03-28T14:48:03.999Z</time></trkpt><trkpt lat="44.73936656364042" lon="9.676783084634934"><ele>911.0</ele><time>2026-03-28T14:48:04.999Z</time></trkpt><trkpt lat="44.739475838460656" lon="9.67675049253507"><ele>910.0</ele><time>2026-03-28T14:48:05.999Z</time></trkpt><trkpt lat="44.73957751348439" lon="9.67669059403005"><ele>909.0</ele><time>2026-03-28T14:48:06.999Z</time></trkpt><trkpt lat="44.73967593874916" lon="9.676618886408038"><ele>908.0</ele><time>2026-03-28T14:48:07.999Z</time></trkpt><trkpt lat="44.739785563457986" lon="9.676602185757298"><ele>907.0</ele><time>2026-03-28T14:48:08.999Z</time></trkpt><trkpt lat="44.73989143894584" lon="9.676586616488793"><ele>907.0</ele><time>2026-03-28T14:48:09.999Z</time></trkpt><trkpt lat="44.73999790541579" lon="9.67660482664013"><ele>907.0</ele><time>2026-03-28T14:48:10.999Z</time></trkpt><trkpt lat="44.74010672563462" lon="9.676633831439021"><ele>907.0</ele><time>2026-03-28T14:48:11.999Z</time></trkpt><trkpt lat="44.74020944330103" lon="9.67669374277884"><ele>907.0</ele><time>2026-03-28T14:48:12.999Z</time></trkpt><trkpt lat="44.74030513058014" lon="9.676771316978602"><ele>907.0</ele><time>2026-03-28T14:48:13.999Z</time></trkpt><trkpt lat="44.74039099778688" lon="9.676876162451876"><ele>906.0</ele><time>2026-03-28T14:48:14.999Z</time></trkpt><trkpt lat="44.740475176107594" lon="9.676982982278693"><ele>905.0</ele><time>2026-03-28T14:48:15.999Z</time></trkpt><trkpt lat="44.740562909079216" lon="9.677085791423718"><ele>904.0</ele><time>2026-03-28T14:48:16.999Z</time></trkpt><trkpt lat="44.74064403770295" lon="9.677195498147517"><ele>903.0</ele><time>2026-03-28T14:48:17.999Z</time></trkpt><trkpt lat="44.740720693242736" lon="9.67731338511314"><ele>903.0</ele><time>2026-03-28T14:48:18.999Z</time></trkpt><trkpt lat="44.7407921688703" lon="9.677442941215025"><ele>903.0</ele><time>2026-03-28T14:48:19.999Z</time></trkpt><trkpt lat="44.74086175973704" lon="9.67757566787559"><ele>903.0</ele><time>2026-03-28T14:48:20.999Z</time></trkpt><trkpt lat="44.74093321700446" lon="9.67770491882689"><ele>903.0</ele><time>2026-03-28T14:48:21.999Z</time></trkpt><trkpt lat="44.74100391351139" lon="9.677834355368605"><ele>901.0</ele><time>2026-03-28T14:48:22.999Z</time></trkpt><trkpt lat="44.741077677407354" lon="9.677962852724141"><ele>899.0</ele><time>2026-03-28T14:48:23.999Z</time></trkpt><trkpt lat="44.74114522064182" lon="9.678093124776668"><ele>897.0</ele><time>2026-03-28T14:48:24.999Z</time></trkpt><trkpt lat="44.74121810257738" lon="9.678210048067466"><ele>895.0</ele><time>2026-03-28T14:48:25.999Z</time></trkpt><trkpt lat="44.741315647327845" lon="9.67830136111903"><ele>895.0</ele><time>2026-03-28T14:48:26.999Z</time></trkpt><trkpt lat="44.741422504897706" lon="9.678363071834605"><ele>895.0</ele><time>2026-03-28T14:48:27.999Z</time></trkpt><trkpt lat="44.74152943286545" lon="9.678417935204928"><ele>895.0</ele><time>2026-03-28T14:48:28.999Z</time></trkpt><trkpt lat="44.741627283234386" lon="9.678475634811008"><ele>895.0</ele><time>2026-03-28T14:48:29.999Z</time></trkpt><trkpt lat="44.74171614350548" lon="9.678530449831236"><ele>895.0</ele><time>2026-03-28T14:48:30.999Z</time></trkpt><trkpt lat="44.74179796527064" lon="9.678599776158025"><ele>895.6666666666666</ele><time>2026-03-28T14:48:31.999Z</time></trkpt><trkpt lat="44.74187081203405" lon="9.678688043149146"><ele>896.3333333333333</ele><time>2026-03-28T14:48:32.999Z</time></trkpt><trkpt lat="44.74191847597047" lon="9.678812112470602"><ele>897.0</ele><time>2026-03-28T14:48:33.999Z</time></trkpt><trkpt lat="44.74198261901675" lon="9.67891076150022"><ele>897.6666666666667</ele><time>2026-03-28T14:48:34.999Z</time></trkpt><trkpt lat="44.74204075407852" lon="9.67898041440231"><ele>898.3333333333334</ele><time>2026-03-28T14:48:35.999Z</time></trkpt><trkpt lat="44.74211662121856" lon="9.67898418336039"><ele>899.0</ele><time>2026-03-28T14:48:36.999Z</time></trkpt><trkpt lat="44.74218233746738" lon="9.678910607036896"><ele>897.0000000000001</ele><time>2026-03-28T14:48:37.999Z</time></trkpt><trkpt lat="44.742206256297145" lon="9.678792367997803"><ele>895.0</ele><time>2026-03-28T14:48:38.999Z</time></trkpt><trkpt lat="44.74217373734195" lon="9.678660989167769"><ele>893.0</ele><time>2026-03-28T14:48:39.999Z</time></trkpt><trkpt lat="44.74212576269414" lon="9.67855460518024"><ele>891.0</ele><time>2026-03-28T14:48:40.998Z</time></trkpt><trkpt lat="44.74207675440113" lon="9.678451448631513"><ele>889.0000000000001</ele><time>2026-03-28T14:48:41.998Z</time></trkpt><trkpt lat="44.74204399295295" lon="9.678340397214246"><ele>887.0</ele><time>2026-03-28T14:48:42.998Z</time></trkpt><trkpt lat="44.74202523292574" lon="9.678218211394034"><ele>886.8</ele><time>2026-03-28T14:48:43.998Z</time></trkpt><trkpt lat="44.74201791117732" lon="9.678092204782534"><ele>886.6</ele><time>2026-03-28T14:48:44.998Z</time></trkpt><trkpt lat="44.74202175179134" lon="9.677963698925238"><ele>886.3999999999999</ele><time>2026-03-28T14:48:45.998Z</time></trkpt><trkpt lat="44.74202793534552" lon="9.677839772581173"><ele>886.1999999999999</ele><time>2026-03-28T14:48:46.998Z</time></trkpt><trkpt lat="44.74204114865512" lon="9.677712460261423"><ele>886.0</ele><time>2026-03-28T14:48:47.998Z</time></trkpt><trkpt lat="44.742062967153544" lon="9.67758519288353"><ele>885.4</ele><time>2026-03-28T14:48:48.998Z</time></trkpt><trkpt lat="44.74209085096618" lon="9.677460306999517"><ele>884.8</ele><time>2026-03-28T14:48:49.998Z</time></trkpt><trkpt lat="44.74213443644374" lon="9.677341858562615"><ele>884.1999999999999</ele><time>2026-03-28T14:48:50.998Z</time></trkpt><trkpt lat="44.742201543938016" lon="9.677243079799288"><ele>883.5999999999999</ele><time>2026-03-28T14:48:51.998Z</time></trkpt><trkpt lat="44.742285154013764" lon="9.677169045194429"><ele>883.0</ele><time>2026-03-28T14:48:52.998Z</time></trkpt><trkpt lat="44.74237540451221" lon="9.677114510887533"><ele>883.0</ele><time>2026-03-28T14:48:53.998Z</time></trkpt><trkpt lat="44.74246713599259" lon="9.677066739989941"><ele>883.0</ele><time>2026-03-28T14:48:54.998Z</time></trkpt><trkpt lat="44.742555144464156" lon="9.677023399678063"><ele>883.0</ele><time>2026-03-28T14:48:55.998Z</time></trkpt><trkpt lat="44.74264107907241" lon="9.676970568116726"><ele>883.0</ele><time>2026-03-28T14:48:56.998Z</time></trkpt><trkpt lat="44.742722739270285" lon="9.67691508091727"><ele>883.0</ele><time>2026-03-28T14:48:57.998Z</time></trkpt><trkpt lat="44.74278927262072" lon="9.676830584072713"><ele>883.3333333333333</ele><time>2026-03-28T14:48:58.998Z</time></trkpt><trkpt lat="44.74283208654986" lon="9.676728944835563"><ele>883.6666666666666</ele><time>2026-03-28T14:48:59.998Z</time></trkpt><trkpt lat="44.742833475564524" lon="9.676613578871965"><ele>884.0</ele><time>2026-03-28T14:49:00.998Z</time></trkpt><trkpt lat="44.74281493317246" lon="9.676501974503429"><ele>884.3333333333333</ele><time>2026-03-28T14:49:01.998Z</time></trkpt><trkpt lat="44.74278563844986" lon="9.676394374196018"><ele>884.6666666666666</ele><time>2026-03-28T14:49:02.998Z</time></trkpt><trkpt lat="44.74272673314313" lon="9.676298866002487"><ele>885.0</ele><time>2026-03-28T14:49:03.998Z</time></trkpt><trkpt lat="44.7426594513966" lon="9.67621586964644"><ele>885.0</ele><time>2026-03-28T14:49:04.998Z</time></trkpt><trkpt lat="44.74258559345558" lon="9.676146294935691"><ele>885.0</ele><time>2026-03-28T14:49:05.998Z</time></trkpt><trkpt lat="44.742494625821585" lon="9.67609976637604"><ele>885.0</ele><time>2026-03-28T14:49:06.998Z</time></trkpt><trkpt lat="44.74239400603204" lon="9.676084667536806"><ele>885.0</ele><time>2026-03-28T14:49:07.998Z</time></trkpt><trkpt lat="44.742301731866675" lon="9.676084497241524"><ele>885.0</ele><time>2026-03-28T14:49:08.998Z</time></trkpt><trkpt lat="44.74222546678769" lon="9.676076038275905"><ele>884.1666666666666</ele><time>2026-03-28T14:49:09.998Z</time></trkpt><trkpt lat="44.74213164242999" lon="9.675989120285799"><ele>883.3333333333333</ele><time>2026-03-28T14:49:11.998Z</time></trkpt><trkpt lat="44.74213004162328" lon="9.675875154204933"><ele>882.5</ele><time>2026-03-28T14:49:12.998Z</time></trkpt><trkpt lat="44.742153019951374" lon="9.675762721494797"><ele>881.6666666666666</ele><time>2026-03-28T14:49:13.998Z</time></trkpt><trkpt lat="44.742230458610855" lon="9.675705787852326"><ele>880.8333333333333</ele><time>2026-03-28T14:49:14.998Z</time></trkpt><trkpt lat="44.742309594307734" lon="9.67566205638319"><ele>880.0</ele><time>2026-03-28T14:49:15.998Z</time></trkpt><trkpt lat="44.74239544821887" lon="9.675647668632804"><ele>880.0</ele><time>2026-03-28T14:49:16.998Z</time></trkpt><trkpt lat="44.74248501934503" lon="9.675660809304624"><ele>880.0</ele><time>2026-03-28T14:49:17.998Z</time></trkpt><trkpt lat="44.74257354382461" lon="9.675704470059964"><ele>880.0</ele><time>2026-03-28T14:49:18.998Z</time></trkpt><trkpt lat="44.74265258483693" lon="9.67575616774471"><ele>880.0</ele><time>2026-03-28T14:49:19.998Z</time></trkpt><trkpt lat="44.74272747547785" lon="9.675830119896114"><ele>880.0</ele><time>2026-03-28T14:49:20.998Z</time></trkpt><trkpt lat="44.74279524753085" lon="9.67592537235425"><ele>877.8</ele><time>2026-03-28T14:49:21.998Z</time></trkpt><trkpt lat="44.74287040163307" lon="9.676015645962579"><ele>875.6</ele><time>2026-03-28T14:49:22.998Z</time></trkpt><trkpt lat="44.74294489310424" lon="9.676108347366586"><ele>873.4000000000001</ele><time>2026-03-28T14:49:23.998Z</time></trkpt><trkpt lat="44.74301753722204" lon="9.676206419434703"><ele>871.2</ele><time>2026-03-28T14:49:24.998Z</time></trkpt><trkpt lat="44.74309515847129" lon="9.676301076768112"><ele>869.0</ele><time>2026-03-28T14:49:25.998Z</time></trkpt><trkpt lat="44.74317025551074" lon="9.676402125983588"><ele>869.0</ele><time>2026-03-28T14:49:26.998Z</time></trkpt><trkpt lat="44.74324376618241" lon="9.6765084811699"><ele>869.0000000000001</ele><time>2026-03-28T14:49:27.998Z</time></trkpt><trkpt lat="44.743322034648514" lon="9.676613142892904"><ele>869.0000000000001</ele><time>2026-03-28T14:49:28.998Z</time></trkpt><trkpt lat="44.74339624278982" lon="9.676724691762201"><ele>869.0</ele><time>2026-03-28T14:49:30Z</time></trkpt><trkpt lat="44.74347055853078" lon="9.67684260095114"><ele>869.0</ele><time>2026-03-28T14:49:31Z</time></trkpt><trkpt lat="44.74354983559413" lon="9.676958805116628"><ele>867.5</ele><time>2026-03-28T14:49:32Z</time></trkpt><trkpt lat="44.74363286476205" lon="9.677074238889638"><ele>866.0</ele><time>2026-03-28T14:49:33Z</time></trkpt><trkpt lat="44.74371546293573" lon="9.677191923439581"><ele>864.5</ele><time>2026-03-28T14:49:34Z</time></trkpt><trkpt lat="44.743797396717014" lon="9.677312972814015"><ele>863.0</ele><time>2026-03-28T14:49:35Z</time></trkpt><trkpt lat="44.74388741411317" lon="9.67742828437597"><ele>863.0</ele><time>2026-03-28T14:49:36Z</time></trkpt><trkpt lat="44.74398053813546" lon="9.677537259080436"><ele>863.0</ele><time>2026-03-28T14:49:37Z</time></trkpt><trkpt lat="44.74407542737287" lon="9.67763434351518"><ele>863.0</ele><time>2026-03-28T14:49:38Z</time></trkpt><trkpt lat="44.74416797419025" lon="9.677723496969584"><ele>863.0</ele><time>2026-03-28T14:49:39Z</time></trkpt><trkpt lat="44.744270164148034" lon="9.677793531110263"><ele>859.75</ele><time>2026-03-28T14:49:40Z</time></trkpt><trkpt lat="44.74438028129233" lon="9.677839515420642"><ele>856.5</ele><time>2026-03-28T14:49:41Z</time></trkpt><trkpt lat="44.74449400205915" lon="9.677849503576047"><ele>853.25</ele><time>2026-03-28T14:49:42Z</time></trkpt><trkpt lat="44.74460992333235" lon="9.67784451637442"><ele>850.0</ele><time>2026-03-28T14:49:43Z</time></trkpt><trkpt lat="44.74472776207748" lon="9.677828884080498"><ele>850.0</ele><time>2026-03-28T14:49:44Z</time></trkpt><trkpt lat="44.744845992624256" lon="9.67780843839688"><ele>850.0</ele><time>2026-03-28T14:49:45Z</time></trkpt><trkpt lat="44.74496490857738" lon="9.677787138282898"><ele>850.0</ele><time>2026-03-28T14:49:46Z</time></trkpt><trkpt lat="44.7450831174828" lon="9.677766741442941"><ele>850.0</ele><time>2026-03-28T14:49:47Z</time></trkpt><trkpt lat="44.74519739611063" lon="9.677738586149731"><ele>849.8</ele><time>2026-03-28T14:49:48Z</time></trkpt><trkpt lat="44.74530379815976" lon="9.677694049924629"><ele>849.6</ele><time>2026-03-28T14:49:49Z</time></trkpt><trkpt lat="44.74540338382391" lon="9.677653239987388"><ele>849.4000000000001</ele><time>2026-03-28T14:49:50Z</time></trkpt><trkpt lat="44.74549376721044" lon="9.677639941556635"><ele>849.2</ele><time>2026-03-28T14:49:51Z</time></trkpt><trkpt lat="44.745574495991015" lon="9.677658659639675"><ele>849.0</ele><time>2026-03-28T14:49:51.999Z</time></trkpt><trkpt lat="44.7456439967411" lon="9.677709478075206"><ele>847.8333333333334</ele><time>2026-03-28T14:49:52.999Z</time></trkpt><trkpt lat="44.74567801315669" lon="9.677803484804308"><ele>846.6666666666667</ele><time>2026-03-28T14:49:53.999Z</time></trkpt><trkpt lat="44.7456772643989" lon="9.67790560461969"><ele>845.5</ele><time>2026-03-28T14:49:54.999Z</time></trkpt><trkpt lat="44.745602786962216" lon="9.677963160501871"><ele>844.3333333333334</ele><time>2026-03-28T14:49:55.999Z</time></trkpt><trkpt lat="44.74554012814254" lon="9.677992504701505"><ele>843.1666666666667</ele><time>2026-03-28T14:49:56.999Z</time></trkpt><trkpt lat="44.74546802014526" lon="9.678021146298834"><ele>842.0</ele><time>2026-03-28T14:49:57.999Z</time></trkpt><trkpt lat="44.74538655144532" lon="9.678049107869358"><ele>842.0</ele><time>2026-03-28T14:49:58.999Z</time></trkpt><trkpt lat="44.7452981761924" lon="9.678085089313903"><ele>842.0</ele><time>2026-03-28T14:49:59.999Z</time></trkpt><trkpt lat="44.74521580555447" lon="9.678133518667845"><ele>842.0</ele><time>2026-03-28T14:50:00.999Z</time></trkpt><trkpt lat="44.74513267712627" lon="9.678196533127267"><ele>842.0</ele><time>2026-03-28T14:50:01.999Z</time></trkpt><trkpt lat="44.74505438734717" lon="9.678276489222252"><ele>842.0</ele><time>2026-03-28T14:50:02.999Z</time></trkpt><trkpt lat="44.74498212634029" lon="9.678364761217315"><ele>842.2</ele><time>2026-03-28T14:50:03.999Z</time></trkpt><trkpt lat="44.74491665928349" lon="9.678457866013014"><ele>842.4000000000001</ele><time>2026-03-28T14:50:04.999Z</time></trkpt><trkpt lat="44.7448537633381" lon="9.678559626861512"><ele>842.5999999999999</ele><time>2026-03-28T14:50:05.999Z</time></trkpt><trkpt lat="44.74479485725772" lon="9.67865965574823"><ele>842.8</ele><time>2026-03-28T14:50:06.999Z</time></trkpt><trkpt lat="44.74473479659859" lon="9.678757654552037"><ele>843.0</ele><time>2026-03-28T14:50:07.999Z</time></trkpt><trkpt lat="44.74469171121695" lon="9.67888031267557"><ele>843.0</ele><time>2026-03-28T14:50:08.999Z</time></trkpt><trkpt lat="44.744640825728304" lon="9.678990845345025"><ele>843.0</ele><time>2026-03-28T14:50:09.999Z</time></trkpt><trkpt lat="44.74459686218341" lon="9.679101855408149"><ele>843.0</ele><time>2026-03-28T14:50:10.999Z</time></trkpt><trkpt lat="44.74455615924164" lon="9.679210568677405"><ele>843.0</ele><time>2026-03-28T14:50:11.999Z</time></trkpt><trkpt lat="44.74451960455814" lon="9.679321115555705"><ele>843.0</ele><time>2026-03-28T14:50:12.999Z</time></trkpt><trkpt lat="44.74449179274502" lon="9.679436544431727"><ele>843.0</ele><time>2026-03-28T14:50:13.999Z</time></trkpt><trkpt lat="44.74446432017944" lon="9.679548436371258"><ele>842.0</ele><time>2026-03-28T14:50:14.999Z</time></trkpt><trkpt lat="44.74443954516497" lon="9.679662383636716"><ele>841.0</ele><time>2026-03-28T14:50:15.999Z</time></trkpt><trkpt lat="44.74442193993369" lon="9.679781079058316"><ele>840.0</ele><time>2026-03-28T14:50:16.999Z</time></trkpt><trkpt lat="44.74441995684053" lon="9.679905435193124"><ele>839.0</ele><time>2026-03-28T14:50:17.999Z</time></trkpt><trkpt lat="44.744444218102636" lon="9.680030413516068"><ele>838.0</ele><time>2026-03-28T14:50:18.999Z</time></trkpt><trkpt lat="44.74448927287139" lon="9.680143211065937"><ele>837.0</ele><time>2026-03-28T14:50:19.999Z</time></trkpt><trkpt lat="44.74454779290446" lon="9.680245199984357"><ele>838.0</ele><time>2026-03-28T14:50:20.999Z</time></trkpt><trkpt lat="44.74461217439339" lon="9.680337463681555"><ele>839.0</ele><time>2026-03-28T14:50:21.999Z</time></trkpt><trkpt lat="44.74467913219871" lon="9.68042707585888"><ele>840.0</ele><time>2026-03-28T14:50:22.999Z</time></trkpt><trkpt lat="44.744748154512145" lon="9.68051641871767"><ele>841.0</ele><time>2026-03-28T14:50:23.999Z</time></trkpt><trkpt lat="44.74482142942602" lon="9.680598002308864"><ele>842.0</ele><time>2026-03-28T14:50:24.999Z</time></trkpt><trkpt lat="44.74490091256453" lon="9.68067700860412"><ele>842.0</ele><time>2026-03-28T14:50:25.999Z</time></trkpt><trkpt lat="44.74498509013567" lon="9.680743645623696"><ele>842.0</ele><time>2026-03-28T14:50:26.999Z</time></trkpt><trkpt lat="44.74507570875172" lon="9.680789962691524"><ele>842.0</ele><time>2026-03-28T14:50:27.999Z</time></trkpt><trkpt lat="44.745166824853264" lon="9.680832024975343"><ele>842.0</ele><time>2026-03-28T14:50:28.999Z</time></trkpt><trkpt lat="44.74525431949306" lon="9.680885216729319"><ele>842.0</ele><time>2026-03-28T14:50:29.999Z</time></trkpt><trkpt lat="44.7453348949886" lon="9.680955872237913"><ele>840.2</ele><time>2026-03-28T14:50:30.999Z</time></trkpt><trkpt lat="44.74541416965755" lon="9.681036348143923"><ele>838.4000000000001</ele><time>2026-03-28T14:50:31.999Z</time></trkpt><trkpt lat="44.745492568489084" lon="9.681121845601373"><ele>836.5999999999999</ele><time>2026-03-28T14:50:32.999Z</time></trkpt><trkpt lat="44.745569705354555" lon="9.681201540867583"><ele>834.8</ele><time>2026-03-28T14:50:33.999Z</time></trkpt><trkpt lat="44.7456433971083" lon="9.681283185541352"><ele>833.0</ele><time>2026-03-28T14:50:34.999Z</time></trkpt><trkpt lat="44.74570594067211" lon="9.681366865235658"><ele>833.0</ele><time>2026-03-28T14:50:35.999Z</time></trkpt><trkpt lat="44.74574436221477" lon="9.681469139383196"><ele>833.0</ele><time>2026-03-28T14:50:36.999Z</time></trkpt><trkpt lat="44.745736633852516" lon="9.68159899985572"><ele>833.0</ele><time>2026-03-28T14:50:37.999Z</time></trkpt><trkpt lat="44.745677140628025" lon="9.681700636232186"><ele>833.0</ele><time>2026-03-28T14:50:38.999Z</time></trkpt><trkpt lat="44.745641790567554" lon="9.68181954600095"><ele>833.0</ele><time>2026-03-28T14:50:39.999Z</time></trkpt><trkpt lat="44.74562262106508" lon="9.68194610551331"><ele>832.5999999999999</ele><time>2026-03-28T14:50:40.999Z</time></trkpt><trkpt lat="44.745637648629796" lon="9.682078251367827"><ele>832.1999999999999</ele><time>2026-03-28T14:50:41.999Z</time></trkpt><trkpt lat="44.74568426480891" lon="9.682199611985833"><ele>831.8</ele><time>2026-03-28T14:50:42.999Z</time></trkpt><trkpt lat="44.745753722395214" lon="9.682302214303183"><ele>831.4</ele><time>2026-03-28T14:50:43.998Z</time></trkpt><trkpt lat="44.745832796242716" lon="9.682393284681654"><ele>831.0</ele><time>2026-03-28T14:50:44.998Z</time></trkpt><trkpt lat="44.745912451198066" lon="9.682483247950021"><ele>831.0</ele><time>2026-03-28T14:50:45.998Z</time></trkpt><trkpt lat="44.74599397454345" lon="9.68257360110498"><ele>831.0</ele><time>2026-03-28T14:50:46.998Z</time></trkpt><trkpt lat="44.74607646061033" lon="9.682663823629044"><ele>831.0</ele><time>2026-03-28T14:50:47.998Z</time></trkpt><trkpt lat="44.74615542919809" lon="9.682754254015238"><ele>831.0</ele><time>2026-03-28T14:50:48.998Z</time></trkpt><trkpt lat="44.746231676095505" lon="9.682847739915456"><ele>831.0</ele><time>2026-03-28T14:50:49.998Z</time></trkpt><trkpt lat="44.74629476533528" lon="9.682949940661551"><ele>828.0</ele><time>2026-03-28T14:50:50.998Z</time></trkpt><trkpt lat="44.74632644441218" lon="9.683074894801896"><ele>825.0</ele><time>2026-03-28T14:50:51.998Z</time></trkpt><trkpt lat="44.74632697640231" lon="9.683214662874603"><ele>822.0</ele><time>2026-03-28T14:50:52.998Z</time></trkpt><trkpt lat="44.7463097750167" lon="9.683352796225794"><ele>819.0</ele><time>2026-03-28T14:50:53.998Z</time></trkpt><trkpt lat="44.7462957801633" lon="9.683489759988035"><ele>816.0</ele><time>2026-03-28T14:50:54.998Z</time></trkpt><trkpt lat="44.74628196521572" lon="9.683628104114332"><ele>814.8</ele><time>2026-03-28T14:50:55.998Z</time></trkpt><trkpt lat="44.746267462839654" lon="9.683771849050865"><ele>813.5999999999999</ele><time>2026-03-28T14:50:56.998Z</time></trkpt><trkpt lat="44.74625463181212" lon="9.683912739274438"><ele>812.4</ele><time>2026-03-28T14:50:57.998Z</time></trkpt><trkpt lat="44.746236837776564" lon="9.684043631560042"><ele>811.2</ele><time>2026-03-28T14:50:58.998Z</time></trkpt><trkpt lat="44.74620609610859" lon="9.684167495679858"><ele>810.0</ele><time>2026-03-28T14:50:59.998Z</time></trkpt><trkpt lat="44.746155146922156" lon="9.684286620209228"><ele>810.0</ele><time>2026-03-28T14:51:00.998Z</time></trkpt><trkpt lat="44.74609926235653" lon="9.684400652329382"><ele>810.0</ele><time>2026-03-28T14:51:01.998Z</time></trkpt><trkpt lat="44.746052299685054" lon="9.684524731921982"><ele>810.0</ele><time>2026-03-28T14:51:02.998Z</time></trkpt><trkpt lat="44.746030902887746" lon="9.684664323729104"><ele>810.0</ele><time>2026-03-28T14:51:03.998Z</time></trkpt><trkpt lat="44.74603268500309" lon="9.684807610239845"><ele>810.0</ele><time>2026-03-28T14:51:04.998Z</time></trkpt><trkpt lat="44.74604272316131" lon="9.68495240348179"><ele>810.4</ele><time>2026-03-28T14:51:05.998Z</time></trkpt><trkpt lat="44.74606323729362" lon="9.685095458585453"><ele>810.8</ele><time>2026-03-28T14:51:06.998Z</time></trkpt><trkpt lat="44.746109762331855" lon="9.685229184510996"><ele>811.2</ele><time>2026-03-28T14:51:07.998Z</time></trkpt><trkpt lat="44.746181347669555" lon="9.685343536508027"><ele>811.6</ele><time>2026-03-28T14:51:08.998Z</time></trkpt><trkpt lat="44.74626976789548" lon="9.685432209385969"><ele>812.0</ele><time>2026-03-28T14:51:09.998Z</time></trkpt><trkpt lat="44.74637036900708" lon="9.685496538847818"><ele>813.2</ele><time>2026-03-28T14:51:10.998Z</time></trkpt><trkpt lat="44.746476069486846" lon="9.685539708293263"><ele>814.4000000000001</ele><time>2026-03-28T14:51:11.998Z</time></trkpt><trkpt lat="44.74657491245175" lon="9.685581848482904"><ele>815.5999999999999</ele><time>2026-03-28T14:51:12.998Z</time></trkpt><trkpt lat="44.74666037165935" lon="9.685643286256111"><ele>816.8</ele><time>2026-03-28T14:51:13.998Z</time></trkpt><trkpt lat="44.746730962043436" lon="9.68573750182859"><ele>818.0</ele><time>2026-03-28T14:51:14.998Z</time></trkpt><trkpt lat="44.74677952226223" lon="9.685854368168368"><ele>818.0</ele><time>2026-03-28T14:51:15.998Z</time></trkpt><trkpt lat="44.74682297734015" lon="9.685974875364758"><ele>818.0</ele><time>2026-03-28T14:51:16.998Z</time></trkpt><trkpt lat="44.7468624276623" lon="9.686103049634678"><ele>818.0</ele><time>2026-03-28T14:51:17.998Z</time></trkpt><trkpt lat="44.74691144533426" lon="9.686225183954983"><ele>818.0</ele><time>2026-03-28T14:51:18.998Z</time></trkpt><trkpt lat="44.746976601728846" lon="9.686333343282598"><ele>818.0</ele><time>2026-03-28T14:51:19.998Z</time></trkpt><trkpt lat="44.747056032064314" lon="9.6864241859006"><ele>815.8</ele><time>2026-03-28T14:51:20.998Z</time></trkpt><trkpt lat="44.747144520238834" lon="9.68650053699848"><ele>813.5999999999999</ele><time>2026-03-28T14:51:21.998Z</time></trkpt><trkpt lat="44.74723439727625" lon="9.686573672104707"><ele>811.4000000000001</ele><time>2026-03-28T14:51:22.998Z</time></trkpt><trkpt lat="44.747325372189756" lon="9.686649720026104"><ele>809.2</ele><time>2026-03-28T14:51:23.998Z</time></trkpt><trkpt lat="44.747410978163074" lon="9.686729526092066"><ele>807.0</ele><time>2026-03-28T14:51:24.998Z</time></trkpt><trkpt lat="44.74748999507818" lon="9.686802420765735"><ele>807.0</ele><time>2026-03-28T14:51:25.998Z</time></trkpt><trkpt lat="44.74756519348209" lon="9.686851297835348"><ele>807.0</ele><time>2026-03-28T14:51:26.998Z</time></trkpt><trkpt lat="44.747640305680946" lon="9.686862728259234"><ele>807.0</ele><time>2026-03-28T14:51:27.998Z</time></trkpt><trkpt lat="44.747707164656255" lon="9.686824107311002"><ele>807.0</ele><time>2026-03-28T14:51:28.998Z</time></trkpt><trkpt lat="44.74774699769371" lon="9.68673082633913"><ele>807.0</ele><time>2026-03-28T14:51:29.998Z</time></trkpt><trkpt lat="44.7477699036767" lon="9.686615217604992"><ele>807.0</ele><time>2026-03-28T14:51:30.998Z</time></trkpt><trkpt lat="44.747741414491365" lon="9.686490766942962"><ele>807.0</ele><time>2026-03-28T14:51:31.998Z</time></trkpt><trkpt lat="44.74771094366638" lon="9.686373994626665"><ele>807.0</ele><time>2026-03-28T14:51:32.998Z</time></trkpt><trkpt lat="44.747677481872955" lon="9.686257288791188"><ele>807.0</ele><time>2026-03-28T14:51:33.998Z</time></trkpt><trkpt lat="44.74764289523666" lon="9.686136659864443"><ele>807.0</ele><time>2026-03-28T14:51:34.998Z</time></trkpt><trkpt lat="44.747611926571615" lon="9.686016143506365"><ele>807.0</ele><time>2026-03-28T14:51:36Z</time></trkpt><trkpt lat="44.74758938371" lon="9.685892095116222"><ele>805.8</ele><time>2026-03-28T14:51:37Z</time></trkpt><trkpt lat="44.74756887354032" lon="9.68575995333535"><ele>804.6</ele><time>2026-03-28T14:51:38Z</time></trkpt><trkpt lat="44.74757676961273" lon="9.685622573965226"><ele>803.4</ele><time>2026-03-28T14:51:39Z</time></trkpt><trkpt lat="44.74760955033571" lon="9.685487894581039"><ele>802.1999999999999</ele><time>2026-03-28T14:51:40Z</time></trkpt><trkpt lat="44.74766755445395" lon="9.6853678488606"><ele>801.0</ele><time>2026-03-28T14:51:41Z</time></trkpt><trkpt lat="44.74774446987493" lon="9.685269168145481"><ele>798.0</ele><time>2026-03-28T14:51:42Z</time></trkpt><trkpt lat="44.747832776762245" lon="9.685186144538271"><ele>795.0</ele><time>2026-03-28T14:51:43Z</time></trkpt><trkpt lat="44.74792121720036" lon="9.685101278558836"><ele>792.0</ele><time>2026-03-28T14:51:44Z</time></trkpt><trkpt lat="44.74800693911061" lon="9.685007576553009"><ele>789.0</ele><time>2026-03-28T14:51:45Z</time></trkpt><trkpt lat="44.74809364377014" lon="9.684915815957364"><ele>786.0</ele><time>2026-03-28T14:51:46Z</time></trkpt><trkpt lat="44.74817362572901" lon="9.684817125131705"><ele>786.0</ele><time>2026-03-28T14:51:47Z</time></trkpt><trkpt lat="44.74822967470717" lon="9.68469722383892"><ele>786.0</ele><time>2026-03-28T14:51:48Z</time></trkpt><trkpt lat="44.7482652985538" lon="9.684563775364559"><ele>786.0</ele><time>2026-03-28T14:51:49Z</time></trkpt><trkpt lat="44.74829301107351" lon="9.68442562359824"><ele>786.0</ele><time>2026-03-28T14:51:50Z</time></trkpt><trkpt lat="44.74831616056824" lon="9.684293280714718"><ele>786.0</ele><time>2026-03-28T14:51:51Z</time></trkpt><trkpt lat="44.74833302284686" lon="9.68416906800515"><ele>787.5</ele><time>2026-03-28T14:51:52Z</time></trkpt><trkpt lat="44.74836930512235" lon="9.684065483844059"><ele>789.0</ele><time>2026-03-28T14:51:53Z</time></trkpt><trkpt lat="44.7484348221238" lon="9.684017482575292"><ele>790.5</ele><time>2026-03-28T14:51:54Z</time></trkpt><trkpt lat="44.748502019454655" lon="9.684031148107092"><ele>792.0</ele><time>2026-03-28T14:51:54.999Z</time></trkpt><trkpt lat="44.74854608532369" lon="9.684105822267584"><ele>793.5</ele><time>2026-03-28T14:51:55.999Z</time></trkpt><trkpt lat="44.748502471443004" lon="9.684197967654857"><ele>795.0</ele><time>2026-03-28T14:51:56.999Z</time></trkpt><trkpt lat="44.74849211452938" lon="9.684309282281202"><ele>795.0</ele><time>2026-03-28T14:51:57.999Z</time></trkpt><trkpt lat="44.74848861073638" lon="9.684415774065354"><ele>795.0</ele><time>2026-03-28T14:51:58.999Z</time></trkpt><trkpt lat="44.74852178149536" lon="9.684540252570528"><ele>795.0</ele><time>2026-03-28T14:51:59.999Z</time></trkpt><trkpt lat="44.748561466118154" lon="9.684653502691795"><ele>795.0</ele><time>2026-03-28T14:52:00.999Z</time></trkpt><trkpt lat="44.748617165376764" lon="9.684770278534003"><ele>795.0</ele><time>2026-03-28T14:52:01.999Z</time></trkpt><trkpt lat="44.748683979524216" lon="9.684870603833163"><ele>791.2</ele><time>2026-03-28T14:52:02.999Z</time></trkpt><trkpt lat="44.74874930521673" lon="9.684981000035723"><ele>787.4</ele><time>2026-03-28T14:52:03.999Z</time></trkpt><trkpt lat="44.74881266499644" lon="9.68509001177598"><ele>783.5999999999999</ele><time>2026-03-28T14:52:04.999Z</time></trkpt><trkpt lat="44.74886663533716" lon="9.68521513770772"><ele>779.8</ele><time>2026-03-28T14:52:05.999Z</time></trkpt><trkpt lat="44.74890333685914" lon="9.685354447907649"><ele>776.0</ele><time>2026-03-28T14:52:06.999Z</time></trkpt><trkpt lat="44.748932688612754" lon="9.685496967728833"><ele>776.0</ele><time>2026-03-28T14:52:07.999Z</time></trkpt><trkpt lat="44.748950817921255" lon="9.685642164823943"><ele>776.0</ele><time>2026-03-28T14:52:08.999Z</time></trkpt><trkpt lat="44.74898708775836" lon="9.68577510018993"><ele>776.0</ele><time>2026-03-28T14:52:09.999Z</time></trkpt><trkpt lat="44.749058410559456" lon="9.685889542588543"><ele>776.0</ele><time>2026-03-28T14:52:10.999Z</time></trkpt><trkpt lat="44.74914314103209" lon="9.685986114282164"><ele>776.0</ele><time>2026-03-28T14:52:11.999Z</time></trkpt><trkpt lat="44.74922648400716" lon="9.686074677040915"><ele>776.0</ele><time>2026-03-28T14:52:12.999Z</time></trkpt><trkpt lat="44.749299255748795" lon="9.686175049908968"><ele>776.0</ele><time>2026-03-28T14:52:13.999Z</time></trkpt><trkpt lat="44.749350240133204" lon="9.686306449036472"><ele>776.0</ele><time>2026-03-28T14:52:14.999Z</time></trkpt><trkpt lat="44.74938465800238" lon="9.686448503188556"><ele>776.0</ele><time>2026-03-28T14:52:15.999Z</time></trkpt><trkpt lat="44.7494010068847" lon="9.686592747596146"><ele>776.0</ele><time>2026-03-28T14:52:16.999Z</time></trkpt><trkpt lat="44.749384917523685" lon="9.686732736994458"><ele>774.5999999999999</ele><time>2026-03-28T14:52:17.999Z</time></trkpt><trkpt lat="44.7493897657926" lon="9.68687546872965"><ele>773.2</ele><time>2026-03-28T14:52:18.999Z</time></trkpt><trkpt lat="44.749431625830724" lon="9.687012637750229"><ele>771.8</ele><time>2026-03-28T14:52:19.999Z</time></trkpt><trkpt lat="44.74949041258433" lon="9.687138651659346"><ele>770.4000000000001</ele><time>2026-03-28T14:52:20.999Z</time></trkpt><trkpt lat="44.74956866822542" lon="9.687239205522577"><ele>769.0</ele><time>2026-03-28T14:52:21.999Z</time></trkpt><trkpt lat="44.749653684118044" lon="9.687326559212755"><ele>769.0</ele><time>2026-03-28T14:52:22.999Z</time></trkpt><trkpt lat="44.74974430879063" lon="9.687401083413324"><ele>769.0</ele><time>2026-03-28T14:52:23.999Z</time></trkpt><trkpt lat="44.74984551195486" lon="9.687441984890695"><ele>769.0</ele><time>2026-03-28T14:52:24.999Z</time></trkpt><trkpt lat="44.74994935768729" lon="9.687467045383071"><ele>769.0</ele><time>2026-03-28T14:52:25.999Z</time></trkpt><trkpt lat="44.75005291426102" lon="9.68747254398863"><ele>769.0</ele><time>2026-03-28T14:52:26.999Z</time></trkpt><trkpt lat="44.75015462519334" lon="9.687480791655824"><ele>767.0</ele><time>2026-03-28T14:52:27.999Z</time></trkpt><trkpt lat="44.75025414374778" lon="9.687508240287055"><ele>765.0</ele><time>2026-03-28T14:52:28.999Z</time></trkpt><trkpt lat="44.75035195514137" lon="9.687551579522369"><ele>763.0</ele><time>2026-03-28T14:52:29.999Z</time></trkpt><trkpt lat="44.75044944723127" lon="9.687595308739384"><ele>761.0</ele><time>2026-03-28T14:52:30.999Z</time></trkpt><trkpt lat="44.75055324792731" lon="9.687612110131228"><ele>759.0</ele><time>2026-03-28T14:52:31.999Z</time></trkpt><trkpt lat="44.750658010597725" lon="9.687592746984533"><ele>759.0</ele><time>2026-03-28T14:52:32.999Z</time></trkpt><trkpt lat="44.75075692751077" lon="9.68757967842346"><ele>759.0</ele><time>2026-03-28T14:52:33.999Z</time></trkpt><trkpt lat="44.7508575665425" lon="9.687607639665522"><ele>759.0</ele><time>2026-03-28T14:52:34.999Z</time></trkpt><trkpt lat="44.75094702507976" lon="9.687683763622292"><ele>759.0</ele><time>2026-03-28T14:52:35.999Z</time></trkpt><trkpt lat="44.75101738927272" lon="9.687794914609881"><ele>759.0</ele><time>2026-03-28T14:52:36.999Z</time></trkpt><trkpt lat="44.751065087423626" lon="9.687929816503999"><ele>758.0</ele><time>2026-03-28T14:52:37.999Z</time></trkpt><trkpt lat="44.751077659076834" lon="9.688076250133424"><ele>757.0</ele><time>2026-03-28T14:52:38.999Z</time></trkpt><trkpt lat="44.75108607463065" lon="9.688221512961366"><ele>756.0</ele><time>2026-03-28T14:52:39.999Z</time></trkpt><trkpt lat="44.75110535151333" lon="9.688358156502023"><ele>755.0</ele><time>2026-03-28T14:52:40.999Z</time></trkpt><trkpt lat="44.751127089175974" lon="9.688481891029761"><ele>754.0</ele><time>2026-03-28T14:52:41.999Z</time></trkpt><trkpt lat="44.751187124247615" lon="9.68857909672523"><ele>754.0</ele><time>2026-03-28T14:52:42.999Z</time></trkpt><trkpt lat="44.75127257835036" lon="9.688633322412239"><ele>754.0</ele><time>2026-03-28T14:52:43.999Z</time></trkpt><trkpt lat="44.75136429595023" lon="9.688654397343633"><ele>754.0</ele><time>2026-03-28T14:52:44.999Z</time></trkpt><trkpt lat="44.751455876594974" lon="9.6886168508141"><ele>754.0</ele><time>2026-03-28T14:52:45.999Z</time></trkpt><trkpt lat="44.751552963319966" lon="9.688611343870962"><ele>754.0</ele><time>2026-03-28T14:52:46.999Z</time></trkpt><trkpt lat="44.75164907093907" lon="9.688582343607548"><ele>754.0</ele><time>2026-03-28T14:52:47.998Z</time></trkpt><trkpt lat="44.75174873765703" lon="9.68856102231481"><ele>754.0</ele><time>2026-03-28T14:52:48.998Z</time></trkpt><trkpt lat="44.75184972723307" lon="9.68853655675666"><ele>754.0</ele><time>2026-03-28T14:52:49.998Z</time></trkpt><trkpt lat="44.75195225301936" lon="9.688515294703041"><ele>754.0</ele><time>2026-03-28T14:52:50.998Z</time></trkpt><trkpt lat="44.752054425789865" lon="9.688493625098516"><ele>754.0</ele><time>2026-03-28T14:52:51.998Z</time></trkpt><trkpt lat="44.752158352432794" lon="9.688471591249828"><ele>753.4000000000001</ele><time>2026-03-28T14:52:52.998Z</time></trkpt><trkpt lat="44.7522633570239" lon="9.688450570711106"><ele>752.8</ele><time>2026-03-28T14:52:53.998Z</time></trkpt><trkpt lat="44.75236875530517" lon="9.68843518842441"><ele>752.2</ele><time>2026-03-28T14:52:54.998Z</time></trkpt><trkpt lat="44.752473785230585" lon="9.688423098611334"><ele>751.5999999999999</ele><time>2026-03-28T14:52:55.998Z</time></trkpt><trkpt lat="44.75257936285561" lon="9.688404083699465"><ele>751.0</ele><time>2026-03-28T14:52:56.998Z</time></trkpt><trkpt lat="44.75268763442579" lon="9.688384613459466"><ele>748.8</ele><time>2026-03-28T14:52:57.998Z</time></trkpt><trkpt lat="44.75279598877144" lon="9.688367908642357"><ele>746.5999999999999</ele><time>2026-03-28T14:52:58.998Z</time></trkpt><trkpt lat="44.75290043237613" lon="9.68836199496613"><ele>744.4</ele><time>2026-03-28T14:52:59.998Z</time></trkpt><trkpt lat="44.75299907044508" lon="9.688360500114745"><ele>742.2</ele><time>2026-03-28T14:53:00.998Z</time></trkpt><trkpt lat="44.753089343890196" lon="9.68838338863363"><ele>740.0</ele><time>2026-03-28T14:53:01.998Z</time></trkpt><trkpt lat="44.75316415769846" lon="9.688458901627362"><ele>740.0</ele><time>2026-03-28T14:53:02.998Z</time></trkpt><trkpt lat="44.75321210260125" lon="9.68855859955477"><ele>740.0</ele><time>2026-03-28T14:53:03.998Z</time></trkpt><trkpt lat="44.75323455766203" lon="9.688659831142825"><ele>740.0</ele><time>2026-03-28T14:53:04.998Z</time></trkpt><trkpt lat="44.75319376752844" lon="9.688746839906358"><ele>740.0</ele><time>2026-03-28T14:53:05.998Z</time></trkpt><trkpt lat="44.75307972505212" lon="9.68883352924088"><ele>740.0</ele><time>2026-03-28T14:53:07.998Z</time></trkpt><trkpt lat="44.7530100054448" lon="9.688875736551571"><ele>740.0</ele><time>2026-03-28T14:53:08.998Z</time></trkpt><trkpt lat="44.75293204758934" lon="9.68892912869068"><ele>739.2</ele><time>2026-03-28T14:53:09.998Z</time></trkpt><trkpt lat="44.75285888301016" lon="9.688999835561496"><ele>738.4</ele><time>2026-03-28T14:53:10.998Z</time></trkpt><trkpt lat="44.75280719830846" lon="9.689134679813408"><ele>737.5999999999999</ele><time>2026-03-28T14:53:11.998Z</time></trkpt><trkpt lat="44.75277982689332" lon="9.689266830255418"><ele>736.8</ele><time>2026-03-28T14:53:12.998Z</time></trkpt><trkpt lat="44.752757463547844" lon="9.68939013570657"><ele>736.0</ele><time>2026-03-28T14:53:13.998Z</time></trkpt><trkpt lat="44.752737721652124" lon="9.689516323026412"><ele>734.8</ele><time>2026-03-28T14:53:14.998Z</time></trkpt><trkpt lat="44.75271908543631" lon="9.689642991028977"><ele>733.5999999999999</ele><time>2026-03-28T14:53:15.998Z</time></trkpt><trkpt lat="44.75270080179947" lon="9.689773317569097"><ele>732.4</ele><time>2026-03-28T14:53:16.998Z</time></trkpt><trkpt lat="44.752695754303645" lon="9.689912475981519"><ele>731.2</ele><time>2026-03-28T14:53:17.998Z</time></trkpt><trkpt lat="44.75274032726297" lon="9.690050650276106"><ele>730.0</ele><time>2026-03-28T14:53:18.998Z</time></trkpt><trkpt lat="44.752801391290824" lon="9.690172546152246"><ele>731.6</ele><time>2026-03-28T14:53:19.998Z</time></trkpt><trkpt lat="44.752887237907245" lon="9.690263211450077"><ele>733.2</ele><time>2026-03-28T14:53:20.998Z</time></trkpt><trkpt lat="44.752981899798186" lon="9.6903249125224"><ele>734.8</ele><time>2026-03-28T14:53:21.998Z</time></trkpt><trkpt lat="44.753073203362824" lon="9.690392054665441"><ele>736.4</ele><time>2026-03-28T14:53:22.998Z</time></trkpt><trkpt lat="44.75315276029363" lon="9.69047892116923"><ele>738.0</ele><time>2026-03-28T14:53:23.998Z</time></trkpt><trkpt lat="44.75322803797062" lon="9.690581474324766"><ele>738.0</ele><time>2026-03-28T14:53:24.998Z</time></trkpt><trkpt lat="44.75330493639022" lon="9.690683439420969"><ele>738.0</ele><time>2026-03-28T14:53:25.998Z</time></trkpt><trkpt lat="44.7533817560922" lon="9.690786429788595"><ele>738.0</ele><time>2026-03-28T14:53:26.998Z</time></trkpt><trkpt lat="44.75346129121709" lon="9.690891274712799"><ele>738.0</ele><time>2026-03-28T14:53:27.998Z</time></trkpt><trkpt lat="44.75354104503458" lon="9.690996556669697"><ele>738.0</ele><time>2026-03-28T14:53:28.998Z</time></trkpt><trkpt lat="44.753618476031995" lon="9.691105186763204"><ele>735.4</ele><time>2026-03-28T14:53:29.998Z</time></trkpt><trkpt lat="44.75369086648708" lon="9.691221340431204"><ele>732.8</ele><time>2026-03-28T14:53:30.998Z</time></trkpt><trkpt lat="44.75375334789994" lon="9.691348781351865"><ele>730.2</ele><time>2026-03-28T14:53:31.998Z</time></trkpt><trkpt lat="44.75380416277309" lon="9.691487953917001"><ele>727.6</ele><time>2026-03-28T14:53:32.998Z</time></trkpt><trkpt lat="44.75385663648199" lon="9.691627540443218"><ele>725.0</ele><time>2026-03-28T14:53:33.998Z</time></trkpt><trkpt lat="44.75393280593244" lon="9.691749262375088"><ele>725.0</ele><time>2026-03-28T14:53:34.998Z</time></trkpt><trkpt lat="44.754021640755326" lon="9.691855883489875"><ele>725.0</ele><time>2026-03-28T14:53:35.998Z</time></trkpt><trkpt lat="44.754115704214925" lon="9.691945058522107"><ele>725.0</ele><time>2026-03-28T14:53:36.998Z</time></trkpt><trkpt lat="44.754198481005844" lon="9.692024066416598"><ele>725.0</ele><time>2026-03-28T14:53:37.998Z</time></trkpt><trkpt lat="44.754258596018815" lon="9.692108306514514"><ele>725.0</ele><time>2026-03-28T14:53:38.998Z</time></trkpt><trkpt lat="44.754298077306935" lon="9.692210879289552"><ele>725.3333333333333</ele><time>2026-03-28T14:53:39.998Z</time></trkpt><trkpt lat="44.75428925426217" lon="9.692331336408337"><ele>725.6666666666666</ele><time>2026-03-28T14:53:40.997Z</time></trkpt><trkpt lat="44.7542425622294" lon="9.692419090937655"><ele>726.0</ele><time>2026-03-28T14:53:42Z</time></trkpt><trkpt lat="44.754202483048566" lon="9.692529487343206"><ele>726.3333333333334</ele><time>2026-03-28T14:53:43Z</time></trkpt><trkpt lat="44.75416099498276" lon="9.692634412158405"><ele>726.6666666666667</ele><time>2026-03-28T14:53:44Z</time></trkpt><trkpt lat="44.75411473072706" lon="9.692734916823515"><ele>727.0</ele><time>2026-03-28T14:53:45Z</time></trkpt><trkpt lat="44.75405735822003" lon="9.69281897350759"><ele>724.8</ele><time>2026-03-28T14:53:46Z</time></trkpt><trkpt lat="44.75399535454315" lon="9.692907329549618"><ele>722.6</ele><time>2026-03-28T14:53:47Z</time></trkpt><trkpt lat="44.75393200004596" lon="9.692997663685961"><ele>720.4</ele><time>2026-03-28T14:53:48Z</time></trkpt><trkpt lat="44.75386684916138" lon="9.693102120406822"><ele>718.1999999999999</ele><time>2026-03-28T14:53:49Z</time></trkpt><trkpt lat="44.75381650803511" lon="9.693226712685048"><ele>716.0</ele><time>2026-03-28T14:53:50Z</time></trkpt><trkpt lat="44.75377828170305" lon="9.693365649511398"><ele>716.0</ele><time>2026-03-28T14:53:51Z</time></trkpt><trkpt lat="44.75377523759435" lon="9.693512491242418"><ele>716.0</ele><time>2026-03-28T14:53:52Z</time></trkpt><trkpt lat="44.753744386858926" lon="9.693648302128375"><ele>716.0</ele><time>2026-03-28T14:53:53Z</time></trkpt><trkpt lat="44.75373112252522" lon="9.693786043708345"><ele>716.0</ele><time>2026-03-28T14:53:54Z</time></trkpt><trkpt lat="44.75373423642205" lon="9.693920784167952"><ele>716.0</ele><time>2026-03-28T14:53:55Z</time></trkpt><trkpt lat="44.75372324164142" lon="9.694047042281353"><ele>715.6666666666666</ele><time>2026-03-28T14:53:56Z</time></trkpt><trkpt lat="44.75371286553902" lon="9.694170105371335"><ele>715.3333333333333</ele><time>2026-03-28T14:53:57Z</time></trkpt><trkpt lat="44.75371526779898" lon="9.694295406804818"><ele>715.0</ele><time>2026-03-28T14:53:58Z</time></trkpt><trkpt lat="44.753735177851176" lon="9.694417613110659"><ele>714.6666666666666</ele><time>2026-03-28T14:53:58.999Z</time></trkpt><trkpt lat="44.753774002815014" lon="9.694532929315752"><ele>714.3333333333334</ele><time>2026-03-28T14:53:59.999Z</time></trkpt><trkpt lat="44.75382414254665" lon="9.694639784213035"><ele>714.0</ele><time>2026-03-28T14:54:00.999Z</time></trkpt><trkpt lat="44.7538830250264" lon="9.694737047015316"><ele>714.0</ele><time>2026-03-28T14:54:01.999Z</time></trkpt><trkpt lat="44.75395221223503" lon="9.694823486948746"><ele>714.0</ele><time>2026-03-28T14:54:02.999Z</time></trkpt><trkpt lat="44.754024210286616" lon="9.694907521398644"><ele>714.0</ele><time>2026-03-28T14:54:03.999Z</time></trkpt><trkpt lat="44.75410466746903" lon="9.69498044034162"><ele>714.0</ele><time>2026-03-28T14:54:04.999Z</time></trkpt><trkpt lat="44.75419060664735" lon="9.695048646657021"><ele>714.0</ele><time>2026-03-28T14:54:05.999Z</time></trkpt><trkpt lat="44.75428204766436" lon="9.695107588426975"><ele>712.6</ele><time>2026-03-28T14:54:06.999Z</time></trkpt><trkpt lat="44.75437987153287" lon="9.695156438001622"><ele>711.2</ele><time>2026-03-28T14:54:07.999Z</time></trkpt><trkpt lat="44.75447986490866" lon="9.695204371014654"><ele>709.8000000000001</ele><time>2026-03-28T14:54:08.999Z</time></trkpt><trkpt lat="44.75457845229811" lon="9.695255657598752"><ele>708.4000000000001</ele><time>2026-03-28T14:54:09.999Z</time></trkpt><trkpt lat="44.754674871338175" lon="9.695303436535085"><ele>707.0</ele><time>2026-03-28T14:54:10.999Z</time></trkpt><trkpt lat="44.75475085689097" lon="9.695370360604795"><ele>707.0</ele><time>2026-03-28T14:54:11.999Z</time></trkpt><trkpt lat="44.75479834204874" lon="9.695478990648867"><ele>707.0</ele><time>2026-03-28T14:54:12.999Z</time></trkpt><trkpt lat="44.754787263598345" lon="9.695614347596978"><ele>707.0</ele><time>2026-03-28T14:54:13.999Z</time></trkpt><trkpt lat="44.75477672971504" lon="9.695747407143326"><ele>707.0</ele><time>2026-03-28T14:54:14.999Z</time></trkpt><trkpt lat="44.75478488975805" lon="9.69588566345795"><ele>707.0</ele><time>2026-03-28T14:54:15.999Z</time></trkpt><trkpt lat="44.754797089259576" lon="9.696021139579601"><ele>708.2</ele><time>2026-03-28T14:54:16.999Z</time></trkpt><trkpt lat="44.75483688081589" lon="9.696150120460146"><ele>709.4000000000001</ele><time>2026-03-28T14:54:17.999Z</time></trkpt><trkpt lat="44.75490248425192" lon="9.69625585779639"><ele>710.5999999999999</ele><time>2026-03-28T14:54:18.999Z</time></trkpt><trkpt lat="44.75498655315932" lon="9.696337332119475"><ele>711.8</ele><time>2026-03-28T14:54:19.999Z</time></trkpt><trkpt lat="44.7550788871884" lon="9.696403511692912"><ele>713.0</ele><time>2026-03-28T14:54:20.999Z</time></trkpt><trkpt lat="44.75517381288949" lon="9.696468264089372"><ele>710.0</ele><time>2026-03-28T14:54:21.999Z</time></trkpt><trkpt lat="44.75526324881949" lon="9.696545382550033"><ele>707.0</ele><time>2026-03-28T14:54:22.999Z</time></trkpt><trkpt lat="44.755345810286386" lon="9.696638087701812"><ele>704.0</ele><time>2026-03-28T14:54:23.999Z</time></trkpt><trkpt lat="44.75541844892895" lon="9.696745641693067"><ele>701.0</ele><time>2026-03-28T14:54:24.999Z</time></trkpt><trkpt lat="44.75548553834747" lon="9.696870246583277"><ele>698.0</ele><time>2026-03-28T14:54:25.999Z</time></trkpt><trkpt lat="44.75553177375463" lon="9.697013176596425"><ele>698.0</ele><time>2026-03-28T14:54:26.999Z</time></trkpt><trkpt lat="44.755569717349175" lon="9.697161484789866"><ele>698.0</ele><time>2026-03-28T14:54:27.999Z</time></trkpt><trkpt lat="44.7556066396979" lon="9.697308536533505"><ele>698.0</ele><time>2026-03-28T14:54:28.999Z</time></trkpt><trkpt lat="44.75564706559731" lon="9.697455787589824"><ele>698.0</ele><time>2026-03-28T14:54:29.999Z</time></trkpt><trkpt lat="44.75570116594543" lon="9.697595679771204"><ele>698.0</ele><time>2026-03-28T14:54:30.999Z</time></trkpt><trkpt lat="44.755766186457365" lon="9.697722877284505"><ele>698.8</ele><time>2026-03-28T14:54:31.999Z</time></trkpt><trkpt lat="44.75583548218746" lon="9.697847974926837"><ele>699.5999999999999</ele><time>2026-03-28T14:54:32.999Z</time></trkpt><trkpt lat="44.75591467717939" lon="9.697956252082841"><ele>700.4000000000001</ele><time>2026-03-28T14:54:33.999Z</time></trkpt><trkpt lat="44.75600245329143" lon="9.69802999732657"><ele>701.2</ele><time>2026-03-28T14:54:34.999Z</time></trkpt><trkpt lat="44.75610421534772" lon="9.698067749539465"><ele>702.0</ele><time>2026-03-28T14:54:35.999Z</time></trkpt><trkpt lat="44.75620921685693" lon="9.698079218221913"><ele>700.4000000000001</ele><time>2026-03-28T14:54:36.999Z</time></trkpt><trkpt lat="44.75631498239693" lon="9.69806039662228"><ele>698.8000000000001</ele><time>2026-03-28T14:54:37.999Z</time></trkpt><trkpt lat="44.75640847048919" lon="9.69799901235116"><ele>697.2</ele><time>2026-03-28T14:54:38.999Z</time></trkpt><trkpt lat="44.756499565955785" lon="9.697944371744416"><ele>695.6</ele><time>2026-03-28T14:54:39.999Z</time></trkpt><trkpt lat="44.756591601636124" lon="9.697907584192725"><ele>694.0</ele><time>2026-03-28T14:54:40.999Z</time></trkpt><trkpt lat="44.756670144808396" lon="9.697857724131204"><ele>694.0</ele><time>2026-03-28T14:54:41.999Z</time></trkpt><trkpt lat="44.75675086280649" lon="9.697877638686156"><ele>694.0</ele><time>2026-03-28T14:54:42.999Z</time></trkpt><trkpt lat="44.75682127011784" lon="9.69793750651919"><ele>694.0</ele><time>2026-03-28T14:54:43.999Z</time></trkpt><trkpt lat="44.75686251758575" lon="9.698046768194011"><ele>694.0</ele><time>2026-03-28T14:54:44.999Z</time></trkpt><trkpt lat="44.756885736469314" lon="9.698164149204601"><ele>694.0</ele><time>2026-03-28T14:54:45.999Z</time></trkpt><trkpt lat="44.75690213483061" lon="9.698286363840822"><ele>694.0</ele><time>2026-03-28T14:54:46.999Z</time></trkpt><trkpt lat="44.756914943546164" lon="9.698418633911128"><ele>691.4000000000001</ele><time>2026-03-28T14:54:47.999Z</time></trkpt><trkpt lat="44.756937753256516" lon="9.698548981165128"><ele>688.8</ele><time>2026-03-28T14:54:48.999Z</time></trkpt><trkpt lat="44.756971973353345" lon="9.698676814901193"><ele>686.2</ele><time>2026-03-28T14:54:49.999Z</time></trkpt><trkpt lat="44.75700835629008" lon="9.698803837879192"><ele>683.5999999999999</ele><time>2026-03-28T14:54:50.999Z</time></trkpt><trkpt lat="44.75705551855904" lon="9.698928204751063"><ele>681.0</ele><time>2026-03-28T14:54:51.998Z</time></trkpt><trkpt lat="44.75709610131987" lon="9.699056432313911"><ele>681.0</ele><time>2026-03-28T14:54:52.998Z</time></trkpt><trkpt lat="44.75714581947444" lon="9.69917855172024"><ele>681.0</ele><time>2026-03-28T14:54:53.998Z</time></trkpt><trkpt lat="44.75719493063146" lon="9.699300619896526"><ele>681.0</ele><time>2026-03-28T14:54:54.998Z</time></trkpt><trkpt lat="44.75723399090525" lon="9.69942881363641"><ele>681.0</ele><time>2026-03-28T14:54:55.998Z</time></trkpt><trkpt lat="44.75726419864358" lon="9.699563189623111"><ele>681.0</ele><time>2026-03-28T14:54:56.998Z</time></trkpt><trkpt lat="44.75728434877739" lon="9.699693131756137"><ele>681.8333333333334</ele><time>2026-03-28T14:54:57.998Z</time></trkpt><trkpt lat="44.7573094596339" lon="9.699812591043075"><ele>682.6666666666666</ele><time>2026-03-28T14:54:58.998Z</time></trkpt><trkpt lat="44.757348341336" lon="9.699921500080471"><ele>683.5</ele><time>2026-03-28T14:54:59.998Z</time></trkpt><trkpt lat="44.75741880068161" lon="9.699979214410982"><ele>684.3333333333333</ele><time>2026-03-28T14:55:00.998Z</time></trkpt><trkpt lat="44.75750354927825" lon="9.699977020239771"><ele>685.1666666666666</ele><time>2026-03-28T14:55:01.998Z</time></trkpt><trkpt lat="44.75757949618971" lon="9.699920765521854"><ele>686.0</ele><time>2026-03-28T14:55:02.998Z</time></trkpt><trkpt lat="44.75764259537308" lon="9.699844623218421"><ele>684.5</ele><time>2026-03-28T14:55:03.998Z</time></trkpt><trkpt lat="44.75771097290141" lon="9.699778314196875"><ele>683.0</ele><time>2026-03-28T14:55:04.998Z</time></trkpt><trkpt lat="44.757772935758815" lon="9.699694131517935"><ele>681.5</ele><time>2026-03-28T14:55:05.998Z</time></trkpt><trkpt lat="44.75783247114056" lon="9.69960519521156"><ele>680.0</ele><time>2026-03-28T14:55:06.998Z</time></trkpt><trkpt lat="44.75790604202553" lon="9.699536762960369"><ele>678.5</ele><time>2026-03-28T14:55:07.998Z</time></trkpt><trkpt lat="44.75798578345473" lon="9.699507562598399"><ele>677.0</ele><time>2026-03-28T14:55:08.998Z</time></trkpt><trkpt lat="44.75806602804792" lon="9.699588534163972"><ele>677.0</ele><time>2026-03-28T14:55:09.998Z</time></trkpt><trkpt lat="44.75811917898958" lon="9.699683134576544"><ele>677.0</ele><time>2026-03-28T14:55:10.998Z</time></trkpt><trkpt lat="44.758152540947755" lon="9.69979784800271"><ele>677.0</ele><time>2026-03-28T14:55:11.998Z</time></trkpt><trkpt lat="44.75818227568657" lon="9.699914024253927"><ele>677.0</ele><time>2026-03-28T14:55:12.998Z</time></trkpt><trkpt lat="44.75821760627626" lon="9.700027097153047"><ele>677.0</ele><time>2026-03-28T14:55:13.998Z</time></trkpt><trkpt lat="44.75825380170397" lon="9.700140686961586"><ele>677.0</ele><time>2026-03-28T14:55:14.998Z</time></trkpt><trkpt lat="44.758287306908436" lon="9.700256390607073"><ele>677.3333333333333</ele><time>2026-03-28T14:55:15.998Z</time></trkpt><trkpt lat="44.75831841366521" lon="9.700373326274942"><ele>677.6666666666666</ele><time>2026-03-28T14:55:16.998Z</time></trkpt><trkpt lat="44.75835878264024" lon="9.70048558289588"><ele>678.0</ele><time>2026-03-28T14:55:17.998Z</time></trkpt><trkpt lat="44.75839900295767" lon="9.700598903455418"><ele>678.3333333333334</ele><time>2026-03-28T14:55:18.998Z</time></trkpt><trkpt lat="44.75843781372986" lon="9.700711621733483"><ele>678.6666666666667</ele><time>2026-03-28T14:55:19.998Z</time></trkpt><trkpt lat="44.75847564917824" lon="9.700822564401165"><ele>679.0</ele><time>2026-03-28T14:55:20.998Z</time></trkpt><trkpt lat="44.758514513079625" lon="9.700935247451177"><ele>678.2</ele><time>2026-03-28T14:55:21.998Z</time></trkpt><trkpt lat="44.75855555130813" lon="9.701047086603712"><ele>677.4000000000001</ele><time>2026-03-28T14:55:22.998Z</time></trkpt><trkpt lat="44.75859779385591" lon="9.701160959597587"><ele>676.6</ele><time>2026-03-28T14:55:23.998Z</time></trkpt><trkpt lat="44.75864107855128" lon="9.7012747509378"><ele>675.8</ele><time>2026-03-28T14:55:24.998Z</time></trkpt><trkpt lat="44.758687985120055" lon="9.701386450631102"><ele>675.0</ele><time>2026-03-28T14:55:25.998Z</time></trkpt><trkpt lat="44.758745807435716" lon="9.701486985627554"><ele>675.0</ele><time>2026-03-28T14:55:26.998Z</time></trkpt><trkpt lat="44.75881595060467" lon="9.70157060618968"><ele>675.0</ele><time>2026-03-28T14:55:27.998Z</time></trkpt><trkpt lat="44.75889506691628" lon="9.701639170366148"><ele>675.0</ele><time>2026-03-28T14:55:28.998Z</time></trkpt><trkpt lat="44.758980068720376" lon="9.701693962924207"><ele>675.0</ele><time>2026-03-28T14:55:29.998Z</time></trkpt><trkpt lat="44.7590672954571" lon="9.701739662042286"><ele>675.0</ele><time>2026-03-28T14:55:30.998Z</time></trkpt><trkpt lat="44.75915547563175" lon="9.701775421687339"><ele>675.0</ele><time>2026-03-28T14:55:31.998Z</time></trkpt><trkpt lat="44.7592450331491" lon="9.701803334805103"><ele>675.0</ele><time>2026-03-28T14:55:32.998Z</time></trkpt><trkpt lat="44.759340083262416" lon="9.701815418230845"><ele>675.0</ele><time>2026-03-28T14:55:33.998Z</time></trkpt><trkpt lat="44.75943353242126" lon="9.701813463325482"><ele>675.0</ele><time>2026-03-28T14:55:34.998Z</time></trkpt><trkpt lat="44.759527161857925" lon="9.701799703152943"><ele>675.0</ele><time>2026-03-28T14:55:35.998Z</time></trkpt><trkpt lat="44.75961880082006" lon="9.701766850453803"><ele>675.0</ele><time>2026-03-28T14:55:36.998Z</time></trkpt><trkpt lat="44.75970951692511" lon="9.701725602127038"><ele>675.0</ele><time>2026-03-28T14:55:37.998Z</time></trkpt><trkpt lat="44.75979868324235" lon="9.701682511340904"><ele>675.0</ele><time>2026-03-28T14:55:38.998Z</time></trkpt><trkpt lat="44.7598833716494" lon="9.701613085095676"><ele>675.0</ele><time>2026-03-28T14:55:39.998Z</time></trkpt><trkpt lat="44.759981428334214" lon="9.701591064460919"><ele>675.0</ele><time>2026-03-28T14:55:40.998Z</time></trkpt><trkpt lat="44.76007107453602" lon="9.701548207966793"><ele>675.0</ele><time>2026-03-28T14:55:41.998Z</time></trkpt><trkpt lat="44.76016216605814" lon="9.701506586437842"><ele>675.0</ele><time>2026-03-28T14:55:42.998Z</time></trkpt><trkpt lat="44.76025037562603" lon="9.701459950912923"><ele>675.0</ele><time>2026-03-28T14:55:43.998Z</time></trkpt><trkpt lat="44.76033733935069" lon="9.701412489223786"><ele>675.0</ele><time>2026-03-28T14:55:44.997Z</time></trkpt><trkpt lat="44.760414525521206" lon="9.701335747116701"><ele>675.0</ele><time>2026-03-28T14:55:45.997Z</time></trkpt><trkpt lat="44.76050233758152" lon="9.701291456838135"><ele>675.2</ele><time>2026-03-28T14:55:46.997Z</time></trkpt><trkpt lat="44.760591162219605" lon="9.701245181165657"><ele>675.4</ele><time>2026-03-28T14:55:48Z</time></trkpt><trkpt lat="44.76067879028037" lon="9.701199178938774"><ele>675.5999999999999</ele><time>2026-03-28T14:55:49Z</time></trkpt><trkpt lat="44.760765810610756" lon="9.701155939177376"><ele>675.8</ele><time>2026-03-28T14:55:50Z</time></trkpt><trkpt lat="44.760851386937965" lon="9.701117527865613"><ele>676.0</ele><time>2026-03-28T14:55:51Z</time></trkpt><trkpt lat="44.76094195502987" lon="9.701094324674502"><ele>675.0</ele><time>2026-03-28T14:55:52Z</time></trkpt><trkpt lat="44.761036975198074" lon="9.701101870665514"><ele>674.0</ele><time>2026-03-28T14:55:53Z</time></trkpt><trkpt lat="44.761123281632536" lon="9.701159030369071"><ele>673.0</ele><time>2026-03-28T14:55:54Z</time></trkpt><trkpt lat="44.76120893307605" lon="9.701185804084897"><ele>672.0</ele><time>2026-03-28T14:55:55Z</time></trkpt><trkpt lat="44.76128089789171" lon="9.701270343578333"><ele>671.0</ele><time>2026-03-28T14:55:56Z</time></trkpt><trkpt lat="44.761349095219195" lon="9.70133538512012"><ele>671.0</ele><time>2026-03-28T14:55:57Z</time></trkpt><trkpt lat="44.761416766197925" lon="9.701401599590715"><ele>671.0</ele><time>2026-03-28T14:55:58Z</time></trkpt><trkpt lat="44.761482959860665" lon="9.701465127458762"><ele>671.0</ele><time>2026-03-28T14:55:59Z</time></trkpt><trkpt lat="44.76154778522345" lon="9.701531154500337"><ele>671.0</ele><time>2026-03-28T14:56:00Z</time></trkpt><trkpt lat="44.76161760635354" lon="9.70159206639676"><ele>671.0</ele><time>2026-03-28T14:56:01Z</time></trkpt><trkpt lat="44.76169713238809" lon="9.701626796417965"><ele>671.0</ele><time>2026-03-28T14:56:02Z</time></trkpt><trkpt lat="44.76176562284018" lon="9.701700154194562"><ele>671.0</ele><time>2026-03-28T14:56:02.999Z</time></trkpt><trkpt lat="44.7618470802615" lon="9.70172710630643"><ele>671.0</ele><time>2026-03-28T14:56:03.999Z</time></trkpt><trkpt lat="44.76193456255411" lon="9.70173666792367"><ele>671.0</ele><time>2026-03-28T14:56:04.999Z</time></trkpt><trkpt lat="44.762024201611304" lon="9.701727398167506"><ele>671.0</ele><time>2026-03-28T14:56:05.999Z</time></trkpt><trkpt lat="44.76211106305971" lon="9.701695446801088"><ele>671.0</ele><time>2026-03-28T14:56:06.999Z</time></trkpt><trkpt lat="44.76218734761922" lon="9.701616968191686"><ele>671.0</ele><time>2026-03-28T14:56:07.999Z</time></trkpt><trkpt lat="44.76227726932334" lon="9.701624567048926"><ele>669.4</ele><time>2026-03-28T14:56:08.999Z</time></trkpt><trkpt lat="44.76236889354176" lon="9.701628667219627"><ele>667.8</ele><time>2026-03-28T14:56:09.999Z</time></trkpt><trkpt lat="44.76245857130055" lon="9.701657823753992"><ele>666.1999999999999</ele><time>2026-03-28T14:56:10.999Z</time></trkpt><trkpt lat="44.762548072263826" lon="9.701717178451904"><ele>664.5999999999999</ele><time>2026-03-28T14:56:11.999Z</time></trkpt><trkpt lat="44.76262718302015" lon="9.701796963077266"><ele>663.0</ele><time>2026-03-28T14:56:12.999Z</time></trkpt><trkpt lat="44.76270694765614" lon="9.70188205612328"><ele>661.2</ele><time>2026-03-28T14:56:13.999Z</time></trkpt><trkpt lat="44.762783652163684" lon="9.701964828028453"><ele>659.4</ele><time>2026-03-28T14:56:14.999Z</time></trkpt><trkpt lat="44.76285601227989" lon="9.702047566883712"><ele>657.6</ele><time>2026-03-28T14:56:15.999Z</time></trkpt><trkpt lat="44.76292471932992" lon="9.702134092283409"><ele>655.8000000000001</ele><time>2026-03-28T14:56:16.999Z</time></trkpt><trkpt lat="44.76299006680077" lon="9.70222396616943"><ele>654.0</ele><time>2026-03-28T14:56:17.999Z</time></trkpt><trkpt lat="44.76305408741194" lon="9.702319707950641"><ele>654.0</ele><time>2026-03-28T14:56:18.999Z</time></trkpt><trkpt lat="44.76310850930182" lon="9.7024241725334"><ele>654.0</ele><time>2026-03-28T14:56:19.999Z</time></trkpt><trkpt lat="44.76315383509994" lon="9.702543225055233"><ele>654.0</ele><time>2026-03-28T14:56:20.999Z</time></trkpt><trkpt lat="44.76319591267247" lon="9.70266725688352"><ele>654.0</ele><time>2026-03-28T14:56:21.999Z</time></trkpt><trkpt lat="44.76323603361546" lon="9.702788364724176"><ele>654.0</ele><time>2026-03-28T14:56:22.999Z</time></trkpt><trkpt lat="44.76326019857041" lon="9.702912837629688"><ele>655.0</ele><time>2026-03-28T14:56:23.999Z</time></trkpt><trkpt lat="44.76330802227875" lon="9.703021583521618"><ele>656.0</ele><time>2026-03-28T14:56:24.999Z</time></trkpt><trkpt lat="44.763340889805285" lon="9.703140243116511"><ele>657.0</ele><time>2026-03-28T14:56:25.999Z</time></trkpt><trkpt lat="44.7633773743748" lon="9.703260482894732"><ele>658.0</ele><time>2026-03-28T14:56:26.999Z</time></trkpt><trkpt lat="44.76341525999439" lon="9.703379019505782"><ele>659.0</ele><time>2026-03-28T14:56:27.999Z</time></trkpt><trkpt lat="44.76345034255954" lon="9.703501801321448"><ele>658.0</ele><time>2026-03-28T14:56:28.999Z</time></trkpt><trkpt lat="44.76348716499289" lon="9.703625948572403"><ele>657.0</ele><time>2026-03-28T14:56:29.999Z</time></trkpt><trkpt lat="44.76352519248935" lon="9.703751747657192"><ele>656.0</ele><time>2026-03-28T14:56:30.999Z</time></trkpt><trkpt lat="44.76356292945545" lon="9.703876412728764"><ele>655.0</ele><time>2026-03-28T14:56:31.999Z</time></trkpt><trkpt lat="44.76362329073719" lon="9.703988240206131"><ele>654.0</ele><time>2026-03-28T14:56:32.999Z</time></trkpt><trkpt lat="44.763691777898636" lon="9.704088130954036"><ele>654.0</ele><time>2026-03-28T14:56:33.999Z</time></trkpt><trkpt lat="44.76377528115827" lon="9.704161827542684"><ele>654.0</ele><time>2026-03-28T14:56:34.999Z</time></trkpt><trkpt lat="44.76386431036799" lon="9.704208926535708"><ele>654.0</ele><time>2026-03-28T14:56:35.999Z</time></trkpt><trkpt lat="44.76396138194164" lon="9.704236276317319"><ele>654.0</ele><time>2026-03-28T14:56:36.999Z</time></trkpt><trkpt lat="44.7640543515339" lon="9.704259975491974"><ele>654.0</ele><time>2026-03-28T14:56:37.999Z</time></trkpt><trkpt lat="44.764147349144274" lon="9.704288981726455"><ele>654.0</ele><time>2026-03-28T14:56:38.999Z</time></trkpt><trkpt lat="44.764240577981155" lon="9.704329363802438"><ele>654.0</ele><time>2026-03-28T14:56:39.999Z</time></trkpt><trkpt lat="44.76433259275991" lon="9.704378158851615"><ele>654.0</ele><time>2026-03-28T14:56:40.999Z</time></trkpt><trkpt lat="44.76442288139195" lon="9.704437536899643"><ele>654.0</ele><time>2026-03-28T14:56:41.999Z</time></trkpt><trkpt lat="44.764513927692306" lon="9.70450307001359"><ele>654.0</ele><time>2026-03-28T14:56:42.999Z</time></trkpt><trkpt lat="44.76460730783077" lon="9.704566679468655"><ele>654.4000000000001</ele><time>2026-03-28T14:56:43.999Z</time></trkpt><trkpt lat="44.76470233242816" lon="9.704632476210497"><ele>654.8</ele><time>2026-03-28T14:56:44.999Z</time></trkpt><trkpt lat="44.76479738040948" lon="9.704696011307615"><ele>655.2</ele><time>2026-03-28T14:56:45.999Z</time></trkpt><trkpt lat="44.76489229667771" lon="9.704759865807945"><ele>655.5999999999999</ele><time>2026-03-28T14:56:46.999Z</time></trkpt><trkpt lat="44.7649884952977" lon="9.704823021671135"><ele>656.0</ele><time>2026-03-28T14:56:47.999Z</time></trkpt><trkpt lat="44.765084088433156" lon="9.704887896145157"><ele>656.0</ele><time>2026-03-28T14:56:48.999Z</time></trkpt><trkpt lat="44.76517936820786" lon="9.70495506606268"><ele>656.0</ele><time>2026-03-28T14:56:49.999Z</time></trkpt><trkpt lat="44.76527598642134" lon="9.705020510783614"><ele>656.0</ele><time>2026-03-28T14:56:50.999Z</time></trkpt><trkpt lat="44.765372872703466" lon="9.705083712354817"><ele>656.0</ele><time>2026-03-28T14:56:51.999Z</time></trkpt><trkpt lat="44.76546765184677" lon="9.705147222322308"><ele>656.0</ele><time>2026-03-28T14:56:52.999Z</time></trkpt><trkpt lat="44.76556983380634" lon="9.705199727957554"><ele>657.8</ele><time>2026-03-28T14:56:53.999Z</time></trkpt><trkpt lat="44.76567303067115" lon="9.705234775647732"><ele>659.5999999999999</ele><time>2026-03-28T14:56:54.998Z</time></trkpt><trkpt lat="44.76578381523031" lon="9.705250710434639"><ele>661.4</ele><time>2026-03-28T14:56:55.998Z</time></trkpt><trkpt lat="44.76589317734548" lon="9.705254157217787"><ele>663.2</ele><time>2026-03-28T14:56:56.998Z</time></trkpt><trkpt lat="44.76600176015642" lon="9.705269498612369"><ele>665.0</ele><time>2026-03-28T14:56:57.998Z</time></trkpt><trkpt lat="44.76610899473357" lon="9.705305623349158"><ele>659.0</ele><time>2026-03-28T14:56:58.998Z</time></trkpt><trkpt lat="44.7662128591923" lon="9.705373035223143"><ele>653.0</ele><time>2026-03-28T14:56:59.998Z</time></trkpt><trkpt lat="44.76630421144012" lon="9.70546637684556"><ele>647.0</ele><time>2026-03-28T14:57:00.998Z</time></trkpt><trkpt lat="44.766391094423156" lon="9.705571405142171"><ele>641.0</ele><time>2026-03-28T14:57:01.998Z</time></trkpt><trkpt lat="44.76648481156604" lon="9.70566649512715"><ele>641.0</ele><time>2026-03-28T14:57:02.998Z</time></trkpt><trkpt lat="44.766578076138025" lon="9.705761529571227"><ele>641.0</ele><time>2026-03-28T14:57:03.998Z</time></trkpt><trkpt lat="44.76667483578025" lon="9.705851870841302"><ele>641.0</ele><time>2026-03-28T14:57:04.998Z</time></trkpt><trkpt lat="44.76677482531321" lon="9.70593311375838"><ele>641.0</ele><time>2026-03-28T14:57:05.998Z</time></trkpt><trkpt lat="44.766876464006316" lon="9.706007738497378"><ele>639.25</ele><time>2026-03-28T14:57:06.998Z</time></trkpt><trkpt lat="44.76697893355141" lon="9.70608217750382"><ele>637.5</ele><time>2026-03-28T14:57:07.998Z</time></trkpt><trkpt lat="44.76708073762472" lon="9.70615615314136"><ele>635.75</ele><time>2026-03-28T14:57:08.998Z</time></trkpt><trkpt lat="44.767177785530386" lon="9.706242002443265"><ele>634.0</ele><time>2026-03-28T14:57:09.998Z</time></trkpt><trkpt lat="44.76726587680337" lon="9.706343901484544"><ele>634.0</ele><time>2026-03-28T14:57:10.998Z</time></trkpt><trkpt lat="44.76734693645273" lon="9.706457044990035"><ele>634.0</ele><time>2026-03-28T14:57:11.998Z</time></trkpt><trkpt lat="44.7674166355836" lon="9.706582201694806"><ele>634.0</ele><time>2026-03-28T14:57:12.998Z</time></trkpt><trkpt lat="44.76748538939488" lon="9.706709332031549"><ele>634.0</ele><time>2026-03-28T14:57:13.998Z</time></trkpt><trkpt lat="44.767552907887456" lon="9.706836302017134"><ele>636.0</ele><time>2026-03-28T14:57:14.998Z</time></trkpt><trkpt lat="44.7676194149566" lon="9.706961508869869"><ele>638.0</ele><time>2026-03-28T14:57:15.998Z</time></trkpt><trkpt lat="44.76768786506684" lon="9.707085869554938"><ele>640.0</ele><time>2026-03-28T14:57:16.998Z</time></trkpt><trkpt lat="44.767754254453614" lon="9.707209398265507"><ele>642.0</ele><time>2026-03-28T14:57:17.998Z</time></trkpt><trkpt lat="44.76782363106863" lon="9.707333116841246"><ele>644.0</ele><time>2026-03-28T14:57:18.998Z</time></trkpt><trkpt lat="44.767891174405506" lon="9.707459459761338"><ele>641.75</ele><time>2026-03-28T14:57:19.998Z</time></trkpt><trkpt lat="44.767963868632435" lon="9.707578302590113"><ele>639.5</ele><time>2026-03-28T14:57:20.998Z</time></trkpt><trkpt lat="44.768048742168865" lon="9.707681180713438"><ele>637.25</ele><time>2026-03-28T14:57:21.998Z</time></trkpt><trkpt lat="44.768140043604866" lon="9.707774266611148"><ele>635.0</ele><time>2026-03-28T14:57:22.998Z</time></trkpt><trkpt lat="44.768233525634535" lon="9.70786614280476"><ele>635.0</ele><time>2026-03-28T14:57:23.998Z</time></trkpt><trkpt lat="44.768323481474575" lon="9.707961551858011"><ele>635.0</ele><time>2026-03-28T14:57:24.998Z</time></trkpt><trkpt lat="44.768415829069674" lon="9.708042179650246"><ele>635.0</ele><time>2026-03-28T14:57:25.998Z</time></trkpt><trkpt lat="44.7685207312584" lon="9.708093915334635"><ele>635.0</ele><time>2026-03-28T14:57:26.998Z</time></trkpt><trkpt lat="44.76863053963277" lon="9.708117064490578"><ele>635.0</ele><time>2026-03-28T14:57:27.998Z</time></trkpt><trkpt lat="44.768742169684906" lon="9.708104825749738"><ele>632.8</ele><time>2026-03-28T14:57:28.998Z</time></trkpt><trkpt lat="44.76884789522075" lon="9.708060671127674"><ele>630.6</ele><time>2026-03-28T14:57:29.998Z</time></trkpt><trkpt lat="44.7689493029429" lon="9.708007938481655"><ele>628.4</ele><time>2026-03-28T14:57:30.998Z</time></trkpt><trkpt lat="44.76904752528269" lon="9.707959294535376"><ele>626.2</ele><time>2026-03-28T14:57:31.998Z</time></trkpt><trkpt lat="44.76914583298152" lon="9.707911958782862"><ele>624.0</ele><time>2026-03-28T14:57:32.998Z</time></trkpt><trkpt lat="44.76924193949737" lon="9.707895837990536"><ele>624.0</ele><time>2026-03-28T14:57:33.998Z</time></trkpt><trkpt lat="44.76933947686618" lon="9.70791277219036"><ele>624.0</ele><time>2026-03-28T14:57:34.998Z</time></trkpt><trkpt lat="44.769427455261834" lon="9.707966951321989"><ele>624.0</ele><time>2026-03-28T14:57:35.998Z</time></trkpt><trkpt lat="44.76949585992718" lon="9.708060231632667"><ele>624.0</ele><time>2026-03-28T14:57:36.998Z</time></trkpt><trkpt lat="44.76951170565477" lon="9.708191409234802"><ele>624.0</ele><time>2026-03-28T14:57:37.998Z</time></trkpt><trkpt lat="44.769513928492266" lon="9.708309728906173"><ele>624.8333333333334</ele><time>2026-03-28T14:57:38.998Z</time></trkpt><trkpt lat="44.76946940701806" lon="9.708404405504536"><ele>625.6666666666666</ele><time>2026-03-28T14:57:39.998Z</time></trkpt><trkpt lat="44.76941503570128" lon="9.708494808521003"><ele>626.5</ele><time>2026-03-28T14:57:40.998Z</time></trkpt><trkpt lat="44.769355033066056" lon="9.708588141270688"><ele>627.3333333333333</ele><time>2026-03-28T14:57:41.998Z</time></trkpt><trkpt lat="44.769308418990114" lon="9.708706685151247"><ele>628.1666666666666</ele><time>2026-03-28T14:57:42.998Z</time></trkpt><trkpt lat="44.76926333850192" lon="9.70882044414908"><ele>629.0</ele><time>2026-03-28T14:57:43.998Z</time></trkpt><trkpt lat="44.76923618911783" lon="9.70895291483927"><ele>629.0</ele><time>2026-03-28T14:57:44.998Z</time></trkpt><trkpt lat="44.76924577765875" lon="9.709098974361153"><ele>629.0</ele><time>2026-03-28T14:57:45.998Z</time></trkpt><trkpt lat="44.76926256581203" lon="9.709238709222992"><ele>629.0</ele><time>2026-03-28T14:57:46.998Z</time></trkpt><trkpt lat="44.7692851049318" lon="9.709376657377142"><ele>629.0</ele><time>2026-03-28T14:57:47.997Z</time></trkpt><trkpt lat="44.769309694731746" lon="9.709515186801292"><ele>629.0</ele><time>2026-03-28T14:57:48.997Z</time></trkpt><trkpt lat="44.76935012498198" lon="9.709642903864816"><ele>625.2</ele><time>2026-03-28T14:57:49.997Z</time></trkpt><trkpt lat="44.769384353229114" lon="9.709773036854509"><ele>621.4</ele><time>2026-03-28T14:57:50.997Z</time></trkpt><trkpt lat="44.7694103357804" lon="9.709904746888752"><ele>617.6</ele><time>2026-03-28T14:57:51.997Z</time></trkpt><trkpt lat="44.76947287956964" lon="9.71001133806583"><ele>613.8</ele><time>2026-03-28T14:57:52.997Z</time></trkpt><trkpt lat="44.769528786818995" lon="9.710127885940912"><ele>610.0</ele><time>2026-03-28T14:57:53.999Z</time></trkpt><trkpt lat="44.769592368546796" lon="9.71022547112396"><ele>612.8</ele><time>2026-03-28T14:57:54.999Z</time></trkpt><trkpt lat="44.76966842691077" lon="9.710305559906136"><ele>615.6</ele><time>2026-03-28T14:57:55.999Z</time></trkpt><trkpt lat="44.769749948683945" lon="9.71037103615201"><ele>618.4</ele><time>2026-03-28T14:57:56.999Z</time></trkpt><trkpt lat="44.769839454690505" lon="9.710415955434776"><ele>621.2</ele><time>2026-03-28T14:57:57.999Z</time></trkpt><trkpt lat="44.76993397211654" lon="9.710433946835265"><ele>624.0</ele><time>2026-03-28T14:57:58.999Z</time></trkpt><trkpt lat="44.77002931318791" lon="9.71042431525246"><ele>624.0</ele><time>2026-03-28T14:57:59.999Z</time></trkpt><trkpt lat="44.77012531888137" lon="9.710414573298939"><ele>624.0</ele><time>2026-03-28T14:58:00.999Z</time></trkpt><trkpt lat="44.770224129261436" lon="9.710408739543174"><ele>624.0</ele><time>2026-03-28T14:58:01.999Z</time></trkpt><trkpt lat="44.77032229018146" lon="9.710404475053354"><ele>624.0</ele><time>2026-03-28T14:58:02.999Z</time></trkpt><trkpt lat="44.77042109351802" lon="9.71039860191513"><ele>624.0</ele><time>2026-03-28T14:58:03.999Z</time></trkpt><trkpt lat="44.77052107803532" lon="9.710391028020888"><ele>623.8</ele><time>2026-03-28T14:58:04.999Z</time></trkpt><trkpt lat="44.77061983103142" lon="9.710386727682783"><ele>623.5999999999999</ele><time>2026-03-28T14:58:05.999Z</time></trkpt><trkpt lat="44.770720043992426" lon="9.710382259437862"><ele>623.4</ele><time>2026-03-28T14:58:06.999Z</time></trkpt><trkpt lat="44.77082204408204" lon="9.710374899769374"><ele>623.1999999999999</ele><time>2026-03-28T14:58:07.999Z</time></trkpt><trkpt lat="44.770926017089586" lon="9.710367763869476"><ele>623.0</ele><time>2026-03-28T14:58:08.999Z</time></trkpt><trkpt lat="44.771032276179746" lon="9.710348214397634"><ele>623.0</ele><time>2026-03-28T14:58:09.999Z</time></trkpt><trkpt lat="44.77113887274303" lon="9.710336416933576"><ele>623.0</ele><time>2026-03-28T14:58:10.999Z</time></trkpt><trkpt lat="44.771244207281896" lon="9.71032386420376"><ele>623.0</ele><time>2026-03-28T14:58:11.999Z</time></trkpt><trkpt lat="44.771343695360706" lon="9.710276117074443"><ele>623.0</ele><time>2026-03-28T14:58:12.999Z</time></trkpt><trkpt lat="44.77143141329511" lon="9.710200118794512"><ele>623.0</ele><time>2026-03-28T14:58:14Z</time></trkpt><trkpt lat="44.77151154489723" lon="9.710111010540237"><ele>619.8</ele><time>2026-03-28T14:58:15Z</time></trkpt><trkpt lat="44.771589531520824" lon="9.710021689084838"><ele>616.5999999999999</ele><time>2026-03-28T14:58:16Z</time></trkpt><trkpt lat="44.7716756706855" lon="9.709940947479069"><ele>613.4000000000001</ele><time>2026-03-28T14:58:17Z</time></trkpt><trkpt lat="44.77177007503562" lon="9.709882666964612"><ele>610.2</ele><time>2026-03-28T14:58:18Z</time></trkpt><trkpt lat="44.77187405476513" lon="9.709870270934557"><ele>607.0</ele><time>2026-03-28T14:58:19Z</time></trkpt><trkpt lat="44.771976396299536" lon="9.709896266105467"><ele>607.0</ele><time>2026-03-28T14:58:20Z</time></trkpt><trkpt lat="44.772076656249745" lon="9.709920110798825"><ele>607.0</ele><time>2026-03-28T14:58:21Z</time></trkpt><trkpt lat="44.77217693864466" lon="9.70991176960463"><ele>607.0</ele><time>2026-03-28T14:58:22Z</time></trkpt><trkpt lat="44.77227659302706" lon="9.709913283931195"><ele>607.0</ele><time>2026-03-28T14:58:23Z</time></trkpt><trkpt lat="44.77237040012496" lon="9.709850811994436"><ele>607.0</ele><time>2026-03-28T14:58:24Z</time></trkpt><trkpt lat="44.772455025659696" lon="9.709768984436534"><ele>607.0</ele><time>2026-03-28T14:58:25Z</time></trkpt><trkpt lat="44.77253286970054" lon="9.709678867952226"><ele>607.0</ele><time>2026-03-28T14:58:26Z</time></trkpt><trkpt lat="44.772611287981576" lon="9.709594429096972"><ele>607.0</ele><time>2026-03-28T14:58:27Z</time></trkpt><trkpt lat="44.77269407436664" lon="9.709517168051342"><ele>607.0</ele><time>2026-03-28T14:58:28Z</time></trkpt><trkpt lat="44.772783610878875" lon="9.709455167450955"><ele>607.0</ele><time>2026-03-28T14:58:29Z</time></trkpt><trkpt lat="44.77287859074904" lon="9.709395325600017"><ele>605.8000000000001</ele><time>2026-03-28T14:58:30Z</time></trkpt><trkpt lat="44.77298802719149" lon="9.70941488109264"><ele>604.6</ele><time>2026-03-28T14:58:31Z</time></trkpt><trkpt lat="44.773094271098294" lon="9.70941884182235"><ele>603.4000000000001</ele><time>2026-03-28T14:58:32Z</time></trkpt><trkpt lat="44.77320093686249" lon="9.70942769695584"><ele>602.2</ele><time>2026-03-28T14:58:33Z</time></trkpt><trkpt lat="44.77330941663999" lon="9.709410392369358"><ele>601.0</ele><time>2026-03-28T14:58:34Z</time></trkpt><trkpt lat="44.773421358517204" lon="9.709416198214013"><ele>598.6</ele><time>2026-03-28T14:58:35Z</time></trkpt><trkpt lat="44.773531387700984" lon="9.709445275047665"><ele>596.2</ele><time>2026-03-28T14:58:36Z</time></trkpt><trkpt lat="44.77364137395566" lon="9.709456079711652"><ele>593.8</ele><time>2026-03-28T14:58:37Z</time></trkpt><trkpt lat="44.7737519181828" lon="9.7094739370306"><ele>591.4</ele><time>2026-03-28T14:58:38Z</time></trkpt><trkpt lat="44.77386002179555" lon="9.709509606636935"><ele>589.0</ele><time>2026-03-28T14:58:39Z</time></trkpt><trkpt lat="44.77396669783117" lon="9.709561915816163"><ele>589.0</ele><time>2026-03-28T14:58:40Z</time></trkpt><trkpt lat="44.77406987573375" lon="9.709626198079459"><ele>589.0</ele><time>2026-03-28T14:58:41Z</time></trkpt><trkpt lat="44.77416831921645" lon="9.709704478846483"><ele>589.0</ele><time>2026-03-28T14:58:42Z</time></trkpt><trkpt lat="44.77425657134917" lon="9.709804082418676"><ele>589.0</ele><time>2026-03-28T14:58:43Z</time></trkpt><trkpt lat="44.77433871244491" lon="9.709914717934655"><ele>588.75</ele><time>2026-03-28T14:58:44Z</time></trkpt><trkpt lat="44.77441986226056" lon="9.71002977316981"><ele>588.5</ele><time>2026-03-28T14:58:45Z</time></trkpt><trkpt lat="44.77450544986705" lon="9.710138359502547"><ele>588.25</ele><time>2026-03-28T14:58:46Z</time></trkpt><trkpt lat="44.7745979030352" lon="9.710232048903524"><ele>588.0</ele><time>2026-03-28T14:58:47Z</time></trkpt><trkpt lat="44.77470163117373" lon="9.710304560521143"><ele>588.0</ele><time>2026-03-28T14:58:48Z</time></trkpt><trkpt lat="44.7748131293401" lon="9.710346726695013"><ele>588.0</ele><time>2026-03-28T14:58:49Z</time></trkpt><trkpt lat="44.77492956111132" lon="9.710353402245953"><ele>588.0</ele><time>2026-03-28T14:58:50Z</time></trkpt><trkpt lat="44.77503581837955" lon="9.710291992690856"><ele>588.0</ele><time>2026-03-28T14:58:51Z</time></trkpt><trkpt lat="44.77513347939383" lon="9.71021598245249"><ele>586.5</ele><time>2026-03-28T14:58:52Z</time></trkpt><trkpt lat="44.77522749833015" lon="9.710133611074678"><ele>585.0</ele><time>2026-03-28T14:58:53Z</time></trkpt><trkpt lat="44.77533009582727" lon="9.710064903660795"><ele>583.5</ele><time>2026-03-28T14:58:54Z</time></trkpt><trkpt lat="44.77542454022071" lon="9.709977420480252"><ele>582.0</ele><time>2026-03-28T14:58:55Z</time></trkpt><trkpt lat="44.77552191785285" lon="9.70989677859626"><ele>582.0</ele><time>2026-03-28T14:58:56Z</time></trkpt><trkpt lat="44.77560907660371" lon="9.709795592910677"><ele>582.0</ele><time>2026-03-28T14:58:57Z</time></trkpt><trkpt lat="44.77571070041042" lon="9.709729657074622"><ele>582.0</ele><time>2026-03-28T14:58:58Z</time></trkpt><trkpt lat="44.77580135926633" lon="9.709641043841636"><ele>582.0</ele><time>2026-03-28T14:58:59Z</time></trkpt><trkpt lat="44.775892290557636" lon="9.709551870602867"><ele>582.0</ele><time>2026-03-28T14:58:59.999Z</time></trkpt><trkpt lat="44.77600462244897" lon="9.709514749022478"><ele>581.0</ele><time>2026-03-28T14:59:00.999Z</time></trkpt><trkpt lat="44.77611474434513" lon="9.709493422987459"><ele>580.0</ele><time>2026-03-28T14:59:01.999Z</time></trkpt><trkpt lat="44.77622613441354" lon="9.709499454027995"><ele>579.0</ele><time>2026-03-28T14:59:02.999Z</time></trkpt><trkpt lat="44.77633428374801" lon="9.709528232153318"><ele>578.0</ele><time>2026-03-28T14:59:03.999Z</time></trkpt><trkpt lat="44.77643334022273" lon="9.709590133206852"><ele>577.0</ele><time>2026-03-28T14:59:04.999Z</time></trkpt><trkpt lat="44.776524353986936" lon="9.709669838307637"><ele>577.0</ele><time>2026-03-28T14:59:05.999Z</time></trkpt><trkpt lat="44.776612808826975" lon="9.709754894752301"><ele>577.0</ele><time>2026-03-28T14:59:06.999Z</time></trkpt><trkpt lat="44.77670099877403" lon="9.7098413839261"><ele>577.0</ele><time>2026-03-28T14:59:07.999Z</time></trkpt><trkpt lat="44.77679017157321" lon="9.709927650099477"><ele>577.0</ele><time>2026-03-28T14:59:08.999Z</time></trkpt><trkpt lat="44.77687619856742" lon="9.710018120408197"><ele>577.0</ele><time>2026-03-28T14:59:09.999Z</time></trkpt><trkpt lat="44.77695070080457" lon="9.710126030190342"><ele>574.6</ele><time>2026-03-28T14:59:10.999Z</time></trkpt><trkpt lat="44.77700978597477" lon="9.710252999936115"><ele>572.2</ele><time>2026-03-28T14:59:11.999Z</time></trkpt><trkpt lat="44.77703693271272" lon="9.710399012023762"><ele>569.8</ele><time>2026-03-28T14:59:12.999Z</time></trkpt><trkpt lat="44.7770541770383" lon="9.710544220323172"><ele>567.4</ele><time>2026-03-28T14:59:13.999Z</time></trkpt><trkpt lat="44.77706438828023" lon="9.710690449422904"><ele>565.0</ele><time>2026-03-28T14:59:14.999Z</time></trkpt><trkpt lat="44.777073276128206" lon="9.710841888270092"><ele>565.0</ele><time>2026-03-28T14:59:15.999Z</time></trkpt><trkpt lat="44.77708241527535" lon="9.710997597535059"><ele>565.0</ele><time>2026-03-28T14:59:16.999Z</time></trkpt><trkpt lat="44.77709024446797" lon="9.711151214465158"><ele>565.0</ele><time>2026-03-28T14:59:17.999Z</time></trkpt><trkpt lat="44.77710187063881" lon="9.711307391525308"><ele>565.0</ele><time>2026-03-28T14:59:18.999Z</time></trkpt><trkpt lat="44.77712040280231" lon="9.71146246399794"><ele>565.0</ele><time>2026-03-28T14:59:19.999Z</time></trkpt><trkpt lat="44.77714734333229" lon="9.71161508391936"><ele>565.25</ele><time>2026-03-28T14:59:20.999Z</time></trkpt><trkpt lat="44.777200113941795" lon="9.711754834215196"><ele>565.5</ele><time>2026-03-28T14:59:21.999Z</time></trkpt><trkpt lat="44.77725659092807" lon="9.711893499452819"><ele>565.75</ele><time>2026-03-28T14:59:22.999Z</time></trkpt><trkpt lat="44.777338391425914" lon="9.712006154648774"><ele>566.0</ele><time>2026-03-28T14:59:23.999Z</time></trkpt><trkpt lat="44.77743252675773" lon="9.712095086557815"><ele>568.0</ele><time>2026-03-28T14:59:24.999Z</time></trkpt><trkpt lat="44.77753424747862" lon="9.712162872371787"><ele>570.0</ele><time>2026-03-28T14:59:25.999Z</time></trkpt><trkpt lat="44.77764089663634" lon="9.712214838898852"><ele>572.0</ele><time>2026-03-28T14:59:26.999Z</time></trkpt><trkpt lat="44.77775245700453" lon="9.71223109036494"><ele>574.0</ele><time>2026-03-28T14:59:27.999Z</time></trkpt><trkpt lat="44.77786267625752" lon="9.71220307294789"><ele>574.0</ele><time>2026-03-28T14:59:28.999Z</time></trkpt><trkpt lat="44.77797338656104" lon="9.71217459996728"><ele>574.0</ele><time>2026-03-28T14:59:29.999Z</time></trkpt><trkpt lat="44.778088556083674" lon="9.71215765714657"><ele>574.0</ele><time>2026-03-28T14:59:30.999Z</time></trkpt><trkpt lat="44.77820151347733" lon="9.712158763141524"><ele>574.0</ele><time>2026-03-28T14:59:31.999Z</time></trkpt><trkpt lat="44.77831118177345" lon="9.712182289140026"><ele>574.0</ele><time>2026-03-28T14:59:32.999Z</time></trkpt><trkpt lat="44.778421591732375" lon="9.712249253771262"><ele>574.0</ele><time>2026-03-28T14:59:33.999Z</time></trkpt><trkpt lat="44.778505842206854" lon="9.71233563213697"><ele>574.0</ele><time>2026-03-28T14:59:34.999Z</time></trkpt><trkpt lat="44.77859212087987" lon="9.7124329675342"><ele>574.0</ele><time>2026-03-28T14:59:35.999Z</time></trkpt><trkpt lat="44.77868112429072" lon="9.712528399858543"><ele>574.0</ele><time>2026-03-28T14:59:36.999Z</time></trkpt><trkpt lat="44.77876522793167" lon="9.712625921806742"><ele>571.0</ele><time>2026-03-28T14:59:37.999Z</time></trkpt><trkpt lat="44.77885337083723" lon="9.712726221836265"><ele>568.0</ele><time>2026-03-28T14:59:38.999Z</time></trkpt><trkpt lat="44.77893861220193" lon="9.712832892648697"><ele>565.0</ele><time>2026-03-28T14:59:39.999Z</time></trkpt><trkpt lat="44.779012682373036" lon="9.71295006898104"><ele>562.0</ele><time>2026-03-28T14:59:40.999Z</time></trkpt><trkpt lat="44.779058953342435" lon="9.713095869722304"><ele>562.0</ele><time>2026-03-28T14:59:41.999Z</time></trkpt><trkpt lat="44.77911272618886" lon="9.71323564179228"><ele>562.0</ele><time>2026-03-28T14:59:42.999Z</time></trkpt><trkpt lat="44.779174569495154" lon="9.713372073254083"><ele>562.0</ele><time>2026-03-28T14:59:43.999Z</time></trkpt><trkpt lat="44.77924846573822" lon="9.713497862306914"><ele>562.0</ele><time>2026-03-28T14:59:44.999Z</time></trkpt><trkpt lat="44.77934365619984" lon="9.713591368718847"><ele>557.0</ele><time>2026-03-28T14:59:45.999Z</time></trkpt><trkpt lat="44.7794356304601" lon="9.7136920244058"><ele>552.0</ele><time>2026-03-28T14:59:46.999Z</time></trkpt><trkpt lat="44.779525546715874" lon="9.71378952823428"><ele>547.0</ele><time>2026-03-28T14:59:47.999Z</time></trkpt><trkpt lat="44.779586483692356" lon="9.713923212290782"><ele>542.0</ele><time>2026-03-28T14:59:48.999Z</time></trkpt><trkpt lat="44.77963057612434" lon="9.714064907518027"><ele>542.0</ele><time>2026-03-28T14:59:49.999Z</time></trkpt><trkpt lat="44.77965222668039" lon="9.714217117788994"><ele>542.0</ele><time>2026-03-28T14:59:50.999Z</time></trkpt><trkpt lat="44.779675855574325" lon="9.714380828025211"><ele>542.0</ele><time>2026-03-28T14:59:51.999Z</time></trkpt><trkpt lat="44.77969699161529" lon="9.714542948455307"><ele>542.0</ele><time>2026-03-28T14:59:52.998Z</time></trkpt><trkpt lat="44.77971720212177" lon="9.714701569222115"><ele>542.25</ele><time>2026-03-28T14:59:53.998Z</time></trkpt><trkpt lat="44.77973744078441" lon="9.714860411879513"><ele>542.5</ele><time>2026-03-28T14:59:54.998Z</time></trkpt><trkpt lat="44.77975745274951" lon="9.715017474465926"><ele>542.75</ele><time>2026-03-28T14:59:55.998Z</time></trkpt><trkpt lat="44.77977753866627" lon="9.715175114652236"><ele>543.0</ele><time>2026-03-28T14:59:56.998Z</time></trkpt><trkpt lat="44.77979642206674" lon="9.7153313155366"><ele>543.1999999999999</ele><time>2026-03-28T14:59:57.998Z</time></trkpt><trkpt lat="44.779815442860084" lon="9.71548641966504"><ele>543.4</ele><time>2026-03-28T14:59:58.998Z</time></trkpt><trkpt lat="44.7798350149765" lon="9.715639474133024"><ele>543.5999999999999</ele><time>2026-03-28T15:00:00Z</time></trkpt><trkpt lat="44.77985455228398" lon="9.715789788042692"><ele>543.8</ele><time>2026-03-28T15:00:01Z</time></trkpt><trkpt lat="44.77987551846284" lon="9.71593901623802"><ele>544.0</ele><time>2026-03-28T15:00:02Z</time></trkpt><trkpt lat="44.77991767986818" lon="9.716078407363943"><ele>544.2</ele><time>2026-03-28T15:00:03Z</time></trkpt><trkpt lat="44.77993959732699" lon="9.716226642834574"><ele>544.4</ele><time>2026-03-28T15:00:04Z</time></trkpt><trkpt lat="44.77998638993003" lon="9.716361814544614"><ele>544.6</ele><time>2026-03-28T15:00:05Z</time></trkpt><trkpt lat="44.78005788959466" lon="9.71647969613021"><ele>544.8</ele><time>2026-03-28T15:00:06Z</time></trkpt><trkpt lat="44.78012236518884" lon="9.716599114359036"><ele>545.0</ele><time>2026-03-28T15:00:07Z</time></trkpt><trkpt lat="44.78018443012947" lon="9.716712379845834"><ele>543.4</ele><time>2026-03-28T15:00:08Z</time></trkpt><trkpt lat="44.780248773433364" lon="9.716821159464441"><ele>541.8</ele><time>2026-03-28T15:00:09Z</time></trkpt><trkpt lat="44.78031178428224" lon="9.716929851564519"><ele>540.2</ele><time>2026-03-28T15:00:10Z</time></trkpt><trkpt lat="44.780357666591485" lon="9.71705207933818"><ele>538.6</ele><time>2026-03-28T15:00:11Z</time></trkpt><trkpt lat="44.780392921421225" lon="9.71717950239613"><ele>537.0</ele><time>2026-03-28T15:00:12Z</time></trkpt><trkpt lat="44.78038829855909" lon="9.71731208295946"><ele>537.0</ele><time>2026-03-28T15:00:13Z</time></trkpt><trkpt lat="44.780355007764975" lon="9.717425877288719"><ele>537.0</ele><time>2026-03-28T15:00:14Z</time></trkpt><trkpt lat="44.78032251744043" lon="9.717543848786033"><ele>537.0</ele><time>2026-03-28T15:00:15Z</time></trkpt><trkpt lat="44.78028845157733" lon="9.717668932863221"><ele>537.0</ele><time>2026-03-28T15:00:16Z</time></trkpt><trkpt lat="44.78025620492429" lon="9.717800533313138"><ele>537.0</ele><time>2026-03-28T15:00:17Z</time></trkpt><trkpt lat="44.780229294768525" lon="9.717936802216292"><ele>535.6</ele><time>2026-03-28T15:00:18Z</time></trkpt><trkpt lat="44.78021876879997" lon="9.718084322148595"><ele>534.2</ele><time>2026-03-28T15:00:19Z</time></trkpt><trkpt lat="44.7802218616359" lon="9.718232668221498"><ele>532.8</ele><time>2026-03-28T15:00:20Z</time></trkpt><trkpt lat="44.7802433590388" lon="9.718377643560782"><ele>531.4</ele><time>2026-03-28T15:00:21Z</time></trkpt><trkpt lat="44.78026669850038" lon="9.718519646875032"><ele>530.0</ele><time>2026-03-28T15:00:22Z</time></trkpt><trkpt lat="44.780291884653515" lon="9.71865879835408"><ele>529.2</ele><time>2026-03-28T15:00:23Z</time></trkpt><trkpt lat="44.78031390848189" lon="9.718799348774843"><ele>528.4</ele><time>2026-03-28T15:00:24Z</time></trkpt><trkpt lat="44.78032206945881" lon="9.718937249508196"><ele>527.6</ele><time>2026-03-28T15:00:25Z</time></trkpt><trkpt lat="44.78031585210734" lon="9.719075890232064"><ele>526.8</ele><time>2026-03-28T15:00:26Z</time></trkpt><trkpt lat="44.78029737618017" lon="9.719215988516444"><ele>526.0</ele><time>2026-03-28T15:00:27Z</time></trkpt><trkpt lat="44.78026885900684" lon="9.719355080824613"><ele>525.6</ele><time>2026-03-28T15:00:28Z</time></trkpt><trkpt lat="44.78024275168064" lon="9.719497064398524"><ele>525.2</ele><time>2026-03-28T15:00:29Z</time></trkpt><trkpt lat="44.78021853256219" lon="9.719640981377516"><ele>524.8</ele><time>2026-03-28T15:00:30Z</time></trkpt><trkpt lat="44.78020700300279" lon="9.719790271901823"><ele>524.4</ele><time>2026-03-28T15:00:31Z</time></trkpt><trkpt lat="44.780237615405646" lon="9.719941116912743"><ele>524.0</ele><time>2026-03-28T15:00:32Z</time></trkpt><trkpt lat="44.780273254199535" lon="9.7200833556518"><ele>524.0</ele><time>2026-03-28T15:00:33Z</time></trkpt><trkpt lat="44.78032678263334" lon="9.720212007620557"><ele>524.0</ele><time>2026-03-28T15:00:34Z</time></trkpt><trkpt lat="44.780393832836104" lon="9.720335932983112"><ele>524.0</ele><time>2026-03-28T15:00:35Z</time></trkpt><trkpt lat="44.78042098170288" lon="9.720493020141818"><ele>524.0</ele><time>2026-03-28T15:00:36Z</time></trkpt><trkpt lat="44.780473825653765" lon="9.720637113941526"><ele>524.0</ele><time>2026-03-28T15:00:37Z</time></trkpt><trkpt lat="44.780502115230476" lon="9.720794408516824"><ele>524.0</ele><time>2026-03-28T15:00:38Z</time></trkpt><trkpt lat="44.78053330460369" lon="9.720950933631409"><ele>524.0</ele><time>2026-03-28T15:00:39Z</time></trkpt><trkpt lat="44.78057532632426" lon="9.72109856030709"><ele>524.0</ele><time>2026-03-28T15:00:40Z</time></trkpt><trkpt lat="44.780637183310475" lon="9.721224505055918"><ele>524.0</ele><time>2026-03-28T15:00:41Z</time></trkpt><trkpt lat="44.78071352384386" lon="9.721324378503546"><ele>524.0</ele><time>2026-03-28T15:00:42Z</time></trkpt><trkpt lat="44.780797994521016" lon="9.721403770605166"><ele>524.2</ele><time>2026-03-28T15:00:43Z</time></trkpt><trkpt lat="44.78088697252121" lon="9.72146807177986"><ele>524.4</ele><time>2026-03-28T15:00:44Z</time></trkpt><trkpt lat="44.780973742931415" lon="9.7215372603367"><ele>524.6</ele><time>2026-03-28T15:00:45Z</time></trkpt><trkpt lat="44.7810419532285" lon="9.721637558344053"><ele>524.8</ele><time>2026-03-28T15:00:46Z</time></trkpt><trkpt lat="44.78112009369588" lon="9.721723297486555"><ele>525.0</ele><time>2026-03-28T15:00:47Z</time></trkpt><trkpt lat="44.78118346327629" lon="9.721825800781671"><ele>523.6</ele><time>2026-03-28T15:00:48Z</time></trkpt><trkpt lat="44.78123940509421" lon="9.721940954738175"><ele>522.2</ele><time>2026-03-28T15:00:49Z</time></trkpt><trkpt lat="44.78130761224972" lon="9.722053254069841"><ele>520.8</ele><time>2026-03-28T15:00:50Z</time></trkpt><trkpt lat="44.78135166454297" lon="9.722190232152247"><ele>519.4</ele><time>2026-03-28T15:00:51Z</time></trkpt><trkpt lat="44.781420903499004" lon="9.72230779140077"><ele>518.0</ele><time>2026-03-28T15:00:52Z</time></trkpt><trkpt lat="44.781473880679926" lon="9.722439677919668"><ele>518.0</ele><time>2026-03-28T15:00:53Z</time></trkpt><trkpt lat="44.781524754932406" lon="9.722572593062294"><ele>518.0</ele><time>2026-03-28T15:00:54Z</time></trkpt><trkpt lat="44.78156668041711" lon="9.722716062870166"><ele>518.0</ele><time>2026-03-28T15:00:55Z</time></trkpt><trkpt lat="44.7815836589112" lon="9.722874607482256"><ele>518.0</ele><time>2026-03-28T15:00:56Z</time></trkpt><trkpt lat="44.781629966390554" lon="9.723020066744718"><ele>518.0</ele><time>2026-03-28T15:00:57Z</time></trkpt><trkpt lat="44.78167053422883" lon="9.723165765954986"><ele>517.6</ele><time>2026-03-28T15:00:58Z</time></trkpt><trkpt lat="44.78172953946483" lon="9.723301398829541"><ele>517.1999999999999</ele><time>2026-03-28T15:00:59Z</time></trkpt><trkpt lat="44.78180901132351" lon="9.723411555953648"><ele>516.8</ele><time>2026-03-28T15:01:00Z</time></trkpt><trkpt lat="44.78190080311334" lon="9.723491016635956"><ele>516.4</ele><time>2026-03-28T15:01:01Z</time></trkpt><trkpt lat="44.78200513503848" lon="9.723546800794361"><ele>516.0</ele><time>2026-03-28T15:01:02Z</time></trkpt><trkpt lat="44.78211337026213" lon="9.723578305666983"><ele>516.0</ele><time>2026-03-28T15:01:03Z</time></trkpt><trkpt lat="44.78222265382239" lon="9.723609543488255"><ele>516.0</ele><time>2026-03-28T15:01:03.999Z</time></trkpt><trkpt lat="44.78232971287355" lon="9.723653222624034"><ele>516.0</ele><time>2026-03-28T15:01:04.999Z</time></trkpt><trkpt lat="44.78243401536781" lon="9.723707796343104"><ele>516.0</ele><time>2026-03-28T15:01:05.999Z</time></trkpt><trkpt lat="44.78253532123437" lon="9.723772050404257"><ele>516.0</ele><time>2026-03-28T15:01:06.999Z</time></trkpt><trkpt lat="44.78263317882151" lon="9.723843128317696"><ele>514.5</ele><time>2026-03-28T15:01:07.999Z</time></trkpt><trkpt lat="44.78273175982021" lon="9.723919464608482"><ele>513.0</ele><time>2026-03-28T15:01:08.999Z</time></trkpt><trkpt lat="44.78283032951302" lon="9.723998601512644"><ele>511.5</ele><time>2026-03-28T15:01:09.999Z</time></trkpt><trkpt lat="44.782923612310704" lon="9.724091931568603"><ele>510.0</ele><time>2026-03-28T15:01:10.999Z</time></trkpt><trkpt lat="44.78300207337468" lon="9.724213595503219"><ele>510.0</ele><time>2026-03-28T15:01:11.999Z</time></trkpt><trkpt lat="44.78304075670152" lon="9.724365864872778"><ele>510.0</ele><time>2026-03-28T15:01:12.999Z</time></trkpt><trkpt lat="44.78306393052822" lon="9.724518097752146"><ele>510.0</ele><time>2026-03-28T15:01:13.999Z</time></trkpt><trkpt lat="44.783070832651" lon="9.724677179976709"><ele>510.0</ele><time>2026-03-28T15:01:14.999Z</time></trkpt><trkpt lat="44.78307479397866" lon="9.724842235439564"><ele>510.25</ele><time>2026-03-28T15:01:15.999Z</time></trkpt><trkpt lat="44.783076757730676" lon="9.725008891502409"><ele>510.5</ele><time>2026-03-28T15:01:16.999Z</time></trkpt><trkpt lat="44.783077281003166" lon="9.725177330728611"><ele>510.75</ele><time>2026-03-28T15:01:17.999Z</time></trkpt><trkpt lat="44.78307780281102" lon="9.725345298344697"><ele>511.0</ele><time>2026-03-28T15:01:18.999Z</time></trkpt><trkpt lat="44.783078327640155" lon="9.725514238562226"><ele>509.0</ele><time>2026-03-28T15:01:19.999Z</time></trkpt><trkpt lat="44.78307895641427" lon="9.725683883974334"><ele>507.0</ele><time>2026-03-28T15:01:20.999Z</time></trkpt><trkpt lat="44.783079595726" lon="9.725854917400234"><ele>505.0</ele><time>2026-03-28T15:01:21.999Z</time></trkpt><trkpt lat="44.78308024535231" lon="9.726028709904853"><ele>503.0</ele><time>2026-03-28T15:01:22.999Z</time></trkpt><trkpt lat="44.78307972318934" lon="9.726202461485434"><ele>500.5</ele><time>2026-03-28T15:01:23.999Z</time></trkpt><trkpt lat="44.78307873583004" lon="9.726376110505397"><ele>498.0</ele><time>2026-03-28T15:01:24.999Z</time></trkpt><trkpt lat="44.783076746612096" lon="9.726550899925028"><ele>495.5</ele><time>2026-03-28T15:01:25.999Z</time></trkpt><trkpt lat="44.783074960953044" lon="9.726725167830548"><ele>493.0</ele><time>2026-03-28T15:01:26.999Z</time></trkpt><trkpt lat="44.78307346691023" lon="9.726900095224279"><ele>492.25</ele><time>2026-03-28T15:01:27.999Z</time></trkpt><trkpt lat="44.78307198023203" lon="9.727074160069296"><ele>491.5</ele><time>2026-03-28T15:01:28.999Z</time></trkpt><trkpt lat="44.783070283516" lon="9.727247249699028"><ele>490.75</ele><time>2026-03-28T15:01:29.999Z</time></trkpt><trkpt lat="44.78306753843634" lon="9.727420102913554"><ele>490.0</ele><time>2026-03-28T15:01:30.999Z</time></trkpt><trkpt lat="44.78306482948666" lon="9.727590681406639"><ele>489.25</ele><time>2026-03-28T15:01:31.999Z</time></trkpt><trkpt lat="44.783062134552694" lon="9.727760377089743"><ele>488.5</ele><time>2026-03-28T15:01:32.999Z</time></trkpt><trkpt lat="44.78305927102464" lon="9.727929245591884"><ele>487.75</ele><time>2026-03-28T15:01:33.999Z</time></trkpt><trkpt lat="44.78303931581781" lon="9.72808449905805"><ele>487.0</ele><time>2026-03-28T15:01:34.999Z</time></trkpt><trkpt lat="44.782997616909746" lon="9.728230157387388"><ele>487.0</ele><time>2026-03-28T15:01:35.999Z</time></trkpt><trkpt lat="44.78293269386633" lon="9.728349227417823"><ele>487.00000000000006</ele><time>2026-03-28T15:01:36.999Z</time></trkpt><trkpt lat="44.78285251295469" lon="9.728447565488572"><ele>487.00000000000006</ele><time>2026-03-28T15:01:37.999Z</time></trkpt><trkpt lat="44.78276437849566" lon="9.728549502603203"><ele>487.0</ele><time>2026-03-28T15:01:38.999Z</time></trkpt><trkpt lat="44.78267538009084" lon="9.72864884394926"><ele>487.0</ele><time>2026-03-28T15:01:39.999Z</time></trkpt><trkpt lat="44.782585929838035" lon="9.728743291897512"><ele>487.40000000000003</ele><time>2026-03-28T15:01:40.999Z</time></trkpt><trkpt lat="44.782495405716915" lon="9.728836382969646"><ele>487.80000000000007</ele><time>2026-03-28T15:01:41.999Z</time></trkpt><trkpt lat="44.78240618399387" lon="9.728928991605942"><ele>488.2</ele><time>2026-03-28T15:01:42.999Z</time></trkpt><trkpt lat="44.782321333986886" lon="9.729026168936612"><ele>488.6</ele><time>2026-03-28T15:01:43.999Z</time></trkpt><trkpt lat="44.78224730573828" lon="9.729146808320506"><ele>489.0</ele><time>2026-03-28T15:01:44.999Z</time></trkpt><trkpt lat="44.78220229262118" lon="9.729287229171288"><ele>488.6</ele><time>2026-03-28T15:01:45.999Z</time></trkpt><trkpt lat="44.782186904230365" lon="9.72943288241463"><ele>488.2</ele><time>2026-03-28T15:01:46.999Z</time></trkpt><trkpt lat="44.78220539656303" lon="9.729580074880353"><ele>487.80000000000007</ele><time>2026-03-28T15:01:47.999Z</time></trkpt><trkpt lat="44.782266837133704" lon="9.72969902056728"><ele>487.40000000000003</ele><time>2026-03-28T15:01:48.999Z</time></trkpt><trkpt lat="44.78232240097502" lon="9.729811637531428"><ele>487.0</ele><time>2026-03-28T15:01:49.999Z</time></trkpt><trkpt lat="44.78238737725523" lon="9.729920432745141"><ele>487.0</ele><time>2026-03-28T15:01:50.999Z</time></trkpt><trkpt lat="44.78245603514034" lon="9.730029300455195"><ele>487.00000000000006</ele><time>2026-03-28T15:01:51.999Z</time></trkpt><trkpt lat="44.7825319828299" lon="9.730135476827805"><ele>487.00000000000006</ele><time>2026-03-28T15:01:52.999Z</time></trkpt><trkpt lat="44.78261247636616" lon="9.730236053031703"><ele>487.0</ele><time>2026-03-28T15:01:53.999Z</time></trkpt><trkpt lat="44.78269377610937" lon="9.730337198863216"><ele>487.0</ele><time>2026-03-28T15:01:54.999Z</time></trkpt><trkpt lat="44.782771407367164" lon="9.730443138381967"><ele>485.40000000000003</ele><time>2026-03-28T15:01:55.999Z</time></trkpt><trkpt lat="44.782848394122986" lon="9.730549053958427"><ele>483.80000000000007</ele><time>2026-03-28T15:01:56.998Z</time></trkpt><trkpt lat="44.78292424475771" lon="9.730658852930768"><ele>482.2</ele><time>2026-03-28T15:01:57.998Z</time></trkpt><trkpt lat="44.78299219963988" lon="9.730781920567933"><ele>480.6</ele><time>2026-03-28T15:01:58.998Z</time></trkpt><trkpt lat="44.78304485045953" lon="9.730917610757405"><ele>479.0</ele><time>2026-03-28T15:01:59.998Z</time></trkpt><trkpt lat="44.783089240274286" lon="9.73106127080829"><ele>479.0</ele><time>2026-03-28T15:02:00.998Z</time></trkpt><trkpt lat="44.78311875837918" lon="9.731213063200284"><ele>479.0</ele><time>2026-03-28T15:02:01.998Z</time></trkpt><trkpt lat="44.783131255981715" lon="9.731369518131665"><ele>479.0</ele><time>2026-03-28T15:02:02.998Z</time></trkpt><trkpt lat="44.78318277992832" lon="9.731505619215868"><ele>479.0</ele><time>2026-03-28T15:02:03.998Z</time></trkpt><trkpt lat="44.78323338946597" lon="9.731634755524913"><ele>479.0</ele><time>2026-03-28T15:02:04.998Z</time></trkpt><trkpt lat="44.78330296602537" lon="9.731748134791365"><ele>479.0</ele><time>2026-03-28T15:02:06Z</time></trkpt><trkpt lat="44.783383525446396" lon="9.73184903677136"><ele>479.0</ele><time>2026-03-28T15:02:07Z</time></trkpt><trkpt lat="44.78345722481166" lon="9.731957409817479"><ele>479.0</ele><time>2026-03-28T15:02:08Z</time></trkpt><trkpt lat="44.78353035983794" lon="9.732057411142259"><ele>479.0</ele><time>2026-03-28T15:02:09Z</time></trkpt><trkpt lat="44.783606551693424" lon="9.732137295094077"><ele>479.0</ele><time>2026-03-28T15:02:10Z</time></trkpt><trkpt lat="44.78367991708177" lon="9.73219586173334"><ele>477.2</ele><time>2026-03-28T15:02:11Z</time></trkpt><trkpt lat="44.78374503883839" lon="9.73222839404595"><ele>475.4</ele><time>2026-03-28T15:02:12Z</time></trkpt><trkpt lat="44.78385589139884" lon="9.73224240429917"><ele>473.6</ele><time>2026-03-28T15:02:14Z</time></trkpt><trkpt lat="44.783971333827004" lon="9.732258599665661"><ele>471.8</ele><time>2026-03-28T15:02:16Z</time></trkpt><trkpt lat="44.7840968819928" lon="9.732280627298376"><ele>470.0</ele><time>2026-03-28T15:02:18Z</time></trkpt><trkpt lat="44.78416083274682" lon="9.732299833448625"><ele>469.99999999999994</ele><time>2026-03-28T15:02:19Z</time></trkpt><trkpt lat="44.784226910585836" lon="9.732322793589214"><ele>470.0</ele><time>2026-03-28T15:02:20Z</time></trkpt><trkpt lat="44.784297522580175" lon="9.732353229711908"><ele>470.0</ele><time>2026-03-28T15:02:21Z</time></trkpt><trkpt lat="44.784367754699865" lon="9.732393374657669"><ele>470.0</ele><time>2026-03-28T15:02:22Z</time></trkpt><trkpt lat="44.7844355354843" lon="9.732452541612725"><ele>469.99999999999994</ele><time>2026-03-28T15:02:23Z</time></trkpt><trkpt lat="44.78450411106592" lon="9.732520622016873"><ele>470.0</ele><time>2026-03-28T15:02:24Z</time></trkpt><trkpt lat="44.78457346142528" lon="9.732596595482859"><ele>467.8</ele><time>2026-03-28T15:02:25Z</time></trkpt><trkpt lat="44.78463837873047" lon="9.732688457775106"><ele>465.6</ele><time>2026-03-28T15:02:26Z</time></trkpt><trkpt lat="44.78469509294039" lon="9.732791457421055"><ele>463.4</ele><time>2026-03-28T15:02:27Z</time></trkpt><trkpt lat="44.7847202706087" lon="9.732918198243327"><ele>461.2</ele><time>2026-03-28T15:02:28Z</time></trkpt><trkpt lat="44.78473204256098" lon="9.733045623791922"><ele>459.0</ele><time>2026-03-28T15:02:29Z</time></trkpt><trkpt lat="44.7847287652738" lon="9.733176163318957"><ele>458.79999999999995</ele><time>2026-03-28T15:02:30Z</time></trkpt><trkpt lat="44.78471358752925" lon="9.733311951585"><ele>458.59999999999997</ele><time>2026-03-28T15:02:31Z</time></trkpt><trkpt lat="44.78469698869293" lon="9.733449852177484"><ele>458.4</ele><time>2026-03-28T15:02:32Z</time></trkpt><trkpt lat="44.78467812103197" lon="9.733591280523664"><ele>458.2</ele><time>2026-03-28T15:02:33Z</time></trkpt><trkpt lat="44.784657609016975" lon="9.733731974537557"><ele>458.0</ele><time>2026-03-28T15:02:34Z</time></trkpt><trkpt lat="44.78463301549567" lon="9.733872881880243"><ele>457.2</ele><time>2026-03-28T15:02:35Z</time></trkpt><trkpt lat="44.78460231923993" lon="9.734011068597626"><ele>456.4</ele><time>2026-03-28T15:02:36Z</time></trkpt><trkpt lat="44.78455988830197" lon="9.734139958357453"><ele>455.59999999999997</ele><time>2026-03-28T15:02:37Z</time></trkpt><trkpt lat="44.78450849625454" lon="9.734270145028646"><ele>454.79999999999995</ele><time>2026-03-28T15:02:38Z</time></trkpt><trkpt lat="44.78445756586886" lon="9.734407333037229"><ele>454.0</ele><time>2026-03-28T15:02:39Z</time></trkpt><trkpt lat="44.78441362723771" lon="9.734552312050509"><ele>452.25</ele><time>2026-03-28T15:02:40Z</time></trkpt><trkpt lat="44.78439088507773" lon="9.73471105902243"><ele>450.5</ele><time>2026-03-28T15:02:41Z</time></trkpt><trkpt lat="44.78439566674149" lon="9.734874584371832"><ele>448.75</ele><time>2026-03-28T15:02:42Z</time></trkpt><trkpt lat="44.7844153956378" lon="9.735029897488522"><ele>447.0</ele><time>2026-03-28T15:02:43Z</time></trkpt><trkpt lat="44.78443352378913" lon="9.735178945553699"><ele>446.8</ele><time>2026-03-28T15:02:44Z</time></trkpt><trkpt lat="44.78444889838714" lon="9.735328349911729"><ele>446.6</ele><time>2026-03-28T15:02:45Z</time></trkpt><trkpt lat="44.78445467800591" lon="9.735477386412919"><ele>446.40000000000003</ele><time>2026-03-28T15:02:46Z</time></trkpt><trkpt lat="44.78443598922755" lon="9.735623001294366"><ele>446.20000000000005</ele><time>2026-03-28T15:02:47Z</time></trkpt><trkpt lat="44.784413164339675" lon="9.73577774729425"><ele>446.0</ele><time>2026-03-28T15:02:48Z</time></trkpt><trkpt lat="44.78438753757181" lon="9.735927703694854"><ele>446.0</ele><time>2026-03-28T15:02:49Z</time></trkpt><trkpt lat="44.784358252163976" lon="9.736081298962068"><ele>446.0</ele><time>2026-03-28T15:02:50Z</time></trkpt><trkpt lat="44.78434996087665" lon="9.736227912107308"><ele>446.0</ele><time>2026-03-28T15:02:51Z</time></trkpt><trkpt lat="44.78431531367516" lon="9.736361371834086"><ele>446.0</ele><time>2026-03-28T15:02:52Z</time></trkpt><trkpt lat="44.78434082565876" lon="9.736504310787323"><ele>446.0</ele><time>2026-03-28T15:02:53Z</time></trkpt><trkpt lat="44.78436859059326" lon="9.73663831638857"><ele>446.0</ele><time>2026-03-28T15:02:54Z</time></trkpt><trkpt lat="44.78441838066751" lon="9.736758019029974"><ele>446.0</ele><time>2026-03-28T15:02:55Z</time></trkpt><trkpt lat="44.78448323645488" lon="9.73686054394562"><ele>446.0</ele><time>2026-03-28T15:02:56Z</time></trkpt><trkpt lat="44.78456365136845" lon="9.73693650409369"><ele>446.0</ele><time>2026-03-28T15:02:57Z</time></trkpt><trkpt lat="44.784646061220776" lon="9.737000999928265"><ele>446.0</ele><time>2026-03-28T15:02:58Z</time></trkpt><trkpt lat="44.784733929633354" lon="9.737029572521397"><ele>447.20000000000005</ele><time>2026-03-28T15:02:59Z</time></trkpt><trkpt lat="44.78481313146701" lon="9.737033440656486"><ele>448.40000000000003</ele><time>2026-03-28T15:03:00Z</time></trkpt><trkpt lat="44.78489175042975" lon="9.73721311561016"><ele>449.6</ele><time>2026-03-28T15:03:01Z</time></trkpt><trkpt lat="44.78493816843591" lon="9.737315151664063"><ele>450.8</ele><time>2026-03-28T15:03:02Z</time></trkpt><trkpt lat="44.78499618470269" lon="9.737403044528"><ele>452.0</ele><time>2026-03-28T15:03:03Z</time></trkpt><trkpt lat="44.78505524873988" lon="9.737483867441629"><ele>452.0</ele><time>2026-03-28T15:03:04Z</time></trkpt><trkpt lat="44.78511833935034" lon="9.7375472927764"><ele>452.0</ele><time>2026-03-28T15:03:05Z</time></trkpt><trkpt lat="44.785184592461874" lon="9.73759445409301"><ele>452.0</ele><time>2026-03-28T15:03:06Z</time></trkpt><trkpt lat="44.78524812719799" lon="9.737641567061189"><ele>452.0</ele><time>2026-03-28T15:03:07Z</time></trkpt><trkpt lat="44.785311474986074" lon="9.73768577044184"><ele>452.0</ele><time>2026-03-28T15:03:08Z</time></trkpt><trkpt lat="44.78537127757889" lon="9.737729935712418"><ele>452.0</ele><time>2026-03-28T15:03:08.999Z</time></trkpt><trkpt lat="44.78542822340794" lon="9.737771132173922"><ele>452.0</ele><time>2026-03-28T15:03:09.999Z</time></trkpt><trkpt lat="44.78552932139399" lon="9.737861351787497"><ele>451.8333333333333</ele><time>2026-03-28T15:03:11.999Z</time></trkpt><trkpt lat="44.785607159039415" lon="9.737960290277973"><ele>451.66666666666663</ele><time>2026-03-28T15:03:13.999Z</time></trkpt><trkpt lat="44.78565206368997" lon="9.738055715907127"><ele>451.5</ele><time>2026-03-28T15:03:15.999Z</time></trkpt><trkpt lat="44.78569065508451" lon="9.73815856074208"><ele>451.33333333333337</ele><time>2026-03-28T15:03:18.999Z</time></trkpt><trkpt lat="44.785722636940484" lon="9.738255528023789"><ele>451.1666666666667</ele><time>2026-03-28T15:03:21.999Z</time></trkpt><trkpt lat="44.78574356912039" lon="9.738359609773934"><ele>451.0</ele><time>2026-03-28T15:03:24.999Z</time></trkpt><trkpt lat="44.78576742991094" lon="9.73845488012896"><ele>451.71428571428567</ele><time>2026-03-28T15:03:27.999Z</time></trkpt><trkpt lat="44.78579276350328" lon="9.738558037737354"><ele>452.42857142857144</ele><time>2026-03-28T15:03:30.999Z</time></trkpt><trkpt lat="44.78581518578987" lon="9.7386535610674"><ele>453.1428571428571</ele><time>2026-03-28T15:03:33.999Z</time></trkpt><trkpt lat="44.7858375813788" lon="9.73873928626896"><ele>453.85714285714283</ele><time>2026-03-28T15:03:36.999Z</time></trkpt><trkpt lat="44.78585529655598" lon="9.738825704740472"><ele>454.57142857142856</ele><time>2026-03-28T15:03:39.999Z</time></trkpt><trkpt lat="44.785879553768" lon="9.738918156550335"><ele>455.2857142857143</ele><time>2026-03-28T15:03:42.999Z</time></trkpt><trkpt lat="44.78589626457942" lon="9.739028373440833"><ele>456.0</ele><time>2026-03-28T15:03:46.999Z</time></trkpt><trkpt lat="44.78591820585016" lon="9.739130858991558"><ele>456.0</ele><time>2026-03-28T15:03:49.999Z</time></trkpt><trkpt lat="44.78594802749739" lon="9.73923748245041"><ele>456.0</ele><time>2026-03-28T15:03:52.999Z</time></trkpt><trkpt lat="44.786001118045434" lon="9.739333658830674"><ele>456.0</ele><time>2026-03-28T15:03:55.999Z</time></trkpt><trkpt lat="44.786063148454396" lon="9.739412727133503"><ele>456.0</ele><time>2026-03-28T15:03:58.999Z</time></trkpt><trkpt lat="44.786142001798936" lon="9.739487061856488"><ele>456.0</ele><time>2026-03-28T15:04:01.998Z</time></trkpt><trkpt lat="44.78619815510095" lon="9.739535566030527"><ele>456.0</ele><time>2026-03-28T15:04:03.998Z</time></trkpt><trkpt lat="44.786254959214475" lon="9.739579402764976"><ele>455.8333333333333</ele><time>2026-03-28T15:04:05.998Z</time></trkpt><trkpt lat="44.78633261027384" lon="9.739671736081972"><ele>455.66666666666663</ele><time>2026-03-28T15:04:09.998Z</time></trkpt><trkpt lat="44.786386392555634" lon="9.739740827745875"><ele>455.5</ele><time>2026-03-28T15:04:13Z</time></trkpt><trkpt lat="44.78643922135305" lon="9.739835935814824"><ele>455.3333333333333</ele><time>2026-03-28T15:04:16Z</time></trkpt><trkpt lat="44.78646573106065" lon="9.739941949996425"><ele>455.16666666666663</ele><time>2026-03-28T15:04:19Z</time></trkpt><trkpt lat="44.786449754167556" lon="9.740046375419372"><ele>455.0</ele><time>2026-03-28T15:04:22Z</time></trkpt><trkpt lat="44.78644422515671" lon="9.740159548404158"><ele>455.49999999999994</ele><time>2026-03-28T15:04:25Z</time></trkpt><trkpt lat="44.78644781067522" lon="9.74025406583182"><ele>456.0</ele><time>2026-03-28T15:04:28Z</time></trkpt><trkpt lat="44.78643946802714" lon="9.740347180163084"><ele>456.5</ele><time>2026-03-28T15:04:30Z</time></trkpt><trkpt lat="44.7864535341476" lon="9.740484375643991"><ele>457.0</ele><time>2026-03-28T15:04:32Z</time></trkpt><trkpt lat="44.78645972014792" lon="9.74061114792613"><ele>457.49999999999994</ele><time>2026-03-28T15:04:34Z</time></trkpt><trkpt lat="44.786466844052754" lon="9.740734952581873"><ele>458.0</ele><time>2026-03-28T15:04:36Z</time></trkpt><trkpt lat="44.786456886609464" lon="9.740825903676058"><ele>457.99999999999994</ele><time>2026-03-28T15:04:38Z</time></trkpt><trkpt lat="44.786476075734186" lon="9.740935433277999"><ele>458.0</ele><time>2026-03-28T15:04:39Z</time></trkpt><trkpt lat="44.7864748561378" lon="9.741039801138697"><ele>458.0</ele><time>2026-03-28T15:04:41Z</time></trkpt><trkpt lat="44.78648396945498" lon="9.741172568403293"><ele>458.0</ele><time>2026-03-28T15:04:44Z</time></trkpt><trkpt lat="44.78649433397392" lon="9.741295772784484"><ele>457.99999999999994</ele><time>2026-03-28T15:04:47Z</time></trkpt><trkpt lat="44.78652088546739" lon="9.741380350559849"><ele>458.0</ele><time>2026-03-28T15:05:17.999Z</time></trkpt><trkpt lat="44.786561166154485" lon="9.741469756661116"><ele>459.16666666666663</ele><time>2026-03-28T15:05:20.999Z</time></trkpt><trkpt lat="44.786604286611244" lon="9.741542596477036"><ele>460.3333333333333</ele><time>2026-03-28T15:05:22.999Z</time></trkpt><trkpt lat="44.78666803886972" lon="9.741620566504334"><ele>461.5</ele><time>2026-03-28T15:05:24.999Z</time></trkpt><trkpt lat="44.786744211701944" lon="9.74169591254782"><ele>462.66666666666663</ele><time>2026-03-28T15:05:26.999Z</time></trkpt><trkpt lat="44.786822995704995" lon="9.74175764274499"><ele>463.8333333333333</ele><time>2026-03-28T15:05:28.999Z</time></trkpt><trkpt lat="44.78689240132823" lon="9.741809467270524"><ele>465.0</ele><time>2026-03-28T15:05:30.999Z</time></trkpt><trkpt lat="44.78696640903866" lon="9.741844097934028"><ele>465.0</ele><time>2026-03-28T15:05:32.999Z</time></trkpt><trkpt lat="44.78703530106754" lon="9.741873437260065"><ele>465.0</ele><time>2026-03-28T15:05:34.999Z</time></trkpt><trkpt lat="44.78710385284481" lon="9.741908084889207"><ele>465.0</ele><time>2026-03-28T15:05:36.999Z</time></trkpt><trkpt lat="44.78717891395939" lon="9.741941680423118"><ele>465.0</ele><time>2026-03-28T15:05:38.999Z</time></trkpt><trkpt lat="44.787254280944566" lon="9.741981717696707"><ele>465.0</ele><time>2026-03-28T15:05:40.999Z</time></trkpt><trkpt lat="44.78732969620389" lon="9.742022585152329"><ele>465.0</ele><time>2026-03-28T15:05:42.999Z</time></trkpt><trkpt lat="44.78740338274474" lon="9.742078807963836"><ele>465.8333333333333</ele><time>2026-03-28T15:05:44.999Z</time></trkpt><trkpt lat="44.787456195182756" lon="9.742154097954288"><ele>466.66666666666663</ele><time>2026-03-28T15:05:46.999Z</time></trkpt><trkpt lat="44.78747460638826" lon="9.742250107789445"><ele>467.5</ele><time>2026-03-28T15:05:48.999Z</time></trkpt><trkpt lat="44.78745361597536" lon="9.74233826198287"><ele>468.3333333333333</ele><time>2026-03-28T15:05:50.999Z</time></trkpt><trkpt lat="44.787414781935105" lon="9.742451706304509"><ele>469.16666666666663</ele><time>2026-03-28T15:05:53.999Z</time></trkpt><trkpt lat="44.787370608606466" lon="9.742570471134943"><ele>470.0</ele><time>2026-03-28T15:05:56.999Z</time></trkpt><trkpt lat="44.78733276196139" lon="9.742686224941103"><ele>470.66666666666663</ele><time>2026-03-28T15:05:59.999Z</time></trkpt><trkpt lat="44.78729101655488" lon="9.742800586076594"><ele>471.3333333333333</ele><time>2026-03-28T15:06:02.999Z</time></trkpt><trkpt lat="44.787249188222184" lon="9.742918932759327"><ele>472.0</ele><time>2026-03-28T15:06:05.998Z</time></trkpt><trkpt lat="44.787210207082495" lon="9.743030816422841"><ele>472.66666666666663</ele><time>2026-03-28T15:06:08.998Z</time></trkpt><trkpt lat="44.78717430046517" lon="9.743128969528286"><ele>473.3333333333333</ele><time>2026-03-28T15:06:11.998Z</time></trkpt><trkpt lat="44.78714422025142" lon="9.743217585286105"><ele>474.0</ele><time>2026-03-28T15:06:14.998Z</time></trkpt><trkpt lat="44.787108438669826" lon="9.743313525542463"><ele>474.0</ele><time>2026-03-28T15:06:18Z</time></trkpt><trkpt lat="44.78707167073717" lon="9.74341702312887"><ele>474.0</ele><time>2026-03-28T15:06:21Z</time></trkpt><trkpt lat="44.787039031545675" lon="9.743523268590444"><ele>474.0</ele><time>2026-03-28T15:06:24Z</time></trkpt><trkpt lat="44.78700238774419" lon="9.74361671032211"><ele>474.0</ele><time>2026-03-28T15:06:26Z</time></trkpt><trkpt lat="44.78696608720871" lon="9.743719259817937"><ele>474.0</ele><time>2026-03-28T15:06:29Z</time></trkpt><trkpt lat="44.786933799789495" lon="9.743812679062838"><ele>474.0</ele><time>2026-03-28T15:06:32Z</time></trkpt><trkpt lat="44.78689889240041" lon="9.74390290332645"><ele>474.1428571428571</ele><time>2026-03-28T15:06:35Z</time></trkpt><trkpt lat="44.786863059767725" lon="9.743996328165952"><ele>474.2857142857143</ele><time>2026-03-28T15:06:38Z</time></trkpt><trkpt lat="44.78683503666593" lon="9.744087902667204"><ele>474.42857142857144</ele><time>2026-03-28T15:06:41Z</time></trkpt><trkpt lat="44.786805650432115" lon="9.74417238487363"><ele>474.57142857142856</ele><time>2026-03-28T15:06:44Z</time></trkpt><trkpt lat="44.786774203176144" lon="9.744261742369009"><ele>474.7142857142858</ele><time>2026-03-28T15:06:47Z</time></trkpt><trkpt lat="44.78674582083325" lon="9.74435348582797"><ele>474.8571428571429</ele><time>2026-03-28T15:06:50Z</time></trkpt><trkpt lat="44.78673406185907" lon="9.744455312535695"><ele>475.0</ele><time>2026-03-28T15:06:53Z</time></trkpt><trkpt lat="44.78674368092" lon="9.744561903313631"><ele>475.6666666666667</ele><time>2026-03-28T15:06:56Z</time></trkpt><trkpt lat="44.786766817128076" lon="9.74467333990363"><ele>476.33333333333337</ele><time>2026-03-28T15:06:59Z</time></trkpt><trkpt lat="44.786805962478454" lon="9.744803165753202"><ele>477.0</ele><time>2026-03-28T15:07:03Z</time></trkpt><trkpt lat="44.78683764330687" lon="9.744902841862105"><ele>477.66666666666663</ele><time>2026-03-28T15:07:05Z</time></trkpt><trkpt lat="44.786864693502174" lon="9.744989729775362"><ele>478.3333333333333</ele><time>2026-03-28T15:07:07Z</time></trkpt><trkpt lat="44.786889853395714" lon="9.745087044305377"><ele>479.0</ele><time>2026-03-28T15:07:09Z</time></trkpt><trkpt lat="44.786914748426156" lon="9.745180862127146"><ele>479.85714285714283</ele><time>2026-03-28T15:07:11Z</time></trkpt><trkpt lat="44.7869387234757" lon="9.745269708641983"><ele>480.7142857142858</ele><time>2026-03-28T15:07:13Z</time></trkpt><trkpt lat="44.78695999703811" lon="9.745364934177566"><ele>481.5714285714286</ele><time>2026-03-28T15:07:15Z</time></trkpt><trkpt lat="44.7869847236294" lon="9.745457272618413"><ele>482.42857142857144</ele><time>2026-03-28T15:07:16.999Z</time></trkpt><trkpt lat="44.78700461014775" lon="9.745555961388083"><ele>483.28571428571433</ele><time>2026-03-28T15:07:18.999Z</time></trkpt><trkpt lat="44.787030532796756" lon="9.745656447079405"><ele>484.1428571428572</ele><time>2026-03-28T15:07:20.999Z</time></trkpt><trkpt lat="44.78705424961529" lon="9.745758398488189"><ele>485.00000000000006</ele><time>2026-03-28T15:07:22.999Z</time></trkpt><trkpt lat="44.787083599611506" lon="9.745863608766399"><ele>484.99999999999994</ele><time>2026-03-28T15:07:24.999Z</time></trkpt><trkpt lat="44.7871241672756" lon="9.745957386593517"><ele>485.0</ele><time>2026-03-28T15:07:26.999Z</time></trkpt><trkpt lat="44.78716712468118" lon="9.746045108703708"><ele>485.0</ele><time>2026-03-28T15:07:28.999Z</time></trkpt><trkpt lat="44.78720596849582" lon="9.746139660913544"><ele>485.0</ele><time>2026-03-28T15:07:30.999Z</time></trkpt><trkpt lat="44.7872518697124" lon="9.746232694483396"><ele>484.99999999999994</ele><time>2026-03-28T15:07:32.999Z</time></trkpt><trkpt lat="44.78730013130106" lon="9.746320845378774"><ele>485.0</ele><time>2026-03-28T15:07:34.999Z</time></trkpt><trkpt lat="44.78734488088501" lon="9.746418251825443"><ele>486.16666666666663</ele><time>2026-03-28T15:07:36.999Z</time></trkpt><trkpt lat="44.78738216681289" lon="9.746514795434678"><ele>487.3333333333333</ele><time>2026-03-28T15:07:38.999Z</time></trkpt><trkpt lat="44.787409375903756" lon="9.746617994113912"><ele>488.5</ele><time>2026-03-28T15:07:40.999Z</time></trkpt><trkpt lat="44.78742358693865" lon="9.746729608883493"><ele>489.66666666666663</ele><time>2026-03-28T15:07:42.999Z</time></trkpt><trkpt lat="44.78742970556437" lon="9.746841940759666"><ele>490.8333333333333</ele><time>2026-03-28T15:07:44.999Z</time></trkpt><trkpt lat="44.78743981541822" lon="9.746954721194236"><ele>492.0</ele><time>2026-03-28T15:07:46.999Z</time></trkpt><trkpt lat="44.78747058817642" lon="9.747067752210551"><ele>490.6</ele><time>2026-03-28T15:07:48.999Z</time></trkpt><trkpt lat="44.78751219196759" lon="9.747171065268596"><ele>489.20000000000005</ele><time>2026-03-28T15:07:50.999Z</time></trkpt><trkpt lat="44.787567764201505" lon="9.747270384477906"><ele>487.8</ele><time>2026-03-28T15:07:52.999Z</time></trkpt><trkpt lat="44.78762679509787" lon="9.747370516313504"><ele>486.4</ele><time>2026-03-28T15:07:54.999Z</time></trkpt><trkpt lat="44.787679598102045" lon="9.747480036595125"><ele>485.0</ele><time>2026-03-28T15:07:56.999Z</time></trkpt><trkpt lat="44.78770810267057" lon="9.74760891408335"><ele>486.4</ele><time>2026-03-28T15:07:58.999Z</time></trkpt><trkpt lat="44.78771599144924" lon="9.747754469104981"><ele>487.8</ele><time>2026-03-28T15:08:00.999Z</time></trkpt><trkpt lat="44.787714720573135" lon="9.7479050210543"><ele>489.20000000000005</ele><time>2026-03-28T15:08:02.999Z</time></trkpt><trkpt lat="44.78773456073819" lon="9.748048775621792"><ele>490.6</ele><time>2026-03-28T15:08:04.999Z</time></trkpt><trkpt lat="44.78776875291146" lon="9.74818842172459"><ele>492.0</ele><time>2026-03-28T15:08:06.999Z</time></trkpt><trkpt lat="44.78782216734933" lon="9.748313282970445"><ele>492.0</ele><time>2026-03-28T15:08:08.999Z</time></trkpt><trkpt lat="44.78788334578702" lon="9.748430767645408"><ele>492.0</ele><time>2026-03-28T15:08:10.998Z</time></trkpt><trkpt lat="44.78795052862792" lon="9.748555665275992"><ele>492.0</ele><time>2026-03-28T15:08:12.998Z</time></trkpt><trkpt lat="44.78801453940464" lon="9.748698184117039"><ele>492.0</ele><time>2026-03-28T15:08:14.998Z</time></trkpt><trkpt lat="44.78807042937625" lon="9.748851389991113"><ele>492.5</ele><time>2026-03-28T15:08:16.998Z</time></trkpt><trkpt lat="44.78812475999194" lon="9.749001390317469"><ele>493.0</ele><time>2026-03-28T15:08:18.998Z</time></trkpt><trkpt lat="44.78816607313396" lon="9.749157901111824"><ele>493.5</ele><time>2026-03-28T15:08:20.998Z</time></trkpt><trkpt lat="44.788199920345605" lon="9.74930256459866"><ele>494.0</ele><time>2026-03-28T15:08:22.998Z</time></trkpt><trkpt lat="44.788190832490336" lon="9.74945479051032"><ele>492.8333333333333</ele><time>2026-03-28T15:08:25Z</time></trkpt><trkpt lat="44.78811411002137" lon="9.749556281536442"><ele>491.66666666666663</ele><time>2026-03-28T15:08:27Z</time></trkpt><trkpt lat="44.78802675044159" lon="9.749676516448584"><ele>490.5</ele><time>2026-03-28T15:08:29Z</time></trkpt><trkpt lat="44.7879810990398" lon="9.749738131525492"><ele>489.33333333333337</ele><time>2026-03-28T15:08:30Z</time></trkpt><trkpt lat="44.7879340922791" lon="9.749801575805197"><ele>488.1666666666667</ele><time>2026-03-28T15:08:31Z</time></trkpt><trkpt lat="44.787884530162174" lon="9.749870505403937"><ele>487.0</ele><time>2026-03-28T15:08:32Z</time></trkpt><trkpt lat="44.787837310977956" lon="9.749940594987917"><ele>487.0</ele><time>2026-03-28T15:08:33Z</time></trkpt><trkpt lat="44.78778895002642" lon="9.750013056157727"><ele>487.0</ele><time>2026-03-28T15:08:34Z</time></trkpt><trkpt lat="44.787740619005504" lon="9.750085472508065"><ele>487.0</ele><time>2026-03-28T15:08:35Z</time></trkpt><trkpt lat="44.78769169801767" lon="9.750158772693077"><ele>487.0</ele><time>2026-03-28T15:08:36Z</time></trkpt><trkpt lat="44.7876427477586" lon="9.750228886973272"><ele>487.0</ele><time>2026-03-28T15:08:37Z</time></trkpt><trkpt lat="44.7875910145964" lon="9.750295328653158"><ele>487.0</ele><time>2026-03-28T15:08:38Z</time></trkpt><trkpt lat="44.78753513682578" lon="9.750348855234726"><ele>487.0</ele><time>2026-03-28T15:08:39Z</time></trkpt><trkpt lat="44.78747825597706" lon="9.750394954248097"><ele>487.50000000000006</ele><time>2026-03-28T15:08:40Z</time></trkpt><trkpt lat="44.78741594042379" lon="9.75043938799794"><ele>488.0</ele><time>2026-03-28T15:08:41Z</time></trkpt><trkpt lat="44.78735164117605" lon="9.75048449609081"><ele>488.5</ele><time>2026-03-28T15:08:42Z</time></trkpt><trkpt lat="44.787286442935134" lon="9.750532890009477"><ele>489.0</ele><time>2026-03-28T15:08:43Z</time></trkpt><trkpt lat="44.787218275163504" lon="9.75058702599007"><ele>489.50000000000006</ele><time>2026-03-28T15:08:44Z</time></trkpt><trkpt lat="44.787154905947446" lon="9.750672496584112"><ele>490.0</ele><time>2026-03-28T15:08:45Z</time></trkpt><trkpt lat="44.78710584948977" lon="9.750769639201437"><ele>490.00000000000006</ele><time>2026-03-28T15:08:46Z</time></trkpt><trkpt lat="44.787067141275145" lon="9.750868835871511"><ele>490.0</ele><time>2026-03-28T15:08:47Z</time></trkpt><trkpt lat="44.78703551730991" lon="9.750972286507551"><ele>490.0</ele><time>2026-03-28T15:08:48Z</time></trkpt><trkpt lat="44.78701176552642" lon="9.75107228891121"><ele>490.0</ele><time>2026-03-28T15:08:49Z</time></trkpt><trkpt lat="44.78699702420988" lon="9.751179028316118"><ele>490.00000000000006</ele><time>2026-03-28T15:08:50Z</time></trkpt><trkpt lat="44.786997803631586" lon="9.751289359880495"><ele>490.0</ele><time>2026-03-28T15:08:51Z</time></trkpt><trkpt lat="44.78702053066358" lon="9.751391067968386"><ele>490.50000000000006</ele><time>2026-03-28T15:08:52Z</time></trkpt><trkpt lat="44.78704346931258" lon="9.751477866351312"><ele>491.0</ele><time>2026-03-28T15:08:53Z</time></trkpt><trkpt lat="44.78707933155652" lon="9.751557743261655"><ele>491.5</ele><time>2026-03-28T15:08:54Z</time></trkpt><trkpt lat="44.78711672254776" lon="9.751631949833188"><ele>492.0</ele><time>2026-03-28T15:08:55Z</time></trkpt><trkpt lat="44.787193583129046" lon="9.751771872501951"><ele>492.50000000000006</ele><time>2026-03-28T15:08:57Z</time></trkpt><trkpt lat="44.7872491929411" lon="9.751823350774545"><ele>493.0</ele><time>2026-03-28T15:08:58Z</time></trkpt><trkpt lat="44.78729430634713" lon="9.751891887860934"><ele>493.0</ele><time>2026-03-28T15:08:59Z</time></trkpt><trkpt lat="44.78734365345621" lon="9.75195564956305"><ele>493.0</ele><time>2026-03-28T15:09:00Z</time></trkpt><trkpt lat="44.78739138514227" lon="9.752019907223582"><ele>493.0</ele><time>2026-03-28T15:09:01Z</time></trkpt><trkpt lat="44.787441132646215" lon="9.75208028785941"><ele>493.0</ele><time>2026-03-28T15:09:02Z</time></trkpt><trkpt lat="44.787491260660765" lon="9.752139814848269"><ele>493.0</ele><time>2026-03-28T15:09:03Z</time></trkpt><trkpt lat="44.78754267336088" lon="9.752198732582922"><ele>493.0</ele><time>2026-03-28T15:09:04Z</time></trkpt><trkpt lat="44.78759751112353" lon="9.752258102979784"><ele>493.0</ele><time>2026-03-28T15:09:05Z</time></trkpt><trkpt lat="44.787650960825225" lon="9.752321796751886"><ele>492.1428571428571</ele><time>2026-03-28T15:09:06Z</time></trkpt><trkpt lat="44.78770722354314" lon="9.752377149909101"><ele>491.28571428571433</ele><time>2026-03-28T15:09:07Z</time></trkpt><trkpt lat="44.78775274321568" lon="9.752455616019224"><ele>490.42857142857144</ele><time>2026-03-28T15:09:08Z</time></trkpt><trkpt lat="44.787793336336954" lon="9.752538070094289"><ele>489.57142857142856</ele><time>2026-03-28T15:09:09Z</time></trkpt><trkpt lat="44.78783963954778" lon="9.752620609383811"><ele>488.71428571428567</ele><time>2026-03-28T15:09:10Z</time></trkpt><trkpt lat="44.787892260756145" lon="9.752701912916665"><ele>487.8571428571429</ele><time>2026-03-28T15:09:11Z</time></trkpt><trkpt lat="44.7879517658625" lon="9.75277281059401"><ele>487.0</ele><time>2026-03-28T15:09:12Z</time></trkpt><trkpt lat="44.78802751017506" lon="9.752812361050673"><ele>486.83333333333337</ele><time>2026-03-28T15:09:13Z</time></trkpt><trkpt lat="44.788096207192055" lon="9.752870866625178"><ele>486.6666666666667</ele><time>2026-03-28T15:09:14Z</time></trkpt><trkpt lat="44.788170980521045" lon="9.752926318665107"><ele>486.5</ele><time>2026-03-28T15:09:15Z</time></trkpt><trkpt lat="44.78824652887004" lon="9.752996100750234"><ele>486.33333333333337</ele><time>2026-03-28T15:09:16Z</time></trkpt><trkpt lat="44.78832581191386" lon="9.753068889827333"><ele>486.1666666666667</ele><time>2026-03-28T15:09:17Z</time></trkpt><trkpt lat="44.78840784684819" lon="9.7531419652715"><ele>486.0</ele><time>2026-03-28T15:09:18Z</time></trkpt><trkpt lat="44.78848814247894" lon="9.753221761260376"><ele>485.6</ele><time>2026-03-28T15:09:19Z</time></trkpt><trkpt lat="44.788562218676255" lon="9.753314170040348"><ele>485.20000000000005</ele><time>2026-03-28T15:09:20Z</time></trkpt><trkpt lat="44.78860147049396" lon="9.753444239172607"><ele>484.79999999999995</ele><time>2026-03-28T15:09:21Z</time></trkpt><trkpt lat="44.788651205160384" lon="9.753564019149119"><ele>484.4</ele><time>2026-03-28T15:09:21.999Z</time></trkpt><trkpt lat="44.788697765890134" lon="9.753677352765406"><ele>484.0</ele><time>2026-03-28T15:09:22.999Z</time></trkpt><trkpt lat="44.788740971435146" lon="9.753784427420502"><ele>484.0</ele><time>2026-03-28T15:09:23.999Z</time></trkpt><trkpt lat="44.78877938130337" lon="9.753884253999091"><ele>483.99999999999994</ele><time>2026-03-28T15:09:24.999Z</time></trkpt><trkpt lat="44.78881264335982" lon="9.75397688936991"><ele>484.0</ele><time>2026-03-28T15:09:25.999Z</time></trkpt><trkpt lat="44.7888446827833" lon="9.754074570436696"><ele>484.0</ele><time>2026-03-28T15:09:26.999Z</time></trkpt><trkpt lat="44.78887857207373" lon="9.75416319122352"><ele>483.99999999999994</ele><time>2026-03-28T15:09:27.999Z</time></trkpt><trkpt lat="44.788912538416" lon="9.754247031140135"><ele>484.0</ele><time>2026-03-28T15:09:28.999Z</time></trkpt><trkpt lat="44.788948853060816" lon="9.754328987660212"><ele>484.0</ele><time>2026-03-28T15:09:29.999Z</time></trkpt><trkpt lat="44.78900082264839" lon="9.754394716146193"><ele>484.0</ele><time>2026-03-28T15:09:30.999Z</time></trkpt><trkpt lat="44.78904365488388" lon="9.754473380084054"><ele>483.99999999999994</ele><time>2026-03-28T15:09:31.999Z</time></trkpt><trkpt lat="44.78908987625739" lon="9.754548740535315"><ele>484.0</ele><time>2026-03-28T15:09:32.999Z</time></trkpt><trkpt lat="44.78914143735626" lon="9.754621998448743"><ele>484.0</ele><time>2026-03-28T15:09:33.999Z</time></trkpt><trkpt lat="44.789192839477316" lon="9.754696331260234"><ele>483.99999999999994</ele><time>2026-03-28T15:09:34.999Z</time></trkpt><trkpt lat="44.789245771370304" lon="9.754769559174619"><ele>484.0</ele><time>2026-03-28T15:09:35.999Z</time></trkpt><trkpt lat="44.78929844396135" lon="9.75483729942988"><ele>484.0</ele><time>2026-03-28T15:09:36.999Z</time></trkpt><trkpt lat="44.78935227521455" lon="9.7549111973189"><ele>484.0</ele><time>2026-03-28T15:09:37.999Z</time></trkpt><trkpt lat="44.789401313223244" lon="9.754983603825911"><ele>483.99999999999994</ele><time>2026-03-28T15:09:38.999Z</time></trkpt><trkpt lat="44.78944916876199" lon="9.75505025473161"><ele>484.0</ele><time>2026-03-28T15:09:39.999Z</time></trkpt><trkpt lat="44.78950076742187" lon="9.755106805164417"><ele>484.0</ele><time>2026-03-28T15:09:40.999Z</time></trkpt><trkpt lat="44.789555758524244" lon="9.755155665244025"><ele>483.99999999999994</ele><time>2026-03-28T15:09:41.999Z</time></trkpt><trkpt lat="44.7896195029444" lon="9.75519389916413"><ele>484.0</ele><time>2026-03-28T15:09:42.999Z</time></trkpt><trkpt lat="44.78969146248512" lon="9.75521585277028"><ele>484.0</ele><time>2026-03-28T15:09:43.999Z</time></trkpt><trkpt lat="44.78977869347411" lon="9.755220498300336"><ele>482.2</ele><time>2026-03-28T15:09:44.999Z</time></trkpt><trkpt lat="44.78986749325801" lon="9.75522731321306"><ele>480.4</ele><time>2026-03-28T15:09:45.999Z</time></trkpt><trkpt lat="44.789956123038124" lon="9.755240734087538"><ele>478.6</ele><time>2026-03-28T15:09:46.999Z</time></trkpt><trkpt lat="44.7900482361915" lon="9.755258534797171"><ele>476.8</ele><time>2026-03-28T15:09:47.999Z</time></trkpt><trkpt lat="44.79013981048399" lon="9.755269004498324"><ele>475.0</ele><time>2026-03-28T15:09:48.999Z</time></trkpt><trkpt lat="44.79022752313169" lon="9.755274015646535"><ele>475.33333333333337</ele><time>2026-03-28T15:09:49.999Z</time></trkpt><trkpt lat="44.790316682149935" lon="9.755276649843337"><ele>475.6666666666667</ele><time>2026-03-28T15:09:50.999Z</time></trkpt><trkpt lat="44.790407495298695" lon="9.75526844402918"><ele>476.0</ele><time>2026-03-28T15:09:51.999Z</time></trkpt><trkpt lat="44.79049333980059" lon="9.755255978612832"><ele>476.33333333333337</ele><time>2026-03-28T15:09:52.999Z</time></trkpt><trkpt lat="44.79057998416298" lon="9.755237149090396"><ele>476.6666666666667</ele><time>2026-03-28T15:09:53.999Z</time></trkpt><trkpt lat="44.79066420194365" lon="9.755213858725092"><ele>477.0</ele><time>2026-03-28T15:09:54.999Z</time></trkpt><trkpt lat="44.790746921566445" lon="9.755185431847217"><ele>477.0</ele><time>2026-03-28T15:09:55.999Z</time></trkpt><trkpt lat="44.790829928538066" lon="9.755151613702612"><ele>477.0</ele><time>2026-03-28T15:09:56.999Z</time></trkpt><trkpt lat="44.79091154228078" lon="9.755123432323032"><ele>477.0</ele><time>2026-03-28T15:09:57.999Z</time></trkpt><trkpt lat="44.79099337415295" lon="9.755096532609068"><ele>477.0</ele><time>2026-03-28T15:09:58.999Z</time></trkpt><trkpt lat="44.791074668254765" lon="9.755075043934555"><ele>477.0</ele><time>2026-03-28T15:09:59.999Z</time></trkpt><trkpt lat="44.79115565544576" lon="9.755075461061493"><ele>477.0</ele><time>2026-03-28T15:10:00.999Z</time></trkpt><trkpt lat="44.79123447254384" lon="9.755089150268574"><ele>477.1666666666667</ele><time>2026-03-28T15:10:01.999Z</time></trkpt><trkpt lat="44.79130898491833" lon="9.755128808892003"><ele>477.33333333333337</ele><time>2026-03-28T15:10:02.999Z</time></trkpt><trkpt lat="44.7913856157522" lon="9.755175661916034"><ele>477.5</ele><time>2026-03-28T15:10:03.999Z</time></trkpt><trkpt lat="44.79145632321132" lon="9.75521277237664"><ele>477.6666666666667</ele><time>2026-03-28T15:10:04.999Z</time></trkpt><trkpt lat="44.79152706923137" lon="9.755271755163117"><ele>477.83333333333337</ele><time>2026-03-28T15:10:05.999Z</time></trkpt><trkpt lat="44.791597435403055" lon="9.755332778905553"><ele>478.0</ele><time>2026-03-28T15:10:06.999Z</time></trkpt><trkpt lat="44.791671827292646" lon="9.755381533817303"><ele>478.00000000000006</ele><time>2026-03-28T15:10:07.999Z</time></trkpt><trkpt lat="44.79175058680185" lon="9.7554215838857"><ele>478.0</ele><time>2026-03-28T15:10:08.999Z</time></trkpt><trkpt lat="44.7918326054487" lon="9.755462120699242"><ele>478.0</ele><time>2026-03-28T15:10:09.999Z</time></trkpt><trkpt lat="44.79192259727359" lon="9.755492912268233"><ele>478.0</ele><time>2026-03-28T15:10:10.999Z</time></trkpt><trkpt lat="44.792007589048126" lon="9.755517905212251"><ele>478.00000000000006</ele><time>2026-03-28T15:10:11.999Z</time></trkpt><trkpt lat="44.792093431345556" lon="9.755542770490022"><ele>478.0</ele><time>2026-03-28T15:10:12.999Z</time></trkpt><trkpt lat="44.79217981231375" lon="9.755569012935974"><ele>477.6666666666667</ele><time>2026-03-28T15:10:13.998Z</time></trkpt><trkpt lat="44.792267335707265" lon="9.755588689877342"><ele>477.33333333333337</ele><time>2026-03-28T15:10:14.998Z</time></trkpt><trkpt lat="44.79235455404827" lon="9.755598587432768"><ele>477.0</ele><time>2026-03-28T15:10:15.998Z</time></trkpt><trkpt lat="44.79244191981041" lon="9.755604923208734"><ele>476.66666666666663</ele><time>2026-03-28T15:10:16.998Z</time></trkpt><trkpt lat="44.79253097928047" lon="9.755610638678348"><ele>476.3333333333333</ele><time>2026-03-28T15:10:17.998Z</time></trkpt><trkpt lat="44.792620837751656" lon="9.755624475397394"><ele>476.0</ele><time>2026-03-28T15:10:18.998Z</time></trkpt><trkpt lat="44.79271189648402" lon="9.755645296930666"><ele>475.4</ele><time>2026-03-28T15:10:19.998Z</time></trkpt><trkpt lat="44.79280354093817" lon="9.755685519405231"><ele>474.8</ele><time>2026-03-28T15:10:20.998Z</time></trkpt><trkpt lat="44.792887593114635" lon="9.75575558210091"><ele>474.19999999999993</ele><time>2026-03-28T15:10:21.998Z</time></trkpt><trkpt lat="44.792963468241005" lon="9.755837702423294"><ele>473.59999999999997</ele><time>2026-03-28T15:10:22.998Z</time></trkpt><trkpt lat="44.793037384333644" lon="9.755934244066328"><ele>473.0</ele><time>2026-03-28T15:10:23.998Z</time></trkpt><trkpt lat="44.79310480629478" lon="9.756041820557297"><ele>473.0</ele><time>2026-03-28T15:10:24.998Z</time></trkpt><trkpt lat="44.79316038025736" lon="9.75616061998372"><ele>472.99999999999994</ele><time>2026-03-28T15:10:25.998Z</time></trkpt><trkpt lat="44.79321232349663" lon="9.756287877773058"><ele>472.99999999999994</ele><time>2026-03-28T15:10:26.998Z</time></trkpt><trkpt lat="44.79323791823303" lon="9.756430771273688"><ele>473.0</ele><time>2026-03-28T15:10:27.998Z</time></trkpt><trkpt lat="44.79326087873855" lon="9.75656844520795"><ele>473.0</ele><time>2026-03-28T15:10:28.998Z</time></trkpt><trkpt lat="44.7932739601851" lon="9.756712365793467"><ele>473.0</ele><time>2026-03-28T15:10:30Z</time></trkpt><trkpt lat="44.793289914117295" lon="9.756861396737337"><ele>472.99999999999994</ele><time>2026-03-28T15:10:31Z</time></trkpt><trkpt lat="44.79330874179256" lon="9.757011995547646"><ele>472.99999999999994</ele><time>2026-03-28T15:10:32Z</time></trkpt><trkpt lat="44.79333145620694" lon="9.757158013608539"><ele>473.0</ele><time>2026-03-28T15:10:33Z</time></trkpt><trkpt lat="44.79337150869126" lon="9.757303178025882"><ele>473.0</ele><time>2026-03-28T15:10:34Z</time></trkpt><trkpt lat="44.79341989592968" lon="9.75744136657268"><ele>472.59999999999997</ele><time>2026-03-28T15:10:35Z</time></trkpt><trkpt lat="44.79346875396729" lon="9.757577007096597"><ele>472.19999999999993</ele><time>2026-03-28T15:10:36Z</time></trkpt><trkpt lat="44.79352060846264" lon="9.757709759526175"><ele>471.8</ele><time>2026-03-28T15:10:37Z</time></trkpt><trkpt lat="44.793593406969876" lon="9.757821226851338"><ele>471.4</ele><time>2026-03-28T15:10:38Z</time></trkpt><trkpt lat="44.79365424987369" lon="9.757935095492325"><ele>471.0</ele><time>2026-03-28T15:10:39Z</time></trkpt><trkpt lat="44.7936929114823" lon="9.7580607025731"><ele>471.0</ele><time>2026-03-28T15:10:40Z</time></trkpt><trkpt lat="44.79372141190565" lon="9.758176643226534"><ele>471.0</ele><time>2026-03-28T15:10:41Z</time></trkpt><trkpt lat="44.79370572916585" lon="9.758275122359821"><ele>471.0</ele><time>2026-03-28T15:10:42Z</time></trkpt><trkpt lat="44.79366173508435" lon="9.75835581171644"><ele>471.0</ele><time>2026-03-28T15:10:43Z</time></trkpt><trkpt lat="44.7936075855012" lon="9.7584484335758"><ele>471.0</ele><time>2026-03-28T15:10:44Z</time></trkpt><trkpt lat="44.79355471151312" lon="9.758563579741692"><ele>471.0</ele><time>2026-03-28T15:10:45Z</time></trkpt><trkpt lat="44.79353776332078" lon="9.758714375942276"><ele>469.8</ele><time>2026-03-28T15:10:46Z</time></trkpt><trkpt lat="44.79358055098359" lon="9.758850774036622"><ele>468.6</ele><time>2026-03-28T15:10:47Z</time></trkpt><trkpt lat="44.793652246291096" lon="9.758954719227031"><ele>467.4</ele><time>2026-03-28T15:10:48Z</time></trkpt><trkpt lat="44.793693380947246" lon="9.759077329193744"><ele>466.2</ele><time>2026-03-28T15:10:49Z</time></trkpt><trkpt lat="44.793742182241274" lon="9.759195045937576"><ele>465.0</ele><time>2026-03-28T15:10:50Z</time></trkpt><trkpt lat="44.79378176808211" lon="9.759316748890141"><ele>464.2</ele><time>2026-03-28T15:10:51Z</time></trkpt><trkpt lat="44.793799245868406" lon="9.759446757367085"><ele>463.4</ele><time>2026-03-28T15:10:52Z</time></trkpt><trkpt lat="44.79378826770431" lon="9.75957521823162"><ele>462.6</ele><time>2026-03-28T15:10:53Z</time></trkpt><trkpt lat="44.793755988299736" lon="9.75969197085988"><ele>461.8</ele><time>2026-03-28T15:10:54Z</time></trkpt><trkpt lat="44.79371209472893" lon="9.759808285571006"><ele>461.0</ele><time>2026-03-28T15:10:55Z</time></trkpt><trkpt lat="44.79366605505195" lon="9.759940178440589"><ele>461.0</ele><time>2026-03-28T15:10:56Z</time></trkpt><trkpt lat="44.79363764328096" lon="9.760077343742878"><ele>461.0</ele><time>2026-03-28T15:10:57Z</time></trkpt><trkpt lat="44.7936538004544" lon="9.76023454616932"><ele>461.0</ele><time>2026-03-28T15:10:58Z</time></trkpt><trkpt lat="44.79372648323807" lon="9.76035304577282"><ele>461.0</ele><time>2026-03-28T15:10:59Z</time></trkpt><trkpt lat="44.793785632945365" lon="9.760469559260313"><ele>461.0</ele><time>2026-03-28T15:11:00Z</time></trkpt><trkpt lat="44.79385257074722" lon="9.760580921331309"><ele>459.4</ele><time>2026-03-28T15:11:01Z</time></trkpt><trkpt lat="44.79392459530293" lon="9.760683715194345"><ele>457.8</ele><time>2026-03-28T15:11:02Z</time></trkpt><trkpt lat="44.793987561005515" lon="9.760800072673742"><ele>456.19999999999993</ele><time>2026-03-28T15:11:03Z</time></trkpt><trkpt lat="44.794041166879815" lon="9.760893840616498"><ele>454.59999999999997</ele><time>2026-03-28T15:11:04Z</time></trkpt><trkpt lat="44.79406038612285" lon="9.760983753001971"><ele>453.0</ele><time>2026-03-28T15:11:05Z</time></trkpt><trkpt lat="44.79399117557386" lon="9.761113109064375"><ele>450.4</ele><time>2026-03-28T15:11:07Z</time></trkpt><trkpt lat="44.79385369929172" lon="9.761107690312311"><ele>447.79999999999995</ele><time>2026-03-28T15:11:09Z</time></trkpt><trkpt lat="44.79377296010467" lon="9.761096819826488"><ele>445.2</ele><time>2026-03-28T15:11:10Z</time></trkpt><trkpt lat="44.793681541877675" lon="9.76108538564522"><ele>442.6</ele><time>2026-03-28T15:11:11Z</time></trkpt><trkpt lat="44.793584788570946" lon="9.7610752095215"><ele>440.0</ele><time>2026-03-28T15:11:12Z</time></trkpt><trkpt lat="44.79348530132782" lon="9.761067355038257"><ele>439.4</ele><time>2026-03-28T15:11:13Z</time></trkpt><trkpt lat="44.79338315452879" lon="9.761054449377463"><ele>438.8</ele><time>2026-03-28T15:11:14Z</time></trkpt><trkpt lat="44.79327966638782" lon="9.761030523793913"><ele>438.20000000000005</ele><time>2026-03-28T15:11:15Z</time></trkpt><trkpt lat="44.793176382883225" lon="9.760996761701744"><ele>437.6</ele><time>2026-03-28T15:11:16Z</time></trkpt><trkpt lat="44.79306561986791" lon="9.76096589414636"><ele>437.0</ele><time>2026-03-28T15:11:17Z</time></trkpt><trkpt lat="44.7929411198282" lon="9.76096946173263"><ele>437.0</ele><time>2026-03-28T15:11:18Z</time></trkpt><trkpt lat="44.79283144367111" lon="9.761024787334431"><ele>437.00000000000006</ele><time>2026-03-28T15:11:19Z</time></trkpt><trkpt lat="44.792746615776835" lon="9.761078974410475"><ele>437.00000000000006</ele><time>2026-03-28T15:11:20Z</time></trkpt><trkpt lat="44.79264144798883" lon="9.761097315282198"><ele>437.0</ele><time>2026-03-28T15:11:22Z</time></trkpt><trkpt lat="44.79260454561058" lon="9.760997967128807"><ele>437.0</ele><time>2026-03-28T15:11:23Z</time></trkpt><trkpt lat="44.79255880339205" lon="9.760927354309201"><ele>436.8</ele><time>2026-03-28T15:11:24Z</time></trkpt><trkpt lat="44.792498216570614" lon="9.760896661040782"><ele>436.6</ele><time>2026-03-28T15:11:25Z</time></trkpt><trkpt lat="44.79235944329548" lon="9.760902618016067"><ele>436.40000000000003</ele><time>2026-03-28T15:11:26Z</time></trkpt><trkpt lat="44.792282903712646" lon="9.760961435589227"><ele>436.20000000000005</ele><time>2026-03-28T15:11:27Z</time></trkpt><trkpt lat="44.792201100570495" lon="9.761039009602472"><ele>436.0</ele><time>2026-03-28T15:11:27.999Z</time></trkpt><trkpt lat="44.79212602321662" lon="9.761116886168073"><ele>436.00000000000006</ele><time>2026-03-28T15:11:28.999Z</time></trkpt><trkpt lat="44.792059600365455" lon="9.761215118348476"><ele>436.0</ele><time>2026-03-28T15:11:29.999Z</time></trkpt><trkpt lat="44.79200693551015" lon="9.761323777292901"><ele>436.0</ele><time>2026-03-28T15:11:30.999Z</time></trkpt><trkpt lat="44.7919864017261" lon="9.761446276406307"><ele>436.0</ele><time>2026-03-28T15:11:31.999Z</time></trkpt><trkpt lat="44.792005445359706" lon="9.76153830942041"><ele>436.00000000000006</ele><time>2026-03-28T15:11:32.999Z</time></trkpt><trkpt lat="44.79203128611376" lon="9.761643246135312"><ele>436.0</ele><time>2026-03-28T15:11:33.999Z</time></trkpt><trkpt lat="44.792095792122026" lon="9.761714136628465"><ele>436.00000000000006</ele><time>2026-03-28T15:11:34.999Z</time></trkpt><trkpt lat="44.79216085144689" lon="9.761752104134011"><ele>436.0</ele><time>2026-03-28T15:11:35.999Z</time></trkpt><trkpt lat="44.79224134038886" lon="9.761773166464017"><ele>436.0</ele><time>2026-03-28T15:11:36.999Z</time></trkpt><trkpt lat="44.792332257306995" lon="9.761817005424101"><ele>436.0</ele><time>2026-03-28T15:11:37.999Z</time></trkpt><trkpt lat="44.792416565695035" lon="9.761834874332065"><ele>436.00000000000006</ele><time>2026-03-28T15:11:38.999Z</time></trkpt><trkpt lat="44.79249462901685" lon="9.761858646062434"><ele>436.0</ele><time>2026-03-28T15:11:39.999Z</time></trkpt><trkpt lat="44.792548611891256" lon="9.761906708980614"><ele>434.0</ele><time>2026-03-28T15:11:40.999Z</time></trkpt><trkpt lat="44.79255125705474" lon="9.762003349896775"><ele>432.0</ele><time>2026-03-28T15:11:41.999Z</time></trkpt><trkpt lat="44.792475065968844" lon="9.76211870358231"><ele>430.0</ele><time>2026-03-28T15:11:43.999Z</time></trkpt><trkpt lat="44.7923704636802" lon="9.762065093423983"><ele>428.0</ele><time>2026-03-28T15:11:44.999Z</time></trkpt><trkpt lat="44.79226872817482" lon="9.762113435161899"><ele>426.0</ele><time>2026-03-28T15:11:45.999Z</time></trkpt><trkpt lat="44.792172691942156" lon="9.762151454798813"><ele>426.0</ele><time>2026-03-28T15:11:46.999Z</time></trkpt><trkpt lat="44.79207434833247" lon="9.762178320518391"><ele>426.0</ele><time>2026-03-28T15:11:47.999Z</time></trkpt><trkpt lat="44.79197860679296" lon="9.762197894559984"><ele>426.0</ele><time>2026-03-28T15:11:48.999Z</time></trkpt><trkpt lat="44.79188192138763" lon="9.762225479023751"><ele>426.0</ele><time>2026-03-28T15:11:49.999Z</time></trkpt><trkpt lat="44.79180137810683" lon="9.762280138069451"><ele>426.0</ele><time>2026-03-28T15:11:50.999Z</time></trkpt><trkpt lat="44.79175325622547" lon="9.762363191909612"><ele>426.0</ele><time>2026-03-28T15:11:51.999Z</time></trkpt><trkpt lat="44.791761163751374" lon="9.762478078211764"><ele>426.0</ele><time>2026-03-28T15:11:52.999Z</time></trkpt><trkpt lat="44.79186826178708" lon="9.762584238995515"><ele>426.0</ele><time>2026-03-28T15:11:53.999Z</time></trkpt><trkpt lat="44.792029515481104" lon="9.762650459740668"><ele>426.0</ele><time>2026-03-28T15:11:55.999Z</time></trkpt><trkpt lat="44.79211133985257" lon="9.762680729802549"><ele>424.4</ele><time>2026-03-28T15:11:56.999Z</time></trkpt><trkpt lat="44.79219444431527" lon="9.762722155027554"><ele>422.8</ele><time>2026-03-28T15:11:57.999Z</time></trkpt><trkpt lat="44.792283786884475" lon="9.76276769269691"><ele>421.2</ele><time>2026-03-28T15:11:58.999Z</time></trkpt><trkpt lat="44.79237059058797" lon="9.762817711715805"><ele>419.59999999999997</ele><time>2026-03-28T15:11:59.999Z</time></trkpt><trkpt lat="44.79244921527884" lon="9.762897134788"><ele>418.0</ele><time>2026-03-28T15:12:00.999Z</time></trkpt><trkpt lat="44.79251623740212" lon="9.762991198717739"><ele>418.0</ele><time>2026-03-28T15:12:01.999Z</time></trkpt><trkpt lat="44.79257685982053" lon="9.763088486538651"><ele>418.0</ele><time>2026-03-28T15:12:02.999Z</time></trkpt><trkpt lat="44.79263265359501" lon="9.763188854854613"><ele>418.0</ele><time>2026-03-28T15:12:03.999Z</time></trkpt><trkpt lat="44.79268531977468" lon="9.763290821395843"><ele>418.0</ele><time>2026-03-28T15:12:04.999Z</time></trkpt><trkpt lat="44.792737359941704" lon="9.763395179464196"><ele>418.0</ele><time>2026-03-28T15:12:05.999Z</time></trkpt><trkpt lat="44.79279083299254" lon="9.763501333755432"><ele>417.59999999999997</ele><time>2026-03-28T15:12:06.999Z</time></trkpt><trkpt lat="44.79282433162744" lon="9.76362681640099"><ele>417.2</ele><time>2026-03-28T15:12:07.999Z</time></trkpt><trkpt lat="44.792883556610434" lon="9.763734000866595"><ele>416.8</ele><time>2026-03-28T15:12:08.999Z</time></trkpt><trkpt lat="44.79293309667505" lon="9.76385056394497"><ele>416.4</ele><time>2026-03-28T15:12:09.999Z</time></trkpt><trkpt lat="44.792981468694656" lon="9.763970481328773"><ele>416.0</ele><time>2026-03-28T15:12:10.999Z</time></trkpt><trkpt lat="44.793030090520574" lon="9.76408988184935"><ele>416.0</ele><time>2026-03-28T15:12:11.999Z</time></trkpt><trkpt lat="44.79303858051509" lon="9.764225487372407"><ele>416.0</ele><time>2026-03-28T15:12:12.999Z</time></trkpt><trkpt lat="44.79306699138725" lon="9.764360003892072"><ele>416.0</ele><time>2026-03-28T15:12:13.999Z</time></trkpt><trkpt lat="44.79309974068867" lon="9.764492929353363"><ele>416.0</ele><time>2026-03-28T15:12:14.999Z</time></trkpt><trkpt lat="44.79315418409292" lon="9.764615111623208"><ele>416.0</ele><time>2026-03-28T15:12:15.999Z</time></trkpt><trkpt lat="44.79320620009821" lon="9.764724223277549"><ele>415.16666666666663</ele><time>2026-03-28T15:12:16.999Z</time></trkpt><trkpt lat="44.79326762851934" lon="9.764815345051556"><ele>414.3333333333333</ele><time>2026-03-28T15:12:17.999Z</time></trkpt><trkpt lat="44.79333194709504" lon="9.764895487658874"><ele>413.5</ele><time>2026-03-28T15:12:18.999Z</time></trkpt><trkpt lat="44.7934063703364" lon="9.764963492705892"><ele>412.66666666666663</ele><time>2026-03-28T15:12:19.998Z</time></trkpt><trkpt lat="44.79348912830424" lon="9.765004245591454"><ele>411.8333333333333</ele><time>2026-03-28T15:12:20.998Z</time></trkpt><trkpt lat="44.79357976206597" lon="9.764980148993997"><ele>411.0</ele><time>2026-03-28T15:12:21.998Z</time></trkpt><trkpt lat="44.7936684152995" lon="9.764982673192717"><ele>411.0</ele><time>2026-03-28T15:12:22.998Z</time></trkpt><trkpt lat="44.793762329019565" lon="9.764983360491247"><ele>411.0</ele><time>2026-03-28T15:12:23.998Z</time></trkpt><trkpt lat="44.79385981077948" lon="9.76498644499696"><ele>411.0</ele><time>2026-03-28T15:12:24.998Z</time></trkpt><trkpt lat="44.793954081330604" lon="9.765024751136462"><ele>411.0</ele><time>2026-03-28T15:12:25.998Z</time></trkpt><trkpt lat="44.79405334412615" lon="9.765054286796435"><ele>411.0</ele><time>2026-03-28T15:12:26.998Z</time></trkpt><trkpt lat="44.79415335608492" lon="9.765100992115363"><ele>411.0</ele><time>2026-03-28T15:12:27.998Z</time></trkpt><trkpt lat="44.79425427601029" lon="9.765137322111986"><ele>411.0</ele><time>2026-03-28T15:12:28.998Z</time></trkpt><trkpt lat="44.79435859623607" lon="9.76518102759827"><ele>411.0</ele><time>2026-03-28T15:12:29.998Z</time></trkpt><trkpt lat="44.794427311458406" lon="9.765297247516264"><ele>411.0</ele><time>2026-03-28T15:12:30.998Z</time></trkpt><trkpt lat="44.79452236240692" lon="9.765385003975387"><ele>411.0</ele><time>2026-03-28T15:12:31.998Z</time></trkpt><trkpt lat="44.794604477743064" lon="9.765494945478315"><ele>409.8</ele><time>2026-03-28T15:12:32.998Z</time></trkpt><trkpt lat="44.794681040985004" lon="9.765598981416632"><ele>408.6</ele><time>2026-03-28T15:12:33.998Z</time></trkpt><trkpt lat="44.79471189514671" lon="9.765748389403454"><ele>407.4</ele><time>2026-03-28T15:12:34.998Z</time></trkpt><trkpt lat="44.79470729102741" lon="9.765890751806202"><ele>406.2</ele><time>2026-03-28T15:12:36Z</time></trkpt><trkpt lat="44.794710603984285" lon="9.766067153543874"><ele>405.0</ele><time>2026-03-28T15:12:37Z</time></trkpt><trkpt lat="44.794720795587764" lon="9.766229631603977"><ele>404.25</ele><time>2026-03-28T15:12:38Z</time></trkpt><trkpt lat="44.794731106066365" lon="9.766421467373315"><ele>403.5</ele><time>2026-03-28T15:12:39Z</time></trkpt><trkpt lat="44.794737605258426" lon="9.766597139787864"><ele>402.75</ele><time>2026-03-28T15:12:40Z</time></trkpt><trkpt lat="44.79472715391436" lon="9.766752464846961"><ele>402.0</ele><time>2026-03-28T15:12:41Z</time></trkpt><trkpt lat="44.79471282745006" lon="9.766909951448802"><ele>402.0</ele><time>2026-03-28T15:12:42Z</time></trkpt><trkpt lat="44.794706156815955" lon="9.767077197565238"><ele>402.0</ele><time>2026-03-28T15:12:43Z</time></trkpt><trkpt lat="44.79471718341197" lon="9.767247360102752"><ele>402.0</ele><time>2026-03-28T15:12:44Z</time></trkpt><trkpt lat="44.794726808575064" lon="9.767414594619355"><ele>402.0</ele><time>2026-03-28T15:12:45Z</time></trkpt><trkpt lat="44.79472517243211" lon="9.767572874852222"><ele>399.5</ele><time>2026-03-28T15:12:46Z</time></trkpt><trkpt lat="44.794717429285306" lon="9.76772827353801"><ele>397.0</ele><time>2026-03-28T15:12:47Z</time></trkpt><trkpt lat="44.794717421584835" lon="9.767893431704845"><ele>394.5</ele><time>2026-03-28T15:12:48Z</time></trkpt><trkpt lat="44.79472840423606" lon="9.768055771426278"><ele>392.0</ele><time>2026-03-28T15:12:49Z</time></trkpt><trkpt lat="44.79474601141213" lon="9.76821359953838"><ele>392.0</ele><time>2026-03-28T15:12:50Z</time></trkpt><trkpt lat="44.79477786892699" lon="9.768370158847391"><ele>392.0</ele><time>2026-03-28T15:12:51Z</time></trkpt><trkpt lat="44.79484090065068" lon="9.768513120347968"><ele>392.0</ele><time>2026-03-28T15:12:52Z</time></trkpt><trkpt lat="44.79490087109128" lon="9.768658321600245"><ele>392.0</ele><time>2026-03-28T15:12:53Z</time></trkpt><trkpt lat="44.794962495727574" lon="9.768807681767461"><ele>390.25</ele><time>2026-03-28T15:12:54Z</time></trkpt><trkpt lat="44.79502779787872" lon="9.768956402522518"><ele>388.5</ele><time>2026-03-28T15:12:55Z</time></trkpt><trkpt lat="44.795080698256086" lon="9.769113920427692"><ele>386.75</ele><time>2026-03-28T15:12:56Z</time></trkpt><trkpt lat="44.795100328908305" lon="9.769277434816079"><ele>385.0</ele><time>2026-03-28T15:12:57Z</time></trkpt><trkpt lat="44.79510439532597" lon="9.76943667710888"><ele>383.6</ele><time>2026-03-28T15:12:58Z</time></trkpt><trkpt lat="44.795092804937184" lon="9.769596081644037"><ele>382.2</ele><time>2026-03-28T15:12:59Z</time></trkpt><trkpt lat="44.79508249335838" lon="9.76975258579096"><ele>380.79999999999995</ele><time>2026-03-28T15:13:00Z</time></trkpt><trkpt lat="44.79506882158462" lon="9.769903832159061"><ele>379.4</ele><time>2026-03-28T15:13:01Z</time></trkpt><trkpt lat="44.795045757251415" lon="9.770042453294966"><ele>378.0</ele><time>2026-03-28T15:13:02Z</time></trkpt><trkpt lat="44.79500593022764" lon="9.770185562342693"><ele>376.75</ele><time>2026-03-28T15:13:03Z</time></trkpt><trkpt lat="44.79498432587417" lon="9.770349414749575"><ele>375.5</ele><time>2026-03-28T15:13:04Z</time></trkpt><trkpt lat="44.79500589619758" lon="9.770505957302882"><ele>374.25</ele><time>2026-03-28T15:13:05Z</time></trkpt><trkpt lat="44.79504097717535" lon="9.770651533204552"><ele>373.0</ele><time>2026-03-28T15:13:06Z</time></trkpt><trkpt lat="44.79510526643201" lon="9.770779075733378"><ele>373.0</ele><time>2026-03-28T15:13:07Z</time></trkpt><trkpt lat="44.79519037438585" lon="9.770880293937948"><ele>373.0</ele><time>2026-03-28T15:13:08Z</time></trkpt><trkpt lat="44.79528228464288" lon="9.77095692030059"><ele>373.0</ele><time>2026-03-28T15:13:09Z</time></trkpt><trkpt lat="44.79536846170946" lon="9.771031937079028"><ele>373.0</ele><time>2026-03-28T15:13:10Z</time></trkpt><trkpt lat="44.79545122940361" lon="9.771119186807239"><ele>373.0</ele><time>2026-03-28T15:13:11Z</time></trkpt><trkpt lat="44.79553786994344" lon="9.771210276539906"><ele>373.0</ele><time>2026-03-28T15:13:12Z</time></trkpt><trkpt lat="44.79561998180194" lon="9.771319798653614"><ele>373.0</ele><time>2026-03-28T15:13:13Z</time></trkpt><trkpt lat="44.79569145225481" lon="9.77145045580013"><ele>373.0</ele><time>2026-03-28T15:13:14Z</time></trkpt><trkpt lat="44.79575821951342" lon="9.771580540236174"><ele>373.0</ele><time>2026-03-28T15:13:15Z</time></trkpt><trkpt lat="44.79582188295315" lon="9.771708875357152"><ele>373.0</ele><time>2026-03-28T15:13:16Z</time></trkpt><trkpt lat="44.79588067966657" lon="9.771836204606833"><ele>373.0</ele><time>2026-03-28T15:13:17Z</time></trkpt><trkpt lat="44.79593865054135" lon="9.771964021229058"><ele>373.0</ele><time>2026-03-28T15:13:18Z</time></trkpt><trkpt lat="44.79599743278452" lon="9.772092165797366"><ele>373.0</ele><time>2026-03-28T15:13:19Z</time></trkpt><trkpt lat="44.796052062970176" lon="9.772223407123173"><ele>373.0</ele><time>2026-03-28T15:13:20Z</time></trkpt><trkpt lat="44.796112414177784" lon="9.772350771455182"><ele>373.0</ele><time>2026-03-28T15:13:21Z</time></trkpt><trkpt lat="44.796179136397384" lon="9.772469813668287"><ele>373.0</ele><time>2026-03-28T15:13:22Z</time></trkpt><trkpt lat="44.79625087560197" lon="9.772569620493789"><ele>373.0</ele><time>2026-03-28T15:13:23Z</time></trkpt><trkpt lat="44.79632085782119" lon="9.77266236377191"><ele>373.0</ele><time>2026-03-28T15:13:24Z</time></trkpt><trkpt lat="44.79638088045855" lon="9.772760102338022"><ele>373.0</ele><time>2026-03-28T15:13:25Z</time></trkpt><trkpt lat="44.79639357152896" lon="9.772881810759248"><ele>370.59999999999997</ele><time>2026-03-28T15:13:26Z</time></trkpt><trkpt lat="44.796507610080155" lon="9.772927904870928"><ele>368.2</ele><time>2026-03-28T15:13:27Z</time></trkpt><trkpt lat="44.796576589579125" lon="9.772985842736317"><ele>365.8</ele><time>2026-03-28T15:13:28Z</time></trkpt><trkpt lat="44.796646064085095" lon="9.773013670868565"><ele>363.4</ele><time>2026-03-28T15:13:29Z</time></trkpt><trkpt lat="44.796710832695375" lon="9.773030230123872"><ele>361.0</ele><time>2026-03-28T15:13:30Z</time></trkpt><trkpt lat="44.79682459002533" lon="9.773048825830909"><ele>362.20000000000005</ele><time>2026-03-28T15:13:31.999Z</time></trkpt><trkpt lat="44.79693235817522" lon="9.773063078236415"><ele>363.40000000000003</ele><time>2026-03-28T15:13:33.999Z</time></trkpt><trkpt lat="44.797039976629264" lon="9.773077616694646"><ele>364.6</ele><time>2026-03-28T15:13:35.999Z</time></trkpt><trkpt lat="44.797149895800636" lon="9.773068714824838"><ele>365.8</ele><time>2026-03-28T15:13:37.999Z</time></trkpt><trkpt lat="44.79727128378539" lon="9.773051877336593"><ele>367.0</ele><time>2026-03-28T15:13:39.999Z</time></trkpt><trkpt lat="44.797336438646" lon="9.77304488064823"><ele>367.0</ele><time>2026-03-28T15:13:40.999Z</time></trkpt><trkpt lat="44.7974034720492" lon="9.773040270834608"><ele>367.0</ele><time>2026-03-28T15:13:41.999Z</time></trkpt><trkpt lat="44.79747014609702" lon="9.773033549576871"><ele>367.0</ele><time>2026-03-28T15:13:42.999Z</time></trkpt><trkpt lat="44.7976027088421" lon="9.773025766798556"><ele>367.0</ele><time>2026-03-28T15:13:44.999Z</time></trkpt><trkpt lat="44.797671487489524" lon="9.773048010324812"><ele>367.0</ele><time>2026-03-28T15:13:45.999Z</time></trkpt><trkpt lat="44.79773361564437" lon="9.773106677040525"><ele>367.0</ele><time>2026-03-28T15:13:46.999Z</time></trkpt><trkpt lat="44.79778364450974" lon="9.773182629226634"><ele>369.5</ele><time>2026-03-28T15:13:47.999Z</time></trkpt><trkpt lat="44.797816966661856" lon="9.77328057048011"><ele>372.0</ele><time>2026-03-28T15:13:48.999Z</time></trkpt><trkpt lat="44.79783192286216" lon="9.773386587109421"><ele>374.5</ele><time>2026-03-28T15:13:49.999Z</time></trkpt><trkpt lat="44.797839481015636" lon="9.773487958885946"><ele>377.0</ele><time>2026-03-28T15:13:50.999Z</time></trkpt><trkpt lat="44.797846628401146" lon="9.77359023883833"><ele>379.5</ele><time>2026-03-28T15:13:51.999Z</time></trkpt><trkpt lat="44.79785149877349" lon="9.773700455743127"><ele>382.0</ele><time>2026-03-28T15:13:52.999Z</time></trkpt><trkpt lat="44.79785830224838" lon="9.773809190427544"><ele>382.0</ele><time>2026-03-28T15:13:53.999Z</time></trkpt><trkpt lat="44.797867778617416" lon="9.773919670506212"><ele>382.0</ele><time>2026-03-28T15:13:54.999Z</time></trkpt><trkpt lat="44.79788185598575" lon="9.774027221892773"><ele>382.0</ele><time>2026-03-28T15:13:55.999Z</time></trkpt><trkpt lat="44.7978978427399" lon="9.77413735249375"><ele>382.0</ele><time>2026-03-28T15:13:56.999Z</time></trkpt><trkpt lat="44.79791265555959" lon="9.774250703489844"><ele>382.0</ele><time>2026-03-28T15:13:57.999Z</time></trkpt><trkpt lat="44.797925251549046" lon="9.774369423497907"><ele>382.0</ele><time>2026-03-28T15:13:58.999Z</time></trkpt><trkpt lat="44.79793599951249" lon="9.774490405591488"><ele>380.0</ele><time>2026-03-28T15:13:59.999Z</time></trkpt><trkpt lat="44.79794915479605" lon="9.774617233392345"><ele>378.0</ele><time>2026-03-28T15:14:00.999Z</time></trkpt><trkpt lat="44.79794325989297" lon="9.774754602643364"><ele>376.0</ele><time>2026-03-28T15:14:01.999Z</time></trkpt><trkpt lat="44.79798944596324" lon="9.774869699186073"><ele>374.0</ele><time>2026-03-28T15:14:02.999Z</time></trkpt><trkpt lat="44.79804550823258" lon="9.774980148644714"><ele>372.0</ele><time>2026-03-28T15:14:03.999Z</time></trkpt><trkpt lat="44.79810616640723" lon="9.77508097532522"><ele>372.0</ele><time>2026-03-28T15:14:04.999Z</time></trkpt><trkpt lat="44.798168809179835" lon="9.775176955313402"><ele>372.0</ele><time>2026-03-28T15:14:05.999Z</time></trkpt><trkpt lat="44.7982287533762" lon="9.775270166978872"><ele>372.0</ele><time>2026-03-28T15:14:06.999Z</time></trkpt><trkpt lat="44.798280581505246" lon="9.775374368562703"><ele>372.0</ele><time>2026-03-28T15:14:07.999Z</time></trkpt><trkpt lat="44.798312932139986" lon="9.775479331925181"><ele>372.0</ele><time>2026-03-28T15:14:08.999Z</time></trkpt><trkpt lat="44.7983181662305" lon="9.775584429710015"><ele>372.0</ele><time>2026-03-28T15:14:09.999Z</time></trkpt><trkpt lat="44.798292881279956" lon="9.77568713923216"><ele>370.8</ele><time>2026-03-28T15:14:10.999Z</time></trkpt><trkpt lat="44.7982745591581" lon="9.7758098871511"><ele>369.6</ele><time>2026-03-28T15:14:11.999Z</time></trkpt><trkpt lat="44.79827240680598" lon="9.77595238772716"><ele>368.40000000000003</ele><time>2026-03-28T15:14:12.999Z</time></trkpt><trkpt lat="44.798286586562604" lon="9.776084735749462"><ele>367.20000000000005</ele><time>2026-03-28T15:14:13.999Z</time></trkpt><trkpt lat="44.79829970706895" lon="9.77621299127964"><ele>366.0</ele><time>2026-03-28T15:14:14.999Z</time></trkpt><trkpt lat="44.798310289850775" lon="9.776344525177707"><ele>365.6</ele><time>2026-03-28T15:14:15.999Z</time></trkpt><trkpt lat="44.79831458688256" lon="9.776476589882662"><ele>365.20000000000005</ele><time>2026-03-28T15:14:16.999Z</time></trkpt><trkpt lat="44.79830726226435" lon="9.776607189226679"><ele>364.79999999999995</ele><time>2026-03-28T15:14:17.999Z</time></trkpt><trkpt lat="44.79830177532096" lon="9.77674511366935"><ele>364.4</ele><time>2026-03-28T15:14:18.999Z</time></trkpt><trkpt lat="44.798346902599775" lon="9.776885015787185"><ele>364.0</ele><time>2026-03-28T15:14:19.999Z</time></trkpt><trkpt lat="44.798350364390565" lon="9.777025060909324"><ele>363.6</ele><time>2026-03-28T15:14:20.999Z</time></trkpt><trkpt lat="44.79835462155405" lon="9.777160548998987"><ele>363.2</ele><time>2026-03-28T15:14:21.999Z</time></trkpt><trkpt lat="44.79836497045147" lon="9.777290419219945"><ele>362.8</ele><time>2026-03-28T15:14:22.998Z</time></trkpt><trkpt lat="44.798355418630386" lon="9.777435582560894"><ele>362.40000000000003</ele><time>2026-03-28T15:14:23.998Z</time></trkpt><trkpt lat="44.79840048036379" lon="9.777557903602466"><ele>362.0</ele><time>2026-03-28T15:14:24.998Z</time></trkpt><trkpt lat="44.79844853788943" lon="9.77766741712131"><ele>362.6</ele><time>2026-03-28T15:14:25.998Z</time></trkpt><trkpt lat="44.79850049753918" lon="9.777775316121787"><ele>363.20000000000005</ele><time>2026-03-28T15:14:26.998Z</time></trkpt><trkpt lat="44.798565684718554" lon="9.777872818096407"><ele>363.8</ele><time>2026-03-28T15:14:27.998Z</time></trkpt><trkpt lat="44.7985934677451" lon="9.777999471798841"><ele>364.4</ele><time>2026-03-28T15:14:28.998Z</time></trkpt><trkpt lat="44.79863797370635" lon="9.778115893768327"><ele>365.0</ele><time>2026-03-28T15:14:29.998Z</time></trkpt><trkpt lat="44.798693446174845" lon="9.778221241249897"><ele>365.0</ele><time>2026-03-28T15:14:30.998Z</time></trkpt><trkpt lat="44.7987303540646" lon="9.778336235462596"><ele>365.0</ele><time>2026-03-28T15:14:31.998Z</time></trkpt><trkpt lat="44.798771695606725" lon="9.778445211173366"><ele>365.0</ele><time>2026-03-28T15:14:32.998Z</time></trkpt><trkpt lat="44.79881182712143" lon="9.778548254328681"><ele>365.0</ele><time>2026-03-28T15:14:33.998Z</time></trkpt><trkpt lat="44.79883411248977" lon="9.778664022469439"><ele>365.0</ele><time>2026-03-28T15:14:34.998Z</time></trkpt><trkpt lat="44.7988841243642" lon="9.778762210836788"><ele>365.0</ele><time>2026-03-28T15:14:35.998Z</time></trkpt><trkpt lat="44.79892147251948" lon="9.778875255930862"><ele>364.6</ele><time>2026-03-28T15:14:36.998Z</time></trkpt><trkpt lat="44.79894581053288" lon="9.779000308587522"><ele>364.2</ele><time>2026-03-28T15:14:37.998Z</time></trkpt><trkpt lat="44.79898399502064" lon="9.779120285987428"><ele>363.79999999999995</ele><time>2026-03-28T15:14:38.998Z</time></trkpt><trkpt lat="44.799022763979586" lon="9.779245029816344"><ele>363.4</ele><time>2026-03-28T15:14:39.998Z</time></trkpt><trkpt lat="44.79905932804802" lon="9.77936849768307"><ele>363.0</ele><time>2026-03-28T15:14:40.998Z</time></trkpt><trkpt lat="44.79909058850473" lon="9.779491034435921"><ele>361.79999999999995</ele><time>2026-03-28T15:14:42Z</time></trkpt><trkpt lat="44.79912313308841" lon="9.779622085695372"><ele>360.6</ele><time>2026-03-28T15:14:43Z</time></trkpt><trkpt lat="44.79916486014009" lon="9.779751999613612"><ele>359.4</ele><time>2026-03-28T15:14:44Z</time></trkpt><trkpt lat="44.79922302719186" lon="9.779869774128446"><ele>358.20000000000005</ele><time>2026-03-28T15:14:45Z</time></trkpt><trkpt lat="44.79927358750687" lon="9.77998601366993"><ele>357.0</ele><time>2026-03-28T15:14:46Z</time></trkpt><trkpt lat="44.79933126831803" lon="9.780082747298914"><ele>357.8333333333333</ele><time>2026-03-28T15:14:47Z</time></trkpt><trkpt lat="44.79940740589235" lon="9.780156079197866"><ele>358.6666666666667</ele><time>2026-03-28T15:14:48Z</time></trkpt><trkpt lat="44.799494880373665" lon="9.780204578298573"><ele>359.5</ele><time>2026-03-28T15:14:49Z</time></trkpt><trkpt lat="44.79957807962015" lon="9.78024358460325"><ele>360.33333333333337</ele><time>2026-03-28T15:14:50Z</time></trkpt><trkpt lat="44.799646306301895" lon="9.7802912081788"><ele>361.1666666666667</ele><time>2026-03-28T15:14:51Z</time></trkpt><trkpt lat="44.799685008175814" lon="9.7803751482695"><ele>362.0</ele><time>2026-03-28T15:14:52Z</time></trkpt><trkpt lat="44.79968415602261" lon="9.780539626918163"><ele>362.0</ele><time>2026-03-28T15:14:54Z</time></trkpt><trkpt lat="44.799650501949344" lon="9.780710263895761"><ele>362.0</ele><time>2026-03-28T15:14:56Z</time></trkpt><trkpt lat="44.799640789912544" lon="9.78080672954341"><ele>362.0</ele><time>2026-03-28T15:14:57Z</time></trkpt><trkpt lat="44.79965433146102" lon="9.780918937228602"><ele>362.0</ele><time>2026-03-28T15:14:58Z</time></trkpt><trkpt lat="44.79969662482264" lon="9.78102300068671"><ele>362.0</ele><time>2026-03-28T15:14:59Z</time></trkpt><trkpt lat="44.799760882554025" lon="9.78109310862284"><ele>362.0</ele><time>2026-03-28T15:15:00Z</time></trkpt><trkpt lat="44.79982557066807" lon="9.781140755986572"><ele>362.7142857142857</ele><time>2026-03-28T15:15:01Z</time></trkpt><trkpt lat="44.79987719522106" lon="9.78120510712137"><ele>363.42857142857144</ele><time>2026-03-28T15:15:02Z</time></trkpt><trkpt lat="44.799937356667535" lon="9.78125740892337"><ele>364.1428571428571</ele><time>2026-03-28T15:15:03Z</time></trkpt><trkpt lat="44.80000199304696" lon="9.781291483824194"><ele>364.8571428571429</ele><time>2026-03-28T15:15:04Z</time></trkpt><trkpt lat="44.80006432693435" lon="9.781325131495906"><ele>365.5714285714286</ele><time>2026-03-28T15:15:05Z</time></trkpt><trkpt lat="44.800126481103284" lon="9.781359658697696"><ele>366.2857142857143</ele><time>2026-03-28T15:15:06Z</time></trkpt><trkpt lat="44.800189225208236" lon="9.781392487625697"><ele>367.0</ele><time>2026-03-28T15:15:07Z</time></trkpt><trkpt lat="44.8002517815394" lon="9.781429793415445"><ele>367.0</ele><time>2026-03-28T15:15:08Z</time></trkpt><trkpt lat="44.80031282895679" lon="9.78146894383342"><ele>367.0</ele><time>2026-03-28T15:15:09Z</time></trkpt><trkpt lat="44.80037184786242" lon="9.781507668848098"><ele>367.0</ele><time>2026-03-28T15:15:10Z</time></trkpt><trkpt lat="44.80043322271151" lon="9.781536888387349"><ele>367.0</ele><time>2026-03-28T15:15:11Z</time></trkpt><trkpt lat="44.8004927574311" lon="9.781568146005785"><ele>367.0</ele><time>2026-03-28T15:15:12Z</time></trkpt><trkpt lat="44.80055307474685" lon="9.781601588268911"><ele>367.0</ele><time>2026-03-28T15:15:13Z</time></trkpt><trkpt lat="44.8006121362845" lon="9.781635302465721"><ele>367.0</ele><time>2026-03-28T15:15:14Z</time></trkpt><trkpt lat="44.800674531786406" lon="9.781669748864596"><ele>367.0</ele><time>2026-03-28T15:15:15Z</time></trkpt><trkpt lat="44.80073285904888" lon="9.781709579585138"><ele>367.0</ele><time>2026-03-28T15:15:16Z</time></trkpt><trkpt lat="44.80083892744861" lon="9.78180949840498"><ele>367.0</ele><time>2026-03-28T15:15:18Z</time></trkpt><trkpt lat="44.800901200964894" lon="9.781962334652142"><ele>367.0</ele><time>2026-03-28T15:15:20Z</time></trkpt><trkpt lat="44.80091841697831" lon="9.782047834355684"><ele>367.0</ele><time>2026-03-28T15:15:21Z</time></trkpt><trkpt lat="44.80094984355918" lon="9.782219702121754"><ele>366.7142857142857</ele><time>2026-03-28T15:15:23Z</time></trkpt><trkpt lat="44.800964228326755" lon="9.782307184365227"><ele>366.42857142857144</ele><time>2026-03-28T15:15:24Z</time></trkpt><trkpt lat="44.8009795810459" lon="9.782404220758039"><ele>366.14285714285717</ele><time>2026-03-28T15:15:25Z</time></trkpt><trkpt lat="44.80099382128536" lon="9.782498604173545"><ele>365.8571428571429</ele><time>2026-03-28T15:15:26Z</time></trkpt><trkpt lat="44.801007169011214" lon="9.78259357957926"><ele>365.57142857142856</ele><time>2026-03-28T15:15:27Z</time></trkpt><trkpt lat="44.80102030119937" lon="9.78269026306081"><ele>365.28571428571433</ele><time>2026-03-28T15:15:28Z</time></trkpt><trkpt lat="44.801033947597574" lon="9.782782195093972"><ele>365.0</ele><time>2026-03-28T15:15:29Z</time></trkpt><trkpt lat="44.801047261014666" lon="9.782871708516987"><ele>368.25</ele><time>2026-03-28T15:15:30Z</time></trkpt><trkpt lat="44.801076667801844" lon="9.783039641535341"><ele>371.5</ele><time>2026-03-28T15:15:32Z</time></trkpt><trkpt lat="44.801099974584034" lon="9.783198904886724"><ele>374.75</ele><time>2026-03-28T15:15:34Z</time></trkpt><trkpt lat="44.80112777831509" lon="9.783352034168177"><ele>378.0</ele><time>2026-03-28T15:15:35.999Z</time></trkpt><trkpt lat="44.80115851597584" lon="9.783512612876605"><ele>377.3333333333333</ele><time>2026-03-28T15:15:37.999Z</time></trkpt><trkpt lat="44.801190609893204" lon="9.78367314183062"><ele>376.6666666666667</ele><time>2026-03-28T15:15:39.999Z</time></trkpt><trkpt lat="44.801213942618546" lon="9.783759338061687"><ele>376.0</ele><time>2026-03-28T15:15:40.999Z</time></trkpt><trkpt lat="44.80124457600594" lon="9.783851758211538"><ele>375.33333333333337</ele><time>2026-03-28T15:15:41.999Z</time></trkpt><trkpt lat="44.80127922574807" lon="9.783949459881656"><ele>374.6666666666667</ele><time>2026-03-28T15:15:42.999Z</time></trkpt><trkpt lat="44.801320774326236" lon="9.78405290452492"><ele>374.0</ele><time>2026-03-28T15:15:43.999Z</time></trkpt><trkpt lat="44.801366532708876" lon="9.784160098991384"><ele>374.0</ele><time>2026-03-28T15:15:44.999Z</time></trkpt><trkpt lat="44.80141332445624" lon="9.78426271428863"><ele>374.0</ele><time>2026-03-28T15:15:45.999Z</time></trkpt><trkpt lat="44.80146276322113" lon="9.784350669926138"><ele>374.0</ele><time>2026-03-28T15:15:46.999Z</time></trkpt><trkpt lat="44.80151227193677" lon="9.784421349051316"><ele>374.0</ele><time>2026-03-28T15:15:47.999Z</time></trkpt><trkpt lat="44.8015576280754" lon="9.78449179884052"><ele>374.0</ele><time>2026-03-28T15:15:48.999Z</time></trkpt><trkpt lat="44.80164035929556" lon="9.78462176618351"><ele>374.0</ele><time>2026-03-28T15:15:50.999Z</time></trkpt><trkpt lat="44.801718550905285" lon="9.784727940933818"><ele>374.0</ele><time>2026-03-28T15:15:52.999Z</time></trkpt><trkpt lat="44.80180881104188" lon="9.784815179295816"><ele>374.0</ele><time>2026-03-28T15:15:54.999Z</time></trkpt><trkpt lat="44.80191208935448" lon="9.784864220423861"><ele>374.0</ele><time>2026-03-28T15:15:56.999Z</time></trkpt><trkpt lat="44.80202922274315" lon="9.784886111608293"><ele>374.0</ele><time>2026-03-28T15:15:58.999Z</time></trkpt><trkpt lat="44.802140255568325" lon="9.78488302801587"><ele>374.0</ele><time>2026-03-28T15:16:00.999Z</time></trkpt><trkpt lat="44.802245533716004" lon="9.78487206070933"><ele>374.0</ele><time>2026-03-28T15:16:02.999Z</time></trkpt><trkpt lat="44.80234985323469" lon="9.784861655316812"><ele>374.0</ele><time>2026-03-28T15:16:04.999Z</time></trkpt><trkpt lat="44.80245948760074" lon="9.784852464287349"><ele>374.0</ele><time>2026-03-28T15:16:06.999Z</time></trkpt><trkpt lat="44.802571553373184" lon="9.784857154390357"><ele>374.0</ele><time>2026-03-28T15:16:08.999Z</time></trkpt><trkpt lat="44.80268081099478" lon="9.784893246594699"><ele>374.0</ele><time>2026-03-28T15:16:10.999Z</time></trkpt><trkpt lat="44.802782828912484" lon="9.784958498908015"><ele>376.2</ele><time>2026-03-28T15:16:12.999Z</time></trkpt><trkpt lat="44.80287340656173" lon="9.785046642338253"><ele>378.4</ele><time>2026-03-28T15:16:14.999Z</time></trkpt><trkpt lat="44.802946148755176" lon="9.785163697641659"><ele>380.6</ele><time>2026-03-28T15:16:16.999Z</time></trkpt><trkpt lat="44.80300385824401" lon="9.785291393766618"><ele>382.8</ele><time>2026-03-28T15:16:18.999Z</time></trkpt><trkpt lat="44.80304338221373" lon="9.785425667284912"><ele>385.0</ele><time>2026-03-28T15:16:20.999Z</time></trkpt><trkpt lat="44.803079249588585" lon="9.785568439538066"><ele>385.0</ele><time>2026-03-28T15:16:22.999Z</time></trkpt><trkpt lat="44.80310184298165" lon="9.78570971143171"><ele>385.0</ele><time>2026-03-28T15:16:24.999Z</time></trkpt><trkpt lat="44.8031083691085" lon="9.785854097602702"><ele>385.0</ele><time>2026-03-28T15:16:26.999Z</time></trkpt><trkpt lat="44.80310889757949" lon="9.785999851650494"><ele>385.0</ele><time>2026-03-28T15:16:28.998Z</time></trkpt><trkpt lat="44.80310515368412" lon="9.786148860333737"><ele>385.0</ele><time>2026-03-28T15:16:30.998Z</time></trkpt><trkpt lat="44.803099389737014" lon="9.786301036068807"><ele>384.0</ele><time>2026-03-28T15:16:32.998Z</time></trkpt><trkpt lat="44.80309194483092" lon="9.786456757574681"><ele>383.0</ele><time>2026-03-28T15:16:34.998Z</time></trkpt><trkpt lat="44.803100894224734" lon="9.786608246928642"><ele>382.0</ele><time>2026-03-28T15:16:36.998Z</time></trkpt><trkpt lat="44.80316854923617" lon="9.786735474893112"><ele>381.0</ele><time>2026-03-28T15:16:38.998Z</time></trkpt><trkpt lat="44.803273478242474" lon="9.78681249623206"><ele>382.3333333333333</ele><time>2026-03-28T15:16:40.998Z</time></trkpt><trkpt lat="44.80333333939713" lon="9.786844937635525"><ele>383.66666666666663</ele><time>2026-03-28T15:16:41.998Z</time></trkpt><trkpt lat="44.803393550834905" lon="9.786877364147111"><ele>385.0</ele><time>2026-03-28T15:16:42.998Z</time></trkpt><trkpt lat="44.80351013050244" lon="9.786936221281586"><ele>386.3333333333333</ele><time>2026-03-28T15:16:44.998Z</time></trkpt><trkpt lat="44.8035711032708" lon="9.786967989999754"><ele>387.66666666666663</ele><time>2026-03-28T15:16:45.998Z</time></trkpt><trkpt lat="44.803632381639325" lon="9.786997457394756"><ele>389.0</ele><time>2026-03-28T15:16:46.998Z</time></trkpt><trkpt lat="44.80369513423355" lon="9.78703228052705"><ele>388.99999999999994</ele><time>2026-03-28T15:16:48Z</time></trkpt><trkpt lat="44.80375682973274" lon="9.787071826002167"><ele>389.0</ele><time>2026-03-28T15:16:49Z</time></trkpt><trkpt lat="44.80381538119046" lon="9.787119161939993"><ele>389.0</ele><time>2026-03-28T15:16:50Z</time></trkpt><trkpt lat="44.80386880204669" lon="9.787181371155368"><ele>389.0</ele><time>2026-03-28T15:16:51Z</time></trkpt><trkpt lat="44.80391342439735" lon="9.787253004651259"><ele>388.99999999999994</ele><time>2026-03-28T15:16:52Z</time></trkpt><trkpt lat="44.803948566450714" lon="9.787326922197474"><ele>389.0</ele><time>2026-03-28T15:16:53Z</time></trkpt><trkpt lat="44.80400397131887" lon="9.787476499297126"><ele>389.0</ele><time>2026-03-28T15:16:55Z</time></trkpt><trkpt lat="44.804049639643544" lon="9.787629461404968"><ele>389.0</ele><time>2026-03-28T15:16:57Z</time></trkpt><trkpt lat="44.80408224758434" lon="9.787782749194417"><ele>389.0</ele><time>2026-03-28T15:16:59Z</time></trkpt><trkpt lat="44.80409796016737" lon="9.787946143154224"><ele>389.0</ele><time>2026-03-28T15:17:01Z</time></trkpt><trkpt lat="44.804096371521275" lon="9.788098305305699"><ele>389.0</ele><time>2026-03-28T15:17:03Z</time></trkpt><trkpt lat="44.80408134353832" lon="9.788237582764545"><ele>389.0</ele><time>2026-03-28T15:17:05Z</time></trkpt><trkpt lat="44.804063215563" lon="9.788372830904862"><ele>389.0</ele><time>2026-03-28T15:17:07Z</time></trkpt><trkpt lat="44.804041046496465" lon="9.788508223272816"><ele>389.0</ele><time>2026-03-28T15:17:09Z</time></trkpt><trkpt lat="44.80402485056549" lon="9.78864956159486"><ele>389.0</ele><time>2026-03-28T15:17:11Z</time></trkpt><trkpt lat="44.80402948998999" lon="9.788785859492044"><ele>388.6</ele><time>2026-03-28T15:17:13Z</time></trkpt><trkpt lat="44.80408162957394" lon="9.788908983816862"><ele>388.2</ele><time>2026-03-28T15:17:15Z</time></trkpt><trkpt lat="44.80415936504703" lon="9.788994447607475"><ele>387.8</ele><time>2026-03-28T15:17:17Z</time></trkpt><trkpt lat="44.804235640337076" lon="9.789072505246052"><ele>387.40000000000003</ele><time>2026-03-28T15:17:19Z</time></trkpt><trkpt lat="44.80431395922821" lon="9.789155831657103"><ele>387.0</ele><time>2026-03-28T15:17:21Z</time></trkpt><trkpt lat="44.80439591124375" lon="9.789253142321359"><ele>387.0</ele><time>2026-03-28T15:17:23Z</time></trkpt><trkpt lat="44.80448249950477" lon="9.789352700873765"><ele>387.0</ele><time>2026-03-28T15:17:25Z</time></trkpt><trkpt lat="44.80458307973285" lon="9.789460066660682"><ele>387.0</ele><time>2026-03-28T15:17:27Z</time></trkpt><trkpt lat="44.80463763230776" lon="9.789515253873345"><ele>387.0</ele><time>2026-03-28T15:17:28Z</time></trkpt><trkpt lat="44.80469341499487" lon="9.789569055875214"><ele>387.0</ele><time>2026-03-28T15:17:29Z</time></trkpt><trkpt lat="44.804751353691096" lon="9.789625761707834"><ele>387.0</ele><time>2026-03-28T15:17:30Z</time></trkpt><trkpt lat="44.804808215508096" lon="9.789685641337579"><ele>387.0</ele><time>2026-03-28T15:17:31Z</time></trkpt><trkpt lat="44.80486696022654" lon="9.789747382358334"><ele>387.0</ele><time>2026-03-28T15:17:32Z</time></trkpt><trkpt lat="44.80492706225792" lon="9.789807767306288"><ele>387.0</ele><time>2026-03-28T15:17:33Z</time></trkpt><trkpt lat="44.80498769509304" lon="9.789867266799767"><ele>387.0</ele><time>2026-03-28T15:17:34Z</time></trkpt><trkpt lat="44.80504705707311" lon="9.789921910630127"><ele>387.0</ele><time>2026-03-28T15:17:35Z</time></trkpt><trkpt lat="44.805093477025274" lon="9.789993035212936"><ele>387.0</ele><time>2026-03-28T15:17:36Z</time></trkpt><trkpt lat="44.80513723120316" lon="9.790058610074935"><ele>387.0</ele><time>2026-03-28T15:17:37Z</time></trkpt><trkpt lat="44.805172228703924" lon="9.79013424388237"><ele>389.0</ele><time>2026-03-28T15:17:38Z</time></trkpt><trkpt lat="44.8051993368069" lon="9.79022615596217"><ele>391.0</ele><time>2026-03-28T15:17:39Z</time></trkpt><trkpt lat="44.805219069441485" lon="9.790323007508135"><ele>393.0</ele><time>2026-03-28T15:17:39.999Z</time></trkpt><trkpt lat="44.80522286750772" lon="9.790427389158172"><ele>395.0</ele><time>2026-03-28T15:17:40.999Z</time></trkpt><trkpt lat="44.80522019462922" lon="9.790533676128305"><ele>397.0</ele><time>2026-03-28T15:17:41.999Z</time></trkpt><trkpt lat="44.80521435820031" lon="9.790633330045525"><ele>399.0</ele><time>2026-03-28T15:17:42.999Z</time></trkpt><trkpt lat="44.80521161708562" lon="9.790722444228614"><ele>401.0</ele><time>2026-03-28T15:17:43.999Z</time></trkpt><trkpt lat="44.80520091905843" lon="9.790889362367757"><ele>400.99999999999994</ele><time>2026-03-28T15:17:45.999Z</time></trkpt><trkpt lat="44.805176427343426" lon="9.790973859381848"><ele>401.0</ele><time>2026-03-28T15:17:46.999Z</time></trkpt><trkpt lat="44.80520164982548" lon="9.79114704289344"><ele>401.0</ele><time>2026-03-28T15:17:48.999Z</time></trkpt><trkpt lat="44.805205519676775" lon="9.791237083905019"><ele>401.0</ele><time>2026-03-28T15:17:49.999Z</time></trkpt><trkpt lat="44.80520680289809" lon="9.791414774493154"><ele>400.99999999999994</ele><time>2026-03-28T15:17:51.999Z</time></trkpt><trkpt lat="44.80520886358149" lon="9.791508166072209"><ele>401.0</ele><time>2026-03-28T15:17:52.999Z</time></trkpt><trkpt lat="44.805207919080274" lon="9.791598755677569"><ele>400.75</ele><time>2026-03-28T15:17:53.999Z</time></trkpt><trkpt lat="44.80520670410968" lon="9.79176831972636"><ele>400.5</ele><time>2026-03-28T15:17:55.999Z</time></trkpt><trkpt lat="44.80523633545844" lon="9.791932691295031"><ele>400.25</ele><time>2026-03-28T15:17:57.999Z</time></trkpt><trkpt lat="44.80532295299003" lon="9.792052852716946"><ele>400.0</ele><time>2026-03-28T15:17:59.999Z</time></trkpt><trkpt lat="44.8054348610726" lon="9.792125605652746"><ele>398.5</ele><time>2026-03-28T15:18:01.999Z</time></trkpt><trkpt lat="44.805541254968155" lon="9.792200638096094"><ele>397.0</ele><time>2026-03-28T15:18:03.999Z</time></trkpt><trkpt lat="44.80564370573645" lon="9.79228585703599"><ele>395.5</ele><time>2026-03-28T15:18:05.999Z</time></trkpt><trkpt lat="44.805741301630164" lon="9.792387789778733"><ele>394.0</ele><time>2026-03-28T15:18:07.999Z</time></trkpt><trkpt lat="44.805814683703396" lon="9.792515623163887"><ele>394.0</ele><time>2026-03-28T15:18:09.999Z</time></trkpt><trkpt lat="44.80586869508745" lon="9.792671826940278"><ele>394.0</ele><time>2026-03-28T15:18:11.999Z</time></trkpt><trkpt lat="44.805906132628714" lon="9.792829373303071"><ele>394.0</ele><time>2026-03-28T15:18:13.999Z</time></trkpt><trkpt lat="44.805917552405575" lon="9.792996791983414"><ele>394.0</ele><time>2026-03-28T15:18:15.999Z</time></trkpt><trkpt lat="44.805928844622436" lon="9.793166305047533"><ele>393.5</ele><time>2026-03-28T15:18:17.999Z</time></trkpt><trkpt lat="44.80594464302146" lon="9.793337583949027"><ele>393.0</ele><time>2026-03-28T15:18:19.999Z</time></trkpt><trkpt lat="44.80597413657539" lon="9.793500504953723"><ele>392.5</ele><time>2026-03-28T15:18:21.999Z</time></trkpt><trkpt lat="44.80602050996045" lon="9.793657008239938"><ele>392.0</ele><time>2026-03-28T15:18:23.999Z</time></trkpt><trkpt lat="44.80610644453262" lon="9.79377363140242"><ele>392.0</ele><time>2026-03-28T15:18:25.999Z</time></trkpt><trkpt lat="44.80616191231129" lon="9.793819942103275"><ele>392.0</ele><time>2026-03-28T15:18:26.999Z</time></trkpt><trkpt lat="44.80622142233579" lon="9.793856264889554"><ele>392.0</ele><time>2026-03-28T15:18:27.999Z</time></trkpt><trkpt lat="44.80627965493001" lon="9.793893136634434"><ele>392.0</ele><time>2026-03-28T15:18:28.999Z</time></trkpt><trkpt lat="44.8063447325174" lon="9.793934679600042"><ele>392.0</ele><time>2026-03-28T15:18:29.999Z</time></trkpt><trkpt lat="44.80641076452408" lon="9.793976665062965"><ele>392.0</ele><time>2026-03-28T15:18:30.999Z</time></trkpt><trkpt lat="44.80647604777626" lon="9.794013980719244"><ele>392.0</ele><time>2026-03-28T15:18:31.999Z</time></trkpt><trkpt lat="44.80653967553253" lon="9.794052497647279"><ele>391.99999999999994</ele><time>2026-03-28T15:18:32.998Z</time></trkpt><trkpt lat="44.8066029753101" lon="9.794094661544925"><ele>392.0</ele><time>2026-03-28T15:18:33.998Z</time></trkpt><trkpt lat="44.80667066459055" lon="9.794131869880296"><ele>392.0</ele><time>2026-03-28T15:18:34.998Z</time></trkpt><trkpt lat="44.80674223530326" lon="9.794162409771369"><ele>392.0</ele><time>2026-03-28T15:18:35.998Z</time></trkpt><trkpt lat="44.806816609223546" lon="9.79418560007123"><ele>391.99999999999994</ele><time>2026-03-28T15:18:36.998Z</time></trkpt><trkpt lat="44.80689564261666" lon="9.79420932025256"><ele>392.0</ele><time>2026-03-28T15:18:37.998Z</time></trkpt><trkpt lat="44.806974838354655" lon="9.794242140412008"><ele>392.8333333333333</ele><time>2026-03-28T15:18:38.998Z</time></trkpt><trkpt lat="44.807060485764154" lon="9.79427860523893"><ele>393.66666666666663</ele><time>2026-03-28T15:18:39.998Z</time></trkpt><trkpt lat="44.80714461346191" lon="9.794311595285464"><ele>394.5</ele><time>2026-03-28T15:18:40.998Z</time></trkpt><trkpt lat="44.80722372591568" lon="9.79433686834174"><ele>395.33333333333337</ele><time>2026-03-28T15:18:41.998Z</time></trkpt><trkpt lat="44.80729059121294" lon="9.794375592618547"><ele>396.1666666666667</ele><time>2026-03-28T15:18:42.998Z</time></trkpt><trkpt lat="44.807313726778354" lon="9.79447206326188"><ele>397.0</ele><time>2026-03-28T15:18:43.998Z</time></trkpt><trkpt lat="44.807333765565694" lon="9.794556984583412"><ele>397.0</ele><time>2026-03-28T15:18:44.998Z</time></trkpt><trkpt lat="44.807347654869645" lon="9.794650142736153"><ele>397.0</ele><time>2026-03-28T15:18:45.998Z</time></trkpt><trkpt lat="44.807357293371034" lon="9.794748391740907"><ele>397.0</ele><time>2026-03-28T15:18:46.998Z</time></trkpt><trkpt lat="44.807366125199316" lon="9.794850721006966"><ele>397.0</ele><time>2026-03-28T15:18:47.998Z</time></trkpt><trkpt lat="44.80737506007083" lon="9.794960058082157"><ele>397.0</ele><time>2026-03-28T15:18:48.998Z</time></trkpt><trkpt lat="44.807378113759086" lon="9.79506946904348"><ele>397.0</ele><time>2026-03-28T15:18:49.998Z</time></trkpt><trkpt lat="44.80736822393272" lon="9.795178756299817"><ele>397.0</ele><time>2026-03-28T15:18:50.998Z</time></trkpt><trkpt lat="44.807350573221896" lon="9.795291043466207"><ele>395.83333333333337</ele><time>2026-03-28T15:18:51.998Z</time></trkpt><trkpt lat="44.80731375057682" lon="9.795379438534393"><ele>394.6666666666667</ele><time>2026-03-28T15:18:53Z</time></trkpt><trkpt lat="44.807257090728854" lon="9.795450892704364"><ele>393.5</ele><time>2026-03-28T15:18:54Z</time></trkpt><trkpt lat="44.8071836663252" lon="9.795506477448967"><ele>392.33333333333337</ele><time>2026-03-28T15:18:55Z</time></trkpt><trkpt lat="44.80711036611128" lon="9.795586398040957"><ele>391.1666666666667</ele><time>2026-03-28T15:18:56Z</time></trkpt><trkpt lat="44.80704968740176" lon="9.795703888427022"><ele>390.0</ele><time>2026-03-28T15:18:57Z</time></trkpt><trkpt lat="44.80701620333143" lon="9.795830200442692"><ele>390.0</ele><time>2026-03-28T15:18:58Z</time></trkpt><trkpt lat="44.80703326517024" lon="9.795967316475682"><ele>390.0</ele><time>2026-03-28T15:18:59Z</time></trkpt><trkpt lat="44.80707062210717" lon="9.796080059248824"><ele>390.0</ele><time>2026-03-28T15:19:00Z</time></trkpt><trkpt lat="44.807143789861485" lon="9.796151019775737"><ele>390.0</ele><time>2026-03-28T15:19:01Z</time></trkpt><trkpt lat="44.80723941196263" lon="9.796175307127463"><ele>390.0</ele><time>2026-03-28T15:19:02Z</time></trkpt><trkpt lat="44.807329251210724" lon="9.79616790307244"><ele>389.0</ele><time>2026-03-28T15:19:03Z</time></trkpt><trkpt lat="44.80741372614437" lon="9.796177718315073"><ele>388.0</ele><time>2026-03-28T15:19:04Z</time></trkpt><trkpt lat="44.807492495898444" lon="9.796233280804527"><ele>387.0</ele><time>2026-03-28T15:19:05Z</time></trkpt><trkpt lat="44.80752977885113" lon="9.79634158603941"><ele>386.0</ele><time>2026-03-28T15:19:06Z</time></trkpt><trkpt lat="44.80751496534917" lon="9.796459029892114"><ele>385.0</ele><time>2026-03-28T15:19:07Z</time></trkpt><trkpt lat="44.80753282305201" lon="9.796576640744156"><ele>384.0</ele><time>2026-03-28T15:19:08Z</time></trkpt><trkpt lat="44.8075580079054" lon="9.796706530230113"><ele>384.0</ele><time>2026-03-28T15:19:09Z</time></trkpt><trkpt lat="44.8075900894677" lon="9.796819707316757"><ele>384.0</ele><time>2026-03-28T15:19:10Z</time></trkpt><trkpt lat="44.80763870063208" lon="9.796932850545087"><ele>384.0</ele><time>2026-03-28T15:19:11Z</time></trkpt><trkpt lat="44.80768476617501" lon="9.79705315030968"><ele>384.0</ele><time>2026-03-28T15:19:12Z</time></trkpt><trkpt lat="44.807729106222624" lon="9.797173480370997"><ele>384.0</ele><time>2026-03-28T15:19:13Z</time></trkpt><trkpt lat="44.80777006087086" lon="9.79729913114388"><ele>383.79999999999995</ele><time>2026-03-28T15:19:14Z</time></trkpt><trkpt lat="44.80781297055141" lon="9.797415681477823"><ele>383.59999999999997</ele><time>2026-03-28T15:19:15Z</time></trkpt><trkpt lat="44.807857758651984" lon="9.797529314036675"><ele>383.4</ele><time>2026-03-28T15:19:16Z</time></trkpt><trkpt lat="44.80790611181071" lon="9.797640469798788"><ele>383.2</ele><time>2026-03-28T15:19:17Z</time></trkpt><trkpt lat="44.80796438143843" lon="9.79774513262997"><ele>383.0</ele><time>2026-03-28T15:19:18Z</time></trkpt><trkpt lat="44.80803708491398" lon="9.79783117424809"><ele>380.0</ele><time>2026-03-28T15:19:19Z</time></trkpt><trkpt lat="44.80810294768262" lon="9.797935470970833"><ele>377.0</ele><time>2026-03-28T15:19:20Z</time></trkpt><trkpt lat="44.80818459315052" lon="9.798011784087414"><ele>374.0</ele><time>2026-03-28T15:19:21Z</time></trkpt><trkpt lat="44.808264914756464" lon="9.798077984972908"><ele>371.0</ele><time>2026-03-28T15:19:22Z</time></trkpt><trkpt lat="44.80834950655592" lon="9.798132125456608"><ele>368.0</ele><time>2026-03-28T15:19:23Z</time></trkpt><trkpt lat="44.80843803672727" lon="9.798149937319142"><ele>368.83333333333337</ele><time>2026-03-28T15:19:24Z</time></trkpt><trkpt lat="44.80852735358046" lon="9.798146959520292"><ele>369.6666666666667</ele><time>2026-03-28T15:19:25Z</time></trkpt><trkpt lat="44.808613724120995" lon="9.798109187524382"><ele>370.5</ele><time>2026-03-28T15:19:26Z</time></trkpt><trkpt lat="44.80869038771709" lon="9.798074938872245"><ele>371.3333333333333</ele><time>2026-03-28T15:19:27Z</time></trkpt><trkpt lat="44.80876165663843" lon="9.798040668780661"><ele>372.16666666666663</ele><time>2026-03-28T15:19:28Z</time></trkpt><trkpt lat="44.80882840158872" lon="9.798020448793629"><ele>373.0</ele><time>2026-03-28T15:19:29Z</time></trkpt><trkpt lat="44.80889429376099" lon="9.798038685348219"><ele>373.0</ele><time>2026-03-28T15:19:30Z</time></trkpt><trkpt lat="44.80896236616973" lon="9.798111865865776"><ele>373.0</ele><time>2026-03-28T15:19:31Z</time></trkpt><trkpt lat="44.80900595632976" lon="9.798219341067236"><ele>373.0</ele><time>2026-03-28T15:19:32Z</time></trkpt><trkpt lat="44.80904498117515" lon="9.798325448251248"><ele>373.0</ele><time>2026-03-28T15:19:33Z</time></trkpt><trkpt lat="44.809066953942086" lon="9.798431824056705"><ele>373.0</ele><time>2026-03-28T15:19:34Z</time></trkpt><trkpt lat="44.8090933954365" lon="9.798576144480814"><ele>373.0</ele><time>2026-03-28T15:19:35Z</time></trkpt><trkpt lat="44.80909704159849" lon="9.79871684647969"><ele>370.25</ele><time>2026-03-28T15:19:36Z</time></trkpt><trkpt lat="44.80910958781868" lon="9.798865671262316"><ele>367.5</ele><time>2026-03-28T15:19:37Z</time></trkpt><trkpt lat="44.80910750899641" lon="9.79901542262526"><ele>364.75</ele><time>2026-03-28T15:19:38Z</time></trkpt><trkpt lat="44.80914000192405" lon="9.79920943851719"><ele>362.0</ele><time>2026-03-28T15:19:39Z</time></trkpt><trkpt lat="44.809199714465166" lon="9.799321858211142"><ele>361.40000000000003</ele><time>2026-03-28T15:19:40Z</time></trkpt><trkpt lat="44.809275087428624" lon="9.799397738011711"><ele>360.8</ele><time>2026-03-28T15:19:41Z</time></trkpt><trkpt lat="44.80935093182939" lon="9.799479928723768"><ele>360.2</ele><time>2026-03-28T15:19:41.999Z</time></trkpt><trkpt lat="44.80942436686719" lon="9.79956895292316"><ele>359.6</ele><time>2026-03-28T15:19:42.999Z</time></trkpt><trkpt lat="44.80951000687301" lon="9.79967328162723"><ele>359.0</ele><time>2026-03-28T15:19:43.999Z</time></trkpt><trkpt lat="44.80958728844962" lon="9.799780354182259"><ele>359.0</ele><time>2026-03-28T15:19:44.999Z</time></trkpt><trkpt lat="44.80966193562222" lon="9.799876632399492"><ele>359.0</ele><time>2026-03-28T15:19:45.999Z</time></trkpt><trkpt lat="44.80975189989603" lon="9.799922577284187"><ele>359.0</ele><time>2026-03-28T15:19:46.999Z</time></trkpt><trkpt lat="44.80984345681039" lon="9.799925886124527"><ele>359.0</ele><time>2026-03-28T15:19:47.999Z</time></trkpt><trkpt lat="44.8099197341338" lon="9.799951477821242"><ele>359.0</ele><time>2026-03-28T15:19:48.999Z</time></trkpt><trkpt lat="44.809987546127786" lon="9.799992150611372"><ele>359.0</ele><time>2026-03-28T15:19:49.999Z</time></trkpt><trkpt lat="44.81000847622566" lon="9.800086050268698"><ele>356.0</ele><time>2026-03-28T15:19:50.999Z</time></trkpt><trkpt lat="44.80997665347756" lon="9.800194907226544"><ele>353.0</ele><time>2026-03-28T15:19:51.999Z</time></trkpt><trkpt lat="44.80988794360715" lon="9.800247538112004"><ele>350.0</ele><time>2026-03-28T15:19:52.999Z</time></trkpt><trkpt lat="44.809838435198664" lon="9.800356573255144"><ele>347.0</ele><time>2026-03-28T15:19:53.999Z</time></trkpt><trkpt lat="44.809794321734344" lon="9.800457524036668"><ele>344.0</ele><time>2026-03-28T15:19:54.999Z</time></trkpt><trkpt lat="44.809770372641815" lon="9.800586608646988"><ele>344.0</ele><time>2026-03-28T15:19:55.999Z</time></trkpt><trkpt lat="44.80977546482608" lon="9.800729539403212"><ele>344.0</ele><time>2026-03-28T15:19:56.999Z</time></trkpt><trkpt lat="44.8098132235756" lon="9.800821493524793"><ele>344.0</ele><time>2026-03-28T15:19:57.999Z</time></trkpt><trkpt lat="44.80989442461856" lon="9.800938473199706"><ele>344.0</ele><time>2026-03-28T15:19:58.999Z</time></trkpt><trkpt lat="44.8099555427557" lon="9.801068182170285"><ele>344.0</ele><time>2026-03-28T15:19:59.999Z</time></trkpt><trkpt lat="44.810007182179746" lon="9.801223264099221"><ele>345.25</ele><time>2026-03-28T15:20:00.999Z</time></trkpt><trkpt lat="44.81005385845329" lon="9.801378958698258"><ele>346.5</ele><time>2026-03-28T15:20:01.999Z</time></trkpt><trkpt lat="44.81009707923973" lon="9.801544583439943"><ele>347.75</ele><time>2026-03-28T15:20:02.999Z</time></trkpt><trkpt lat="44.810157395128456" lon="9.801738810920249"><ele>349.0</ele><time>2026-03-28T15:20:03.999Z</time></trkpt><trkpt lat="44.810199286307935" lon="9.801888128027347"><ele>349.0</ele><time>2026-03-28T15:20:04.999Z</time></trkpt><trkpt lat="44.810246499980025" lon="9.80202840672602"><ele>349.0</ele><time>2026-03-28T15:20:05.999Z</time></trkpt><trkpt lat="44.81029134446945" lon="9.802160721434182"><ele>349.0</ele><time>2026-03-28T15:20:06.999Z</time></trkpt><trkpt lat="44.81033093188977" lon="9.802291265442415"><ele>349.0</ele><time>2026-03-28T15:20:07.999Z</time></trkpt><trkpt lat="44.81035362184394" lon="9.802425556661225"><ele>349.0</ele><time>2026-03-28T15:20:08.999Z</time></trkpt><trkpt lat="44.81035362094816" lon="9.802559612300703"><ele>347.6</ele><time>2026-03-28T15:20:09.999Z</time></trkpt><trkpt lat="44.810340475694076" lon="9.802695493216163"><ele>346.2</ele><time>2026-03-28T15:20:10.999Z</time></trkpt><trkpt lat="44.81032652916246" lon="9.802824717275612"><ele>344.8</ele><time>2026-03-28T15:20:11.999Z</time></trkpt><trkpt lat="44.81032657613473" lon="9.802953348047858"><ele>343.40000000000003</ele><time>2026-03-28T15:20:12.999Z</time></trkpt><trkpt lat="44.810352304731886" lon="9.803082309133844"><ele>342.0</ele><time>2026-03-28T15:20:13.999Z</time></trkpt><trkpt lat="44.8103991319332" lon="9.803204195133015"><ele>342.0</ele><time>2026-03-28T15:20:14.999Z</time></trkpt><trkpt lat="44.8104555329196" lon="9.80331648151823"><ele>342.0</ele><time>2026-03-28T15:20:15.999Z</time></trkpt><trkpt lat="44.810524393854934" lon="9.803419142714443"><ele>342.0</ele><time>2026-03-28T15:20:16.999Z</time></trkpt><trkpt lat="44.81060867499647" lon="9.80351305059371"><ele>342.0</ele><time>2026-03-28T15:20:17.999Z</time></trkpt><trkpt lat="44.81068553669357" lon="9.8036302602217"><ele>342.0</ele><time>2026-03-28T15:20:18.999Z</time></trkpt><trkpt lat="44.810789619032576" lon="9.803710097467551"><ele>339.6</ele><time>2026-03-28T15:20:19.999Z</time></trkpt><trkpt lat="44.81088969666849" lon="9.803771399616634"><ele>337.20000000000005</ele><time>2026-03-28T15:20:20.999Z</time></trkpt><trkpt lat="44.8109839751046" lon="9.803822416809313"><ele>334.8</ele><time>2026-03-28T15:20:21.999Z</time></trkpt><trkpt lat="44.811077432553084" lon="9.803850398112937"><ele>332.4</ele><time>2026-03-28T15:20:22.999Z</time></trkpt><trkpt lat="44.81116194300004" lon="9.803920484699049"><ele>330.0</ele><time>2026-03-28T15:20:23.999Z</time></trkpt><trkpt lat="44.81126916069854" lon="9.803952908163426"><ele>329.25</ele><time>2026-03-28T15:20:24.999Z</time></trkpt><trkpt lat="44.811387773935756" lon="9.803948865123559"><ele>328.5</ele><time>2026-03-28T15:20:25.999Z</time></trkpt><trkpt lat="44.811502843638706" lon="9.80390801014938"><ele>327.75</ele><time>2026-03-28T15:20:26.999Z</time></trkpt><trkpt lat="44.811623505348344" lon="9.803907368652832"><ele>327.0</ele><time>2026-03-28T15:20:27.999Z</time></trkpt><trkpt lat="44.811736668390154" lon="9.80389102845366"><ele>326.0</ele><time>2026-03-28T15:20:28.999Z</time></trkpt><trkpt lat="44.8118480483821" lon="9.803881817438342"><ele>325.0</ele><time>2026-03-28T15:20:29.999Z</time></trkpt><trkpt lat="44.81196247142555" lon="9.803886001349966"><ele>324.0</ele><time>2026-03-28T15:20:30.999Z</time></trkpt><trkpt lat="44.81208300218634" lon="9.803896478901049"><ele>323.0</ele><time>2026-03-28T15:20:31.999Z</time></trkpt><trkpt lat="44.812202077775524" lon="9.80391186259927"><ele>323.0</ele><time>2026-03-28T15:20:32.999Z</time></trkpt><trkpt lat="44.812315184653364" lon="9.803936856443402"><ele>323.0</ele><time>2026-03-28T15:20:33.999Z</time></trkpt><trkpt lat="44.81241917207059" lon="9.80397491918408"><ele>323.0</ele><time>2026-03-28T15:20:34.998Z</time></trkpt><trkpt lat="44.8125152157471" lon="9.803974778090712"><ele>323.0</ele><time>2026-03-28T15:20:35.998Z</time></trkpt><trkpt lat="44.812602930252275" lon="9.803996959024548"><ele>323.0</ele><time>2026-03-28T15:20:36.998Z</time></trkpt><trkpt lat="44.81269643734086" lon="9.80399230808166"><ele>323.5</ele><time>2026-03-28T15:20:37.998Z</time></trkpt><trkpt lat="44.812792914309995" lon="9.803973566422654"><ele>324.0</ele><time>2026-03-28T15:20:38.998Z</time></trkpt><trkpt lat="44.812881539061706" lon="9.803950496240615"><ele>324.5</ele><time>2026-03-28T15:20:39.998Z</time></trkpt><trkpt lat="44.812957770236814" lon="9.803974207210533"><ele>325.0</ele><time>2026-03-28T15:20:40.998Z</time></trkpt><trkpt lat="44.81303115970519" lon="9.804009361927907"><ele>325.5</ele><time>2026-03-28T15:20:41.998Z</time></trkpt><trkpt lat="44.81309711346068" lon="9.804075281951581"><ele>326.0</ele><time>2026-03-28T15:20:42.998Z</time></trkpt><trkpt lat="44.81312545547595" lon="9.804208397912287"><ele>325.0</ele><time>2026-03-28T15:20:43.998Z</time></trkpt><trkpt lat="44.81314065869918" lon="9.80434524357505"><ele>324.0</ele><time>2026-03-28T15:20:44.998Z</time></trkpt><trkpt lat="44.813163580574994" lon="9.804474920970149"><ele>323.0</ele><time>2026-03-28T15:20:45.998Z</time></trkpt><trkpt lat="44.8132028138621" lon="9.80458966305392"><ele>322.0</ele><time>2026-03-28T15:20:46.998Z</time></trkpt><trkpt lat="44.81325725653265" lon="9.804688843851544"><ele>321.0</ele><time>2026-03-28T15:20:47.998Z</time></trkpt><trkpt lat="44.81332557018633" lon="9.804776850813937"><ele>321.0</ele><time>2026-03-28T15:20:48.998Z</time></trkpt><trkpt lat="44.81340151338585" lon="9.804868276859194"><ele>321.0</ele><time>2026-03-28T15:20:49.998Z</time></trkpt><trkpt lat="44.81347992310098" lon="9.804954036628711"><ele>321.0</ele><time>2026-03-28T15:20:50.998Z</time></trkpt><trkpt lat="44.813560260250334" lon="9.8050424909148"><ele>321.0</ele><time>2026-03-28T15:20:51.998Z</time></trkpt><trkpt lat="44.81363853235489" lon="9.805131852978787"><ele>321.0</ele><time>2026-03-28T15:20:52.998Z</time></trkpt><trkpt lat="44.81371625180853" lon="9.805225054169204"><ele>320.8</ele><time>2026-03-28T15:20:53.998Z</time></trkpt><trkpt lat="44.81379410151635" lon="9.805316197380694"><ele>320.6</ele><time>2026-03-28T15:20:54.998Z</time></trkpt><trkpt lat="44.81387269582418" lon="9.805399023866356"><ele>320.4</ele><time>2026-03-28T15:20:55.998Z</time></trkpt><trkpt lat="44.813951017455125" lon="9.805486995788485"><ele>320.2</ele><time>2026-03-28T15:20:56.998Z</time></trkpt><trkpt lat="44.81402457166829" lon="9.805570579239882"><ele>320.0</ele><time>2026-03-28T15:20:57.998Z</time></trkpt><trkpt lat="44.81410344219913" lon="9.805647090135928"><ele>320.0</ele><time>2026-03-28T15:20:59Z</time></trkpt><trkpt lat="44.814187090863754" lon="9.805709824273396"><ele>320.0</ele><time>2026-03-28T15:21:00Z</time></trkpt><trkpt lat="44.81427438189581" lon="9.80577055204941"><ele>320.0</ele><time>2026-03-28T15:21:01Z</time></trkpt><trkpt lat="44.81435746106177" lon="9.80583423082834"><ele>320.0</ele><time>2026-03-28T15:21:02Z</time></trkpt><trkpt lat="44.814442280382295" lon="9.80588784462746"><ele>320.0</ele><time>2026-03-28T15:21:03Z</time></trkpt><trkpt lat="44.8145273259637" lon="9.805928805995634"><ele>319.83333333333337</ele><time>2026-03-28T15:21:04Z</time></trkpt><trkpt lat="44.81460738047029" lon="9.80598023784068"><ele>319.6666666666667</ele><time>2026-03-28T15:21:05Z</time></trkpt><trkpt lat="44.814686542885724" lon="9.806025404431184"><ele>319.5</ele><time>2026-03-28T15:21:06Z</time></trkpt><trkpt lat="44.81476186813764" lon="9.806078081046095"><ele>319.3333333333333</ele><time>2026-03-28T15:21:07Z</time></trkpt><trkpt lat="44.8148144622107" lon="9.806171706848877"><ele>319.16666666666663</ele><time>2026-03-28T15:21:08Z</time></trkpt><trkpt lat="44.81487597942082" lon="9.806250178756045"><ele>319.0</ele><time>2026-03-28T15:21:09Z</time></trkpt><trkpt lat="44.81494188439724" lon="9.806318747275458"><ele>319.0</ele><time>2026-03-28T15:21:10Z</time></trkpt><trkpt lat="44.81499933224863" lon="9.806400698179772"><ele>319.0</ele><time>2026-03-28T15:21:11Z</time></trkpt><trkpt lat="44.81506140919023" lon="9.806486045720423"><ele>319.0</ele><time>2026-03-28T15:21:12Z</time></trkpt><trkpt lat="44.81512536486305" lon="9.806574523417021"><ele>319.0</ele><time>2026-03-28T15:21:13Z</time></trkpt><trkpt lat="44.81518904687451" lon="9.806664732309624"><ele>319.0</ele><time>2026-03-28T15:21:14Z</time></trkpt><trkpt lat="44.81524802754974" lon="9.806762517818445"><ele>319.0</ele><time>2026-03-28T15:21:15Z</time></trkpt><trkpt lat="44.81530285129422" lon="9.806867873142536"><ele>318.3333333333333</ele><time>2026-03-28T15:21:16Z</time></trkpt><trkpt lat="44.81535602727656" lon="9.806980244283345"><ele>317.66666666666663</ele><time>2026-03-28T15:21:17Z</time></trkpt><trkpt lat="44.81541042183786" lon="9.807082456630027"><ele>317.0</ele><time>2026-03-28T15:21:18Z</time></trkpt><trkpt lat="44.815463879394926" lon="9.807165504442226"><ele>316.3333333333333</ele><time>2026-03-28T15:21:19Z</time></trkpt><trkpt lat="44.81551236847806" lon="9.807237128561946"><ele>315.6666666666667</ele><time>2026-03-28T15:21:20Z</time></trkpt><trkpt lat="44.81557052254563" lon="9.807360079411636"><ele>315.0</ele><time>2026-03-28T15:21:22Z</time></trkpt><trkpt lat="44.81559570289735" lon="9.807460148383377"><ele>315.0</ele><time>2026-03-28T15:21:26Z</time></trkpt><trkpt lat="44.81553480209419" lon="9.807404094673538"><ele>315.0</ele><time>2026-03-28T15:22:26.999Z</time></trkpt><trkpt lat="44.81547542923301" lon="9.807363488352372"><ele>315.0</ele><time>2026-03-28T15:23:02.998Z</time></trkpt><trkpt lat="44.8153965808543" lon="9.807290949948314"><ele>315.0</ele><time>2026-03-28T15:23:06Z</time></trkpt><trkpt lat="44.815318245101075" lon="9.807218711971142"><ele>315.0</ele><time>2026-03-28T15:23:08Z</time></trkpt><trkpt lat="44.8152450440852" lon="9.807116040600134"><ele>315.0</ele><time>2026-03-28T15:23:10Z</time></trkpt><trkpt lat="44.81516889599359" lon="9.807005219349342"><ele>314.0</ele><time>2026-03-28T15:23:12Z</time></trkpt><trkpt lat="44.81508847285083" lon="9.806909421851241"><ele>313.0</ele><time>2026-03-28T15:23:14Z</time></trkpt><trkpt lat="44.81500516109299" lon="9.80686778457007"><ele>312.0</ele><time>2026-03-28T15:23:16Z</time></trkpt><trkpt lat="44.81490128084985" lon="9.806886365992105"><ele>311.0</ele><time>2026-03-28T15:23:18Z</time></trkpt><trkpt lat="44.81485565726144" lon="9.806976964883896"><ele>310.0</ele><time>2026-03-28T15:23:19Z</time></trkpt><trkpt lat="44.814851682269186" lon="9.807082688057395"><ele>310.0</ele><time>2026-03-28T15:23:20Z</time></trkpt><trkpt lat="44.81488364907866" lon="9.807176941665492"><ele>310.0</ele><time>2026-03-28T15:23:21Z</time></trkpt><trkpt lat="44.814935873845236" lon="9.807309105538023"><ele>310.0</ele><time>2026-03-28T15:23:23Z</time></trkpt><trkpt lat="44.81498562411465" lon="9.80745532088773"><ele>310.0</ele><time>2026-03-28T15:23:25Z</time></trkpt><trkpt lat="44.81501087505662" lon="9.807628561457916"><ele>310.0</ele><time>2026-03-28T15:23:27Z</time></trkpt><trkpt lat="44.81503046985892" lon="9.807729383318891"><ele>308.66666666666663</ele><time>2026-03-28T15:23:28Z</time></trkpt><trkpt lat="44.81505889360237" lon="9.80782910467964"><ele>307.3333333333333</ele><time>2026-03-28T15:23:29Z</time></trkpt><trkpt lat="44.81509486258241" lon="9.80793265627239"><ele>306.0</ele><time>2026-03-28T15:23:30Z</time></trkpt><trkpt lat="44.81514599238019" lon="9.808017475824794"><ele>304.6666666666667</ele><time>2026-03-28T15:23:31Z</time></trkpt><trkpt lat="44.81519570368346" lon="9.80809672296632"><ele>303.33333333333337</ele><time>2026-03-28T15:23:32Z</time></trkpt><trkpt lat="44.815265857116785" lon="9.808177499609274"><ele>302.0</ele><time>2026-03-28T15:23:33Z</time></trkpt><trkpt lat="44.81534740696375" lon="9.808230841371712"><ele>302.0</ele><time>2026-03-28T15:23:34Z</time></trkpt><trkpt lat="44.815435819714686" lon="9.808279443999686"><ele>302.0</ele><time>2026-03-28T15:23:35Z</time></trkpt><trkpt lat="44.81552590737327" lon="9.808335893527065"><ele>302.0</ele><time>2026-03-28T15:23:36Z</time></trkpt><trkpt lat="44.81561688098112" lon="9.808400815493147"><ele>302.0</ele><time>2026-03-28T15:23:37Z</time></trkpt><trkpt lat="44.81570848476812" lon="9.808467221742948"><ele>302.0</ele><time>2026-03-28T15:23:38Z</time></trkpt><trkpt lat="44.8158072214683" lon="9.808528810403576"><ele>300.0</ele><time>2026-03-28T15:23:39Z</time></trkpt><trkpt lat="44.8159054299251" lon="9.808582205514618"><ele>298.0</ele><time>2026-03-28T15:23:40Z</time></trkpt><trkpt lat="44.815995700053925" lon="9.80863915679697"><ele>296.0</ele><time>2026-03-28T15:23:41Z</time></trkpt><trkpt lat="44.816088100585226" lon="9.808688836029544"><ele>294.0</ele><time>2026-03-28T15:23:42Z</time></trkpt><trkpt lat="44.81618399458174" lon="9.808743116939574"><ele>292.0</ele><time>2026-03-28T15:23:43Z</time></trkpt><trkpt lat="44.81627557093308" lon="9.808797880069362"><ele>292.0</ele><time>2026-03-28T15:23:44Z</time></trkpt><trkpt lat="44.81636303220618" lon="9.808850922718683"><ele>292.0</ele><time>2026-03-28T15:23:45Z</time></trkpt><trkpt lat="44.816447894533376" lon="9.808907223406164"><ele>292.0</ele><time>2026-03-28T15:23:46Z</time></trkpt><trkpt lat="44.81652655530739" lon="9.808964031666044"><ele>292.0</ele><time>2026-03-28T15:23:47Z</time></trkpt><trkpt lat="44.8165984847868" lon="9.809037394520647"><ele>292.0</ele><time>2026-03-28T15:23:48Z</time></trkpt><trkpt lat="44.81666618494428" lon="9.809124654165373"><ele>292.0</ele><time>2026-03-28T15:23:49Z</time></trkpt><trkpt lat="44.81672760804315" lon="9.809223793018674"><ele>292.0</ele><time>2026-03-28T15:23:49.999Z</time></trkpt><trkpt lat="44.81675799680623" lon="9.809346379873126"><ele>292.0</ele><time>2026-03-28T15:23:50.999Z</time></trkpt><trkpt lat="44.81677125465004" lon="9.809472020812963"><ele>292.0</ele><time>2026-03-28T15:23:51.999Z</time></trkpt><trkpt lat="44.8167525649622" lon="9.809591122440326"><ele>292.0</ele><time>2026-03-28T15:23:52.999Z</time></trkpt><trkpt lat="44.81672622712503" lon="9.80970844354756"><ele>292.0</ele><time>2026-03-28T15:23:53.999Z</time></trkpt><trkpt lat="44.81665694466033" lon="9.80979510754367"><ele>290.3333333333333</ele><time>2026-03-28T15:23:54.999Z</time></trkpt><trkpt lat="44.81657218444165" lon="9.809852869944535"><ele>288.66666666666663</ele><time>2026-03-28T15:23:55.999Z</time></trkpt><trkpt lat="44.816487709748365" lon="9.809897885996316"><ele>287.0</ele><time>2026-03-28T15:23:56.999Z</time></trkpt><trkpt lat="44.81641070001837" lon="9.809918670940721"><ele>285.3333333333333</ele><time>2026-03-28T15:23:57.999Z</time></trkpt><trkpt lat="44.81633287583726" lon="9.809919879562127"><ele>283.6666666666667</ele><time>2026-03-28T15:23:58.999Z</time></trkpt><trkpt lat="44.8162559339031" lon="9.809870548769709"><ele>282.0</ele><time>2026-03-28T15:23:59.999Z</time></trkpt><trkpt lat="44.81617649473749" lon="9.809827151837425"><ele>282.0</ele><time>2026-03-28T15:24:00.999Z</time></trkpt><trkpt lat="44.816094783919006" lon="9.809790803887134"><ele>282.0</ele><time>2026-03-28T15:24:01.999Z</time></trkpt><trkpt lat="44.81600876032589" lon="9.809780678932771"><ele>282.0</ele><time>2026-03-28T15:24:02.999Z</time></trkpt><trkpt lat="44.81592708616215" lon="9.809785542315678"><ele>282.0</ele><time>2026-03-28T15:24:03.999Z</time></trkpt><trkpt lat="44.81585193417206" lon="9.809841545506607"><ele>282.0</ele><time>2026-03-28T15:24:04.999Z</time></trkpt><trkpt lat="44.81579569865553" lon="9.809941388331064"><ele>282.0</ele><time>2026-03-28T15:24:05.999Z</time></trkpt><trkpt lat="44.81575271993692" lon="9.810056885152136"><ele>280.2</ele><time>2026-03-28T15:24:06.999Z</time></trkpt><trkpt lat="44.815716134742544" lon="9.81018005249992"><ele>278.4</ele><time>2026-03-28T15:24:07.999Z</time></trkpt><trkpt lat="44.815683002189594" lon="9.810313507968003"><ele>276.6</ele><time>2026-03-28T15:24:08.999Z</time></trkpt><trkpt lat="44.815646670444565" lon="9.810451562842099"><ele>274.8</ele><time>2026-03-28T15:24:09.999Z</time></trkpt><trkpt lat="44.815616121157355" lon="9.810591778485682"><ele>273.0</ele><time>2026-03-28T15:24:10.999Z</time></trkpt><trkpt lat="44.815580525103904" lon="9.81073733007822"><ele>273.0</ele><time>2026-03-28T15:24:11.999Z</time></trkpt><trkpt lat="44.815545258371934" lon="9.810877750930658"><ele>273.0</ele><time>2026-03-28T15:24:12.999Z</time></trkpt><trkpt lat="44.81550572560103" lon="9.811001501689125"><ele>273.0</ele><time>2026-03-28T15:24:13.999Z</time></trkpt><trkpt lat="44.815441352553194" lon="9.811097566605559"><ele>273.0</ele><time>2026-03-28T15:24:14.999Z</time></trkpt><trkpt lat="44.81536242752058" lon="9.811168744820282"><ele>273.0</ele><time>2026-03-28T15:24:15.999Z</time></trkpt><trkpt lat="44.81527521147141" lon="9.811201970910266"><ele>271.4</ele><time>2026-03-28T15:24:16.999Z</time></trkpt><trkpt lat="44.81517957339204" lon="9.811198063485461"><ele>269.8</ele><time>2026-03-28T15:24:17.999Z</time></trkpt><trkpt lat="44.815089180944646" lon="9.811179994425268"><ele>268.2</ele><time>2026-03-28T15:24:18.999Z</time></trkpt><trkpt lat="44.81499774923805" lon="9.811154139304978"><ele>266.6</ele><time>2026-03-28T15:24:19.999Z</time></trkpt><trkpt lat="44.81490259953306" lon="9.811121250147966"><ele>265.0</ele><time>2026-03-28T15:24:20.999Z</time></trkpt><trkpt lat="44.8148050795173" lon="9.811081240295918"><ele>264.0</ele><time>2026-03-28T15:24:21.999Z</time></trkpt><trkpt lat="44.81470156923603" lon="9.811051636249625"><ele>263.0</ele><time>2026-03-28T15:24:22.999Z</time></trkpt><trkpt lat="44.8145908655787" lon="9.811034408404998"><ele>262.0</ele><time>2026-03-28T15:24:23.999Z</time></trkpt><trkpt lat="44.81447642422509" lon="9.811029702672155"><ele>261.0</ele><time>2026-03-28T15:24:24.999Z</time></trkpt><trkpt lat="44.81435896179311" lon="9.811032608756214"><ele>260.0</ele><time>2026-03-28T15:24:25.999Z</time></trkpt><trkpt lat="44.81423918432027" lon="9.811050593324268"><ele>258.5</ele><time>2026-03-28T15:24:26.999Z</time></trkpt><trkpt lat="44.81411824678653" lon="9.811069928003628"><ele>257.0</ele><time>2026-03-28T15:24:27.999Z</time></trkpt><trkpt lat="44.813995947307326" lon="9.811115760740973"><ele>255.5</ele><time>2026-03-28T15:24:28.999Z</time></trkpt><trkpt lat="44.81388099912925" lon="9.811190670297883"><ele>254.0</ele><time>2026-03-28T15:24:29.999Z</time></trkpt><trkpt lat="44.81377018988512" lon="9.811284917486933"><ele>254.0</ele><time>2026-03-28T15:24:30.999Z</time></trkpt><trkpt lat="44.81366013817774" lon="9.811381201383737"><ele>254.0</ele><time>2026-03-28T15:24:31.999Z</time></trkpt><trkpt lat="44.81354855403474" lon="9.81147732204277"><ele>254.0</ele><time>2026-03-28T15:24:32.999Z</time></trkpt><trkpt lat="44.81344046486695" lon="9.811563990582988"><ele>254.0</ele><time>2026-03-28T15:24:33.999Z</time></trkpt><trkpt lat="44.81334288007587" lon="9.811633750482176"><ele>254.16666666666669</ele><time>2026-03-28T15:24:34.999Z</time></trkpt><trkpt lat="44.81325892873732" lon="9.811663350833136"><ele>254.33333333333334</ele><time>2026-03-28T15:24:35.999Z</time></trkpt><trkpt lat="44.81318349916286" lon="9.811649369096031"><ele>254.5</ele><time>2026-03-28T15:24:36.999Z</time></trkpt><trkpt lat="44.813120537199" lon="9.811591808924216"><ele>254.66666666666669</ele><time>2026-03-28T15:24:37.999Z</time></trkpt><trkpt lat="44.81307768676653" lon="9.811498077420076"><ele>254.83333333333334</ele><time>2026-03-28T15:24:38.999Z</time></trkpt><trkpt lat="44.81305879419408" lon="9.811383796891587"><ele>255.0</ele><time>2026-03-28T15:24:39.999Z</time></trkpt><trkpt lat="44.81304009714333" lon="9.811267149996933"><ele>255.0</ele><time>2026-03-28T15:24:40.999Z</time></trkpt><trkpt lat="44.81299702978594" lon="9.811159925374279"><ele>255.0</ele><time>2026-03-28T15:24:41.999Z</time></trkpt><trkpt lat="44.81293050089002" lon="9.811068218159065"><ele>255.0</ele><time>2026-03-28T15:24:42.999Z</time></trkpt><trkpt lat="44.8128461901" lon="9.811011253646774"><ele>255.0</ele><time>2026-03-28T15:24:43.998Z</time></trkpt><trkpt lat="44.81274729104139" lon="9.811008101702258"><ele>255.0</ele><time>2026-03-28T15:24:44.998Z</time></trkpt><trkpt lat="44.81265717090892" lon="9.811023755410838"><ele>255.0</ele><time>2026-03-28T15:24:45.998Z</time></trkpt><trkpt lat="44.81259143916748" lon="9.811140829118862"><ele>255.0</ele><time>2026-03-28T15:24:46.998Z</time></trkpt><trkpt lat="44.81259473126051" lon="9.811296973907098"><ele>255.0</ele><time>2026-03-28T15:24:47.998Z</time></trkpt><trkpt lat="44.81265142787942" lon="9.811419370423986"><ele>255.0</ele><time>2026-03-28T15:24:48.998Z</time></trkpt><trkpt lat="44.812672409641785" lon="9.811512359935444"><ele>255.0</ele><time>2026-03-28T15:24:49.998Z</time></trkpt><trkpt lat="44.81258956501087" lon="9.811642426704969"><ele>253.16666666666666</ele><time>2026-03-28T15:24:51.998Z</time></trkpt><trkpt lat="44.812515089322126" lon="9.811567339796335"><ele>251.33333333333331</ele><time>2026-03-28T15:24:52.998Z</time></trkpt><trkpt lat="44.81244375339299" lon="9.811507705324003"><ele>249.5</ele><time>2026-03-28T15:24:53.998Z</time></trkpt><trkpt lat="44.81235424095867" lon="9.811505389725891"><ele>247.66666666666666</ele><time>2026-03-28T15:24:54.998Z</time></trkpt><trkpt lat="44.812267920459185" lon="9.811547342966747"><ele>245.83333333333331</ele><time>2026-03-28T15:24:55.998Z</time></trkpt><trkpt lat="44.81220216451135" lon="9.811629683358065"><ele>244.0</ele><time>2026-03-28T15:24:56.998Z</time></trkpt><trkpt lat="44.812131252482274" lon="9.811700243931526"><ele>243.99999999999997</ele><time>2026-03-28T15:24:57.998Z</time></trkpt><trkpt lat="44.81206641548426" lon="9.811780080708955"><ele>244.0</ele><time>2026-03-28T15:24:58.998Z</time></trkpt><trkpt lat="44.81200543413348" lon="9.811861932314828"><ele>244.0</ele><time>2026-03-28T15:24:59.998Z</time></trkpt><trkpt lat="44.81196250883936" lon="9.81196706670978"><ele>244.0</ele><time>2026-03-28T15:25:00.998Z</time></trkpt><trkpt lat="44.8119035003593" lon="9.812049943868873"><ele>243.99999999999997</ele><time>2026-03-28T15:25:01.998Z</time></trkpt><trkpt lat="44.81186577101573" lon="9.812158837496632"><ele>244.0</ele><time>2026-03-28T15:25:02.998Z</time></trkpt><trkpt lat="44.81183973297" lon="9.812276611508484"><ele>244.0</ele><time>2026-03-28T15:25:03.998Z</time></trkpt><trkpt lat="44.8118667664292" lon="9.812409834198304"><ele>243.99999999999997</ele><time>2026-03-28T15:25:04.998Z</time></trkpt><trkpt lat="44.81195853673797" lon="9.812489774275042"><ele>243.99999999999997</ele><time>2026-03-28T15:25:05.998Z</time></trkpt><trkpt lat="44.812032598479355" lon="9.81256385799923"><ele>244.0</ele><time>2026-03-28T15:25:06.998Z</time></trkpt><trkpt lat="44.81210785586002" lon="9.81264040232089"><ele>244.0</ele><time>2026-03-28T15:25:07.998Z</time></trkpt><trkpt lat="44.81218293073847" lon="9.812726845030962"><ele>244.0</ele><time>2026-03-28T15:25:08.998Z</time></trkpt><trkpt lat="44.81225918495007" lon="9.812822309181962"><ele>243.99999999999997</ele><time>2026-03-28T15:25:09.998Z</time></trkpt><trkpt lat="44.8123368845224" lon="9.812920524067545"><ele>243.99999999999997</ele><time>2026-03-28T15:25:11Z</time></trkpt><trkpt lat="44.812414632927386" lon="9.813017049312819"><ele>244.0</ele><time>2026-03-28T15:25:12Z</time></trkpt><trkpt lat="44.81249318568415" lon="9.813111400005115"><ele>244.0</ele><time>2026-03-28T15:25:13Z</time></trkpt><trkpt lat="44.812571305505024" lon="9.813204050081216"><ele>244.0</ele><time>2026-03-28T15:25:14Z</time></trkpt><trkpt lat="44.812647893016766" lon="9.813296304410398"><ele>243.99999999999997</ele><time>2026-03-28T15:25:15Z</time></trkpt><trkpt lat="44.81272329286008" lon="9.813388397031675"><ele>243.99999999999997</ele><time>2026-03-28T15:25:16Z</time></trkpt><trkpt lat="44.812799134744395" lon="9.813474631570575"><ele>244.0</ele><time>2026-03-28T15:25:17Z</time></trkpt><trkpt lat="44.8128701678894" lon="9.813564269902034"><ele>244.0</ele><time>2026-03-28T15:25:18Z</time></trkpt><trkpt lat="44.81293804353709" lon="9.813655504044412"><ele>243.66666666666666</ele><time>2026-03-28T15:25:19Z</time></trkpt><trkpt lat="44.81300218641709" lon="9.813746148295818"><ele>243.33333333333331</ele><time>2026-03-28T15:25:20Z</time></trkpt><trkpt lat="44.81306350163269" lon="9.8138350842337"><ele>243.0</ele><time>2026-03-28T15:25:21Z</time></trkpt><trkpt lat="44.81312428204172" lon="9.81391842730055"><ele>242.66666666666669</ele><time>2026-03-28T15:25:22Z</time></trkpt><trkpt lat="44.81318324108915" lon="9.814006319663251"><ele>242.33333333333334</ele><time>2026-03-28T15:25:23Z</time></trkpt><trkpt lat="44.81324033554681" lon="9.814092339031314"><ele>242.0</ele><time>2026-03-28T15:25:24Z</time></trkpt><trkpt lat="44.8132988383857" lon="9.814173877989353"><ele>242.00000000000003</ele><time>2026-03-28T15:25:25Z</time></trkpt><trkpt lat="44.81335459418259" lon="9.81425112343925"><ele>242.0</ele><time>2026-03-28T15:25:26Z</time></trkpt><trkpt lat="44.81340890044605" lon="9.814322928465023"><ele>242.0</ele><time>2026-03-28T15:25:27Z</time></trkpt><trkpt lat="44.81346071380048" lon="9.81438750606399"><ele>242.0</ele><time>2026-03-28T15:25:28Z</time></trkpt><trkpt lat="44.813510138066405" lon="9.814449122847755"><ele>242.00000000000003</ele><time>2026-03-28T15:25:29Z</time></trkpt><trkpt lat="44.813556286908856" lon="9.814512391828078"><ele>242.0</ele><time>2026-03-28T15:25:30Z</time></trkpt><trkpt lat="44.81365309831501" lon="9.814629834494339"><ele>241.66666666666669</ele><time>2026-03-28T15:25:32Z</time></trkpt><trkpt lat="44.81370068325233" lon="9.814688498319002"><ele>241.33333333333334</ele><time>2026-03-28T15:25:33Z</time></trkpt><trkpt lat="44.81379396076166" lon="9.814805418626069"><ele>241.0</ele><time>2026-03-28T15:25:35Z</time></trkpt><trkpt lat="44.813836906710975" lon="9.81487305203586"><ele>240.66666666666669</ele><time>2026-03-28T15:25:36Z</time></trkpt><trkpt lat="44.813876682303594" lon="9.814945989068859"><ele>240.33333333333334</ele><time>2026-03-28T15:25:37Z</time></trkpt><trkpt lat="44.813908769685405" lon="9.815022848349084"><ele>240.0</ele><time>2026-03-28T15:25:38Z</time></trkpt><trkpt lat="44.81394557352189" lon="9.815188496778491"><ele>242.75</ele><time>2026-03-28T15:25:40Z</time></trkpt><trkpt lat="44.8139654588428" lon="9.815367908190835"><ele>245.5</ele><time>2026-03-28T15:25:42Z</time></trkpt><trkpt lat="44.81397038730313" lon="9.815533642112799"><ele>248.25</ele><time>2026-03-28T15:25:44Z</time></trkpt><trkpt lat="44.81397770517421" lon="9.815689840668309"><ele>251.0</ele><time>2026-03-28T15:25:46Z</time></trkpt><trkpt lat="44.814015735953475" lon="9.815841995682472"><ele>251.0</ele><time>2026-03-28T15:25:48Z</time></trkpt><trkpt lat="44.81406827942564" lon="9.815982459453753"><ele>251.00000000000003</ele><time>2026-03-28T15:25:50Z</time></trkpt><trkpt lat="44.81411158499988" lon="9.816117948860633"><ele>251.00000000000003</ele><time>2026-03-28T15:25:52Z</time></trkpt><trkpt lat="44.814147720711624" lon="9.81623489015561"><ele>251.0</ele><time>2026-03-28T15:25:54Z</time></trkpt><trkpt lat="44.81417455596218" lon="9.816329398327449"><ele>251.0</ele><time>2026-03-28T15:25:55.999Z</time></trkpt><trkpt lat="44.81422021657665" lon="9.81640788555739"><ele>251.50000000000003</ele><time>2026-03-28T15:25:58.999Z</time></trkpt><trkpt lat="44.81428390657272" lon="9.816483932107918"><ele>252.0</ele><time>2026-03-28T15:26:04.999Z</time></trkpt><trkpt lat="44.81433947276535" lon="9.816424638501957"><ele>252.5</ele><time>2026-03-28T15:26:06.999Z</time></trkpt><trkpt lat="44.8143979097689" lon="9.816388911200844"><ele>253.0</ele><time>2026-03-28T15:26:08.999Z</time></trkpt><trkpt lat="44.81447327380499" lon="9.816425200463955"><ele>253.50000000000003</ele><time>2026-03-28T15:26:11.999Z</time></trkpt><trkpt lat="44.814546007897974" lon="9.816474786623184"><ele>254.0</ele><time>2026-03-28T15:26:15.999Z</time></trkpt><trkpt lat="44.814618554755995" lon="9.8165149977364"><ele>254.00000000000003</ele><time>2026-03-28T15:26:18.999Z</time></trkpt><trkpt lat="44.81471870710367" lon="9.816538761514868"><ele>254.0</ele><time>2026-03-28T15:26:21.999Z</time></trkpt><trkpt lat="44.81480212179329" lon="9.81656181885182"><ele>254.0</ele><time>2026-03-28T15:26:23.999Z</time></trkpt><trkpt lat="44.81488915568766" lon="9.816575618613715"><ele>254.0</ele><time>2026-03-28T15:26:25.999Z</time></trkpt><trkpt lat="44.814968396932606" lon="9.816553989053958"><ele>254.00000000000003</ele><time>2026-03-28T15:26:27.999Z</time></trkpt><trkpt lat="44.81505153631344" lon="9.816534302405374"><ele>254.0</ele><time>2026-03-28T15:26:29.999Z</time></trkpt><trkpt lat="44.815134443971" lon="9.816521302856495"><ele>253.6</ele><time>2026-03-28T15:26:31.999Z</time></trkpt><trkpt lat="44.81522319773194" lon="9.81650598051234"><ele>253.2</ele><time>2026-03-28T15:26:33.999Z</time></trkpt><trkpt lat="44.81531933060493" lon="9.816508434456406"><ele>252.79999999999998</ele><time>2026-03-28T15:26:35.999Z</time></trkpt><trkpt lat="44.815425776096625" lon="9.816526057248465"><ele>252.39999999999998</ele><time>2026-03-28T15:26:37.999Z</time></trkpt><trkpt lat="44.81552447102241" lon="9.81652838797381"><ele>252.0</ele><time>2026-03-28T15:26:39.999Z</time></trkpt><trkpt lat="44.81562687531796" lon="9.816533990112923"><ele>252.0</ele><time>2026-03-28T15:26:41.999Z</time></trkpt><trkpt lat="44.815726107526004" lon="9.816536866075392"><ele>252.0</ele><time>2026-03-28T15:26:43.999Z</time></trkpt><trkpt lat="44.81582542958448" lon="9.81653657148218"><ele>252.0</ele><time>2026-03-28T15:26:45.999Z</time></trkpt><trkpt lat="44.81593124250242" lon="9.816546996968798"><ele>252.0</ele><time>2026-03-28T15:26:47.999Z</time></trkpt><trkpt lat="44.816034832363876" lon="9.816544751831165"><ele>252.0</ele><time>2026-03-28T15:26:49.998Z</time></trkpt><trkpt lat="44.81614608969153" lon="9.816550684920042"><ele>250.2</ele><time>2026-03-28T15:26:51.998Z</time></trkpt><trkpt lat="44.816260894129634" lon="9.816580190918994"><ele>248.39999999999998</ele><time>2026-03-28T15:26:53.998Z</time></trkpt><trkpt lat="44.816366751432874" lon="9.816594850528592"><ele>246.60000000000002</ele><time>2026-03-28T15:26:55.998Z</time></trkpt><trkpt lat="44.81648480135598" lon="9.816591604325657"><ele>244.8</ele><time>2026-03-28T15:26:57.998Z</time></trkpt><trkpt lat="44.81654501561436" lon="9.816626436479421"><ele>243.0</ele><time>2026-03-28T15:26:58.998Z</time></trkpt><trkpt lat="44.81666917280347" lon="9.816659702983499"><ele>243.0</ele><time>2026-03-28T15:27:00.998Z</time></trkpt><trkpt lat="44.8167354915126" lon="9.816668512112475"><ele>243.0</ele><time>2026-03-28T15:27:01.998Z</time></trkpt><trkpt lat="44.81680239072076" lon="9.816673677855151"><ele>243.0</ele><time>2026-03-28T15:27:02.998Z</time></trkpt><trkpt lat="44.81687406348385" lon="9.816673910585605"><ele>243.0</ele><time>2026-03-28T15:27:03.998Z</time></trkpt><trkpt lat="44.816995707183054" lon="9.81666099634103"><ele>243.0</ele><time>2026-03-28T15:27:05.998Z</time></trkpt><trkpt lat="44.81712428332075" lon="9.816646640916108"><ele>242.16666666666666</ele><time>2026-03-28T15:27:07.998Z</time></trkpt><trkpt lat="44.817191506713336" lon="9.816643170348193"><ele>241.33333333333331</ele><time>2026-03-28T15:27:08.998Z</time></trkpt><trkpt lat="44.817262358405785" lon="9.816642801775885"><ele>240.5</ele><time>2026-03-28T15:27:09.998Z</time></trkpt><trkpt lat="44.81733700743852" lon="9.816644258372444"><ele>239.66666666666666</ele><time>2026-03-28T15:27:10.998Z</time></trkpt><trkpt lat="44.81741571491703" lon="9.816647006705326"><ele>238.83333333333331</ele><time>2026-03-28T15:27:11.998Z</time></trkpt><trkpt lat="44.81749547082481" lon="9.816649791644991"><ele>238.0</ele><time>2026-03-28T15:27:12.998Z</time></trkpt><trkpt lat="44.817576299482354" lon="9.816652614044648"><ele>237.66666666666666</ele><time>2026-03-28T15:27:13.998Z</time></trkpt><trkpt lat="44.81766039681065" lon="9.81665298745151"><ele>237.33333333333331</ele><time>2026-03-28T15:27:14.998Z</time></trkpt><trkpt lat="44.81774217091592" lon="9.816652987452787"><ele>237.0</ele><time>2026-03-28T15:27:16Z</time></trkpt><trkpt lat="44.81782376391439" lon="9.816652987453782"><ele>236.66666666666669</ele><time>2026-03-28T15:27:17Z</time></trkpt><trkpt lat="44.817905040607506" lon="9.816653545587616"><ele>236.33333333333334</ele><time>2026-03-28T15:27:18Z</time></trkpt><trkpt lat="44.81798340198868" lon="9.81665478337486"><ele>236.0</ele><time>2026-03-28T15:27:19Z</time></trkpt><trkpt lat="44.81806156118242" lon="9.816656210235834"><ele>236.0</ele><time>2026-03-28T15:27:20Z</time></trkpt><trkpt lat="44.81813821662273" lon="9.816657959171158"><ele>236.0</ele><time>2026-03-28T15:27:21Z</time></trkpt><trkpt lat="44.81821360276632" lon="9.816659679149009"><ele>236.0</ele><time>2026-03-28T15:27:22Z</time></trkpt><trkpt lat="44.818287671125134" lon="9.816661369057002"><ele>236.0</ele><time>2026-03-28T15:27:23Z</time></trkpt><trkpt lat="44.81836055065242" lon="9.8166630318426"><ele>236.0</ele><time>2026-03-28T15:27:24Z</time></trkpt><trkpt lat="44.818434477513925" lon="9.816664718525063"><ele>236.0</ele><time>2026-03-28T15:27:25Z</time></trkpt><trkpt lat="44.81850712390561" lon="9.816667641653414"><ele>236.0</ele><time>2026-03-28T15:27:26Z</time></trkpt><trkpt lat="44.81857643301643" lon="9.816671193374896"><ele>235.85714285714283</ele><time>2026-03-28T15:27:27Z</time></trkpt><trkpt lat="44.81864648554681" lon="9.816675271150489"><ele>235.71428571428572</ele><time>2026-03-28T15:27:28Z</time></trkpt><trkpt lat="44.81871658974105" lon="9.816682251785567"><ele>235.57142857142856</ele><time>2026-03-28T15:27:29Z</time></trkpt><trkpt lat="44.81878614454234" lon="9.816689561400944"><ele>235.42857142857142</ele><time>2026-03-28T15:27:30Z</time></trkpt><trkpt lat="44.818857042445515" lon="9.816698170479148"><ele>235.28571428571428</ele><time>2026-03-28T15:27:31Z</time></trkpt><trkpt lat="44.81893112842775" lon="9.816707689160992"><ele>235.14285714285714</ele><time>2026-03-28T15:27:32Z</time></trkpt><trkpt lat="44.81900166822082" lon="9.816716752237875"><ele>235.0</ele><time>2026-03-28T15:27:33Z</time></trkpt><trkpt lat="44.81907416899778" lon="9.816726067241428"><ele>235.0</ele><time>2026-03-28T15:27:34Z</time></trkpt><trkpt lat="44.819146766851745" lon="9.816735488155484"><ele>234.99999999999997</ele><time>2026-03-28T15:27:35Z</time></trkpt><trkpt lat="44.81921962536048" lon="9.81674606890636"><ele>235.0</ele><time>2026-03-28T15:27:36Z</time></trkpt><trkpt lat="44.819292521683785" lon="9.816756655098677"><ele>235.0</ele><time>2026-03-28T15:27:37Z</time></trkpt><trkpt lat="44.81936308784132" lon="9.816765695439475"><ele>234.99999999999997</ele><time>2026-03-28T15:27:38Z</time></trkpt><trkpt lat="44.81943252333642" lon="9.816773597381657"><ele>235.0</ele><time>2026-03-28T15:27:39Z</time></trkpt><trkpt lat="44.81950280508761" lon="9.816777986156858"><ele>235.0</ele><time>2026-03-28T15:27:40Z</time></trkpt><trkpt lat="44.819572686433055" lon="9.816778387200474"><ele>235.28571428571428</ele><time>2026-03-28T15:27:41Z</time></trkpt><trkpt lat="44.81964375110852" lon="9.81677268649771"><ele>235.57142857142856</ele><time>2026-03-28T15:27:42Z</time></trkpt><trkpt lat="44.819712222025316" lon="9.816737647586251"><ele>235.85714285714283</ele><time>2026-03-28T15:27:43Z</time></trkpt><trkpt lat="44.81978486990484" lon="9.816724402930198"><ele>236.1428571428571</ele><time>2026-03-28T15:27:44Z</time></trkpt><trkpt lat="44.81985354504161" lon="9.816698917838215"><ele>236.42857142857142</ele><time>2026-03-28T15:27:45Z</time></trkpt><trkpt lat="44.81992817694395" lon="9.816688958415673"><ele>236.71428571428567</ele><time>2026-03-28T15:27:46Z</time></trkpt><trkpt lat="44.81999955930929" lon="9.816662137072404"><ele>236.99999999999997</ele><time>2026-03-28T15:27:47Z</time></trkpt><trkpt lat="44.820062360957785" lon="9.816617758519945"><ele>236.99999999999997</ele><time>2026-03-28T15:27:48Z</time></trkpt><trkpt lat="44.82013459765988" lon="9.816590443517013"><ele>237.0</ele><time>2026-03-28T15:27:49Z</time></trkpt><trkpt lat="44.82020496529044" lon="9.816565848691091"><ele>236.99999999999997</ele><time>2026-03-28T15:27:50Z</time></trkpt><trkpt lat="44.82027714956419" lon="9.816540421963502"><ele>236.99999999999997</ele><time>2026-03-28T15:27:51Z</time></trkpt><trkpt lat="44.82034750731485" lon="9.816510603353953"><ele>237.0</ele><time>2026-03-28T15:27:52Z</time></trkpt><trkpt lat="44.82042178342449" lon="9.81648714135112"><ele>236.99999999999997</ele><time>2026-03-28T15:27:53Z</time></trkpt><trkpt lat="44.82049580037318" lon="9.816472846607166"><ele>236.99999999999997</ele><time>2026-03-28T15:27:54Z</time></trkpt><trkpt lat="44.8205680679948" lon="9.816454402479147"><ele>236.66666666666666</ele><time>2026-03-28T15:27:55Z</time></trkpt><trkpt lat="44.82064009119711" lon="9.816432939750184"><ele>236.33333333333331</ele><time>2026-03-28T15:27:56Z</time></trkpt><trkpt lat="44.82071518349742" lon="9.816410698189035"><ele>236.0</ele><time>2026-03-28T15:27:57Z</time></trkpt><trkpt lat="44.82078943532573" lon="9.816394507721197"><ele>235.66666666666666</ele><time>2026-03-28T15:27:58Z</time></trkpt><trkpt lat="44.82087232836558" lon="9.816378298220215"><ele>235.33333333333331</ele><time>2026-03-28T15:27:59Z</time></trkpt><trkpt lat="44.82095448698734" lon="9.816348548078684"><ele>235.0</ele><time>2026-03-28T15:27:59.999Z</time></trkpt><trkpt lat="44.82104251459908" lon="9.816327529199283"><ele>236.16666666666666</ele><time>2026-03-28T15:28:00.999Z</time></trkpt><trkpt lat="44.82113249725891" lon="9.816307830319223"><ele>237.33333333333331</ele><time>2026-03-28T15:28:01.999Z</time></trkpt><trkpt lat="44.821219740523205" lon="9.816280504890862"><ele>238.5</ele><time>2026-03-28T15:28:02.999Z</time></trkpt><trkpt lat="44.82130476620678" lon="9.816249690735889"><ele>239.66666666666669</ele><time>2026-03-28T15:28:03.999Z</time></trkpt><trkpt lat="44.82139044893681" lon="9.816222605959148"><ele>240.83333333333334</ele><time>2026-03-28T15:28:04.999Z</time></trkpt><trkpt lat="44.82147662292823" lon="9.816193067503226"><ele>242.0</ele><time>2026-03-28T15:28:05.999Z</time></trkpt><trkpt lat="44.82155988481462" lon="9.816158994675567"><ele>242.00000000000003</ele><time>2026-03-28T15:28:06.999Z</time></trkpt><trkpt lat="44.82164223502537" lon="9.816126084040988"><ele>242.0</ele><time>2026-03-28T15:28:07.999Z</time></trkpt><trkpt lat="44.82172606178674" lon="9.816087923636994"><ele>242.0</ele><time>2026-03-28T15:28:08.999Z</time></trkpt><trkpt lat="44.82181104439952" lon="9.816063042223245"><ele>242.0</ele><time>2026-03-28T15:28:09.999Z</time></trkpt><trkpt lat="44.821890706495076" lon="9.816019333919996"><ele>242.00000000000003</ele><time>2026-03-28T15:28:10.999Z</time></trkpt><trkpt lat="44.8219675081833" lon="9.81595562945677"><ele>242.0</ele><time>2026-03-28T15:28:11.999Z</time></trkpt><trkpt lat="44.82204170924485" lon="9.815880484412387"><ele>240.6</ele><time>2026-03-28T15:28:12.999Z</time></trkpt><trkpt lat="44.82211721428712" lon="9.815802247090849"><ele>239.2</ele><time>2026-03-28T15:28:13.999Z</time></trkpt><trkpt lat="44.82219361505834" lon="9.815725732827499"><ele>237.8</ele><time>2026-03-28T15:28:14.999Z</time></trkpt><trkpt lat="44.82227609543958" lon="9.815652883270939"><ele>236.4</ele><time>2026-03-28T15:28:15.999Z</time></trkpt><trkpt lat="44.82235430469845" lon="9.81558101447406"><ele>235.0</ele><time>2026-03-28T15:28:16.999Z</time></trkpt><trkpt lat="44.822432752265456" lon="9.815510672938128"><ele>235.0</ele><time>2026-03-28T15:28:17.999Z</time></trkpt><trkpt lat="44.82250700388725" lon="9.815437406309869"><ele>235.0</ele><time>2026-03-28T15:28:18.999Z</time></trkpt><trkpt lat="44.822584758270764" lon="9.815369951456168"><ele>235.0</ele><time>2026-03-28T15:28:19.999Z</time></trkpt><trkpt lat="44.822665192817475" lon="9.81530674833136"><ele>235.0</ele><time>2026-03-28T15:28:20.999Z</time></trkpt><trkpt lat="44.82274609108698" lon="9.81525449800687"><ele>235.0</ele><time>2026-03-28T15:28:21.999Z</time></trkpt><trkpt lat="44.8228314641515" lon="9.815213331967556"><ele>236.16666666666666</ele><time>2026-03-28T15:28:22.999Z</time></trkpt><trkpt lat="44.82291725537458" lon="9.815174862238234"><ele>237.33333333333331</ele><time>2026-03-28T15:28:23.999Z</time></trkpt><trkpt lat="44.823003088374136" lon="9.815140038379958"><ele>238.5</ele><time>2026-03-28T15:28:24.999Z</time></trkpt><trkpt lat="44.823090563682285" lon="9.81511030250523"><ele>239.66666666666669</ele><time>2026-03-28T15:28:25.999Z</time></trkpt><trkpt lat="44.823175767142324" lon="9.81508085222559"><ele>240.83333333333334</ele><time>2026-03-28T15:28:26.999Z</time></trkpt><trkpt lat="44.82326108009924" lon="9.815048483867807"><ele>242.0</ele><time>2026-03-28T15:28:27.999Z</time></trkpt><trkpt lat="44.823345617529" lon="9.815015769767303"><ele>240.16666666666669</ele><time>2026-03-28T15:28:28.999Z</time></trkpt><trkpt lat="44.82342977113875" lon="9.814982480922307"><ele>238.33333333333334</ele><time>2026-03-28T15:28:29.999Z</time></trkpt><trkpt lat="44.823512268765334" lon="9.814946870407866"><ele>236.5</ele><time>2026-03-28T15:28:30.999Z</time></trkpt><trkpt lat="44.82359534795567" lon="9.81490841712023"><ele>234.66666666666669</ele><time>2026-03-28T15:28:31.999Z</time></trkpt><trkpt lat="44.82367696031518" lon="9.814861071053592"><ele>232.83333333333334</ele><time>2026-03-28T15:28:32.999Z</time></trkpt><trkpt lat="44.823755313598234" lon="9.81480457778724"><ele>231.0</ele><time>2026-03-28T15:28:33.999Z</time></trkpt><trkpt lat="44.82383025643337" lon="9.814741804765518"><ele>231.0</ele><time>2026-03-28T15:28:34.999Z</time></trkpt><trkpt lat="44.82390092387946" lon="9.814666446183328"><ele>231.0</ele><time>2026-03-28T15:28:35.999Z</time></trkpt><trkpt lat="44.823965439156055" lon="9.814582828530563"><ele>231.0</ele><time>2026-03-28T15:28:36.999Z</time></trkpt><trkpt lat="44.8240341905808" lon="9.814505338156307"><ele>231.0</ele><time>2026-03-28T15:28:37.999Z</time></trkpt><trkpt lat="44.82411200767006" lon="9.81444268060804"><ele>231.0</ele><time>2026-03-28T15:28:38.999Z</time></trkpt><trkpt lat="44.824195776074376" lon="9.814395568019433"><ele>231.0</ele><time>2026-03-28T15:28:39.999Z</time></trkpt><trkpt lat="44.8242886370704" lon="9.81436995908493"><ele>230.60000000000002</ele><time>2026-03-28T15:28:40.999Z</time></trkpt><trkpt lat="44.82438222550861" lon="9.814375469671738"><ele>230.20000000000002</ele><time>2026-03-28T15:28:41.999Z</time></trkpt><trkpt lat="44.824464700458826" lon="9.814435297422962"><ele>229.79999999999998</ele><time>2026-03-28T15:28:42.999Z</time></trkpt><trkpt lat="44.82454949242066" lon="9.814487759700327"><ele>229.39999999999998</ele><time>2026-03-28T15:28:43.999Z</time></trkpt><trkpt lat="44.824638156580455" lon="9.814517927022333"><ele>229.0</ele><time>2026-03-28T15:28:44.999Z</time></trkpt><trkpt lat="44.82472391068736" lon="9.814559025291508"><ele>229.0</ele><time>2026-03-28T15:28:45.999Z</time></trkpt><trkpt lat="44.82481500873111" lon="9.814577893349787"><ele>228.99999999999997</ele><time>2026-03-28T15:28:46.999Z</time></trkpt><trkpt lat="44.82490611012314" lon="9.814570052616983"><ele>228.99999999999997</ele><time>2026-03-28T15:28:47.999Z</time></trkpt><trkpt lat="44.82499410479637" lon="9.814532372529483"><ele>229.0</ele><time>2026-03-28T15:28:48.999Z</time></trkpt><trkpt lat="44.82507726166822" lon="9.814470321107732"><ele>229.0</ele><time>2026-03-28T15:28:49.999Z</time></trkpt><trkpt lat="44.825152414807135" lon="9.81439823435562"><ele>230.0</ele><time>2026-03-28T15:28:50.999Z</time></trkpt><trkpt lat="44.82523015273366" lon="9.814327085576538"><ele>230.99999999999997</ele><time>2026-03-28T15:28:51.999Z</time></trkpt><trkpt lat="44.82531133257479" lon="9.814261328183601"><ele>231.99999999999997</ele><time>2026-03-28T15:28:52.998Z</time></trkpt><trkpt lat="44.82539140057571" lon="9.814194617217362"><ele>233.0</ele><time>2026-03-28T15:28:53.998Z</time></trkpt><trkpt lat="44.82546909716873" lon="9.814128265803522"><ele>234.0</ele><time>2026-03-28T15:28:54.998Z</time></trkpt><trkpt lat="44.82554888163423" lon="9.814068899748396"><ele>232.0</ele><time>2026-03-28T15:28:55.998Z</time></trkpt><trkpt lat="44.825630927701994" lon="9.814013048386581"><ele>229.99999999999997</ele><time>2026-03-28T15:28:56.998Z</time></trkpt><trkpt lat="44.82571701319179" lon="9.813969667522066"><ele>227.99999999999997</ele><time>2026-03-28T15:28:57.998Z</time></trkpt><trkpt lat="44.825806431250825" lon="9.81392543109692"><ele>226.0</ele><time>2026-03-28T15:28:58.998Z</time></trkpt><trkpt lat="44.82589047457098" lon="9.813881562664433"><ele>224.0</ele><time>2026-03-28T15:28:59.998Z</time></trkpt><trkpt lat="44.82597334020682" lon="9.813837369911408"><ele>223.39999999999998</ele><time>2026-03-28T15:29:00.998Z</time></trkpt><trkpt lat="44.826057272065164" lon="9.813794725788366"><ele>222.79999999999998</ele><time>2026-03-28T15:29:01.998Z</time></trkpt><trkpt lat="44.82614581906153" lon="9.813757131541076"><ele>222.20000000000002</ele><time>2026-03-28T15:29:02.998Z</time></trkpt><trkpt lat="44.82623093587104" lon="9.813711835118365"><ele>221.60000000000002</ele><time>2026-03-28T15:29:03.998Z</time></trkpt><trkpt lat="44.8263206865985" lon="9.813679811209406"><ele>221.0</ele><time>2026-03-28T15:29:04.998Z</time></trkpt><trkpt lat="44.82641190362108" lon="9.813660965201787"><ele>221.0</ele><time>2026-03-28T15:29:05.998Z</time></trkpt><trkpt lat="44.826505617759324" lon="9.813649815055332"><ele>221.00000000000003</ele><time>2026-03-28T15:29:06.998Z</time></trkpt><trkpt lat="44.826600921518164" lon="9.8136443609212"><ele>221.00000000000003</ele><time>2026-03-28T15:29:07.998Z</time></trkpt><trkpt lat="44.82669522697024" lon="9.813640634657668"><ele>221.0</ele><time>2026-03-28T15:29:08.998Z</time></trkpt><trkpt lat="44.82678920241692" lon="9.813638750242696"><ele>221.0</ele><time>2026-03-28T15:29:09.998Z</time></trkpt><trkpt lat="44.82688248677869" lon="9.813639957400827"><ele>221.00000000000003</ele><time>2026-03-28T15:29:10.998Z</time></trkpt><trkpt lat="44.82697319899718" lon="9.813650371066045"><ele>221.0</ele><time>2026-03-28T15:29:11.998Z</time></trkpt><trkpt lat="44.827062745219955" lon="9.813673337201102"><ele>221.0</ele><time>2026-03-28T15:29:12.998Z</time></trkpt><trkpt lat="44.82714862751601" lon="9.81370052703341"><ele>221.0</ele><time>2026-03-28T15:29:13.998Z</time></trkpt><trkpt lat="44.82723409059503" lon="9.813722395414244"><ele>221.00000000000003</ele><time>2026-03-28T15:29:14.998Z</time></trkpt><trkpt lat="44.827320220919106" lon="9.813731756432604"><ele>221.0</ele><time>2026-03-28T15:29:15.998Z</time></trkpt><trkpt lat="44.82740757350757" lon="9.813725466920213"><ele>221.00000000000003</ele><time>2026-03-28T15:29:16.998Z</time></trkpt><trkpt lat="44.827496140744465" lon="9.8137095176466"><ele>221.0</ele><time>2026-03-28T15:29:17.998Z</time></trkpt><trkpt lat="44.827584667115865" lon="9.813698304358725"><ele>221.0</ele><time>2026-03-28T15:29:18.998Z</time></trkpt><trkpt lat="44.82767371439985" lon="9.813684677560287"><ele>221.0</ele><time>2026-03-28T15:29:19.998Z</time></trkpt><trkpt lat="44.827763385365195" lon="9.813668964394262"><ele>221.00000000000003</ele><time>2026-03-28T15:29:20.998Z</time></trkpt><trkpt lat="44.82785134336089" lon="9.813649344450114"><ele>221.0</ele><time>2026-03-28T15:29:22Z</time></trkpt><trkpt lat="44.82794240294684" lon="9.813632061512823"><ele>221.4</ele><time>2026-03-28T15:29:23Z</time></trkpt><trkpt lat="44.82803259618253" lon="9.813614993152013"><ele>221.8</ele><time>2026-03-28T15:29:24Z</time></trkpt><trkpt lat="44.82812304419186" lon="9.813594475208754"><ele>222.20000000000002</ele><time>2026-03-28T15:29:25Z</time></trkpt><trkpt lat="44.82821411522132" lon="9.81357440282146"><ele>222.60000000000002</ele><time>2026-03-28T15:29:26Z</time></trkpt><trkpt lat="44.8283043764664" lon="9.813555809147282"><ele>223.0</ele><time>2026-03-28T15:29:27Z</time></trkpt><trkpt lat="44.82839635000786" lon="9.813541848093452"><ele>221.60000000000002</ele><time>2026-03-28T15:29:28Z</time></trkpt><trkpt lat="44.8284880328022" lon="9.81352419498659"><ele>220.20000000000002</ele><time>2026-03-28T15:29:29Z</time></trkpt><trkpt lat="44.828580882091664" lon="9.813506113835713"><ele>218.8</ele><time>2026-03-28T15:29:30Z</time></trkpt><trkpt lat="44.828673475089865" lon="9.813489661742517"><ele>217.4</ele><time>2026-03-28T15:29:31Z</time></trkpt><trkpt lat="44.82876675526377" lon="9.81347290345669"><ele>216.0</ele><time>2026-03-28T15:29:32Z</time></trkpt><trkpt lat="44.828860421722325" lon="9.813456880850707"><ele>216.0</ele><time>2026-03-28T15:29:33Z</time></trkpt><trkpt lat="44.828953859522635" lon="9.813444296219153"><ele>216.00000000000003</ele><time>2026-03-28T15:29:34Z</time></trkpt><trkpt lat="44.82904537895221" lon="9.81344101542548"><ele>216.00000000000003</ele><time>2026-03-28T15:29:35Z</time></trkpt><trkpt lat="44.82913696815922" lon="9.813454537483825"><ele>216.0</ele><time>2026-03-28T15:29:36Z</time></trkpt><trkpt lat="44.82922505175191" lon="9.813491087480617"><ele>216.0</ele><time>2026-03-28T15:29:37Z</time></trkpt><trkpt lat="44.82931579929467" lon="9.813513839013284"><ele>216.0</ele><time>2026-03-28T15:29:38Z</time></trkpt><trkpt lat="44.8294109374779" lon="9.81354808359919"><ele>216.00000000000003</ele><time>2026-03-28T15:29:39Z</time></trkpt><trkpt lat="44.82950140093363" lon="9.813564391553665"><ele>216.00000000000003</ele><time>2026-03-28T15:29:40Z</time></trkpt><trkpt lat="44.829594512972534" lon="9.813565076129382"><ele>216.0</ele><time>2026-03-28T15:29:41Z</time></trkpt><trkpt lat="44.82968660551173" lon="9.813544792403116"><ele>216.0</ele><time>2026-03-28T15:29:42Z</time></trkpt><trkpt lat="44.82977699275533" lon="9.813511942618316"><ele>214.33333333333334</ele><time>2026-03-28T15:29:43Z</time></trkpt><trkpt lat="44.82986716337469" lon="9.813478364312415"><ele>212.66666666666669</ele><time>2026-03-28T15:29:44Z</time></trkpt><trkpt lat="44.82995746324963" lon="9.813450897474187"><ele>211.0</ele><time>2026-03-28T15:29:45Z</time></trkpt><trkpt lat="44.83004093589952" lon="9.813427810675645"><ele>209.33333333333334</ele><time>2026-03-28T15:29:46Z</time></trkpt><trkpt lat="44.830119864365734" lon="9.813409124300591"><ele>207.66666666666669</ele><time>2026-03-28T15:29:47Z</time></trkpt><trkpt lat="44.83019258756174" lon="9.81338739569961"><ele>206.0</ele><time>2026-03-28T15:29:48Z</time></trkpt><trkpt lat="44.8302657991594" lon="9.813360705105646"><ele>206.00000000000003</ele><time>2026-03-28T15:29:49Z</time></trkpt><trkpt lat="44.83033771365386" lon="9.813331882045587"><ele>206.0</ele><time>2026-03-28T15:29:50Z</time></trkpt><trkpt lat="44.830409922547894" lon="9.813301544958719"><ele>206.0</ele><time>2026-03-28T15:29:51Z</time></trkpt><trkpt lat="44.83048466316258" lon="9.813281541667076"><ele>206.0</ele><time>2026-03-28T15:29:52Z</time></trkpt><trkpt lat="44.83055877502295" lon="9.813254098392871"><ele>206.00000000000003</ele><time>2026-03-28T15:29:53Z</time></trkpt><trkpt lat="44.83063782506451" lon="9.81324413710652"><ele>206.0</ele><time>2026-03-28T15:29:54Z</time></trkpt><trkpt lat="44.83071941081387" lon="9.813218756187856"><ele>206.00000000000003</ele><time>2026-03-28T15:29:55Z</time></trkpt><trkpt lat="44.830800522623036" lon="9.813177350918554"><ele>206.0</ele><time>2026-03-28T15:29:56Z</time></trkpt><trkpt lat="44.830887854884985" lon="9.81315640157282"><ele>206.0</ele><time>2026-03-28T15:29:57Z</time></trkpt><trkpt lat="44.83097487289792" lon="9.813123231092616"><ele>206.0</ele><time>2026-03-28T15:29:58Z</time></trkpt><trkpt lat="44.831061703222545" lon="9.813081454651096"><ele>206.00000000000003</ele><time>2026-03-28T15:29:59Z</time></trkpt><trkpt lat="44.83114851425645" lon="9.813040206613888"><ele>206.0</ele><time>2026-03-28T15:30:00Z</time></trkpt><trkpt lat="44.83122935230772" lon="9.812993794181457"><ele>207.00000000000003</ele><time>2026-03-28T15:30:01Z</time></trkpt><trkpt lat="44.831309062324806" lon="9.812945286554205"><ele>208.0</ele><time>2026-03-28T15:30:02Z</time></trkpt><trkpt lat="44.83138945644295" lon="9.81289876209966"><ele>209.0</ele><time>2026-03-28T15:30:03Z</time></trkpt><trkpt lat="44.831467839469006" lon="9.81284949258628"><ele>210.0</ele><time>2026-03-28T15:30:04Z</time></trkpt><trkpt lat="44.831546145894684" lon="9.812798541222516"><ele>211.00000000000003</ele><time>2026-03-28T15:30:05Z</time></trkpt><trkpt lat="44.83162526685881" lon="9.812747047871783"><ele>212.0</ele><time>2026-03-28T15:30:05.999Z</time></trkpt><trkpt lat="44.831705161053314" lon="9.812697891260754"><ele>210.66666666666669</ele><time>2026-03-28T15:30:06.999Z</time></trkpt><trkpt lat="44.83178544353402" lon="9.812649196856794"><ele>209.33333333333334</ele><time>2026-03-28T15:30:07.999Z</time></trkpt><trkpt lat="44.83186454549507" lon="9.81260009917673"><ele>208.0</ele><time>2026-03-28T15:30:08.999Z</time></trkpt><trkpt lat="44.83194388970077" lon="9.812545804840015"><ele>206.66666666666669</ele><time>2026-03-28T15:30:09.999Z</time></trkpt><trkpt lat="44.83202174663042" lon="9.812493307443138"><ele>205.33333333333334</ele><time>2026-03-28T15:30:10.999Z</time></trkpt><trkpt lat="44.83210120938056" lon="9.812443771782828"><ele>204.0</ele><time>2026-03-28T15:30:11.999Z</time></trkpt><trkpt lat="44.83218194106325" lon="9.812393885739464"><ele>204.0</ele><time>2026-03-28T15:30:12.999Z</time></trkpt><trkpt lat="44.83226209531687" lon="9.81234345034346"><ele>204.0</ele><time>2026-03-28T15:30:13.999Z</time></trkpt><trkpt lat="44.83234355189329" lon="9.812287270444168"><ele>204.0</ele><time>2026-03-28T15:30:14.999Z</time></trkpt><trkpt lat="44.83242672261372" lon="9.812240888283164"><ele>204.0</ele><time>2026-03-28T15:30:15.999Z</time></trkpt><trkpt lat="44.83250988828094" lon="9.812196022147818"><ele>204.0</ele><time>2026-03-28T15:30:16.999Z</time></trkpt><trkpt lat="44.83258934063197" lon="9.812141932414312"><ele>204.0</ele><time>2026-03-28T15:30:17.999Z</time></trkpt><trkpt lat="44.832671855987805" lon="9.812077892437602"><ele>204.5</ele><time>2026-03-28T15:30:18.999Z</time></trkpt><trkpt lat="44.83275240772701" lon="9.81202527086704"><ele>205.0</ele><time>2026-03-28T15:30:19.999Z</time></trkpt><trkpt lat="44.832836562282395" lon="9.811982643059004"><ele>205.5</ele><time>2026-03-28T15:30:20.999Z</time></trkpt><trkpt lat="44.83291800993184" lon="9.811927894098988"><ele>206.0</ele><time>2026-03-28T15:30:21.999Z</time></trkpt><trkpt lat="44.83299854564472" lon="9.811870762902833"><ele>206.5</ele><time>2026-03-28T15:30:22.999Z</time></trkpt><trkpt lat="44.833079470262014" lon="9.811819708007516"><ele>207.0</ele><time>2026-03-28T15:30:23.999Z</time></trkpt><trkpt lat="44.833158562194505" lon="9.811769586168065"><ele>206.16666666666666</ele><time>2026-03-28T15:30:24.999Z</time></trkpt><trkpt lat="44.8332345530937" lon="9.81171939772312"><ele>205.33333333333331</ele><time>2026-03-28T15:30:25.999Z</time></trkpt><trkpt lat="44.83330812891137" lon="9.811666114123685"><ele>204.5</ele><time>2026-03-28T15:30:26.999Z</time></trkpt><trkpt lat="44.83338001868705" lon="9.811620372985544"><ele>203.66666666666666</ele><time>2026-03-28T15:30:27.999Z</time></trkpt><trkpt lat="44.83344805031008" lon="9.81157626720051"><ele>202.83333333333331</ele><time>2026-03-28T15:30:28.999Z</time></trkpt><trkpt lat="44.83351433328403" lon="9.811525951173321"><ele>202.0</ele><time>2026-03-28T15:30:29.999Z</time></trkpt><trkpt lat="44.833579563422894" lon="9.811489343050223"><ele>201.99999999999997</ele><time>2026-03-28T15:30:30.999Z</time></trkpt><trkpt lat="44.83365062019062" lon="9.811471083888533"><ele>202.0</ele><time>2026-03-28T15:30:31.999Z</time></trkpt><trkpt lat="44.833711486587376" lon="9.811424012155165"><ele>202.0</ele><time>2026-03-28T15:30:32.999Z</time></trkpt><trkpt lat="44.833774760434544" lon="9.811429844061529"><ele>202.0</ele><time>2026-03-28T15:30:33.999Z</time></trkpt><trkpt lat="44.83387030573907" lon="9.811424056445292"><ele>201.99999999999997</ele><time>2026-03-28T15:30:35.999Z</time></trkpt><trkpt lat="44.83393353967167" lon="9.811409857487916"><ele>202.0</ele><time>2026-03-28T15:30:38.999Z</time></trkpt><trkpt lat="44.83392861721706" lon="9.811241060621105"><ele>202.0</ele><time>2026-03-28T15:30:39.999Z</time></trkpt><trkpt lat="44.83391700808093" lon="9.81113545515806"><ele>202.0</ele><time>2026-03-28T15:30:41.999Z</time></trkpt><trkpt lat="44.833877468210694" lon="9.81101853257215"><ele>202.0</ele><time>2026-03-28T15:30:43.999Z</time></trkpt><trkpt lat="44.83384615222558" lon="9.810868960225886"><ele>202.0</ele><time>2026-03-28T15:30:45.999Z</time></trkpt><trkpt lat="44.83380470497552" lon="9.810696216152825"><ele>202.0</ele><time>2026-03-28T15:30:47.999Z</time></trkpt><trkpt lat="44.83378109241923" lon="9.810601384596984"><ele>201.16666666666666</ele><time>2026-03-28T15:30:48.999Z</time></trkpt><trkpt lat="44.833757651272286" lon="9.810502921296646"><ele>200.33333333333331</ele><time>2026-03-28T15:30:49.999Z</time></trkpt><trkpt lat="44.833735940299434" lon="9.810400891677155"><ele>199.5</ele><time>2026-03-28T15:30:50.999Z</time></trkpt><trkpt lat="44.8337150169712" lon="9.810296568083979"><ele>198.66666666666669</ele><time>2026-03-28T15:30:51.999Z</time></trkpt><trkpt lat="44.833695547179325" lon="9.810193162897955"><ele>197.83333333333334</ele><time>2026-03-28T15:30:52.999Z</time></trkpt><trkpt lat="44.83367169117695" lon="9.810087559803168"><ele>197.0</ele><time>2026-03-28T15:30:53.999Z</time></trkpt><trkpt lat="44.83364566729262" lon="9.809985190280418"><ele>196.33333333333334</ele><time>2026-03-28T15:30:54.999Z</time></trkpt><trkpt lat="44.83361783022476" lon="9.809886619147948"><ele>195.66666666666669</ele><time>2026-03-28T15:30:55.999Z</time></trkpt><trkpt lat="44.833588421765704" lon="9.809784491772286"><ele>195.0</ele><time>2026-03-28T15:30:56.999Z</time></trkpt><trkpt lat="44.83355243762613" lon="9.809681641981296"><ele>194.33333333333331</ele><time>2026-03-28T15:30:57.999Z</time></trkpt><trkpt lat="44.833512747176464" lon="9.809580470768225"><ele>193.66666666666666</ele><time>2026-03-28T15:30:58.998Z</time></trkpt><trkpt lat="44.83347654697735" lon="9.80947784316217"><ele>193.0</ele><time>2026-03-28T15:30:59.998Z</time></trkpt><trkpt lat="44.833439483308624" lon="9.809376081867105"><ele>192.33333333333331</ele><time>2026-03-28T15:31:00.998Z</time></trkpt><trkpt lat="44.833402437600746" lon="9.809272063946294"><ele>191.66666666666666</ele><time>2026-03-28T15:31:01.998Z</time></trkpt><trkpt lat="44.833360761543034" lon="9.809166244601661"><ele>191.0</ele><time>2026-03-28T15:31:02.998Z</time></trkpt><trkpt lat="44.83331914790618" lon="9.809062365453396"><ele>190.33333333333331</ele><time>2026-03-28T15:31:03.998Z</time></trkpt><trkpt lat="44.833271963796484" lon="9.80896291998619"><ele>189.66666666666666</ele><time>2026-03-28T15:31:04.998Z</time></trkpt><trkpt lat="44.83322841733175" lon="9.808860132017701"><ele>189.0</ele><time>2026-03-28T15:31:05.998Z</time></trkpt><trkpt lat="44.83319312840129" lon="9.808746879208178"><ele>189.0</ele><time>2026-03-28T15:31:06.998Z</time></trkpt><trkpt lat="44.83315131003745" lon="9.80864083251685"><ele>189.0</ele><time>2026-03-28T15:31:07.998Z</time></trkpt><trkpt lat="44.83310884444751" lon="9.808537907097262"><ele>189.0</ele><time>2026-03-28T15:31:08.998Z</time></trkpt><trkpt lat="44.83307008292045" lon="9.808437982182975"><ele>189.0</ele><time>2026-03-28T15:31:09.998Z</time></trkpt><trkpt lat="44.833027915676794" lon="9.808341148732403"><ele>189.0</ele><time>2026-03-28T15:31:10.998Z</time></trkpt><trkpt lat="44.83298720503292" lon="9.808245742331868"><ele>189.0</ele><time>2026-03-28T15:31:11.998Z</time></trkpt><trkpt lat="44.83294733887372" lon="9.808144477315807"><ele>189.16666666666666</ele><time>2026-03-28T15:31:12.998Z</time></trkpt><trkpt lat="44.83290803113578" lon="9.808050155449637"><ele>189.33333333333334</ele><time>2026-03-28T15:31:13.998Z</time></trkpt><trkpt lat="44.83286821301146" lon="9.807956811704985"><ele>189.5</ele><time>2026-03-28T15:31:14.998Z</time></trkpt><trkpt lat="44.832832374757636" lon="9.807862321610418"><ele>189.66666666666669</ele><time>2026-03-28T15:31:15.998Z</time></trkpt><trkpt lat="44.83279646128724" lon="9.807769641911497"><ele>189.83333333333334</ele><time>2026-03-28T15:31:16.998Z</time></trkpt><trkpt lat="44.83276171982855" lon="9.807674066809026"><ele>190.0</ele><time>2026-03-28T15:31:17.998Z</time></trkpt><trkpt lat="44.8327384124785" lon="9.807573386318394"><ele>190.5</ele><time>2026-03-28T15:31:18.998Z</time></trkpt><trkpt lat="44.83272280201285" lon="9.807470759432691"><ele>191.0</ele><time>2026-03-28T15:31:19.998Z</time></trkpt><trkpt lat="44.83271921878615" lon="9.807361727621835"><ele>191.5</ele><time>2026-03-28T15:31:20.998Z</time></trkpt><trkpt lat="44.8327251842123" lon="9.807251946005618"><ele>192.0</ele><time>2026-03-28T15:31:21.998Z</time></trkpt><trkpt lat="44.832737027959105" lon="9.807145700985867"><ele>192.49999999999997</ele><time>2026-03-28T15:31:22.998Z</time></trkpt><trkpt lat="44.83275120496474" lon="9.807041122197791"><ele>193.0</ele><time>2026-03-28T15:31:23.998Z</time></trkpt><trkpt lat="44.83276534609106" lon="9.806938076412045"><ele>192.99999999999997</ele><time>2026-03-28T15:31:24.998Z</time></trkpt><trkpt lat="44.832778994351564" lon="9.806837391060954"><ele>193.0</ele><time>2026-03-28T15:31:25.998Z</time></trkpt><trkpt lat="44.83279044858645" lon="9.806731617815288"><ele>193.0</ele><time>2026-03-28T15:31:26.998Z</time></trkpt><trkpt lat="44.83278766954491" lon="9.806618518991536"><ele>193.0</ele><time>2026-03-28T15:31:28Z</time></trkpt><trkpt lat="44.83278915216865" lon="9.806497538752819"><ele>192.99999999999997</ele><time>2026-03-28T15:31:29Z</time></trkpt><trkpt lat="44.83272923217832" lon="9.80639146859757"><ele>193.0</ele><time>2026-03-28T15:31:30Z</time></trkpt><trkpt lat="44.832671912984935" lon="9.806299637070786"><ele>193.16666666666666</ele><time>2026-03-28T15:31:31Z</time></trkpt><trkpt lat="44.83260722073718" lon="9.806214330307515"><ele>193.33333333333331</ele><time>2026-03-28T15:31:32Z</time></trkpt><trkpt lat="44.83254236707394" lon="9.8061314386796"><ele>193.5</ele><time>2026-03-28T15:31:33Z</time></trkpt><trkpt lat="44.83247645786046" lon="9.806054012260496"><ele>193.66666666666669</ele><time>2026-03-28T15:31:34Z</time></trkpt><trkpt lat="44.832407259028535" lon="9.805982063311097"><ele>193.83333333333334</ele><time>2026-03-28T15:31:35Z</time></trkpt><trkpt lat="44.832338604477236" lon="9.80590719514471"><ele>194.0</ele><time>2026-03-28T15:31:36Z</time></trkpt><trkpt lat="44.832272972575716" lon="9.805835540388385"><ele>194.00000000000003</ele><time>2026-03-28T15:31:37Z</time></trkpt><trkpt lat="44.83221061087363" lon="9.805767967676724"><ele>194.0</ele><time>2026-03-28T15:31:38Z</time></trkpt><trkpt lat="44.83214656433058" lon="9.805704884968923"><ele>194.0</ele><time>2026-03-28T15:31:39Z</time></trkpt><trkpt lat="44.83208198710585" lon="9.805648633779493"><ele>194.0</ele><time>2026-03-28T15:31:40Z</time></trkpt><trkpt lat="44.83202007238244" lon="9.805592311444938"><ele>194.00000000000003</ele><time>2026-03-28T15:31:41Z</time></trkpt><trkpt lat="44.831956263689904" lon="9.805530521018765"><ele>194.0</ele><time>2026-03-28T15:31:42Z</time></trkpt><trkpt lat="44.83189009618451" lon="9.805473138827011"><ele>194.00000000000003</ele><time>2026-03-28T15:31:43Z</time></trkpt><trkpt lat="44.83182209270918" lon="9.805418415967985"><ele>194.0</ele><time>2026-03-28T15:31:44Z</time></trkpt><trkpt lat="44.83175511314732" lon="9.805368352565829"><ele>194.0</ele><time>2026-03-28T15:31:45Z</time></trkpt><trkpt lat="44.83168404590171" lon="9.805323775491686"><ele>194.0</ele><time>2026-03-28T15:31:46Z</time></trkpt><trkpt lat="44.83161197515327" lon="9.805280709058001"><ele>194.00000000000003</ele><time>2026-03-28T15:31:47Z</time></trkpt><trkpt lat="44.83154131602544" lon="9.80523335848879"><ele>194.0</ele><time>2026-03-28T15:31:48Z</time></trkpt><trkpt lat="44.831472251239255" lon="9.805183509541344"><ele>194.57142857142856</ele><time>2026-03-28T15:31:49Z</time></trkpt><trkpt lat="44.83140734920213" lon="9.805131607199428"><ele>195.14285714285717</ele><time>2026-03-28T15:31:50Z</time></trkpt><trkpt lat="44.83134745441667" lon="9.805074981650915"><ele>195.71428571428572</ele><time>2026-03-28T15:31:51Z</time></trkpt><trkpt lat="44.831293385329715" lon="9.805005713806105"><ele>196.28571428571428</ele><time>2026-03-28T15:31:52Z</time></trkpt><trkpt lat="44.83123704673238" lon="9.804940794560968"><ele>196.85714285714283</ele><time>2026-03-28T15:31:53Z</time></trkpt><trkpt lat="44.831180539761036" lon="9.804872760202102"><ele>197.42857142857144</ele><time>2026-03-28T15:31:54Z</time></trkpt><trkpt lat="44.83112503932221" lon="9.804802187873786"><ele>198.0</ele><time>2026-03-28T15:31:55Z</time></trkpt><trkpt lat="44.83106899270277" lon="9.804733189475014"><ele>198.0</ele><time>2026-03-28T15:31:56Z</time></trkpt><trkpt lat="44.83100955491177" lon="9.8046670006459"><ele>198.0</ele><time>2026-03-28T15:31:57Z</time></trkpt><trkpt lat="44.830953357336504" lon="9.804596809624435"><ele>198.0</ele><time>2026-03-28T15:31:58Z</time></trkpt><trkpt lat="44.8309005443647" lon="9.80452624405435"><ele>198.0</ele><time>2026-03-28T15:31:59Z</time></trkpt><trkpt lat="44.83084762150724" lon="9.804459128484579"><ele>198.0</ele><time>2026-03-28T15:32:00Z</time></trkpt><trkpt lat="44.830794352708665" lon="9.804390671689386"><ele>198.0</ele><time>2026-03-28T15:32:01Z</time></trkpt><trkpt lat="44.830740089645694" lon="9.804321007273657"><ele>198.0</ele><time>2026-03-28T15:32:02Z</time></trkpt><trkpt lat="44.83068492093456" lon="9.804252977332416"><ele>198.71428571428572</ele><time>2026-03-28T15:32:03Z</time></trkpt><trkpt lat="44.830630094262496" lon="9.804185775396965"><ele>199.42857142857142</ele><time>2026-03-28T15:32:04Z</time></trkpt><trkpt lat="44.83057761186889" lon="9.804114754385333"><ele>200.14285714285714</ele><time>2026-03-28T15:32:05Z</time></trkpt><trkpt lat="44.83052359788066" lon="9.80404482851092"><ele>200.85714285714286</ele><time>2026-03-28T15:32:06Z</time></trkpt><trkpt lat="44.83046676428573" lon="9.80397544206658"><ele>201.57142857142856</ele><time>2026-03-28T15:32:07Z</time></trkpt><trkpt lat="44.83041205377486" lon="9.803906152503735"><ele>202.28571428571428</ele><time>2026-03-28T15:32:08Z</time></trkpt><trkpt lat="44.830359355498295" lon="9.803829816764528"><ele>203.0</ele><time>2026-03-28T15:32:09Z</time></trkpt><trkpt lat="44.830312174317854" lon="9.803746707065347"><ele>203.0</ele><time>2026-03-28T15:32:09.999Z</time></trkpt><trkpt lat="44.83026824106292" lon="9.803659661734871"><ele>203.0</ele><time>2026-03-28T15:32:10.999Z</time></trkpt><trkpt lat="44.83022799767522" lon="9.80357180633873"><ele>203.0</ele><time>2026-03-28T15:32:11.999Z</time></trkpt><trkpt lat="44.830187112198665" lon="9.80348351840974"><ele>203.0</ele><time>2026-03-28T15:32:12.999Z</time></trkpt><trkpt lat="44.83015299238877" lon="9.803397176183543"><ele>203.0</ele><time>2026-03-28T15:32:13.999Z</time></trkpt><trkpt lat="44.830117794146744" lon="9.80330911381112"><ele>203.0</ele><time>2026-03-28T15:32:14.999Z</time></trkpt><trkpt lat="44.83008405513727" lon="9.803223536142491"><ele>203.0</ele><time>2026-03-28T15:32:15.999Z</time></trkpt><trkpt lat="44.83004806164176" lon="9.803135516256054"><ele>203.0</ele><time>2026-03-28T15:32:16.999Z</time></trkpt><trkpt lat="44.83001674958501" lon="9.803046387904926"><ele>203.0</ele><time>2026-03-28T15:32:17.999Z</time></trkpt><trkpt lat="44.82998520238468" lon="9.802954088050937"><ele>203.0</ele><time>2026-03-28T15:32:18.999Z</time></trkpt><trkpt lat="44.82995060819471" lon="9.802868889754409"><ele>203.0</ele><time>2026-03-28T15:32:19.999Z</time></trkpt><trkpt lat="44.82991326583992" lon="9.80278637382903"><ele>203.0</ele><time>2026-03-28T15:32:20.999Z</time></trkpt><trkpt lat="44.82987886173372" lon="9.80270367758599"><ele>203.0</ele><time>2026-03-28T15:32:21.999Z</time></trkpt><trkpt lat="44.829849289671984" lon="9.802619364805514"><ele>203.0</ele><time>2026-03-28T15:32:22.999Z</time></trkpt><trkpt lat="44.829820512275596" lon="9.80253670931305"><ele>203.57142857142858</ele><time>2026-03-28T15:32:23.999Z</time></trkpt><trkpt lat="44.829788596127884" lon="9.802453224492933"><ele>204.14285714285714</ele><time>2026-03-28T15:32:24.999Z</time></trkpt><trkpt lat="44.829755196473954" lon="9.80237252452538"><ele>204.71428571428572</ele><time>2026-03-28T15:32:25.999Z</time></trkpt><trkpt lat="44.829721487463544" lon="9.802293578739084"><ele>205.28571428571428</ele><time>2026-03-28T15:32:26.999Z</time></trkpt><trkpt lat="44.8296865153548" lon="9.802213227279587"><ele>205.85714285714286</ele><time>2026-03-28T15:32:27.999Z</time></trkpt><trkpt lat="44.82965621947782" lon="9.802131868523016"><ele>206.42857142857144</ele><time>2026-03-28T15:32:28.999Z</time></trkpt><trkpt lat="44.8296250198893" lon="9.802052016598191"><ele>207.0</ele><time>2026-03-28T15:32:29.999Z</time></trkpt><trkpt lat="44.82959456630837" lon="9.801971525097557"><ele>207.0</ele><time>2026-03-28T15:32:30.999Z</time></trkpt><trkpt lat="44.82956658019351" lon="9.80189193062081"><ele>207.0</ele><time>2026-03-28T15:32:31.999Z</time></trkpt><trkpt lat="44.829536947086254" lon="9.801811937597058"><ele>207.0</ele><time>2026-03-28T15:32:32.999Z</time></trkpt><trkpt lat="44.829507427843275" lon="9.801730805522215"><ele>207.0</ele><time>2026-03-28T15:32:33.999Z</time></trkpt><trkpt lat="44.82947904975182" lon="9.801650404028809"><ele>207.0</ele><time>2026-03-28T15:32:34.999Z</time></trkpt><trkpt lat="44.829448971395806" lon="9.801568882360309"><ele>207.0</ele><time>2026-03-28T15:32:35.999Z</time></trkpt><trkpt lat="44.8294232666981" lon="9.801486688243607"><ele>207.0</ele><time>2026-03-28T15:32:36.999Z</time></trkpt><trkpt lat="44.829395790019234" lon="9.80140352440592"><ele>207.0</ele><time>2026-03-28T15:32:37.999Z</time></trkpt><trkpt lat="44.829369462446316" lon="9.801318362767056"><ele>207.16666666666666</ele><time>2026-03-28T15:32:38.999Z</time></trkpt><trkpt lat="44.82934630830036" lon="9.801234260549458"><ele>207.33333333333331</ele><time>2026-03-28T15:32:39.999Z</time></trkpt><trkpt lat="44.8293193702378" lon="9.801153474198882"><ele>207.5</ele><time>2026-03-28T15:32:40.999Z</time></trkpt><trkpt lat="44.82929234663648" lon="9.801069228466504"><ele>207.66666666666666</ele><time>2026-03-28T15:32:41.999Z</time></trkpt><trkpt lat="44.829237868194724" lon="9.800903509108526"><ele>207.83333333333331</ele><time>2026-03-28T15:32:43.999Z</time></trkpt><trkpt lat="44.829213382025635" lon="9.800821187812495"><ele>208.0</ele><time>2026-03-28T15:32:44.999Z</time></trkpt><trkpt lat="44.829188877441005" lon="9.800736838862175"><ele>208.0</ele><time>2026-03-28T15:32:45.999Z</time></trkpt><trkpt lat="44.829165653384194" lon="9.800649881898684"><ele>208.0</ele><time>2026-03-28T15:32:46.999Z</time></trkpt><trkpt lat="44.82914032390265" lon="9.800563186561298"><ele>208.0</ele><time>2026-03-28T15:32:47.999Z</time></trkpt><trkpt lat="44.829113909872014" lon="9.80047840251968"><ele>208.0</ele><time>2026-03-28T15:32:48.999Z</time></trkpt><trkpt lat="44.82908529525053" lon="9.800394424622606"><ele>208.0</ele><time>2026-03-28T15:32:49.999Z</time></trkpt><trkpt lat="44.829057639601835" lon="9.800313370402309"><ele>208.0</ele><time>2026-03-28T15:32:50.999Z</time></trkpt><trkpt lat="44.829031664734195" lon="9.80023132128222"><ele>208.0</ele><time>2026-03-28T15:32:51.999Z</time></trkpt><trkpt lat="44.82898436116415" lon="9.80007817279873"><ele>208.33333333333331</ele><time>2026-03-28T15:32:53.999Z</time></trkpt><trkpt lat="44.82893788189481" lon="9.799952138333355"><ele>208.66666666666666</ele><time>2026-03-28T15:32:55.999Z</time></trkpt><trkpt lat="44.828907336765056" lon="9.799862813456192"><ele>209.0</ele><time>2026-03-28T15:32:57.999Z</time></trkpt><trkpt lat="44.82889770113224" lon="9.799756798328165"><ele>209.33333333333331</ele><time>2026-03-28T15:33:00.999Z</time></trkpt><trkpt lat="44.828949819803015" lon="9.799702438408117"><ele>209.66666666666666</ele><time>2026-03-28T15:33:02.998Z</time></trkpt><trkpt lat="44.82902046840343" lon="9.799628029154933"><ele>210.0</ele><time>2026-03-28T15:33:05.998Z</time></trkpt><trkpt lat="44.829088227035555" lon="9.799563431925312"><ele>210.0</ele><time>2026-03-28T15:33:08.998Z</time></trkpt><trkpt lat="44.829154583637944" lon="9.79948761149949"><ele>210.0</ele><time>2026-03-28T15:33:11.998Z</time></trkpt><trkpt lat="44.829224567889504" lon="9.7994364146138"><ele>210.0</ele><time>2026-03-28T15:33:14.998Z</time></trkpt><trkpt lat="44.82931118838646" lon="9.799444652484683"><ele>210.0</ele><time>2026-03-28T15:33:17.998Z</time></trkpt><trkpt lat="44.82938572692571" lon="9.799488479545069"><ele>210.0</ele><time>2026-03-28T15:33:19.998Z</time></trkpt><trkpt lat="44.82944212867974" lon="9.799539834910897"><ele>210.0</ele><time>2026-03-28T15:33:21.998Z</time></trkpt><trkpt lat="44.82950747067736" lon="9.799582761488798"><ele>210.85714285714286</ele><time>2026-03-28T15:33:23.998Z</time></trkpt><trkpt lat="44.829573864478874" lon="9.799625268608596"><ele>211.71428571428572</ele><time>2026-03-28T15:33:25.998Z</time></trkpt><trkpt lat="44.82963938809359" lon="9.799677739854312"><ele>212.57142857142856</ele><time>2026-03-28T15:33:27.998Z</time></trkpt><trkpt lat="44.82970233573487" lon="9.799732285907679"><ele>213.42857142857144</ele><time>2026-03-28T15:33:29.998Z</time></trkpt><trkpt lat="44.82976125115422" lon="9.79979513589191"><ele>214.28571428571428</ele><time>2026-03-28T15:33:31.998Z</time></trkpt><trkpt lat="44.82981658603915" lon="9.79986490607547"><ele>215.14285714285714</ele><time>2026-03-28T15:33:34Z</time></trkpt><trkpt lat="44.82986645596318" lon="9.799948891410212"><ele>216.0</ele><time>2026-03-28T15:33:36Z</time></trkpt><trkpt lat="44.82990679443296" lon="9.800041795842509"><ele>216.0</ele><time>2026-03-28T15:33:38Z</time></trkpt><trkpt lat="44.82994365562549" lon="9.80013503207782"><ele>216.0</ele><time>2026-03-28T15:33:40Z</time></trkpt><trkpt lat="44.829975962273686" lon="9.800222640375463"><ele>216.0</ele><time>2026-03-28T15:33:42Z</time></trkpt><trkpt lat="44.83000429119114" lon="9.800313387028552"><ele>216.0</ele><time>2026-03-28T15:33:44Z</time></trkpt><trkpt lat="44.83002707889242" lon="9.80040856265598"><ele>216.0</ele><time>2026-03-28T15:33:46Z</time></trkpt><trkpt lat="44.83004709776731" lon="9.800502610093298"><ele>216.0</ele><time>2026-03-28T15:33:48Z</time></trkpt><trkpt lat="44.83006732981579" lon="9.80059135181538"><ele>216.0</ele><time>2026-03-28T15:33:50Z</time></trkpt><trkpt lat="44.83010081359989" lon="9.800703934290281"><ele>215.83333333333334</ele><time>2026-03-28T15:33:53Z</time></trkpt><trkpt lat="44.83013320658606" lon="9.800811744933904"><ele>215.66666666666669</ele><time>2026-03-28T15:33:56Z</time></trkpt><trkpt lat="44.83018753561577" lon="9.800881678303236"><ele>215.5</ele><time>2026-03-28T15:33:59Z</time></trkpt><trkpt lat="44.83026560348284" lon="9.80086492467011"><ele>215.33333333333334</ele><time>2026-03-28T15:34:02Z</time></trkpt><trkpt lat="44.83031490914499" lon="9.800778182124041"><ele>215.16666666666669</ele><time>2026-03-28T15:34:05Z</time></trkpt><trkpt lat="44.83034825951687" lon="9.80068645847607"><ele>215.0</ele><time>2026-03-28T15:34:08Z</time></trkpt><trkpt lat="44.83037950114384" lon="9.800594639908876"><ele>217.42857142857142</ele><time>2026-03-28T15:34:11Z</time></trkpt><trkpt lat="44.830420872624934" lon="9.8005063537663"><ele>219.8571428571429</ele><time>2026-03-28T15:34:14Z</time></trkpt><trkpt lat="44.83046287121375" lon="9.800420895810793"><ele>222.2857142857143</ele><time>2026-03-28T15:34:16.999Z</time></trkpt><trkpt lat="44.8305182469235" lon="9.800352019178103"><ele>224.71428571428572</ele><time>2026-03-28T15:34:19.999Z</time></trkpt><trkpt lat="44.83057473410203" lon="9.800288984275872"><ele>227.14285714285717</ele><time>2026-03-28T15:34:22.999Z</time></trkpt><trkpt lat="44.83064529462391" lon="9.800238897040218"><ele>229.5714285714286</ele><time>2026-03-28T15:34:25.999Z</time></trkpt><trkpt lat="44.83071464569443" lon="9.800210719008739"><ele>232.00000000000003</ele><time>2026-03-28T15:34:28.999Z</time></trkpt><trkpt lat="44.830782889285445" lon="9.800163933706706"><ele>231.99999999999997</ele><time>2026-03-28T15:34:31.999Z</time></trkpt><trkpt lat="44.83085181589882" lon="9.800111805126711"><ele>232.0</ele><time>2026-03-28T15:34:34.999Z</time></trkpt><trkpt lat="44.83092495328263" lon="9.800070039687814"><ele>232.0</ele><time>2026-03-28T15:34:37.999Z</time></trkpt><trkpt lat="44.830992820142676" lon="9.800028445497851"><ele>232.0</ele><time>2026-03-28T15:34:40.999Z</time></trkpt><trkpt lat="44.83105653990987" lon="9.799967759071354"><ele>231.99999999999997</ele><time>2026-03-28T15:34:43.999Z</time></trkpt><trkpt lat="44.83111373378731" lon="9.799897112528647"><ele>232.0</ele><time>2026-03-28T15:34:46.999Z</time></trkpt><trkpt lat="44.83116100106903" lon="9.799810562801591"><ele>233.66666666666666</ele><time>2026-03-28T15:34:49.999Z</time></trkpt><trkpt lat="44.83120035028621" lon="9.799718190504496"><ele>235.33333333333331</ele><time>2026-03-28T15:34:52.999Z</time></trkpt><trkpt lat="44.831236262518956" lon="9.799613994882543"><ele>237.0</ele><time>2026-03-28T15:34:55.999Z</time></trkpt><trkpt lat="44.83126188641985" lon="9.799510507406893"><ele>238.66666666666669</ele><time>2026-03-28T15:34:58.999Z</time></trkpt><trkpt lat="44.83127998865947" lon="9.799404287857683"><ele>240.33333333333334</ele><time>2026-03-28T15:35:01.999Z</time></trkpt><trkpt lat="44.8312885206419" lon="9.799296376131851"><ele>242.0</ele><time>2026-03-28T15:35:04.999Z</time></trkpt><trkpt lat="44.83129355917326" lon="9.799189977954724"><ele>242.00000000000003</ele><time>2026-03-28T15:35:07.998Z</time></trkpt><trkpt lat="44.831280928773566" lon="9.799087047835952"><ele>242.0</ele><time>2026-03-28T15:35:10.998Z</time></trkpt><trkpt lat="44.83127016907157" lon="9.79898394958928"><ele>242.0</ele><time>2026-03-28T15:35:13.998Z</time></trkpt><trkpt lat="44.8312803734522" lon="9.798878058678996"><ele>242.0</ele><time>2026-03-28T15:35:16.998Z</time></trkpt><trkpt lat="44.8313330820962" lon="9.79881491769003"><ele>242.00000000000003</ele><time>2026-03-28T15:35:19.998Z</time></trkpt><trkpt lat="44.831413098329946" lon="9.79882221807186"><ele>242.0</ele><time>2026-03-28T15:35:22.998Z</time></trkpt><trkpt lat="44.83148498867601" lon="9.798869933543058"><ele>242.00000000000003</ele><time>2026-03-28T15:35:25.998Z</time></trkpt><trkpt lat="44.831558646961746" lon="9.798904571992148"><ele>242.0</ele><time>2026-03-28T15:35:28.998Z</time></trkpt><trkpt lat="44.83162882284755" lon="9.798946856562655"><ele>242.0</ele><time>2026-03-28T15:35:31.998Z</time></trkpt><trkpt lat="44.83169459306472" lon="9.798979867149615"><ele>242.0</ele><time>2026-03-28T15:35:34.998Z</time></trkpt><trkpt lat="44.83176429378632" lon="9.799021851811737"><ele>242.00000000000003</ele><time>2026-03-28T15:35:37.998Z</time></trkpt><trkpt lat="44.831834731561365" lon="9.799068437041923"><ele>242.0</ele><time>2026-03-28T15:35:41Z</time></trkpt><trkpt lat="44.831906102060216" lon="9.799134961665342"><ele>242.83333333333334</ele><time>2026-03-28T15:35:44Z</time></trkpt><trkpt lat="44.83197021935477" lon="9.79922550346199"><ele>243.66666666666669</ele><time>2026-03-28T15:35:47Z</time></trkpt><trkpt lat="44.83201498941147" lon="9.79928821837829"><ele>244.5</ele><time>2026-03-28T15:35:49Z</time></trkpt><trkpt lat="44.832064910319964" lon="9.799366045574613"><ele>245.33333333333331</ele><time>2026-03-28T15:35:51Z</time></trkpt><trkpt lat="44.83213017912848" lon="9.799437117934833"><ele>246.16666666666666</ele><time>2026-03-28T15:35:53Z</time></trkpt><trkpt lat="44.83225251273916" lon="9.799517230689126"><ele>247.0</ele><time>2026-03-28T15:35:56Z</time></trkpt><trkpt lat="44.832351783814346" lon="9.799513733166759"><ele>249.0</ele><time>2026-03-28T15:35:58Z</time></trkpt><trkpt lat="44.83245759363975" lon="9.799491213875873"><ele>251.0</ele><time>2026-03-28T15:36:00Z</time></trkpt><trkpt lat="44.83255026485014" lon="9.79947183254055"><ele>253.0</ele><time>2026-03-28T15:36:02Z</time></trkpt><trkpt lat="44.8326432189186" lon="9.79946959157662"><ele>255.0</ele><time>2026-03-28T15:36:04Z</time></trkpt><trkpt lat="44.83273046845823" lon="9.799479376918677"><ele>257.0</ele><time>2026-03-28T15:36:06Z</time></trkpt><trkpt lat="44.8328038714148" lon="9.799507877352193"><ele>257.0</ele><time>2026-03-28T15:36:08Z</time></trkpt><trkpt lat="44.83287190999499" lon="9.79956355649564"><ele>257.0</ele><time>2026-03-28T15:36:10Z</time></trkpt><trkpt lat="44.83294217977571" lon="9.799625701826024"><ele>257.0</ele><time>2026-03-28T15:36:12Z</time></trkpt><trkpt lat="44.83301961798453" lon="9.799683282669951"><ele>257.0</ele><time>2026-03-28T15:36:14Z</time></trkpt><trkpt lat="44.83309222873815" lon="9.799749993802173"><ele>257.0</ele><time>2026-03-28T15:36:16Z</time></trkpt><trkpt lat="44.83315370772102" lon="9.799794310838367"><ele>257.0</ele><time>2026-03-28T15:36:17.999Z</time></trkpt><trkpt lat="44.83323013187328" lon="9.799870361697272"><ele>257.0</ele><time>2026-03-28T15:36:19.999Z</time></trkpt><trkpt lat="44.8333127174485" lon="9.799936373006947"><ele>257.0</ele><time>2026-03-28T15:36:21.999Z</time></trkpt><trkpt lat="44.833383555747105" lon="9.7999966252688"><ele>257.0</ele><time>2026-03-28T15:36:22.999Z</time></trkpt><trkpt lat="44.83349470277249" lon="9.800041569001715"><ele>257.0</ele><time>2026-03-28T15:36:24.999Z</time></trkpt><trkpt lat="44.83361827025395" lon="9.800035652993767"><ele>257.0</ele><time>2026-03-28T15:36:26.999Z</time></trkpt><trkpt lat="44.83372740172932" lon="9.79994701959972"><ele>255.57142857142856</ele><time>2026-03-28T15:36:28.999Z</time></trkpt><trkpt lat="44.83377742491031" lon="9.799880236826507"><ele>254.14285714285717</ele><time>2026-03-28T15:36:29.999Z</time></trkpt><trkpt lat="44.833826977146146" lon="9.799813267058573"><ele>252.71428571428572</ele><time>2026-03-28T15:36:30.999Z</time></trkpt><trkpt lat="44.83387427867755" lon="9.799741780386771"><ele>251.28571428571428</ele><time>2026-03-28T15:36:31.999Z</time></trkpt><trkpt lat="44.833903740705175" lon="9.799649549224249"><ele>249.85714285714283</ele><time>2026-03-28T15:36:32.999Z</time></trkpt><trkpt lat="44.83392887529133" lon="9.79954987212453"><ele>248.42857142857144</ele><time>2026-03-28T15:36:33.999Z</time></trkpt><trkpt lat="44.8339631014574" lon="9.79944966257744"><ele>247.0</ele><time>2026-03-28T15:36:34.999Z</time></trkpt><trkpt lat="44.8339981680926" lon="9.799350461353058"><ele>246.49999999999997</ele><time>2026-03-28T15:36:35.999Z</time></trkpt><trkpt lat="44.83403778804612" lon="9.799252097253879"><ele>246.0</ele><time>2026-03-28T15:36:36.999Z</time></trkpt><trkpt lat="44.83407349385532" lon="9.79914739219719"><ele>245.5</ele><time>2026-03-28T15:36:37.999Z</time></trkpt><trkpt lat="44.83410580886829" lon="9.799037798875647"><ele>245.0</ele><time>2026-03-28T15:36:38.999Z</time></trkpt><trkpt lat="44.8341325789953" lon="9.798924178813996"><ele>244.49999999999997</ele><time>2026-03-28T15:36:39.999Z</time></trkpt><trkpt lat="44.83415887089662" lon="9.798809701336927"><ele>244.0</ele><time>2026-03-28T15:36:40.999Z</time></trkpt><trkpt lat="44.83417852371339" lon="9.798698871816404"><ele>243.99999999999997</ele><time>2026-03-28T15:36:41.999Z</time></trkpt><trkpt lat="44.83419174827769" lon="9.79858759861428"><ele>244.0</ele><time>2026-03-28T15:36:42.999Z</time></trkpt><trkpt lat="44.834201476869104" lon="9.798483985851174"><ele>243.99999999999997</ele><time>2026-03-28T15:36:43.999Z</time></trkpt><trkpt lat="44.8342147959777" lon="9.798384136286948"><ele>243.99999999999997</ele><time>2026-03-28T15:36:44.999Z</time></trkpt><trkpt lat="44.83423282516156" lon="9.798290237949832"><ele>244.0</ele><time>2026-03-28T15:36:45.999Z</time></trkpt><trkpt lat="44.83425726936603" lon="9.798202099121404"><ele>243.99999999999997</ele><time>2026-03-28T15:36:46.999Z</time></trkpt><trkpt lat="44.834281405321825" lon="9.798119089271335"><ele>243.99999999999997</ele><time>2026-03-28T15:36:47.999Z</time></trkpt><trkpt lat="44.83431207177471" lon="9.798035153063813"><ele>246.25</ele><time>2026-03-28T15:36:48.999Z</time></trkpt><trkpt lat="44.834378817825844" lon="9.797880452905147"><ele>248.5</ele><time>2026-03-28T15:36:50.999Z</time></trkpt><trkpt lat="44.83444887658967" lon="9.797732626819776"><ele>250.75</ele><time>2026-03-28T15:36:52.999Z</time></trkpt><trkpt lat="44.83453753717008" lon="9.79761746283795"><ele>253.0</ele><time>2026-03-28T15:36:54.999Z</time></trkpt><trkpt lat="44.8346248456709" lon="9.797503073603304"><ele>252.99999999999997</ele><time>2026-03-28T15:36:56.999Z</time></trkpt><trkpt lat="44.834715575037265" lon="9.797382037030507"><ele>253.0</ele><time>2026-03-28T15:36:58.999Z</time></trkpt><trkpt lat="44.834763872037904" lon="9.797311074664323"><ele>253.0</ele><time>2026-03-28T15:36:59.999Z</time></trkpt><trkpt lat="44.83479594581447" lon="9.797232948298435"><ele>253.0</ele><time>2026-03-28T15:37:00.999Z</time></trkpt><trkpt lat="44.83482167095483" lon="9.79714433150864"><ele>252.99999999999997</ele><time>2026-03-28T15:37:01.999Z</time></trkpt><trkpt lat="44.83482969405157" lon="9.797050112939585"><ele>253.0</ele><time>2026-03-28T15:37:02.999Z</time></trkpt><trkpt lat="44.83483287929299" lon="9.796958339155063"><ele>254.4</ele><time>2026-03-28T15:37:03.999Z</time></trkpt><trkpt lat="44.83483336010843" lon="9.796787335211295"><ele>255.8</ele><time>2026-03-28T15:37:05.999Z</time></trkpt><trkpt lat="44.83484004759016" lon="9.796613705229893"><ele>257.2</ele><time>2026-03-28T15:37:07.999Z</time></trkpt><trkpt lat="44.83484096163515" lon="9.79645664020284"><ele>258.6</ele><time>2026-03-28T15:37:09.998Z</time></trkpt><trkpt lat="44.834851580043164" lon="9.796367197187326"><ele>260.0</ele><time>2026-03-28T15:37:10.998Z</time></trkpt><trkpt lat="44.83486562034897" lon="9.796201922410527"><ele>260.0</ele><time>2026-03-28T15:37:12.998Z</time></trkpt><trkpt lat="44.83487523909037" lon="9.796113452224816"><ele>260.0</ele><time>2026-03-28T15:37:13.998Z</time></trkpt><trkpt lat="44.834884771603825" lon="9.795952930012962"><ele>260.0</ele><time>2026-03-28T15:37:15.998Z</time></trkpt><trkpt lat="44.83491030904876" lon="9.795797133217123"><ele>260.0</ele><time>2026-03-28T15:37:17.998Z</time></trkpt><trkpt lat="44.83497255947569" lon="9.795649449912574"><ele>260.0</ele><time>2026-03-28T15:37:19.998Z</time></trkpt><trkpt lat="44.83503896476705" lon="9.795523404173798"><ele>260.0</ele><time>2026-03-28T15:37:21.998Z</time></trkpt><trkpt lat="44.835087893526364" lon="9.795389441301255"><ele>260.0</ele><time>2026-03-28T15:37:23.998Z</time></trkpt><trkpt lat="44.835158981942925" lon="9.795278784406355"><ele>260.0</ele><time>2026-03-28T15:37:25.998Z</time></trkpt><trkpt lat="44.835206990732836" lon="9.79515232652071"><ele>260.0</ele><time>2026-03-28T15:37:27.998Z</time></trkpt><trkpt lat="44.83524376617434" lon="9.795011677232562"><ele>260.0</ele><time>2026-03-28T15:37:29.998Z</time></trkpt><trkpt lat="44.83528002369769" lon="9.794870244763128"><ele>259.8</ele><time>2026-03-28T15:37:31.998Z</time></trkpt><trkpt lat="44.83531399261741" lon="9.794744415765338"><ele>259.6</ele><time>2026-03-28T15:37:33.998Z</time></trkpt><trkpt lat="44.83534111290406" lon="9.794609434053747"><ele>259.4</ele><time>2026-03-28T15:37:35.998Z</time></trkpt><trkpt lat="44.83536598200561" lon="9.794466123877134"><ele>259.2</ele><time>2026-03-28T15:37:37.998Z</time></trkpt><trkpt lat="44.835390027095286" lon="9.794333727746473"><ele>259.0</ele><time>2026-03-28T15:37:39.998Z</time></trkpt><trkpt lat="44.83541515811331" lon="9.79420809176395"><ele>259.0</ele><time>2026-03-28T15:37:41.998Z</time></trkpt><trkpt lat="44.835430863962095" lon="9.794092187969108"><ele>259.0</ele><time>2026-03-28T15:37:44Z</time></trkpt><trkpt lat="44.83544181407353" lon="9.793980271638508"><ele>259.0</ele><time>2026-03-28T15:37:46Z</time></trkpt><trkpt lat="44.83544522779893" lon="9.7938621659926"><ele>259.0</ele><time>2026-03-28T15:37:48Z</time></trkpt><trkpt lat="44.835432922347906" lon="9.793740982284865"><ele>259.0</ele><time>2026-03-28T15:37:50Z</time></trkpt><trkpt lat="44.835410596403655" lon="9.793631688985977"><ele>259.0</ele><time>2026-03-28T15:37:52Z</time></trkpt><trkpt lat="44.83537124032599" lon="9.793520752853524"><ele>259.2</ele><time>2026-03-28T15:37:54Z</time></trkpt><trkpt lat="44.835315919591714" lon="9.793416152195784"><ele>259.4</ele><time>2026-03-28T15:37:56Z</time></trkpt><trkpt lat="44.83525568942674" lon="9.793324931248067"><ele>259.6</ele><time>2026-03-28T15:37:58Z</time></trkpt><trkpt lat="44.83519553086133" lon="9.793223555462742"><ele>259.8</ele><time>2026-03-28T15:38:00Z</time></trkpt><trkpt lat="44.8351396649093" lon="9.79312215510171"><ele>260.0</ele><time>2026-03-28T15:38:02Z</time></trkpt><trkpt lat="44.835088410306" lon="9.793013180255043"><ele>260.0</ele><time>2026-03-28T15:38:04Z</time></trkpt><trkpt lat="44.83505224214864" lon="9.792895480939935"><ele>260.0</ele><time>2026-03-28T15:38:06Z</time></trkpt><trkpt lat="44.835031411041754" lon="9.792779294833176"><ele>260.0</ele><time>2026-03-28T15:38:08Z</time></trkpt><trkpt lat="44.835013823834636" lon="9.792664687757883"><ele>260.0</ele><time>2026-03-28T15:38:10Z</time></trkpt><trkpt lat="44.834997427804396" lon="9.792547316402787"><ele>260.0</ele><time>2026-03-28T15:38:12Z</time></trkpt><trkpt lat="44.83497919585435" lon="9.792430778764604"><ele>260.0</ele><time>2026-03-28T15:38:14Z</time></trkpt><trkpt lat="44.83494851170658" lon="9.792309249000722"><ele>261.2</ele><time>2026-03-28T15:38:16Z</time></trkpt><trkpt lat="44.83491063445535" lon="9.792196803668487"><ele>262.4</ele><time>2026-03-28T15:38:18Z</time></trkpt><trkpt lat="44.834889170857515" lon="9.792068296571141"><ele>263.6</ele><time>2026-03-28T15:38:19.999Z</time></trkpt><trkpt lat="44.83489285266214" lon="9.791916528281572"><ele>264.8</ele><time>2026-03-28T15:38:21.999Z</time></trkpt><trkpt lat="44.83489764712264" lon="9.791779394999237"><ele>266.0</ele><time>2026-03-28T15:38:23.999Z</time></trkpt><trkpt lat="44.83492002969024" lon="9.791675804797213"><ele>266.7142857142857</ele><time>2026-03-28T15:38:25.999Z</time></trkpt><trkpt lat="44.834937391947044" lon="9.791566288016364"><ele>267.42857142857144</ele><time>2026-03-28T15:38:27.999Z</time></trkpt><trkpt lat="44.834956488022335" lon="9.7914811481816"><ele>268.1428571428571</ele><time>2026-03-28T15:38:29.999Z</time></trkpt><trkpt lat="44.83498700172866" lon="9.791398475938744"><ele>268.8571428571429</ele><time>2026-03-28T15:38:31.999Z</time></trkpt><trkpt lat="44.83503555304461" lon="9.791305107276742"><ele>269.57142857142856</ele><time>2026-03-28T15:38:34.999Z</time></trkpt><trkpt lat="44.83509750532173" lon="9.791221515827264"><ele>270.2857142857143</ele><time>2026-03-28T15:38:37.999Z</time></trkpt><trkpt lat="44.835147436729955" lon="9.791147092197326"><ele>271.0</ele><time>2026-03-28T15:38:40.999Z</time></trkpt><trkpt lat="44.835206728309316" lon="9.791080619344122"><ele>273.42857142857144</ele><time>2026-03-28T15:38:43.999Z</time></trkpt><trkpt lat="44.83525849577414" lon="9.791000531111703"><ele>275.8571428571429</ele><time>2026-03-28T15:38:46.999Z</time></trkpt><trkpt lat="44.83531574446552" lon="9.790927980622104"><ele>278.28571428571433</ele><time>2026-03-28T15:38:49.999Z</time></trkpt><trkpt lat="44.835360229960706" lon="9.790842471224039"><ele>280.7142857142857</ele><time>2026-03-28T15:38:52.999Z</time></trkpt><trkpt lat="44.83539798082105" lon="9.790745995624926"><ele>283.14285714285717</ele><time>2026-03-28T15:38:55.999Z</time></trkpt><trkpt lat="44.835405630135405" lon="9.790651908517741"><ele>285.5714285714286</ele><time>2026-03-28T15:38:58.999Z</time></trkpt><trkpt lat="44.835399709005756" lon="9.790556885516331"><ele>288.0</ele><time>2026-03-28T15:39:01.999Z</time></trkpt><trkpt lat="44.8353907966967" lon="9.790446349504691"><ele>288.00000000000006</ele><time>2026-03-28T15:39:04.999Z</time></trkpt><trkpt lat="44.835378450953954" lon="9.790358601711239"><ele>288.0</ele><time>2026-03-28T15:39:07.999Z</time></trkpt><trkpt lat="44.83535721364108" lon="9.790257979568217"><ele>288.0</ele><time>2026-03-28T15:39:09.999Z</time></trkpt><trkpt lat="44.83533541547874" lon="9.79015843005772"><ele>288.0</ele><time>2026-03-28T15:39:12.998Z</time></trkpt><trkpt lat="44.83531852129782" lon="9.790061348656682"><ele>288.0</ele><time>2026-03-28T15:39:15.998Z</time></trkpt><trkpt lat="44.83529520870383" lon="9.789953926884609"><ele>288.00000000000006</ele><time>2026-03-28T15:39:18.998Z</time></trkpt><trkpt lat="44.83528261014947" lon="9.789844948744001"><ele>288.0</ele><time>2026-03-28T15:39:21.998Z</time></trkpt><trkpt lat="44.835291132047374" lon="9.789736914331469"><ele>289.8333333333333</ele><time>2026-03-28T15:39:23.998Z</time></trkpt><trkpt lat="44.83530380801134" lon="9.789632706321292"><ele>291.6666666666667</ele><time>2026-03-28T15:39:25.998Z</time></trkpt><trkpt lat="44.83532267131924" lon="9.78953598760893"><ele>293.5</ele><time>2026-03-28T15:39:27.998Z</time></trkpt><trkpt lat="44.83532387820954" lon="9.78941662634503"><ele>295.33333333333337</ele><time>2026-03-28T15:39:29.998Z</time></trkpt><trkpt lat="44.83533860680519" lon="9.789300440788267"><ele>297.1666666666667</ele><time>2026-03-28T15:39:31.998Z</time></trkpt><trkpt lat="44.835326609910645" lon="9.789194256650486"><ele>299.0</ele><time>2026-03-28T15:39:33.998Z</time></trkpt><trkpt lat="44.83528278452428" lon="9.789094430884878"><ele>300.42857142857144</ele><time>2026-03-28T15:39:35.998Z</time></trkpt><trkpt lat="44.835220901030944" lon="9.789029156283833"><ele>301.8571428571429</ele><time>2026-03-28T15:39:37.998Z</time></trkpt><trkpt lat="44.83515362241811" lon="9.78898116124266"><ele>303.28571428571433</ele><time>2026-03-28T15:39:39.998Z</time></trkpt><trkpt lat="44.83508108177322" lon="9.788956353828723"><ele>304.7142857142857</ele><time>2026-03-28T15:39:41.998Z</time></trkpt><trkpt lat="44.83501149681082" lon="9.788928344080066"><ele>306.14285714285717</ele><time>2026-03-28T15:39:43.998Z</time></trkpt><trkpt lat="44.83495579358084" lon="9.78887358428808"><ele>307.5714285714286</ele><time>2026-03-28T15:39:45.998Z</time></trkpt><trkpt lat="44.83493617883499" lon="9.788787694475394"><ele>309.0</ele><time>2026-03-28T15:39:47.998Z</time></trkpt><trkpt lat="44.83496267381059" lon="9.78870441272761"><ele>309.00000000000006</ele><time>2026-03-28T15:39:50Z</time></trkpt><trkpt lat="44.835040247928944" lon="9.788695271586036"><ele>309.0</ele><time>2026-03-28T15:39:52Z</time></trkpt><trkpt lat="44.83510543542571" lon="9.788726971168929"><ele>309.0</ele><time>2026-03-28T15:39:54Z</time></trkpt><trkpt lat="44.83517535880615" lon="9.788757564028094"><ele>309.0</ele><time>2026-03-28T15:39:56Z</time></trkpt><trkpt lat="44.83524053554871" lon="9.78878108116312"><ele>309.0</ele><time>2026-03-28T15:39:58Z</time></trkpt><trkpt lat="44.83530107277755" lon="9.788810266244775"><ele>309.00000000000006</ele><time>2026-03-28T15:40:00Z</time></trkpt><trkpt lat="44.835361801050084" lon="9.788840988851442"><ele>309.0</ele><time>2026-03-28T15:40:02Z</time></trkpt><trkpt lat="44.83543787577475" lon="9.788912013400173"><ele>309.0</ele><time>2026-03-28T15:40:05Z</time></trkpt><trkpt lat="44.8354929611376" lon="9.788988775329685"><ele>309.0</ele><time>2026-03-28T15:40:08Z</time></trkpt><trkpt lat="44.835537102068876" lon="9.789084840062378"><ele>309.0</ele><time>2026-03-28T15:40:11Z</time></trkpt><trkpt lat="44.83558602968123" lon="9.789191215221189"><ele>309.0</ele><time>2026-03-28T15:40:14Z</time></trkpt><trkpt lat="44.83563597190485" lon="9.789247239623801"><ele>309.0</ele><time>2026-03-28T15:40:16Z</time></trkpt><trkpt lat="44.8356983560647" lon="9.789306203442905"><ele>309.0</ele><time>2026-03-28T15:40:18Z</time></trkpt><trkpt lat="44.835757037185466" lon="9.789341260396041"><ele>307.5714285714286</ele><time>2026-03-28T15:40:20Z</time></trkpt><trkpt lat="44.8358242605916" lon="9.789373516048524"><ele>306.14285714285717</ele><time>2026-03-28T15:40:22Z</time></trkpt><trkpt lat="44.83588204728631" lon="9.789413904285151"><ele>304.7142857142857</ele><time>2026-03-28T15:40:23.999Z</time></trkpt><trkpt lat="44.835937424409" lon="9.789494738642729"><ele>303.28571428571433</ele><time>2026-03-28T15:40:25.999Z</time></trkpt><trkpt lat="44.83597214157525" lon="9.78958978434558"><ele>301.8571428571429</ele><time>2026-03-28T15:40:27.999Z</time></trkpt><trkpt lat="44.83598400330872" lon="9.789697154095448"><ele>300.42857142857144</ele><time>2026-03-28T15:40:29.999Z</time></trkpt><trkpt lat="44.8359809321376" lon="9.789800876662824"><ele>299.0</ele><time>2026-03-28T15:40:31.999Z</time></trkpt><trkpt lat="44.835965314519" lon="9.789911486465835"><ele>299.0</ele><time>2026-03-28T15:40:33.999Z</time></trkpt><trkpt lat="44.83596670784179" lon="9.790023640173679"><ele>299.0</ele><time>2026-03-28T15:40:35.999Z</time></trkpt><trkpt lat="44.83596172255925" lon="9.790139597014296"><ele>299.0</ele><time>2026-03-28T15:40:37.999Z</time></trkpt><trkpt lat="44.83597379190435" lon="9.790256348368747"><ele>299.0</ele><time>2026-03-28T15:40:39.999Z</time></trkpt><trkpt lat="44.83600726934825" lon="9.790366405580126"><ele>299.0</ele><time>2026-03-28T15:40:41.999Z</time></trkpt><trkpt lat="44.83606560138442" lon="9.790463871955522"><ele>299.0</ele><time>2026-03-28T15:40:43.999Z</time></trkpt><trkpt lat="44.83613446548191" lon="9.790546075616883"><ele>301.8</ele><time>2026-03-28T15:40:45.999Z</time></trkpt><trkpt lat="44.836203390366485" lon="9.790631635125452"><ele>304.59999999999997</ele><time>2026-03-28T15:40:47.999Z</time></trkpt><trkpt lat="44.83626691260014" lon="9.790696854854488"><ele>307.4</ele><time>2026-03-28T15:40:49.999Z</time></trkpt><trkpt lat="44.83633441147234" lon="9.790755938749063"><ele>310.2</ele><time>2026-03-28T15:40:51.999Z</time></trkpt><trkpt lat="44.83644022783664" lon="9.790837070019778"><ele>313.0</ele><time>2026-03-28T15:40:53.999Z</time></trkpt><trkpt lat="44.836533040352926" lon="9.79089086531696"><ele>313.0</ele><time>2026-03-28T15:40:55.999Z</time></trkpt><trkpt lat="44.83662176447004" lon="9.790934629186095"><ele>313.0</ele><time>2026-03-28T15:40:57.999Z</time></trkpt><trkpt lat="44.83671303393739" lon="9.790981690820315"><ele>313.0</ele><time>2026-03-28T15:40:59.999Z</time></trkpt><trkpt lat="44.83679914033732" lon="9.791040813520862"><ele>313.0</ele><time>2026-03-28T15:41:01.999Z</time></trkpt><trkpt lat="44.83687851622531" lon="9.791116454026158"><ele>313.0</ele><time>2026-03-28T15:41:03.999Z</time></trkpt><trkpt lat="44.836954794186255" lon="9.79120093370132"><ele>315.2</ele><time>2026-03-28T15:41:05.999Z</time></trkpt><trkpt lat="44.837028070991686" lon="9.79129596074849"><ele>317.4</ele><time>2026-03-28T15:41:07.999Z</time></trkpt><trkpt lat="44.837106621495884" lon="9.791384181277897"><ele>319.59999999999997</ele><time>2026-03-28T15:41:09.999Z</time></trkpt><trkpt lat="44.83718482576901" lon="9.791472018903548"><ele>321.8</ele><time>2026-03-28T15:41:11.999Z</time></trkpt><trkpt lat="44.83725306177427" lon="9.791576504525233"><ele>324.0</ele><time>2026-03-28T15:41:13.999Z</time></trkpt><trkpt lat="44.83729842256577" lon="9.791702948530034"><ele>324.0</ele><time>2026-03-28T15:41:15.999Z</time></trkpt><trkpt lat="44.83734446778721" lon="9.791825678643733"><ele>324.0</ele><time>2026-03-28T15:41:17.998Z</time></trkpt><trkpt lat="44.83740938890641" lon="9.791928672089279"><ele>324.0</ele><time>2026-03-28T15:41:19.998Z</time></trkpt><trkpt lat="44.837487355727596" lon="9.792021556615172"><ele>324.0</ele><time>2026-03-28T15:41:21.998Z</time></trkpt><trkpt lat="44.83756830014388" lon="9.792092653846103"><ele>324.0</ele><time>2026-03-28T15:41:23.998Z</time></trkpt><trkpt lat="44.83766271016065" lon="9.792152742554709"><ele>325.4</ele><time>2026-03-28T15:41:25.998Z</time></trkpt><trkpt lat="44.83775291646807" lon="9.792212262398106"><ele>326.79999999999995</ele><time>2026-03-28T15:41:27.998Z</time></trkpt><trkpt lat="44.837836929071955" lon="9.792271409348292"><ele>328.20000000000005</ele><time>2026-03-28T15:41:29.998Z</time></trkpt><trkpt lat="44.83791425742521" lon="9.792357425965452"><ele>329.6</ele><time>2026-03-28T15:41:31.998Z</time></trkpt><trkpt lat="44.837980523896064" lon="9.792453647935908"><ele>331.0</ele><time>2026-03-28T15:41:33.998Z</time></trkpt><trkpt lat="44.83804874220278" lon="9.792545825990148"><ele>331.0</ele><time>2026-03-28T15:41:35.998Z</time></trkpt><trkpt lat="44.838098388544644" lon="9.792662232928635"><ele>331.0</ele><time>2026-03-28T15:41:37.998Z</time></trkpt><trkpt lat="44.83815609576638" lon="9.792768763720929"><ele>331.0</ele><time>2026-03-28T15:41:39.998Z</time></trkpt><trkpt lat="44.838204354285594" lon="9.792887107246125"><ele>331.0</ele><time>2026-03-28T15:41:41.998Z</time></trkpt><trkpt lat="44.83825455119495" lon="9.793001206403504"><ele>331.0</ele><time>2026-03-28T15:41:43.998Z</time></trkpt><trkpt lat="44.83830270222856" lon="9.793121345056619"><ele>332.8</ele><time>2026-03-28T15:41:45.998Z</time></trkpt><trkpt lat="44.838339987351546" lon="9.793250612635633"><ele>334.6</ele><time>2026-03-28T15:41:47.998Z</time></trkpt><trkpt lat="44.838374961461305" lon="9.793379768755953"><ele>336.4</ele><time>2026-03-28T15:41:49.998Z</time></trkpt><trkpt lat="44.83842434990576" lon="9.793507512327574"><ele>338.2</ele><time>2026-03-28T15:41:51.998Z</time></trkpt><trkpt lat="44.83849402785594" lon="9.7936143024032"><ele>340.0</ele><time>2026-03-28T15:41:53.998Z</time></trkpt><trkpt lat="44.83856774098498" lon="9.79372215327795"><ele>340.0</ele><time>2026-03-28T15:41:56Z</time></trkpt><trkpt lat="44.83863316474783" lon="9.79381536210901"><ele>340.0</ele><time>2026-03-28T15:41:58Z</time></trkpt><trkpt lat="44.83869401688548" lon="9.793943399256136"><ele>340.0</ele><time>2026-03-28T15:42:00Z</time></trkpt><trkpt lat="44.83873707229151" lon="9.79407330071554"><ele>340.0</ele><time>2026-03-28T15:42:02Z</time></trkpt><trkpt lat="44.838789698474336" lon="9.794198929630156"><ele>340.0</ele><time>2026-03-28T15:42:04Z</time></trkpt><trkpt lat="44.83883013188109" lon="9.794328100327302"><ele>337.4</ele><time>2026-03-28T15:42:06Z</time></trkpt><trkpt lat="44.83886530173497" lon="9.794471608495359"><ele>334.8</ele><time>2026-03-28T15:42:08Z</time></trkpt><trkpt lat="44.83893526650667" lon="9.794578966758595"><ele>332.20000000000005</ele><time>2026-03-28T15:42:10Z</time></trkpt><trkpt lat="44.839024239727884" lon="9.79465423855979"><ele>329.6</ele><time>2026-03-28T15:42:12Z</time></trkpt><trkpt lat="44.839110799549566" lon="9.794735540637193"><ele>327.0</ele><time>2026-03-28T15:42:14Z</time></trkpt><trkpt lat="44.83919441048293" lon="9.794838909216475"><ele>327.0</ele><time>2026-03-28T15:42:16Z</time></trkpt><trkpt lat="44.83920523551878" lon="9.794929791622675"><ele>327.0</ele><time>2026-03-28T15:42:17Z</time></trkpt><trkpt lat="44.839201984313455" lon="9.79508698558395"><ele>327.0</ele><time>2026-03-28T15:42:19Z</time></trkpt><trkpt lat="44.839207989039984" lon="9.795236029718708"><ele>327.0</ele><time>2026-03-28T15:42:21Z</time></trkpt><trkpt lat="44.83925442785471" lon="9.795377057572502"><ele>327.0</ele><time>2026-03-28T15:42:23Z</time></trkpt><trkpt lat="44.83931835373727" lon="9.79549564209992"><ele>330.0</ele><time>2026-03-28T15:42:24.999Z</time></trkpt><trkpt lat="44.83938886645065" lon="9.795605208577832"><ele>333.0</ele><time>2026-03-28T15:42:26.999Z</time></trkpt><trkpt lat="44.83942441164605" lon="9.79574312694135"><ele>336.0</ele><time>2026-03-28T15:42:28.999Z</time></trkpt><trkpt lat="44.83945726283531" lon="9.795885362017843"><ele>339.0</ele><time>2026-03-28T15:42:30.999Z</time></trkpt><trkpt lat="44.83949524976177" lon="9.796034542043257"><ele>342.0</ele><time>2026-03-28T15:42:32.999Z</time></trkpt><trkpt lat="44.839543498729974" lon="9.796172870044199"><ele>342.0</ele><time>2026-03-28T15:42:34.999Z</time></trkpt><trkpt lat="44.8395968911974" lon="9.796300085514257"><ele>342.0</ele><time>2026-03-28T15:42:36.999Z</time></trkpt><trkpt lat="44.83965082124779" lon="9.796423638487036"><ele>342.0</ele><time>2026-03-28T15:42:38.999Z</time></trkpt><trkpt lat="44.83970156341863" lon="9.796563175775507"><ele>342.0</ele><time>2026-03-28T15:42:40.999Z</time></trkpt><trkpt lat="44.83974725186079" lon="9.796689046346257"><ele>342.0</ele><time>2026-03-28T15:42:42.999Z</time></trkpt><trkpt lat="44.839800433940376" lon="9.796809935941505"><ele>338.5</ele><time>2026-03-28T15:42:44.999Z</time></trkpt><trkpt lat="44.83983962200804" lon="9.796899804370891"><ele>335.0</ele><time>2026-03-28T15:42:46.999Z</time></trkpt><trkpt lat="44.83991829756777" lon="9.797101271726959"><ele>331.5</ele><time>2026-03-28T15:42:48.999Z</time></trkpt><trkpt lat="44.83995418884939" lon="9.797235570078458"><ele>328.0</ele><time>2026-03-28T15:42:50.999Z</time></trkpt><trkpt lat="44.84000202084323" lon="9.797377006139696"><ele>328.0</ele><time>2026-03-28T15:42:52.999Z</time></trkpt><trkpt lat="44.84006224168772" lon="9.797509064777643"><ele>328.0</ele><time>2026-03-28T15:42:54.999Z</time></trkpt><trkpt lat="44.84012861601413" lon="9.797631444018563"><ele>328.0</ele><time>2026-03-28T15:42:56.999Z</time></trkpt><trkpt lat="44.840143750093354" lon="9.797767450674552"><ele>328.0</ele><time>2026-03-28T15:42:58.999Z</time></trkpt><trkpt lat="44.84015774504489" lon="9.797919355764117"><ele>328.0</ele><time>2026-03-28T15:43:00.999Z</time></trkpt><trkpt lat="44.84017492898948" lon="9.798071901728795"><ele>330.59999999999997</ele><time>2026-03-28T15:43:02.999Z</time></trkpt><trkpt lat="44.840220483717395" lon="9.798229917369431"><ele>333.2</ele><time>2026-03-28T15:43:04.999Z</time></trkpt><trkpt lat="44.84029966482358" lon="9.798359977339787"><ele>335.8</ele><time>2026-03-28T15:43:06.999Z</time></trkpt><trkpt lat="44.840349625912154" lon="9.798431629155205"><ele>338.4</ele><time>2026-03-28T15:43:07.999Z</time></trkpt><trkpt lat="44.84042682036002" lon="9.798531433173096"><ele>341.0</ele><time>2026-03-28T15:43:09.999Z</time></trkpt><trkpt lat="44.8404796894833" lon="9.798692022895787"><ele>341.0</ele><time>2026-03-28T15:43:11.999Z</time></trkpt><trkpt lat="44.8404816925919" lon="9.798790856221363"><ele>341.0</ele><time>2026-03-28T15:43:12.999Z</time></trkpt><trkpt lat="44.84048169856736" lon="9.798882623608618"><ele>341.0</ele><time>2026-03-28T15:43:13.999Z</time></trkpt><trkpt lat="44.84048256054675" lon="9.798971738050943"><ele>341.0</ele><time>2026-03-28T15:43:14.999Z</time></trkpt><trkpt lat="44.840491293033395" lon="9.799060025326272"><ele>341.0</ele><time>2026-03-28T15:43:15.999Z</time></trkpt><trkpt lat="44.84050462277378" lon="9.799156263015487"><ele>341.0</ele><time>2026-03-28T15:43:16.999Z</time></trkpt><trkpt lat="44.84052370763462" lon="9.799252350455719"><ele>341.0</ele><time>2026-03-28T15:43:17.999Z</time></trkpt><trkpt lat="44.84054996410292" lon="9.799345434518305"><ele>339.5</ele><time>2026-03-28T15:43:18.998Z</time></trkpt><trkpt lat="44.84058493652356" lon="9.799440335178009"><ele>338.0</ele><time>2026-03-28T15:43:19.998Z</time></trkpt><trkpt lat="44.84063407660141" lon="9.799521530890633"><ele>336.5</ele><time>2026-03-28T15:43:20.998Z</time></trkpt><trkpt lat="44.8406856980658" lon="9.799601473046694"><ele>335.0</ele><time>2026-03-28T15:43:21.998Z</time></trkpt><trkpt lat="44.84074306911331" lon="9.799671796022219"><ele>333.5</ele><time>2026-03-28T15:43:22.998Z</time></trkpt><trkpt lat="44.840799805641794" lon="9.79974186030155"><ele>332.0</ele><time>2026-03-28T15:43:23.998Z</time></trkpt><trkpt lat="44.84084812016421" lon="9.79982581961328"><ele>332.0</ele><time>2026-03-28T15:43:24.998Z</time></trkpt><trkpt lat="44.84088339536432" lon="9.799934210405553"><ele>332.0</ele><time>2026-03-28T15:43:25.998Z</time></trkpt><trkpt lat="44.840907453312454" lon="9.800047797902945"><ele>332.0</ele><time>2026-03-28T15:43:26.998Z</time></trkpt><trkpt lat="44.84094121538804" lon="9.80016573263189"><ele>332.0</ele><time>2026-03-28T15:43:27.998Z</time></trkpt><trkpt lat="44.8409868438452" lon="9.800270323367563"><ele>332.0</ele><time>2026-03-28T15:43:28.998Z</time></trkpt><trkpt lat="44.84104268182502" lon="9.800368281484815"><ele>332.0</ele><time>2026-03-28T15:43:29.998Z</time></trkpt><trkpt lat="44.84110672478625" lon="9.800453530469454"><ele>333.1666666666667</ele><time>2026-03-28T15:43:30.998Z</time></trkpt><trkpt lat="44.84116636169773" lon="9.800543441502725"><ele>334.33333333333337</ele><time>2026-03-28T15:43:31.998Z</time></trkpt><trkpt lat="44.84121865740514" lon="9.800637497741171"><ele>335.5</ele><time>2026-03-28T15:43:32.998Z</time></trkpt><trkpt lat="44.841267523544374" lon="9.800740860637829"><ele>336.6666666666667</ele><time>2026-03-28T15:43:33.998Z</time></trkpt><trkpt lat="44.84131299417008" lon="9.800845138994859"><ele>337.8333333333333</ele><time>2026-03-28T15:43:34.998Z</time></trkpt><trkpt lat="44.84136238341276" lon="9.800945612993731"><ele>339.0</ele><time>2026-03-28T15:43:35.998Z</time></trkpt><trkpt lat="44.841415733425734" lon="9.801040643518277"><ele>336.0</ele><time>2026-03-28T15:43:36.998Z</time></trkpt><trkpt lat="44.84146845928513" lon="9.801140413756524"><ele>333.0</ele><time>2026-03-28T15:43:37.998Z</time></trkpt><trkpt lat="44.84151891281975" lon="9.801249297404603"><ele>330.0</ele><time>2026-03-28T15:43:38.998Z</time></trkpt><trkpt lat="44.84156631649314" lon="9.801357415778902"><ele>327.0</ele><time>2026-03-28T15:43:39.998Z</time></trkpt><trkpt lat="44.841611533192065" lon="9.801469558718313"><ele>324.0</ele><time>2026-03-28T15:43:40.998Z</time></trkpt><trkpt lat="44.84165454680344" lon="9.801580901321117"><ele>324.0</ele><time>2026-03-28T15:43:41.998Z</time></trkpt><trkpt lat="44.84170704027969" lon="9.801685532814277"><ele>324.0</ele><time>2026-03-28T15:43:42.998Z</time></trkpt><trkpt lat="44.841762315102336" lon="9.801782079656732"><ele>324.0</ele><time>2026-03-28T15:43:43.998Z</time></trkpt><trkpt lat="44.84181802271592" lon="9.80187840563432"><ele>324.0</ele><time>2026-03-28T15:43:44.998Z</time></trkpt><trkpt lat="44.841870574789965" lon="9.801974544771657"><ele>324.0</ele><time>2026-03-28T15:43:45.998Z</time></trkpt><trkpt lat="44.84193122165404" lon="9.802066979418171"><ele>324.0</ele><time>2026-03-28T15:43:46.998Z</time></trkpt><trkpt lat="44.84198748762252" lon="9.802161444572723"><ele>325.0</ele><time>2026-03-28T15:43:47.998Z</time></trkpt><trkpt lat="44.84204659134843" lon="9.802256843794114"><ele>326.0</ele><time>2026-03-28T15:43:48.998Z</time></trkpt><trkpt lat="44.84209715797499" lon="9.802354600305978"><ele>327.0</ele><time>2026-03-28T15:43:49.998Z</time></trkpt><trkpt lat="44.84214961864187" lon="9.802455510769626"><ele>328.0</ele><time>2026-03-28T15:43:50.998Z</time></trkpt><trkpt lat="44.84221265975098" lon="9.802560572769078"><ele>329.0</ele><time>2026-03-28T15:43:51.998Z</time></trkpt><trkpt lat="44.84227511180124" lon="9.802657920067565"><ele>327.79999999999995</ele><time>2026-03-28T15:43:52.998Z</time></trkpt><trkpt lat="44.84234419883309" lon="9.802757788759124"><ele>326.59999999999997</ele><time>2026-03-28T15:43:53.998Z</time></trkpt><trkpt lat="44.84243109156225" lon="9.802821766485687"><ele>325.4</ele><time>2026-03-28T15:43:54.998Z</time></trkpt><trkpt lat="44.84251801410177" lon="9.802879047020593"><ele>324.2</ele><time>2026-03-28T15:43:55.998Z</time></trkpt><trkpt lat="44.84260211575399" lon="9.802927822630181"><ele>323.0</ele><time>2026-03-28T15:43:56.998Z</time></trkpt><trkpt lat="44.842685552073746" lon="9.802972247475306"><ele>323.0</ele><time>2026-03-28T15:43:57.998Z</time></trkpt><trkpt lat="44.84276794280874" lon="9.803014580014612"><ele>323.0</ele><time>2026-03-28T15:43:58.998Z</time></trkpt><trkpt lat="44.842850268852516" lon="9.803047881183414"><ele>323.0</ele><time>2026-03-28T15:43:59.998Z</time></trkpt><trkpt lat="44.84292966122674" lon="9.803081189183938"><ele>323.0</ele><time>2026-03-28T15:44:00.998Z</time></trkpt><trkpt lat="44.842991274544374" lon="9.80324815630458"><ele>323.0</ele><time>2026-03-28T15:44:02Z</time></trkpt><trkpt lat="44.843062172767176" lon="9.803334325009587"><ele>323.0</ele><time>2026-03-28T15:44:03Z</time></trkpt><trkpt lat="44.843142307064184" lon="9.80342080577221"><ele>323.0</ele><time>2026-03-28T15:44:04Z</time></trkpt><trkpt lat="44.84322121677948" lon="9.803507838620257"><ele>323.0</ele><time>2026-03-28T15:44:05Z</time></trkpt><trkpt lat="44.843302825826214" lon="9.80359526872165"><ele>323.0</ele><time>2026-03-28T15:44:06Z</time></trkpt><trkpt lat="44.843375993943084" lon="9.803682521106358"><ele>323.0</ele><time>2026-03-28T15:44:07Z</time></trkpt><trkpt lat="44.84344552616997" lon="9.803791349801147"><ele>322.4</ele><time>2026-03-28T15:44:08Z</time></trkpt><trkpt lat="44.84350382768703" lon="9.803902367171368"><ele>321.79999999999995</ele><time>2026-03-28T15:44:09Z</time></trkpt><trkpt lat="44.843546679267845" lon="9.80403269049913"><ele>321.2</ele><time>2026-03-28T15:44:10Z</time></trkpt><trkpt lat="44.84360800340081" lon="9.804136557052132"><ele>320.6</ele><time>2026-03-28T15:44:11Z</time></trkpt><trkpt lat="44.843690173737365" lon="9.804216699650866"><ele>320.0</ele><time>2026-03-28T15:44:12Z</time></trkpt><trkpt lat="44.84378284534898" lon="9.804282579620942"><ele>320.0</ele><time>2026-03-28T15:44:13Z</time></trkpt><trkpt lat="44.843881623173694" lon="9.804323263183914"><ele>320.0</ele><time>2026-03-28T15:44:14Z</time></trkpt><trkpt lat="44.8439856621593" lon="9.80436152499073"><ele>320.0</ele><time>2026-03-28T15:44:15Z</time></trkpt><trkpt lat="44.84408710471557" lon="9.80436585936999"><ele>320.0</ele><time>2026-03-28T15:44:16Z</time></trkpt><trkpt lat="44.8441868742013" lon="9.804379985950764"><ele>320.0</ele><time>2026-03-28T15:44:17Z</time></trkpt><trkpt lat="44.84428879644192" lon="9.804414391179826"><ele>319.6</ele><time>2026-03-28T15:44:18Z</time></trkpt><trkpt lat="44.84438200071244" lon="9.804437024920484"><ele>319.2</ele><time>2026-03-28T15:44:19Z</time></trkpt><trkpt lat="44.844480411548055" lon="9.804483303165899"><ele>318.8</ele><time>2026-03-28T15:44:20Z</time></trkpt><trkpt lat="44.844586508116805" lon="9.804512943181267"><ele>318.4</ele><time>2026-03-28T15:44:21Z</time></trkpt><trkpt lat="44.84468016150129" lon="9.804540542396623"><ele>318.0</ele><time>2026-03-28T15:44:22Z</time></trkpt><trkpt lat="44.844768254127295" lon="9.804561470951723"><ele>318.0</ele><time>2026-03-28T15:44:23Z</time></trkpt><trkpt lat="44.84485384586414" lon="9.804575828597294"><ele>318.0</ele><time>2026-03-28T15:44:24Z</time></trkpt><trkpt lat="44.84493063927729" lon="9.804589455383354"><ele>318.0</ele><time>2026-03-28T15:44:25Z</time></trkpt><trkpt lat="44.844999696693634" lon="9.804604458512427"><ele>318.0</ele><time>2026-03-28T15:44:26Z</time></trkpt><trkpt lat="44.84507657431328" lon="9.80461512849663"><ele>318.0</ele><time>2026-03-28T15:44:27Z</time></trkpt><trkpt lat="44.845141591017615" lon="9.80463314570144"><ele>318.0</ele><time>2026-03-28T15:44:28Z</time></trkpt><trkpt lat="44.84525887534524" lon="9.804647926972793"><ele>319.6</ele><time>2026-03-28T15:44:29.999Z</time></trkpt><trkpt lat="44.84537879769765" lon="9.804651105031494"><ele>321.20000000000005</ele><time>2026-03-28T15:44:31.999Z</time></trkpt><trkpt lat="44.845487796708824" lon="9.804635704648954"><ele>322.8</ele><time>2026-03-28T15:44:33.999Z</time></trkpt><trkpt lat="44.84559391440382" lon="9.804642252434007"><ele>324.40000000000003</ele><time>2026-03-28T15:44:35.999Z</time></trkpt><trkpt lat="44.84569697456932" lon="9.804676687482669"><ele>326.0</ele><time>2026-03-28T15:44:37.999Z</time></trkpt><trkpt lat="44.84578831795548" lon="9.804710312412656"><ele>326.0</ele><time>2026-03-28T15:44:39.999Z</time></trkpt><trkpt lat="44.84587972965476" lon="9.804777535336335"><ele>326.0</ele><time>2026-03-28T15:44:41.999Z</time></trkpt><trkpt lat="44.84593805976978" lon="9.804846164136467"><ele>326.0</ele><time>2026-03-28T15:44:43.999Z</time></trkpt><trkpt lat="44.84600204496078" lon="9.804888563215943"><ele>326.0</ele><time>2026-03-28T15:44:44.999Z</time></trkpt><trkpt lat="44.846108735282606" lon="9.804939162762608"><ele>326.0</ele><time>2026-03-28T15:44:46.999Z</time></trkpt><trkpt lat="44.846210128631974" lon="9.804975366994723"><ele>328.4</ele><time>2026-03-28T15:44:48.999Z</time></trkpt><trkpt lat="44.84631367033511" lon="9.805000951243116"><ele>330.8</ele><time>2026-03-28T15:44:50.999Z</time></trkpt><trkpt lat="44.84641920207394" lon="9.805039541448235"><ele>333.2</ele><time>2026-03-28T15:44:52.999Z</time></trkpt><trkpt lat="44.84651855101402" lon="9.805077493130513"><ele>335.59999999999997</ele><time>2026-03-28T15:44:54.999Z</time></trkpt><trkpt lat="44.84659794840844" lon="9.805110904288608"><ele>338.0</ele><time>2026-03-28T15:44:56.999Z</time></trkpt><trkpt lat="44.84667882238858" lon="9.805140534270427"><ele>338.1666666666667</ele><time>2026-03-28T15:44:58.999Z</time></trkpt><trkpt lat="44.84675261364524" lon="9.80516842090573"><ele>338.33333333333337</ele><time>2026-03-28T15:45:00.999Z</time></trkpt><trkpt lat="44.84683165586863" lon="9.805198817248609"><ele>338.5</ele><time>2026-03-28T15:45:02.999Z</time></trkpt><trkpt lat="44.846886589756615" lon="9.805325187003303"><ele>338.6666666666667</ele><time>2026-03-28T15:45:04.999Z</time></trkpt><trkpt lat="44.84695971072575" lon="9.805340051573443"><ele>338.8333333333333</ele><time>2026-03-28T15:45:08.999Z</time></trkpt><trkpt lat="44.84702330789872" lon="9.805353541565362"><ele>339.0</ele><time>2026-03-28T15:45:11.999Z</time></trkpt><trkpt lat="44.84711271759925" lon="9.80535339024278"><ele>339.0</ele><time>2026-03-28T15:45:15.999Z</time></trkpt><trkpt lat="44.84717402306333" lon="9.805332803258278"><ele>339.0</ele><time>2026-03-28T15:45:17.999Z</time></trkpt><trkpt lat="44.84726166400553" lon="9.805329019496051"><ele>339.0</ele><time>2026-03-28T15:45:19.999Z</time></trkpt><trkpt lat="44.847375433851916" lon="9.805328510365127"><ele>339.0</ele><time>2026-03-28T15:45:21.999Z</time></trkpt><trkpt lat="44.8474860540277" lon="9.805336191154915"><ele>339.0</ele><time>2026-03-28T15:45:23.999Z</time></trkpt><trkpt lat="44.84759726950569" lon="9.80536361052692"><ele>336.79999999999995</ele><time>2026-03-28T15:45:25.998Z</time></trkpt><trkpt lat="44.84771229647164" lon="9.80540413906707"><ele>334.59999999999997</ele><time>2026-03-28T15:45:27.998Z</time></trkpt><trkpt lat="44.8478303106996" lon="9.805435872363445"><ele>332.4</ele><time>2026-03-28T15:45:29.998Z</time></trkpt><trkpt lat="44.847892591806605" lon="9.805460909586278"><ele>330.2</ele><time>2026-03-28T15:45:30.998Z</time></trkpt><trkpt lat="44.84795578583487" lon="9.805483109483184"><ele>328.0</ele><time>2026-03-28T15:45:31.998Z</time></trkpt><trkpt lat="44.84808044636117" lon="9.805526678511209"><ele>327.99999999999994</ele><time>2026-03-28T15:45:33.998Z</time></trkpt><trkpt lat="44.84814437546871" lon="9.805538606675908"><ele>328.0</ele><time>2026-03-28T15:45:34.998Z</time></trkpt><trkpt lat="44.84821441477646" lon="9.805558314370975"><ele>328.0</ele><time>2026-03-28T15:45:35.998Z</time></trkpt><trkpt lat="44.848281128154426" lon="9.805585718057252"><ele>328.0</ele><time>2026-03-28T15:45:36.998Z</time></trkpt><trkpt lat="44.84835227610713" lon="9.805609412261758"><ele>328.0</ele><time>2026-03-28T15:45:37.998Z</time></trkpt><trkpt lat="44.848424741829156" lon="9.805624016089428"><ele>327.99999999999994</ele><time>2026-03-28T15:45:38.998Z</time></trkpt><trkpt lat="44.84850030129893" lon="9.805638732086592"><ele>328.0</ele><time>2026-03-28T15:45:39.998Z</time></trkpt><trkpt lat="44.84857763722134" lon="9.805660035210927"><ele>327.3333333333333</ele><time>2026-03-28T15:45:40.998Z</time></trkpt><trkpt lat="44.84865998688591" lon="9.805681484183571"><ele>326.66666666666663</ele><time>2026-03-28T15:45:41.998Z</time></trkpt><trkpt lat="44.84874435399643" lon="9.805712264205088"><ele>326.0</ele><time>2026-03-28T15:45:42.998Z</time></trkpt><trkpt lat="44.848819371396544" lon="9.805761377231914"><ele>325.3333333333333</ele><time>2026-03-28T15:45:43.998Z</time></trkpt><trkpt lat="44.848895714856496" lon="9.805814229673585"><ele>324.6666666666667</ele><time>2026-03-28T15:45:44.998Z</time></trkpt><trkpt lat="44.84896814354547" lon="9.805884827958595"><ele>324.0</ele><time>2026-03-28T15:45:45.998Z</time></trkpt><trkpt lat="44.84903892928919" lon="9.805954523472035"><ele>323.0</ele><time>2026-03-28T15:45:46.998Z</time></trkpt><trkpt lat="44.849110288511255" lon="9.806015665335423"><ele>322.0</ele><time>2026-03-28T15:45:47.998Z</time></trkpt><trkpt lat="44.8491770120288" lon="9.806077664063414"><ele>321.0</ele><time>2026-03-28T15:45:48.998Z</time></trkpt><trkpt lat="44.849248416947525" lon="9.806140416318554"><ele>320.0</ele><time>2026-03-28T15:45:49.998Z</time></trkpt><trkpt lat="44.84932746718818" lon="9.806195160361694"><ele>319.0</ele><time>2026-03-28T15:45:50.998Z</time></trkpt><trkpt lat="44.84940814157774" lon="9.806248813475957"><ele>318.0</ele><time>2026-03-28T15:45:51.998Z</time></trkpt><trkpt lat="44.84948977555423" lon="9.80631216206584"><ele>318.0</ele><time>2026-03-28T15:45:52.998Z</time></trkpt><trkpt lat="44.84957265621352" lon="9.80637594077886"><ele>318.0</ele><time>2026-03-28T15:45:53.998Z</time></trkpt><trkpt lat="44.84965267272574" lon="9.806445719906717"><ele>318.0</ele><time>2026-03-28T15:45:54.998Z</time></trkpt><trkpt lat="44.84972995232328" lon="9.80652295600149"><ele>318.0</ele><time>2026-03-28T15:45:55.998Z</time></trkpt><trkpt lat="44.84980919169793" lon="9.806597478834545"><ele>318.0</ele><time>2026-03-28T15:45:56.998Z</time></trkpt><trkpt lat="44.84989344719416" lon="9.806670992209598"><ele>318.0</ele><time>2026-03-28T15:45:57.998Z</time></trkpt><trkpt lat="44.84998846125241" lon="9.806716513936653"><ele>318.0</ele><time>2026-03-28T15:45:58.998Z</time></trkpt><trkpt lat="44.85007794692486" lon="9.806784259280818"><ele>318.0</ele><time>2026-03-28T15:45:59.998Z</time></trkpt><trkpt lat="44.850160795157564" lon="9.806879271313225"><ele>318.0</ele><time>2026-03-28T15:46:00.998Z</time></trkpt><trkpt lat="44.85025104251036" lon="9.806958782876647"><ele>318.0</ele><time>2026-03-28T15:46:01.998Z</time></trkpt><trkpt lat="44.85033542202216" lon="9.80704535266629"><ele>316.6</ele><time>2026-03-28T15:46:02.998Z</time></trkpt><trkpt lat="44.85041032424007" lon="9.807132256377988"><ele>315.20000000000005</ele><time>2026-03-28T15:46:03.998Z</time></trkpt><trkpt lat="44.850482383471444" lon="9.807234665514834"><ele>313.8</ele><time>2026-03-28T15:46:04.998Z</time></trkpt><trkpt lat="44.85056135963958" lon="9.807328941885453"><ele>312.40000000000003</ele><time>2026-03-28T15:46:05.998Z</time></trkpt><trkpt lat="44.85064592278088" lon="9.807412836095196"><ele>311.0</ele><time>2026-03-28T15:46:06.998Z</time></trkpt><trkpt lat="44.85073042046698" lon="9.807495932977256"><ele>311.0</ele><time>2026-03-28T15:46:08Z</time></trkpt><trkpt lat="44.850819855288336" lon="9.807568992637174"><ele>311.0</ele><time>2026-03-28T15:46:09Z</time></trkpt><trkpt lat="44.8509242440267" lon="9.807591570778499"><ele>311.0</ele><time>2026-03-28T15:46:10Z</time></trkpt><trkpt lat="44.8510230065732" lon="9.807623373745885"><ele>311.0</ele><time>2026-03-28T15:46:11Z</time></trkpt><trkpt lat="44.85112613827619" lon="9.80765656214826"><ele>311.0</ele><time>2026-03-28T15:46:12Z</time></trkpt><trkpt lat="44.8512215810937" lon="9.807702020909016"><ele>308.40000000000003</ele><time>2026-03-28T15:46:13Z</time></trkpt><trkpt lat="44.85132919301889" lon="9.807720160095299"><ele>305.8</ele><time>2026-03-28T15:46:14Z</time></trkpt><trkpt lat="44.851433607669975" lon="9.807747238801332"><ele>303.20000000000005</ele><time>2026-03-28T15:46:15Z</time></trkpt><trkpt lat="44.85153477162525" lon="9.807761952178954"><ele>300.6</ele><time>2026-03-28T15:46:16Z</time></trkpt><trkpt lat="44.851637289120525" lon="9.807765001350594"><ele>298.0</ele><time>2026-03-28T15:46:17Z</time></trkpt><trkpt lat="44.851741378317804" lon="9.807756583614934"><ele>296.6</ele><time>2026-03-28T15:46:18Z</time></trkpt><trkpt lat="44.85184140396375" lon="9.807746951937768"><ele>295.20000000000005</ele><time>2026-03-28T15:46:19Z</time></trkpt><trkpt lat="44.85193925059449" lon="9.807740293679899"><ele>293.8</ele><time>2026-03-28T15:46:20Z</time></trkpt><trkpt lat="44.85203381886916" lon="9.807748888433588"><ele>292.40000000000003</ele><time>2026-03-28T15:46:21Z</time></trkpt><trkpt lat="44.8521232474281" lon="9.807814511454065"><ele>291.0</ele><time>2026-03-28T15:46:22Z</time></trkpt><trkpt lat="44.85221584754832" lon="9.807876099316353"><ele>291.0</ele><time>2026-03-28T15:46:23Z</time></trkpt><trkpt lat="44.852304814496875" lon="9.807957987090285"><ele>291.0</ele><time>2026-03-28T15:46:24Z</time></trkpt><trkpt lat="44.85238929772893" lon="9.808071053416972"><ele>291.0</ele><time>2026-03-28T15:46:25Z</time></trkpt><trkpt lat="44.85247572172046" lon="9.808175815099306"><ele>291.0</ele><time>2026-03-28T15:46:26Z</time></trkpt><trkpt lat="44.85256352095767" lon="9.808264882234754"><ele>291.0</ele><time>2026-03-28T15:46:27Z</time></trkpt><trkpt lat="44.85265033108776" lon="9.8083457447865"><ele>289.2</ele><time>2026-03-28T15:46:28Z</time></trkpt><trkpt lat="44.8527457146798" lon="9.808421464531811"><ele>287.40000000000003</ele><time>2026-03-28T15:46:29Z</time></trkpt><trkpt lat="44.85284001982642" lon="9.808504282504638"><ele>285.6</ele><time>2026-03-28T15:46:30Z</time></trkpt><trkpt lat="44.852928009743756" lon="9.808585993411969"><ele>283.8</ele><time>2026-03-28T15:46:31Z</time></trkpt><trkpt lat="44.85302139133256" lon="9.808647968894396"><ele>282.0</ele><time>2026-03-28T15:46:32Z</time></trkpt><trkpt lat="44.85312021131789" lon="9.80869051547855"><ele>281.4</ele><time>2026-03-28T15:46:33Z</time></trkpt><trkpt lat="44.85322211352107" lon="9.80872010809697"><ele>280.79999999999995</ele><time>2026-03-28T15:46:33.999Z</time></trkpt><trkpt lat="44.85332091756647" lon="9.80875414994437"><ele>280.2</ele><time>2026-03-28T15:46:34.999Z</time></trkpt><trkpt lat="44.8534184529014" lon="9.80881003554547"><ele>279.59999999999997</ele><time>2026-03-28T15:46:35.999Z</time></trkpt><trkpt lat="44.853515835352674" lon="9.808883908199679"><ele>279.0</ele><time>2026-03-28T15:46:36.999Z</time></trkpt><trkpt lat="44.853610091279435" lon="9.808975486646554"><ele>277.4</ele><time>2026-03-28T15:46:37.999Z</time></trkpt><trkpt lat="44.853707996958505" lon="9.809050393479085"><ele>275.79999999999995</ele><time>2026-03-28T15:46:38.999Z</time></trkpt><trkpt lat="44.853802569102186" lon="9.809065900523564"><ele>274.20000000000005</ele><time>2026-03-28T15:46:39.999Z</time></trkpt><trkpt lat="44.853897222121276" lon="9.809132497648388"><ele>272.6</ele><time>2026-03-28T15:46:40.999Z</time></trkpt><trkpt lat="44.853977995210265" lon="9.809194822615972"><ele>271.0</ele><time>2026-03-28T15:46:41.999Z</time></trkpt><trkpt lat="44.85406137247703" lon="9.809266855373362"><ele>270.40000000000003</ele><time>2026-03-28T15:46:42.999Z</time></trkpt><trkpt lat="44.85414353804001" lon="9.809358190489938"><ele>269.8</ele><time>2026-03-28T15:46:43.999Z</time></trkpt><trkpt lat="44.854226393339026" lon="9.809449840693418"><ele>269.20000000000005</ele><time>2026-03-28T15:46:44.999Z</time></trkpt><trkpt lat="44.85431362628398" lon="9.80955112647829"><ele>268.6</ele><time>2026-03-28T15:46:45.999Z</time></trkpt><trkpt lat="44.854403921943735" lon="9.80965943919284"><ele>268.0</ele><time>2026-03-28T15:46:46.999Z</time></trkpt><trkpt lat="44.85450154387441" lon="9.809777710646092"><ele>268.0</ele><time>2026-03-28T15:46:47.999Z</time></trkpt><trkpt lat="44.85458371905204" lon="9.809884218339613"><ele>268.0</ele><time>2026-03-28T15:46:48.999Z</time></trkpt><trkpt lat="44.85467420742434" lon="9.810010848865442"><ele>268.0</ele><time>2026-03-28T15:46:49.999Z</time></trkpt><trkpt lat="44.854769487887616" lon="9.810119608475402"><ele>268.0</ele><time>2026-03-28T15:46:50.999Z</time></trkpt><trkpt lat="44.85484085951135" lon="9.810229561938112"><ele>268.2</ele><time>2026-03-28T15:46:51.999Z</time></trkpt><trkpt lat="44.854911359294455" lon="9.810362836353203"><ele>268.4</ele><time>2026-03-28T15:46:52.999Z</time></trkpt><trkpt lat="44.854988240648794" lon="9.810471173469828"><ele>268.59999999999997</ele><time>2026-03-28T15:46:53.999Z</time></trkpt><trkpt lat="44.855061508437124" lon="9.810546173736684"><ele>268.8</ele><time>2026-03-28T15:46:54.999Z</time></trkpt><trkpt lat="44.85514006704793" lon="9.810636057120995"><ele>269.0</ele><time>2026-03-28T15:46:55.999Z</time></trkpt><trkpt lat="44.8552172058614" lon="9.81070061273159"><ele>268.33333333333337</ele><time>2026-03-28T15:46:56.999Z</time></trkpt><trkpt lat="44.8552885460589" lon="9.810767684569946"><ele>267.6666666666667</ele><time>2026-03-28T15:46:57.999Z</time></trkpt><trkpt lat="44.8553532236577" lon="9.810829171525135"><ele>267.0</ele><time>2026-03-28T15:46:58.999Z</time></trkpt><trkpt lat="44.85541773678983" lon="9.810877891396023"><ele>266.3333333333333</ele><time>2026-03-28T15:46:59.999Z</time></trkpt><trkpt lat="44.85547409280392" lon="9.81093019109131"><ele>265.66666666666663</ele><time>2026-03-28T15:47:00.999Z</time></trkpt><trkpt lat="44.85554002715817" lon="9.81101867985711"><ele>265.0</ele><time>2026-03-28T15:47:02.999Z</time></trkpt><trkpt lat="44.85555400425852" lon="9.811112392567988"><ele>266.8</ele><time>2026-03-28T15:47:03.999Z</time></trkpt><trkpt lat="44.855586322462194" lon="9.811194599629697"><ele>268.6</ele><time>2026-03-28T15:47:04.999Z</time></trkpt><trkpt lat="44.855648441218825" lon="9.81133976289949"><ele>270.4</ele><time>2026-03-28T15:47:06.999Z</time></trkpt><trkpt lat="44.855719168805464" lon="9.811477333599887"><ele>272.2</ele><time>2026-03-28T15:47:08.999Z</time></trkpt><trkpt lat="44.85579622807594" lon="9.811605483624227"><ele>274.0</ele><time>2026-03-28T15:47:10.999Z</time></trkpt><trkpt lat="44.8558843183343" lon="9.811722352042654"><ele>274.00000000000006</ele><time>2026-03-28T15:47:12.999Z</time></trkpt><trkpt lat="44.85593963936738" lon="9.811765822184444"><ele>274.0</ele><time>2026-03-28T15:47:13.999Z</time></trkpt><trkpt lat="44.855989264711795" lon="9.811821127358835"><ele>274.0</ele><time>2026-03-28T15:47:14.999Z</time></trkpt><trkpt lat="44.856045938022525" lon="9.811863613125052"><ele>274.0</ele><time>2026-03-28T15:47:15.999Z</time></trkpt><trkpt lat="44.85610616578557" lon="9.81190544478617"><ele>274.0</ele><time>2026-03-28T15:47:16.999Z</time></trkpt><trkpt lat="44.85616668670346" lon="9.811957314876357"><ele>274.00000000000006</ele><time>2026-03-28T15:47:17.999Z</time></trkpt><trkpt lat="44.8562278923086" lon="9.812002775764293"><ele>274.0</ele><time>2026-03-28T15:47:18.999Z</time></trkpt><trkpt lat="44.856290645510285" lon="9.81204285039271"><ele>273.66666666666663</ele><time>2026-03-28T15:47:19.999Z</time></trkpt><trkpt lat="44.85635714630042" lon="9.81208651620391"><ele>273.3333333333333</ele><time>2026-03-28T15:47:20.999Z</time></trkpt><trkpt lat="44.85642540803989" lon="9.812131200817701"><ele>273.0</ele><time>2026-03-28T15:47:21.999Z</time></trkpt><trkpt lat="44.85649351787965" lon="9.812184544576127"><ele>272.6666666666667</ele><time>2026-03-28T15:47:22.999Z</time></trkpt><trkpt lat="44.856564803488936" lon="9.812245822583781"><ele>272.33333333333337</ele><time>2026-03-28T15:47:23.999Z</time></trkpt><trkpt lat="44.85663660843955" lon="9.812309746722049"><ele>272.0</ele><time>2026-03-28T15:47:24.999Z</time></trkpt><trkpt lat="44.85671359375739" lon="9.812369113851089"><ele>270.8</ele><time>2026-03-28T15:47:25.999Z</time></trkpt><trkpt lat="44.85679152065417" lon="9.812429907988564"><ele>269.6</ele><time>2026-03-28T15:47:26.999Z</time></trkpt><trkpt lat="44.85686962536134" lon="9.812491619710368"><ele>268.40000000000003</ele><time>2026-03-28T15:47:27.999Z</time></trkpt><trkpt lat="44.85694742937281" lon="9.812556293163269"><ele>267.2</ele><time>2026-03-28T15:47:28.999Z</time></trkpt><trkpt lat="44.85702398732222" lon="9.812625606853704"><ele>266.0</ele><time>2026-03-28T15:47:29.998Z</time></trkpt><trkpt lat="44.857102057300956" lon="9.81269229520268"><ele>265.6</ele><time>2026-03-28T15:47:30.998Z</time></trkpt><trkpt lat="44.85718022931761" lon="9.8127685063189"><ele>265.20000000000005</ele><time>2026-03-28T15:47:31.998Z</time></trkpt><trkpt lat="44.85725881110663" lon="9.812844418432398"><ele>264.79999999999995</ele><time>2026-03-28T15:47:32.998Z</time></trkpt><trkpt lat="44.85733844519307" lon="9.812916000693892"><ele>264.4</ele><time>2026-03-28T15:47:33.998Z</time></trkpt><trkpt lat="44.85742748242969" lon="9.812981862423234"><ele>264.0</ele><time>2026-03-28T15:47:34.998Z</time></trkpt><trkpt lat="44.85752108402059" lon="9.813048720746512"><ele>264.0</ele><time>2026-03-28T15:47:35.998Z</time></trkpt><trkpt lat="44.857617121845514" lon="9.813105502962806"><ele>264.0</ele><time>2026-03-28T15:47:36.998Z</time></trkpt><trkpt lat="44.85772326692988" lon="9.813153034737665"><ele>264.0</ele><time>2026-03-28T15:47:37.998Z</time></trkpt><trkpt lat="44.8578303660011" lon="9.813199618788383"><ele>264.0</ele><time>2026-03-28T15:47:38.998Z</time></trkpt><trkpt lat="44.85793286454268" lon="9.813243982254942"><ele>264.0</ele><time>2026-03-28T15:47:39.998Z</time></trkpt><trkpt lat="44.85803519130254" lon="9.813283181402578"><ele>263.4</ele><time>2026-03-28T15:47:40.998Z</time></trkpt><trkpt lat="44.85813697720121" lon="9.813327347716305"><ele>262.79999999999995</ele><time>2026-03-28T15:47:41.998Z</time></trkpt><trkpt lat="44.858234011747285" lon="9.813376507363794"><ele>262.20000000000005</ele><time>2026-03-28T15:47:42.998Z</time></trkpt><trkpt lat="44.8583191456203" lon="9.813458684965928"><ele>261.6</ele><time>2026-03-28T15:47:43.998Z</time></trkpt><trkpt lat="44.85841824526627" lon="9.813513086594751"><ele>261.0</ele><time>2026-03-28T15:47:44.998Z</time></trkpt><trkpt lat="44.858500632347535" lon="9.813591515522592"><ele>260.40000000000003</ele><time>2026-03-28T15:47:45.998Z</time></trkpt><trkpt lat="44.85858418690091" lon="9.813677796080425"><ele>259.8</ele><time>2026-03-28T15:47:46.998Z</time></trkpt><trkpt lat="44.85867150049828" lon="9.813753121860698"><ele>259.20000000000005</ele><time>2026-03-28T15:47:47.998Z</time></trkpt><trkpt lat="44.858756398631385" lon="9.813828774666627"><ele>258.6</ele><time>2026-03-28T15:47:48.998Z</time></trkpt><trkpt lat="44.85883866034765" lon="9.813907448380478"><ele>258.0</ele><time>2026-03-28T15:47:49.998Z</time></trkpt><trkpt lat="44.858925076898245" lon="9.813982288180616"><ele>258.0</ele><time>2026-03-28T15:47:50.998Z</time></trkpt><trkpt lat="44.85900724147263" lon="9.814051490654922"><ele>258.0</ele><time>2026-03-28T15:47:51.998Z</time></trkpt><trkpt lat="44.859091257679424" lon="9.814124309138561"><ele>258.0</ele><time>2026-03-28T15:47:52.998Z</time></trkpt><trkpt lat="44.85917531223899" lon="9.814194883914501"><ele>258.0</ele><time>2026-03-28T15:47:53.998Z</time></trkpt><trkpt lat="44.859267000498676" lon="9.814254480913636"><ele>258.0</ele><time>2026-03-28T15:47:54.998Z</time></trkpt><trkpt lat="44.85936481524972" lon="9.814288582616435"><ele>256.8</ele><time>2026-03-28T15:47:55.998Z</time></trkpt><trkpt lat="44.85947105740933" lon="9.814292634033226"><ele>255.60000000000002</ele><time>2026-03-28T15:47:56.998Z</time></trkpt><trkpt lat="44.8595761539068" lon="9.814269275261907"><ele>254.39999999999998</ele><time>2026-03-28T15:47:57.998Z</time></trkpt><trkpt lat="44.85968169790279" lon="9.814256381749148"><ele>253.2</ele><time>2026-03-28T15:47:58.998Z</time></trkpt><trkpt lat="44.85977747015913" lon="9.814216252582312"><ele>252.0</ele><time>2026-03-28T15:47:59.998Z</time></trkpt><trkpt lat="44.859869491848" lon="9.814164386476431"><ele>252.0</ele><time>2026-03-28T15:48:00.998Z</time></trkpt><trkpt lat="44.859958460062195" lon="9.81411890780038"><ele>252.0</ele><time>2026-03-28T15:48:01.998Z</time></trkpt><trkpt lat="44.86004647601788" lon="9.814073915907844"><ele>252.0</ele><time>2026-03-28T15:48:02.998Z</time></trkpt><trkpt lat="44.86013078046578" lon="9.814029956694563"><ele>252.0</ele><time>2026-03-28T15:48:03.998Z</time></trkpt><trkpt lat="44.86020947133662" lon="9.813999723263935"><ele>252.0</ele><time>2026-03-28T15:48:04.998Z</time></trkpt><trkpt lat="44.860286126619286" lon="9.813994043415645"><ele>252.0</ele><time>2026-03-28T15:48:05.998Z</time></trkpt><trkpt lat="44.86036805858379" lon="9.814008506836714"><ele>251.2</ele><time>2026-03-28T15:48:06.998Z</time></trkpt><trkpt lat="44.86041644923113" lon="9.814132459665876"><ele>250.39999999999998</ele><time>2026-03-28T15:48:07.998Z</time></trkpt><trkpt lat="44.86045615998484" lon="9.814218732027358"><ele>249.60000000000002</ele><time>2026-03-28T15:48:08.998Z</time></trkpt><trkpt lat="44.86050642305218" lon="9.814326996068989"><ele>248.8</ele><time>2026-03-28T15:48:09.998Z</time></trkpt><trkpt lat="44.86055933443507" lon="9.814437363012972"><ele>248.0</ele><time>2026-03-28T15:48:10.998Z</time></trkpt><trkpt lat="44.86061301360874" lon="9.814545755488213"><ele>247.60000000000002</ele><time>2026-03-28T15:48:11.998Z</time></trkpt><trkpt lat="44.8606709205877" lon="9.81465472782237"><ele>247.20000000000002</ele><time>2026-03-28T15:48:12.998Z</time></trkpt><trkpt lat="44.86073176453528" lon="9.814760873053672"><ele>246.8</ele><time>2026-03-28T15:48:14Z</time></trkpt><trkpt lat="44.860797356768686" lon="9.814870635438531"><ele>246.4</ele><time>2026-03-28T15:48:15Z</time></trkpt><trkpt lat="44.86085910577035" lon="9.814972659780745"><ele>246.0</ele><time>2026-03-28T15:48:16Z</time></trkpt><trkpt lat="44.860922564215784" lon="9.81507467144417"><ele>245.8</ele><time>2026-03-28T15:48:17Z</time></trkpt><trkpt lat="44.860986879215" lon="9.81517806010814"><ele>245.60000000000002</ele><time>2026-03-28T15:48:18Z</time></trkpt><trkpt lat="44.86105255348293" lon="9.815283633620997"><ele>245.4</ele><time>2026-03-28T15:48:19Z</time></trkpt><trkpt lat="44.86111370012478" lon="9.815392052111026"><ele>245.2</ele><time>2026-03-28T15:48:20Z</time></trkpt><trkpt lat="44.86116668620455" lon="9.815498280315005"><ele>245.0</ele><time>2026-03-28T15:48:21Z</time></trkpt><trkpt lat="44.86121633851176" lon="9.815611456706872"><ele>245.0</ele><time>2026-03-28T15:48:22Z</time></trkpt><trkpt lat="44.86125981572372" lon="9.815722669554148"><ele>245.0</ele><time>2026-03-28T15:48:23Z</time></trkpt><trkpt lat="44.86130176585017" lon="9.815843437469372"><ele>245.0</ele><time>2026-03-28T15:48:24Z</time></trkpt><trkpt lat="44.86133972912877" lon="9.815967469334176"><ele>245.0</ele><time>2026-03-28T15:48:25Z</time></trkpt><trkpt lat="44.86137584212337" lon="9.816085355832314"><ele>245.0</ele><time>2026-03-28T15:48:26Z</time></trkpt><trkpt lat="44.86141209989132" lon="9.816200480297569"><ele>244.2</ele><time>2026-03-28T15:48:27Z</time></trkpt><trkpt lat="44.861455873423594" lon="9.816320742921796"><ele>243.4</ele><time>2026-03-28T15:48:28Z</time></trkpt><trkpt lat="44.8614986406636" lon="9.816438233122861"><ele>242.60000000000002</ele><time>2026-03-28T15:48:29Z</time></trkpt><trkpt lat="44.86154406880727" lon="9.816560810363518"><ele>241.8</ele><time>2026-03-28T15:48:30Z</time></trkpt><trkpt lat="44.86158931648369" lon="9.816680515429967"><ele>241.0</ele><time>2026-03-28T15:48:31Z</time></trkpt><trkpt lat="44.861642007602114" lon="9.816810877811458"><ele>240.4</ele><time>2026-03-28T15:48:32Z</time></trkpt><trkpt lat="44.86169255160558" lon="9.81692754569178"><ele>239.8</ele><time>2026-03-28T15:48:33Z</time></trkpt><trkpt lat="44.86174261037437" lon="9.817041930056034"><ele>239.20000000000002</ele><time>2026-03-28T15:48:34Z</time></trkpt><trkpt lat="44.86179253061379" lon="9.817153235431368"><ele>238.60000000000002</ele><time>2026-03-28T15:48:35Z</time></trkpt><trkpt lat="44.861843848315004" lon="9.817263370514956"><ele>238.0</ele><time>2026-03-28T15:48:36Z</time></trkpt><trkpt lat="44.861897045702754" lon="9.817363487753232"><ele>237.99999999999997</ele><time>2026-03-28T15:48:37Z</time></trkpt><trkpt lat="44.86195864371496" lon="9.81745802177425"><ele>238.0</ele><time>2026-03-28T15:48:38Z</time></trkpt><trkpt lat="44.86202093035456" lon="9.817546997521353"><ele>238.0</ele><time>2026-03-28T15:48:38.999Z</time></trkpt><trkpt lat="44.86208105396112" lon="9.817629103820428"><ele>238.0</ele><time>2026-03-28T15:48:39.999Z</time></trkpt><trkpt lat="44.862142047777496" lon="9.81770929593226"><ele>237.99999999999997</ele><time>2026-03-28T15:48:40.999Z</time></trkpt><trkpt lat="44.86220199318322" lon="9.81778668335163"><ele>238.0</ele><time>2026-03-28T15:48:41.999Z</time></trkpt><trkpt lat="44.86226518875422" lon="9.817866820561097"><ele>237.49999999999997</ele><time>2026-03-28T15:48:42.999Z</time></trkpt><trkpt lat="44.86232860588437" lon="9.817943903426466"><ele>237.0</ele><time>2026-03-28T15:48:43.999Z</time></trkpt><trkpt lat="44.86239629752911" lon="9.818020880006237"><ele>236.5</ele><time>2026-03-28T15:48:44.999Z</time></trkpt><trkpt lat="44.8624712869004" lon="9.818098188170177"><ele>236.0</ele><time>2026-03-28T15:48:45.999Z</time></trkpt><trkpt lat="44.862544342699245" lon="9.818172861096752"><ele>235.49999999999997</ele><time>2026-03-28T15:48:46.999Z</time></trkpt><trkpt lat="44.86261541874424" lon="9.818247139441556"><ele>235.0</ele><time>2026-03-28T15:48:47.999Z</time></trkpt><trkpt lat="44.8626882254784" lon="9.818323226381656"><ele>234.6</ele><time>2026-03-28T15:48:48.999Z</time></trkpt><trkpt lat="44.86276383150597" lon="9.818402238816764"><ele>234.2</ele><time>2026-03-28T15:48:49.999Z</time></trkpt><trkpt lat="44.86284451166399" lon="9.81848655536977"><ele>233.8</ele><time>2026-03-28T15:48:50.999Z</time></trkpt><trkpt lat="44.86292463231906" lon="9.818570285998883"><ele>233.4</ele><time>2026-03-28T15:48:51.999Z</time></trkpt><trkpt lat="44.863024733897774" lon="9.818622670724482"><ele>233.0</ele><time>2026-03-28T15:48:52.999Z</time></trkpt><trkpt lat="44.86310936842475" lon="9.818710378358979"><ele>232.2</ele><time>2026-03-28T15:48:53.999Z</time></trkpt><trkpt lat="44.86319072074081" lon="9.818797021374081"><ele>231.4</ele><time>2026-03-28T15:48:54.999Z</time></trkpt><trkpt lat="44.863277232360936" lon="9.818880783620267"><ele>230.59999999999997</ele><time>2026-03-28T15:48:55.999Z</time></trkpt><trkpt lat="44.86335754985244" lon="9.81896876126218"><ele>229.79999999999998</ele><time>2026-03-28T15:48:56.999Z</time></trkpt><trkpt lat="44.86343731637118" lon="9.819057692711526"><ele>229.0</ele><time>2026-03-28T15:48:57.999Z</time></trkpt><trkpt lat="44.863517569814604" lon="9.819139385813173"><ele>228.39999999999998</ele><time>2026-03-28T15:48:58.999Z</time></trkpt><trkpt lat="44.86357894806158" lon="9.819255581188543"><ele>227.79999999999998</ele><time>2026-03-28T15:48:59.999Z</time></trkpt><trkpt lat="44.86365601384047" lon="9.81933874435931"><ele>227.20000000000002</ele><time>2026-03-28T15:49:00.999Z</time></trkpt><trkpt lat="44.863733286478485" lon="9.819422103136336"><ele>226.60000000000002</ele><time>2026-03-28T15:49:01.999Z</time></trkpt><trkpt lat="44.86380967526095" lon="9.819499522088355"><ele>226.0</ele><time>2026-03-28T15:49:02.999Z</time></trkpt><trkpt lat="44.86388850877778" lon="9.8195745308792"><ele>226.0</ele><time>2026-03-28T15:49:03.999Z</time></trkpt><trkpt lat="44.863972045906806" lon="9.819642164388199"><ele>226.00000000000003</ele><time>2026-03-28T15:49:04.999Z</time></trkpt><trkpt lat="44.864057532825484" lon="9.819694724867276"><ele>226.00000000000003</ele><time>2026-03-28T15:49:05.999Z</time></trkpt><trkpt lat="44.86414713855346" lon="9.819740604603089"><ele>226.0</ele><time>2026-03-28T15:49:06.999Z</time></trkpt><trkpt lat="44.86423805094893" lon="9.819777822541061"><ele>226.0</ele><time>2026-03-28T15:49:07.999Z</time></trkpt><trkpt lat="44.86432865267097" lon="9.819811528652037"><ele>226.8</ele><time>2026-03-28T15:49:08.999Z</time></trkpt><trkpt lat="44.86441959808714" lon="9.81984439321231"><ele>227.60000000000002</ele><time>2026-03-28T15:49:09.999Z</time></trkpt><trkpt lat="44.86451501806646" lon="9.819875894631737"><ele>228.4</ele><time>2026-03-28T15:49:10.999Z</time></trkpt><trkpt lat="44.86460360898471" lon="9.819903437992497"><ele>229.2</ele><time>2026-03-28T15:49:11.999Z</time></trkpt><trkpt lat="44.86469020520155" lon="9.819936330855175"><ele>230.0</ele><time>2026-03-28T15:49:12.999Z</time></trkpt><trkpt lat="44.86477634397575" lon="9.819979438254778"><ele>230.0</ele><time>2026-03-28T15:49:13.999Z</time></trkpt><trkpt lat="44.864863672609694" lon="9.820026355024503"><ele>230.0</ele><time>2026-03-28T15:49:14.999Z</time></trkpt><trkpt lat="44.86494543082333" lon="9.820076128879938"><ele>230.0</ele><time>2026-03-28T15:49:15.999Z</time></trkpt><trkpt lat="44.865028714084154" lon="9.820133005385005"><ele>230.0</ele><time>2026-03-28T15:49:16.999Z</time></trkpt><trkpt lat="44.86510949732949" lon="9.820189344836942"><ele>230.0</ele><time>2026-03-28T15:49:17.999Z</time></trkpt><trkpt lat="44.86519237582276" lon="9.820247145613545"><ele>228.66666666666669</ele><time>2026-03-28T15:49:18.999Z</time></trkpt><trkpt lat="44.865272977137124" lon="9.820303358037599"><ele>227.33333333333334</ele><time>2026-03-28T15:49:19.999Z</time></trkpt><trkpt lat="44.86535495294194" lon="9.820361503620319"><ele>226.0</ele><time>2026-03-28T15:49:20.999Z</time></trkpt><trkpt lat="44.8654288263966" lon="9.820414982110842"><ele>224.66666666666669</ele><time>2026-03-28T15:49:21.999Z</time></trkpt><trkpt lat="44.865483632655085" lon="9.820473028698265"><ele>223.33333333333334</ele><time>2026-03-28T15:49:22.999Z</time></trkpt><trkpt lat="44.865516846290134" lon="9.82055317192616"><ele>222.0</ele><time>2026-03-28T15:49:23.999Z</time></trkpt><trkpt lat="44.865540502555184" lon="9.820643007097354"><ele>222.0</ele><time>2026-03-28T15:49:24.999Z</time></trkpt><trkpt lat="44.865528792786364" lon="9.820757461075948"><ele>222.0</ele><time>2026-03-28T15:49:25.999Z</time></trkpt><trkpt lat="44.865522121955756" lon="9.82086819120939"><ele>222.0</ele><time>2026-03-28T15:49:26.999Z</time></trkpt><trkpt lat="44.865551670843175" lon="9.820985387581407"><ele>222.0</ele><time>2026-03-28T15:49:27.999Z</time></trkpt><trkpt lat="44.86560051092802" lon="9.821092809721414"><ele>222.0</ele><time>2026-03-28T15:49:28.999Z</time></trkpt><trkpt lat="44.865659977818616" lon="9.821195315115892"><ele>222.0</ele><time>2026-03-28T15:49:29.999Z</time></trkpt><trkpt lat="44.865724375645634" lon="9.821276925439268"><ele>221.33333333333334</ele><time>2026-03-28T15:49:30.999Z</time></trkpt><trkpt lat="44.86578886855734" lon="9.821355364406807"><ele>220.66666666666669</ele><time>2026-03-28T15:49:31.999Z</time></trkpt><trkpt lat="44.86585670802221" lon="9.82143305266328"><ele>220.0</ele><time>2026-03-28T15:49:32.999Z</time></trkpt><trkpt lat="44.86592567005462" lon="9.82150552061789"><ele>219.33333333333334</ele><time>2026-03-28T15:49:33.999Z</time></trkpt><trkpt lat="44.86599429333152" lon="9.821579137923313"><ele>218.66666666666669</ele><time>2026-03-28T15:49:34.998Z</time></trkpt><trkpt lat="44.86606236797433" lon="9.821653036477969"><ele>218.0</ele><time>2026-03-28T15:49:35.998Z</time></trkpt><trkpt lat="44.86613203336019" lon="9.821728310914974"><ele>218.00000000000003</ele><time>2026-03-28T15:49:36.998Z</time></trkpt><trkpt lat="44.866200654420226" lon="9.82179993793017"><ele>218.0</ele><time>2026-03-28T15:49:37.998Z</time></trkpt><trkpt lat="44.86627304324453" lon="9.821875610692786"><ele>218.0</ele><time>2026-03-28T15:49:38.998Z</time></trkpt><trkpt lat="44.86634322710499" lon="9.8219489785224"><ele>218.0</ele><time>2026-03-28T15:49:39.998Z</time></trkpt><trkpt lat="44.86641576440742" lon="9.822024806523478"><ele>218.00000000000003</ele><time>2026-03-28T15:49:40.998Z</time></trkpt><trkpt lat="44.86648856798848" lon="9.822100912995749"><ele>218.0</ele><time>2026-03-28T15:49:41.998Z</time></trkpt><trkpt lat="44.8665638458798" lon="9.822179334846203"><ele>217.8</ele><time>2026-03-28T15:49:42.998Z</time></trkpt><trkpt lat="44.866640801263834" lon="9.822256987976742"><ele>217.60000000000002</ele><time>2026-03-28T15:49:43.998Z</time></trkpt><trkpt lat="44.8667220796548" lon="9.822335516982777"><ele>217.39999999999998</ele><time>2026-03-28T15:49:44.998Z</time></trkpt><trkpt lat="44.86680394207713" lon="9.822409381465748"><ele>217.2</ele><time>2026-03-28T15:49:45.998Z</time></trkpt><trkpt lat="44.86688821216086" lon="9.82247776999646"><ele>217.0</ele><time>2026-03-28T15:49:46.998Z</time></trkpt><trkpt lat="44.8669721793392" lon="9.822540283897823"><ele>217.0</ele><time>2026-03-28T15:49:47.998Z</time></trkpt><trkpt lat="44.86705600323618" lon="9.822601597899848"><ele>217.0</ele><time>2026-03-28T15:49:48.998Z</time></trkpt><trkpt lat="44.867141195959405" lon="9.822661169194326"><ele>217.0</ele><time>2026-03-28T15:49:49.998Z</time></trkpt><trkpt lat="44.86722565751898" lon="9.822717062725122"><ele>217.0</ele><time>2026-03-28T15:49:50.998Z</time></trkpt><trkpt lat="44.86730843409739" lon="9.822776138602299"><ele>217.0</ele><time>2026-03-28T15:49:51.998Z</time></trkpt><trkpt lat="44.86739252333257" lon="9.82283816293133"><ele>216.6</ele><time>2026-03-28T15:49:52.998Z</time></trkpt><trkpt lat="44.86747735040763" lon="9.822900731516382"><ele>216.2</ele><time>2026-03-28T15:49:53.998Z</time></trkpt><trkpt lat="44.86756139417661" lon="9.82296272231988"><ele>215.8</ele><time>2026-03-28T15:49:54.998Z</time></trkpt><trkpt lat="44.867646087412865" lon="9.823025267208747"><ele>215.4</ele><time>2026-03-28T15:49:55.998Z</time></trkpt><trkpt lat="44.867731140332" lon="9.823088395375743"><ele>215.0</ele><time>2026-03-28T15:49:56.998Z</time></trkpt><trkpt lat="44.867816855414645" lon="9.823152015023998"><ele>213.8</ele><time>2026-03-28T15:49:57.998Z</time></trkpt><trkpt lat="44.867905007930396" lon="9.823217932416375"><ele>212.6</ele><time>2026-03-28T15:49:58.998Z</time></trkpt><trkpt lat="44.867989298744206" lon="9.823281059231569"><ele>211.39999999999998</ele><time>2026-03-28T15:49:59.998Z</time></trkpt><trkpt lat="44.86807828299982" lon="9.823347255351543"><ele>210.2</ele><time>2026-03-28T15:50:00.998Z</time></trkpt><trkpt lat="44.868166845815736" lon="9.823410853632755"><ele>209.0</ele><time>2026-03-28T15:50:01.998Z</time></trkpt><trkpt lat="44.868253010207326" lon="9.823470198353297"><ele>208.39999999999998</ele><time>2026-03-28T15:50:02.998Z</time></trkpt><trkpt lat="44.868340723429256" lon="9.823531364674409"><ele>207.8</ele><time>2026-03-28T15:50:03.998Z</time></trkpt><trkpt lat="44.86842406524313" lon="9.823592999563441"><ele>207.2</ele><time>2026-03-28T15:50:04.998Z</time></trkpt><trkpt lat="44.86851222886899" lon="9.823658200456387"><ele>206.60000000000002</ele><time>2026-03-28T15:50:05.998Z</time></trkpt><trkpt lat="44.86859931675015" lon="9.82372260576654"><ele>206.0</ele><time>2026-03-28T15:50:06.998Z</time></trkpt><trkpt lat="44.86869003394097" lon="9.823789695074717"><ele>206.0</ele><time>2026-03-28T15:50:07.998Z</time></trkpt><trkpt lat="44.86877221163189" lon="9.823850469105036"><ele>206.0</ele><time>2026-03-28T15:50:08.998Z</time></trkpt><trkpt lat="44.86886179136133" lon="9.823916717177484"><ele>206.0</ele><time>2026-03-28T15:50:09.998Z</time></trkpt><trkpt lat="44.868947538541285" lon="9.823980131002157"><ele>206.0</ele><time>2026-03-28T15:50:10.998Z</time></trkpt><trkpt lat="44.869035241284834" lon="9.82404084988875"><ele>206.0</ele><time>2026-03-28T15:50:11.998Z</time></trkpt><trkpt lat="44.8691272511465" lon="9.82407946057411"><ele>206.0</ele><time>2026-03-28T15:50:12.998Z</time></trkpt><trkpt lat="44.86920808320448" lon="9.824151759296603"><ele>206.0</ele><time>2026-03-28T15:50:13.998Z</time></trkpt><trkpt lat="44.86929034788349" lon="9.824221263200194"><ele>206.0</ele><time>2026-03-28T15:50:14.998Z</time></trkpt><trkpt lat="44.86935672500982" lon="9.824315349087419"><ele>206.0</ele><time>2026-03-28T15:50:15.998Z</time></trkpt><trkpt lat="44.8694271426919" lon="9.824399657649966"><ele>206.0</ele><time>2026-03-28T15:50:16.998Z</time></trkpt><trkpt lat="44.869493291387" lon="9.824486850993654"><ele>205.8</ele><time>2026-03-28T15:50:17.998Z</time></trkpt><trkpt lat="44.869561239631565" lon="9.824576094044614"><ele>205.60000000000002</ele><time>2026-03-28T15:50:18.998Z</time></trkpt><trkpt lat="44.869638241118686" lon="9.824649606123044"><ele>205.4</ele><time>2026-03-28T15:50:20Z</time></trkpt><trkpt lat="44.86970659303348" lon="9.824742039740618"><ele>205.2</ele><time>2026-03-28T15:50:21Z</time></trkpt><trkpt lat="44.86978148450471" lon="9.82481780326505"><ele>205.0</ele><time>2026-03-28T15:50:22Z</time></trkpt><trkpt lat="44.86985344577369" lon="9.82491140305718"><ele>205.0</ele><time>2026-03-28T15:50:23Z</time></trkpt><trkpt lat="44.86993244411917" lon="9.824979587764417"><ele>205.0</ele><time>2026-03-28T15:50:24Z</time></trkpt><trkpt lat="44.870017567079614" lon="9.82505305890556"><ele>205.0</ele><time>2026-03-28T15:50:25Z</time></trkpt><trkpt lat="44.87010069738936" lon="9.825124809977234"><ele>205.0</ele><time>2026-03-28T15:50:26Z</time></trkpt><trkpt lat="44.87018473452788" lon="9.825197066766512"><ele>205.0</ele><time>2026-03-28T15:50:27Z</time></trkpt><trkpt lat="44.870269001445635" lon="9.825269045666774"><ele>204.4</ele><time>2026-03-28T15:50:28Z</time></trkpt><trkpt lat="44.87035519132582" lon="9.825342666844914"><ele>203.8</ele><time>2026-03-28T15:50:29Z</time></trkpt><trkpt lat="44.87044458178386" lon="9.825415394263608"><ele>203.2</ele><time>2026-03-28T15:50:30Z</time></trkpt><trkpt lat="44.87053216904672" lon="9.82548591199778"><ele>202.6</ele><time>2026-03-28T15:50:31Z</time></trkpt><trkpt lat="44.87062321877876" lon="9.825559217410346"><ele>202.0</ele><time>2026-03-28T15:50:32Z</time></trkpt><trkpt lat="44.8707104939935" lon="9.825631705229139"><ele>202.0</ele><time>2026-03-28T15:50:33Z</time></trkpt><trkpt lat="44.870799871182705" lon="9.82570693909034"><ele>202.0</ele><time>2026-03-28T15:50:34Z</time></trkpt><trkpt lat="44.870890001024115" lon="9.825783197646885"><ele>202.0</ele><time>2026-03-28T15:50:35Z</time></trkpt><trkpt lat="44.870977871778784" lon="9.825857545222894"><ele>202.0</ele><time>2026-03-28T15:50:36Z</time></trkpt><trkpt lat="44.87106496629667" lon="9.825931235412256"><ele>202.0</ele><time>2026-03-28T15:50:37Z</time></trkpt><trkpt lat="44.871152288683994" lon="9.826005118644035"><ele>201.2</ele><time>2026-03-28T15:50:38Z</time></trkpt><trkpt lat="44.871237684350135" lon="9.826077371684084"><ele>200.39999999999998</ele><time>2026-03-28T15:50:39Z</time></trkpt><trkpt lat="44.871325851715326" lon="9.826151970010285"><ele>199.60000000000002</ele><time>2026-03-28T15:50:40Z</time></trkpt><trkpt lat="44.87141190998466" lon="9.826224783557464"><ele>198.8</ele><time>2026-03-28T15:50:41Z</time></trkpt><trkpt lat="44.87150061202813" lon="9.826298268433682"><ele>198.0</ele><time>2026-03-28T15:50:41.999Z</time></trkpt><trkpt lat="44.87158941273234" lon="9.826371305470031"><ele>198.0</ele><time>2026-03-28T15:50:42.999Z</time></trkpt><trkpt lat="44.87168009939231" lon="9.826445893646616"><ele>198.0</ele><time>2026-03-28T15:50:43.999Z</time></trkpt><trkpt lat="44.871768785537796" lon="9.826520123827084"><ele>198.0</ele><time>2026-03-28T15:50:44.999Z</time></trkpt><trkpt lat="44.8718567299603" lon="9.82659406795048"><ele>198.0</ele><time>2026-03-28T15:50:45.999Z</time></trkpt><trkpt lat="44.87194641219838" lon="9.826667941004231"><ele>198.0</ele><time>2026-03-28T15:50:46.999Z</time></trkpt><trkpt lat="44.87203796743138" lon="9.826740488883958"><ele>196.8</ele><time>2026-03-28T15:50:47.999Z</time></trkpt><trkpt lat="44.872134494775835" lon="9.826794791313125"><ele>195.60000000000002</ele><time>2026-03-28T15:50:48.999Z</time></trkpt><trkpt lat="44.872216865073014" lon="9.826889112725834"><ele>194.39999999999998</ele><time>2026-03-28T15:50:49.999Z</time></trkpt><trkpt lat="44.87230919826399" lon="9.826965500257296"><ele>193.2</ele><time>2026-03-28T15:50:50.999Z</time></trkpt><trkpt lat="44.87240153842364" lon="9.827040292004876"><ele>192.0</ele><time>2026-03-28T15:50:51.999Z</time></trkpt><trkpt lat="44.872489751810626" lon="9.827111741208995"><ele>191.8</ele><time>2026-03-28T15:50:52.999Z</time></trkpt><trkpt lat="44.87257486190306" lon="9.827180678470398"><ele>191.6</ele><time>2026-03-28T15:50:53.999Z</time></trkpt><trkpt lat="44.872656862190055" lon="9.827248168189461"><ele>191.4</ele><time>2026-03-28T15:50:54.999Z</time></trkpt><trkpt lat="44.87273085167068" lon="9.827312222060048"><ele>191.20000000000002</ele><time>2026-03-28T15:50:55.999Z</time></trkpt><trkpt lat="44.872799849921165" lon="9.827381280683877"><ele>191.0</ele><time>2026-03-28T15:50:56.999Z</time></trkpt><trkpt lat="44.87286938639269" lon="9.827459821042114"><ele>190.20000000000002</ele><time>2026-03-28T15:50:57.999Z</time></trkpt><trkpt lat="44.872941188898096" lon="9.8275419360757"><ele>189.4</ele><time>2026-03-28T15:50:58.999Z</time></trkpt><trkpt lat="44.873019040728444" lon="9.82763067213393"><ele>188.6</ele><time>2026-03-28T15:50:59.999Z</time></trkpt><trkpt lat="44.87309677703957" lon="9.827719119320543"><ele>187.8</ele><time>2026-03-28T15:51:00.999Z</time></trkpt><trkpt lat="44.873181435965044" lon="9.827811403110479"><ele>187.0</ele><time>2026-03-28T15:51:01.999Z</time></trkpt><trkpt lat="44.873266905205945" lon="9.827904569989977"><ele>185.8</ele><time>2026-03-28T15:51:02.999Z</time></trkpt><trkpt lat="44.873349632407844" lon="9.828002828412723"><ele>184.6</ele><time>2026-03-28T15:51:03.999Z</time></trkpt><trkpt lat="44.87342227512187" lon="9.82810616623724"><ele>183.4</ele><time>2026-03-28T15:51:04.999Z</time></trkpt><trkpt lat="44.87348008452692" lon="9.828221704545316"><ele>182.20000000000002</ele><time>2026-03-28T15:51:05.999Z</time></trkpt><trkpt lat="44.87353403530337" lon="9.828348381988738"><ele>181.0</ele><time>2026-03-28T15:51:06.999Z</time></trkpt><trkpt lat="44.873545800598095" lon="9.828509617109166"><ele>178.0</ele><time>2026-03-28T15:51:07.999Z</time></trkpt><trkpt lat="44.873536880551484" lon="9.828670558430353"><ele>175.0</ele><time>2026-03-28T15:51:08.999Z</time></trkpt><trkpt lat="44.873512271568224" lon="9.82883523870268"><ele>172.0</ele><time>2026-03-28T15:51:09.999Z</time></trkpt><trkpt lat="44.87348630927002" lon="9.828999055066015"><ele>169.0</ele><time>2026-03-28T15:51:10.999Z</time></trkpt><trkpt lat="44.87344513014084" lon="9.829148726555161"><ele>169.0</ele><time>2026-03-28T15:51:11.999Z</time></trkpt><trkpt lat="44.87339521597167" lon="9.829268312138955"><ele>169.0</ele><time>2026-03-28T15:51:12.999Z</time></trkpt><trkpt lat="44.87332876205046" lon="9.829366824288586"><ele>169.0</ele><time>2026-03-28T15:51:13.999Z</time></trkpt><trkpt lat="44.87326389254571" lon="9.829464858797751"><ele>169.0</ele><time>2026-03-28T15:51:14.999Z</time></trkpt><trkpt lat="44.873216158385596" lon="9.829576365978188"><ele>169.0</ele><time>2026-03-28T15:51:15.999Z</time></trkpt><trkpt lat="44.873187970612726" lon="9.82970491188537"><ele>169.0</ele><time>2026-03-28T15:51:16.999Z</time></trkpt><trkpt lat="44.87316593247555" lon="9.82983524240571"><ele>169.0</ele><time>2026-03-28T15:51:17.999Z</time></trkpt><trkpt lat="44.873178557219646" lon="9.829973795843003"><ele>169.0</ele><time>2026-03-28T15:51:18.999Z</time></trkpt><trkpt lat="44.87319740822741" lon="9.830109822797718"><ele>169.0</ele><time>2026-03-28T15:51:19.999Z</time></trkpt><trkpt lat="44.873189689830156" lon="9.830246304168343"><ele>169.0</ele><time>2026-03-28T15:51:20.999Z</time></trkpt><trkpt lat="44.87319578836878" lon="9.830383021171544"><ele>168.6</ele><time>2026-03-28T15:51:21.999Z</time></trkpt><trkpt lat="44.87320597612576" lon="9.83052310536881"><ele>168.2</ele><time>2026-03-28T15:51:22.999Z</time></trkpt><trkpt lat="44.873229160263996" lon="9.830660671395261"><ele>167.79999999999998</ele><time>2026-03-28T15:51:23.999Z</time></trkpt><trkpt lat="44.87326639197366" lon="9.83079161448161"><ele>167.39999999999998</ele><time>2026-03-28T15:51:24.999Z</time></trkpt><trkpt lat="44.87335016537111" lon="9.830904472238725"><ele>167.0</ele><time>2026-03-28T15:51:25.999Z</time></trkpt><trkpt lat="44.87341984960222" lon="9.830997290662102"><ele>167.0</ele><time>2026-03-28T15:51:26.999Z</time></trkpt><trkpt lat="44.873489982186385" lon="9.831088669586165"><ele>167.0</ele><time>2026-03-28T15:51:27.999Z</time></trkpt><trkpt lat="44.87355851033075" lon="9.831181117270962"><ele>167.0</ele><time>2026-03-28T15:51:28.999Z</time></trkpt><trkpt lat="44.873629803733216" lon="9.831275079992054"><ele>167.0</ele><time>2026-03-28T15:51:29.999Z</time></trkpt><trkpt lat="44.87369924024089" lon="9.831364693420316"><ele>167.0</ele><time>2026-03-28T15:51:30.999Z</time></trkpt><trkpt lat="44.8737680045295" lon="9.831453439331996"><ele>167.0</ele><time>2026-03-28T15:51:31.999Z</time></trkpt><trkpt lat="44.87383088333219" lon="9.831541674201311"><ele>167.0</ele><time>2026-03-28T15:51:32.999Z</time></trkpt><trkpt lat="44.87387130743123" lon="9.831636438031275"><ele>167.0</ele><time>2026-03-28T15:51:33.999Z</time></trkpt><trkpt lat="44.87388970196016" lon="9.831747245116382"><ele>167.0</ele><time>2026-03-28T15:51:34.999Z</time></trkpt><trkpt lat="44.873895716492214" lon="9.831872424830344"><ele>167.0</ele><time>2026-03-28T15:51:35.999Z</time></trkpt><trkpt lat="44.87389699378426" lon="9.831997971754294"><ele>167.0</ele><time>2026-03-28T15:51:36.999Z</time></trkpt><trkpt lat="44.8739141583186" lon="9.83214550777706"><ele>166.6</ele><time>2026-03-28T15:51:37.999Z</time></trkpt><trkpt lat="44.87394445764946" lon="9.83226784779225"><ele>166.2</ele><time>2026-03-28T15:51:38.999Z</time></trkpt><trkpt lat="44.873988150811236" lon="9.832394074170594"><ele>165.8</ele><time>2026-03-28T15:51:39.998Z</time></trkpt><trkpt lat="44.874021660538986" lon="9.83251705965731"><ele>165.4</ele><time>2026-03-28T15:51:40.998Z</time></trkpt><trkpt lat="44.87404574371978" lon="9.832642907280382"><ele>165.0</ele><time>2026-03-28T15:51:41.998Z</time></trkpt><trkpt lat="44.87405137102669" lon="9.832760289361158"><ele>164.5</ele><time>2026-03-28T15:51:42.998Z</time></trkpt><trkpt lat="44.87406699497469" lon="9.832877575202078"><ele>164.0</ele><time>2026-03-28T15:51:43.998Z</time></trkpt><trkpt lat="44.87404463493581" lon="9.832983392960564"><ele>163.5</ele><time>2026-03-28T15:51:44.998Z</time></trkpt><trkpt lat="44.87401681155978" lon="9.833078851108523"><ele>163.0</ele><time>2026-03-28T15:51:45.998Z</time></trkpt><trkpt lat="44.873955354926316" lon="9.833155171034576"><ele>162.5</ele><time>2026-03-28T15:51:46.998Z</time></trkpt><trkpt lat="44.87387521881116" lon="9.833230757436116"><ele>162.0</ele><time>2026-03-28T15:51:47.998Z</time></trkpt><trkpt lat="44.873798429235485" lon="9.833325353526801"><ele>162.0</ele><time>2026-03-28T15:51:48.998Z</time></trkpt><trkpt lat="44.87373799847082" lon="9.833434314409766"><ele>162.0</ele><time>2026-03-28T15:51:49.998Z</time></trkpt><trkpt lat="44.87367930121796" lon="9.833545733164359"><ele>162.0</ele><time>2026-03-28T15:51:50.998Z</time></trkpt><trkpt lat="44.87359573942778" lon="9.83365466200825"><ele>162.0</ele><time>2026-03-28T15:51:51.998Z</time></trkpt><trkpt lat="44.873514268831336" lon="9.83376321573884"><ele>162.0</ele><time>2026-03-28T15:51:52.998Z</time></trkpt><trkpt lat="44.87345061332237" lon="9.83387999161352"><ele>159.0</ele><time>2026-03-28T15:51:53.998Z</time></trkpt><trkpt lat="44.87337978978248" lon="9.833997612371634"><ele>156.0</ele><time>2026-03-28T15:51:54.998Z</time></trkpt><trkpt lat="44.873299015963674" lon="9.834121196793143"><ele>153.0</ele><time>2026-03-28T15:51:55.998Z</time></trkpt><trkpt lat="44.873230163772895" lon="9.83424868412328"><ele>150.0</ele><time>2026-03-28T15:51:56.998Z</time></trkpt><trkpt lat="44.87315811432262" lon="9.834387581660616"><ele>149.2</ele><time>2026-03-28T15:51:57.998Z</time></trkpt><trkpt lat="44.87309854152258" lon="9.83451919887354"><ele>148.4</ele><time>2026-03-28T15:51:58.998Z</time></trkpt><trkpt lat="44.87302463180115" lon="9.834643123745437"><ele>147.6</ele><time>2026-03-28T15:51:59.998Z</time></trkpt><trkpt lat="44.8729486854043" lon="9.834742406702588"><ele>146.8</ele><time>2026-03-28T15:52:00.998Z</time></trkpt><trkpt lat="44.87286627110848" lon="9.834824293835576"><ele>146.0</ele><time>2026-03-28T15:52:01.998Z</time></trkpt><trkpt lat="44.87276924239962" lon="9.834879337525344"><ele>146.0</ele><time>2026-03-28T15:52:02.998Z</time></trkpt><trkpt lat="44.872675625461085" lon="9.834931221224233"><ele>146.0</ele><time>2026-03-28T15:52:03.998Z</time></trkpt><trkpt lat="44.872603571115654" lon="9.835035604233083"><ele>146.0</ele><time>2026-03-28T15:52:04.998Z</time></trkpt><trkpt lat="44.87257649421175" lon="9.83519541334842"><ele>146.0</ele><time>2026-03-28T15:52:05.998Z</time></trkpt><trkpt lat="44.872557928891716" lon="9.835356394580035"><ele>146.0</ele><time>2026-03-28T15:52:06.998Z</time></trkpt><trkpt lat="44.872548723561295" lon="9.83551525380373"><ele>145.2</ele><time>2026-03-28T15:52:07.998Z</time></trkpt><trkpt lat="44.87254185552981" lon="9.835663152485948"><ele>144.39999999999998</ele><time>2026-03-28T15:52:08.998Z</time></trkpt><trkpt lat="44.87253622512678" lon="9.8358148525651"><ele>143.6</ele><time>2026-03-28T15:52:09.998Z</time></trkpt><trkpt lat="44.872530581033025" lon="9.835966921199118"><ele>142.79999999999998</ele><time>2026-03-28T15:52:10.998Z</time></trkpt><trkpt lat="44.872524887306646" lon="9.83612032680197"><ele>142.0</ele><time>2026-03-28T15:52:11.998Z</time></trkpt><trkpt lat="44.8725171139342" lon="9.836274541290573"><ele>141.0</ele><time>2026-03-28T15:52:12.998Z</time></trkpt><trkpt lat="44.8724999561032" lon="9.836422143602205"><ele>140.0</ele><time>2026-03-28T15:52:13.998Z</time></trkpt><trkpt lat="44.87246676656672" lon="9.83656820119208"><ele>139.0</ele><time>2026-03-28T15:52:14.998Z</time></trkpt><trkpt lat="44.872439524499825" lon="9.836709013322768"><ele>138.0</ele><time>2026-03-28T15:52:15.998Z</time></trkpt><trkpt lat="44.872403269246064" lon="9.836831491987198"><ele>137.0</ele><time>2026-03-28T15:52:16.998Z</time></trkpt><trkpt lat="44.87237030512017" lon="9.836943124668041"><ele>136.4</ele><time>2026-03-28T15:52:17.998Z</time></trkpt><trkpt lat="44.87232938716902" lon="9.837032953448622"><ele>135.79999999999998</ele><time>2026-03-28T15:52:18.998Z</time></trkpt><trkpt lat="44.87229756165761" lon="9.837154197443722"><ele>135.2</ele><time>2026-03-28T15:52:20.998Z</time></trkpt><trkpt lat="44.87228619426993" lon="9.83727407592976"><ele>134.6</ele><time>2026-03-28T15:52:23.998Z</time></trkpt><trkpt lat="44.8724527112581" lon="9.837378197002655"><ele>134.0</ele><time>2026-03-28T15:52:26Z</time></trkpt><trkpt lat="44.872545591387095" lon="9.837415032228254"><ele>134.2</ele><time>2026-03-28T15:52:28Z</time></trkpt><trkpt lat="44.87265340384772" lon="9.837416079330394"><ele>134.4</ele><time>2026-03-28T15:52:30Z</time></trkpt><trkpt lat="44.87275195226678" lon="9.837477998869067"><ele>134.6</ele><time>2026-03-28T15:52:32Z</time></trkpt><trkpt lat="44.87285042681182" lon="9.8375373792202"><ele>134.8</ele><time>2026-03-28T15:52:34Z</time></trkpt><trkpt lat="44.87294411231262" lon="9.837615987675775"><ele>135.0</ele><time>2026-03-28T15:52:36Z</time></trkpt><trkpt lat="44.87297644285128" lon="9.837696964522925"><ele>135.0</ele><time>2026-03-28T15:52:37Z</time></trkpt><trkpt lat="44.87308313375605" lon="9.837780385308402"><ele>135.0</ele><time>2026-03-28T15:52:39Z</time></trkpt><trkpt lat="44.87319322086205" lon="9.837861597427263"><ele>135.0</ele><time>2026-03-28T15:52:41Z</time></trkpt><trkpt lat="44.87325366406873" lon="9.83790422565256"><ele>135.0</ele><time>2026-03-28T15:52:42Z</time></trkpt><trkpt lat="44.8733217080564" lon="9.837929728686172"><ele>135.0</ele><time>2026-03-28T15:52:43Z</time></trkpt><trkpt lat="44.873379749321586" lon="9.837973436088593"><ele>134.71428571428572</ele><time>2026-03-28T15:52:44Z</time></trkpt><trkpt lat="44.873441570930176" lon="9.838015989501418"><ele>134.42857142857142</ele><time>2026-03-28T15:52:45Z</time></trkpt><trkpt lat="44.87350597560793" lon="9.83805147759739"><ele>134.14285714285714</ele><time>2026-03-28T15:52:46Z</time></trkpt><trkpt lat="44.87356317399153" lon="9.838091577758146"><ele>133.85714285714286</ele><time>2026-03-28T15:52:46.999Z</time></trkpt><trkpt lat="44.87362864747116" lon="9.838130481347218"><ele>133.57142857142856</ele><time>2026-03-28T15:52:47.999Z</time></trkpt><trkpt lat="44.873693595016725" lon="9.838172917737921"><ele>133.28571428571428</ele><time>2026-03-28T15:52:48.999Z</time></trkpt><trkpt lat="44.873760402352886" lon="9.838220422928446"><ele>133.0</ele><time>2026-03-28T15:52:49.999Z</time></trkpt><trkpt lat="44.87382916397476" lon="9.838268875731005"><ele>133.0</ele><time>2026-03-28T15:52:50.999Z</time></trkpt><trkpt lat="44.87390353115995" lon="9.83830862725011"><ele>133.0</ele><time>2026-03-28T15:52:51.999Z</time></trkpt><trkpt lat="44.87397908116832" lon="9.838346100922594"><ele>133.0</ele><time>2026-03-28T15:52:52.999Z</time></trkpt><trkpt lat="44.874056106661406" lon="9.838384275631848"><ele>133.0</ele><time>2026-03-28T15:52:53.999Z</time></trkpt><trkpt lat="44.87413327462642" lon="9.838413307308754"><ele>133.0</ele><time>2026-03-28T15:52:54.999Z</time></trkpt><trkpt lat="44.87421205462821" lon="9.838438831792557"><ele>133.0</ele><time>2026-03-28T15:52:55.999Z</time></trkpt><trkpt lat="44.87429321953893" lon="9.838447869753624"><ele>132.5</ele><time>2026-03-28T15:52:56.999Z</time></trkpt><trkpt lat="44.87437241362643" lon="9.838438351467255"><ele>132.0</ele><time>2026-03-28T15:52:57.999Z</time></trkpt><trkpt lat="44.87444648315776" lon="9.838413703817722"><ele>131.5</ele><time>2026-03-28T15:52:58.999Z</time></trkpt><trkpt lat="44.874520816585985" lon="9.838387410045693"><ele>131.0</ele><time>2026-03-28T15:52:59.999Z</time></trkpt><trkpt lat="44.87459325156615" lon="9.838363365463367"><ele>130.5</ele><time>2026-03-28T15:53:00.999Z</time></trkpt><trkpt lat="44.87466560000656" lon="9.838340872414781"><ele>130.0</ele><time>2026-03-28T15:53:01.999Z</time></trkpt><trkpt lat="44.87473629139624" lon="9.838321743421874"><ele>130.0</ele><time>2026-03-28T15:53:02.999Z</time></trkpt><trkpt lat="44.87481172112967" lon="9.838312993337452"><ele>130.0</ele><time>2026-03-28T15:53:03.999Z</time></trkpt><trkpt lat="44.874889590259095" lon="9.83832447781343"><ele>130.0</ele><time>2026-03-28T15:53:04.999Z</time></trkpt><trkpt lat="44.87496530553034" lon="9.838340472323296"><ele>130.0</ele><time>2026-03-28T15:53:05.999Z</time></trkpt><trkpt lat="44.87504129644251" lon="9.838356193965263"><ele>130.0</ele><time>2026-03-28T15:53:06.999Z</time></trkpt><trkpt lat="44.875114104053274" lon="9.838379396239642"><ele>130.0</ele><time>2026-03-28T15:53:07.999Z</time></trkpt><trkpt lat="44.875189185775405" lon="9.838402903007266"><ele>130.0</ele><time>2026-03-28T15:53:08.999Z</time></trkpt><trkpt lat="44.87526511961275" lon="9.838425350448004"><ele>130.0</ele><time>2026-03-28T15:53:09.999Z</time></trkpt><trkpt lat="44.8753410265852" lon="9.838447429056837"><ele>130.0</ele><time>2026-03-28T15:53:10.999Z</time></trkpt><trkpt lat="44.87541732779398" lon="9.838468217647181"><ele>130.0</ele><time>2026-03-28T15:53:11.999Z</time></trkpt><trkpt lat="44.875495833232094" lon="9.838494371949736"><ele>130.0</ele><time>2026-03-28T15:53:12.999Z</time></trkpt><trkpt lat="44.87557208621875" lon="9.83851806576836"><ele>130.0</ele><time>2026-03-28T15:53:13.999Z</time></trkpt><trkpt lat="44.87564828763117" lon="9.838539771383143"><ele>129.5</ele><time>2026-03-28T15:53:14.999Z</time></trkpt><trkpt lat="44.87572447653491" lon="9.838562662354914"><ele>129.0</ele><time>2026-03-28T15:53:15.999Z</time></trkpt><trkpt lat="44.875799100721224" lon="9.83858744191308"><ele>128.5</ele><time>2026-03-28T15:53:16.999Z</time></trkpt><trkpt lat="44.8758740988578" lon="9.83861856034939"><ele>128.0</ele><time>2026-03-28T15:53:17.999Z</time></trkpt><trkpt lat="44.87595187640542" lon="9.838644837789897"><ele>127.50000000000001</ele><time>2026-03-28T15:53:18.999Z</time></trkpt><trkpt lat="44.87602724948806" lon="9.838680286468552"><ele>127.0</ele><time>2026-03-28T15:53:19.999Z</time></trkpt><trkpt lat="44.876100566111006" lon="9.838710187032174"><ele>126.83333333333334</ele><time>2026-03-28T15:53:20.999Z</time></trkpt><trkpt lat="44.87617694475503" lon="9.838738496181142"><ele>126.66666666666667</ele><time>2026-03-28T15:53:21.999Z</time></trkpt><trkpt lat="44.876250920835695" lon="9.838777967346013"><ele>126.5</ele><time>2026-03-28T15:53:22.999Z</time></trkpt><trkpt lat="44.876324855880846" lon="9.838810693979323"><ele>126.33333333333334</ele><time>2026-03-28T15:53:23.999Z</time></trkpt><trkpt lat="44.876401972989996" lon="9.83883614561276"><ele>126.16666666666667</ele><time>2026-03-28T15:53:24.999Z</time></trkpt><trkpt lat="44.87647216433792" lon="9.838873596157155"><ele>126.0</ele><time>2026-03-28T15:53:25.999Z</time></trkpt><trkpt lat="44.876543660687425" lon="9.838907688039502"><ele>126.0</ele><time>2026-03-28T15:53:26.999Z</time></trkpt><trkpt lat="44.87661362831763" lon="9.838949987949919"><ele>126.0</ele><time>2026-03-28T15:53:27.999Z</time></trkpt><trkpt lat="44.87668574516262" lon="9.83899122833122"><ele>126.0</ele><time>2026-03-28T15:53:28.999Z</time></trkpt><trkpt lat="44.87674402579862" lon="9.839067318204151"><ele>126.0</ele><time>2026-03-28T15:53:29.999Z</time></trkpt><trkpt lat="44.87681400943934" lon="9.8391192613753"><ele>126.0</ele><time>2026-03-28T15:53:30.999Z</time></trkpt><trkpt lat="44.87686560585186" lon="9.839199983238254"><ele>126.0</ele><time>2026-03-28T15:53:31.999Z</time></trkpt><trkpt lat="44.876917810812124" lon="9.839282456424394"><ele>126.16666666666667</ele><time>2026-03-28T15:53:32.999Z</time></trkpt><trkpt lat="44.87697632657955" lon="9.839355555504655"><ele>126.33333333333334</ele><time>2026-03-28T15:53:33.999Z</time></trkpt><trkpt lat="44.87703255879247" lon="9.839429694633713"><ele>126.5</ele><time>2026-03-28T15:53:34.999Z</time></trkpt><trkpt lat="44.877091415751806" lon="9.839501724797694"><ele>126.66666666666667</ele><time>2026-03-28T15:53:35.999Z</time></trkpt><trkpt lat="44.87715268121716" lon="9.839569370609087"><ele>126.83333333333334</ele><time>2026-03-28T15:53:36.999Z</time></trkpt><trkpt lat="44.877214878579025" lon="9.8396366940866"><ele>127.0</ele><time>2026-03-28T15:53:37.999Z</time></trkpt><trkpt lat="44.87727610438317" lon="9.839705577932133"><ele>127.0</ele><time>2026-03-28T15:53:38.999Z</time></trkpt><trkpt lat="44.877334524952715" lon="9.839769506630061"><ele>127.0</ele><time>2026-03-28T15:53:39.999Z</time></trkpt><trkpt lat="44.87739638225197" lon="9.839830225776659"><ele>127.0</ele><time>2026-03-28T15:53:40.999Z</time></trkpt><trkpt lat="44.877452553003664" lon="9.839899817621818"><ele>127.0</ele><time>2026-03-28T15:53:41.999Z</time></trkpt><trkpt lat="44.87749950109113" lon="9.839981440838772"><ele>127.0</ele><time>2026-03-28T15:53:42.999Z</time></trkpt><trkpt lat="44.877536975315074" lon="9.8400710663281"><ele>127.0</ele><time>2026-03-28T15:53:43.999Z</time></trkpt><trkpt lat="44.8775559066518" lon="9.840175582084038"><ele>127.0</ele><time>2026-03-28T15:53:44.999Z</time></trkpt><trkpt lat="44.87755780301973" lon="9.840283461985461"><ele>126.85714285714286</ele><time>2026-03-28T15:53:45.998Z</time></trkpt><trkpt lat="44.87756054202127" lon="9.840394049622548"><ele>126.71428571428571</ele><time>2026-03-28T15:53:46.998Z</time></trkpt><trkpt lat="44.87757401698025" lon="9.840497393456436"><ele>126.57142857142857</ele><time>2026-03-28T15:53:47.998Z</time></trkpt><trkpt lat="44.87760185182148" lon="9.840588945133332"><ele>126.42857142857143</ele><time>2026-03-28T15:53:48.998Z</time></trkpt><trkpt lat="44.87766029842926" lon="9.840655558912317"><ele>126.28571428571428</ele><time>2026-03-28T15:53:49.998Z</time></trkpt><trkpt lat="44.877731258536535" lon="9.840647147208989"><ele>126.14285714285714</ele><time>2026-03-28T15:53:50.998Z</time></trkpt><trkpt lat="44.87779261683904" lon="9.840700137573032"><ele>126.0</ele><time>2026-03-28T15:53:51.998Z</time></trkpt><trkpt lat="44.87786013845291" lon="9.84072534470339"><ele>126.16666666666667</ele><time>2026-03-28T15:53:52.998Z</time></trkpt><trkpt lat="44.877961130740275" lon="9.840741067012234"><ele>126.33333333333334</ele><time>2026-03-28T15:53:54.998Z</time></trkpt><trkpt lat="44.87804383308419" lon="9.840743378615056"><ele>126.5</ele><time>2026-03-28T15:53:56.998Z</time></trkpt><trkpt lat="44.87810632393261" lon="9.840791986924453"><ele>126.66666666666667</ele><time>2026-03-28T15:53:58.998Z</time></trkpt><trkpt lat="44.878071888109595" lon="9.84089021607164"><ele>126.83333333333334</ele><time>2026-03-28T15:54:03.998Z</time></trkpt><trkpt lat="44.878019947640965" lon="9.840963637982604"><ele>127.0</ele><time>2026-03-28T15:54:12.998Z</time></trkpt><trkpt lat="44.87805438310708" lon="9.84110167958564"><ele>127.0</ele><time>2026-03-28T15:54:14.998Z</time></trkpt><trkpt lat="44.87806397682076" lon="9.841213380178912"><ele>127.0</ele><time>2026-03-28T15:54:17.998Z</time></trkpt><trkpt lat="44.87806802642128" lon="9.84111770107548"><ele>127.0</ele><time>2026-03-28T15:54:25.998Z</time></trkpt><trkpt lat="44.87807528162986" lon="9.841017759470896"><ele>127.0</ele><time>2026-03-28T15:54:29.998Z</time></trkpt><trkpt lat="44.87810151146862" lon="9.840848341160507"><ele>129.0</ele><time>2026-03-28T15:57:06.999Z</time></trkpt><trkpt lat="44.87810151146862" lon="9.840848341160507"><ele>129.0</ele><time>2026-03-28T15:57:06.999Z</time></trkpt><trkpt lat="44.87810151146862" lon="9.840848341160507"><ele>129.0</ele><time>2026-03-28T15:57:06.999Z</time></trkpt></trkseg></trk></gpx>